<?xml version="1.0" encoding="UTF-8" standalone="no" ?>
<gpx xmlns="http://www.topografix.com/GPX/1/1" xmlns:xsi="http://www.w3.org/2001/XMLSchema-instance" xsi:schemaLocation="http://www.topografix.com/GPX/1/1 http://www.topografix.com/GPX/1/1/gpx.xsd" version="1.1" creator="VisuGPX - https://www.visugpx.com">
  <metadata>
    <name>25-08-08</name>
    <desc><![CDATA[TDF-USMétro]]></desc>
  </metadata>
  <trk>
    <name><![CDATA[Hauts de Bienne Cyclisme sur route]]></name>
    <trkseg>
      <trkpt lat="46.52169" lon="6.02066">
        <ele>710</ele>
        <time>2025-08-08T05:28:35.000Z</time>
      </trkpt>
      <trkpt lat="46.52169" lon="6.02065">
        <ele>712.59997558594</ele>
        <time>2025-08-08T05:28:38.000Z</time>
      </trkpt>
      <trkpt lat="46.52169" lon="6.02085">
        <ele>712.79998779297</ele>
        <time>2025-08-08T05:28:53.000Z</time>
      </trkpt>
      <trkpt lat="46.52169" lon="6.02089">
        <ele>713</ele>
        <time>2025-08-08T05:28:54.000Z</time>
      </trkpt>
      <trkpt lat="46.52169" lon="6.02105">
        <ele>713.20001220703</ele>
        <time>2025-08-08T05:28:59.000Z</time>
      </trkpt>
      <trkpt lat="46.52164" lon="6.02111">
        <ele>713.20001220703</ele>
        <time>2025-08-08T05:29:04.000Z</time>
      </trkpt>
      <trkpt lat="46.52164" lon="6.02108">
        <ele>713.20001220703</ele>
        <time>2025-08-08T05:29:05.000Z</time>
      </trkpt>
      <trkpt lat="46.52164" lon="6.02104">
        <ele>713.20001220703</ele>
        <time>2025-08-08T05:29:06.000Z</time>
      </trkpt>
      <trkpt lat="46.52167" lon="6.02093">
        <ele>713.40002441406</ele>
        <time>2025-08-08T05:29:09.000Z</time>
      </trkpt>
      <trkpt lat="46.52179" lon="6.02071">
        <ele>714</ele>
        <time>2025-08-08T05:29:15.000Z</time>
      </trkpt>
      <trkpt lat="46.52183" lon="6.02065">
        <ele>714.40002441406</ele>
        <time>2025-08-08T05:29:17.000Z</time>
      </trkpt>
      <trkpt lat="46.52198" lon="6.02049">
        <ele>715.20001220703</ele>
        <time>2025-08-08T05:29:24.000Z</time>
      </trkpt>
      <trkpt lat="46.522" lon="6.02048">
        <ele>715.40002441406</ele>
        <time>2025-08-08T05:29:25.000Z</time>
      </trkpt>
      <trkpt lat="46.52215" lon="6.02038">
        <ele>716</ele>
        <time>2025-08-08T05:29:31.000Z</time>
      </trkpt>
      <trkpt lat="46.52229" lon="6.0203">
        <ele>716.40002441406</ele>
        <time>2025-08-08T05:29:36.000Z</time>
      </trkpt>
      <trkpt lat="46.52234" lon="6.02027">
        <ele>716.59997558594</ele>
        <time>2025-08-08T05:29:38.000Z</time>
      </trkpt>
      <trkpt lat="46.52254" lon="6.02023">
        <ele>717.20001220703</ele>
        <time>2025-08-08T05:29:45.000Z</time>
      </trkpt>
      <trkpt lat="46.52256" lon="6.02022">
        <ele>717.40002441406</ele>
        <time>2025-08-08T05:29:46.000Z</time>
      </trkpt>
      <trkpt lat="46.52267" lon="6.02021">
        <ele>718.20001220703</ele>
        <time>2025-08-08T05:29:50.000Z</time>
      </trkpt>
      <trkpt lat="46.52272" lon="6.02021">
        <ele>718.59997558594</ele>
        <time>2025-08-08T05:29:52.000Z</time>
      </trkpt>
      <trkpt lat="46.52289" lon="6.02021">
        <ele>719.20001220703</ele>
        <time>2025-08-08T05:29:58.000Z</time>
      </trkpt>
      <trkpt lat="46.52298" lon="6.02021">
        <ele>719.59997558594</ele>
        <time>2025-08-08T05:30:02.000Z</time>
      </trkpt>
      <trkpt lat="46.52308" lon="6.0202">
        <ele>720</ele>
        <time>2025-08-08T05:30:06.000Z</time>
      </trkpt>
      <trkpt lat="46.52316" lon="6.0202">
        <ele>720.79998779297</ele>
        <time>2025-08-08T05:30:09.000Z</time>
      </trkpt>
      <trkpt lat="46.52328" lon="6.0202">
        <ele>721.40002441406</ele>
        <time>2025-08-08T05:30:14.000Z</time>
      </trkpt>
      <trkpt lat="46.52335" lon="6.02018">
        <ele>722</ele>
        <time>2025-08-08T05:30:17.000Z</time>
      </trkpt>
      <trkpt lat="46.52348" lon="6.02017">
        <ele>722.20001220703</ele>
        <time>2025-08-08T05:30:22.000Z</time>
      </trkpt>
      <trkpt lat="46.52362" lon="6.02017">
        <ele>723</ele>
        <time>2025-08-08T05:30:28.000Z</time>
      </trkpt>
      <trkpt lat="46.52365" lon="6.02017">
        <ele>723.20001220703</ele>
        <time>2025-08-08T05:30:29.000Z</time>
      </trkpt>
      <trkpt lat="46.52391" lon="6.02015">
        <ele>724.20001220703</ele>
        <time>2025-08-08T05:30:39.000Z</time>
      </trkpt>
      <trkpt lat="46.52411" lon="6.02013">
        <ele>725.20001220703</ele>
        <time>2025-08-08T05:30:47.000Z</time>
      </trkpt>
      <trkpt lat="46.52413" lon="6.02013">
        <ele>725.40002441406</ele>
        <time>2025-08-08T05:30:48.000Z</time>
      </trkpt>
      <trkpt lat="46.52434" lon="6.02014">
        <ele>726.59997558594</ele>
        <time>2025-08-08T05:30:57.000Z</time>
      </trkpt>
      <trkpt lat="46.52442" lon="6.02014">
        <ele>727</ele>
        <time>2025-08-08T05:31:00.000Z</time>
      </trkpt>
      <trkpt lat="46.52457" lon="6.02013">
        <ele>727.59997558594</ele>
        <time>2025-08-08T05:31:06.000Z</time>
      </trkpt>
      <trkpt lat="46.52462" lon="6.02013">
        <ele>727.59997558594</ele>
        <time>2025-08-08T05:31:08.000Z</time>
      </trkpt>
      <trkpt lat="46.5248" lon="6.02012">
        <ele>728.59997558594</ele>
        <time>2025-08-08T05:31:15.000Z</time>
      </trkpt>
      <trkpt lat="46.52484" lon="6.02013">
        <ele>729</ele>
        <time>2025-08-08T05:31:17.000Z</time>
      </trkpt>
      <trkpt lat="46.52499" lon="6.02016">
        <ele>729.79998779297</ele>
        <time>2025-08-08T05:31:23.000Z</time>
      </trkpt>
      <trkpt lat="46.52506" lon="6.02018">
        <ele>730.20001220703</ele>
        <time>2025-08-08T05:31:26.000Z</time>
      </trkpt>
      <trkpt lat="46.52523" lon="6.0202">
        <ele>730.79998779297</ele>
        <time>2025-08-08T05:31:33.000Z</time>
      </trkpt>
      <trkpt lat="46.52533" lon="6.02024">
        <ele>731.40002441406</ele>
        <time>2025-08-08T05:31:37.000Z</time>
      </trkpt>
      <trkpt lat="46.52544" lon="6.02028">
        <ele>732</ele>
        <time>2025-08-08T05:31:42.000Z</time>
      </trkpt>
      <trkpt lat="46.52558" lon="6.02034">
        <ele>732.79998779297</ele>
        <time>2025-08-08T05:31:48.000Z</time>
      </trkpt>
      <trkpt lat="46.5256" lon="6.02035">
        <ele>733</ele>
        <time>2025-08-08T05:31:49.000Z</time>
      </trkpt>
      <trkpt lat="46.52573" lon="6.0204">
        <ele>733.40002441406</ele>
        <time>2025-08-08T05:31:55.000Z</time>
      </trkpt>
      <trkpt lat="46.52586" lon="6.02042">
        <ele>734</ele>
        <time>2025-08-08T05:32:00.000Z</time>
      </trkpt>
      <trkpt lat="46.52605" lon="6.02043">
        <ele>735</ele>
        <time>2025-08-08T05:32:07.000Z</time>
      </trkpt>
      <trkpt lat="46.52607" lon="6.02044">
        <ele>735.20001220703</ele>
        <time>2025-08-08T05:32:08.000Z</time>
      </trkpt>
      <trkpt lat="46.52632" lon="6.02047">
        <ele>736.40002441406</ele>
        <time>2025-08-08T05:32:18.000Z</time>
      </trkpt>
      <trkpt lat="46.52635" lon="6.02048">
        <ele>736.40002441406</ele>
        <time>2025-08-08T05:32:19.000Z</time>
      </trkpt>
      <trkpt lat="46.52656" lon="6.0205">
        <ele>737.20001220703</ele>
        <time>2025-08-08T05:32:27.000Z</time>
      </trkpt>
      <trkpt lat="46.52663" lon="6.02051">
        <ele>737.59997558594</ele>
        <time>2025-08-08T05:32:30.000Z</time>
      </trkpt>
      <trkpt lat="46.52673" lon="6.0205">
        <ele>737.79998779297</ele>
        <time>2025-08-08T05:32:34.000Z</time>
      </trkpt>
      <trkpt lat="46.52685" lon="6.02047">
        <ele>738.79998779297</ele>
        <time>2025-08-08T05:32:39.000Z</time>
      </trkpt>
      <trkpt lat="46.52695" lon="6.02044">
        <ele>739.40002441406</ele>
        <time>2025-08-08T05:32:43.000Z</time>
      </trkpt>
      <trkpt lat="46.52705" lon="6.0204">
        <ele>740</ele>
        <time>2025-08-08T05:32:47.000Z</time>
      </trkpt>
      <trkpt lat="46.52712" lon="6.02039">
        <ele>740.40002441406</ele>
        <time>2025-08-08T05:32:50.000Z</time>
      </trkpt>
      <trkpt lat="46.52721" lon="6.02035">
        <ele>741</ele>
        <time>2025-08-08T05:32:54.000Z</time>
      </trkpt>
      <trkpt lat="46.52723" lon="6.02034">
        <ele>741.20001220703</ele>
        <time>2025-08-08T05:32:55.000Z</time>
      </trkpt>
      <trkpt lat="46.52725" lon="6.02033">
        <ele>741.20001220703</ele>
        <time>2025-08-08T05:32:56.000Z</time>
      </trkpt>
      <trkpt lat="46.52736" lon="6.02031">
        <ele>741.59997558594</ele>
        <time>2025-08-08T05:33:01.000Z</time>
      </trkpt>
      <trkpt lat="46.52743" lon="6.02028">
        <ele>742</ele>
        <time>2025-08-08T05:33:04.000Z</time>
      </trkpt>
      <trkpt lat="46.52748" lon="6.02027">
        <ele>742.40002441406</ele>
        <time>2025-08-08T05:33:06.000Z</time>
      </trkpt>
      <trkpt lat="46.5276" lon="6.02023">
        <ele>743.20001220703</ele>
        <time>2025-08-08T05:33:11.000Z</time>
      </trkpt>
      <trkpt lat="46.52765" lon="6.0202">
        <ele>743.59997558594</ele>
        <time>2025-08-08T05:33:13.000Z</time>
      </trkpt>
      <trkpt lat="46.52783" lon="6.0201">
        <ele>744.20001220703</ele>
        <time>2025-08-08T05:33:20.000Z</time>
      </trkpt>
      <trkpt lat="46.52787" lon="6.02005">
        <ele>744.59997558594</ele>
        <time>2025-08-08T05:33:22.000Z</time>
      </trkpt>
      <trkpt lat="46.52798" lon="6.01989">
        <ele>745</ele>
        <time>2025-08-08T05:33:28.000Z</time>
      </trkpt>
      <trkpt lat="46.52804" lon="6.01967">
        <ele>745.79998779297</ele>
        <time>2025-08-08T05:33:34.000Z</time>
      </trkpt>
      <trkpt lat="46.52805" lon="6.01964">
        <ele>746</ele>
        <time>2025-08-08T05:33:35.000Z</time>
      </trkpt>
      <trkpt lat="46.52809" lon="6.01946">
        <ele>746.40002441406</ele>
        <time>2025-08-08T05:33:40.000Z</time>
      </trkpt>
      <trkpt lat="46.52812" lon="6.01927">
        <ele>746.79998779297</ele>
        <time>2025-08-08T05:33:46.000Z</time>
      </trkpt>
      <trkpt lat="46.52813" lon="6.01924">
        <ele>746.79998779297</ele>
        <time>2025-08-08T05:33:47.000Z</time>
      </trkpt>
      <trkpt lat="46.52814" lon="6.01913">
        <ele>747.40002441406</ele>
        <time>2025-08-08T05:33:51.000Z</time>
      </trkpt>
      <trkpt lat="46.52815" lon="6.0191">
        <ele>747.40002441406</ele>
        <time>2025-08-08T05:33:52.000Z</time>
      </trkpt>
      <trkpt lat="46.52816" lon="6.01903">
        <ele>747.79998779297</ele>
        <time>2025-08-08T05:33:54.000Z</time>
      </trkpt>
      <trkpt lat="46.52818" lon="6.01897">
        <ele>748</ele>
        <time>2025-08-08T05:33:56.000Z</time>
      </trkpt>
      <trkpt lat="46.52819" lon="6.01892">
        <ele>748.59997558594</ele>
        <time>2025-08-08T05:33:58.000Z</time>
      </trkpt>
      <trkpt lat="46.5282" lon="6.01882">
        <ele>749</ele>
        <time>2025-08-08T05:34:01.000Z</time>
      </trkpt>
      <trkpt lat="46.52827" lon="6.01854">
        <ele>749.79998779297</ele>
        <time>2025-08-08T05:34:08.000Z</time>
      </trkpt>
      <trkpt lat="46.5283" lon="6.01843">
        <ele>750</ele>
        <time>2025-08-08T05:34:11.000Z</time>
      </trkpt>
      <trkpt lat="46.52832" lon="6.01839">
        <ele>750</ele>
        <time>2025-08-08T05:34:12.000Z</time>
      </trkpt>
      <trkpt lat="46.52836" lon="6.0183">
        <ele>750.59997558594</ele>
        <time>2025-08-08T05:34:15.000Z</time>
      </trkpt>
      <trkpt lat="46.52845" lon="6.01808">
        <ele>751</ele>
        <time>2025-08-08T05:34:21.000Z</time>
      </trkpt>
      <trkpt lat="46.52846" lon="6.01804">
        <ele>751.20001220703</ele>
        <time>2025-08-08T05:34:22.000Z</time>
      </trkpt>
      <trkpt lat="46.52858" lon="6.0178">
        <ele>751.79998779297</ele>
        <time>2025-08-08T05:34:29.000Z</time>
      </trkpt>
      <trkpt lat="46.52864" lon="6.01771">
        <ele>752.20001220703</ele>
        <time>2025-08-08T05:34:32.000Z</time>
      </trkpt>
      <trkpt lat="46.52871" lon="6.01757">
        <ele>752.79998779297</ele>
        <time>2025-08-08T05:34:36.000Z</time>
      </trkpt>
      <trkpt lat="46.52878" lon="6.01744">
        <ele>753.20001220703</ele>
        <time>2025-08-08T05:34:40.000Z</time>
      </trkpt>
      <trkpt lat="46.52881" lon="6.0174">
        <ele>753.20001220703</ele>
        <time>2025-08-08T05:34:41.000Z</time>
      </trkpt>
      <trkpt lat="46.52895" lon="6.01718">
        <ele>754.20001220703</ele>
        <time>2025-08-08T05:34:48.000Z</time>
      </trkpt>
      <trkpt lat="46.52897" lon="6.01715">
        <ele>754.20001220703</ele>
        <time>2025-08-08T05:34:49.000Z</time>
      </trkpt>
      <trkpt lat="46.52899" lon="6.01712">
        <ele>754.40002441406</ele>
        <time>2025-08-08T05:34:50.000Z</time>
      </trkpt>
      <trkpt lat="46.52913" lon="6.01693">
        <ele>755</ele>
        <time>2025-08-08T05:34:56.000Z</time>
      </trkpt>
      <trkpt lat="46.52923" lon="6.0168">
        <ele>755.20001220703</ele>
        <time>2025-08-08T05:35:00.000Z</time>
      </trkpt>
      <trkpt lat="46.52932" lon="6.01668">
        <ele>755.59997558594</ele>
        <time>2025-08-08T05:35:04.000Z</time>
      </trkpt>
      <trkpt lat="46.52941" lon="6.01651">
        <ele>756.20001220703</ele>
        <time>2025-08-08T05:35:09.000Z</time>
      </trkpt>
      <trkpt lat="46.52942" lon="6.01648">
        <ele>756.40002441406</ele>
        <time>2025-08-08T05:35:10.000Z</time>
      </trkpt>
      <trkpt lat="46.52948" lon="6.01633">
        <ele>756.79998779297</ele>
        <time>2025-08-08T05:35:15.000Z</time>
      </trkpt>
      <trkpt lat="46.52952" lon="6.0162">
        <ele>757.40002441406</ele>
        <time>2025-08-08T05:35:19.000Z</time>
      </trkpt>
      <trkpt lat="46.52954" lon="6.01612">
        <ele>757.59997558594</ele>
        <time>2025-08-08T05:35:21.000Z</time>
      </trkpt>
      <trkpt lat="46.52959" lon="6.01593">
        <ele>758.20001220703</ele>
        <time>2025-08-08T05:35:27.000Z</time>
      </trkpt>
      <trkpt lat="46.52961" lon="6.01585">
        <ele>758.40002441406</ele>
        <time>2025-08-08T05:35:29.000Z</time>
      </trkpt>
      <trkpt lat="46.52968" lon="6.01567">
        <ele>758.59997558594</ele>
        <time>2025-08-08T05:35:34.000Z</time>
      </trkpt>
      <trkpt lat="46.52973" lon="6.01552">
        <ele>759.40002441406</ele>
        <time>2025-08-08T05:35:38.000Z</time>
      </trkpt>
      <trkpt lat="46.52981" lon="6.01533">
        <ele>760.20001220703</ele>
        <time>2025-08-08T05:35:43.000Z</time>
      </trkpt>
      <trkpt lat="46.52985" lon="6.01521">
        <ele>760.40002441406</ele>
        <time>2025-08-08T05:35:46.000Z</time>
      </trkpt>
      <trkpt lat="46.52993" lon="6.01501">
        <ele>761.20001220703</ele>
        <time>2025-08-08T05:35:51.000Z</time>
      </trkpt>
      <trkpt lat="46.52995" lon="6.01489">
        <ele>761.59997558594</ele>
        <time>2025-08-08T05:35:54.000Z</time>
      </trkpt>
      <trkpt lat="46.52999" lon="6.01479">
        <ele>761.79998779297</ele>
        <time>2025-08-08T05:35:57.000Z</time>
      </trkpt>
      <trkpt lat="46.53007" lon="6.01457">
        <ele>762.59997558594</ele>
        <time>2025-08-08T05:36:03.000Z</time>
      </trkpt>
      <trkpt lat="46.53008" lon="6.01453">
        <ele>762.59997558594</ele>
        <time>2025-08-08T05:36:04.000Z</time>
      </trkpt>
      <trkpt lat="46.53017" lon="6.01428">
        <ele>763.20001220703</ele>
        <time>2025-08-08T05:36:11.000Z</time>
      </trkpt>
      <trkpt lat="46.53025" lon="6.01412">
        <ele>763.59997558594</ele>
        <time>2025-08-08T05:36:16.000Z</time>
      </trkpt>
      <trkpt lat="46.53037" lon="6.01392">
        <ele>764.20001220703</ele>
        <time>2025-08-08T05:36:22.000Z</time>
      </trkpt>
      <trkpt lat="46.53045" lon="6.01383">
        <ele>764.59997558594</ele>
        <time>2025-08-08T05:36:25.000Z</time>
      </trkpt>
      <trkpt lat="46.53055" lon="6.01371">
        <ele>765</ele>
        <time>2025-08-08T05:36:29.000Z</time>
      </trkpt>
      <trkpt lat="46.53063" lon="6.01358">
        <ele>765.40002441406</ele>
        <time>2025-08-08T05:36:33.000Z</time>
      </trkpt>
      <trkpt lat="46.53065" lon="6.01355">
        <ele>765.59997558594</ele>
        <time>2025-08-08T05:36:34.000Z</time>
      </trkpt>
      <trkpt lat="46.53081" lon="6.01339">
        <ele>766.40002441406</ele>
        <time>2025-08-08T05:36:40.000Z</time>
      </trkpt>
      <trkpt lat="46.53088" lon="6.01331">
        <ele>766.79998779297</ele>
        <time>2025-08-08T05:36:43.000Z</time>
      </trkpt>
      <trkpt lat="46.53097" lon="6.01321">
        <ele>767.20001220703</ele>
        <time>2025-08-08T05:36:47.000Z</time>
      </trkpt>
      <trkpt lat="46.53115" lon="6.01307">
        <ele>767.79998779297</ele>
        <time>2025-08-08T05:36:53.000Z</time>
      </trkpt>
      <trkpt lat="46.53122" lon="6.013">
        <ele>768.20001220703</ele>
        <time>2025-08-08T05:36:56.000Z</time>
      </trkpt>
      <trkpt lat="46.53136" lon="6.01284">
        <ele>769</ele>
        <time>2025-08-08T05:37:02.000Z</time>
      </trkpt>
      <trkpt lat="46.53141" lon="6.01275">
        <ele>769.20001220703</ele>
        <time>2025-08-08T05:37:05.000Z</time>
      </trkpt>
      <trkpt lat="46.53157" lon="6.01249">
        <ele>770</ele>
        <time>2025-08-08T05:37:13.000Z</time>
      </trkpt>
      <trkpt lat="46.53159" lon="6.01245">
        <ele>770.20001220703</ele>
        <time>2025-08-08T05:37:14.000Z</time>
      </trkpt>
      <trkpt lat="46.5317" lon="6.01224">
        <ele>771</ele>
        <time>2025-08-08T05:37:20.000Z</time>
      </trkpt>
      <trkpt lat="46.53172" lon="6.01217">
        <ele>771.20001220703</ele>
        <time>2025-08-08T05:37:22.000Z</time>
      </trkpt>
      <trkpt lat="46.53176" lon="6.01209">
        <ele>771.40002441406</ele>
        <time>2025-08-08T05:37:24.000Z</time>
      </trkpt>
      <trkpt lat="46.53182" lon="6.01189">
        <ele>772.20001220703</ele>
        <time>2025-08-08T05:37:29.000Z</time>
      </trkpt>
      <trkpt lat="46.53186" lon="6.01178">
        <ele>772.59997558594</ele>
        <time>2025-08-08T05:37:32.000Z</time>
      </trkpt>
      <trkpt lat="46.53193" lon="6.0116">
        <ele>773.20001220703</ele>
        <time>2025-08-08T05:37:37.000Z</time>
      </trkpt>
      <trkpt lat="46.53199" lon="6.01136">
        <ele>774</ele>
        <time>2025-08-08T05:37:43.000Z</time>
      </trkpt>
      <trkpt lat="46.53205" lon="6.01107">
        <ele>774.40002441406</ele>
        <time>2025-08-08T05:37:50.000Z</time>
      </trkpt>
      <trkpt lat="46.53206" lon="6.01103">
        <ele>774.59997558594</ele>
        <time>2025-08-08T05:37:51.000Z</time>
      </trkpt>
      <trkpt lat="46.53211" lon="6.01084">
        <ele>775.40002441406</ele>
        <time>2025-08-08T05:37:56.000Z</time>
      </trkpt>
      <trkpt lat="46.53211" lon="6.0107">
        <ele>775.79998779297</ele>
        <time>2025-08-08T05:37:59.000Z</time>
      </trkpt>
      <trkpt lat="46.53214" lon="6.01046">
        <ele>776.40002441406</ele>
        <time>2025-08-08T05:38:05.000Z</time>
      </trkpt>
      <trkpt lat="46.53217" lon="6.0103">
        <ele>776.79998779297</ele>
        <time>2025-08-08T05:38:09.000Z</time>
      </trkpt>
      <trkpt lat="46.53217" lon="6.01023">
        <ele>777.20001220703</ele>
        <time>2025-08-08T05:38:11.000Z</time>
      </trkpt>
      <trkpt lat="46.53221" lon="6.01003">
        <ele>777.79998779297</ele>
        <time>2025-08-08T05:38:16.000Z</time>
      </trkpt>
      <trkpt lat="46.53221" lon="6.00994">
        <ele>778.20001220703</ele>
        <time>2025-08-08T05:38:18.000Z</time>
      </trkpt>
      <trkpt lat="46.5322" lon="6.00966">
        <ele>778.79998779297</ele>
        <time>2025-08-08T05:38:25.000Z</time>
      </trkpt>
      <trkpt lat="46.53219" lon="6.00953">
        <ele>779.20001220703</ele>
        <time>2025-08-08T05:38:28.000Z</time>
      </trkpt>
      <trkpt lat="46.53218" lon="6.00944">
        <ele>779.40002441406</ele>
        <time>2025-08-08T05:38:30.000Z</time>
      </trkpt>
      <trkpt lat="46.53211" lon="6.00922">
        <ele>780</ele>
        <time>2025-08-08T05:38:35.000Z</time>
      </trkpt>
      <trkpt lat="46.53207" lon="6.00914">
        <ele>780.20001220703</ele>
        <time>2025-08-08T05:38:37.000Z</time>
      </trkpt>
      <trkpt lat="46.53198" lon="6.00891">
        <ele>781</ele>
        <time>2025-08-08T05:38:43.000Z</time>
      </trkpt>
      <trkpt lat="46.53191" lon="6.00875">
        <ele>781.59997558594</ele>
        <time>2025-08-08T05:38:47.000Z</time>
      </trkpt>
      <trkpt lat="46.53185" lon="6.00865">
        <ele>782</ele>
        <time>2025-08-08T05:38:50.000Z</time>
      </trkpt>
      <trkpt lat="46.53174" lon="6.00847">
        <ele>782.59997558594</ele>
        <time>2025-08-08T05:38:56.000Z</time>
      </trkpt>
      <trkpt lat="46.53166" lon="6.00834">
        <ele>783.20001220703</ele>
        <time>2025-08-08T05:39:00.000Z</time>
      </trkpt>
      <trkpt lat="46.53155" lon="6.00817">
        <ele>783.79998779297</ele>
        <time>2025-08-08T05:39:06.000Z</time>
      </trkpt>
      <trkpt lat="46.53149" lon="6.00808">
        <ele>784.20001220703</ele>
        <time>2025-08-08T05:39:09.000Z</time>
      </trkpt>
      <trkpt lat="46.53133" lon="6.00785">
        <ele>785.40002441406</ele>
        <time>2025-08-08T05:39:17.000Z</time>
      </trkpt>
      <trkpt lat="46.5313" lon="6.0078">
        <ele>785.59997558594</ele>
        <time>2025-08-08T05:39:19.000Z</time>
      </trkpt>
      <trkpt lat="46.53125" lon="6.00769">
        <ele>786</ele>
        <time>2025-08-08T05:39:23.000Z</time>
      </trkpt>
      <trkpt lat="46.5312" lon="6.00761">
        <ele>786.59997558594</ele>
        <time>2025-08-08T05:39:26.000Z</time>
      </trkpt>
      <trkpt lat="46.53111" lon="6.00745">
        <ele>787</ele>
        <time>2025-08-08T05:39:31.000Z</time>
      </trkpt>
      <trkpt lat="46.531" lon="6.00723">
        <ele>787.79998779297</ele>
        <time>2025-08-08T05:39:38.000Z</time>
      </trkpt>
      <trkpt lat="46.5309" lon="6.00703">
        <ele>788.40002441406</ele>
        <time>2025-08-08T05:39:45.000Z</time>
      </trkpt>
      <trkpt lat="46.53082" lon="6.0069">
        <ele>789</ele>
        <time>2025-08-08T05:39:49.000Z</time>
      </trkpt>
      <trkpt lat="46.53074" lon="6.00679">
        <ele>789.20001220703</ele>
        <time>2025-08-08T05:39:52.000Z</time>
      </trkpt>
      <trkpt lat="46.53062" lon="6.00661">
        <ele>789.79998779297</ele>
        <time>2025-08-08T05:39:57.000Z</time>
      </trkpt>
      <trkpt lat="46.53061" lon="6.00657">
        <ele>790</ele>
        <time>2025-08-08T05:39:58.000Z</time>
      </trkpt>
      <trkpt lat="46.5306" lon="6.00654">
        <ele>790</ele>
        <time>2025-08-08T05:39:59.000Z</time>
      </trkpt>
      <trkpt lat="46.53053" lon="6.00639">
        <ele>790.59997558594</ele>
        <time>2025-08-08T05:40:04.000Z</time>
      </trkpt>
      <trkpt lat="46.53047" lon="6.0063">
        <ele>791</ele>
        <time>2025-08-08T05:40:07.000Z</time>
      </trkpt>
      <trkpt lat="46.53036" lon="6.00611">
        <ele>791.59997558594</ele>
        <time>2025-08-08T05:40:13.000Z</time>
      </trkpt>
      <trkpt lat="46.53028" lon="6.00598">
        <ele>792.20001220703</ele>
        <time>2025-08-08T05:40:17.000Z</time>
      </trkpt>
      <trkpt lat="46.5302" lon="6.00587">
        <ele>792.59997558594</ele>
        <time>2025-08-08T05:40:21.000Z</time>
      </trkpt>
      <trkpt lat="46.53004" lon="6.00569">
        <ele>793.40002441406</ele>
        <time>2025-08-08T05:40:27.000Z</time>
      </trkpt>
      <trkpt lat="46.53001" lon="6.00566">
        <ele>793.40002441406</ele>
        <time>2025-08-08T05:40:28.000Z</time>
      </trkpt>
      <trkpt lat="46.52978" lon="6.00546">
        <ele>793.79998779297</ele>
        <time>2025-08-08T05:40:36.000Z</time>
      </trkpt>
      <trkpt lat="46.52973" lon="6.00543">
        <ele>794.20001220703</ele>
        <time>2025-08-08T05:40:38.000Z</time>
      </trkpt>
      <trkpt lat="46.52958" lon="6.00529">
        <ele>794.79998779297</ele>
        <time>2025-08-08T05:40:44.000Z</time>
      </trkpt>
      <trkpt lat="46.52951" lon="6.00521">
        <ele>795.20001220703</ele>
        <time>2025-08-08T05:40:47.000Z</time>
      </trkpt>
      <trkpt lat="46.52943" lon="6.00503">
        <ele>795.79998779297</ele>
        <time>2025-08-08T05:40:52.000Z</time>
      </trkpt>
      <trkpt lat="46.52942" lon="6.00482">
        <ele>796.40002441406</ele>
        <time>2025-08-08T05:40:57.000Z</time>
      </trkpt>
      <trkpt lat="46.52942" lon="6.00478">
        <ele>796.40002441406</ele>
        <time>2025-08-08T05:40:58.000Z</time>
      </trkpt>
      <trkpt lat="46.52941" lon="6.00452">
        <ele>797.40002441406</ele>
        <time>2025-08-08T05:41:04.000Z</time>
      </trkpt>
      <trkpt lat="46.52941" lon="6.00439">
        <ele>797.79998779297</ele>
        <time>2025-08-08T05:41:07.000Z</time>
      </trkpt>
      <trkpt lat="46.5294" lon="6.00413">
        <ele>798.59997558594</ele>
        <time>2025-08-08T05:41:13.000Z</time>
      </trkpt>
      <trkpt lat="46.52939" lon="6.00405">
        <ele>798.79998779297</ele>
        <time>2025-08-08T05:41:15.000Z</time>
      </trkpt>
      <trkpt lat="46.5293" lon="6.00368">
        <ele>799.79998779297</ele>
        <time>2025-08-08T05:41:24.000Z</time>
      </trkpt>
      <trkpt lat="46.52924" lon="6.00336">
        <ele>800.59997558594</ele>
        <time>2025-08-08T05:41:32.000Z</time>
      </trkpt>
      <trkpt lat="46.52924" lon="6.00331">
        <ele>800.79998779297</ele>
        <time>2025-08-08T05:41:33.000Z</time>
      </trkpt>
      <trkpt lat="46.52922" lon="6.00296">
        <ele>801.79998779297</ele>
        <time>2025-08-08T05:41:41.000Z</time>
      </trkpt>
      <trkpt lat="46.52922" lon="6.00289">
        <ele>802</ele>
        <time>2025-08-08T05:41:43.000Z</time>
      </trkpt>
      <trkpt lat="46.52921" lon="6.0026">
        <ele>802.59997558594</ele>
        <time>2025-08-08T05:41:50.000Z</time>
      </trkpt>
      <trkpt lat="46.52921" lon="6.00246">
        <ele>803</ele>
        <time>2025-08-08T05:41:53.000Z</time>
      </trkpt>
      <trkpt lat="46.52918" lon="6.00227">
        <ele>803.40002441406</ele>
        <time>2025-08-08T05:41:58.000Z</time>
      </trkpt>
      <trkpt lat="46.52913" lon="6.00203">
        <ele>803.79998779297</ele>
        <time>2025-08-08T05:42:04.000Z</time>
      </trkpt>
      <trkpt lat="46.52909" lon="6.00195">
        <ele>804</ele>
        <time>2025-08-08T05:42:06.000Z</time>
      </trkpt>
      <trkpt lat="46.52899" lon="6.00173">
        <ele>804.59997558594</ele>
        <time>2025-08-08T05:42:12.000Z</time>
      </trkpt>
      <trkpt lat="46.52887" lon="6.00156">
        <ele>805</ele>
        <time>2025-08-08T05:42:17.000Z</time>
      </trkpt>
      <trkpt lat="46.52876" lon="6.00146">
        <ele>806</ele>
        <time>2025-08-08T05:42:21.000Z</time>
      </trkpt>
      <trkpt lat="46.5287" lon="6.00141">
        <ele>806.40002441406</ele>
        <time>2025-08-08T05:42:23.000Z</time>
      </trkpt>
      <trkpt lat="46.52848" lon="6.00123">
        <ele>807.40002441406</ele>
        <time>2025-08-08T05:42:32.000Z</time>
      </trkpt>
      <trkpt lat="46.52846" lon="6.00121">
        <ele>807.40002441406</ele>
        <time>2025-08-08T05:42:33.000Z</time>
      </trkpt>
      <trkpt lat="46.5283" lon="6.00107">
        <ele>808.20001220703</ele>
        <time>2025-08-08T05:42:40.000Z</time>
      </trkpt>
      <trkpt lat="46.52823" lon="6.00099">
        <ele>808.59997558594</ele>
        <time>2025-08-08T05:42:43.000Z</time>
      </trkpt>
      <trkpt lat="46.52813" lon="6.00087">
        <ele>809.20001220703</ele>
        <time>2025-08-08T05:42:48.000Z</time>
      </trkpt>
      <trkpt lat="46.52809" lon="6.00081">
        <ele>809.59997558594</ele>
        <time>2025-08-08T05:42:50.000Z</time>
      </trkpt>
      <trkpt lat="46.52796" lon="6.00063">
        <ele>810.59997558594</ele>
        <time>2025-08-08T05:42:56.000Z</time>
      </trkpt>
      <trkpt lat="46.52792" lon="6.00059">
        <ele>810.79998779297</ele>
        <time>2025-08-08T05:42:58.000Z</time>
      </trkpt>
      <trkpt lat="46.52774" lon="6.00038">
        <ele>811.40002441406</ele>
        <time>2025-08-08T05:43:05.000Z</time>
      </trkpt>
      <trkpt lat="46.5276" lon="6.00021">
        <ele>812</ele>
        <time>2025-08-08T05:43:11.000Z</time>
      </trkpt>
      <trkpt lat="46.52755" lon="6.00016">
        <ele>812.20001220703</ele>
        <time>2025-08-08T05:43:13.000Z</time>
      </trkpt>
      <trkpt lat="46.52741" lon="6.00001">
        <ele>813</ele>
        <time>2025-08-08T05:43:19.000Z</time>
      </trkpt>
      <trkpt lat="46.52738" lon="5.99997">
        <ele>813</ele>
        <time>2025-08-08T05:43:20.000Z</time>
      </trkpt>
      <trkpt lat="46.52717" lon="5.99972">
        <ele>814</ele>
        <time>2025-08-08T05:43:29.000Z</time>
      </trkpt>
      <trkpt lat="46.527" lon="5.99949">
        <ele>815</ele>
        <time>2025-08-08T05:43:37.000Z</time>
      </trkpt>
      <trkpt lat="46.52697" lon="5.99946">
        <ele>815</ele>
        <time>2025-08-08T05:43:38.000Z</time>
      </trkpt>
      <trkpt lat="46.52689" lon="5.99934">
        <ele>815.40002441406</ele>
        <time>2025-08-08T05:43:42.000Z</time>
      </trkpt>
      <trkpt lat="46.52676" lon="5.99915">
        <ele>816.20001220703</ele>
        <time>2025-08-08T05:43:48.000Z</time>
      </trkpt>
      <trkpt lat="46.52667" lon="5.99904">
        <ele>816.59997558594</ele>
        <time>2025-08-08T05:43:52.000Z</time>
      </trkpt>
      <trkpt lat="46.52659" lon="5.99893">
        <ele>817.20001220703</ele>
        <time>2025-08-08T05:43:56.000Z</time>
      </trkpt>
      <trkpt lat="46.52647" lon="5.99881">
        <ele>817.79998779297</ele>
        <time>2025-08-08T05:44:01.000Z</time>
      </trkpt>
      <trkpt lat="46.52631" lon="5.99866">
        <ele>818.40002441406</ele>
        <time>2025-08-08T05:44:08.000Z</time>
      </trkpt>
      <trkpt lat="46.52628" lon="5.99863">
        <ele>818.40002441406</ele>
        <time>2025-08-08T05:44:09.000Z</time>
      </trkpt>
      <trkpt lat="46.52613" lon="5.99849">
        <ele>819.20001220703</ele>
        <time>2025-08-08T05:44:15.000Z</time>
      </trkpt>
      <trkpt lat="46.52608" lon="5.99845">
        <ele>819.40002441406</ele>
        <time>2025-08-08T05:44:17.000Z</time>
      </trkpt>
      <trkpt lat="46.5259" lon="5.99826">
        <ele>820.59997558594</ele>
        <time>2025-08-08T05:44:24.000Z</time>
      </trkpt>
      <trkpt lat="46.5257" lon="5.99809">
        <ele>821.79998779297</ele>
        <time>2025-08-08T05:44:32.000Z</time>
      </trkpt>
      <trkpt lat="46.52552" lon="5.99797">
        <ele>822.20001220703</ele>
        <time>2025-08-08T05:44:39.000Z</time>
      </trkpt>
      <trkpt lat="46.52541" lon="5.99795">
        <ele>822.79998779297</ele>
        <time>2025-08-08T05:44:43.000Z</time>
      </trkpt>
      <trkpt lat="46.52535" lon="5.99795">
        <ele>823.20001220703</ele>
        <time>2025-08-08T05:44:45.000Z</time>
      </trkpt>
      <trkpt lat="46.52514" lon="5.99795">
        <ele>824</ele>
        <time>2025-08-08T05:44:52.000Z</time>
      </trkpt>
      <trkpt lat="46.52511" lon="5.99796">
        <ele>824</ele>
        <time>2025-08-08T05:44:53.000Z</time>
      </trkpt>
      <trkpt lat="46.52486" lon="5.99799">
        <ele>825</ele>
        <time>2025-08-08T05:45:01.000Z</time>
      </trkpt>
      <trkpt lat="46.52471" lon="5.99801">
        <ele>825.59997558594</ele>
        <time>2025-08-08T05:45:06.000Z</time>
      </trkpt>
      <trkpt lat="46.52459" lon="5.99803">
        <ele>826</ele>
        <time>2025-08-08T05:45:10.000Z</time>
      </trkpt>
      <trkpt lat="46.52447" lon="5.99805">
        <ele>826.79998779297</ele>
        <time>2025-08-08T05:45:14.000Z</time>
      </trkpt>
      <trkpt lat="46.52436" lon="5.99805">
        <ele>827.20001220703</ele>
        <time>2025-08-08T05:45:18.000Z</time>
      </trkpt>
      <trkpt lat="46.52419" lon="5.99807">
        <ele>827.79998779297</ele>
        <time>2025-08-08T05:45:24.000Z</time>
      </trkpt>
      <trkpt lat="46.52408" lon="5.99806">
        <ele>828.20001220703</ele>
        <time>2025-08-08T05:45:28.000Z</time>
      </trkpt>
      <trkpt lat="46.52398" lon="5.99808">
        <ele>828.79998779297</ele>
        <time>2025-08-08T05:45:32.000Z</time>
      </trkpt>
      <trkpt lat="46.52388" lon="5.99807">
        <ele>829.40002441406</ele>
        <time>2025-08-08T05:45:36.000Z</time>
      </trkpt>
      <trkpt lat="46.52386" lon="5.99807">
        <ele>829.59997558594</ele>
        <time>2025-08-08T05:45:37.000Z</time>
      </trkpt>
      <trkpt lat="46.52384" lon="5.99806">
        <ele>829.59997558594</ele>
        <time>2025-08-08T05:45:38.000Z</time>
      </trkpt>
      <trkpt lat="46.52371" lon="5.99801">
        <ele>830.20001220703</ele>
        <time>2025-08-08T05:45:44.000Z</time>
      </trkpt>
      <trkpt lat="46.52367" lon="5.99799">
        <ele>830.40002441406</ele>
        <time>2025-08-08T05:45:46.000Z</time>
      </trkpt>
      <trkpt lat="46.5235" lon="5.99786">
        <ele>831.40002441406</ele>
        <time>2025-08-08T05:45:53.000Z</time>
      </trkpt>
      <trkpt lat="46.52347" lon="5.99784">
        <ele>831.59997558594</ele>
        <time>2025-08-08T05:45:54.000Z</time>
      </trkpt>
      <trkpt lat="46.52329" lon="5.99772">
        <ele>832.59997558594</ele>
        <time>2025-08-08T05:46:01.000Z</time>
      </trkpt>
      <trkpt lat="46.52311" lon="5.99756">
        <ele>833.59997558594</ele>
        <time>2025-08-08T05:46:08.000Z</time>
      </trkpt>
      <trkpt lat="46.52308" lon="5.99754">
        <ele>833.59997558594</ele>
        <time>2025-08-08T05:46:09.000Z</time>
      </trkpt>
      <trkpt lat="46.52305" lon="5.99752">
        <ele>833.79998779297</ele>
        <time>2025-08-08T05:46:11.000Z</time>
      </trkpt>
      <trkpt lat="46.52296" lon="5.99747">
        <ele>834.59997558594</ele>
        <time>2025-08-08T05:46:15.000Z</time>
      </trkpt>
      <trkpt lat="46.52292" lon="5.99746">
        <ele>834.59997558594</ele>
        <time>2025-08-08T05:46:16.000Z</time>
      </trkpt>
      <trkpt lat="46.52272" lon="5.99739">
        <ele>835.20001220703</ele>
        <time>2025-08-08T05:46:21.000Z</time>
      </trkpt>
      <trkpt lat="46.52263" lon="5.99737">
        <ele>835.59997558594</ele>
        <time>2025-08-08T05:46:24.000Z</time>
      </trkpt>
      <trkpt lat="46.52252" lon="5.99735">
        <ele>835.79998779297</ele>
        <time>2025-08-08T05:46:27.000Z</time>
      </trkpt>
      <trkpt lat="46.52231" lon="5.99725">
        <ele>836.79998779297</ele>
        <time>2025-08-08T05:46:35.000Z</time>
      </trkpt>
      <trkpt lat="46.52208" lon="5.99709">
        <ele>837.59997558594</ele>
        <time>2025-08-08T05:46:44.000Z</time>
      </trkpt>
      <trkpt lat="46.52206" lon="5.99706">
        <ele>837.79998779297</ele>
        <time>2025-08-08T05:46:45.000Z</time>
      </trkpt>
      <trkpt lat="46.52191" lon="5.99684">
        <ele>838.59997558594</ele>
        <time>2025-08-08T05:46:53.000Z</time>
      </trkpt>
      <trkpt lat="46.52188" lon="5.99674">
        <ele>839.40002441406</ele>
        <time>2025-08-08T05:46:57.000Z</time>
      </trkpt>
      <trkpt lat="46.52185" lon="5.99669">
        <ele>839.59997558594</ele>
        <time>2025-08-08T05:46:59.000Z</time>
      </trkpt>
      <trkpt lat="46.52181" lon="5.99661">
        <ele>840</ele>
        <time>2025-08-08T05:47:02.000Z</time>
      </trkpt>
      <trkpt lat="46.52175" lon="5.99643">
        <ele>840.79998779297</ele>
        <time>2025-08-08T05:47:08.000Z</time>
      </trkpt>
      <trkpt lat="46.52173" lon="5.99639">
        <ele>840.59997558594</ele>
        <time>2025-08-08T05:47:09.000Z</time>
      </trkpt>
      <trkpt lat="46.52162" lon="5.9961">
        <ele>841.59997558594</ele>
        <time>2025-08-08T05:47:17.000Z</time>
      </trkpt>
      <trkpt lat="46.52161" lon="5.99607">
        <ele>841.79998779297</ele>
        <time>2025-08-08T05:47:18.000Z</time>
      </trkpt>
      <trkpt lat="46.5216" lon="5.99593">
        <ele>842.59997558594</ele>
        <time>2025-08-08T05:47:22.000Z</time>
      </trkpt>
      <trkpt lat="46.52157" lon="5.99585">
        <ele>842.79998779297</ele>
        <time>2025-08-08T05:47:24.000Z</time>
      </trkpt>
      <trkpt lat="46.52156" lon="5.99583">
        <ele>843</ele>
        <time>2025-08-08T05:47:25.000Z</time>
      </trkpt>
      <trkpt lat="46.52149" lon="5.99576">
        <ele>843.40002441406</ele>
        <time>2025-08-08T05:47:27.000Z</time>
      </trkpt>
      <trkpt lat="46.52147" lon="5.99562">
        <ele>843.59997558594</ele>
        <time>2025-08-08T05:47:30.000Z</time>
      </trkpt>
      <trkpt lat="46.52147" lon="5.99555">
        <ele>843.79998779297</ele>
        <time>2025-08-08T05:47:32.000Z</time>
      </trkpt>
      <trkpt lat="46.52146" lon="5.99551">
        <ele>844</ele>
        <time>2025-08-08T05:47:33.000Z</time>
      </trkpt>
      <trkpt lat="46.52134" lon="5.99539">
        <ele>844.40002441406</ele>
        <time>2025-08-08T05:47:36.000Z</time>
      </trkpt>
      <trkpt lat="46.52128" lon="5.99533">
        <ele>844.40002441406</ele>
        <time>2025-08-08T05:47:37.000Z</time>
      </trkpt>
      <trkpt lat="46.52127" lon="5.9953">
        <ele>844.59997558594</ele>
        <time>2025-08-08T05:47:38.000Z</time>
      </trkpt>
      <trkpt lat="46.52123" lon="5.99512">
        <ele>844.79998779297</ele>
        <time>2025-08-08T05:47:41.000Z</time>
      </trkpt>
      <trkpt lat="46.52121" lon="5.99501">
        <ele>845</ele>
        <time>2025-08-08T05:47:44.000Z</time>
      </trkpt>
      <trkpt lat="46.52116" lon="5.9949">
        <ele>845.59997558594</ele>
        <time>2025-08-08T05:47:47.000Z</time>
      </trkpt>
      <trkpt lat="46.52112" lon="5.9947">
        <ele>846.20001220703</ele>
        <time>2025-08-08T05:47:52.000Z</time>
      </trkpt>
      <trkpt lat="46.52112" lon="5.99466">
        <ele>846.40002441406</ele>
        <time>2025-08-08T05:47:53.000Z</time>
      </trkpt>
      <trkpt lat="46.52105" lon="5.99438">
        <ele>847.40002441406</ele>
        <time>2025-08-08T05:48:00.000Z</time>
      </trkpt>
      <trkpt lat="46.52097" lon="5.99413">
        <ele>848.20001220703</ele>
        <time>2025-08-08T05:48:06.000Z</time>
      </trkpt>
      <trkpt lat="46.52096" lon="5.99406">
        <ele>848.40002441406</ele>
        <time>2025-08-08T05:48:08.000Z</time>
      </trkpt>
      <trkpt lat="46.52096" lon="5.99402">
        <ele>848.59997558594</ele>
        <time>2025-08-08T05:48:09.000Z</time>
      </trkpt>
      <trkpt lat="46.52095" lon="5.99399">
        <ele>848.59997558594</ele>
        <time>2025-08-08T05:48:10.000Z</time>
      </trkpt>
      <trkpt lat="46.5209" lon="5.99392">
        <ele>849</ele>
        <time>2025-08-08T05:48:12.000Z</time>
      </trkpt>
      <trkpt lat="46.52087" lon="5.99384">
        <ele>849</ele>
        <time>2025-08-08T05:48:14.000Z</time>
      </trkpt>
      <trkpt lat="46.52085" lon="5.99366">
        <ele>849.59997558594</ele>
        <time>2025-08-08T05:48:19.000Z</time>
      </trkpt>
      <trkpt lat="46.52078" lon="5.99361">
        <ele>849.79998779297</ele>
        <time>2025-08-08T05:48:20.000Z</time>
      </trkpt>
      <trkpt lat="46.52075" lon="5.99353">
        <ele>850</ele>
        <time>2025-08-08T05:48:22.000Z</time>
      </trkpt>
      <trkpt lat="46.52073" lon="5.99342">
        <ele>850.20001220703</ele>
        <time>2025-08-08T05:48:25.000Z</time>
      </trkpt>
      <trkpt lat="46.52072" lon="5.99339">
        <ele>850.40002441406</ele>
        <time>2025-08-08T05:48:26.000Z</time>
      </trkpt>
      <trkpt lat="46.5206" lon="5.99329">
        <ele>850.79998779297</ele>
        <time>2025-08-08T05:48:29.000Z</time>
      </trkpt>
      <trkpt lat="46.52051" lon="5.99303">
        <ele>851.40002441406</ele>
        <time>2025-08-08T05:48:34.000Z</time>
      </trkpt>
      <trkpt lat="46.52046" lon="5.99291">
        <ele>851.79998779297</ele>
        <time>2025-08-08T05:48:37.000Z</time>
      </trkpt>
      <trkpt lat="46.52039" lon="5.99277">
        <ele>852.40002441406</ele>
        <time>2025-08-08T05:48:41.000Z</time>
      </trkpt>
      <trkpt lat="46.52027" lon="5.99256">
        <ele>852.79998779297</ele>
        <time>2025-08-08T05:48:47.000Z</time>
      </trkpt>
      <trkpt lat="46.52025" lon="5.99252">
        <ele>853</ele>
        <time>2025-08-08T05:48:48.000Z</time>
      </trkpt>
      <trkpt lat="46.52008" lon="5.9923">
        <ele>853.59997558594</ele>
        <time>2025-08-08T05:48:55.000Z</time>
      </trkpt>
      <trkpt lat="46.52005" lon="5.99227">
        <ele>853.79998779297</ele>
        <time>2025-08-08T05:48:56.000Z</time>
      </trkpt>
      <trkpt lat="46.52003" lon="5.99223">
        <ele>854</ele>
        <time>2025-08-08T05:48:57.000Z</time>
      </trkpt>
      <trkpt lat="46.51994" lon="5.99211">
        <ele>854.59997558594</ele>
        <time>2025-08-08T05:49:01.000Z</time>
      </trkpt>
      <trkpt lat="46.51988" lon="5.99201">
        <ele>854.79998779297</ele>
        <time>2025-08-08T05:49:04.000Z</time>
      </trkpt>
      <trkpt lat="46.5198" lon="5.99188">
        <ele>855.40002441406</ele>
        <time>2025-08-08T05:49:08.000Z</time>
      </trkpt>
      <trkpt lat="46.51969" lon="5.99173">
        <ele>855.79998779297</ele>
        <time>2025-08-08T05:49:13.000Z</time>
      </trkpt>
      <trkpt lat="46.51956" lon="5.99154">
        <ele>856.79998779297</ele>
        <time>2025-08-08T05:49:19.000Z</time>
      </trkpt>
      <trkpt lat="46.51954" lon="5.9915">
        <ele>857</ele>
        <time>2025-08-08T05:49:20.000Z</time>
      </trkpt>
      <trkpt lat="46.51934" lon="5.99119">
        <ele>858</ele>
        <time>2025-08-08T05:49:30.000Z</time>
      </trkpt>
      <trkpt lat="46.51929" lon="5.99113">
        <ele>858.20001220703</ele>
        <time>2025-08-08T05:49:32.000Z</time>
      </trkpt>
      <trkpt lat="46.51912" lon="5.99088">
        <ele>859.20001220703</ele>
        <time>2025-08-08T05:49:40.000Z</time>
      </trkpt>
      <trkpt lat="46.51896" lon="5.99067">
        <ele>860.40002441406</ele>
        <time>2025-08-08T05:49:47.000Z</time>
      </trkpt>
      <trkpt lat="46.51891" lon="5.99062">
        <ele>860.59997558594</ele>
        <time>2025-08-08T05:49:49.000Z</time>
      </trkpt>
      <trkpt lat="46.51875" lon="5.99045">
        <ele>861.40002441406</ele>
        <time>2025-08-08T05:49:55.000Z</time>
      </trkpt>
      <trkpt lat="46.51869" lon="5.9904">
        <ele>861.59997558594</ele>
        <time>2025-08-08T05:49:57.000Z</time>
      </trkpt>
      <trkpt lat="46.51849" lon="5.9902">
        <ele>862.40002441406</ele>
        <time>2025-08-08T05:50:05.000Z</time>
      </trkpt>
      <trkpt lat="46.51847" lon="5.99018">
        <ele>862.40002441406</ele>
        <time>2025-08-08T05:50:06.000Z</time>
      </trkpt>
      <trkpt lat="46.51828" lon="5.99001">
        <ele>863.20001220703</ele>
        <time>2025-08-08T05:50:13.000Z</time>
      </trkpt>
      <trkpt lat="46.51823" lon="5.98996">
        <ele>863.59997558594</ele>
        <time>2025-08-08T05:50:15.000Z</time>
      </trkpt>
      <trkpt lat="46.51806" lon="5.9898">
        <ele>864.40002441406</ele>
        <time>2025-08-08T05:50:22.000Z</time>
      </trkpt>
      <trkpt lat="46.51803" lon="5.98978">
        <ele>864.59997558594</ele>
        <time>2025-08-08T05:50:23.000Z</time>
      </trkpt>
      <trkpt lat="46.51778" lon="5.98956">
        <ele>865.59997558594</ele>
        <time>2025-08-08T05:50:32.000Z</time>
      </trkpt>
      <trkpt lat="46.51775" lon="5.98954">
        <ele>865.79998779297</ele>
        <time>2025-08-08T05:50:33.000Z</time>
      </trkpt>
      <trkpt lat="46.51755" lon="5.98937">
        <ele>866.59997558594</ele>
        <time>2025-08-08T05:50:40.000Z</time>
      </trkpt>
      <trkpt lat="46.5175" lon="5.98932">
        <ele>866.79998779297</ele>
        <time>2025-08-08T05:50:42.000Z</time>
      </trkpt>
      <trkpt lat="46.51729" lon="5.98914">
        <ele>867.79998779297</ele>
        <time>2025-08-08T05:50:50.000Z</time>
      </trkpt>
      <trkpt lat="46.51707" lon="5.98897">
        <ele>868.79998779297</ele>
        <time>2025-08-08T05:50:58.000Z</time>
      </trkpt>
      <trkpt lat="46.51702" lon="5.98892">
        <ele>869</ele>
        <time>2025-08-08T05:51:00.000Z</time>
      </trkpt>
      <trkpt lat="46.51681" lon="5.98875">
        <ele>870</ele>
        <time>2025-08-08T05:51:08.000Z</time>
      </trkpt>
      <trkpt lat="46.51678" lon="5.98872">
        <ele>870</ele>
        <time>2025-08-08T05:51:09.000Z</time>
      </trkpt>
      <trkpt lat="46.51654" lon="5.98854">
        <ele>871</ele>
        <time>2025-08-08T05:51:18.000Z</time>
      </trkpt>
      <trkpt lat="46.51625" lon="5.98839">
        <ele>872</ele>
        <time>2025-08-08T05:51:28.000Z</time>
      </trkpt>
      <trkpt lat="46.51622" lon="5.98838">
        <ele>872</ele>
        <time>2025-08-08T05:51:29.000Z</time>
      </trkpt>
      <trkpt lat="46.51605" lon="5.98829">
        <ele>872.59997558594</ele>
        <time>2025-08-08T05:51:35.000Z</time>
      </trkpt>
      <trkpt lat="46.51593" lon="5.98823">
        <ele>873</ele>
        <time>2025-08-08T05:51:39.000Z</time>
      </trkpt>
      <trkpt lat="46.51576" lon="5.98814">
        <ele>873.40002441406</ele>
        <time>2025-08-08T05:51:45.000Z</time>
      </trkpt>
      <trkpt lat="46.5156" lon="5.98805">
        <ele>874</ele>
        <time>2025-08-08T05:51:50.000Z</time>
      </trkpt>
      <trkpt lat="46.51557" lon="5.98803">
        <ele>874</ele>
        <time>2025-08-08T05:51:51.000Z</time>
      </trkpt>
      <trkpt lat="46.5155" lon="5.98799">
        <ele>874.40002441406</ele>
        <time>2025-08-08T05:51:53.000Z</time>
      </trkpt>
      <trkpt lat="46.51534" lon="5.9879">
        <ele>875</ele>
        <time>2025-08-08T05:51:58.000Z</time>
      </trkpt>
      <trkpt lat="46.5153" lon="5.98786">
        <ele>875.20001220703</ele>
        <time>2025-08-08T05:52:00.000Z</time>
      </trkpt>
      <trkpt lat="46.51525" lon="5.98784">
        <ele>875.40002441406</ele>
        <time>2025-08-08T05:52:02.000Z</time>
      </trkpt>
      <trkpt lat="46.51513" lon="5.98771">
        <ele>876</ele>
        <time>2025-08-08T05:52:08.000Z</time>
      </trkpt>
      <trkpt lat="46.51491" lon="5.98752">
        <ele>877</ele>
        <time>2025-08-08T05:52:16.000Z</time>
      </trkpt>
      <trkpt lat="46.51484" lon="5.98744">
        <ele>877.20001220703</ele>
        <time>2025-08-08T05:52:19.000Z</time>
      </trkpt>
      <trkpt lat="46.51474" lon="5.98734">
        <ele>877.59997558594</ele>
        <time>2025-08-08T05:52:23.000Z</time>
      </trkpt>
      <trkpt lat="46.51463" lon="5.98723">
        <ele>878.20001220703</ele>
        <time>2025-08-08T05:52:27.000Z</time>
      </trkpt>
      <trkpt lat="46.51456" lon="5.98715">
        <ele>878.59997558594</ele>
        <time>2025-08-08T05:52:30.000Z</time>
      </trkpt>
      <trkpt lat="46.51443" lon="5.98701">
        <ele>879.40002441406</ele>
        <time>2025-08-08T05:52:35.000Z</time>
      </trkpt>
      <trkpt lat="46.51436" lon="5.98693">
        <ele>879.59997558594</ele>
        <time>2025-08-08T05:52:38.000Z</time>
      </trkpt>
      <trkpt lat="46.51419" lon="5.98673">
        <ele>880.20001220703</ele>
        <time>2025-08-08T05:52:45.000Z</time>
      </trkpt>
      <trkpt lat="46.51415" lon="5.98668">
        <ele>880.40002441406</ele>
        <time>2025-08-08T05:52:47.000Z</time>
      </trkpt>
      <trkpt lat="46.51399" lon="5.98648">
        <ele>881.20001220703</ele>
        <time>2025-08-08T05:52:54.000Z</time>
      </trkpt>
      <trkpt lat="46.51397" lon="5.98646">
        <ele>881.59997558594</ele>
        <time>2025-08-08T05:52:55.000Z</time>
      </trkpt>
      <trkpt lat="46.51383" lon="5.98629">
        <ele>882</ele>
        <time>2025-08-08T05:53:01.000Z</time>
      </trkpt>
      <trkpt lat="46.51377" lon="5.98624">
        <ele>882.20001220703</ele>
        <time>2025-08-08T05:53:03.000Z</time>
      </trkpt>
      <trkpt lat="46.51369" lon="5.98613">
        <ele>883</ele>
        <time>2025-08-08T05:53:07.000Z</time>
      </trkpt>
      <trkpt lat="46.51365" lon="5.98608">
        <ele>883.20001220703</ele>
        <time>2025-08-08T05:53:09.000Z</time>
      </trkpt>
      <trkpt lat="46.51357" lon="5.98597">
        <ele>883.79998779297</ele>
        <time>2025-08-08T05:53:13.000Z</time>
      </trkpt>
      <trkpt lat="46.51349" lon="5.98585">
        <ele>884.40002441406</ele>
        <time>2025-08-08T05:53:17.000Z</time>
      </trkpt>
      <trkpt lat="46.51346" lon="5.98579">
        <ele>884.59997558594</ele>
        <time>2025-08-08T05:53:19.000Z</time>
      </trkpt>
      <trkpt lat="46.51335" lon="5.9856">
        <ele>885.40002441406</ele>
        <time>2025-08-08T05:53:25.000Z</time>
      </trkpt>
      <trkpt lat="46.51322" lon="5.98546">
        <ele>886.20001220703</ele>
        <time>2025-08-08T05:53:30.000Z</time>
      </trkpt>
      <trkpt lat="46.51312" lon="5.98532">
        <ele>886.40002441406</ele>
        <time>2025-08-08T05:53:34.000Z</time>
      </trkpt>
      <trkpt lat="46.51308" lon="5.98526">
        <ele>886.59997558594</ele>
        <time>2025-08-08T05:53:36.000Z</time>
      </trkpt>
      <trkpt lat="46.51301" lon="5.98519">
        <ele>887.40002441406</ele>
        <time>2025-08-08T05:53:39.000Z</time>
      </trkpt>
      <trkpt lat="46.5128" lon="5.985">
        <ele>888.40002441406</ele>
        <time>2025-08-08T05:53:47.000Z</time>
      </trkpt>
      <trkpt lat="46.51262" lon="5.98485">
        <ele>889.59997558594</ele>
        <time>2025-08-08T05:53:54.000Z</time>
      </trkpt>
      <trkpt lat="46.51246" lon="5.98473">
        <ele>890.79998779297</ele>
        <time>2025-08-08T05:54:00.000Z</time>
      </trkpt>
      <trkpt lat="46.5123" lon="5.98468">
        <ele>891.79998779297</ele>
        <time>2025-08-08T05:54:06.000Z</time>
      </trkpt>
      <trkpt lat="46.51227" lon="5.98467">
        <ele>891.79998779297</ele>
        <time>2025-08-08T05:54:07.000Z</time>
      </trkpt>
      <trkpt lat="46.51205" lon="5.98458">
        <ele>892.59997558594</ele>
        <time>2025-08-08T05:54:14.000Z</time>
      </trkpt>
      <trkpt lat="46.51196" lon="5.98455">
        <ele>893</ele>
        <time>2025-08-08T05:54:17.000Z</time>
      </trkpt>
      <trkpt lat="46.51184" lon="5.9845">
        <ele>893.59997558594</ele>
        <time>2025-08-08T05:54:21.000Z</time>
      </trkpt>
      <trkpt lat="46.51174" lon="5.98447">
        <ele>894</ele>
        <time>2025-08-08T05:54:24.000Z</time>
      </trkpt>
      <trkpt lat="46.51148" lon="5.98437">
        <ele>895</ele>
        <time>2025-08-08T05:54:32.000Z</time>
      </trkpt>
      <trkpt lat="46.51126" lon="5.98416">
        <ele>896</ele>
        <time>2025-08-08T05:54:40.000Z</time>
      </trkpt>
      <trkpt lat="46.51119" lon="5.98407">
        <ele>896</ele>
        <time>2025-08-08T05:54:43.000Z</time>
      </trkpt>
      <trkpt lat="46.51111" lon="5.98391">
        <ele>896.40002441406</ele>
        <time>2025-08-08T05:54:47.000Z</time>
      </trkpt>
      <trkpt lat="46.51092" lon="5.98355">
        <ele>897.20001220703</ele>
        <time>2025-08-08T05:54:56.000Z</time>
      </trkpt>
      <trkpt lat="46.51078" lon="5.98323">
        <ele>898</ele>
        <time>2025-08-08T05:55:04.000Z</time>
      </trkpt>
      <trkpt lat="46.51071" lon="5.98311">
        <ele>898.20001220703</ele>
        <time>2025-08-08T05:55:07.000Z</time>
      </trkpt>
      <trkpt lat="46.51063" lon="5.98294">
        <ele>898.59997558594</ele>
        <time>2025-08-08T05:55:11.000Z</time>
      </trkpt>
      <trkpt lat="46.51053" lon="5.98272">
        <ele>899.20001220703</ele>
        <time>2025-08-08T05:55:17.000Z</time>
      </trkpt>
      <trkpt lat="46.51051" lon="5.98268">
        <ele>899.40002441406</ele>
        <time>2025-08-08T05:55:18.000Z</time>
      </trkpt>
      <trkpt lat="46.5104" lon="5.98241">
        <ele>900.40002441406</ele>
        <time>2025-08-08T05:55:25.000Z</time>
      </trkpt>
      <trkpt lat="46.51037" lon="5.98233">
        <ele>900.59997558594</ele>
        <time>2025-08-08T05:55:27.000Z</time>
      </trkpt>
      <trkpt lat="46.51024" lon="5.98201">
        <ele>901.40002441406</ele>
        <time>2025-08-08T05:55:35.000Z</time>
      </trkpt>
      <trkpt lat="46.51022" lon="5.98196">
        <ele>901.59997558594</ele>
        <time>2025-08-08T05:55:36.000Z</time>
      </trkpt>
      <trkpt lat="46.51009" lon="5.98158">
        <ele>902.40002441406</ele>
        <time>2025-08-08T05:55:45.000Z</time>
      </trkpt>
      <trkpt lat="46.51007" lon="5.98154">
        <ele>902.40002441406</ele>
        <time>2025-08-08T05:55:46.000Z</time>
      </trkpt>
      <trkpt lat="46.50996" lon="5.98117">
        <ele>903.40002441406</ele>
        <time>2025-08-08T05:55:54.000Z</time>
      </trkpt>
      <trkpt lat="46.50994" lon="5.98113">
        <ele>903.59997558594</ele>
        <time>2025-08-08T05:55:55.000Z</time>
      </trkpt>
      <trkpt lat="46.50985" lon="5.98079">
        <ele>904.20001220703</ele>
        <time>2025-08-08T05:56:03.000Z</time>
      </trkpt>
      <trkpt lat="46.50982" lon="5.9807">
        <ele>904.59997558594</ele>
        <time>2025-08-08T05:56:05.000Z</time>
      </trkpt>
      <trkpt lat="46.50975" lon="5.98049">
        <ele>905.40002441406</ele>
        <time>2025-08-08T05:56:10.000Z</time>
      </trkpt>
      <trkpt lat="46.50968" lon="5.98034">
        <ele>906</ele>
        <time>2025-08-08T05:56:14.000Z</time>
      </trkpt>
      <trkpt lat="46.50959" lon="5.9802">
        <ele>906.40002441406</ele>
        <time>2025-08-08T05:56:18.000Z</time>
      </trkpt>
      <trkpt lat="46.50946" lon="5.98005">
        <ele>907</ele>
        <time>2025-08-08T05:56:23.000Z</time>
      </trkpt>
      <trkpt lat="46.50938" lon="5.97997">
        <ele>907.20001220703</ele>
        <time>2025-08-08T05:56:26.000Z</time>
      </trkpt>
      <trkpt lat="46.50924" lon="5.97987">
        <ele>908</ele>
        <time>2025-08-08T05:56:31.000Z</time>
      </trkpt>
      <trkpt lat="46.50912" lon="5.97979">
        <ele>908.79998779297</ele>
        <time>2025-08-08T05:56:35.000Z</time>
      </trkpt>
      <trkpt lat="46.50908" lon="5.97977">
        <ele>909</ele>
        <time>2025-08-08T05:56:36.000Z</time>
      </trkpt>
      <trkpt lat="46.50881" lon="5.97969">
        <ele>910.20001220703</ele>
        <time>2025-08-08T05:56:44.000Z</time>
      </trkpt>
      <trkpt lat="46.50877" lon="5.97969">
        <ele>910.20001220703</ele>
        <time>2025-08-08T05:56:45.000Z</time>
      </trkpt>
      <trkpt lat="46.50847" lon="5.97976">
        <ele>910.59997558594</ele>
        <time>2025-08-08T05:56:53.000Z</time>
      </trkpt>
      <trkpt lat="46.50812" lon="5.97994">
        <ele>911</ele>
        <time>2025-08-08T05:57:02.000Z</time>
      </trkpt>
      <trkpt lat="46.50801" lon="5.98001">
        <ele>911.20001220703</ele>
        <time>2025-08-08T05:57:05.000Z</time>
      </trkpt>
      <trkpt lat="46.50777" lon="5.98015">
        <ele>912.20001220703</ele>
        <time>2025-08-08T05:57:12.000Z</time>
      </trkpt>
      <trkpt lat="46.50764" lon="5.98022">
        <ele>912.40002441406</ele>
        <time>2025-08-08T05:57:16.000Z</time>
      </trkpt>
      <trkpt lat="46.5074" lon="5.98036">
        <ele>913.20001220703</ele>
        <time>2025-08-08T05:57:23.000Z</time>
      </trkpt>
      <trkpt lat="46.50729" lon="5.98041">
        <ele>913.59997558594</ele>
        <time>2025-08-08T05:57:26.000Z</time>
      </trkpt>
      <trkpt lat="46.50712" lon="5.98051">
        <ele>914.20001220703</ele>
        <time>2025-08-08T05:57:31.000Z</time>
      </trkpt>
      <trkpt lat="46.50702" lon="5.98057">
        <ele>914.59997558594</ele>
        <time>2025-08-08T05:57:34.000Z</time>
      </trkpt>
      <trkpt lat="46.50698" lon="5.98059">
        <ele>914.79998779297</ele>
        <time>2025-08-08T05:57:35.000Z</time>
      </trkpt>
      <trkpt lat="46.50667" lon="5.98076">
        <ele>915.59997558594</ele>
        <time>2025-08-08T05:57:44.000Z</time>
      </trkpt>
      <trkpt lat="46.50645" lon="5.98088">
        <ele>916.40002441406</ele>
        <time>2025-08-08T05:57:51.000Z</time>
      </trkpt>
      <trkpt lat="46.50638" lon="5.98092">
        <ele>916.59997558594</ele>
        <time>2025-08-08T05:57:53.000Z</time>
      </trkpt>
      <trkpt lat="46.50612" lon="5.98106">
        <ele>917.79998779297</ele>
        <time>2025-08-08T05:58:01.000Z</time>
      </trkpt>
      <trkpt lat="46.50588" lon="5.98112">
        <ele>918.79998779297</ele>
        <time>2025-08-08T05:58:08.000Z</time>
      </trkpt>
      <trkpt lat="46.50577" lon="5.98108">
        <ele>919</ele>
        <time>2025-08-08T05:58:11.000Z</time>
      </trkpt>
      <trkpt lat="46.50563" lon="5.98098">
        <ele>919.40002441406</ele>
        <time>2025-08-08T05:58:15.000Z</time>
      </trkpt>
      <trkpt lat="46.50534" lon="5.98069">
        <ele>920</ele>
        <time>2025-08-08T05:58:24.000Z</time>
      </trkpt>
      <trkpt lat="46.5053" lon="5.98065">
        <ele>920</ele>
        <time>2025-08-08T05:58:25.000Z</time>
      </trkpt>
      <trkpt lat="46.50507" lon="5.98043">
        <ele>920.40002441406</ele>
        <time>2025-08-08T05:58:32.000Z</time>
      </trkpt>
      <trkpt lat="46.50503" lon="5.9804">
        <ele>920.40002441406</ele>
        <time>2025-08-08T05:58:33.000Z</time>
      </trkpt>
      <trkpt lat="46.50482" lon="5.98017">
        <ele>919.79998779297</ele>
        <time>2025-08-08T05:58:40.000Z</time>
      </trkpt>
      <trkpt lat="46.50478" lon="5.98014">
        <ele>921.20001220703</ele>
        <time>2025-08-08T05:58:41.000Z</time>
      </trkpt>
      <trkpt lat="46.50452" lon="5.97994">
        <ele>921.59997558594</ele>
        <time>2025-08-08T05:58:48.000Z</time>
      </trkpt>
      <trkpt lat="46.5044" lon="5.97987">
        <ele>921.79998779297</ele>
        <time>2025-08-08T05:58:51.000Z</time>
      </trkpt>
      <trkpt lat="46.50424" lon="5.97978">
        <ele>921.79998779297</ele>
        <time>2025-08-08T05:58:55.000Z</time>
      </trkpt>
      <trkpt lat="46.50415" lon="5.97975">
        <ele>921.79998779297</ele>
        <time>2025-08-08T05:58:57.000Z</time>
      </trkpt>
      <trkpt lat="46.50381" lon="5.9797">
        <ele>922</ele>
        <time>2025-08-08T05:59:05.000Z</time>
      </trkpt>
      <trkpt lat="46.50377" lon="5.97969">
        <ele>922.20001220703</ele>
        <time>2025-08-08T05:59:06.000Z</time>
      </trkpt>
      <trkpt lat="46.50373" lon="5.97968">
        <ele>922.20001220703</ele>
        <time>2025-08-08T05:59:07.000Z</time>
      </trkpt>
      <trkpt lat="46.50361" lon="5.97964">
        <ele>922.59997558594</ele>
        <time>2025-08-08T05:59:10.000Z</time>
      </trkpt>
      <trkpt lat="46.50351" lon="5.97957">
        <ele>923</ele>
        <time>2025-08-08T05:59:13.000Z</time>
      </trkpt>
      <trkpt lat="46.50336" lon="5.97948">
        <ele>923.40002441406</ele>
        <time>2025-08-08T05:59:17.000Z</time>
      </trkpt>
      <trkpt lat="46.50317" lon="5.97935">
        <ele>924</ele>
        <time>2025-08-08T05:59:22.000Z</time>
      </trkpt>
      <trkpt lat="46.50305" lon="5.97927">
        <ele>924.59997558594</ele>
        <time>2025-08-08T05:59:25.000Z</time>
      </trkpt>
      <trkpt lat="46.50275" lon="5.97906">
        <ele>925.40002441406</ele>
        <time>2025-08-08T05:59:33.000Z</time>
      </trkpt>
      <trkpt lat="46.50267" lon="5.979">
        <ele>925.59997558594</ele>
        <time>2025-08-08T05:59:35.000Z</time>
      </trkpt>
      <trkpt lat="46.50225" lon="5.97871">
        <ele>925.79998779297</ele>
        <time>2025-08-08T05:59:45.000Z</time>
      </trkpt>
      <trkpt lat="46.50184" lon="5.97843">
        <ele>925.79998779297</ele>
        <time>2025-08-08T05:59:53.000Z</time>
      </trkpt>
      <trkpt lat="46.50143" lon="5.97814">
        <ele>925.79998779297</ele>
        <time>2025-08-08T06:00:01.000Z</time>
      </trkpt>
      <trkpt lat="46.50093" lon="5.97779">
        <ele>925.40002441406</ele>
        <time>2025-08-08T06:00:10.000Z</time>
      </trkpt>
      <trkpt lat="46.50047" lon="5.97746">
        <ele>925.40002441406</ele>
        <time>2025-08-08T06:00:19.000Z</time>
      </trkpt>
      <trkpt lat="46.50026" lon="5.97731">
        <ele>926</ele>
        <time>2025-08-08T06:00:24.000Z</time>
      </trkpt>
      <trkpt lat="46.50006" lon="5.97719">
        <ele>926.59997558594</ele>
        <time>2025-08-08T06:00:29.000Z</time>
      </trkpt>
      <trkpt lat="46.49995" lon="5.97711">
        <ele>927</ele>
        <time>2025-08-08T06:00:32.000Z</time>
      </trkpt>
      <trkpt lat="46.4998" lon="5.97701">
        <ele>927.79998779297</ele>
        <time>2025-08-08T06:00:36.000Z</time>
      </trkpt>
      <trkpt lat="46.49963" lon="5.97688">
        <ele>928.79998779297</ele>
        <time>2025-08-08T06:00:41.000Z</time>
      </trkpt>
      <trkpt lat="46.4996" lon="5.97685">
        <ele>929</ele>
        <time>2025-08-08T06:00:42.000Z</time>
      </trkpt>
      <trkpt lat="46.49939" lon="5.97669">
        <ele>929.79998779297</ele>
        <time>2025-08-08T06:00:48.000Z</time>
      </trkpt>
      <trkpt lat="46.49928" lon="5.9766">
        <ele>930</ele>
        <time>2025-08-08T06:00:51.000Z</time>
      </trkpt>
      <trkpt lat="46.49901" lon="5.9764">
        <ele>931</ele>
        <time>2025-08-08T06:00:58.000Z</time>
      </trkpt>
      <trkpt lat="46.49862" lon="5.97611">
        <ele>931.40002441406</ele>
        <time>2025-08-08T06:01:07.000Z</time>
      </trkpt>
      <trkpt lat="46.49823" lon="5.97581">
        <ele>931.20001220703</ele>
        <time>2025-08-08T06:01:15.000Z</time>
      </trkpt>
      <trkpt lat="46.49786" lon="5.97554">
        <ele>931</ele>
        <time>2025-08-08T06:01:23.000Z</time>
      </trkpt>
      <trkpt lat="46.49756" lon="5.97533">
        <ele>931.79998779297</ele>
        <time>2025-08-08T06:01:30.000Z</time>
      </trkpt>
      <trkpt lat="46.49734" lon="5.97519">
        <ele>932.20001220703</ele>
        <time>2025-08-08T06:01:35.000Z</time>
      </trkpt>
      <trkpt lat="46.4971" lon="5.97503">
        <ele>933</ele>
        <time>2025-08-08T06:01:41.000Z</time>
      </trkpt>
      <trkpt lat="46.49703" lon="5.97496">
        <ele>933.40002441406</ele>
        <time>2025-08-08T06:01:43.000Z</time>
      </trkpt>
      <trkpt lat="46.49683" lon="5.97478">
        <ele>933.59997558594</ele>
        <time>2025-08-08T06:01:48.000Z</time>
      </trkpt>
      <trkpt lat="46.49651" lon="5.97448">
        <ele>933.20001220703</ele>
        <time>2025-08-08T06:01:55.000Z</time>
      </trkpt>
      <trkpt lat="46.49614" lon="5.97413">
        <ele>932.59997558594</ele>
        <time>2025-08-08T06:02:03.000Z</time>
      </trkpt>
      <trkpt lat="46.49584" lon="5.97381">
        <ele>932.59997558594</ele>
        <time>2025-08-08T06:02:10.000Z</time>
      </trkpt>
      <trkpt lat="46.49571" lon="5.97369">
        <ele>932.40002441406</ele>
        <time>2025-08-08T06:02:13.000Z</time>
      </trkpt>
      <trkpt lat="46.49567" lon="5.97365">
        <ele>932.40002441406</ele>
        <time>2025-08-08T06:02:14.000Z</time>
      </trkpt>
      <trkpt lat="46.49534" lon="5.97333">
        <ele>932.40002441406</ele>
        <time>2025-08-08T06:02:22.000Z</time>
      </trkpt>
      <trkpt lat="46.49525" lon="5.97323">
        <ele>932.40002441406</ele>
        <time>2025-08-08T06:02:24.000Z</time>
      </trkpt>
      <trkpt lat="46.49503" lon="5.97303">
        <ele>932.20001220703</ele>
        <time>2025-08-08T06:02:29.000Z</time>
      </trkpt>
      <trkpt lat="46.49469" lon="5.97272">
        <ele>931.79998779297</ele>
        <time>2025-08-08T06:02:36.000Z</time>
      </trkpt>
      <trkpt lat="46.49449" lon="5.97252">
        <ele>931.20001220703</ele>
        <time>2025-08-08T06:02:40.000Z</time>
      </trkpt>
      <trkpt lat="46.4943" lon="5.97228">
        <ele>930.79998779297</ele>
        <time>2025-08-08T06:02:44.000Z</time>
      </trkpt>
      <trkpt lat="46.49411" lon="5.97198">
        <ele>930.20001220703</ele>
        <time>2025-08-08T06:02:48.000Z</time>
      </trkpt>
      <trkpt lat="46.49401" lon="5.97182">
        <ele>929.59997558594</ele>
        <time>2025-08-08T06:02:50.000Z</time>
      </trkpt>
      <trkpt lat="46.49387" lon="5.97156">
        <ele>929</ele>
        <time>2025-08-08T06:02:53.000Z</time>
      </trkpt>
      <trkpt lat="46.49358" lon="5.97102">
        <ele>927.79998779297</ele>
        <time>2025-08-08T06:02:59.000Z</time>
      </trkpt>
      <trkpt lat="46.49336" lon="5.97061">
        <ele>926.59997558594</ele>
        <time>2025-08-08T06:03:03.000Z</time>
      </trkpt>
      <trkpt lat="46.49318" lon="5.97028">
        <ele>925.40002441406</ele>
        <time>2025-08-08T06:03:06.000Z</time>
      </trkpt>
      <trkpt lat="46.49298" lon="5.96991">
        <ele>924.20001220703</ele>
        <time>2025-08-08T06:03:10.000Z</time>
      </trkpt>
      <trkpt lat="46.49284" lon="5.96964">
        <ele>923.59997558594</ele>
        <time>2025-08-08T06:03:13.000Z</time>
      </trkpt>
      <trkpt lat="46.49265" lon="5.96927">
        <ele>923</ele>
        <time>2025-08-08T06:03:17.000Z</time>
      </trkpt>
      <trkpt lat="46.49249" lon="5.96897">
        <ele>922.40002441406</ele>
        <time>2025-08-08T06:03:20.000Z</time>
      </trkpt>
      <trkpt lat="46.49233" lon="5.96867">
        <ele>922</ele>
        <time>2025-08-08T06:03:23.000Z</time>
      </trkpt>
      <trkpt lat="46.49215" lon="5.96833">
        <ele>921.79998779297</ele>
        <time>2025-08-08T06:03:27.000Z</time>
      </trkpt>
      <trkpt lat="46.4918" lon="5.96771">
        <ele>922.20001220703</ele>
        <time>2025-08-08T06:03:34.000Z</time>
      </trkpt>
      <trkpt lat="46.49143" lon="5.96705">
        <ele>922.59997558594</ele>
        <time>2025-08-08T06:03:42.000Z</time>
      </trkpt>
      <trkpt lat="46.49138" lon="5.96695">
        <ele>922.59997558594</ele>
        <time>2025-08-08T06:03:43.000Z</time>
      </trkpt>
      <trkpt lat="46.49121" lon="5.96665">
        <ele>922.59997558594</ele>
        <time>2025-08-08T06:03:47.000Z</time>
      </trkpt>
      <trkpt lat="46.49112" lon="5.96647">
        <ele>922.59997558594</ele>
        <time>2025-08-08T06:03:49.000Z</time>
      </trkpt>
      <trkpt lat="46.49076" lon="5.96579">
        <ele>922.20001220703</ele>
        <time>2025-08-08T06:03:57.000Z</time>
      </trkpt>
      <trkpt lat="46.49043" lon="5.9652">
        <ele>920.40002441406</ele>
        <time>2025-08-08T06:04:03.000Z</time>
      </trkpt>
      <trkpt lat="46.49036" lon="5.96507">
        <ele>920</ele>
        <time>2025-08-08T06:04:04.000Z</time>
      </trkpt>
      <trkpt lat="46.49019" lon="5.96476">
        <ele>919.20001220703</ele>
        <time>2025-08-08T06:04:07.000Z</time>
      </trkpt>
      <trkpt lat="46.48993" lon="5.96426">
        <ele>918.20001220703</ele>
        <time>2025-08-08T06:04:12.000Z</time>
      </trkpt>
      <trkpt lat="46.48983" lon="5.96409">
        <ele>917.79998779297</ele>
        <time>2025-08-08T06:04:14.000Z</time>
      </trkpt>
      <trkpt lat="46.48952" lon="5.96349">
        <ele>917.20001220703</ele>
        <time>2025-08-08T06:04:20.000Z</time>
      </trkpt>
      <trkpt lat="46.48941" lon="5.9633">
        <ele>916.79998779297</ele>
        <time>2025-08-08T06:04:22.000Z</time>
      </trkpt>
      <trkpt lat="46.48912" lon="5.96281">
        <ele>915.79998779297</ele>
        <time>2025-08-08T06:04:27.000Z</time>
      </trkpt>
      <trkpt lat="46.48896" lon="5.96251">
        <ele>915.20001220703</ele>
        <time>2025-08-08T06:04:30.000Z</time>
      </trkpt>
      <trkpt lat="46.48888" lon="5.96239">
        <ele>914.79998779297</ele>
        <time>2025-08-08T06:04:31.000Z</time>
      </trkpt>
      <trkpt lat="46.48872" lon="5.96211">
        <ele>913.79998779297</ele>
        <time>2025-08-08T06:04:34.000Z</time>
      </trkpt>
      <trkpt lat="46.48852" lon="5.9618">
        <ele>912.79998779297</ele>
        <time>2025-08-08T06:04:37.000Z</time>
      </trkpt>
      <trkpt lat="46.48847" lon="5.96173">
        <ele>912.59997558594</ele>
        <time>2025-08-08T06:04:38.000Z</time>
      </trkpt>
      <trkpt lat="46.4882" lon="5.96138">
        <ele>911.79998779297</ele>
        <time>2025-08-08T06:04:42.000Z</time>
      </trkpt>
      <trkpt lat="46.48802" lon="5.96113">
        <ele>911.40002441406</ele>
        <time>2025-08-08T06:04:45.000Z</time>
      </trkpt>
      <trkpt lat="46.48766" lon="5.96062">
        <ele>910.59997558594</ele>
        <time>2025-08-08T06:04:51.000Z</time>
      </trkpt>
      <trkpt lat="46.48749" lon="5.96038">
        <ele>910.40002441406</ele>
        <time>2025-08-08T06:04:54.000Z</time>
      </trkpt>
      <trkpt lat="46.48717" lon="5.95989">
        <ele>910.79998779297</ele>
        <time>2025-08-08T06:05:01.000Z</time>
      </trkpt>
      <trkpt lat="46.4868" lon="5.9593">
        <ele>911</ele>
        <time>2025-08-08T06:05:09.000Z</time>
      </trkpt>
      <trkpt lat="46.48671" lon="5.95916">
        <ele>911</ele>
        <time>2025-08-08T06:05:11.000Z</time>
      </trkpt>
      <trkpt lat="46.48643" lon="5.95872">
        <ele>911.20001220703</ele>
        <time>2025-08-08T06:05:18.000Z</time>
      </trkpt>
      <trkpt lat="46.48626" lon="5.95846">
        <ele>912</ele>
        <time>2025-08-08T06:05:23.000Z</time>
      </trkpt>
      <trkpt lat="46.48622" lon="5.95841">
        <ele>912.20001220703</ele>
        <time>2025-08-08T06:05:24.000Z</time>
      </trkpt>
      <trkpt lat="46.48615" lon="5.9583">
        <ele>912.40002441406</ele>
        <time>2025-08-08T06:05:26.000Z</time>
      </trkpt>
      <trkpt lat="46.48606" lon="5.95817">
        <ele>913</ele>
        <time>2025-08-08T06:05:29.000Z</time>
      </trkpt>
      <trkpt lat="46.48602" lon="5.95812">
        <ele>913.20001220703</ele>
        <time>2025-08-08T06:05:30.000Z</time>
      </trkpt>
      <trkpt lat="46.4858" lon="5.95783">
        <ele>914.20001220703</ele>
        <time>2025-08-08T06:05:36.000Z</time>
      </trkpt>
      <trkpt lat="46.48572" lon="5.95772">
        <ele>914.40002441406</ele>
        <time>2025-08-08T06:05:38.000Z</time>
      </trkpt>
      <trkpt lat="46.48537" lon="5.95723">
        <ele>914</ele>
        <time>2025-08-08T06:05:46.000Z</time>
      </trkpt>
      <trkpt lat="46.48501" lon="5.95673">
        <ele>913.40002441406</ele>
        <time>2025-08-08T06:05:54.000Z</time>
      </trkpt>
      <trkpt lat="46.48457" lon="5.95615">
        <ele>913.79998779297</ele>
        <time>2025-08-08T06:06:04.000Z</time>
      </trkpt>
      <trkpt lat="46.48414" lon="5.95556">
        <ele>914.20001220703</ele>
        <time>2025-08-08T06:06:14.000Z</time>
      </trkpt>
      <trkpt lat="46.48409" lon="5.9555">
        <ele>914.40002441406</ele>
        <time>2025-08-08T06:06:15.000Z</time>
      </trkpt>
      <trkpt lat="46.48368" lon="5.95503">
        <ele>914</ele>
        <time>2025-08-08T06:06:23.000Z</time>
      </trkpt>
      <trkpt lat="46.48342" lon="5.95477">
        <ele>913.20001220703</ele>
        <time>2025-08-08T06:06:27.000Z</time>
      </trkpt>
      <trkpt lat="46.48336" lon="5.95471">
        <ele>913</ele>
        <time>2025-08-08T06:06:28.000Z</time>
      </trkpt>
      <trkpt lat="46.48291" lon="5.95421">
        <ele>912.40002441406</ele>
        <time>2025-08-08T06:06:35.000Z</time>
      </trkpt>
      <trkpt lat="46.48279" lon="5.95407">
        <ele>912.20001220703</ele>
        <time>2025-08-08T06:06:37.000Z</time>
      </trkpt>
      <trkpt lat="46.48273" lon="5.954">
        <ele>912.20001220703</ele>
        <time>2025-08-08T06:06:38.000Z</time>
      </trkpt>
      <trkpt lat="46.48228" lon="5.95351">
        <ele>911.40002441406</ele>
        <time>2025-08-08T06:06:45.000Z</time>
      </trkpt>
      <trkpt lat="46.48215" lon="5.95337">
        <ele>911.20001220703</ele>
        <time>2025-08-08T06:06:47.000Z</time>
      </trkpt>
      <trkpt lat="46.48208" lon="5.9533">
        <ele>911</ele>
        <time>2025-08-08T06:06:48.000Z</time>
      </trkpt>
      <trkpt lat="46.48167" lon="5.95284">
        <ele>910.40002441406</ele>
        <time>2025-08-08T06:06:55.000Z</time>
      </trkpt>
      <trkpt lat="46.48146" lon="5.9526">
        <ele>911.20001220703</ele>
        <time>2025-08-08T06:07:00.000Z</time>
      </trkpt>
      <trkpt lat="46.48132" lon="5.95244">
        <ele>912.59997558594</ele>
        <time>2025-08-08T06:07:04.000Z</time>
      </trkpt>
      <trkpt lat="46.48126" lon="5.95237">
        <ele>913.20001220703</ele>
        <time>2025-08-08T06:07:06.000Z</time>
      </trkpt>
      <trkpt lat="46.48117" lon="5.95228">
        <ele>913.79998779297</ele>
        <time>2025-08-08T06:07:09.000Z</time>
      </trkpt>
      <trkpt lat="46.48108" lon="5.95217">
        <ele>914.59997558594</ele>
        <time>2025-08-08T06:07:12.000Z</time>
      </trkpt>
      <trkpt lat="46.48102" lon="5.95209">
        <ele>915</ele>
        <time>2025-08-08T06:07:14.000Z</time>
      </trkpt>
      <trkpt lat="46.48087" lon="5.95186">
        <ele>916.20001220703</ele>
        <time>2025-08-08T06:07:20.000Z</time>
      </trkpt>
      <trkpt lat="46.48085" lon="5.95182">
        <ele>916.40002441406</ele>
        <time>2025-08-08T06:07:21.000Z</time>
      </trkpt>
      <trkpt lat="46.48074" lon="5.95149">
        <ele>917.20001220703</ele>
        <time>2025-08-08T06:07:27.000Z</time>
      </trkpt>
      <trkpt lat="46.48072" lon="5.95143">
        <ele>917.40002441406</ele>
        <time>2025-08-08T06:07:28.000Z</time>
      </trkpt>
      <trkpt lat="46.4806" lon="5.95087">
        <ele>918.40002441406</ele>
        <time>2025-08-08T06:07:37.000Z</time>
      </trkpt>
      <trkpt lat="46.48045" lon="5.9502">
        <ele>919.40002441406</ele>
        <time>2025-08-08T06:07:48.000Z</time>
      </trkpt>
      <trkpt lat="46.48044" lon="5.95014">
        <ele>919.59997558594</ele>
        <time>2025-08-08T06:07:49.000Z</time>
      </trkpt>
      <trkpt lat="46.48028" lon="5.9495">
        <ele>920</ele>
        <time>2025-08-08T06:07:59.000Z</time>
      </trkpt>
      <trkpt lat="46.48021" lon="5.94917">
        <ele>920.59997558594</ele>
        <time>2025-08-08T06:08:04.000Z</time>
      </trkpt>
      <trkpt lat="46.4801" lon="5.94876">
        <ele>920.79998779297</ele>
        <time>2025-08-08T06:08:10.000Z</time>
      </trkpt>
      <trkpt lat="46.47999" lon="5.94826">
        <ele>921.59997558594</ele>
        <time>2025-08-08T06:08:17.000Z</time>
      </trkpt>
      <trkpt lat="46.47986" lon="5.94778">
        <ele>922.20001220703</ele>
        <time>2025-08-08T06:08:24.000Z</time>
      </trkpt>
      <trkpt lat="46.47977" lon="5.94744">
        <ele>922.59997558594</ele>
        <time>2025-08-08T06:08:29.000Z</time>
      </trkpt>
      <trkpt lat="46.47974" lon="5.94737">
        <ele>922.79998779297</ele>
        <time>2025-08-08T06:08:30.000Z</time>
      </trkpt>
      <trkpt lat="46.47969" lon="5.94725">
        <ele>923</ele>
        <time>2025-08-08T06:08:32.000Z</time>
      </trkpt>
      <trkpt lat="46.47966" lon="5.94719">
        <ele>923</ele>
        <time>2025-08-08T06:08:33.000Z</time>
      </trkpt>
      <trkpt lat="46.47954" lon="5.94703">
        <ele>923.20001220703</ele>
        <time>2025-08-08T06:08:36.000Z</time>
      </trkpt>
      <trkpt lat="46.4795" lon="5.94698">
        <ele>923.20001220703</ele>
        <time>2025-08-08T06:08:37.000Z</time>
      </trkpt>
      <trkpt lat="46.47911" lon="5.94668">
        <ele>923.40002441406</ele>
        <time>2025-08-08T06:08:45.000Z</time>
      </trkpt>
      <trkpt lat="46.4787" lon="5.94634">
        <ele>923.59997558594</ele>
        <time>2025-08-08T06:08:53.000Z</time>
      </trkpt>
      <trkpt lat="46.47866" lon="5.94629">
        <ele>923.59997558594</ele>
        <time>2025-08-08T06:08:54.000Z</time>
      </trkpt>
      <trkpt lat="46.47835" lon="5.94589">
        <ele>923.59997558594</ele>
        <time>2025-08-08T06:09:01.000Z</time>
      </trkpt>
      <trkpt lat="46.47795" lon="5.94529">
        <ele>923.79998779297</ele>
        <time>2025-08-08T06:09:11.000Z</time>
      </trkpt>
      <trkpt lat="46.47771" lon="5.94494">
        <ele>924.20001220703</ele>
        <time>2025-08-08T06:09:18.000Z</time>
      </trkpt>
      <trkpt lat="46.47765" lon="5.94484">
        <ele>924.79998779297</ele>
        <time>2025-08-08T06:09:20.000Z</time>
      </trkpt>
      <trkpt lat="46.4775" lon="5.9446">
        <ele>925.59997558594</ele>
        <time>2025-08-08T06:09:25.000Z</time>
      </trkpt>
      <trkpt lat="46.47735" lon="5.94444">
        <ele>926</ele>
        <time>2025-08-08T06:09:29.000Z</time>
      </trkpt>
      <trkpt lat="46.47726" lon="5.94437">
        <ele>926.20001220703</ele>
        <time>2025-08-08T06:09:31.000Z</time>
      </trkpt>
      <trkpt lat="46.47721" lon="5.94435">
        <ele>926.40002441406</ele>
        <time>2025-08-08T06:09:32.000Z</time>
      </trkpt>
      <trkpt lat="46.47717" lon="5.94433">
        <ele>926.40002441406</ele>
        <time>2025-08-08T06:09:33.000Z</time>
      </trkpt>
      <trkpt lat="46.47708" lon="5.94431">
        <ele>926.79998779297</ele>
        <time>2025-08-08T06:09:35.000Z</time>
      </trkpt>
      <trkpt lat="46.47698" lon="5.94432">
        <ele>927.20001220703</ele>
        <time>2025-08-08T06:09:37.000Z</time>
      </trkpt>
      <trkpt lat="46.47683" lon="5.94439">
        <ele>927.79998779297</ele>
        <time>2025-08-08T06:09:41.000Z</time>
      </trkpt>
      <trkpt lat="46.47675" lon="5.94444">
        <ele>928.20001220703</ele>
        <time>2025-08-08T06:09:43.000Z</time>
      </trkpt>
      <trkpt lat="46.47661" lon="5.94452">
        <ele>929</ele>
        <time>2025-08-08T06:09:47.000Z</time>
      </trkpt>
      <trkpt lat="46.47654" lon="5.94458">
        <ele>929.20001220703</ele>
        <time>2025-08-08T06:09:49.000Z</time>
      </trkpt>
      <trkpt lat="46.47633" lon="5.94474">
        <ele>930</ele>
        <time>2025-08-08T06:09:56.000Z</time>
      </trkpt>
      <trkpt lat="46.4763" lon="5.94477">
        <ele>930.40002441406</ele>
        <time>2025-08-08T06:09:57.000Z</time>
      </trkpt>
      <trkpt lat="46.47618" lon="5.94492">
        <ele>931.20001220703</ele>
        <time>2025-08-08T06:10:02.000Z</time>
      </trkpt>
      <trkpt lat="46.47615" lon="5.94496">
        <ele>931.40002441406</ele>
        <time>2025-08-08T06:10:03.000Z</time>
      </trkpt>
      <trkpt lat="46.47605" lon="5.94515">
        <ele>932.40002441406</ele>
        <time>2025-08-08T06:10:08.000Z</time>
      </trkpt>
      <trkpt lat="46.476" lon="5.94523">
        <ele>932.79998779297</ele>
        <time>2025-08-08T06:10:10.000Z</time>
      </trkpt>
      <trkpt lat="46.47587" lon="5.94545">
        <ele>933.59997558594</ele>
        <time>2025-08-08T06:10:16.000Z</time>
      </trkpt>
      <trkpt lat="46.47583" lon="5.94551">
        <ele>933.79998779297</ele>
        <time>2025-08-08T06:10:18.000Z</time>
      </trkpt>
      <trkpt lat="46.47571" lon="5.94565">
        <ele>934.40002441406</ele>
        <time>2025-08-08T06:10:22.000Z</time>
      </trkpt>
      <trkpt lat="46.47568" lon="5.94568">
        <ele>934.59997558594</ele>
        <time>2025-08-08T06:10:23.000Z</time>
      </trkpt>
      <trkpt lat="46.47563" lon="5.94575">
        <ele>935</ele>
        <time>2025-08-08T06:10:25.000Z</time>
      </trkpt>
      <trkpt lat="46.47549" lon="5.9459">
        <ele>935.79998779297</ele>
        <time>2025-08-08T06:10:30.000Z</time>
      </trkpt>
      <trkpt lat="46.47538" lon="5.94601">
        <ele>936</ele>
        <time>2025-08-08T06:10:34.000Z</time>
      </trkpt>
      <trkpt lat="46.47509" lon="5.9461">
        <ele>936.79998779297</ele>
        <time>2025-08-08T06:10:41.000Z</time>
      </trkpt>
      <trkpt lat="46.47504" lon="5.9461">
        <ele>936.79998779297</ele>
        <time>2025-08-08T06:10:42.000Z</time>
      </trkpt>
      <trkpt lat="46.47485" lon="5.94609">
        <ele>936.79998779297</ele>
        <time>2025-08-08T06:10:46.000Z</time>
      </trkpt>
      <trkpt lat="46.4748" lon="5.94608">
        <ele>936.79998779297</ele>
        <time>2025-08-08T06:10:47.000Z</time>
      </trkpt>
      <trkpt lat="46.47464" lon="5.94606">
        <ele>936.79998779297</ele>
        <time>2025-08-08T06:10:50.000Z</time>
      </trkpt>
      <trkpt lat="46.47451" lon="5.94603">
        <ele>936.59997558594</ele>
        <time>2025-08-08T06:10:52.000Z</time>
      </trkpt>
      <trkpt lat="46.47418" lon="5.94598">
        <ele>935.79998779297</ele>
        <time>2025-08-08T06:10:57.000Z</time>
      </trkpt>
      <trkpt lat="46.47389" lon="5.946">
        <ele>934.59997558594</ele>
        <time>2025-08-08T06:11:01.000Z</time>
      </trkpt>
      <trkpt lat="46.47373" lon="5.94602">
        <ele>934.20001220703</ele>
        <time>2025-08-08T06:11:03.000Z</time>
      </trkpt>
      <trkpt lat="46.4735" lon="5.94603">
        <ele>933.40002441406</ele>
        <time>2025-08-08T06:11:06.000Z</time>
      </trkpt>
      <trkpt lat="46.47323" lon="5.94601">
        <ele>932.59997558594</ele>
        <time>2025-08-08T06:11:09.000Z</time>
      </trkpt>
      <trkpt lat="46.47316" lon="5.94599">
        <ele>932.20001220703</ele>
        <time>2025-08-08T06:11:10.000Z</time>
      </trkpt>
      <trkpt lat="46.47279" lon="5.94589">
        <ele>930.79998779297</ele>
        <time>2025-08-08T06:11:14.000Z</time>
      </trkpt>
      <trkpt lat="46.47263" lon="5.94585">
        <ele>929.79998779297</ele>
        <time>2025-08-08T06:11:16.000Z</time>
      </trkpt>
      <trkpt lat="46.47225" lon="5.94575">
        <ele>928.59997558594</ele>
        <time>2025-08-08T06:11:20.000Z</time>
      </trkpt>
      <trkpt lat="46.47196" lon="5.94567">
        <ele>927.59997558594</ele>
        <time>2025-08-08T06:11:23.000Z</time>
      </trkpt>
      <trkpt lat="46.47186" lon="5.94563">
        <ele>927.40002441406</ele>
        <time>2025-08-08T06:11:24.000Z</time>
      </trkpt>
      <trkpt lat="46.47161" lon="5.94548">
        <ele>926</ele>
        <time>2025-08-08T06:11:27.000Z</time>
      </trkpt>
      <trkpt lat="46.47143" lon="5.9453">
        <ele>925.20001220703</ele>
        <time>2025-08-08T06:11:29.000Z</time>
      </trkpt>
      <trkpt lat="46.47135" lon="5.94521">
        <ele>924.59997558594</ele>
        <time>2025-08-08T06:11:30.000Z</time>
      </trkpt>
      <trkpt lat="46.47128" lon="5.94511">
        <ele>924.20001220703</ele>
        <time>2025-08-08T06:11:31.000Z</time>
      </trkpt>
      <trkpt lat="46.47117" lon="5.9449">
        <ele>923.40002441406</ele>
        <time>2025-08-08T06:11:33.000Z</time>
      </trkpt>
      <trkpt lat="46.47106" lon="5.94462">
        <ele>921.79998779297</ele>
        <time>2025-08-08T06:11:35.000Z</time>
      </trkpt>
      <trkpt lat="46.47096" lon="5.94423">
        <ele>920.59997558594</ele>
        <time>2025-08-08T06:11:38.000Z</time>
      </trkpt>
      <trkpt lat="46.47091" lon="5.94406">
        <ele>920</ele>
        <time>2025-08-08T06:11:39.000Z</time>
      </trkpt>
      <trkpt lat="46.47087" lon="5.94393">
        <ele>919.59997558594</ele>
        <time>2025-08-08T06:11:40.000Z</time>
      </trkpt>
      <trkpt lat="46.47082" lon="5.9438">
        <ele>919.20001220703</ele>
        <time>2025-08-08T06:11:41.000Z</time>
      </trkpt>
      <trkpt lat="46.4707" lon="5.9436">
        <ele>918.40002441406</ele>
        <time>2025-08-08T06:11:43.000Z</time>
      </trkpt>
      <trkpt lat="46.47047" lon="5.94325">
        <ele>917</ele>
        <time>2025-08-08T06:11:46.000Z</time>
      </trkpt>
      <trkpt lat="46.47029" lon="5.94292">
        <ele>916</ele>
        <time>2025-08-08T06:11:49.000Z</time>
      </trkpt>
      <trkpt lat="46.47023" lon="5.94276">
        <ele>915.59997558594</ele>
        <time>2025-08-08T06:11:50.000Z</time>
      </trkpt>
      <trkpt lat="46.47017" lon="5.94264">
        <ele>915</ele>
        <time>2025-08-08T06:11:51.000Z</time>
      </trkpt>
      <trkpt lat="46.47005" lon="5.94225">
        <ele>913.59997558594</ele>
        <time>2025-08-08T06:11:54.000Z</time>
      </trkpt>
      <trkpt lat="46.47001" lon="5.9421">
        <ele>913.20001220703</ele>
        <time>2025-08-08T06:11:55.000Z</time>
      </trkpt>
      <trkpt lat="46.46992" lon="5.94179">
        <ele>912.59997558594</ele>
        <time>2025-08-08T06:11:57.000Z</time>
      </trkpt>
      <trkpt lat="46.46983" lon="5.94154">
        <ele>911.20001220703</ele>
        <time>2025-08-08T06:11:59.000Z</time>
      </trkpt>
      <trkpt lat="46.46978" lon="5.94141">
        <ele>911</ele>
        <time>2025-08-08T06:12:00.000Z</time>
      </trkpt>
      <trkpt lat="46.46967" lon="5.94115">
        <ele>909.79998779297</ele>
        <time>2025-08-08T06:12:02.000Z</time>
      </trkpt>
      <trkpt lat="46.4695" lon="5.94078">
        <ele>908.59997558594</ele>
        <time>2025-08-08T06:12:05.000Z</time>
      </trkpt>
      <trkpt lat="46.46941" lon="5.94065">
        <ele>908.20001220703</ele>
        <time>2025-08-08T06:12:06.000Z</time>
      </trkpt>
      <trkpt lat="46.46933" lon="5.94057">
        <ele>907.79998779297</ele>
        <time>2025-08-08T06:12:07.000Z</time>
      </trkpt>
      <trkpt lat="46.46923" lon="5.94051">
        <ele>907</ele>
        <time>2025-08-08T06:12:08.000Z</time>
      </trkpt>
      <trkpt lat="46.46915" lon="5.94047">
        <ele>906.59997558594</ele>
        <time>2025-08-08T06:12:09.000Z</time>
      </trkpt>
      <trkpt lat="46.46892" lon="5.94044">
        <ele>906.20001220703</ele>
        <time>2025-08-08T06:12:11.000Z</time>
      </trkpt>
      <trkpt lat="46.46881" lon="5.94047">
        <ele>906.20001220703</ele>
        <time>2025-08-08T06:12:12.000Z</time>
      </trkpt>
      <trkpt lat="46.4687" lon="5.94053">
        <ele>905.20001220703</ele>
        <time>2025-08-08T06:12:13.000Z</time>
      </trkpt>
      <trkpt lat="46.46854" lon="5.94066">
        <ele>904</ele>
        <time>2025-08-08T06:12:15.000Z</time>
      </trkpt>
      <trkpt lat="46.46825" lon="5.94093">
        <ele>902.59997558594</ele>
        <time>2025-08-08T06:12:18.000Z</time>
      </trkpt>
      <trkpt lat="46.46809" lon="5.94104">
        <ele>902</ele>
        <time>2025-08-08T06:12:20.000Z</time>
      </trkpt>
      <trkpt lat="46.46798" lon="5.94109">
        <ele>901.59997558594</ele>
        <time>2025-08-08T06:12:21.000Z</time>
      </trkpt>
      <trkpt lat="46.46788" lon="5.94111">
        <ele>901.40002441406</ele>
        <time>2025-08-08T06:12:22.000Z</time>
      </trkpt>
      <trkpt lat="46.46761" lon="5.94111">
        <ele>900.79998779297</ele>
        <time>2025-08-08T06:12:25.000Z</time>
      </trkpt>
      <trkpt lat="46.46743" lon="5.94105">
        <ele>900.59997558594</ele>
        <time>2025-08-08T06:12:27.000Z</time>
      </trkpt>
      <trkpt lat="46.4673" lon="5.94097">
        <ele>900.20001220703</ele>
        <time>2025-08-08T06:12:29.000Z</time>
      </trkpt>
      <trkpt lat="46.46721" lon="5.9409">
        <ele>900.20001220703</ele>
        <time>2025-08-08T06:12:30.000Z</time>
      </trkpt>
      <trkpt lat="46.46704" lon="5.94072">
        <ele>900.20001220703</ele>
        <time>2025-08-08T06:12:33.000Z</time>
      </trkpt>
      <trkpt lat="46.46679" lon="5.94035">
        <ele>900.40002441406</ele>
        <time>2025-08-08T06:12:38.000Z</time>
      </trkpt>
      <trkpt lat="46.46667" lon="5.94001">
        <ele>900.79998779297</ele>
        <time>2025-08-08T06:12:42.000Z</time>
      </trkpt>
      <trkpt lat="46.46656" lon="5.9397">
        <ele>901.59997558594</ele>
        <time>2025-08-08T06:12:46.000Z</time>
      </trkpt>
      <trkpt lat="46.46652" lon="5.93955">
        <ele>901.79998779297</ele>
        <time>2025-08-08T06:12:48.000Z</time>
      </trkpt>
      <trkpt lat="46.46639" lon="5.9392">
        <ele>902.59997558594</ele>
        <time>2025-08-08T06:12:53.000Z</time>
      </trkpt>
      <trkpt lat="46.46634" lon="5.93906">
        <ele>902.79998779297</ele>
        <time>2025-08-08T06:12:55.000Z</time>
      </trkpt>
      <trkpt lat="46.46618" lon="5.93864">
        <ele>903.59997558594</ele>
        <time>2025-08-08T06:13:01.000Z</time>
      </trkpt>
      <trkpt lat="46.46606" lon="5.93838">
        <ele>904</ele>
        <time>2025-08-08T06:13:05.000Z</time>
      </trkpt>
      <trkpt lat="46.46577" lon="5.93801">
        <ele>904.59997558594</ele>
        <time>2025-08-08T06:13:12.000Z</time>
      </trkpt>
      <trkpt lat="46.46573" lon="5.93797">
        <ele>904.59997558594</ele>
        <time>2025-08-08T06:13:13.000Z</time>
      </trkpt>
      <trkpt lat="46.46529" lon="5.93752">
        <ele>905</ele>
        <time>2025-08-08T06:13:22.000Z</time>
      </trkpt>
      <trkpt lat="46.46481" lon="5.93705">
        <ele>904.59997558594</ele>
        <time>2025-08-08T06:13:31.000Z</time>
      </trkpt>
      <trkpt lat="46.46475" lon="5.937">
        <ele>904.59997558594</ele>
        <time>2025-08-08T06:13:32.000Z</time>
      </trkpt>
      <trkpt lat="46.46429" lon="5.93656">
        <ele>904.59997558594</ele>
        <time>2025-08-08T06:13:41.000Z</time>
      </trkpt>
      <trkpt lat="46.46422" lon="5.9365">
        <ele>904.59997558594</ele>
        <time>2025-08-08T06:13:42.000Z</time>
      </trkpt>
      <trkpt lat="46.46378" lon="5.93609">
        <ele>904.79998779297</ele>
        <time>2025-08-08T06:13:51.000Z</time>
      </trkpt>
      <trkpt lat="46.46341" lon="5.93577">
        <ele>905</ele>
        <time>2025-08-08T06:13:58.000Z</time>
      </trkpt>
      <trkpt lat="46.46329" lon="5.93567">
        <ele>905</ele>
        <time>2025-08-08T06:14:00.000Z</time>
      </trkpt>
      <trkpt lat="46.46281" lon="5.93517">
        <ele>904.59997558594</ele>
        <time>2025-08-08T06:14:10.000Z</time>
      </trkpt>
      <trkpt lat="46.46253" lon="5.93467">
        <ele>904.59997558594</ele>
        <time>2025-08-08T06:14:17.000Z</time>
      </trkpt>
      <trkpt lat="46.46228" lon="5.93414">
        <ele>904</ele>
        <time>2025-08-08T06:14:24.000Z</time>
      </trkpt>
      <trkpt lat="46.46201" lon="5.93361">
        <ele>904</ele>
        <time>2025-08-08T06:14:32.000Z</time>
      </trkpt>
      <trkpt lat="46.46197" lon="5.93352">
        <ele>904</ele>
        <time>2025-08-08T06:14:33.000Z</time>
      </trkpt>
      <trkpt lat="46.46192" lon="5.9334">
        <ele>904.20001220703</ele>
        <time>2025-08-08T06:14:35.000Z</time>
      </trkpt>
      <trkpt lat="46.46186" lon="5.93319">
        <ele>904.79998779297</ele>
        <time>2025-08-08T06:14:38.000Z</time>
      </trkpt>
      <trkpt lat="46.46164" lon="5.93247">
        <ele>905.20001220703</ele>
        <time>2025-08-08T06:14:47.000Z</time>
      </trkpt>
      <trkpt lat="46.4615" lon="5.93203">
        <ele>904.79998779297</ele>
        <time>2025-08-08T06:14:52.000Z</time>
      </trkpt>
      <trkpt lat="46.46145" lon="5.93192">
        <ele>904.59997558594</ele>
        <time>2025-08-08T06:14:53.000Z</time>
      </trkpt>
      <trkpt lat="46.46136" lon="5.93177">
        <ele>904</ele>
        <time>2025-08-08T06:14:55.000Z</time>
      </trkpt>
      <trkpt lat="46.46122" lon="5.9315">
        <ele>903</ele>
        <time>2025-08-08T06:14:58.000Z</time>
      </trkpt>
      <trkpt lat="46.46112" lon="5.93133">
        <ele>902.59997558594</ele>
        <time>2025-08-08T06:15:00.000Z</time>
      </trkpt>
      <trkpt lat="46.461" lon="5.93105">
        <ele>901.79998779297</ele>
        <time>2025-08-08T06:15:03.000Z</time>
      </trkpt>
      <trkpt lat="46.46092" lon="5.93091">
        <ele>901.59997558594</ele>
        <time>2025-08-08T06:15:05.000Z</time>
      </trkpt>
      <trkpt lat="46.46064" lon="5.93039">
        <ele>901.59997558594</ele>
        <time>2025-08-08T06:15:12.000Z</time>
      </trkpt>
      <trkpt lat="46.46031" lon="5.92982">
        <ele>901.79998779297</ele>
        <time>2025-08-08T06:15:20.000Z</time>
      </trkpt>
      <trkpt lat="46.45999" lon="5.92924">
        <ele>901.20001220703</ele>
        <time>2025-08-08T06:15:28.000Z</time>
      </trkpt>
      <trkpt lat="46.45984" lon="5.92896">
        <ele>900.59997558594</ele>
        <time>2025-08-08T06:15:31.000Z</time>
      </trkpt>
      <trkpt lat="46.45974" lon="5.92882">
        <ele>900.20001220703</ele>
        <time>2025-08-08T06:15:33.000Z</time>
      </trkpt>
      <trkpt lat="46.45958" lon="5.92874">
        <ele>899.40002441406</ele>
        <time>2025-08-08T06:15:35.000Z</time>
      </trkpt>
      <trkpt lat="46.45952" lon="5.92874">
        <ele>899</ele>
        <time>2025-08-08T06:15:36.000Z</time>
      </trkpt>
      <trkpt lat="46.45944" lon="5.92877">
        <ele>898.59997558594</ele>
        <time>2025-08-08T06:15:37.000Z</time>
      </trkpt>
      <trkpt lat="46.45936" lon="5.92883">
        <ele>898.20001220703</ele>
        <time>2025-08-08T06:15:38.000Z</time>
      </trkpt>
      <trkpt lat="46.45929" lon="5.92892">
        <ele>897.59997558594</ele>
        <time>2025-08-08T06:15:39.000Z</time>
      </trkpt>
      <trkpt lat="46.45924" lon="5.92902">
        <ele>897</ele>
        <time>2025-08-08T06:15:40.000Z</time>
      </trkpt>
      <trkpt lat="46.45913" lon="5.92923">
        <ele>896.20001220703</ele>
        <time>2025-08-08T06:15:42.000Z</time>
      </trkpt>
      <trkpt lat="46.45906" lon="5.9293">
        <ele>895.40002441406</ele>
        <time>2025-08-08T06:15:43.000Z</time>
      </trkpt>
      <trkpt lat="46.45899" lon="5.92935">
        <ele>895.20001220703</ele>
        <time>2025-08-08T06:15:44.000Z</time>
      </trkpt>
      <trkpt lat="46.45883" lon="5.92937">
        <ele>894</ele>
        <time>2025-08-08T06:15:46.000Z</time>
      </trkpt>
      <trkpt lat="46.45863" lon="5.92929">
        <ele>893</ele>
        <time>2025-08-08T06:15:48.000Z</time>
      </trkpt>
      <trkpt lat="46.45858" lon="5.92923">
        <ele>892.79998779297</ele>
        <time>2025-08-08T06:15:49.000Z</time>
      </trkpt>
      <trkpt lat="46.45852" lon="5.92914">
        <ele>892.20001220703</ele>
        <time>2025-08-08T06:15:50.000Z</time>
      </trkpt>
      <trkpt lat="46.45846" lon="5.92904">
        <ele>892</ele>
        <time>2025-08-08T06:15:51.000Z</time>
      </trkpt>
      <trkpt lat="46.4584" lon="5.92893">
        <ele>891.59997558594</ele>
        <time>2025-08-08T06:15:52.000Z</time>
      </trkpt>
      <trkpt lat="46.45829" lon="5.92868">
        <ele>890.79998779297</ele>
        <time>2025-08-08T06:15:54.000Z</time>
      </trkpt>
      <trkpt lat="46.45818" lon="5.92849">
        <ele>890.20001220703</ele>
        <time>2025-08-08T06:15:56.000Z</time>
      </trkpt>
      <trkpt lat="46.45811" lon="5.92838">
        <ele>889.59997558594</ele>
        <time>2025-08-08T06:15:57.000Z</time>
      </trkpt>
      <trkpt lat="46.45803" lon="5.92829">
        <ele>889.20001220703</ele>
        <time>2025-08-08T06:15:58.000Z</time>
      </trkpt>
      <trkpt lat="46.45796" lon="5.92824">
        <ele>889</ele>
        <time>2025-08-08T06:15:59.000Z</time>
      </trkpt>
      <trkpt lat="46.45787" lon="5.92821">
        <ele>888.40002441406</ele>
        <time>2025-08-08T06:16:00.000Z</time>
      </trkpt>
      <trkpt lat="46.45778" lon="5.92819">
        <ele>888</ele>
        <time>2025-08-08T06:16:01.000Z</time>
      </trkpt>
      <trkpt lat="46.45759" lon="5.92814">
        <ele>887.20001220703</ele>
        <time>2025-08-08T06:16:03.000Z</time>
      </trkpt>
      <trkpt lat="46.45733" lon="5.92808">
        <ele>886.20001220703</ele>
        <time>2025-08-08T06:16:06.000Z</time>
      </trkpt>
      <trkpt lat="46.45697" lon="5.92799">
        <ele>884.59997558594</ele>
        <time>2025-08-08T06:16:10.000Z</time>
      </trkpt>
      <trkpt lat="46.45665" lon="5.92791">
        <ele>883.20001220703</ele>
        <time>2025-08-08T06:16:14.000Z</time>
      </trkpt>
      <trkpt lat="46.45657" lon="5.92789">
        <ele>882.79998779297</ele>
        <time>2025-08-08T06:16:15.000Z</time>
      </trkpt>
      <trkpt lat="46.45639" lon="5.92784">
        <ele>881.79998779297</ele>
        <time>2025-08-08T06:16:17.000Z</time>
      </trkpt>
      <trkpt lat="46.45615" lon="5.92779">
        <ele>880.59997558594</ele>
        <time>2025-08-08T06:16:20.000Z</time>
      </trkpt>
      <trkpt lat="46.45595" lon="5.92773">
        <ele>879.59997558594</ele>
        <time>2025-08-08T06:16:22.000Z</time>
      </trkpt>
      <trkpt lat="46.45579" lon="5.92769">
        <ele>878.59997558594</ele>
        <time>2025-08-08T06:16:24.000Z</time>
      </trkpt>
      <trkpt lat="46.45568" lon="5.92766">
        <ele>878.40002441406</ele>
        <time>2025-08-08T06:16:25.000Z</time>
      </trkpt>
      <trkpt lat="46.45542" lon="5.92758">
        <ele>877.20001220703</ele>
        <time>2025-08-08T06:16:28.000Z</time>
      </trkpt>
      <trkpt lat="46.45513" lon="5.92744">
        <ele>875.79998779297</ele>
        <time>2025-08-08T06:16:31.000Z</time>
      </trkpt>
      <trkpt lat="46.45497" lon="5.9273">
        <ele>874.59997558594</ele>
        <time>2025-08-08T06:16:33.000Z</time>
      </trkpt>
      <trkpt lat="46.45482" lon="5.92712">
        <ele>873.79998779297</ele>
        <time>2025-08-08T06:16:35.000Z</time>
      </trkpt>
      <trkpt lat="46.45475" lon="5.92701">
        <ele>873.20001220703</ele>
        <time>2025-08-08T06:16:36.000Z</time>
      </trkpt>
      <trkpt lat="46.45463" lon="5.92677">
        <ele>872</ele>
        <time>2025-08-08T06:16:38.000Z</time>
      </trkpt>
      <trkpt lat="46.45456" lon="5.92662">
        <ele>871.59997558594</ele>
        <time>2025-08-08T06:16:39.000Z</time>
      </trkpt>
      <trkpt lat="46.45451" lon="5.92652">
        <ele>870.79998779297</ele>
        <time>2025-08-08T06:16:40.000Z</time>
      </trkpt>
      <trkpt lat="46.4544" lon="5.92626">
        <ele>869.59997558594</ele>
        <time>2025-08-08T06:16:42.000Z</time>
      </trkpt>
      <trkpt lat="46.45423" lon="5.92583">
        <ele>868.40002441406</ele>
        <time>2025-08-08T06:16:45.000Z</time>
      </trkpt>
      <trkpt lat="46.45418" lon="5.92569">
        <ele>868</ele>
        <time>2025-08-08T06:16:46.000Z</time>
      </trkpt>
      <trkpt lat="46.45408" lon="5.92545">
        <ele>867</ele>
        <time>2025-08-08T06:16:48.000Z</time>
      </trkpt>
      <trkpt lat="46.45384" lon="5.92491">
        <ele>865.20001220703</ele>
        <time>2025-08-08T06:16:52.000Z</time>
      </trkpt>
      <trkpt lat="46.4537" lon="5.92463">
        <ele>864.20001220703</ele>
        <time>2025-08-08T06:16:54.000Z</time>
      </trkpt>
      <trkpt lat="46.45364" lon="5.92451">
        <ele>863.40002441406</ele>
        <time>2025-08-08T06:16:55.000Z</time>
      </trkpt>
      <trkpt lat="46.45353" lon="5.9243">
        <ele>862</ele>
        <time>2025-08-08T06:16:57.000Z</time>
      </trkpt>
      <trkpt lat="46.45336" lon="5.92397">
        <ele>861</ele>
        <time>2025-08-08T06:17:00.000Z</time>
      </trkpt>
      <trkpt lat="46.45299" lon="5.92326">
        <ele>860.40002441406</ele>
        <time>2025-08-08T06:17:07.000Z</time>
      </trkpt>
      <trkpt lat="46.45273" lon="5.92275">
        <ele>860.40002441406</ele>
        <time>2025-08-08T06:17:13.000Z</time>
      </trkpt>
      <trkpt lat="46.45247" lon="5.92225">
        <ele>861.59997558594</ele>
        <time>2025-08-08T06:17:20.000Z</time>
      </trkpt>
      <trkpt lat="46.45237" lon="5.92204">
        <ele>862.40002441406</ele>
        <time>2025-08-08T06:17:23.000Z</time>
      </trkpt>
      <trkpt lat="46.45227" lon="5.92185">
        <ele>863</ele>
        <time>2025-08-08T06:17:26.000Z</time>
      </trkpt>
      <trkpt lat="46.4521" lon="5.92152">
        <ele>863.40002441406</ele>
        <time>2025-08-08T06:17:31.000Z</time>
      </trkpt>
      <trkpt lat="46.45194" lon="5.92122">
        <ele>863.79998779297</ele>
        <time>2025-08-08T06:17:36.000Z</time>
      </trkpt>
      <trkpt lat="46.4516" lon="5.92058">
        <ele>864.20001220703</ele>
        <time>2025-08-08T06:17:46.000Z</time>
      </trkpt>
      <trkpt lat="46.45149" lon="5.92038">
        <ele>864.20001220703</ele>
        <time>2025-08-08T06:17:49.000Z</time>
      </trkpt>
      <trkpt lat="46.45138" lon="5.92021">
        <ele>864.40002441406</ele>
        <time>2025-08-08T06:17:52.000Z</time>
      </trkpt>
      <trkpt lat="46.45109" lon="5.91974">
        <ele>864.79998779297</ele>
        <time>2025-08-08T06:18:00.000Z</time>
      </trkpt>
      <trkpt lat="46.45098" lon="5.91956">
        <ele>865</ele>
        <time>2025-08-08T06:18:03.000Z</time>
      </trkpt>
      <trkpt lat="46.45093" lon="5.91946">
        <ele>865.20001220703</ele>
        <time>2025-08-08T06:18:05.000Z</time>
      </trkpt>
      <trkpt lat="46.4509" lon="5.9194">
        <ele>865.20001220703</ele>
        <time>2025-08-08T06:18:06.000Z</time>
      </trkpt>
      <trkpt lat="46.45086" lon="5.91935">
        <ele>865.40002441406</ele>
        <time>2025-08-08T06:18:07.000Z</time>
      </trkpt>
      <trkpt lat="46.45066" lon="5.91893">
        <ele>866.59997558594</ele>
        <time>2025-08-08T06:18:14.000Z</time>
      </trkpt>
      <trkpt lat="46.45048" lon="5.91855">
        <ele>867.59997558594</ele>
        <time>2025-08-08T06:18:21.000Z</time>
      </trkpt>
      <trkpt lat="46.45045" lon="5.9185">
        <ele>867.59997558594</ele>
        <time>2025-08-08T06:18:22.000Z</time>
      </trkpt>
      <trkpt lat="46.45025" lon="5.91806">
        <ele>868.79998779297</ele>
        <time>2025-08-08T06:18:30.000Z</time>
      </trkpt>
      <trkpt lat="46.45016" lon="5.91788">
        <ele>869</ele>
        <time>2025-08-08T06:18:33.000Z</time>
      </trkpt>
      <trkpt lat="46.45003" lon="5.91762">
        <ele>869.79998779297</ele>
        <time>2025-08-08T06:18:38.000Z</time>
      </trkpt>
      <trkpt lat="46.44983" lon="5.91725">
        <ele>870.59997558594</ele>
        <time>2025-08-08T06:18:45.000Z</time>
      </trkpt>
      <trkpt lat="46.44974" lon="5.91708">
        <ele>870.79998779297</ele>
        <time>2025-08-08T06:18:48.000Z</time>
      </trkpt>
      <trkpt lat="46.44944" lon="5.91657">
        <ele>871.40002441406</ele>
        <time>2025-08-08T06:18:57.000Z</time>
      </trkpt>
      <trkpt lat="46.44907" lon="5.91603">
        <ele>871.59997558594</ele>
        <time>2025-08-08T06:19:06.000Z</time>
      </trkpt>
      <trkpt lat="46.44869" lon="5.91547">
        <ele>871</ele>
        <time>2025-08-08T06:19:15.000Z</time>
      </trkpt>
      <trkpt lat="46.44865" lon="5.91543">
        <ele>871</ele>
        <time>2025-08-08T06:19:16.000Z</time>
      </trkpt>
      <trkpt lat="46.44825" lon="5.91497">
        <ele>871</ele>
        <time>2025-08-08T06:19:24.000Z</time>
      </trkpt>
      <trkpt lat="46.4479" lon="5.91451">
        <ele>870.59997558594</ele>
        <time>2025-08-08T06:19:31.000Z</time>
      </trkpt>
      <trkpt lat="46.44767" lon="5.91419">
        <ele>869.79998779297</ele>
        <time>2025-08-08T06:19:35.000Z</time>
      </trkpt>
      <trkpt lat="46.44748" lon="5.91393">
        <ele>869.20001220703</ele>
        <time>2025-08-08T06:19:38.000Z</time>
      </trkpt>
      <trkpt lat="46.44735" lon="5.91376">
        <ele>868.59997558594</ele>
        <time>2025-08-08T06:19:40.000Z</time>
      </trkpt>
      <trkpt lat="46.44708" lon="5.9134">
        <ele>867.40002441406</ele>
        <time>2025-08-08T06:19:44.000Z</time>
      </trkpt>
      <trkpt lat="46.44694" lon="5.91321">
        <ele>867</ele>
        <time>2025-08-08T06:19:46.000Z</time>
      </trkpt>
      <trkpt lat="46.4468" lon="5.91303">
        <ele>866.40002441406</ele>
        <time>2025-08-08T06:19:48.000Z</time>
      </trkpt>
      <trkpt lat="46.44656" lon="5.91268">
        <ele>865</ele>
        <time>2025-08-08T06:19:52.000Z</time>
      </trkpt>
      <trkpt lat="46.44616" lon="5.91216">
        <ele>864</ele>
        <time>2025-08-08T06:19:58.000Z</time>
      </trkpt>
      <trkpt lat="46.4461" lon="5.91207">
        <ele>863.79998779297</ele>
        <time>2025-08-08T06:19:59.000Z</time>
      </trkpt>
      <trkpt lat="46.44567" lon="5.91149">
        <ele>863.40002441406</ele>
        <time>2025-08-08T06:20:06.000Z</time>
      </trkpt>
      <trkpt lat="46.44531" lon="5.91098">
        <ele>863.20001220703</ele>
        <time>2025-08-08T06:20:13.000Z</time>
      </trkpt>
      <trkpt lat="46.44498" lon="5.91052">
        <ele>863.59997558594</ele>
        <time>2025-08-08T06:20:20.000Z</time>
      </trkpt>
      <trkpt lat="46.44459" lon="5.90997">
        <ele>864.59997558594</ele>
        <time>2025-08-08T06:20:29.000Z</time>
      </trkpt>
      <trkpt lat="46.44443" lon="5.90975">
        <ele>865</ele>
        <time>2025-08-08T06:20:33.000Z</time>
      </trkpt>
      <trkpt lat="46.44436" lon="5.90965">
        <ele>865</ele>
        <time>2025-08-08T06:20:35.000Z</time>
      </trkpt>
      <trkpt lat="46.44429" lon="5.90955">
        <ele>865.40002441406</ele>
        <time>2025-08-08T06:20:37.000Z</time>
      </trkpt>
      <trkpt lat="46.44422" lon="5.90943">
        <ele>865.59997558594</ele>
        <time>2025-08-08T06:20:39.000Z</time>
      </trkpt>
      <trkpt lat="46.44411" lon="5.90924">
        <ele>866</ele>
        <time>2025-08-08T06:20:43.000Z</time>
      </trkpt>
      <trkpt lat="46.44405" lon="5.90914">
        <ele>866.20001220703</ele>
        <time>2025-08-08T06:20:45.000Z</time>
      </trkpt>
      <trkpt lat="46.4439" lon="5.90889">
        <ele>866.79998779297</ele>
        <time>2025-08-08T06:20:50.000Z</time>
      </trkpt>
      <trkpt lat="46.44379" lon="5.9087">
        <ele>867.20001220703</ele>
        <time>2025-08-08T06:20:54.000Z</time>
      </trkpt>
      <trkpt lat="46.44368" lon="5.90859">
        <ele>867.79998779297</ele>
        <time>2025-08-08T06:20:57.000Z</time>
      </trkpt>
      <trkpt lat="46.44361" lon="5.90852">
        <ele>868.40002441406</ele>
        <time>2025-08-08T06:20:59.000Z</time>
      </trkpt>
      <trkpt lat="46.44342" lon="5.90842">
        <ele>868.79998779297</ele>
        <time>2025-08-08T06:21:03.000Z</time>
      </trkpt>
      <trkpt lat="46.44307" lon="5.90827">
        <ele>869.20001220703</ele>
        <time>2025-08-08T06:21:11.000Z</time>
      </trkpt>
      <trkpt lat="46.44302" lon="5.90824">
        <ele>869.40002441406</ele>
        <time>2025-08-08T06:21:12.000Z</time>
      </trkpt>
      <trkpt lat="46.44283" lon="5.9081">
        <ele>870</ele>
        <time>2025-08-08T06:21:17.000Z</time>
      </trkpt>
      <trkpt lat="46.4428" lon="5.90807">
        <ele>870.20001220703</ele>
        <time>2025-08-08T06:21:18.000Z</time>
      </trkpt>
      <trkpt lat="46.44277" lon="5.90803">
        <ele>870.20001220703</ele>
        <time>2025-08-08T06:21:19.000Z</time>
      </trkpt>
      <trkpt lat="46.44274" lon="5.90798">
        <ele>870.40002441406</ele>
        <time>2025-08-08T06:21:20.000Z</time>
      </trkpt>
      <trkpt lat="46.4426" lon="5.90776">
        <ele>870.79998779297</ele>
        <time>2025-08-08T06:21:25.000Z</time>
      </trkpt>
      <trkpt lat="46.44249" lon="5.90749">
        <ele>871.59997558594</ele>
        <time>2025-08-08T06:21:30.000Z</time>
      </trkpt>
      <trkpt lat="46.44246" lon="5.90737">
        <ele>872</ele>
        <time>2025-08-08T06:21:32.000Z</time>
      </trkpt>
      <trkpt lat="46.44245" lon="5.90731">
        <ele>872</ele>
        <time>2025-08-08T06:21:33.000Z</time>
      </trkpt>
      <trkpt lat="46.44243" lon="5.90713">
        <ele>872.79998779297</ele>
        <time>2025-08-08T06:21:36.000Z</time>
      </trkpt>
      <trkpt lat="46.44243" lon="5.90701">
        <ele>873</ele>
        <time>2025-08-08T06:21:38.000Z</time>
      </trkpt>
      <trkpt lat="46.44243" lon="5.90695">
        <ele>873.20001220703</ele>
        <time>2025-08-08T06:21:39.000Z</time>
      </trkpt>
      <trkpt lat="46.44241" lon="5.90671">
        <ele>873.79998779297</ele>
        <time>2025-08-08T06:21:43.000Z</time>
      </trkpt>
      <trkpt lat="46.4424" lon="5.90665">
        <ele>874</ele>
        <time>2025-08-08T06:21:44.000Z</time>
      </trkpt>
      <trkpt lat="46.44235" lon="5.90642">
        <ele>874.40002441406</ele>
        <time>2025-08-08T06:21:48.000Z</time>
      </trkpt>
      <trkpt lat="46.44229" lon="5.90628">
        <ele>874.79998779297</ele>
        <time>2025-08-08T06:21:51.000Z</time>
      </trkpt>
      <trkpt lat="46.44226" lon="5.90624">
        <ele>874.79998779297</ele>
        <time>2025-08-08T06:21:52.000Z</time>
      </trkpt>
      <trkpt lat="46.44223" lon="5.90619">
        <ele>874.79998779297</ele>
        <time>2025-08-08T06:21:53.000Z</time>
      </trkpt>
      <trkpt lat="46.44217" lon="5.90612">
        <ele>875.20001220703</ele>
        <time>2025-08-08T06:21:55.000Z</time>
      </trkpt>
      <trkpt lat="46.44213" lon="5.90609">
        <ele>875.40002441406</ele>
        <time>2025-08-08T06:21:56.000Z</time>
      </trkpt>
      <trkpt lat="46.44201" lon="5.90603">
        <ele>875.59997558594</ele>
        <time>2025-08-08T06:21:59.000Z</time>
      </trkpt>
      <trkpt lat="46.44193" lon="5.90601">
        <ele>875.79998779297</ele>
        <time>2025-08-08T06:22:01.000Z</time>
      </trkpt>
      <trkpt lat="46.44189" lon="5.906">
        <ele>875.79998779297</ele>
        <time>2025-08-08T06:22:02.000Z</time>
      </trkpt>
      <trkpt lat="46.44185" lon="5.90601">
        <ele>876</ele>
        <time>2025-08-08T06:22:03.000Z</time>
      </trkpt>
      <trkpt lat="46.44177" lon="5.90603">
        <ele>876.20001220703</ele>
        <time>2025-08-08T06:22:05.000Z</time>
      </trkpt>
      <trkpt lat="46.4417" lon="5.90609">
        <ele>876.40002441406</ele>
        <time>2025-08-08T06:22:07.000Z</time>
      </trkpt>
      <trkpt lat="46.44154" lon="5.9062">
        <ele>877</ele>
        <time>2025-08-08T06:22:11.000Z</time>
      </trkpt>
      <trkpt lat="46.44131" lon="5.90637">
        <ele>877.79998779297</ele>
        <time>2025-08-08T06:22:17.000Z</time>
      </trkpt>
      <trkpt lat="46.44124" lon="5.9064">
        <ele>878</ele>
        <time>2025-08-08T06:22:19.000Z</time>
      </trkpt>
      <trkpt lat="46.44107" lon="5.90643">
        <ele>878.40002441406</ele>
        <time>2025-08-08T06:22:23.000Z</time>
      </trkpt>
      <trkpt lat="46.44086" lon="5.9064">
        <ele>879</ele>
        <time>2025-08-08T06:22:28.000Z</time>
      </trkpt>
      <trkpt lat="46.44077" lon="5.90637">
        <ele>879.20001220703</ele>
        <time>2025-08-08T06:22:30.000Z</time>
      </trkpt>
      <trkpt lat="46.4405" lon="5.90622">
        <ele>880</ele>
        <time>2025-08-08T06:22:37.000Z</time>
      </trkpt>
      <trkpt lat="46.44042" lon="5.90617">
        <ele>880.40002441406</ele>
        <time>2025-08-08T06:22:39.000Z</time>
      </trkpt>
      <trkpt lat="46.44019" lon="5.90603">
        <ele>881.20001220703</ele>
        <time>2025-08-08T06:22:45.000Z</time>
      </trkpt>
      <trkpt lat="46.44008" lon="5.90597">
        <ele>881.59997558594</ele>
        <time>2025-08-08T06:22:48.000Z</time>
      </trkpt>
      <trkpt lat="46.43984" lon="5.9058">
        <ele>882.20001220703</ele>
        <time>2025-08-08T06:22:54.000Z</time>
      </trkpt>
      <trkpt lat="46.43974" lon="5.90569">
        <ele>882.40002441406</ele>
        <time>2025-08-08T06:22:57.000Z</time>
      </trkpt>
      <trkpt lat="46.43957" lon="5.9054">
        <ele>883.40002441406</ele>
        <time>2025-08-08T06:23:03.000Z</time>
      </trkpt>
      <trkpt lat="46.43955" lon="5.90536">
        <ele>883.59997558594</ele>
        <time>2025-08-08T06:23:04.000Z</time>
      </trkpt>
      <trkpt lat="46.4394" lon="5.90503">
        <ele>884.59997558594</ele>
        <time>2025-08-08T06:23:11.000Z</time>
      </trkpt>
      <trkpt lat="46.43935" lon="5.90492">
        <ele>884.79998779297</ele>
        <time>2025-08-08T06:23:13.000Z</time>
      </trkpt>
      <trkpt lat="46.43924" lon="5.90474">
        <ele>885.59997558594</ele>
        <time>2025-08-08T06:23:17.000Z</time>
      </trkpt>
      <trkpt lat="46.43907" lon="5.90447">
        <ele>886.20001220703</ele>
        <time>2025-08-08T06:23:23.000Z</time>
      </trkpt>
      <trkpt lat="46.43895" lon="5.9043">
        <ele>886.79998779297</ele>
        <time>2025-08-08T06:23:27.000Z</time>
      </trkpt>
      <trkpt lat="46.43874" lon="5.90397">
        <ele>887.40002441406</ele>
        <time>2025-08-08T06:23:34.000Z</time>
      </trkpt>
      <trkpt lat="46.4386" lon="5.90371">
        <ele>887.79998779297</ele>
        <time>2025-08-08T06:23:39.000Z</time>
      </trkpt>
      <trkpt lat="46.4385" lon="5.90349">
        <ele>888</ele>
        <time>2025-08-08T06:23:42.000Z</time>
      </trkpt>
      <trkpt lat="46.43837" lon="5.90304">
        <ele>889</ele>
        <time>2025-08-08T06:23:51.000Z</time>
      </trkpt>
      <trkpt lat="46.43834" lon="5.90293">
        <ele>889.40002441406</ele>
        <time>2025-08-08T06:23:53.000Z</time>
      </trkpt>
      <trkpt lat="46.43829" lon="5.9027">
        <ele>890</ele>
        <time>2025-08-08T06:23:57.000Z</time>
      </trkpt>
      <trkpt lat="46.43822" lon="5.90235">
        <ele>890.79998779297</ele>
        <time>2025-08-08T06:24:03.000Z</time>
      </trkpt>
      <trkpt lat="46.43819" lon="5.90223">
        <ele>891</ele>
        <time>2025-08-08T06:24:05.000Z</time>
      </trkpt>
      <trkpt lat="46.43806" lon="5.90191">
        <ele>891.79998779297</ele>
        <time>2025-08-08T06:24:11.000Z</time>
      </trkpt>
      <trkpt lat="46.43803" lon="5.90186">
        <ele>892</ele>
        <time>2025-08-08T06:24:12.000Z</time>
      </trkpt>
      <trkpt lat="46.43778" lon="5.90145">
        <ele>893.20001220703</ele>
        <time>2025-08-08T06:24:21.000Z</time>
      </trkpt>
      <trkpt lat="46.43775" lon="5.90141">
        <ele>893.20001220703</ele>
        <time>2025-08-08T06:24:22.000Z</time>
      </trkpt>
      <trkpt lat="46.43749" lon="5.90107">
        <ele>894</ele>
        <time>2025-08-08T06:24:30.000Z</time>
      </trkpt>
      <trkpt lat="46.43746" lon="5.90103">
        <ele>894.20001220703</ele>
        <time>2025-08-08T06:24:31.000Z</time>
      </trkpt>
      <trkpt lat="46.43739" lon="5.90095">
        <ele>894.40002441406</ele>
        <time>2025-08-08T06:24:33.000Z</time>
      </trkpt>
      <trkpt lat="46.43715" lon="5.90067">
        <ele>895.20001220703</ele>
        <time>2025-08-08T06:24:40.000Z</time>
      </trkpt>
      <trkpt lat="46.43705" lon="5.90054">
        <ele>895.79998779297</ele>
        <time>2025-08-08T06:24:43.000Z</time>
      </trkpt>
      <trkpt lat="46.43683" lon="5.90018">
        <ele>895.79998779297</ele>
        <time>2025-08-08T06:24:50.000Z</time>
      </trkpt>
      <trkpt lat="46.43649" lon="5.89961">
        <ele>895.59997558594</ele>
        <time>2025-08-08T06:24:59.000Z</time>
      </trkpt>
      <trkpt lat="46.43623" lon="5.8991">
        <ele>894.79998779297</ele>
        <time>2025-08-08T06:25:05.000Z</time>
      </trkpt>
      <trkpt lat="46.4362" lon="5.89901">
        <ele>894.79998779297</ele>
        <time>2025-08-08T06:25:06.000Z</time>
      </trkpt>
      <trkpt lat="46.43618" lon="5.89893">
        <ele>894.59997558594</ele>
        <time>2025-08-08T06:25:07.000Z</time>
      </trkpt>
      <trkpt lat="46.43616" lon="5.89884">
        <ele>894.59997558594</ele>
        <time>2025-08-08T06:25:09.000Z</time>
      </trkpt>
      <trkpt lat="46.43614" lon="5.89857">
        <ele>894.40002441406</ele>
        <time>2025-08-08T06:25:11.000Z</time>
      </trkpt>
      <trkpt lat="46.43615" lon="5.8983">
        <ele>894.20001220703</ele>
        <time>2025-08-08T06:25:14.000Z</time>
      </trkpt>
      <trkpt lat="46.43617" lon="5.89792">
        <ele>894.20001220703</ele>
        <time>2025-08-08T06:25:18.000Z</time>
      </trkpt>
      <trkpt lat="46.43615" lon="5.8977">
        <ele>894</ele>
        <time>2025-08-08T06:25:20.000Z</time>
      </trkpt>
      <trkpt lat="46.43612" lon="5.89762">
        <ele>894</ele>
        <time>2025-08-08T06:25:22.000Z</time>
      </trkpt>
      <trkpt lat="46.43605" lon="5.89744">
        <ele>893.79998779297</ele>
        <time>2025-08-08T06:25:23.000Z</time>
      </trkpt>
      <trkpt lat="46.43595" lon="5.89729">
        <ele>893.40002441406</ele>
        <time>2025-08-08T06:25:25.000Z</time>
      </trkpt>
      <trkpt lat="46.43584" lon="5.89715">
        <ele>893</ele>
        <time>2025-08-08T06:25:27.000Z</time>
      </trkpt>
      <trkpt lat="46.43565" lon="5.89697">
        <ele>892.59997558594</ele>
        <time>2025-08-08T06:25:30.000Z</time>
      </trkpt>
      <trkpt lat="46.43539" lon="5.8967">
        <ele>891.79998779297</ele>
        <time>2025-08-08T06:25:34.000Z</time>
      </trkpt>
      <trkpt lat="46.43521" lon="5.89644">
        <ele>891.20001220703</ele>
        <time>2025-08-08T06:25:37.000Z</time>
      </trkpt>
      <trkpt lat="46.43515" lon="5.89633">
        <ele>890.79998779297</ele>
        <time>2025-08-08T06:25:38.000Z</time>
      </trkpt>
      <trkpt lat="46.43506" lon="5.89615">
        <ele>890.20001220703</ele>
        <time>2025-08-08T06:25:40.000Z</time>
      </trkpt>
      <trkpt lat="46.43502" lon="5.89604">
        <ele>889.59997558594</ele>
        <time>2025-08-08T06:25:42.000Z</time>
      </trkpt>
      <trkpt lat="46.4349" lon="5.89571">
        <ele>888.79998779297</ele>
        <time>2025-08-08T06:25:44.000Z</time>
      </trkpt>
      <trkpt lat="46.43486" lon="5.89559">
        <ele>888.40002441406</ele>
        <time>2025-08-08T06:25:45.000Z</time>
      </trkpt>
      <trkpt lat="46.43471" lon="5.89512">
        <ele>887.20001220703</ele>
        <time>2025-08-08T06:25:49.000Z</time>
      </trkpt>
      <trkpt lat="46.43466" lon="5.89485">
        <ele>886.59997558594</ele>
        <time>2025-08-08T06:25:51.000Z</time>
      </trkpt>
      <trkpt lat="46.43463" lon="5.89459">
        <ele>886.20001220703</ele>
        <time>2025-08-08T06:25:53.000Z</time>
      </trkpt>
      <trkpt lat="46.43456" lon="5.89422">
        <ele>885</ele>
        <time>2025-08-08T06:25:56.000Z</time>
      </trkpt>
      <trkpt lat="46.43453" lon="5.89411">
        <ele>884.59997558594</ele>
        <time>2025-08-08T06:25:57.000Z</time>
      </trkpt>
      <trkpt lat="46.43448" lon="5.89401">
        <ele>884.59997558594</ele>
        <time>2025-08-08T06:25:58.000Z</time>
      </trkpt>
      <trkpt lat="46.43432" lon="5.89373">
        <ele>884.20001220703</ele>
        <time>2025-08-08T06:26:01.000Z</time>
      </trkpt>
      <trkpt lat="46.43421" lon="5.89355">
        <ele>883.79998779297</ele>
        <time>2025-08-08T06:26:04.000Z</time>
      </trkpt>
      <trkpt lat="46.43383" lon="5.89292">
        <ele>883</ele>
        <time>2025-08-08T06:26:10.000Z</time>
      </trkpt>
      <trkpt lat="46.43377" lon="5.89283">
        <ele>883</ele>
        <time>2025-08-08T06:26:11.000Z</time>
      </trkpt>
      <trkpt lat="46.43371" lon="5.89274">
        <ele>882.79998779297</ele>
        <time>2025-08-08T06:26:12.000Z</time>
      </trkpt>
      <trkpt lat="46.43344" lon="5.89228">
        <ele>881.79998779297</ele>
        <time>2025-08-08T06:26:18.000Z</time>
      </trkpt>
      <trkpt lat="46.43331" lon="5.89212">
        <ele>881.59997558594</ele>
        <time>2025-08-08T06:26:19.000Z</time>
      </trkpt>
      <trkpt lat="46.43317" lon="5.892">
        <ele>881.20001220703</ele>
        <time>2025-08-08T06:26:21.000Z</time>
      </trkpt>
      <trkpt lat="46.43301" lon="5.89192">
        <ele>880.79998779297</ele>
        <time>2025-08-08T06:26:23.000Z</time>
      </trkpt>
      <trkpt lat="46.43262" lon="5.89177">
        <ele>879.40002441406</ele>
        <time>2025-08-08T06:26:28.000Z</time>
      </trkpt>
      <trkpt lat="46.43246" lon="5.8917">
        <ele>879</ele>
        <time>2025-08-08T06:26:30.000Z</time>
      </trkpt>
      <trkpt lat="46.43238" lon="5.89164">
        <ele>878.79998779297</ele>
        <time>2025-08-08T06:26:31.000Z</time>
      </trkpt>
      <trkpt lat="46.43224" lon="5.89149">
        <ele>878.40002441406</ele>
        <time>2025-08-08T06:26:33.000Z</time>
      </trkpt>
      <trkpt lat="46.4321" lon="5.89133">
        <ele>877.40002441406</ele>
        <time>2025-08-08T06:26:36.000Z</time>
      </trkpt>
      <trkpt lat="46.43187" lon="5.89108">
        <ele>876.40002441406</ele>
        <time>2025-08-08T06:26:38.000Z</time>
      </trkpt>
      <trkpt lat="46.43179" lon="5.89099">
        <ele>875.79998779297</ele>
        <time>2025-08-08T06:26:39.000Z</time>
      </trkpt>
      <trkpt lat="46.43155" lon="5.89072">
        <ele>874.40002441406</ele>
        <time>2025-08-08T06:26:42.000Z</time>
      </trkpt>
      <trkpt lat="46.43139" lon="5.89055">
        <ele>873.40002441406</ele>
        <time>2025-08-08T06:26:44.000Z</time>
      </trkpt>
      <trkpt lat="46.4313" lon="5.89047">
        <ele>872.79998779297</ele>
        <time>2025-08-08T06:26:45.000Z</time>
      </trkpt>
      <trkpt lat="46.43122" lon="5.8904">
        <ele>872.20001220703</ele>
        <time>2025-08-08T06:26:46.000Z</time>
      </trkpt>
      <trkpt lat="46.43105" lon="5.89025">
        <ele>871</ele>
        <time>2025-08-08T06:26:48.000Z</time>
      </trkpt>
      <trkpt lat="46.43093" lon="5.8901">
        <ele>870.20001220703</ele>
        <time>2025-08-08T06:26:50.000Z</time>
      </trkpt>
      <trkpt lat="46.43081" lon="5.88995">
        <ele>869.79998779297</ele>
        <time>2025-08-08T06:26:52.000Z</time>
      </trkpt>
      <trkpt lat="46.43056" lon="5.88966">
        <ele>869.20001220703</ele>
        <time>2025-08-08T06:26:56.000Z</time>
      </trkpt>
      <trkpt lat="46.43038" lon="5.88944">
        <ele>869</ele>
        <time>2025-08-08T06:26:59.000Z</time>
      </trkpt>
      <trkpt lat="46.43033" lon="5.88935">
        <ele>868.59997558594</ele>
        <time>2025-08-08T06:27:00.000Z</time>
      </trkpt>
      <trkpt lat="46.43028" lon="5.88926">
        <ele>868.40002441406</ele>
        <time>2025-08-08T06:27:01.000Z</time>
      </trkpt>
      <trkpt lat="46.43024" lon="5.88916">
        <ele>868.20001220703</ele>
        <time>2025-08-08T06:27:02.000Z</time>
      </trkpt>
      <trkpt lat="46.43018" lon="5.88897">
        <ele>867.40002441406</ele>
        <time>2025-08-08T06:27:04.000Z</time>
      </trkpt>
      <trkpt lat="46.43011" lon="5.88879">
        <ele>867</ele>
        <time>2025-08-08T06:27:06.000Z</time>
      </trkpt>
      <trkpt lat="46.42997" lon="5.88852">
        <ele>866.59997558594</ele>
        <time>2025-08-08T06:27:09.000Z</time>
      </trkpt>
      <trkpt lat="46.42997" lon="5.88852">
        <ele>866.20001220703</ele>
        <time>2025-08-08T06:27:10.000Z</time>
      </trkpt>
      <trkpt lat="46.42987" lon="5.88833">
        <ele>865.79998779297</ele>
        <time>2025-08-08T06:27:11.000Z</time>
      </trkpt>
      <trkpt lat="46.42976" lon="5.88815">
        <ele>865.40002441406</ele>
        <time>2025-08-08T06:27:13.000Z</time>
      </trkpt>
      <trkpt lat="46.4297" lon="5.88807">
        <ele>865.20001220703</ele>
        <time>2025-08-08T06:27:14.000Z</time>
      </trkpt>
      <trkpt lat="46.42944" lon="5.88777">
        <ele>863.79998779297</ele>
        <time>2025-08-08T06:27:18.000Z</time>
      </trkpt>
      <trkpt lat="46.42937" lon="5.88769">
        <ele>863.59997558594</ele>
        <time>2025-08-08T06:27:19.000Z</time>
      </trkpt>
      <trkpt lat="46.42924" lon="5.88756">
        <ele>863.20001220703</ele>
        <time>2025-08-08T06:27:21.000Z</time>
      </trkpt>
      <trkpt lat="46.42911" lon="5.88742">
        <ele>862.40002441406</ele>
        <time>2025-08-08T06:27:23.000Z</time>
      </trkpt>
      <trkpt lat="46.42882" lon="5.88712">
        <ele>860.79998779297</ele>
        <time>2025-08-08T06:27:27.000Z</time>
      </trkpt>
      <trkpt lat="46.4286" lon="5.88689">
        <ele>859.79998779297</ele>
        <time>2025-08-08T06:27:30.000Z</time>
      </trkpt>
      <trkpt lat="46.42838" lon="5.88664">
        <ele>858.79998779297</ele>
        <time>2025-08-08T06:27:33.000Z</time>
      </trkpt>
      <trkpt lat="46.42823" lon="5.88646">
        <ele>857.40002441406</ele>
        <time>2025-08-08T06:27:35.000Z</time>
      </trkpt>
      <trkpt lat="46.428" lon="5.88619">
        <ele>856</ele>
        <time>2025-08-08T06:27:39.000Z</time>
      </trkpt>
      <trkpt lat="46.42785" lon="5.886">
        <ele>855.59997558594</ele>
        <time>2025-08-08T06:27:40.000Z</time>
      </trkpt>
      <trkpt lat="46.42777" lon="5.8859">
        <ele>854.40002441406</ele>
        <time>2025-08-08T06:27:42.000Z</time>
      </trkpt>
      <trkpt lat="46.42761" lon="5.88572">
        <ele>854</ele>
        <time>2025-08-08T06:27:43.000Z</time>
      </trkpt>
      <trkpt lat="46.42744" lon="5.88557">
        <ele>853.20001220703</ele>
        <time>2025-08-08T06:27:45.000Z</time>
      </trkpt>
      <trkpt lat="46.42726" lon="5.88542">
        <ele>852.20001220703</ele>
        <time>2025-08-08T06:27:47.000Z</time>
      </trkpt>
      <trkpt lat="46.42709" lon="5.88525">
        <ele>851</ele>
        <time>2025-08-08T06:27:49.000Z</time>
      </trkpt>
      <trkpt lat="46.42709" lon="5.88525">
        <ele>850.59997558594</ele>
        <time>2025-08-08T06:27:50.000Z</time>
      </trkpt>
      <trkpt lat="46.42693" lon="5.88505">
        <ele>849.79998779297</ele>
        <time>2025-08-08T06:27:51.000Z</time>
      </trkpt>
      <trkpt lat="46.42685" lon="5.88496">
        <ele>848.79998779297</ele>
        <time>2025-08-08T06:27:53.000Z</time>
      </trkpt>
      <trkpt lat="46.42661" lon="5.88466">
        <ele>847.59997558594</ele>
        <time>2025-08-08T06:27:55.000Z</time>
      </trkpt>
      <trkpt lat="46.42654" lon="5.88454">
        <ele>846.79998779297</ele>
        <time>2025-08-08T06:27:56.000Z</time>
      </trkpt>
      <trkpt lat="46.42648" lon="5.88442">
        <ele>846.40002441406</ele>
        <time>2025-08-08T06:27:57.000Z</time>
      </trkpt>
      <trkpt lat="46.42639" lon="5.88415">
        <ele>845.59997558594</ele>
        <time>2025-08-08T06:27:59.000Z</time>
      </trkpt>
      <trkpt lat="46.42636" lon="5.88401">
        <ele>844.20001220703</ele>
        <time>2025-08-08T06:28:00.000Z</time>
      </trkpt>
      <trkpt lat="46.42634" lon="5.88387">
        <ele>843.40002441406</ele>
        <time>2025-08-08T06:28:01.000Z</time>
      </trkpt>
      <trkpt lat="46.42633" lon="5.88373">
        <ele>843</ele>
        <time>2025-08-08T06:28:02.000Z</time>
      </trkpt>
      <trkpt lat="46.42633" lon="5.88373">
        <ele>842.40002441406</ele>
        <time>2025-08-08T06:28:03.000Z</time>
      </trkpt>
      <trkpt lat="46.42635" lon="5.88344">
        <ele>842</ele>
        <time>2025-08-08T06:28:04.000Z</time>
      </trkpt>
      <trkpt lat="46.42635" lon="5.88326">
        <ele>840.79998779297</ele>
        <time>2025-08-08T06:28:06.000Z</time>
      </trkpt>
      <trkpt lat="46.42634" lon="5.88299">
        <ele>840</ele>
        <time>2025-08-08T06:28:07.000Z</time>
      </trkpt>
      <trkpt lat="46.42632" lon="5.88284">
        <ele>839</ele>
        <time>2025-08-08T06:28:08.000Z</time>
      </trkpt>
      <trkpt lat="46.42628" lon="5.88269">
        <ele>838.59997558594</ele>
        <time>2025-08-08T06:28:09.000Z</time>
      </trkpt>
      <trkpt lat="46.42624" lon="5.88255">
        <ele>838</ele>
        <time>2025-08-08T06:28:10.000Z</time>
      </trkpt>
      <trkpt lat="46.42619" lon="5.88242">
        <ele>837.59997558594</ele>
        <time>2025-08-08T06:28:11.000Z</time>
      </trkpt>
      <trkpt lat="46.42619" lon="5.88242">
        <ele>836.79998779297</ele>
        <time>2025-08-08T06:28:12.000Z</time>
      </trkpt>
      <trkpt lat="46.42594" lon="5.88192">
        <ele>835.59997558594</ele>
        <time>2025-08-08T06:28:15.000Z</time>
      </trkpt>
      <trkpt lat="46.42587" lon="5.88181">
        <ele>835</ele>
        <time>2025-08-08T06:28:16.000Z</time>
      </trkpt>
      <trkpt lat="46.42579" lon="5.88172">
        <ele>834.59997558594</ele>
        <time>2025-08-08T06:28:17.000Z</time>
      </trkpt>
      <trkpt lat="46.4257" lon="5.88165">
        <ele>834</ele>
        <time>2025-08-08T06:28:18.000Z</time>
      </trkpt>
      <trkpt lat="46.4256" lon="5.8816">
        <ele>833</ele>
        <time>2025-08-08T06:28:19.000Z</time>
      </trkpt>
      <trkpt lat="46.4255" lon="5.88157">
        <ele>832</ele>
        <time>2025-08-08T06:28:20.000Z</time>
      </trkpt>
      <trkpt lat="46.42539" lon="5.88156">
        <ele>831.59997558594</ele>
        <time>2025-08-08T06:28:21.000Z</time>
      </trkpt>
      <trkpt lat="46.42509" lon="5.88151">
        <ele>830.20001220703</ele>
        <time>2025-08-08T06:28:24.000Z</time>
      </trkpt>
      <trkpt lat="46.425" lon="5.88145">
        <ele>830</ele>
        <time>2025-08-08T06:28:25.000Z</time>
      </trkpt>
      <trkpt lat="46.42491" lon="5.88137">
        <ele>829.20001220703</ele>
        <time>2025-08-08T06:28:26.000Z</time>
      </trkpt>
      <trkpt lat="46.42484" lon="5.88127">
        <ele>828.59997558594</ele>
        <time>2025-08-08T06:28:27.000Z</time>
      </trkpt>
      <trkpt lat="46.42477" lon="5.88116">
        <ele>828.40002441406</ele>
        <time>2025-08-08T06:28:28.000Z</time>
      </trkpt>
      <trkpt lat="46.42468" lon="5.88104">
        <ele>827.40002441406</ele>
        <time>2025-08-08T06:28:29.000Z</time>
      </trkpt>
      <trkpt lat="46.42455" lon="5.88085">
        <ele>826.20001220703</ele>
        <time>2025-08-08T06:28:31.000Z</time>
      </trkpt>
      <trkpt lat="46.42431" lon="5.88056">
        <ele>825.20001220703</ele>
        <time>2025-08-08T06:28:34.000Z</time>
      </trkpt>
      <trkpt lat="46.42416" lon="5.88035">
        <ele>823.79998779297</ele>
        <time>2025-08-08T06:28:36.000Z</time>
      </trkpt>
      <trkpt lat="46.42405" lon="5.88005">
        <ele>823</ele>
        <time>2025-08-08T06:28:38.000Z</time>
      </trkpt>
      <trkpt lat="46.42402" lon="5.87991">
        <ele>822.20001220703</ele>
        <time>2025-08-08T06:28:39.000Z</time>
      </trkpt>
      <trkpt lat="46.42399" lon="5.87964">
        <ele>821.20001220703</ele>
        <time>2025-08-08T06:28:41.000Z</time>
      </trkpt>
      <trkpt lat="46.424" lon="5.87946">
        <ele>820.79998779297</ele>
        <time>2025-08-08T06:28:42.000Z</time>
      </trkpt>
      <trkpt lat="46.42402" lon="5.87936">
        <ele>819.79998779297</ele>
        <time>2025-08-08T06:28:43.000Z</time>
      </trkpt>
      <trkpt lat="46.42406" lon="5.8791">
        <ele>819.20001220703</ele>
        <time>2025-08-08T06:28:45.000Z</time>
      </trkpt>
      <trkpt lat="46.42406" lon="5.8791">
        <ele>818</ele>
        <time>2025-08-08T06:28:46.000Z</time>
      </trkpt>
      <trkpt lat="46.42404" lon="5.87883">
        <ele>817.40002441406</ele>
        <time>2025-08-08T06:28:47.000Z</time>
      </trkpt>
      <trkpt lat="46.42399" lon="5.87871">
        <ele>816.59997558594</ele>
        <time>2025-08-08T06:28:48.000Z</time>
      </trkpt>
      <trkpt lat="46.42392" lon="5.87861">
        <ele>816.40002441406</ele>
        <time>2025-08-08T06:28:49.000Z</time>
      </trkpt>
      <trkpt lat="46.42385" lon="5.87852">
        <ele>815.59997558594</ele>
        <time>2025-08-08T06:28:50.000Z</time>
      </trkpt>
      <trkpt lat="46.42375" lon="5.87842">
        <ele>815</ele>
        <time>2025-08-08T06:28:51.000Z</time>
      </trkpt>
      <trkpt lat="46.42369" lon="5.87834">
        <ele>814.59997558594</ele>
        <time>2025-08-08T06:28:52.000Z</time>
      </trkpt>
      <trkpt lat="46.42358" lon="5.87811">
        <ele>813.59997558594</ele>
        <time>2025-08-08T06:28:54.000Z</time>
      </trkpt>
      <trkpt lat="46.42353" lon="5.87797">
        <ele>813.20001220703</ele>
        <time>2025-08-08T06:28:55.000Z</time>
      </trkpt>
      <trkpt lat="46.42349" lon="5.87783">
        <ele>812.79998779297</ele>
        <time>2025-08-08T06:28:56.000Z</time>
      </trkpt>
      <trkpt lat="46.42343" lon="5.87753">
        <ele>811.59997558594</ele>
        <time>2025-08-08T06:28:58.000Z</time>
      </trkpt>
      <trkpt lat="46.42334" lon="5.87711">
        <ele>810.40002441406</ele>
        <time>2025-08-08T06:29:01.000Z</time>
      </trkpt>
      <trkpt lat="46.4233" lon="5.87697">
        <ele>809.79998779297</ele>
        <time>2025-08-08T06:29:02.000Z</time>
      </trkpt>
      <trkpt lat="46.42327" lon="5.87684">
        <ele>809</ele>
        <time>2025-08-08T06:29:03.000Z</time>
      </trkpt>
      <trkpt lat="46.42317" lon="5.8766">
        <ele>808.20001220703</ele>
        <time>2025-08-08T06:29:05.000Z</time>
      </trkpt>
      <trkpt lat="46.4231" lon="5.87649">
        <ele>807.79998779297</ele>
        <time>2025-08-08T06:29:06.000Z</time>
      </trkpt>
      <trkpt lat="46.42303" lon="5.87638">
        <ele>806.59997558594</ele>
        <time>2025-08-08T06:29:07.000Z</time>
      </trkpt>
      <trkpt lat="46.42288" lon="5.87617">
        <ele>805.59997558594</ele>
        <time>2025-08-08T06:29:09.000Z</time>
      </trkpt>
      <trkpt lat="46.4228" lon="5.87606">
        <ele>804.59997558594</ele>
        <time>2025-08-08T06:29:11.000Z</time>
      </trkpt>
      <trkpt lat="46.42272" lon="5.87596">
        <ele>804</ele>
        <time>2025-08-08T06:29:12.000Z</time>
      </trkpt>
      <trkpt lat="46.42258" lon="5.87573">
        <ele>803.59997558594</ele>
        <time>2025-08-08T06:29:13.000Z</time>
      </trkpt>
      <trkpt lat="46.42251" lon="5.87561">
        <ele>802.59997558594</ele>
        <time>2025-08-08T06:29:14.000Z</time>
      </trkpt>
      <trkpt lat="46.42244" lon="5.87548">
        <ele>802.40002441406</ele>
        <time>2025-08-08T06:29:15.000Z</time>
      </trkpt>
      <trkpt lat="46.42238" lon="5.87537">
        <ele>801.59997558594</ele>
        <time>2025-08-08T06:29:16.000Z</time>
      </trkpt>
      <trkpt lat="46.42217" lon="5.87502">
        <ele>800.20001220703</ele>
        <time>2025-08-08T06:29:19.000Z</time>
      </trkpt>
      <trkpt lat="46.42213" lon="5.8749">
        <ele>799.79998779297</ele>
        <time>2025-08-08T06:29:20.000Z</time>
      </trkpt>
      <trkpt lat="46.42213" lon="5.8749">
        <ele>798.59997558594</ele>
        <time>2025-08-08T06:29:21.000Z</time>
      </trkpt>
      <trkpt lat="46.42208" lon="5.87465">
        <ele>798</ele>
        <time>2025-08-08T06:29:22.000Z</time>
      </trkpt>
      <trkpt lat="46.42207" lon="5.87452">
        <ele>797.59997558594</ele>
        <time>2025-08-08T06:29:23.000Z</time>
      </trkpt>
      <trkpt lat="46.42205" lon="5.87441">
        <ele>796.79998779297</ele>
        <time>2025-08-08T06:29:24.000Z</time>
      </trkpt>
      <trkpt lat="46.42195" lon="5.87426">
        <ele>796</ele>
        <time>2025-08-08T06:29:26.000Z</time>
      </trkpt>
      <trkpt lat="46.42182" lon="5.87425">
        <ele>794.79998779297</ele>
        <time>2025-08-08T06:29:28.000Z</time>
      </trkpt>
      <trkpt lat="46.42171" lon="5.87436">
        <ele>793.79998779297</ele>
        <time>2025-08-08T06:29:30.000Z</time>
      </trkpt>
      <trkpt lat="46.42169" lon="5.87445">
        <ele>793.20001220703</ele>
        <time>2025-08-08T06:29:31.000Z</time>
      </trkpt>
      <trkpt lat="46.42169" lon="5.87456">
        <ele>793</ele>
        <time>2025-08-08T06:29:32.000Z</time>
      </trkpt>
      <trkpt lat="46.42178" lon="5.87475">
        <ele>792.20001220703</ele>
        <time>2025-08-08T06:29:34.000Z</time>
      </trkpt>
      <trkpt lat="46.42178" lon="5.87475">
        <ele>791.79998779297</ele>
        <time>2025-08-08T06:29:35.000Z</time>
      </trkpt>
      <trkpt lat="46.42201" lon="5.87512">
        <ele>790.40002441406</ele>
        <time>2025-08-08T06:29:38.000Z</time>
      </trkpt>
      <trkpt lat="46.42207" lon="5.87525">
        <ele>790.20001220703</ele>
        <time>2025-08-08T06:29:39.000Z</time>
      </trkpt>
      <trkpt lat="46.42216" lon="5.87547">
        <ele>789.40002441406</ele>
        <time>2025-08-08T06:29:41.000Z</time>
      </trkpt>
      <trkpt lat="46.42228" lon="5.87585">
        <ele>788.20001220703</ele>
        <time>2025-08-08T06:29:44.000Z</time>
      </trkpt>
      <trkpt lat="46.42236" lon="5.87611">
        <ele>787</ele>
        <time>2025-08-08T06:29:47.000Z</time>
      </trkpt>
      <trkpt lat="46.42245" lon="5.87637">
        <ele>786.59997558594</ele>
        <time>2025-08-08T06:29:48.000Z</time>
      </trkpt>
      <trkpt lat="46.42256" lon="5.87661">
        <ele>785.79998779297</ele>
        <time>2025-08-08T06:29:50.000Z</time>
      </trkpt>
      <trkpt lat="46.42262" lon="5.87673">
        <ele>784.79998779297</ele>
        <time>2025-08-08T06:29:52.000Z</time>
      </trkpt>
      <trkpt lat="46.42279" lon="5.87709">
        <ele>783.59997558594</ele>
        <time>2025-08-08T06:29:54.000Z</time>
      </trkpt>
      <trkpt lat="46.42284" lon="5.87722">
        <ele>783</ele>
        <time>2025-08-08T06:29:55.000Z</time>
      </trkpt>
      <trkpt lat="46.42286" lon="5.87737">
        <ele>782.59997558594</ele>
        <time>2025-08-08T06:29:56.000Z</time>
      </trkpt>
      <trkpt lat="46.42287" lon="5.87752">
        <ele>782</ele>
        <time>2025-08-08T06:29:57.000Z</time>
      </trkpt>
      <trkpt lat="46.42283" lon="5.87782">
        <ele>780.79998779297</ele>
        <time>2025-08-08T06:29:59.000Z</time>
      </trkpt>
      <trkpt lat="46.42277" lon="5.87811">
        <ele>780.40002441406</ele>
        <time>2025-08-08T06:30:01.000Z</time>
      </trkpt>
      <trkpt lat="46.42276" lon="5.87826">
        <ele>779.40002441406</ele>
        <time>2025-08-08T06:30:02.000Z</time>
      </trkpt>
      <trkpt lat="46.42277" lon="5.87843">
        <ele>779</ele>
        <time>2025-08-08T06:30:03.000Z</time>
      </trkpt>
      <trkpt lat="46.42281" lon="5.87872">
        <ele>778.20001220703</ele>
        <time>2025-08-08T06:30:05.000Z</time>
      </trkpt>
      <trkpt lat="46.42288" lon="5.879">
        <ele>777</ele>
        <time>2025-08-08T06:30:07.000Z</time>
      </trkpt>
      <trkpt lat="46.42294" lon="5.87927">
        <ele>776</ele>
        <time>2025-08-08T06:30:09.000Z</time>
      </trkpt>
      <trkpt lat="46.42294" lon="5.87941">
        <ele>775.59997558594</ele>
        <time>2025-08-08T06:30:10.000Z</time>
      </trkpt>
      <trkpt lat="46.42292" lon="5.87955">
        <ele>775</ele>
        <time>2025-08-08T06:30:11.000Z</time>
      </trkpt>
      <trkpt lat="46.42289" lon="5.87965">
        <ele>774</ele>
        <time>2025-08-08T06:30:13.000Z</time>
      </trkpt>
      <trkpt lat="46.42275" lon="5.87985">
        <ele>773</ele>
        <time>2025-08-08T06:30:14.000Z</time>
      </trkpt>
      <trkpt lat="46.42268" lon="5.87994">
        <ele>772.59997558594</ele>
        <time>2025-08-08T06:30:15.000Z</time>
      </trkpt>
      <trkpt lat="46.42262" lon="5.88004">
        <ele>772</ele>
        <time>2025-08-08T06:30:16.000Z</time>
      </trkpt>
      <trkpt lat="46.42257" lon="5.88017">
        <ele>771.79998779297</ele>
        <time>2025-08-08T06:30:17.000Z</time>
      </trkpt>
      <trkpt lat="46.42254" lon="5.8803">
        <ele>771.40002441406</ele>
        <time>2025-08-08T06:30:18.000Z</time>
      </trkpt>
      <trkpt lat="46.42249" lon="5.88059">
        <ele>770.79998779297</ele>
        <time>2025-08-08T06:30:20.000Z</time>
      </trkpt>
      <trkpt lat="46.42246" lon="5.88072">
        <ele>770</ele>
        <time>2025-08-08T06:30:21.000Z</time>
      </trkpt>
      <trkpt lat="46.42241" lon="5.88084">
        <ele>769.59997558594</ele>
        <time>2025-08-08T06:30:22.000Z</time>
      </trkpt>
      <trkpt lat="46.42236" lon="5.88094">
        <ele>769.20001220703</ele>
        <time>2025-08-08T06:30:23.000Z</time>
      </trkpt>
      <trkpt lat="46.42232" lon="5.88117">
        <ele>767.79998779297</ele>
        <time>2025-08-08T06:30:25.000Z</time>
      </trkpt>
      <trkpt lat="46.42234" lon="5.88129">
        <ele>767</ele>
        <time>2025-08-08T06:30:26.000Z</time>
      </trkpt>
      <trkpt lat="46.42238" lon="5.8814">
        <ele>766.79998779297</ele>
        <time>2025-08-08T06:30:27.000Z</time>
      </trkpt>
      <trkpt lat="46.4225" lon="5.88159">
        <ele>765.79998779297</ele>
        <time>2025-08-08T06:30:29.000Z</time>
      </trkpt>
      <trkpt lat="46.42256" lon="5.88168">
        <ele>765.40002441406</ele>
        <time>2025-08-08T06:30:30.000Z</time>
      </trkpt>
      <trkpt lat="46.42273" lon="5.882">
        <ele>764</ele>
        <time>2025-08-08T06:30:33.000Z</time>
      </trkpt>
      <trkpt lat="46.42291" lon="5.88231">
        <ele>762.59997558594</ele>
        <time>2025-08-08T06:30:36.000Z</time>
      </trkpt>
      <trkpt lat="46.42298" lon="5.88241">
        <ele>761.79998779297</ele>
        <time>2025-08-08T06:30:37.000Z</time>
      </trkpt>
      <trkpt lat="46.42304" lon="5.88251">
        <ele>761.20001220703</ele>
        <time>2025-08-08T06:30:38.000Z</time>
      </trkpt>
      <trkpt lat="46.42322" lon="5.88283">
        <ele>760</ele>
        <time>2025-08-08T06:30:41.000Z</time>
      </trkpt>
      <trkpt lat="46.42339" lon="5.88319">
        <ele>758.59997558594</ele>
        <time>2025-08-08T06:30:44.000Z</time>
      </trkpt>
      <trkpt lat="46.42357" lon="5.88351">
        <ele>757</ele>
        <time>2025-08-08T06:30:47.000Z</time>
      </trkpt>
      <trkpt lat="46.42364" lon="5.88359">
        <ele>756.59997558594</ele>
        <time>2025-08-08T06:30:48.000Z</time>
      </trkpt>
      <trkpt lat="46.42372" lon="5.88366">
        <ele>755.79998779297</ele>
        <time>2025-08-08T06:30:50.000Z</time>
      </trkpt>
      <trkpt lat="46.42381" lon="5.88383">
        <ele>754.59997558594</ele>
        <time>2025-08-08T06:30:51.000Z</time>
      </trkpt>
      <trkpt lat="46.42382" lon="5.88393">
        <ele>754</ele>
        <time>2025-08-08T06:30:52.000Z</time>
      </trkpt>
      <trkpt lat="46.42379" lon="5.88402">
        <ele>753.59997558594</ele>
        <time>2025-08-08T06:30:53.000Z</time>
      </trkpt>
      <trkpt lat="46.42375" lon="5.88409">
        <ele>753</ele>
        <time>2025-08-08T06:30:54.000Z</time>
      </trkpt>
      <trkpt lat="46.42362" lon="5.8841">
        <ele>752.40002441406</ele>
        <time>2025-08-08T06:30:56.000Z</time>
      </trkpt>
      <trkpt lat="46.42358" lon="5.88401">
        <ele>751.79998779297</ele>
        <time>2025-08-08T06:30:57.000Z</time>
      </trkpt>
      <trkpt lat="46.42353" lon="5.88376">
        <ele>751.20001220703</ele>
        <time>2025-08-08T06:30:59.000Z</time>
      </trkpt>
      <trkpt lat="46.4235" lon="5.88364">
        <ele>751</ele>
        <time>2025-08-08T06:31:00.000Z</time>
      </trkpt>
      <trkpt lat="46.42346" lon="5.88353">
        <ele>750.20001220703</ele>
        <time>2025-08-08T06:31:01.000Z</time>
      </trkpt>
      <trkpt lat="46.42336" lon="5.8833">
        <ele>749</ele>
        <time>2025-08-08T06:31:03.000Z</time>
      </trkpt>
      <trkpt lat="46.4233" lon="5.8832">
        <ele>748.59997558594</ele>
        <time>2025-08-08T06:31:04.000Z</time>
      </trkpt>
      <trkpt lat="46.42303" lon="5.88278">
        <ele>747.59997558594</ele>
        <time>2025-08-08T06:31:08.000Z</time>
      </trkpt>
      <trkpt lat="46.42296" lon="5.88268">
        <ele>747.40002441406</ele>
        <time>2025-08-08T06:31:09.000Z</time>
      </trkpt>
      <trkpt lat="46.42287" lon="5.88259">
        <ele>746.40002441406</ele>
        <time>2025-08-08T06:31:11.000Z</time>
      </trkpt>
      <trkpt lat="46.42255" lon="5.8822">
        <ele>745.20001220703</ele>
        <time>2025-08-08T06:31:14.000Z</time>
      </trkpt>
      <trkpt lat="46.42231" lon="5.88189">
        <ele>744.20001220703</ele>
        <time>2025-08-08T06:31:17.000Z</time>
      </trkpt>
      <trkpt lat="46.42223" lon="5.8818">
        <ele>743.79998779297</ele>
        <time>2025-08-08T06:31:18.000Z</time>
      </trkpt>
      <trkpt lat="46.42198" lon="5.88155">
        <ele>742.40002441406</ele>
        <time>2025-08-08T06:31:21.000Z</time>
      </trkpt>
      <trkpt lat="46.42189" lon="5.88147">
        <ele>741.20001220703</ele>
        <time>2025-08-08T06:31:23.000Z</time>
      </trkpt>
      <trkpt lat="46.42175" lon="5.88127">
        <ele>740.59997558594</ele>
        <time>2025-08-08T06:31:24.000Z</time>
      </trkpt>
      <trkpt lat="46.4217" lon="5.88114">
        <ele>739.79998779297</ele>
        <time>2025-08-08T06:31:25.000Z</time>
      </trkpt>
      <trkpt lat="46.42165" lon="5.88101">
        <ele>739.59997558594</ele>
        <time>2025-08-08T06:31:26.000Z</time>
      </trkpt>
      <trkpt lat="46.42165" lon="5.88101">
        <ele>738.79998779297</ele>
        <time>2025-08-08T06:31:27.000Z</time>
      </trkpt>
      <trkpt lat="46.42159" lon="5.88075">
        <ele>738.20001220703</ele>
        <time>2025-08-08T06:31:28.000Z</time>
      </trkpt>
      <trkpt lat="46.42158" lon="5.8805">
        <ele>737</ele>
        <time>2025-08-08T06:31:30.000Z</time>
      </trkpt>
      <trkpt lat="46.42162" lon="5.88038">
        <ele>736.59997558594</ele>
        <time>2025-08-08T06:31:31.000Z</time>
      </trkpt>
      <trkpt lat="46.42162" lon="5.88038">
        <ele>736</ele>
        <time>2025-08-08T06:31:32.000Z</time>
      </trkpt>
      <trkpt lat="46.42176" lon="5.88003">
        <ele>734.79998779297</ele>
        <time>2025-08-08T06:31:34.000Z</time>
      </trkpt>
      <trkpt lat="46.42191" lon="5.87968">
        <ele>733.40002441406</ele>
        <time>2025-08-08T06:31:37.000Z</time>
      </trkpt>
      <trkpt lat="46.42195" lon="5.87956">
        <ele>733.20001220703</ele>
        <time>2025-08-08T06:31:38.000Z</time>
      </trkpt>
      <trkpt lat="46.42197" lon="5.8793">
        <ele>732.20001220703</ele>
        <time>2025-08-08T06:31:40.000Z</time>
      </trkpt>
      <trkpt lat="46.42196" lon="5.87904">
        <ele>731.20001220703</ele>
        <time>2025-08-08T06:31:42.000Z</time>
      </trkpt>
      <trkpt lat="46.42198" lon="5.87878">
        <ele>730</ele>
        <time>2025-08-08T06:31:44.000Z</time>
      </trkpt>
      <trkpt lat="46.42201" lon="5.87855">
        <ele>728.79998779297</ele>
        <time>2025-08-08T06:31:46.000Z</time>
      </trkpt>
      <trkpt lat="46.42199" lon="5.87846">
        <ele>728.20001220703</ele>
        <time>2025-08-08T06:31:47.000Z</time>
      </trkpt>
      <trkpt lat="46.42194" lon="5.87838">
        <ele>728</ele>
        <time>2025-08-08T06:31:48.000Z</time>
      </trkpt>
      <trkpt lat="46.42187" lon="5.87834">
        <ele>727</ele>
        <time>2025-08-08T06:31:49.000Z</time>
      </trkpt>
      <trkpt lat="46.42174" lon="5.87841">
        <ele>725.79998779297</ele>
        <time>2025-08-08T06:31:51.000Z</time>
      </trkpt>
      <trkpt lat="46.42168" lon="5.87862">
        <ele>725</ele>
        <time>2025-08-08T06:31:53.000Z</time>
      </trkpt>
      <trkpt lat="46.42168" lon="5.87874">
        <ele>724.20001220703</ele>
        <time>2025-08-08T06:31:54.000Z</time>
      </trkpt>
      <trkpt lat="46.4217" lon="5.87886">
        <ele>723.79998779297</ele>
        <time>2025-08-08T06:31:55.000Z</time>
      </trkpt>
      <trkpt lat="46.42171" lon="5.87899">
        <ele>723.20001220703</ele>
        <time>2025-08-08T06:31:56.000Z</time>
      </trkpt>
      <trkpt lat="46.42172" lon="5.87911">
        <ele>723</ele>
        <time>2025-08-08T06:31:57.000Z</time>
      </trkpt>
      <trkpt lat="46.42172" lon="5.8795">
        <ele>722</ele>
        <time>2025-08-08T06:32:00.000Z</time>
      </trkpt>
      <trkpt lat="46.4217" lon="5.87963">
        <ele>721.59997558594</ele>
        <time>2025-08-08T06:32:01.000Z</time>
      </trkpt>
      <trkpt lat="46.42167" lon="5.87975">
        <ele>721.40002441406</ele>
        <time>2025-08-08T06:32:02.000Z</time>
      </trkpt>
      <trkpt lat="46.42164" lon="5.87987">
        <ele>720.79998779297</ele>
        <time>2025-08-08T06:32:03.000Z</time>
      </trkpt>
      <trkpt lat="46.42156" lon="5.88011">
        <ele>720</ele>
        <time>2025-08-08T06:32:05.000Z</time>
      </trkpt>
      <trkpt lat="46.42152" lon="5.88022">
        <ele>719.59997558594</ele>
        <time>2025-08-08T06:32:06.000Z</time>
      </trkpt>
      <trkpt lat="46.4214" lon="5.88056">
        <ele>719</ele>
        <time>2025-08-08T06:32:09.000Z</time>
      </trkpt>
      <trkpt lat="46.42137" lon="5.88069">
        <ele>718.79998779297</ele>
        <time>2025-08-08T06:32:10.000Z</time>
      </trkpt>
      <trkpt lat="46.42135" lon="5.88078">
        <ele>718.20001220703</ele>
        <time>2025-08-08T06:32:11.000Z</time>
      </trkpt>
      <trkpt lat="46.42127" lon="5.88096">
        <ele>716.79998779297</ele>
        <time>2025-08-08T06:32:13.000Z</time>
      </trkpt>
      <trkpt lat="46.42114" lon="5.88102">
        <ele>715.79998779297</ele>
        <time>2025-08-08T06:32:15.000Z</time>
      </trkpt>
      <trkpt lat="46.42101" lon="5.88093">
        <ele>714.59997558594</ele>
        <time>2025-08-08T06:32:17.000Z</time>
      </trkpt>
      <trkpt lat="46.42096" lon="5.88086">
        <ele>713.79998779297</ele>
        <time>2025-08-08T06:32:18.000Z</time>
      </trkpt>
      <trkpt lat="46.42088" lon="5.88065">
        <ele>713</ele>
        <time>2025-08-08T06:32:20.000Z</time>
      </trkpt>
      <trkpt lat="46.42083" lon="5.88041">
        <ele>712.40002441406</ele>
        <time>2025-08-08T06:32:22.000Z</time>
      </trkpt>
      <trkpt lat="46.4208" lon="5.88014">
        <ele>711.79998779297</ele>
        <time>2025-08-08T06:32:24.000Z</time>
      </trkpt>
      <trkpt lat="46.42076" lon="5.87978">
        <ele>710.79998779297</ele>
        <time>2025-08-08T06:32:27.000Z</time>
      </trkpt>
      <trkpt lat="46.42064" lon="5.87909">
        <ele>709</ele>
        <time>2025-08-08T06:32:32.000Z</time>
      </trkpt>
      <trkpt lat="46.42058" lon="5.87868">
        <ele>708</ele>
        <time>2025-08-08T06:32:35.000Z</time>
      </trkpt>
      <trkpt lat="46.42052" lon="5.87853">
        <ele>707.59997558594</ele>
        <time>2025-08-08T06:32:36.000Z</time>
      </trkpt>
      <trkpt lat="46.42048" lon="5.87843">
        <ele>707</ele>
        <time>2025-08-08T06:32:37.000Z</time>
      </trkpt>
      <trkpt lat="46.42041" lon="5.87832">
        <ele>706.40002441406</ele>
        <time>2025-08-08T06:32:39.000Z</time>
      </trkpt>
      <trkpt lat="46.42026" lon="5.8781">
        <ele>706.20001220703</ele>
        <time>2025-08-08T06:32:40.000Z</time>
      </trkpt>
      <trkpt lat="46.42017" lon="5.87797">
        <ele>705.40002441406</ele>
        <time>2025-08-08T06:32:41.000Z</time>
      </trkpt>
      <trkpt lat="46.42012" lon="5.8779">
        <ele>705</ele>
        <time>2025-08-08T06:32:42.000Z</time>
      </trkpt>
      <trkpt lat="46.41997" lon="5.87771">
        <ele>703.79998779297</ele>
        <time>2025-08-08T06:32:44.000Z</time>
      </trkpt>
      <trkpt lat="46.4198" lon="5.87759">
        <ele>702.79998779297</ele>
        <time>2025-08-08T06:32:46.000Z</time>
      </trkpt>
      <trkpt lat="46.41963" lon="5.87758">
        <ele>701.59997558594</ele>
        <time>2025-08-08T06:32:48.000Z</time>
      </trkpt>
      <trkpt lat="46.41944" lon="5.87762">
        <ele>700.40002441406</ele>
        <time>2025-08-08T06:32:50.000Z</time>
      </trkpt>
      <trkpt lat="46.41925" lon="5.87768">
        <ele>699.40002441406</ele>
        <time>2025-08-08T06:32:52.000Z</time>
      </trkpt>
      <trkpt lat="46.41907" lon="5.87776">
        <ele>698</ele>
        <time>2025-08-08T06:32:54.000Z</time>
      </trkpt>
      <trkpt lat="46.4189" lon="5.87785">
        <ele>697</ele>
        <time>2025-08-08T06:32:56.000Z</time>
      </trkpt>
      <trkpt lat="46.41882" lon="5.87786">
        <ele>696.59997558594</ele>
        <time>2025-08-08T06:32:57.000Z</time>
      </trkpt>
      <trkpt lat="46.41875" lon="5.87786">
        <ele>695.79998779297</ele>
        <time>2025-08-08T06:32:58.000Z</time>
      </trkpt>
      <trkpt lat="46.41866" lon="5.87787">
        <ele>695.59997558594</ele>
        <time>2025-08-08T06:32:59.000Z</time>
      </trkpt>
      <trkpt lat="46.41848" lon="5.87795">
        <ele>694.40002441406</ele>
        <time>2025-08-08T06:33:01.000Z</time>
      </trkpt>
      <trkpt lat="46.41828" lon="5.87806">
        <ele>693.59997558594</ele>
        <time>2025-08-08T06:33:03.000Z</time>
      </trkpt>
      <trkpt lat="46.41818" lon="5.8781">
        <ele>693.40002441406</ele>
        <time>2025-08-08T06:33:04.000Z</time>
      </trkpt>
      <trkpt lat="46.41808" lon="5.87812">
        <ele>692.20001220703</ele>
        <time>2025-08-08T06:33:05.000Z</time>
      </trkpt>
      <trkpt lat="46.41798" lon="5.87813">
        <ele>691.40002441406</ele>
        <time>2025-08-08T06:33:06.000Z</time>
      </trkpt>
      <trkpt lat="46.41787" lon="5.87812">
        <ele>691.20001220703</ele>
        <time>2025-08-08T06:33:07.000Z</time>
      </trkpt>
      <trkpt lat="46.41775" lon="5.8781">
        <ele>690.59997558594</ele>
        <time>2025-08-08T06:33:08.000Z</time>
      </trkpt>
      <trkpt lat="46.41765" lon="5.87809">
        <ele>690</ele>
        <time>2025-08-08T06:33:09.000Z</time>
      </trkpt>
      <trkpt lat="46.41745" lon="5.8781">
        <ele>688.79998779297</ele>
        <time>2025-08-08T06:33:11.000Z</time>
      </trkpt>
      <trkpt lat="46.41716" lon="5.87812">
        <ele>687.59997558594</ele>
        <time>2025-08-08T06:33:14.000Z</time>
      </trkpt>
      <trkpt lat="46.41705" lon="5.87809">
        <ele>687</ele>
        <time>2025-08-08T06:33:15.000Z</time>
      </trkpt>
      <trkpt lat="46.41694" lon="5.87803">
        <ele>686.59997558594</ele>
        <time>2025-08-08T06:33:16.000Z</time>
      </trkpt>
      <trkpt lat="46.41668" lon="5.87789">
        <ele>685.20001220703</ele>
        <time>2025-08-08T06:33:18.000Z</time>
      </trkpt>
      <trkpt lat="46.41641" lon="5.87767">
        <ele>684</ele>
        <time>2025-08-08T06:33:21.000Z</time>
      </trkpt>
      <trkpt lat="46.41629" lon="5.87761">
        <ele>683.40002441406</ele>
        <time>2025-08-08T06:33:22.000Z</time>
      </trkpt>
      <trkpt lat="46.41618" lon="5.8776">
        <ele>683</ele>
        <time>2025-08-08T06:33:23.000Z</time>
      </trkpt>
      <trkpt lat="46.41599" lon="5.87761">
        <ele>681.79998779297</ele>
        <time>2025-08-08T06:33:25.000Z</time>
      </trkpt>
      <trkpt lat="46.4158" lon="5.87763">
        <ele>681</ele>
        <time>2025-08-08T06:33:27.000Z</time>
      </trkpt>
      <trkpt lat="46.4157" lon="5.87763">
        <ele>680.59997558594</ele>
        <time>2025-08-08T06:33:28.000Z</time>
      </trkpt>
      <trkpt lat="46.4155" lon="5.87768">
        <ele>679</ele>
        <time>2025-08-08T06:33:30.000Z</time>
      </trkpt>
      <trkpt lat="46.41529" lon="5.87769">
        <ele>678</ele>
        <time>2025-08-08T06:33:32.000Z</time>
      </trkpt>
      <trkpt lat="46.41496" lon="5.87774">
        <ele>676.79998779297</ele>
        <time>2025-08-08T06:33:35.000Z</time>
      </trkpt>
      <trkpt lat="46.41486" lon="5.87776">
        <ele>675.59997558594</ele>
        <time>2025-08-08T06:33:36.000Z</time>
      </trkpt>
      <trkpt lat="46.41476" lon="5.8778">
        <ele>674.79998779297</ele>
        <time>2025-08-08T06:33:37.000Z</time>
      </trkpt>
      <trkpt lat="46.41467" lon="5.87784">
        <ele>674.59997558594</ele>
        <time>2025-08-08T06:33:38.000Z</time>
      </trkpt>
      <trkpt lat="46.41459" lon="5.87786">
        <ele>674</ele>
        <time>2025-08-08T06:33:39.000Z</time>
      </trkpt>
      <trkpt lat="46.41443" lon="5.87778">
        <ele>673</ele>
        <time>2025-08-08T06:33:41.000Z</time>
      </trkpt>
      <trkpt lat="46.41417" lon="5.87759">
        <ele>671</ele>
        <time>2025-08-08T06:33:44.000Z</time>
      </trkpt>
      <trkpt lat="46.414" lon="5.87744">
        <ele>669.79998779297</ele>
        <time>2025-08-08T06:33:46.000Z</time>
      </trkpt>
      <trkpt lat="46.41383" lon="5.87729">
        <ele>668.79998779297</ele>
        <time>2025-08-08T06:33:48.000Z</time>
      </trkpt>
      <trkpt lat="46.41357" lon="5.87706">
        <ele>667.20001220703</ele>
        <time>2025-08-08T06:33:51.000Z</time>
      </trkpt>
      <trkpt lat="46.41348" lon="5.87699">
        <ele>666.59997558594</ele>
        <time>2025-08-08T06:33:52.000Z</time>
      </trkpt>
      <trkpt lat="46.41329" lon="5.87684">
        <ele>665.20001220703</ele>
        <time>2025-08-08T06:33:54.000Z</time>
      </trkpt>
      <trkpt lat="46.41302" lon="5.87664">
        <ele>663.79998779297</ele>
        <time>2025-08-08T06:33:57.000Z</time>
      </trkpt>
      <trkpt lat="46.41278" lon="5.87647">
        <ele>663</ele>
        <time>2025-08-08T06:33:59.000Z</time>
      </trkpt>
      <trkpt lat="46.41278" lon="5.87647">
        <ele>662.40002441406</ele>
        <time>2025-08-08T06:34:00.000Z</time>
      </trkpt>
      <trkpt lat="46.41257" lon="5.87634">
        <ele>661.79998779297</ele>
        <time>2025-08-08T06:34:01.000Z</time>
      </trkpt>
      <trkpt lat="46.41239" lon="5.8763">
        <ele>660.79998779297</ele>
        <time>2025-08-08T06:34:03.000Z</time>
      </trkpt>
      <trkpt lat="46.41228" lon="5.87627">
        <ele>660.40002441406</ele>
        <time>2025-08-08T06:34:04.000Z</time>
      </trkpt>
      <trkpt lat="46.41218" lon="5.87625">
        <ele>659.59997558594</ele>
        <time>2025-08-08T06:34:05.000Z</time>
      </trkpt>
      <trkpt lat="46.41188" lon="5.87618">
        <ele>657.59997558594</ele>
        <time>2025-08-08T06:34:08.000Z</time>
      </trkpt>
      <trkpt lat="46.41169" lon="5.87613">
        <ele>656.59997558594</ele>
        <time>2025-08-08T06:34:10.000Z</time>
      </trkpt>
      <trkpt lat="46.4115" lon="5.87604">
        <ele>655.59997558594</ele>
        <time>2025-08-08T06:34:12.000Z</time>
      </trkpt>
      <trkpt lat="46.41137" lon="5.87597">
        <ele>655</ele>
        <time>2025-08-08T06:34:13.000Z</time>
      </trkpt>
      <trkpt lat="46.41119" lon="5.87584">
        <ele>653.79998779297</ele>
        <time>2025-08-08T06:34:15.000Z</time>
      </trkpt>
      <trkpt lat="46.41111" lon="5.8758">
        <ele>653.40002441406</ele>
        <time>2025-08-08T06:34:16.000Z</time>
      </trkpt>
      <trkpt lat="46.41103" lon="5.87577">
        <ele>652.59997558594</ele>
        <time>2025-08-08T06:34:17.000Z</time>
      </trkpt>
      <trkpt lat="46.41075" lon="5.87568">
        <ele>651.59997558594</ele>
        <time>2025-08-08T06:34:20.000Z</time>
      </trkpt>
      <trkpt lat="46.41049" lon="5.87563">
        <ele>650.79998779297</ele>
        <time>2025-08-08T06:34:23.000Z</time>
      </trkpt>
      <trkpt lat="46.41039" lon="5.87557">
        <ele>650.40002441406</ele>
        <time>2025-08-08T06:34:24.000Z</time>
      </trkpt>
      <trkpt lat="46.41029" lon="5.87552">
        <ele>649.59997558594</ele>
        <time>2025-08-08T06:34:25.000Z</time>
      </trkpt>
      <trkpt lat="46.4102" lon="5.87546">
        <ele>649.20001220703</ele>
        <time>2025-08-08T06:34:26.000Z</time>
      </trkpt>
      <trkpt lat="46.40996" lon="5.87534">
        <ele>648.59997558594</ele>
        <time>2025-08-08T06:34:28.000Z</time>
      </trkpt>
      <trkpt lat="46.40984" lon="5.87529">
        <ele>648</ele>
        <time>2025-08-08T06:34:29.000Z</time>
      </trkpt>
      <trkpt lat="46.40966" lon="5.87521">
        <ele>646.79998779297</ele>
        <time>2025-08-08T06:34:31.000Z</time>
      </trkpt>
      <trkpt lat="46.40947" lon="5.87512">
        <ele>645.59997558594</ele>
        <time>2025-08-08T06:34:33.000Z</time>
      </trkpt>
      <trkpt lat="46.40937" lon="5.87506">
        <ele>645</ele>
        <time>2025-08-08T06:34:34.000Z</time>
      </trkpt>
      <trkpt lat="46.40918" lon="5.87496">
        <ele>644.20001220703</ele>
        <time>2025-08-08T06:34:36.000Z</time>
      </trkpt>
      <trkpt lat="46.409" lon="5.87485">
        <ele>643</ele>
        <time>2025-08-08T06:34:38.000Z</time>
      </trkpt>
      <trkpt lat="46.40884" lon="5.87471">
        <ele>642.20001220703</ele>
        <time>2025-08-08T06:34:40.000Z</time>
      </trkpt>
      <trkpt lat="46.40877" lon="5.87462">
        <ele>641.59997558594</ele>
        <time>2025-08-08T06:34:41.000Z</time>
      </trkpt>
      <trkpt lat="46.40864" lon="5.87442">
        <ele>640.20001220703</ele>
        <time>2025-08-08T06:34:43.000Z</time>
      </trkpt>
      <trkpt lat="46.40855" lon="5.87428">
        <ele>639.40002441406</ele>
        <time>2025-08-08T06:34:44.000Z</time>
      </trkpt>
      <trkpt lat="46.40846" lon="5.87418">
        <ele>639</ele>
        <time>2025-08-08T06:34:45.000Z</time>
      </trkpt>
      <trkpt lat="46.40824" lon="5.87386">
        <ele>637.79998779297</ele>
        <time>2025-08-08T06:34:48.000Z</time>
      </trkpt>
      <trkpt lat="46.40817" lon="5.87375">
        <ele>636.79998779297</ele>
        <time>2025-08-08T06:34:49.000Z</time>
      </trkpt>
      <trkpt lat="46.40808" lon="5.87364">
        <ele>636.40002441406</ele>
        <time>2025-08-08T06:34:50.000Z</time>
      </trkpt>
      <trkpt lat="46.408" lon="5.87354">
        <ele>635.20001220703</ele>
        <time>2025-08-08T06:34:51.000Z</time>
      </trkpt>
      <trkpt lat="46.40782" lon="5.87334">
        <ele>634</ele>
        <time>2025-08-08T06:34:53.000Z</time>
      </trkpt>
      <trkpt lat="46.40771" lon="5.87325">
        <ele>633.20001220703</ele>
        <time>2025-08-08T06:34:54.000Z</time>
      </trkpt>
      <trkpt lat="46.40763" lon="5.87319">
        <ele>632.79998779297</ele>
        <time>2025-08-08T06:34:55.000Z</time>
      </trkpt>
      <trkpt lat="46.40752" lon="5.87312">
        <ele>631.79998779297</ele>
        <time>2025-08-08T06:34:56.000Z</time>
      </trkpt>
      <trkpt lat="46.40735" lon="5.87304">
        <ele>630.79998779297</ele>
        <time>2025-08-08T06:34:58.000Z</time>
      </trkpt>
      <trkpt lat="46.40711" lon="5.87294">
        <ele>629.79998779297</ele>
        <time>2025-08-08T06:35:00.000Z</time>
      </trkpt>
      <trkpt lat="46.40687" lon="5.87293">
        <ele>628.79998779297</ele>
        <time>2025-08-08T06:35:02.000Z</time>
      </trkpt>
      <trkpt lat="46.40676" lon="5.87296">
        <ele>628.20001220703</ele>
        <time>2025-08-08T06:35:03.000Z</time>
      </trkpt>
      <trkpt lat="46.40645" lon="5.87311">
        <ele>626.20001220703</ele>
        <time>2025-08-08T06:35:06.000Z</time>
      </trkpt>
      <trkpt lat="46.40635" lon="5.87316">
        <ele>625.79998779297</ele>
        <time>2025-08-08T06:35:07.000Z</time>
      </trkpt>
      <trkpt lat="46.40625" lon="5.87319">
        <ele>625.20001220703</ele>
        <time>2025-08-08T06:35:08.000Z</time>
      </trkpt>
      <trkpt lat="46.40612" lon="5.8732">
        <ele>624.79998779297</ele>
        <time>2025-08-08T06:35:09.000Z</time>
      </trkpt>
      <trkpt lat="46.40595" lon="5.87314">
        <ele>623.79998779297</ele>
        <time>2025-08-08T06:35:10.000Z</time>
      </trkpt>
      <trkpt lat="46.40571" lon="5.87309">
        <ele>622.59997558594</ele>
        <time>2025-08-08T06:35:12.000Z</time>
      </trkpt>
      <trkpt lat="46.40561" lon="5.87311">
        <ele>621.79998779297</ele>
        <time>2025-08-08T06:35:13.000Z</time>
      </trkpt>
      <trkpt lat="46.40551" lon="5.87314">
        <ele>621.59997558594</ele>
        <time>2025-08-08T06:35:14.000Z</time>
      </trkpt>
      <trkpt lat="46.40551" lon="5.87314">
        <ele>620.79998779297</ele>
        <time>2025-08-08T06:35:15.000Z</time>
      </trkpt>
      <trkpt lat="46.4053" lon="5.87326">
        <ele>620.20001220703</ele>
        <time>2025-08-08T06:35:16.000Z</time>
      </trkpt>
      <trkpt lat="46.40521" lon="5.8733">
        <ele>619.59997558594</ele>
        <time>2025-08-08T06:35:17.000Z</time>
      </trkpt>
      <trkpt lat="46.4051" lon="5.87335">
        <ele>618.59997558594</ele>
        <time>2025-08-08T06:35:18.000Z</time>
      </trkpt>
      <trkpt lat="46.405" lon="5.87341">
        <ele>618.20001220703</ele>
        <time>2025-08-08T06:35:19.000Z</time>
      </trkpt>
      <trkpt lat="46.40483" lon="5.8735">
        <ele>616.79998779297</ele>
        <time>2025-08-08T06:35:21.000Z</time>
      </trkpt>
      <trkpt lat="46.40465" lon="5.87361">
        <ele>615.40002441406</ele>
        <time>2025-08-08T06:35:23.000Z</time>
      </trkpt>
      <trkpt lat="46.40446" lon="5.87376">
        <ele>614</ele>
        <time>2025-08-08T06:35:25.000Z</time>
      </trkpt>
      <trkpt lat="46.40428" lon="5.87394">
        <ele>613</ele>
        <time>2025-08-08T06:35:27.000Z</time>
      </trkpt>
      <trkpt lat="46.40419" lon="5.87404">
        <ele>612.40002441406</ele>
        <time>2025-08-08T06:35:28.000Z</time>
      </trkpt>
      <trkpt lat="46.40411" lon="5.87415">
        <ele>611.79998779297</ele>
        <time>2025-08-08T06:35:29.000Z</time>
      </trkpt>
      <trkpt lat="46.40404" lon="5.87427">
        <ele>610.79998779297</ele>
        <time>2025-08-08T06:35:30.000Z</time>
      </trkpt>
      <trkpt lat="46.40397" lon="5.87439">
        <ele>610.40002441406</ele>
        <time>2025-08-08T06:35:31.000Z</time>
      </trkpt>
      <trkpt lat="46.40383" lon="5.87463">
        <ele>609.20001220703</ele>
        <time>2025-08-08T06:35:33.000Z</time>
      </trkpt>
      <trkpt lat="46.40377" lon="5.87473">
        <ele>608.20001220703</ele>
        <time>2025-08-08T06:35:34.000Z</time>
      </trkpt>
      <trkpt lat="46.40371" lon="5.87484">
        <ele>608</ele>
        <time>2025-08-08T06:35:35.000Z</time>
      </trkpt>
      <trkpt lat="46.40366" lon="5.87509">
        <ele>606.40002441406</ele>
        <time>2025-08-08T06:35:37.000Z</time>
      </trkpt>
      <trkpt lat="46.4037" lon="5.87535">
        <ele>605.40002441406</ele>
        <time>2025-08-08T06:35:39.000Z</time>
      </trkpt>
      <trkpt lat="46.40381" lon="5.87558">
        <ele>603.59997558594</ele>
        <time>2025-08-08T06:35:41.000Z</time>
      </trkpt>
      <trkpt lat="46.40393" lon="5.87578">
        <ele>602.79998779297</ele>
        <time>2025-08-08T06:35:43.000Z</time>
      </trkpt>
      <trkpt lat="46.404" lon="5.87588">
        <ele>602.20001220703</ele>
        <time>2025-08-08T06:35:44.000Z</time>
      </trkpt>
      <trkpt lat="46.40414" lon="5.87608">
        <ele>601.40002441406</ele>
        <time>2025-08-08T06:35:46.000Z</time>
      </trkpt>
      <trkpt lat="46.40426" lon="5.87628">
        <ele>600.59997558594</ele>
        <time>2025-08-08T06:35:48.000Z</time>
      </trkpt>
      <trkpt lat="46.40431" lon="5.87641">
        <ele>600.20001220703</ele>
        <time>2025-08-08T06:35:49.000Z</time>
      </trkpt>
      <trkpt lat="46.40434" lon="5.87655">
        <ele>600</ele>
        <time>2025-08-08T06:35:50.000Z</time>
      </trkpt>
      <trkpt lat="46.40434" lon="5.87684">
        <ele>599.40002441406</ele>
        <time>2025-08-08T06:35:52.000Z</time>
      </trkpt>
      <trkpt lat="46.40432" lon="5.87697">
        <ele>598.79998779297</ele>
        <time>2025-08-08T06:35:53.000Z</time>
      </trkpt>
      <trkpt lat="46.40425" lon="5.87738">
        <ele>597.40002441406</ele>
        <time>2025-08-08T06:35:56.000Z</time>
      </trkpt>
      <trkpt lat="46.4042" lon="5.87778">
        <ele>596</ele>
        <time>2025-08-08T06:35:59.000Z</time>
      </trkpt>
      <trkpt lat="46.40424" lon="5.87803">
        <ele>595</ele>
        <time>2025-08-08T06:36:01.000Z</time>
      </trkpt>
      <trkpt lat="46.40433" lon="5.87823">
        <ele>594</ele>
        <time>2025-08-08T06:36:03.000Z</time>
      </trkpt>
      <trkpt lat="46.40434" lon="5.87834">
        <ele>593.59997558594</ele>
        <time>2025-08-08T06:36:04.000Z</time>
      </trkpt>
      <trkpt lat="46.40433" lon="5.87844">
        <ele>593.20001220703</ele>
        <time>2025-08-08T06:36:05.000Z</time>
      </trkpt>
      <trkpt lat="46.40429" lon="5.87852">
        <ele>592.40002441406</ele>
        <time>2025-08-08T06:36:06.000Z</time>
      </trkpt>
      <trkpt lat="46.40423" lon="5.87856">
        <ele>592.20001220703</ele>
        <time>2025-08-08T06:36:07.000Z</time>
      </trkpt>
      <trkpt lat="46.40417" lon="5.87856">
        <ele>591.79998779297</ele>
        <time>2025-08-08T06:36:08.000Z</time>
      </trkpt>
      <trkpt lat="46.40412" lon="5.8785">
        <ele>591.40002441406</ele>
        <time>2025-08-08T06:36:09.000Z</time>
      </trkpt>
      <trkpt lat="46.40408" lon="5.87841">
        <ele>590.59997558594</ele>
        <time>2025-08-08T06:36:10.000Z</time>
      </trkpt>
      <trkpt lat="46.40406" lon="5.87831">
        <ele>590.20001220703</ele>
        <time>2025-08-08T06:36:11.000Z</time>
      </trkpt>
      <trkpt lat="46.40406" lon="5.8782">
        <ele>589.79998779297</ele>
        <time>2025-08-08T06:36:12.000Z</time>
      </trkpt>
      <trkpt lat="46.4041" lon="5.87785">
        <ele>589</ele>
        <time>2025-08-08T06:36:15.000Z</time>
      </trkpt>
      <trkpt lat="46.40411" lon="5.87762">
        <ele>588.40002441406</ele>
        <time>2025-08-08T06:36:17.000Z</time>
      </trkpt>
      <trkpt lat="46.40411" lon="5.87712">
        <ele>588.20001220703</ele>
        <time>2025-08-08T06:36:21.000Z</time>
      </trkpt>
      <trkpt lat="46.40409" lon="5.87699">
        <ele>587.59997558594</ele>
        <time>2025-08-08T06:36:22.000Z</time>
      </trkpt>
      <trkpt lat="46.40406" lon="5.87686">
        <ele>587.20001220703</ele>
        <time>2025-08-08T06:36:23.000Z</time>
      </trkpt>
      <trkpt lat="46.40394" lon="5.87666">
        <ele>586.59997558594</ele>
        <time>2025-08-08T06:36:25.000Z</time>
      </trkpt>
      <trkpt lat="46.40368" lon="5.87648">
        <ele>585.79998779297</ele>
        <time>2025-08-08T06:36:28.000Z</time>
      </trkpt>
      <trkpt lat="46.4036" lon="5.8764">
        <ele>585.20001220703</ele>
        <time>2025-08-08T06:36:29.000Z</time>
      </trkpt>
      <trkpt lat="46.40347" lon="5.87622">
        <ele>584.59997558594</ele>
        <time>2025-08-08T06:36:31.000Z</time>
      </trkpt>
      <trkpt lat="46.40341" lon="5.87611">
        <ele>584</ele>
        <time>2025-08-08T06:36:32.000Z</time>
      </trkpt>
      <trkpt lat="46.40337" lon="5.87598">
        <ele>583.79998779297</ele>
        <time>2025-08-08T06:36:33.000Z</time>
      </trkpt>
      <trkpt lat="46.40333" lon="5.87585">
        <ele>583.20001220703</ele>
        <time>2025-08-08T06:36:34.000Z</time>
      </trkpt>
      <trkpt lat="46.40332" lon="5.87571">
        <ele>582.40002441406</ele>
        <time>2025-08-08T06:36:35.000Z</time>
      </trkpt>
      <trkpt lat="46.40332" lon="5.87544">
        <ele>581.40002441406</ele>
        <time>2025-08-08T06:36:37.000Z</time>
      </trkpt>
      <trkpt lat="46.40336" lon="5.87518">
        <ele>580.40002441406</ele>
        <time>2025-08-08T06:36:39.000Z</time>
      </trkpt>
      <trkpt lat="46.40343" lon="5.87493">
        <ele>579.40002441406</ele>
        <time>2025-08-08T06:36:41.000Z</time>
      </trkpt>
      <trkpt lat="46.40347" lon="5.87481">
        <ele>579</ele>
        <time>2025-08-08T06:36:42.000Z</time>
      </trkpt>
      <trkpt lat="46.40356" lon="5.87456">
        <ele>578</ele>
        <time>2025-08-08T06:36:44.000Z</time>
      </trkpt>
      <trkpt lat="46.40359" lon="5.87443">
        <ele>577.59997558594</ele>
        <time>2025-08-08T06:36:45.000Z</time>
      </trkpt>
      <trkpt lat="46.40362" lon="5.8743">
        <ele>577.20001220703</ele>
        <time>2025-08-08T06:36:46.000Z</time>
      </trkpt>
      <trkpt lat="46.40365" lon="5.87417">
        <ele>576.59997558594</ele>
        <time>2025-08-08T06:36:47.000Z</time>
      </trkpt>
      <trkpt lat="46.40369" lon="5.87404">
        <ele>576.40002441406</ele>
        <time>2025-08-08T06:36:48.000Z</time>
      </trkpt>
      <trkpt lat="46.4038" lon="5.8738">
        <ele>575.59997558594</ele>
        <time>2025-08-08T06:36:50.000Z</time>
      </trkpt>
      <trkpt lat="46.40386" lon="5.87368">
        <ele>575.20001220703</ele>
        <time>2025-08-08T06:36:51.000Z</time>
      </trkpt>
      <trkpt lat="46.404" lon="5.87347">
        <ele>574</ele>
        <time>2025-08-08T06:36:53.000Z</time>
      </trkpt>
      <trkpt lat="46.40415" lon="5.87327">
        <ele>572.79998779297</ele>
        <time>2025-08-08T06:36:55.000Z</time>
      </trkpt>
      <trkpt lat="46.40431" lon="5.87308">
        <ele>571.59997558594</ele>
        <time>2025-08-08T06:36:57.000Z</time>
      </trkpt>
      <trkpt lat="46.40448" lon="5.87293">
        <ele>570.20001220703</ele>
        <time>2025-08-08T06:36:59.000Z</time>
      </trkpt>
      <trkpt lat="46.40475" lon="5.87271">
        <ele>568.59997558594</ele>
        <time>2025-08-08T06:37:02.000Z</time>
      </trkpt>
      <trkpt lat="46.40493" lon="5.87257">
        <ele>567.40002441406</ele>
        <time>2025-08-08T06:37:04.000Z</time>
      </trkpt>
      <trkpt lat="46.40512" lon="5.87245">
        <ele>566</ele>
        <time>2025-08-08T06:37:06.000Z</time>
      </trkpt>
      <trkpt lat="46.40522" lon="5.87238">
        <ele>565.79998779297</ele>
        <time>2025-08-08T06:37:07.000Z</time>
      </trkpt>
      <trkpt lat="46.40541" lon="5.87226">
        <ele>565</ele>
        <time>2025-08-08T06:37:09.000Z</time>
      </trkpt>
      <trkpt lat="46.4056" lon="5.87215">
        <ele>563.79998779297</ele>
        <time>2025-08-08T06:37:11.000Z</time>
      </trkpt>
      <trkpt lat="46.4057" lon="5.87211">
        <ele>563.40002441406</ele>
        <time>2025-08-08T06:37:12.000Z</time>
      </trkpt>
      <trkpt lat="46.40588" lon="5.87203">
        <ele>562.40002441406</ele>
        <time>2025-08-08T06:37:14.000Z</time>
      </trkpt>
      <trkpt lat="46.40602" lon="5.87194">
        <ele>561.20001220703</ele>
        <time>2025-08-08T06:37:16.000Z</time>
      </trkpt>
      <trkpt lat="46.40609" lon="5.87175">
        <ele>560</ele>
        <time>2025-08-08T06:37:18.000Z</time>
      </trkpt>
      <trkpt lat="46.40607" lon="5.87156">
        <ele>559</ele>
        <time>2025-08-08T06:37:20.000Z</time>
      </trkpt>
      <trkpt lat="46.40602" lon="5.87148">
        <ele>558.59997558594</ele>
        <time>2025-08-08T06:37:21.000Z</time>
      </trkpt>
      <trkpt lat="46.40596" lon="5.87143">
        <ele>558.20001220703</ele>
        <time>2025-08-08T06:37:22.000Z</time>
      </trkpt>
      <trkpt lat="46.40583" lon="5.8714">
        <ele>557.59997558594</ele>
        <time>2025-08-08T06:37:24.000Z</time>
      </trkpt>
      <trkpt lat="46.40575" lon="5.87144">
        <ele>557.40002441406</ele>
        <time>2025-08-08T06:37:25.000Z</time>
      </trkpt>
      <trkpt lat="46.40569" lon="5.87151">
        <ele>557.20001220703</ele>
        <time>2025-08-08T06:37:26.000Z</time>
      </trkpt>
      <trkpt lat="46.40555" lon="5.87169">
        <ele>556.59997558594</ele>
        <time>2025-08-08T06:37:28.000Z</time>
      </trkpt>
      <trkpt lat="46.40547" lon="5.87177">
        <ele>556.40002441406</ele>
        <time>2025-08-08T06:37:29.000Z</time>
      </trkpt>
      <trkpt lat="46.40539" lon="5.87183">
        <ele>555.79998779297</ele>
        <time>2025-08-08T06:37:30.000Z</time>
      </trkpt>
      <trkpt lat="46.4053" lon="5.87188">
        <ele>555.59997558594</ele>
        <time>2025-08-08T06:37:31.000Z</time>
      </trkpt>
      <trkpt lat="46.40512" lon="5.87195">
        <ele>554</ele>
        <time>2025-08-08T06:37:34.000Z</time>
      </trkpt>
      <trkpt lat="46.40493" lon="5.87204">
        <ele>553.40002441406</ele>
        <time>2025-08-08T06:37:35.000Z</time>
      </trkpt>
      <trkpt lat="46.40474" lon="5.87216">
        <ele>552.79998779297</ele>
        <time>2025-08-08T06:37:37.000Z</time>
      </trkpt>
      <trkpt lat="46.40465" lon="5.87222">
        <ele>552.59997558594</ele>
        <time>2025-08-08T06:37:38.000Z</time>
      </trkpt>
      <trkpt lat="46.40446" lon="5.87232">
        <ele>551.20001220703</ele>
        <time>2025-08-08T06:37:40.000Z</time>
      </trkpt>
      <trkpt lat="46.40436" lon="5.87235">
        <ele>550.79998779297</ele>
        <time>2025-08-08T06:37:41.000Z</time>
      </trkpt>
      <trkpt lat="46.40425" lon="5.87235">
        <ele>550.20001220703</ele>
        <time>2025-08-08T06:37:42.000Z</time>
      </trkpt>
      <trkpt lat="46.40418" lon="5.87235">
        <ele>550</ele>
        <time>2025-08-08T06:37:43.000Z</time>
      </trkpt>
      <trkpt lat="46.40409" lon="5.87231">
        <ele>549.59997558594</ele>
        <time>2025-08-08T06:37:44.000Z</time>
      </trkpt>
      <trkpt lat="46.40399" lon="5.87226">
        <ele>549.40002441406</ele>
        <time>2025-08-08T06:37:45.000Z</time>
      </trkpt>
      <trkpt lat="46.40388" lon="5.87221">
        <ele>548.79998779297</ele>
        <time>2025-08-08T06:37:46.000Z</time>
      </trkpt>
      <trkpt lat="46.40367" lon="5.87214">
        <ele>547.59997558594</ele>
        <time>2025-08-08T06:37:48.000Z</time>
      </trkpt>
      <trkpt lat="46.40346" lon="5.87208">
        <ele>546.40002441406</ele>
        <time>2025-08-08T06:37:50.000Z</time>
      </trkpt>
      <trkpt lat="46.40324" lon="5.87208">
        <ele>545.40002441406</ele>
        <time>2025-08-08T06:37:52.000Z</time>
      </trkpt>
      <trkpt lat="46.40304" lon="5.87211">
        <ele>544.40002441406</ele>
        <time>2025-08-08T06:37:54.000Z</time>
      </trkpt>
      <trkpt lat="46.40295" lon="5.87215">
        <ele>544</ele>
        <time>2025-08-08T06:37:55.000Z</time>
      </trkpt>
      <trkpt lat="46.40275" lon="5.87224">
        <ele>542.59997558594</ele>
        <time>2025-08-08T06:37:57.000Z</time>
      </trkpt>
      <trkpt lat="46.40255" lon="5.87229">
        <ele>541.20001220703</ele>
        <time>2025-08-08T06:37:59.000Z</time>
      </trkpt>
      <trkpt lat="46.40245" lon="5.8723">
        <ele>540.79998779297</ele>
        <time>2025-08-08T06:38:00.000Z</time>
      </trkpt>
      <trkpt lat="46.40225" lon="5.87225">
        <ele>540</ele>
        <time>2025-08-08T06:38:02.000Z</time>
      </trkpt>
      <trkpt lat="46.40216" lon="5.8722">
        <ele>539</ele>
        <time>2025-08-08T06:38:03.000Z</time>
      </trkpt>
      <trkpt lat="46.40207" lon="5.87217">
        <ele>538</ele>
        <time>2025-08-08T06:38:04.000Z</time>
      </trkpt>
      <trkpt lat="46.40197" lon="5.87217">
        <ele>537.59997558594</ele>
        <time>2025-08-08T06:38:05.000Z</time>
      </trkpt>
      <trkpt lat="46.40188" lon="5.8722">
        <ele>537.20001220703</ele>
        <time>2025-08-08T06:38:06.000Z</time>
      </trkpt>
      <trkpt lat="46.4018" lon="5.87227">
        <ele>537</ele>
        <time>2025-08-08T06:38:07.000Z</time>
      </trkpt>
      <trkpt lat="46.40173" lon="5.87236">
        <ele>536.59997558594</ele>
        <time>2025-08-08T06:38:08.000Z</time>
      </trkpt>
      <trkpt lat="46.40163" lon="5.87259">
        <ele>535.40002441406</ele>
        <time>2025-08-08T06:38:10.000Z</time>
      </trkpt>
      <trkpt lat="46.40159" lon="5.87285">
        <ele>534.40002441406</ele>
        <time>2025-08-08T06:38:12.000Z</time>
      </trkpt>
      <trkpt lat="46.40159" lon="5.87298">
        <ele>534</ele>
        <time>2025-08-08T06:38:13.000Z</time>
      </trkpt>
      <trkpt lat="46.4016" lon="5.87311">
        <ele>533.79998779297</ele>
        <time>2025-08-08T06:38:14.000Z</time>
      </trkpt>
      <trkpt lat="46.40163" lon="5.87324">
        <ele>533.40002441406</ele>
        <time>2025-08-08T06:38:15.000Z</time>
      </trkpt>
      <trkpt lat="46.40168" lon="5.87335">
        <ele>533</ele>
        <time>2025-08-08T06:38:16.000Z</time>
      </trkpt>
      <trkpt lat="46.40178" lon="5.87358">
        <ele>532.40002441406</ele>
        <time>2025-08-08T06:38:18.000Z</time>
      </trkpt>
      <trkpt lat="46.40199" lon="5.87403">
        <ele>531.20001220703</ele>
        <time>2025-08-08T06:38:22.000Z</time>
      </trkpt>
      <trkpt lat="46.40216" lon="5.87435">
        <ele>529.79998779297</ele>
        <time>2025-08-08T06:38:25.000Z</time>
      </trkpt>
      <trkpt lat="46.40228" lon="5.87456">
        <ele>529.40002441406</ele>
        <time>2025-08-08T06:38:27.000Z</time>
      </trkpt>
      <trkpt lat="46.40233" lon="5.87468">
        <ele>529</ele>
        <time>2025-08-08T06:38:28.000Z</time>
      </trkpt>
      <trkpt lat="46.40236" lon="5.8748">
        <ele>528.79998779297</ele>
        <time>2025-08-08T06:38:29.000Z</time>
      </trkpt>
      <trkpt lat="46.40238" lon="5.87507">
        <ele>527.79998779297</ele>
        <time>2025-08-08T06:38:31.000Z</time>
      </trkpt>
      <trkpt lat="46.40235" lon="5.87533">
        <ele>526.79998779297</ele>
        <time>2025-08-08T06:38:33.000Z</time>
      </trkpt>
      <trkpt lat="46.4023" lon="5.87545">
        <ele>526.59997558594</ele>
        <time>2025-08-08T06:38:34.000Z</time>
      </trkpt>
      <trkpt lat="46.40225" lon="5.87555">
        <ele>526.40002441406</ele>
        <time>2025-08-08T06:38:35.000Z</time>
      </trkpt>
      <trkpt lat="46.40217" lon="5.87577">
        <ele>525.59997558594</ele>
        <time>2025-08-08T06:38:37.000Z</time>
      </trkpt>
      <trkpt lat="46.40214" lon="5.87615">
        <ele>524.79998779297</ele>
        <time>2025-08-08T06:38:40.000Z</time>
      </trkpt>
      <trkpt lat="46.40214" lon="5.87629">
        <ele>524.59997558594</ele>
        <time>2025-08-08T06:38:41.000Z</time>
      </trkpt>
      <trkpt lat="46.40215" lon="5.87669">
        <ele>523.40002441406</ele>
        <time>2025-08-08T06:38:44.000Z</time>
      </trkpt>
      <trkpt lat="46.4022" lon="5.87695">
        <ele>522.59997558594</ele>
        <time>2025-08-08T06:38:46.000Z</time>
      </trkpt>
      <trkpt lat="46.40224" lon="5.87707">
        <ele>522</ele>
        <time>2025-08-08T06:38:47.000Z</time>
      </trkpt>
      <trkpt lat="46.40234" lon="5.8773">
        <ele>521</ele>
        <time>2025-08-08T06:38:49.000Z</time>
      </trkpt>
      <trkpt lat="46.40244" lon="5.87753">
        <ele>520.40002441406</ele>
        <time>2025-08-08T06:38:51.000Z</time>
      </trkpt>
      <trkpt lat="46.40254" lon="5.87777">
        <ele>519.79998779297</ele>
        <time>2025-08-08T06:38:53.000Z</time>
      </trkpt>
      <trkpt lat="46.40262" lon="5.87801">
        <ele>518.79998779297</ele>
        <time>2025-08-08T06:38:55.000Z</time>
      </trkpt>
      <trkpt lat="46.40265" lon="5.87813">
        <ele>518.59997558594</ele>
        <time>2025-08-08T06:38:56.000Z</time>
      </trkpt>
      <trkpt lat="46.40266" lon="5.87826">
        <ele>518</ele>
        <time>2025-08-08T06:38:57.000Z</time>
      </trkpt>
      <trkpt lat="46.40264" lon="5.8785">
        <ele>516.79998779297</ele>
        <time>2025-08-08T06:38:59.000Z</time>
      </trkpt>
      <trkpt lat="46.4026" lon="5.87863">
        <ele>516.59997558594</ele>
        <time>2025-08-08T06:39:00.000Z</time>
      </trkpt>
      <trkpt lat="46.40256" lon="5.87869">
        <ele>516.20001220703</ele>
        <time>2025-08-08T06:39:01.000Z</time>
      </trkpt>
      <trkpt lat="46.40244" lon="5.87882">
        <ele>516</ele>
        <time>2025-08-08T06:39:03.000Z</time>
      </trkpt>
      <trkpt lat="46.40236" lon="5.87888">
        <ele>515.79998779297</ele>
        <time>2025-08-08T06:39:04.000Z</time>
      </trkpt>
      <trkpt lat="46.40229" lon="5.8789">
        <ele>515.59997558594</ele>
        <time>2025-08-08T06:39:05.000Z</time>
      </trkpt>
      <trkpt lat="46.40224" lon="5.87889">
        <ele>515.40002441406</ele>
        <time>2025-08-08T06:39:06.000Z</time>
      </trkpt>
      <trkpt lat="46.40218" lon="5.87886">
        <ele>515.40002441406</ele>
        <time>2025-08-08T06:39:07.000Z</time>
      </trkpt>
      <trkpt lat="46.40206" lon="5.87874">
        <ele>515</ele>
        <time>2025-08-08T06:39:09.000Z</time>
      </trkpt>
      <trkpt lat="46.4017" lon="5.87832">
        <ele>514.79998779297</ele>
        <time>2025-08-08T06:39:15.000Z</time>
      </trkpt>
      <trkpt lat="46.40154" lon="5.87811">
        <ele>514.59997558594</ele>
        <time>2025-08-08T06:39:18.000Z</time>
      </trkpt>
      <trkpt lat="46.40149" lon="5.87804">
        <ele>514.40002441406</ele>
        <time>2025-08-08T06:39:19.000Z</time>
      </trkpt>
      <trkpt lat="46.40143" lon="5.87797">
        <ele>514.20001220703</ele>
        <time>2025-08-08T06:39:20.000Z</time>
      </trkpt>
      <trkpt lat="46.40135" lon="5.87791">
        <ele>514</ele>
        <time>2025-08-08T06:39:21.000Z</time>
      </trkpt>
      <trkpt lat="46.40112" lon="5.87778">
        <ele>513.59997558594</ele>
        <time>2025-08-08T06:39:24.000Z</time>
      </trkpt>
      <trkpt lat="46.40103" lon="5.87774">
        <ele>513.40002441406</ele>
        <time>2025-08-08T06:39:25.000Z</time>
      </trkpt>
      <trkpt lat="46.40071" lon="5.87752">
        <ele>512.79998779297</ele>
        <time>2025-08-08T06:39:29.000Z</time>
      </trkpt>
      <trkpt lat="46.40065" lon="5.87743">
        <ele>512.40002441406</ele>
        <time>2025-08-08T06:39:30.000Z</time>
      </trkpt>
      <trkpt lat="46.40061" lon="5.87732">
        <ele>512.20001220703</ele>
        <time>2025-08-08T06:39:31.000Z</time>
      </trkpt>
      <trkpt lat="46.40057" lon="5.87708">
        <ele>511.39999389648</ele>
        <time>2025-08-08T06:39:33.000Z</time>
      </trkpt>
      <trkpt lat="46.40055" lon="5.87697">
        <ele>511.20001220703</ele>
        <time>2025-08-08T06:39:34.000Z</time>
      </trkpt>
      <trkpt lat="46.40048" lon="5.87664">
        <ele>510.20001220703</ele>
        <time>2025-08-08T06:39:37.000Z</time>
      </trkpt>
      <trkpt lat="46.40044" lon="5.87653">
        <ele>510</ele>
        <time>2025-08-08T06:39:38.000Z</time>
      </trkpt>
      <trkpt lat="46.40039" lon="5.87643">
        <ele>510</ele>
        <time>2025-08-08T06:39:39.000Z</time>
      </trkpt>
      <trkpt lat="46.40025" lon="5.87628">
        <ele>509.60000610352</ele>
        <time>2025-08-08T06:39:41.000Z</time>
      </trkpt>
      <trkpt lat="46.40004" lon="5.87614">
        <ele>509</ele>
        <time>2025-08-08T06:39:44.000Z</time>
      </trkpt>
      <trkpt lat="46.39982" lon="5.87597">
        <ele>507.79998779297</ele>
        <time>2025-08-08T06:39:47.000Z</time>
      </trkpt>
      <trkpt lat="46.39956" lon="5.87571">
        <ele>506.79998779297</ele>
        <time>2025-08-08T06:39:51.000Z</time>
      </trkpt>
      <trkpt lat="46.3995" lon="5.87561">
        <ele>506.60000610352</ele>
        <time>2025-08-08T06:39:52.000Z</time>
      </trkpt>
      <trkpt lat="46.39945" lon="5.87551">
        <ele>506.39999389648</ele>
        <time>2025-08-08T06:39:53.000Z</time>
      </trkpt>
      <trkpt lat="46.39937" lon="5.87529">
        <ele>505.20001220703</ele>
        <time>2025-08-08T06:39:55.000Z</time>
      </trkpt>
      <trkpt lat="46.39934" lon="5.87517">
        <ele>505</ele>
        <time>2025-08-08T06:39:56.000Z</time>
      </trkpt>
      <trkpt lat="46.39925" lon="5.87467">
        <ele>504.39999389648</ele>
        <time>2025-08-08T06:40:00.000Z</time>
      </trkpt>
      <trkpt lat="46.39921" lon="5.87455">
        <ele>504</ele>
        <time>2025-08-08T06:40:01.000Z</time>
      </trkpt>
      <trkpt lat="46.39917" lon="5.87444">
        <ele>503.79998779297</ele>
        <time>2025-08-08T06:40:02.000Z</time>
      </trkpt>
      <trkpt lat="46.39905" lon="5.87423">
        <ele>503.20001220703</ele>
        <time>2025-08-08T06:40:04.000Z</time>
      </trkpt>
      <trkpt lat="46.39889" lon="5.87409">
        <ele>502.79998779297</ele>
        <time>2025-08-08T06:40:06.000Z</time>
      </trkpt>
      <trkpt lat="46.3988" lon="5.87405">
        <ele>502.20001220703</ele>
        <time>2025-08-08T06:40:07.000Z</time>
      </trkpt>
      <trkpt lat="46.39862" lon="5.87401">
        <ele>501.39999389648</ele>
        <time>2025-08-08T06:40:09.000Z</time>
      </trkpt>
      <trkpt lat="46.39834" lon="5.87392">
        <ele>500</ele>
        <time>2025-08-08T06:40:12.000Z</time>
      </trkpt>
      <trkpt lat="46.39826" lon="5.87387">
        <ele>499.79998779297</ele>
        <time>2025-08-08T06:40:13.000Z</time>
      </trkpt>
      <trkpt lat="46.39811" lon="5.87373">
        <ele>498.79998779297</ele>
        <time>2025-08-08T06:40:15.000Z</time>
      </trkpt>
      <trkpt lat="46.39804" lon="5.87363">
        <ele>498.39999389648</ele>
        <time>2025-08-08T06:40:16.000Z</time>
      </trkpt>
      <trkpt lat="46.3979" lon="5.87342">
        <ele>497.79998779297</ele>
        <time>2025-08-08T06:40:18.000Z</time>
      </trkpt>
      <trkpt lat="46.39778" lon="5.8732">
        <ele>496.39999389648</ele>
        <time>2025-08-08T06:40:20.000Z</time>
      </trkpt>
      <trkpt lat="46.39765" lon="5.87298">
        <ele>495.39999389648</ele>
        <time>2025-08-08T06:40:22.000Z</time>
      </trkpt>
      <trkpt lat="46.39759" lon="5.87287">
        <ele>495</ele>
        <time>2025-08-08T06:40:23.000Z</time>
      </trkpt>
      <trkpt lat="46.39742" lon="5.87254">
        <ele>493.60000610352</ele>
        <time>2025-08-08T06:40:26.000Z</time>
      </trkpt>
      <trkpt lat="46.39735" lon="5.87244">
        <ele>493.20001220703</ele>
        <time>2025-08-08T06:40:27.000Z</time>
      </trkpt>
      <trkpt lat="46.39728" lon="5.87234">
        <ele>492.60000610352</ele>
        <time>2025-08-08T06:40:28.000Z</time>
      </trkpt>
      <trkpt lat="46.39706" lon="5.87209">
        <ele>491.79998779297</ele>
        <time>2025-08-08T06:40:31.000Z</time>
      </trkpt>
      <trkpt lat="46.39699" lon="5.872">
        <ele>491.39999389648</ele>
        <time>2025-08-08T06:40:32.000Z</time>
      </trkpt>
      <trkpt lat="46.3968" lon="5.87173">
        <ele>489.79998779297</ele>
        <time>2025-08-08T06:40:35.000Z</time>
      </trkpt>
      <trkpt lat="46.39674" lon="5.87164">
        <ele>489.39999389648</ele>
        <time>2025-08-08T06:40:36.000Z</time>
      </trkpt>
      <trkpt lat="46.39666" lon="5.87148">
        <ele>488.79998779297</ele>
        <time>2025-08-08T06:40:38.000Z</time>
      </trkpt>
      <trkpt lat="46.39663" lon="5.87139">
        <ele>488.60000610352</ele>
        <time>2025-08-08T06:40:39.000Z</time>
      </trkpt>
      <trkpt lat="46.39659" lon="5.87124">
        <ele>487.79998779297</ele>
        <time>2025-08-08T06:40:41.000Z</time>
      </trkpt>
      <trkpt lat="46.39657" lon="5.87116">
        <ele>486.79998779297</ele>
        <time>2025-08-08T06:40:43.000Z</time>
      </trkpt>
      <trkpt lat="46.39656" lon="5.87115">
        <ele>486.60000610352</ele>
        <time>2025-08-08T06:40:44.000Z</time>
      </trkpt>
      <trkpt lat="46.39656" lon="5.87115">
        <ele>485.79998779297</ele>
        <time>2025-08-08T06:40:46.000Z</time>
      </trkpt>
      <trkpt lat="46.39658" lon="5.87116">
        <ele>483.39999389648</ele>
        <time>2025-08-08T06:46:09.000Z</time>
      </trkpt>
      <trkpt lat="46.39657" lon="5.8711">
        <ele>483.39999389648</ele>
        <time>2025-08-08T06:46:11.000Z</time>
      </trkpt>
      <trkpt lat="46.39656" lon="5.87107">
        <ele>483.39999389648</ele>
        <time>2025-08-08T06:46:12.000Z</time>
      </trkpt>
      <trkpt lat="46.39651" lon="5.87083">
        <ele>483.20001220703</ele>
        <time>2025-08-08T06:46:17.000Z</time>
      </trkpt>
      <trkpt lat="46.39646" lon="5.87054">
        <ele>482.39999389648</ele>
        <time>2025-08-08T06:46:22.000Z</time>
      </trkpt>
      <trkpt lat="46.39644" lon="5.87042">
        <ele>482</ele>
        <time>2025-08-08T06:46:24.000Z</time>
      </trkpt>
      <trkpt lat="46.39644" lon="5.87036">
        <ele>482</ele>
        <time>2025-08-08T06:46:25.000Z</time>
      </trkpt>
      <trkpt lat="46.39642" lon="5.87013">
        <ele>481.39999389648</ele>
        <time>2025-08-08T06:46:28.000Z</time>
      </trkpt>
      <trkpt lat="46.3964" lon="5.87006">
        <ele>481.20001220703</ele>
        <time>2025-08-08T06:46:29.000Z</time>
      </trkpt>
      <trkpt lat="46.39636" lon="5.86993">
        <ele>480.79998779297</ele>
        <time>2025-08-08T06:46:31.000Z</time>
      </trkpt>
      <trkpt lat="46.3963" lon="5.86979">
        <ele>480.60000610352</ele>
        <time>2025-08-08T06:46:33.000Z</time>
      </trkpt>
      <trkpt lat="46.39627" lon="5.86972">
        <ele>480</ele>
        <time>2025-08-08T06:46:34.000Z</time>
      </trkpt>
      <trkpt lat="46.39621" lon="5.86961">
        <ele>479.39999389648</ele>
        <time>2025-08-08T06:46:36.000Z</time>
      </trkpt>
      <trkpt lat="46.39613" lon="5.86949">
        <ele>479</ele>
        <time>2025-08-08T06:46:38.000Z</time>
      </trkpt>
      <trkpt lat="46.39605" lon="5.86936">
        <ele>478.20001220703</ele>
        <time>2025-08-08T06:46:40.000Z</time>
      </trkpt>
      <trkpt lat="46.396" lon="5.86929">
        <ele>477.79998779297</ele>
        <time>2025-08-08T06:46:41.000Z</time>
      </trkpt>
      <trkpt lat="46.39588" lon="5.86907">
        <ele>476.60000610352</ele>
        <time>2025-08-08T06:46:44.000Z</time>
      </trkpt>
      <trkpt lat="46.39573" lon="5.86884">
        <ele>475.60000610352</ele>
        <time>2025-08-08T06:46:47.000Z</time>
      </trkpt>
      <trkpt lat="46.39569" lon="5.86877">
        <ele>475.20001220703</ele>
        <time>2025-08-08T06:46:48.000Z</time>
      </trkpt>
      <trkpt lat="46.39551" lon="5.86843">
        <ele>474.20001220703</ele>
        <time>2025-08-08T06:46:52.000Z</time>
      </trkpt>
      <trkpt lat="46.39543" lon="5.86826">
        <ele>473.60000610352</ele>
        <time>2025-08-08T06:46:54.000Z</time>
      </trkpt>
      <trkpt lat="46.39539" lon="5.86817">
        <ele>473</ele>
        <time>2025-08-08T06:46:55.000Z</time>
      </trkpt>
      <trkpt lat="46.39534" lon="5.86807">
        <ele>472.60000610352</ele>
        <time>2025-08-08T06:46:56.000Z</time>
      </trkpt>
      <trkpt lat="46.39524" lon="5.8679">
        <ele>472</ele>
        <time>2025-08-08T06:46:58.000Z</time>
      </trkpt>
      <trkpt lat="46.3951" lon="5.86764">
        <ele>470.79998779297</ele>
        <time>2025-08-08T06:47:01.000Z</time>
      </trkpt>
      <trkpt lat="46.39501" lon="5.86747">
        <ele>469.60000610352</ele>
        <time>2025-08-08T06:47:03.000Z</time>
      </trkpt>
      <trkpt lat="46.39493" lon="5.86733">
        <ele>468.60000610352</ele>
        <time>2025-08-08T06:47:05.000Z</time>
      </trkpt>
      <trkpt lat="46.39489" lon="5.86725">
        <ele>468.39999389648</ele>
        <time>2025-08-08T06:47:06.000Z</time>
      </trkpt>
      <trkpt lat="46.39478" lon="5.86711">
        <ele>467.20001220703</ele>
        <time>2025-08-08T06:47:08.000Z</time>
      </trkpt>
      <trkpt lat="46.39472" lon="5.86704">
        <ele>467</ele>
        <time>2025-08-08T06:47:09.000Z</time>
      </trkpt>
      <trkpt lat="46.3946" lon="5.86691">
        <ele>466.20001220703</ele>
        <time>2025-08-08T06:47:11.000Z</time>
      </trkpt>
      <trkpt lat="46.39444" lon="5.86672">
        <ele>465.20001220703</ele>
        <time>2025-08-08T06:47:14.000Z</time>
      </trkpt>
      <trkpt lat="46.39428" lon="5.86653">
        <ele>464.20001220703</ele>
        <time>2025-08-08T06:47:17.000Z</time>
      </trkpt>
      <trkpt lat="46.39401" lon="5.86625">
        <ele>462.79998779297</ele>
        <time>2025-08-08T06:47:22.000Z</time>
      </trkpt>
      <trkpt lat="46.39392" lon="5.86616">
        <ele>462.39999389648</ele>
        <time>2025-08-08T06:47:24.000Z</time>
      </trkpt>
      <trkpt lat="46.39379" lon="5.86604">
        <ele>462</ele>
        <time>2025-08-08T06:47:27.000Z</time>
      </trkpt>
      <trkpt lat="46.39374" lon="5.86595">
        <ele>461.60000610352</ele>
        <time>2025-08-08T06:47:29.000Z</time>
      </trkpt>
      <trkpt lat="46.39364" lon="5.8658">
        <ele>460.79998779297</ele>
        <time>2025-08-08T06:47:33.000Z</time>
      </trkpt>
      <trkpt lat="46.39361" lon="5.86576">
        <ele>460.60000610352</ele>
        <time>2025-08-08T06:47:34.000Z</time>
      </trkpt>
      <trkpt lat="46.3934" lon="5.86548">
        <ele>459.79998779297</ele>
        <time>2025-08-08T06:47:40.000Z</time>
      </trkpt>
      <trkpt lat="46.39332" lon="5.86538">
        <ele>459.39999389648</ele>
        <time>2025-08-08T06:47:42.000Z</time>
      </trkpt>
      <trkpt lat="46.3931" lon="5.86511">
        <ele>458.39999389648</ele>
        <time>2025-08-08T06:47:47.000Z</time>
      </trkpt>
      <trkpt lat="46.39305" lon="5.86505">
        <ele>458.39999389648</ele>
        <time>2025-08-08T06:47:48.000Z</time>
      </trkpt>
      <trkpt lat="46.39286" lon="5.86481">
        <ele>457.60000610352</ele>
        <time>2025-08-08T06:47:52.000Z</time>
      </trkpt>
      <trkpt lat="46.39282" lon="5.86476">
        <ele>457.39999389648</ele>
        <time>2025-08-08T06:47:53.000Z</time>
      </trkpt>
      <trkpt lat="46.39277" lon="5.8647">
        <ele>457.20001220703</ele>
        <time>2025-08-08T06:47:54.000Z</time>
      </trkpt>
      <trkpt lat="46.39263" lon="5.86455">
        <ele>456.60000610352</ele>
        <time>2025-08-08T06:47:57.000Z</time>
      </trkpt>
      <trkpt lat="46.39259" lon="5.86449">
        <ele>456.39999389648</ele>
        <time>2025-08-08T06:47:58.000Z</time>
      </trkpt>
      <trkpt lat="46.39257" lon="5.86443">
        <ele>456</ele>
        <time>2025-08-08T06:47:59.000Z</time>
      </trkpt>
      <trkpt lat="46.39253" lon="5.86432">
        <ele>455.79998779297</ele>
        <time>2025-08-08T06:48:01.000Z</time>
      </trkpt>
      <trkpt lat="46.39247" lon="5.86427">
        <ele>455.20001220703</ele>
        <time>2025-08-08T06:48:03.000Z</time>
      </trkpt>
      <trkpt lat="46.39232" lon="5.8642">
        <ele>454.60000610352</ele>
        <time>2025-08-08T06:48:08.000Z</time>
      </trkpt>
      <trkpt lat="46.39219" lon="5.86416">
        <ele>454.39999389648</ele>
        <time>2025-08-08T06:48:11.000Z</time>
      </trkpt>
      <trkpt lat="46.39211" lon="5.86413">
        <ele>454.39999389648</ele>
        <time>2025-08-08T06:48:13.000Z</time>
      </trkpt>
      <trkpt lat="46.39206" lon="5.86412">
        <ele>454.20001220703</ele>
        <time>2025-08-08T06:48:14.000Z</time>
      </trkpt>
      <trkpt lat="46.39188" lon="5.86405">
        <ele>453.79998779297</ele>
        <time>2025-08-08T06:48:18.000Z</time>
      </trkpt>
      <trkpt lat="46.39183" lon="5.86404">
        <ele>453.79998779297</ele>
        <time>2025-08-08T06:48:19.000Z</time>
      </trkpt>
      <trkpt lat="46.39164" lon="5.86399">
        <ele>453.39999389648</ele>
        <time>2025-08-08T06:48:23.000Z</time>
      </trkpt>
      <trkpt lat="46.39144" lon="5.86394">
        <ele>453.39999389648</ele>
        <time>2025-08-08T06:48:27.000Z</time>
      </trkpt>
      <trkpt lat="46.39129" lon="5.86386">
        <ele>453.20001220703</ele>
        <time>2025-08-08T06:48:30.000Z</time>
      </trkpt>
      <trkpt lat="46.39124" lon="5.86385">
        <ele>453</ele>
        <time>2025-08-08T06:48:31.000Z</time>
      </trkpt>
      <trkpt lat="46.39101" lon="5.86369">
        <ele>452.79998779297</ele>
        <time>2025-08-08T06:48:36.000Z</time>
      </trkpt>
      <trkpt lat="46.39096" lon="5.86366">
        <ele>452.60000610352</ele>
        <time>2025-08-08T06:48:37.000Z</time>
      </trkpt>
      <trkpt lat="46.39072" lon="5.86345">
        <ele>452.39999389648</ele>
        <time>2025-08-08T06:48:42.000Z</time>
      </trkpt>
      <trkpt lat="46.39059" lon="5.86331">
        <ele>452.20001220703</ele>
        <time>2025-08-08T06:48:45.000Z</time>
      </trkpt>
      <trkpt lat="46.3905" lon="5.86327">
        <ele>452</ele>
        <time>2025-08-08T06:48:47.000Z</time>
      </trkpt>
      <trkpt lat="46.3904" lon="5.86326">
        <ele>451.79998779297</ele>
        <time>2025-08-08T06:48:49.000Z</time>
      </trkpt>
      <trkpt lat="46.39038" lon="5.8633">
        <ele>451.60000610352</ele>
        <time>2025-08-08T06:48:50.000Z</time>
      </trkpt>
      <trkpt lat="46.39038" lon="5.86337">
        <ele>451.39999389648</ele>
        <time>2025-08-08T06:48:52.000Z</time>
      </trkpt>
      <trkpt lat="46.3904" lon="5.86342">
        <ele>451.39999389648</ele>
        <time>2025-08-08T06:48:53.000Z</time>
      </trkpt>
      <trkpt lat="46.39043" lon="5.86348">
        <ele>451.39999389648</ele>
        <time>2025-08-08T06:48:54.000Z</time>
      </trkpt>
      <trkpt lat="46.3905" lon="5.86357">
        <ele>451.20001220703</ele>
        <time>2025-08-08T06:48:56.000Z</time>
      </trkpt>
      <trkpt lat="46.39053" lon="5.86361">
        <ele>451.20001220703</ele>
        <time>2025-08-08T06:48:57.000Z</time>
      </trkpt>
      <trkpt lat="46.39059" lon="5.86373">
        <ele>451.20001220703</ele>
        <time>2025-08-08T06:48:59.000Z</time>
      </trkpt>
      <trkpt lat="46.39059" lon="5.8638">
        <ele>451.20001220703</ele>
        <time>2025-08-08T06:49:00.000Z</time>
      </trkpt>
      <trkpt lat="46.39059" lon="5.86387">
        <ele>451.20001220703</ele>
        <time>2025-08-08T06:49:01.000Z</time>
      </trkpt>
      <trkpt lat="46.39059" lon="5.86407">
        <ele>451.20001220703</ele>
        <time>2025-08-08T06:49:04.000Z</time>
      </trkpt>
      <trkpt lat="46.39061" lon="5.86413">
        <ele>451.20001220703</ele>
        <time>2025-08-08T06:49:05.000Z</time>
      </trkpt>
      <trkpt lat="46.39064" lon="5.86419">
        <ele>451.20001220703</ele>
        <time>2025-08-08T06:49:06.000Z</time>
      </trkpt>
      <trkpt lat="46.39071" lon="5.86425">
        <ele>451.39999389648</ele>
        <time>2025-08-08T06:49:08.000Z</time>
      </trkpt>
      <trkpt lat="46.39089" lon="5.86428">
        <ele>451.60000610352</ele>
        <time>2025-08-08T06:49:12.000Z</time>
      </trkpt>
      <trkpt lat="46.39109" lon="5.86428">
        <ele>451.79998779297</ele>
        <time>2025-08-08T06:49:16.000Z</time>
      </trkpt>
      <trkpt lat="46.39138" lon="5.86425">
        <ele>452.39999389648</ele>
        <time>2025-08-08T06:49:22.000Z</time>
      </trkpt>
      <trkpt lat="46.39146" lon="5.86429">
        <ele>452.39999389648</ele>
        <time>2025-08-08T06:49:24.000Z</time>
      </trkpt>
      <trkpt lat="46.39148" lon="5.86441">
        <ele>452.79998779297</ele>
        <time>2025-08-08T06:49:26.000Z</time>
      </trkpt>
      <trkpt lat="46.39148" lon="5.86466">
        <ele>453.20001220703</ele>
        <time>2025-08-08T06:49:31.000Z</time>
      </trkpt>
      <trkpt lat="46.39147" lon="5.86484">
        <ele>454</ele>
        <time>2025-08-08T06:49:35.000Z</time>
      </trkpt>
      <trkpt lat="46.39138" lon="5.86497">
        <ele>454.79998779297</ele>
        <time>2025-08-08T06:49:39.000Z</time>
      </trkpt>
      <trkpt lat="46.39134" lon="5.86497">
        <ele>455</ele>
        <time>2025-08-08T06:49:40.000Z</time>
      </trkpt>
      <trkpt lat="46.39113" lon="5.865">
        <ele>455.39999389648</ele>
        <time>2025-08-08T06:49:45.000Z</time>
      </trkpt>
      <trkpt lat="46.39084" lon="5.86502">
        <ele>455</ele>
        <time>2025-08-08T06:49:51.000Z</time>
      </trkpt>
      <trkpt lat="46.39065" lon="5.86506">
        <ele>455</ele>
        <time>2025-08-08T06:49:56.000Z</time>
      </trkpt>
      <trkpt lat="46.39039" lon="5.86509">
        <ele>455.60000610352</ele>
        <time>2025-08-08T06:50:02.000Z</time>
      </trkpt>
      <trkpt lat="46.39026" lon="5.86509">
        <ele>456.20001220703</ele>
        <time>2025-08-08T06:50:05.000Z</time>
      </trkpt>
      <trkpt lat="46.39011" lon="5.86509">
        <ele>456.39999389648</ele>
        <time>2025-08-08T06:50:08.000Z</time>
      </trkpt>
      <trkpt lat="46.38993" lon="5.8651">
        <ele>456.79998779297</ele>
        <time>2025-08-08T06:50:12.000Z</time>
      </trkpt>
      <trkpt lat="46.38984" lon="5.86512">
        <ele>456.79998779297</ele>
        <time>2025-08-08T06:50:14.000Z</time>
      </trkpt>
      <trkpt lat="46.38939" lon="5.86521">
        <ele>457.20001220703</ele>
        <time>2025-08-08T06:50:23.000Z</time>
      </trkpt>
      <trkpt lat="46.38918" lon="5.86526">
        <ele>458</ele>
        <time>2025-08-08T06:50:29.000Z</time>
      </trkpt>
      <trkpt lat="46.38912" lon="5.86531">
        <ele>458.39999389648</ele>
        <time>2025-08-08T06:50:31.000Z</time>
      </trkpt>
      <trkpt lat="46.38899" lon="5.86542">
        <ele>459.60000610352</ele>
        <time>2025-08-08T06:50:35.000Z</time>
      </trkpt>
      <trkpt lat="46.3888" lon="5.86561">
        <ele>460.60000610352</ele>
        <time>2025-08-08T06:50:41.000Z</time>
      </trkpt>
      <trkpt lat="46.38872" lon="5.8657">
        <ele>461</ele>
        <time>2025-08-08T06:50:44.000Z</time>
      </trkpt>
      <trkpt lat="46.38861" lon="5.86577">
        <ele>461.79998779297</ele>
        <time>2025-08-08T06:50:48.000Z</time>
      </trkpt>
      <trkpt lat="46.38858" lon="5.86578">
        <ele>462.20001220703</ele>
        <time>2025-08-08T06:50:49.000Z</time>
      </trkpt>
      <trkpt lat="46.38842" lon="5.86582">
        <ele>462.79998779297</ele>
        <time>2025-08-08T06:50:53.000Z</time>
      </trkpt>
      <trkpt lat="46.38834" lon="5.86583">
        <ele>463</ele>
        <time>2025-08-08T06:50:55.000Z</time>
      </trkpt>
      <trkpt lat="46.38817" lon="5.86582">
        <ele>463</ele>
        <time>2025-08-08T06:50:59.000Z</time>
      </trkpt>
      <trkpt lat="46.38793" lon="5.86585">
        <ele>463</ele>
        <time>2025-08-08T06:51:04.000Z</time>
      </trkpt>
      <trkpt lat="46.38782" lon="5.86588">
        <ele>462.79998779297</ele>
        <time>2025-08-08T06:51:06.000Z</time>
      </trkpt>
      <trkpt lat="46.38771" lon="5.86595">
        <ele>462.39999389648</ele>
        <time>2025-08-08T06:51:08.000Z</time>
      </trkpt>
      <trkpt lat="46.38763" lon="5.86601">
        <ele>462</ele>
        <time>2025-08-08T06:51:10.000Z</time>
      </trkpt>
      <trkpt lat="46.38758" lon="5.86602">
        <ele>461.79998779297</ele>
        <time>2025-08-08T06:51:11.000Z</time>
      </trkpt>
      <trkpt lat="46.38753" lon="5.86603">
        <ele>461.60000610352</ele>
        <time>2025-08-08T06:51:12.000Z</time>
      </trkpt>
      <trkpt lat="46.38742" lon="5.86609">
        <ele>461.20001220703</ele>
        <time>2025-08-08T06:51:14.000Z</time>
      </trkpt>
      <trkpt lat="46.38738" lon="5.86612">
        <ele>461.20001220703</ele>
        <time>2025-08-08T06:51:15.000Z</time>
      </trkpt>
      <trkpt lat="46.38734" lon="5.86617">
        <ele>461</ele>
        <time>2025-08-08T06:51:16.000Z</time>
      </trkpt>
      <trkpt lat="46.38728" lon="5.86629">
        <ele>460.60000610352</ele>
        <time>2025-08-08T06:51:18.000Z</time>
      </trkpt>
      <trkpt lat="46.38716" lon="5.86648">
        <ele>460.20001220703</ele>
        <time>2025-08-08T06:51:21.000Z</time>
      </trkpt>
      <trkpt lat="46.38712" lon="5.86655">
        <ele>459.39999389648</ele>
        <time>2025-08-08T06:51:22.000Z</time>
      </trkpt>
      <trkpt lat="46.38701" lon="5.86677">
        <ele>458.39999389648</ele>
        <time>2025-08-08T06:51:26.000Z</time>
      </trkpt>
      <trkpt lat="46.38699" lon="5.86681">
        <ele>458</ele>
        <time>2025-08-08T06:51:27.000Z</time>
      </trkpt>
      <trkpt lat="46.38692" lon="5.86694">
        <ele>457.20001220703</ele>
        <time>2025-08-08T06:51:31.000Z</time>
      </trkpt>
      <trkpt lat="46.38692" lon="5.86697">
        <ele>457.20001220703</ele>
        <time>2025-08-08T06:51:32.000Z</time>
      </trkpt>
      <trkpt lat="46.38692" lon="5.867">
        <ele>456.79998779297</ele>
        <time>2025-08-08T06:51:34.000Z</time>
      </trkpt>
      <trkpt lat="46.38692" lon="5.867">
        <ele>456.79998779297</ele>
        <time>2025-08-08T06:51:35.000Z</time>
      </trkpt>
      <trkpt lat="46.38692" lon="5.867">
        <ele>456.79998779297</ele>
        <time>2025-08-08T06:51:36.000Z</time>
      </trkpt>
      <trkpt lat="46.38689" lon="5.86704">
        <ele>456.39999389648</ele>
        <time>2025-08-08T06:51:45.000Z</time>
      </trkpt>
      <trkpt lat="46.38685" lon="5.86708">
        <ele>456.39999389648</ele>
        <time>2025-08-08T06:51:47.000Z</time>
      </trkpt>
      <trkpt lat="46.38682" lon="5.86709">
        <ele>456.39999389648</ele>
        <time>2025-08-08T06:51:48.000Z</time>
      </trkpt>
      <trkpt lat="46.38679" lon="5.86706">
        <ele>456.20001220703</ele>
        <time>2025-08-08T06:51:50.000Z</time>
      </trkpt>
      <trkpt lat="46.38671" lon="5.86705">
        <ele>456.20001220703</ele>
        <time>2025-08-08T06:51:52.000Z</time>
      </trkpt>
      <trkpt lat="46.38665" lon="5.86707">
        <ele>456.20001220703</ele>
        <time>2025-08-08T06:51:53.000Z</time>
      </trkpt>
      <trkpt lat="46.3866" lon="5.86709">
        <ele>456.20001220703</ele>
        <time>2025-08-08T06:51:54.000Z</time>
      </trkpt>
      <trkpt lat="46.38653" lon="5.86716">
        <ele>455.79998779297</ele>
        <time>2025-08-08T06:51:56.000Z</time>
      </trkpt>
      <trkpt lat="46.38649" lon="5.86721">
        <ele>455.60000610352</ele>
        <time>2025-08-08T06:51:57.000Z</time>
      </trkpt>
      <trkpt lat="46.38624" lon="5.86761">
        <ele>455.20001220703</ele>
        <time>2025-08-08T06:52:05.000Z</time>
      </trkpt>
      <trkpt lat="46.3862" lon="5.86765">
        <ele>455.20001220703</ele>
        <time>2025-08-08T06:52:06.000Z</time>
      </trkpt>
      <trkpt lat="46.38615" lon="5.8677">
        <ele>455.20001220703</ele>
        <time>2025-08-08T06:52:07.000Z</time>
      </trkpt>
      <trkpt lat="46.38594" lon="5.86792">
        <ele>455.60000610352</ele>
        <time>2025-08-08T06:52:12.000Z</time>
      </trkpt>
      <trkpt lat="46.38581" lon="5.86804">
        <ele>455.60000610352</ele>
        <time>2025-08-08T06:52:15.000Z</time>
      </trkpt>
      <trkpt lat="46.38571" lon="5.86812">
        <ele>455.60000610352</ele>
        <time>2025-08-08T06:52:17.000Z</time>
      </trkpt>
      <trkpt lat="46.38535" lon="5.86835">
        <ele>455.79998779297</ele>
        <time>2025-08-08T06:52:24.000Z</time>
      </trkpt>
      <trkpt lat="46.38533" lon="5.8684">
        <ele>456</ele>
        <time>2025-08-08T06:52:25.000Z</time>
      </trkpt>
      <trkpt lat="46.38505" lon="5.86891">
        <ele>456.20001220703</ele>
        <time>2025-08-08T06:52:33.000Z</time>
      </trkpt>
      <trkpt lat="46.38468" lon="5.86934">
        <ele>456.60000610352</ele>
        <time>2025-08-08T06:52:42.000Z</time>
      </trkpt>
      <trkpt lat="46.38433" lon="5.86986">
        <ele>456.60000610352</ele>
        <time>2025-08-08T06:52:51.000Z</time>
      </trkpt>
      <trkpt lat="46.38421" lon="5.87002">
        <ele>456.60000610352</ele>
        <time>2025-08-08T06:52:54.000Z</time>
      </trkpt>
      <trkpt lat="46.38406" lon="5.87013">
        <ele>456.60000610352</ele>
        <time>2025-08-08T06:52:57.000Z</time>
      </trkpt>
      <trkpt lat="46.3837" lon="5.87031">
        <ele>456.60000610352</ele>
        <time>2025-08-08T06:53:04.000Z</time>
      </trkpt>
      <trkpt lat="46.38351" lon="5.87039">
        <ele>456.60000610352</ele>
        <time>2025-08-08T06:53:08.000Z</time>
      </trkpt>
      <trkpt lat="46.38342" lon="5.8704">
        <ele>456.79998779297</ele>
        <time>2025-08-08T06:53:10.000Z</time>
      </trkpt>
      <trkpt lat="46.38317" lon="5.87025">
        <ele>457</ele>
        <time>2025-08-08T06:53:15.000Z</time>
      </trkpt>
      <trkpt lat="46.38306" lon="5.87018">
        <ele>457</ele>
        <time>2025-08-08T06:53:17.000Z</time>
      </trkpt>
      <trkpt lat="46.3829" lon="5.87008">
        <ele>456.60000610352</ele>
        <time>2025-08-08T06:53:20.000Z</time>
      </trkpt>
      <trkpt lat="46.38272" lon="5.87008">
        <ele>456</ele>
        <time>2025-08-08T06:53:23.000Z</time>
      </trkpt>
      <trkpt lat="46.38266" lon="5.87009">
        <ele>456</ele>
        <time>2025-08-08T06:53:24.000Z</time>
      </trkpt>
      <trkpt lat="46.3826" lon="5.87014">
        <ele>455.79998779297</ele>
        <time>2025-08-08T06:53:25.000Z</time>
      </trkpt>
      <trkpt lat="46.3825" lon="5.87025">
        <ele>455.60000610352</ele>
        <time>2025-08-08T06:53:27.000Z</time>
      </trkpt>
      <trkpt lat="46.38238" lon="5.87041">
        <ele>455.79998779297</ele>
        <time>2025-08-08T06:53:30.000Z</time>
      </trkpt>
      <trkpt lat="46.38229" lon="5.87055">
        <ele>455.60000610352</ele>
        <time>2025-08-08T06:53:32.000Z</time>
      </trkpt>
      <trkpt lat="46.38208" lon="5.87092">
        <ele>455.79998779297</ele>
        <time>2025-08-08T06:53:38.000Z</time>
      </trkpt>
      <trkpt lat="46.38206" lon="5.87099">
        <ele>455.79998779297</ele>
        <time>2025-08-08T06:53:39.000Z</time>
      </trkpt>
      <trkpt lat="46.38191" lon="5.87137">
        <ele>456.39999389648</ele>
        <time>2025-08-08T06:53:45.000Z</time>
      </trkpt>
      <trkpt lat="46.38185" lon="5.87149">
        <ele>456.79998779297</ele>
        <time>2025-08-08T06:53:47.000Z</time>
      </trkpt>
      <trkpt lat="46.38166" lon="5.87186">
        <ele>457</ele>
        <time>2025-08-08T06:53:53.000Z</time>
      </trkpt>
      <trkpt lat="46.38149" lon="5.87218">
        <ele>456.79998779297</ele>
        <time>2025-08-08T06:53:58.000Z</time>
      </trkpt>
      <trkpt lat="46.38143" lon="5.87232">
        <ele>456.79998779297</ele>
        <time>2025-08-08T06:54:00.000Z</time>
      </trkpt>
      <trkpt lat="46.38109" lon="5.87298">
        <ele>456.79998779297</ele>
        <time>2025-08-08T06:54:10.000Z</time>
      </trkpt>
      <trkpt lat="46.38105" lon="5.87304">
        <ele>456.79998779297</ele>
        <time>2025-08-08T06:54:11.000Z</time>
      </trkpt>
      <trkpt lat="46.38072" lon="5.87372">
        <ele>457</ele>
        <time>2025-08-08T06:54:21.000Z</time>
      </trkpt>
      <trkpt lat="46.38044" lon="5.87433">
        <ele>457.39999389648</ele>
        <time>2025-08-08T06:54:30.000Z</time>
      </trkpt>
      <trkpt lat="46.38028" lon="5.87457">
        <ele>457.60000610352</ele>
        <time>2025-08-08T06:54:34.000Z</time>
      </trkpt>
      <trkpt lat="46.38018" lon="5.87467">
        <ele>457.60000610352</ele>
        <time>2025-08-08T06:54:36.000Z</time>
      </trkpt>
      <trkpt lat="46.38008" lon="5.87473">
        <ele>457.60000610352</ele>
        <time>2025-08-08T06:54:38.000Z</time>
      </trkpt>
      <trkpt lat="46.37996" lon="5.87477">
        <ele>457.60000610352</ele>
        <time>2025-08-08T06:54:40.000Z</time>
      </trkpt>
      <trkpt lat="46.37954" lon="5.87476">
        <ele>457.39999389648</ele>
        <time>2025-08-08T06:54:47.000Z</time>
      </trkpt>
      <trkpt lat="46.3792" lon="5.87456">
        <ele>457</ele>
        <time>2025-08-08T06:54:53.000Z</time>
      </trkpt>
      <trkpt lat="46.37908" lon="5.87449">
        <ele>457</ele>
        <time>2025-08-08T06:54:55.000Z</time>
      </trkpt>
      <trkpt lat="46.37889" lon="5.87444">
        <ele>456.39999389648</ele>
        <time>2025-08-08T06:54:58.000Z</time>
      </trkpt>
      <trkpt lat="46.3786" lon="5.8744">
        <ele>456.20001220703</ele>
        <time>2025-08-08T06:55:02.000Z</time>
      </trkpt>
      <trkpt lat="46.37832" lon="5.87423">
        <ele>455.60000610352</ele>
        <time>2025-08-08T06:55:06.000Z</time>
      </trkpt>
      <trkpt lat="46.37825" lon="5.87418">
        <ele>455.39999389648</ele>
        <time>2025-08-08T06:55:07.000Z</time>
      </trkpt>
      <trkpt lat="46.37797" lon="5.87397">
        <ele>454.20001220703</ele>
        <time>2025-08-08T06:55:11.000Z</time>
      </trkpt>
      <trkpt lat="46.37784" lon="5.87384">
        <ele>453.60000610352</ele>
        <time>2025-08-08T06:55:13.000Z</time>
      </trkpt>
      <trkpt lat="46.37777" lon="5.87377">
        <ele>453.20001220703</ele>
        <time>2025-08-08T06:55:14.000Z</time>
      </trkpt>
      <trkpt lat="46.37747" lon="5.87324">
        <ele>452.20001220703</ele>
        <time>2025-08-08T06:55:20.000Z</time>
      </trkpt>
      <trkpt lat="46.37742" lon="5.87315">
        <ele>452</ele>
        <time>2025-08-08T06:55:21.000Z</time>
      </trkpt>
      <trkpt lat="46.37728" lon="5.87286">
        <ele>451</ele>
        <time>2025-08-08T06:55:24.000Z</time>
      </trkpt>
      <trkpt lat="46.3772" lon="5.87269">
        <ele>450</ele>
        <time>2025-08-08T06:55:26.000Z</time>
      </trkpt>
      <trkpt lat="46.37717" lon="5.87261">
        <ele>449.79998779297</ele>
        <time>2025-08-08T06:55:27.000Z</time>
      </trkpt>
      <trkpt lat="46.3771" lon="5.87245">
        <ele>449.20001220703</ele>
        <time>2025-08-08T06:55:29.000Z</time>
      </trkpt>
      <trkpt lat="46.37706" lon="5.87226">
        <ele>448.39999389648</ele>
        <time>2025-08-08T06:55:31.000Z</time>
      </trkpt>
      <trkpt lat="46.37704" lon="5.87208">
        <ele>448.20001220703</ele>
        <time>2025-08-08T06:55:33.000Z</time>
      </trkpt>
      <trkpt lat="46.37701" lon="5.8719">
        <ele>448.20001220703</ele>
        <time>2025-08-08T06:55:35.000Z</time>
      </trkpt>
      <trkpt lat="46.377" lon="5.87181">
        <ele>448</ele>
        <time>2025-08-08T06:55:36.000Z</time>
      </trkpt>
      <trkpt lat="46.37699" lon="5.87172">
        <ele>448</ele>
        <time>2025-08-08T06:55:37.000Z</time>
      </trkpt>
      <trkpt lat="46.37692" lon="5.87155">
        <ele>447.79998779297</ele>
        <time>2025-08-08T06:55:39.000Z</time>
      </trkpt>
      <trkpt lat="46.37688" lon="5.87148">
        <ele>447.79998779297</ele>
        <time>2025-08-08T06:55:40.000Z</time>
      </trkpt>
      <trkpt lat="46.37683" lon="5.87142">
        <ele>447.60000610352</ele>
        <time>2025-08-08T06:55:41.000Z</time>
      </trkpt>
      <trkpt lat="46.37654" lon="5.87104">
        <ele>447.39999389648</ele>
        <time>2025-08-08T06:55:47.000Z</time>
      </trkpt>
      <trkpt lat="46.37635" lon="5.87081">
        <ele>447.39999389648</ele>
        <time>2025-08-08T06:55:51.000Z</time>
      </trkpt>
      <trkpt lat="46.3763" lon="5.87077">
        <ele>447.60000610352</ele>
        <time>2025-08-08T06:55:52.000Z</time>
      </trkpt>
      <trkpt lat="46.37624" lon="5.87073">
        <ele>447.60000610352</ele>
        <time>2025-08-08T06:55:53.000Z</time>
      </trkpt>
      <trkpt lat="46.37616" lon="5.87072">
        <ele>447.79998779297</ele>
        <time>2025-08-08T06:55:55.000Z</time>
      </trkpt>
      <trkpt lat="46.3761" lon="5.87072">
        <ele>447.79998779297</ele>
        <time>2025-08-08T06:55:56.000Z</time>
      </trkpt>
      <trkpt lat="46.37601" lon="5.87074">
        <ele>448</ele>
        <time>2025-08-08T06:55:58.000Z</time>
      </trkpt>
      <trkpt lat="46.37592" lon="5.87072">
        <ele>448.60000610352</ele>
        <time>2025-08-08T06:56:00.000Z</time>
      </trkpt>
      <trkpt lat="46.37584" lon="5.87074">
        <ele>448.79998779297</ele>
        <time>2025-08-08T06:56:02.000Z</time>
      </trkpt>
      <trkpt lat="46.3758" lon="5.87074">
        <ele>449</ele>
        <time>2025-08-08T06:56:03.000Z</time>
      </trkpt>
      <trkpt lat="46.37567" lon="5.87071">
        <ele>450</ele>
        <time>2025-08-08T06:56:07.000Z</time>
      </trkpt>
      <trkpt lat="46.37554" lon="5.87074">
        <ele>450.79998779297</ele>
        <time>2025-08-08T06:56:11.000Z</time>
      </trkpt>
      <trkpt lat="46.3755" lon="5.87076">
        <ele>451</ele>
        <time>2025-08-08T06:56:12.000Z</time>
      </trkpt>
      <trkpt lat="46.37547" lon="5.87078">
        <ele>451</ele>
        <time>2025-08-08T06:56:13.000Z</time>
      </trkpt>
      <trkpt lat="46.37537" lon="5.87077">
        <ele>451.60000610352</ele>
        <time>2025-08-08T06:56:16.000Z</time>
      </trkpt>
      <trkpt lat="46.37534" lon="5.87077">
        <ele>452</ele>
        <time>2025-08-08T06:56:17.000Z</time>
      </trkpt>
      <trkpt lat="46.37516" lon="5.87077">
        <ele>453.20001220703</ele>
        <time>2025-08-08T06:56:23.000Z</time>
      </trkpt>
      <trkpt lat="46.37505" lon="5.87077">
        <ele>453.79998779297</ele>
        <time>2025-08-08T06:56:27.000Z</time>
      </trkpt>
      <trkpt lat="46.37499" lon="5.87076">
        <ele>454.39999389648</ele>
        <time>2025-08-08T06:56:29.000Z</time>
      </trkpt>
      <trkpt lat="46.37485" lon="5.87074">
        <ele>455.60000610352</ele>
        <time>2025-08-08T06:56:34.000Z</time>
      </trkpt>
      <trkpt lat="46.37467" lon="5.87068">
        <ele>456.60000610352</ele>
        <time>2025-08-08T06:56:40.000Z</time>
      </trkpt>
      <trkpt lat="46.37464" lon="5.87067">
        <ele>456.79998779297</ele>
        <time>2025-08-08T06:56:41.000Z</time>
      </trkpt>
      <trkpt lat="46.37448" lon="5.87057">
        <ele>458</ele>
        <time>2025-08-08T06:56:47.000Z</time>
      </trkpt>
      <trkpt lat="46.37445" lon="5.87056">
        <ele>458</ele>
        <time>2025-08-08T06:56:48.000Z</time>
      </trkpt>
      <trkpt lat="46.37431" lon="5.87047">
        <ele>459</ele>
        <time>2025-08-08T06:56:53.000Z</time>
      </trkpt>
      <trkpt lat="46.3742" lon="5.87039">
        <ele>459.79998779297</ele>
        <time>2025-08-08T06:56:57.000Z</time>
      </trkpt>
      <trkpt lat="46.37417" lon="5.87037">
        <ele>460</ele>
        <time>2025-08-08T06:56:58.000Z</time>
      </trkpt>
      <trkpt lat="46.37398" lon="5.87026">
        <ele>461.20001220703</ele>
        <time>2025-08-08T06:57:05.000Z</time>
      </trkpt>
      <trkpt lat="46.37376" lon="5.8701">
        <ele>462.20001220703</ele>
        <time>2025-08-08T06:57:13.000Z</time>
      </trkpt>
      <trkpt lat="46.37373" lon="5.87008">
        <ele>462.60000610352</ele>
        <time>2025-08-08T06:57:14.000Z</time>
      </trkpt>
      <trkpt lat="46.37363" lon="5.87002">
        <ele>463.39999389648</ele>
        <time>2025-08-08T06:57:18.000Z</time>
      </trkpt>
      <trkpt lat="46.37358" lon="5.86997">
        <ele>463.79998779297</ele>
        <time>2025-08-08T06:57:20.000Z</time>
      </trkpt>
      <trkpt lat="46.37348" lon="5.86991">
        <ele>464.60000610352</ele>
        <time>2025-08-08T06:57:24.000Z</time>
      </trkpt>
      <trkpt lat="46.37343" lon="5.86987">
        <ele>465.20001220703</ele>
        <time>2025-08-08T06:57:26.000Z</time>
      </trkpt>
      <trkpt lat="46.37335" lon="5.86984">
        <ele>465.79998779297</ele>
        <time>2025-08-08T06:57:29.000Z</time>
      </trkpt>
      <trkpt lat="46.37327" lon="5.8698">
        <ele>466.20001220703</ele>
        <time>2025-08-08T06:57:32.000Z</time>
      </trkpt>
      <trkpt lat="46.37315" lon="5.86975">
        <ele>467</ele>
        <time>2025-08-08T06:57:36.000Z</time>
      </trkpt>
      <trkpt lat="46.37304" lon="5.86972">
        <ele>467.39999389648</ele>
        <time>2025-08-08T06:57:40.000Z</time>
      </trkpt>
      <trkpt lat="46.37293" lon="5.86964">
        <ele>468</ele>
        <time>2025-08-08T06:57:44.000Z</time>
      </trkpt>
      <trkpt lat="46.3729" lon="5.86961">
        <ele>468</ele>
        <time>2025-08-08T06:57:45.000Z</time>
      </trkpt>
      <trkpt lat="46.37278" lon="5.86949">
        <ele>469</ele>
        <time>2025-08-08T06:57:50.000Z</time>
      </trkpt>
      <trkpt lat="46.37275" lon="5.86948">
        <ele>469</ele>
        <time>2025-08-08T06:57:51.000Z</time>
      </trkpt>
      <trkpt lat="46.37262" lon="5.86944">
        <ele>470.20001220703</ele>
        <time>2025-08-08T06:57:56.000Z</time>
      </trkpt>
      <trkpt lat="46.37259" lon="5.86943">
        <ele>470.39999389648</ele>
        <time>2025-08-08T06:57:57.000Z</time>
      </trkpt>
      <trkpt lat="46.37244" lon="5.86934">
        <ele>471.20001220703</ele>
        <time>2025-08-08T06:58:02.000Z</time>
      </trkpt>
      <trkpt lat="46.37239" lon="5.8693">
        <ele>471.60000610352</ele>
        <time>2025-08-08T06:58:04.000Z</time>
      </trkpt>
      <trkpt lat="46.37229" lon="5.86923">
        <ele>472.20001220703</ele>
        <time>2025-08-08T06:58:08.000Z</time>
      </trkpt>
      <trkpt lat="46.37224" lon="5.86917">
        <ele>472.20001220703</ele>
        <time>2025-08-08T06:58:10.000Z</time>
      </trkpt>
      <trkpt lat="46.37221" lon="5.86916">
        <ele>472.60000610352</ele>
        <time>2025-08-08T06:58:11.000Z</time>
      </trkpt>
      <trkpt lat="46.37214" lon="5.86912">
        <ele>473.20001220703</ele>
        <time>2025-08-08T06:58:14.000Z</time>
      </trkpt>
      <trkpt lat="46.37204" lon="5.86908">
        <ele>474.20001220703</ele>
        <time>2025-08-08T06:58:18.000Z</time>
      </trkpt>
      <trkpt lat="46.37202" lon="5.86907">
        <ele>474.39999389648</ele>
        <time>2025-08-08T06:58:19.000Z</time>
      </trkpt>
      <trkpt lat="46.37199" lon="5.86906">
        <ele>474.39999389648</ele>
        <time>2025-08-08T06:58:20.000Z</time>
      </trkpt>
      <trkpt lat="46.37194" lon="5.86905">
        <ele>474.79998779297</ele>
        <time>2025-08-08T06:58:22.000Z</time>
      </trkpt>
      <trkpt lat="46.37182" lon="5.86901">
        <ele>475.39999389648</ele>
        <time>2025-08-08T06:58:26.000Z</time>
      </trkpt>
      <trkpt lat="46.37164" lon="5.86895">
        <ele>476.39999389648</ele>
        <time>2025-08-08T06:58:32.000Z</time>
      </trkpt>
      <trkpt lat="46.37162" lon="5.86894">
        <ele>476.39999389648</ele>
        <time>2025-08-08T06:58:33.000Z</time>
      </trkpt>
      <trkpt lat="46.37154" lon="5.86891">
        <ele>477.20001220703</ele>
        <time>2025-08-08T06:58:36.000Z</time>
      </trkpt>
      <trkpt lat="46.37146" lon="5.86887">
        <ele>477.79998779297</ele>
        <time>2025-08-08T06:58:39.000Z</time>
      </trkpt>
      <trkpt lat="46.37138" lon="5.86879">
        <ele>478.39999389648</ele>
        <time>2025-08-08T06:58:42.000Z</time>
      </trkpt>
      <trkpt lat="46.37131" lon="5.8687">
        <ele>478.79998779297</ele>
        <time>2025-08-08T06:58:45.000Z</time>
      </trkpt>
      <trkpt lat="46.37122" lon="5.86859">
        <ele>479.39999389648</ele>
        <time>2025-08-08T06:58:49.000Z</time>
      </trkpt>
      <trkpt lat="46.37115" lon="5.86849">
        <ele>479.79998779297</ele>
        <time>2025-08-08T06:58:52.000Z</time>
      </trkpt>
      <trkpt lat="46.37103" lon="5.86831">
        <ele>480.79998779297</ele>
        <time>2025-08-08T06:58:58.000Z</time>
      </trkpt>
      <trkpt lat="46.37101" lon="5.86828">
        <ele>481</ele>
        <time>2025-08-08T06:58:59.000Z</time>
      </trkpt>
      <trkpt lat="46.37086" lon="5.86808">
        <ele>482.20001220703</ele>
        <time>2025-08-08T06:59:06.000Z</time>
      </trkpt>
      <trkpt lat="46.37083" lon="5.86804">
        <ele>482.60000610352</ele>
        <time>2025-08-08T06:59:08.000Z</time>
      </trkpt>
      <trkpt lat="46.37082" lon="5.86802">
        <ele>483.20001220703</ele>
        <time>2025-08-08T06:59:12.000Z</time>
      </trkpt>
      <trkpt lat="46.37078" lon="5.86799">
        <ele>483.79998779297</ele>
        <time>2025-08-08T07:00:14.000Z</time>
      </trkpt>
      <trkpt lat="46.37063" lon="5.8678">
        <ele>484.20001220703</ele>
        <time>2025-08-08T07:00:21.000Z</time>
      </trkpt>
      <trkpt lat="46.37052" lon="5.86765">
        <ele>484.79998779297</ele>
        <time>2025-08-08T07:00:26.000Z</time>
      </trkpt>
      <trkpt lat="46.37048" lon="5.86759">
        <ele>485.20001220703</ele>
        <time>2025-08-08T07:00:28.000Z</time>
      </trkpt>
      <trkpt lat="46.37039" lon="5.86748">
        <ele>486</ele>
        <time>2025-08-08T07:00:32.000Z</time>
      </trkpt>
      <trkpt lat="46.37026" lon="5.8673">
        <ele>487.20001220703</ele>
        <time>2025-08-08T07:00:38.000Z</time>
      </trkpt>
      <trkpt lat="46.37024" lon="5.86727">
        <ele>487.39999389648</ele>
        <time>2025-08-08T07:00:39.000Z</time>
      </trkpt>
      <trkpt lat="46.37015" lon="5.86716">
        <ele>488.20001220703</ele>
        <time>2025-08-08T07:00:43.000Z</time>
      </trkpt>
      <trkpt lat="46.37002" lon="5.86698">
        <ele>489.39999389648</ele>
        <time>2025-08-08T07:00:49.000Z</time>
      </trkpt>
      <trkpt lat="46.37" lon="5.86695">
        <ele>489.79998779297</ele>
        <time>2025-08-08T07:00:50.000Z</time>
      </trkpt>
      <trkpt lat="46.36997" lon="5.86693">
        <ele>489.79998779297</ele>
        <time>2025-08-08T07:00:51.000Z</time>
      </trkpt>
      <trkpt lat="46.36989" lon="5.86682">
        <ele>490.39999389648</ele>
        <time>2025-08-08T07:00:55.000Z</time>
      </trkpt>
      <trkpt lat="46.36982" lon="5.86674">
        <ele>490.79998779297</ele>
        <time>2025-08-08T07:00:58.000Z</time>
      </trkpt>
      <trkpt lat="46.36975" lon="5.86668">
        <ele>491.60000610352</ele>
        <time>2025-08-08T07:01:01.000Z</time>
      </trkpt>
      <trkpt lat="46.36965" lon="5.86659">
        <ele>492.60000610352</ele>
        <time>2025-08-08T07:01:05.000Z</time>
      </trkpt>
      <trkpt lat="46.36963" lon="5.86656">
        <ele>492.79998779297</ele>
        <time>2025-08-08T07:01:06.000Z</time>
      </trkpt>
      <trkpt lat="46.36955" lon="5.86639">
        <ele>493.79998779297</ele>
        <time>2025-08-08T07:01:11.000Z</time>
      </trkpt>
      <trkpt lat="46.36951" lon="5.86631">
        <ele>494.20001220703</ele>
        <time>2025-08-08T07:01:13.000Z</time>
      </trkpt>
      <trkpt lat="46.3694" lon="5.86609">
        <ele>495.20001220703</ele>
        <time>2025-08-08T07:01:19.000Z</time>
      </trkpt>
      <trkpt lat="46.36934" lon="5.86597">
        <ele>496</ele>
        <time>2025-08-08T07:01:23.000Z</time>
      </trkpt>
      <trkpt lat="46.36929" lon="5.86592">
        <ele>496.39999389648</ele>
        <time>2025-08-08T07:01:25.000Z</time>
      </trkpt>
      <trkpt lat="46.3692" lon="5.8657">
        <ele>497.39999389648</ele>
        <time>2025-08-08T07:01:31.000Z</time>
      </trkpt>
      <trkpt lat="46.36919" lon="5.86567">
        <ele>497.39999389648</ele>
        <time>2025-08-08T07:01:32.000Z</time>
      </trkpt>
      <trkpt lat="46.36913" lon="5.86552">
        <ele>497.79998779297</ele>
        <time>2025-08-08T07:01:36.000Z</time>
      </trkpt>
      <trkpt lat="46.36908" lon="5.86542">
        <ele>498.39999389648</ele>
        <time>2025-08-08T07:01:39.000Z</time>
      </trkpt>
      <trkpt lat="46.36901" lon="5.86526">
        <ele>499.79998779297</ele>
        <time>2025-08-08T07:01:44.000Z</time>
      </trkpt>
      <trkpt lat="46.36889" lon="5.86499">
        <ele>500.79998779297</ele>
        <time>2025-08-08T07:01:51.000Z</time>
      </trkpt>
      <trkpt lat="46.36883" lon="5.86477">
        <ele>502</ele>
        <time>2025-08-08T07:01:56.000Z</time>
      </trkpt>
      <trkpt lat="46.36876" lon="5.86457">
        <ele>503.20001220703</ele>
        <time>2025-08-08T07:02:01.000Z</time>
      </trkpt>
      <trkpt lat="46.36875" lon="5.86452">
        <ele>503.60000610352</ele>
        <time>2025-08-08T07:02:02.000Z</time>
      </trkpt>
      <trkpt lat="46.36872" lon="5.86444">
        <ele>503.79998779297</ele>
        <time>2025-08-08T07:02:04.000Z</time>
      </trkpt>
      <trkpt lat="46.36869" lon="5.86433">
        <ele>504.20001220703</ele>
        <time>2025-08-08T07:02:07.000Z</time>
      </trkpt>
      <trkpt lat="46.36867" lon="5.86426">
        <ele>504.79998779297</ele>
        <time>2025-08-08T07:02:09.000Z</time>
      </trkpt>
      <trkpt lat="46.36862" lon="5.86412">
        <ele>505.39999389648</ele>
        <time>2025-08-08T07:02:13.000Z</time>
      </trkpt>
      <trkpt lat="46.36859" lon="5.86402">
        <ele>506</ele>
        <time>2025-08-08T07:02:16.000Z</time>
      </trkpt>
      <trkpt lat="46.36855" lon="5.86391">
        <ele>506.39999389648</ele>
        <time>2025-08-08T07:02:19.000Z</time>
      </trkpt>
      <trkpt lat="46.36853" lon="5.86385">
        <ele>506.79998779297</ele>
        <time>2025-08-08T07:02:21.000Z</time>
      </trkpt>
      <trkpt lat="46.36847" lon="5.8637">
        <ele>507.39999389648</ele>
        <time>2025-08-08T07:02:25.000Z</time>
      </trkpt>
      <trkpt lat="46.36842" lon="5.86358">
        <ele>508</ele>
        <time>2025-08-08T07:02:29.000Z</time>
      </trkpt>
      <trkpt lat="46.36838" lon="5.86351">
        <ele>508.60000610352</ele>
        <time>2025-08-08T07:02:31.000Z</time>
      </trkpt>
      <trkpt lat="46.36829" lon="5.86332">
        <ele>509.60000610352</ele>
        <time>2025-08-08T07:02:36.000Z</time>
      </trkpt>
      <trkpt lat="46.36817" lon="5.86307">
        <ele>510.79998779297</ele>
        <time>2025-08-08T07:02:43.000Z</time>
      </trkpt>
      <trkpt lat="46.36808" lon="5.86292">
        <ele>512</ele>
        <time>2025-08-08T07:02:47.000Z</time>
      </trkpt>
      <trkpt lat="46.36796" lon="5.86275">
        <ele>513</ele>
        <time>2025-08-08T07:02:53.000Z</time>
      </trkpt>
      <trkpt lat="46.36786" lon="5.86262">
        <ele>513.59997558594</ele>
        <time>2025-08-08T07:02:57.000Z</time>
      </trkpt>
      <trkpt lat="46.36777" lon="5.86251">
        <ele>514</ele>
        <time>2025-08-08T07:03:01.000Z</time>
      </trkpt>
      <trkpt lat="46.36766" lon="5.86234">
        <ele>515.20001220703</ele>
        <time>2025-08-08T07:03:06.000Z</time>
      </trkpt>
      <trkpt lat="46.36756" lon="5.86219">
        <ele>516.20001220703</ele>
        <time>2025-08-08T07:03:11.000Z</time>
      </trkpt>
      <trkpt lat="46.36752" lon="5.86214">
        <ele>516.40002441406</ele>
        <time>2025-08-08T07:03:13.000Z</time>
      </trkpt>
      <trkpt lat="46.36743" lon="5.86198">
        <ele>517.40002441406</ele>
        <time>2025-08-08T07:03:18.000Z</time>
      </trkpt>
      <trkpt lat="46.36741" lon="5.86195">
        <ele>517.59997558594</ele>
        <time>2025-08-08T07:03:19.000Z</time>
      </trkpt>
      <trkpt lat="46.36736" lon="5.86185">
        <ele>518.40002441406</ele>
        <time>2025-08-08T07:03:23.000Z</time>
      </trkpt>
      <trkpt lat="46.36735" lon="5.86182">
        <ele>518.59997558594</ele>
        <time>2025-08-08T07:03:24.000Z</time>
      </trkpt>
      <trkpt lat="46.36729" lon="5.8617">
        <ele>519.59997558594</ele>
        <time>2025-08-08T07:03:28.000Z</time>
      </trkpt>
      <trkpt lat="46.36727" lon="5.86167">
        <ele>519.79998779297</ele>
        <time>2025-08-08T07:03:29.000Z</time>
      </trkpt>
      <trkpt lat="46.36721" lon="5.86145">
        <ele>520.59997558594</ele>
        <time>2025-08-08T07:03:34.000Z</time>
      </trkpt>
      <trkpt lat="46.3672" lon="5.8614">
        <ele>520.79998779297</ele>
        <time>2025-08-08T07:03:35.000Z</time>
      </trkpt>
      <trkpt lat="46.36719" lon="5.86133">
        <ele>521.40002441406</ele>
        <time>2025-08-08T07:03:37.000Z</time>
      </trkpt>
      <trkpt lat="46.36719" lon="5.86126">
        <ele>521.59997558594</ele>
        <time>2025-08-08T07:03:39.000Z</time>
      </trkpt>
      <trkpt lat="46.3672" lon="5.86123">
        <ele>521.79998779297</ele>
        <time>2025-08-08T07:03:40.000Z</time>
      </trkpt>
      <trkpt lat="46.36719" lon="5.86105">
        <ele>522.79998779297</ele>
        <time>2025-08-08T07:03:44.000Z</time>
      </trkpt>
      <trkpt lat="46.36718" lon="5.86101">
        <ele>523</ele>
        <time>2025-08-08T07:03:45.000Z</time>
      </trkpt>
      <trkpt lat="46.36716" lon="5.86096">
        <ele>523.20001220703</ele>
        <time>2025-08-08T07:03:47.000Z</time>
      </trkpt>
      <trkpt lat="46.36715" lon="5.86093">
        <ele>523.20001220703</ele>
        <time>2025-08-08T07:03:48.000Z</time>
      </trkpt>
      <trkpt lat="46.36706" lon="5.86081">
        <ele>524.20001220703</ele>
        <time>2025-08-08T07:03:52.000Z</time>
      </trkpt>
      <trkpt lat="46.36687" lon="5.8606">
        <ele>525.20001220703</ele>
        <time>2025-08-08T07:03:59.000Z</time>
      </trkpt>
      <trkpt lat="46.3667" lon="5.86048">
        <ele>526.20001220703</ele>
        <time>2025-08-08T07:04:05.000Z</time>
      </trkpt>
      <trkpt lat="46.36666" lon="5.86047">
        <ele>526.59997558594</ele>
        <time>2025-08-08T07:04:06.000Z</time>
      </trkpt>
      <trkpt lat="46.36653" lon="5.86046">
        <ele>527</ele>
        <time>2025-08-08T07:04:10.000Z</time>
      </trkpt>
      <trkpt lat="46.36643" lon="5.86044">
        <ele>527.59997558594</ele>
        <time>2025-08-08T07:04:13.000Z</time>
      </trkpt>
      <trkpt lat="46.3664" lon="5.86043">
        <ele>527.79998779297</ele>
        <time>2025-08-08T07:04:14.000Z</time>
      </trkpt>
      <trkpt lat="46.36624" lon="5.86033">
        <ele>528.79998779297</ele>
        <time>2025-08-08T07:04:20.000Z</time>
      </trkpt>
      <trkpt lat="46.36616" lon="5.86027">
        <ele>529.40002441406</ele>
        <time>2025-08-08T07:04:23.000Z</time>
      </trkpt>
      <trkpt lat="46.36609" lon="5.86019">
        <ele>530</ele>
        <time>2025-08-08T07:04:26.000Z</time>
      </trkpt>
      <trkpt lat="46.36592" lon="5.86001">
        <ele>531</ele>
        <time>2025-08-08T07:04:33.000Z</time>
      </trkpt>
      <trkpt lat="46.36579" lon="5.85987">
        <ele>532.20001220703</ele>
        <time>2025-08-08T07:04:38.000Z</time>
      </trkpt>
      <trkpt lat="46.36577" lon="5.85985">
        <ele>532.40002441406</ele>
        <time>2025-08-08T07:04:39.000Z</time>
      </trkpt>
      <trkpt lat="46.36563" lon="5.85964">
        <ele>533.40002441406</ele>
        <time>2025-08-08T07:04:45.000Z</time>
      </trkpt>
      <trkpt lat="46.36561" lon="5.8596">
        <ele>533.59997558594</ele>
        <time>2025-08-08T07:04:46.000Z</time>
      </trkpt>
      <trkpt lat="46.36547" lon="5.8594">
        <ele>534.59997558594</ele>
        <time>2025-08-08T07:04:52.000Z</time>
      </trkpt>
      <trkpt lat="46.36541" lon="5.85931">
        <ele>535.20001220703</ele>
        <time>2025-08-08T07:04:55.000Z</time>
      </trkpt>
      <trkpt lat="46.36533" lon="5.85923">
        <ele>535.79998779297</ele>
        <time>2025-08-08T07:04:58.000Z</time>
      </trkpt>
      <trkpt lat="46.36522" lon="5.85911">
        <ele>536.79998779297</ele>
        <time>2025-08-08T07:05:03.000Z</time>
      </trkpt>
      <trkpt lat="46.3652" lon="5.85908">
        <ele>537.20001220703</ele>
        <time>2025-08-08T07:05:04.000Z</time>
      </trkpt>
      <trkpt lat="46.36514" lon="5.85893">
        <ele>538</ele>
        <time>2025-08-08T07:05:09.000Z</time>
      </trkpt>
      <trkpt lat="46.36507" lon="5.85866">
        <ele>539.20001220703</ele>
        <time>2025-08-08T07:05:16.000Z</time>
      </trkpt>
      <trkpt lat="46.36505" lon="5.85863">
        <ele>539.20001220703</ele>
        <time>2025-08-08T07:05:17.000Z</time>
      </trkpt>
      <trkpt lat="46.36496" lon="5.85853">
        <ele>540</ele>
        <time>2025-08-08T07:05:21.000Z</time>
      </trkpt>
      <trkpt lat="46.36491" lon="5.8585">
        <ele>540.20001220703</ele>
        <time>2025-08-08T07:05:23.000Z</time>
      </trkpt>
      <trkpt lat="46.36489" lon="5.85848">
        <ele>540.40002441406</ele>
        <time>2025-08-08T07:05:24.000Z</time>
      </trkpt>
      <trkpt lat="46.36483" lon="5.85847">
        <ele>540.59997558594</ele>
        <time>2025-08-08T07:05:26.000Z</time>
      </trkpt>
      <trkpt lat="46.36478" lon="5.85848">
        <ele>541</ele>
        <time>2025-08-08T07:05:28.000Z</time>
      </trkpt>
      <trkpt lat="46.36472" lon="5.85849">
        <ele>541.40002441406</ele>
        <time>2025-08-08T07:05:30.000Z</time>
      </trkpt>
      <trkpt lat="46.36467" lon="5.8584">
        <ele>541.59997558594</ele>
        <time>2025-08-08T07:05:32.000Z</time>
      </trkpt>
      <trkpt lat="46.36451" lon="5.85825">
        <ele>542.40002441406</ele>
        <time>2025-08-08T07:05:38.000Z</time>
      </trkpt>
      <trkpt lat="46.36449" lon="5.85823">
        <ele>542.59997558594</ele>
        <time>2025-08-08T07:05:39.000Z</time>
      </trkpt>
      <trkpt lat="46.36439" lon="5.85802">
        <ele>543.59997558594</ele>
        <time>2025-08-08T07:05:45.000Z</time>
      </trkpt>
      <trkpt lat="46.36437" lon="5.85797">
        <ele>543.79998779297</ele>
        <time>2025-08-08T07:05:46.000Z</time>
      </trkpt>
      <trkpt lat="46.36435" lon="5.85786">
        <ele>544.59997558594</ele>
        <time>2025-08-08T07:05:49.000Z</time>
      </trkpt>
      <trkpt lat="46.36432" lon="5.85766">
        <ele>545.59997558594</ele>
        <time>2025-08-08T07:05:54.000Z</time>
      </trkpt>
      <trkpt lat="46.36431" lon="5.85758">
        <ele>545.79998779297</ele>
        <time>2025-08-08T07:05:56.000Z</time>
      </trkpt>
      <trkpt lat="46.3643" lon="5.85738">
        <ele>547</ele>
        <time>2025-08-08T07:06:01.000Z</time>
      </trkpt>
      <trkpt lat="46.3643" lon="5.85734">
        <ele>547</ele>
        <time>2025-08-08T07:06:02.000Z</time>
      </trkpt>
      <trkpt lat="46.36427" lon="5.8572">
        <ele>548.20001220703</ele>
        <time>2025-08-08T07:06:06.000Z</time>
      </trkpt>
      <trkpt lat="46.36423" lon="5.85709">
        <ele>548.59997558594</ele>
        <time>2025-08-08T07:06:09.000Z</time>
      </trkpt>
      <trkpt lat="46.36412" lon="5.85691">
        <ele>549.20001220703</ele>
        <time>2025-08-08T07:06:14.000Z</time>
      </trkpt>
      <trkpt lat="46.36407" lon="5.85686">
        <ele>549.59997558594</ele>
        <time>2025-08-08T07:06:16.000Z</time>
      </trkpt>
      <trkpt lat="46.36405" lon="5.85683">
        <ele>549.59997558594</ele>
        <time>2025-08-08T07:06:17.000Z</time>
      </trkpt>
      <trkpt lat="46.36394" lon="5.85668">
        <ele>550.20001220703</ele>
        <time>2025-08-08T07:06:22.000Z</time>
      </trkpt>
      <trkpt lat="46.36392" lon="5.85664">
        <ele>550.40002441406</ele>
        <time>2025-08-08T07:06:23.000Z</time>
      </trkpt>
      <trkpt lat="46.36384" lon="5.85651">
        <ele>551.40002441406</ele>
        <time>2025-08-08T07:06:27.000Z</time>
      </trkpt>
      <trkpt lat="46.36379" lon="5.85645">
        <ele>551.79998779297</ele>
        <time>2025-08-08T07:06:29.000Z</time>
      </trkpt>
      <trkpt lat="46.36368" lon="5.85637">
        <ele>552.40002441406</ele>
        <time>2025-08-08T07:06:33.000Z</time>
      </trkpt>
      <trkpt lat="46.36358" lon="5.85635">
        <ele>553</ele>
        <time>2025-08-08T07:06:36.000Z</time>
      </trkpt>
      <trkpt lat="46.36348" lon="5.85632">
        <ele>553.40002441406</ele>
        <time>2025-08-08T07:06:40.000Z</time>
      </trkpt>
      <trkpt lat="46.36335" lon="5.85619">
        <ele>554.59997558594</ele>
        <time>2025-08-08T07:06:45.000Z</time>
      </trkpt>
      <trkpt lat="46.36329" lon="5.85609">
        <ele>555</ele>
        <time>2025-08-08T07:06:48.000Z</time>
      </trkpt>
      <trkpt lat="46.36324" lon="5.85597">
        <ele>555.59997558594</ele>
        <time>2025-08-08T07:06:51.000Z</time>
      </trkpt>
      <trkpt lat="46.36315" lon="5.85577">
        <ele>556.79998779297</ele>
        <time>2025-08-08T07:06:57.000Z</time>
      </trkpt>
      <trkpt lat="46.36312" lon="5.85559">
        <ele>557.40002441406</ele>
        <time>2025-08-08T07:07:02.000Z</time>
      </trkpt>
      <trkpt lat="46.36312" lon="5.85552">
        <ele>557.79998779297</ele>
        <time>2025-08-08T07:07:04.000Z</time>
      </trkpt>
      <trkpt lat="46.36313" lon="5.85549">
        <ele>558</ele>
        <time>2025-08-08T07:07:05.000Z</time>
      </trkpt>
      <trkpt lat="46.36314" lon="5.85547">
        <ele>558.40002441406</ele>
        <time>2025-08-08T07:07:06.000Z</time>
      </trkpt>
      <trkpt lat="46.36315" lon="5.85543">
        <ele>558.59997558594</ele>
        <time>2025-08-08T07:07:07.000Z</time>
      </trkpt>
      <trkpt lat="46.36315" lon="5.85535">
        <ele>558.79998779297</ele>
        <time>2025-08-08T07:07:09.000Z</time>
      </trkpt>
      <trkpt lat="46.36313" lon="5.85531">
        <ele>559.20001220703</ele>
        <time>2025-08-08T07:07:10.000Z</time>
      </trkpt>
      <trkpt lat="46.3631" lon="5.85521">
        <ele>560.40002441406</ele>
        <time>2025-08-08T07:07:13.000Z</time>
      </trkpt>
      <trkpt lat="46.36307" lon="5.85516">
        <ele>560.59997558594</ele>
        <time>2025-08-08T07:07:14.000Z</time>
      </trkpt>
      <trkpt lat="46.36293" lon="5.85494">
        <ele>561.59997558594</ele>
        <time>2025-08-08T07:07:20.000Z</time>
      </trkpt>
      <trkpt lat="46.36277" lon="5.85486">
        <ele>562.40002441406</ele>
        <time>2025-08-08T07:07:25.000Z</time>
      </trkpt>
      <trkpt lat="46.3627" lon="5.85484">
        <ele>562.79998779297</ele>
        <time>2025-08-08T07:07:27.000Z</time>
      </trkpt>
      <trkpt lat="46.36262" lon="5.85486">
        <ele>563.40002441406</ele>
        <time>2025-08-08T07:07:30.000Z</time>
      </trkpt>
      <trkpt lat="46.36253" lon="5.85488">
        <ele>563.79998779297</ele>
        <time>2025-08-08T07:07:33.000Z</time>
      </trkpt>
      <trkpt lat="46.36244" lon="5.85491">
        <ele>564.40002441406</ele>
        <time>2025-08-08T07:07:36.000Z</time>
      </trkpt>
      <trkpt lat="46.36238" lon="5.8549">
        <ele>564.79998779297</ele>
        <time>2025-08-08T07:07:38.000Z</time>
      </trkpt>
      <trkpt lat="46.3623" lon="5.8549">
        <ele>565.59997558594</ele>
        <time>2025-08-08T07:07:41.000Z</time>
      </trkpt>
      <trkpt lat="46.36228" lon="5.85488">
        <ele>565.79998779297</ele>
        <time>2025-08-08T07:07:42.000Z</time>
      </trkpt>
      <trkpt lat="46.3622" lon="5.85481">
        <ele>566.79998779297</ele>
        <time>2025-08-08T07:07:46.000Z</time>
      </trkpt>
      <trkpt lat="46.36211" lon="5.85465">
        <ele>567.79998779297</ele>
        <time>2025-08-08T07:07:51.000Z</time>
      </trkpt>
      <trkpt lat="46.36207" lon="5.8546">
        <ele>568</ele>
        <time>2025-08-08T07:07:53.000Z</time>
      </trkpt>
      <trkpt lat="46.36197" lon="5.85449">
        <ele>568.79998779297</ele>
        <time>2025-08-08T07:07:57.000Z</time>
      </trkpt>
      <trkpt lat="46.36194" lon="5.85447">
        <ele>569</ele>
        <time>2025-08-08T07:07:58.000Z</time>
      </trkpt>
      <trkpt lat="46.36181" lon="5.85443">
        <ele>569.79998779297</ele>
        <time>2025-08-08T07:08:02.000Z</time>
      </trkpt>
      <trkpt lat="46.36172" lon="5.85442">
        <ele>570.40002441406</ele>
        <time>2025-08-08T07:08:05.000Z</time>
      </trkpt>
      <trkpt lat="46.36167" lon="5.8544">
        <ele>570.59997558594</ele>
        <time>2025-08-08T07:08:07.000Z</time>
      </trkpt>
      <trkpt lat="46.36154" lon="5.8543">
        <ele>571.40002441406</ele>
        <time>2025-08-08T07:08:12.000Z</time>
      </trkpt>
      <trkpt lat="46.36141" lon="5.85412">
        <ele>572.40002441406</ele>
        <time>2025-08-08T07:08:18.000Z</time>
      </trkpt>
      <trkpt lat="46.36137" lon="5.85405">
        <ele>573</ele>
        <time>2025-08-08T07:08:20.000Z</time>
      </trkpt>
      <trkpt lat="46.36128" lon="5.85392">
        <ele>573.59997558594</ele>
        <time>2025-08-08T07:08:24.000Z</time>
      </trkpt>
      <trkpt lat="46.36121" lon="5.85384">
        <ele>574</ele>
        <time>2025-08-08T07:08:27.000Z</time>
      </trkpt>
      <trkpt lat="46.36112" lon="5.85369">
        <ele>574.59997558594</ele>
        <time>2025-08-08T07:08:31.000Z</time>
      </trkpt>
      <trkpt lat="46.36105" lon="5.8536">
        <ele>575.40002441406</ele>
        <time>2025-08-08T07:08:34.000Z</time>
      </trkpt>
      <trkpt lat="46.36097" lon="5.8535">
        <ele>575.79998779297</ele>
        <time>2025-08-08T07:08:37.000Z</time>
      </trkpt>
      <trkpt lat="46.36087" lon="5.85339">
        <ele>576.59997558594</ele>
        <time>2025-08-08T07:08:41.000Z</time>
      </trkpt>
      <trkpt lat="46.36082" lon="5.85333">
        <ele>577</ele>
        <time>2025-08-08T07:08:43.000Z</time>
      </trkpt>
      <trkpt lat="46.36073" lon="5.85316">
        <ele>577.79998779297</ele>
        <time>2025-08-08T07:08:48.000Z</time>
      </trkpt>
      <trkpt lat="46.36069" lon="5.85309">
        <ele>578</ele>
        <time>2025-08-08T07:08:50.000Z</time>
      </trkpt>
      <trkpt lat="46.36059" lon="5.8529">
        <ele>579</ele>
        <time>2025-08-08T07:08:55.000Z</time>
      </trkpt>
      <trkpt lat="46.36045" lon="5.85266">
        <ele>580.40002441406</ele>
        <time>2025-08-08T07:09:02.000Z</time>
      </trkpt>
      <trkpt lat="46.36044" lon="5.85261">
        <ele>580.59997558594</ele>
        <time>2025-08-08T07:09:03.000Z</time>
      </trkpt>
      <trkpt lat="46.36042" lon="5.85237">
        <ele>581.40002441406</ele>
        <time>2025-08-08T07:09:08.000Z</time>
      </trkpt>
      <trkpt lat="46.36043" lon="5.85233">
        <ele>581.40002441406</ele>
        <time>2025-08-08T07:09:09.000Z</time>
      </trkpt>
      <trkpt lat="46.36046" lon="5.8522">
        <ele>582.40002441406</ele>
        <time>2025-08-08T07:09:12.000Z</time>
      </trkpt>
      <trkpt lat="46.36052" lon="5.85209">
        <ele>583.20001220703</ele>
        <time>2025-08-08T07:09:15.000Z</time>
      </trkpt>
      <trkpt lat="46.36057" lon="5.85203">
        <ele>583.59997558594</ele>
        <time>2025-08-08T07:09:17.000Z</time>
      </trkpt>
      <trkpt lat="46.36064" lon="5.85194">
        <ele>584.40002441406</ele>
        <time>2025-08-08T07:09:20.000Z</time>
      </trkpt>
      <trkpt lat="46.36067" lon="5.85186">
        <ele>584.79998779297</ele>
        <time>2025-08-08T07:09:22.000Z</time>
      </trkpt>
      <trkpt lat="46.36071" lon="5.85171">
        <ele>585.40002441406</ele>
        <time>2025-08-08T07:09:25.000Z</time>
      </trkpt>
      <trkpt lat="46.36073" lon="5.85158">
        <ele>586.20001220703</ele>
        <time>2025-08-08T07:09:28.000Z</time>
      </trkpt>
      <trkpt lat="46.36072" lon="5.85151">
        <ele>586.59997558594</ele>
        <time>2025-08-08T07:09:30.000Z</time>
      </trkpt>
      <trkpt lat="46.36066" lon="5.85133">
        <ele>587.20001220703</ele>
        <time>2025-08-08T07:09:34.000Z</time>
      </trkpt>
      <trkpt lat="46.36064" lon="5.8513">
        <ele>587.40002441406</ele>
        <time>2025-08-08T07:09:35.000Z</time>
      </trkpt>
      <trkpt lat="46.36054" lon="5.85114">
        <ele>588.20001220703</ele>
        <time>2025-08-08T07:09:40.000Z</time>
      </trkpt>
      <trkpt lat="46.36046" lon="5.85102">
        <ele>589</ele>
        <time>2025-08-08T07:09:44.000Z</time>
      </trkpt>
      <trkpt lat="46.36044" lon="5.85098">
        <ele>589.20001220703</ele>
        <time>2025-08-08T07:09:45.000Z</time>
      </trkpt>
      <trkpt lat="46.36034" lon="5.85083">
        <ele>590.20001220703</ele>
        <time>2025-08-08T07:09:50.000Z</time>
      </trkpt>
      <trkpt lat="46.36029" lon="5.85075">
        <ele>590.59997558594</ele>
        <time>2025-08-08T07:09:52.000Z</time>
      </trkpt>
      <trkpt lat="46.36016" lon="5.85063">
        <ele>591.59997558594</ele>
        <time>2025-08-08T07:09:57.000Z</time>
      </trkpt>
      <trkpt lat="46.36014" lon="5.85062">
        <ele>591.59997558594</ele>
        <time>2025-08-08T07:09:58.000Z</time>
      </trkpt>
      <trkpt lat="46.35996" lon="5.85055">
        <ele>592.59997558594</ele>
        <time>2025-08-08T07:10:04.000Z</time>
      </trkpt>
      <trkpt lat="46.35985" lon="5.85047">
        <ele>593.20001220703</ele>
        <time>2025-08-08T07:10:08.000Z</time>
      </trkpt>
      <trkpt lat="46.35981" lon="5.85041">
        <ele>593.59997558594</ele>
        <time>2025-08-08T07:10:10.000Z</time>
      </trkpt>
      <trkpt lat="46.35971" lon="5.85025">
        <ele>594.40002441406</ele>
        <time>2025-08-08T07:10:15.000Z</time>
      </trkpt>
      <trkpt lat="46.35969" lon="5.85021">
        <ele>594.79998779297</ele>
        <time>2025-08-08T07:10:16.000Z</time>
      </trkpt>
      <trkpt lat="46.35962" lon="5.85003">
        <ele>595.79998779297</ele>
        <time>2025-08-08T07:10:21.000Z</time>
      </trkpt>
      <trkpt lat="46.35961" lon="5.84999">
        <ele>596.20001220703</ele>
        <time>2025-08-08T07:10:22.000Z</time>
      </trkpt>
      <trkpt lat="46.35955" lon="5.8498">
        <ele>597.20001220703</ele>
        <time>2025-08-08T07:10:27.000Z</time>
      </trkpt>
      <trkpt lat="46.35951" lon="5.84968">
        <ele>597.79998779297</ele>
        <time>2025-08-08T07:10:30.000Z</time>
      </trkpt>
      <trkpt lat="46.35947" lon="5.84954">
        <ele>598.40002441406</ele>
        <time>2025-08-08T07:10:33.000Z</time>
      </trkpt>
      <trkpt lat="46.35941" lon="5.84935">
        <ele>599.79998779297</ele>
        <time>2025-08-08T07:10:38.000Z</time>
      </trkpt>
      <trkpt lat="46.3594" lon="5.84932">
        <ele>600</ele>
        <time>2025-08-08T07:10:39.000Z</time>
      </trkpt>
      <trkpt lat="46.35935" lon="5.84916">
        <ele>600.79998779297</ele>
        <time>2025-08-08T07:10:43.000Z</time>
      </trkpt>
      <trkpt lat="46.35929" lon="5.84898">
        <ele>601.59997558594</ele>
        <time>2025-08-08T07:10:48.000Z</time>
      </trkpt>
      <trkpt lat="46.35925" lon="5.84891">
        <ele>602.20001220703</ele>
        <time>2025-08-08T07:10:50.000Z</time>
      </trkpt>
      <trkpt lat="46.35914" lon="5.8487">
        <ele>603.20001220703</ele>
        <time>2025-08-08T07:10:56.000Z</time>
      </trkpt>
      <trkpt lat="46.35907" lon="5.8486">
        <ele>604</ele>
        <time>2025-08-08T07:10:59.000Z</time>
      </trkpt>
      <trkpt lat="46.35906" lon="5.84857">
        <ele>604.20001220703</ele>
        <time>2025-08-08T07:11:00.000Z</time>
      </trkpt>
      <trkpt lat="46.35899" lon="5.84842">
        <ele>604.79998779297</ele>
        <time>2025-08-08T07:11:04.000Z</time>
      </trkpt>
      <trkpt lat="46.35896" lon="5.84834">
        <ele>605.20001220703</ele>
        <time>2025-08-08T07:11:06.000Z</time>
      </trkpt>
      <trkpt lat="46.35895" lon="5.84831">
        <ele>605.40002441406</ele>
        <time>2025-08-08T07:11:07.000Z</time>
      </trkpt>
      <trkpt lat="46.35887" lon="5.8481">
        <ele>606.40002441406</ele>
        <time>2025-08-08T07:11:12.000Z</time>
      </trkpt>
      <trkpt lat="46.35879" lon="5.84791">
        <ele>607.20001220703</ele>
        <time>2025-08-08T07:11:17.000Z</time>
      </trkpt>
      <trkpt lat="46.35875" lon="5.84784">
        <ele>607.59997558594</ele>
        <time>2025-08-08T07:11:19.000Z</time>
      </trkpt>
      <trkpt lat="46.35866" lon="5.84771">
        <ele>608.59997558594</ele>
        <time>2025-08-08T07:11:23.000Z</time>
      </trkpt>
      <trkpt lat="46.35862" lon="5.84766">
        <ele>608.79998779297</ele>
        <time>2025-08-08T07:11:25.000Z</time>
      </trkpt>
      <trkpt lat="46.3585" lon="5.84752">
        <ele>609.79998779297</ele>
        <time>2025-08-08T07:11:30.000Z</time>
      </trkpt>
      <trkpt lat="46.35835" lon="5.84736">
        <ele>610.40002441406</ele>
        <time>2025-08-08T07:11:36.000Z</time>
      </trkpt>
      <trkpt lat="46.35828" lon="5.84728">
        <ele>610.59997558594</ele>
        <time>2025-08-08T07:11:39.000Z</time>
      </trkpt>
      <trkpt lat="46.35816" lon="5.84711">
        <ele>611.79998779297</ele>
        <time>2025-08-08T07:11:45.000Z</time>
      </trkpt>
      <trkpt lat="46.35807" lon="5.84689">
        <ele>613</ele>
        <time>2025-08-08T07:11:51.000Z</time>
      </trkpt>
      <trkpt lat="46.358" lon="5.8467">
        <ele>613.59997558594</ele>
        <time>2025-08-08T07:11:56.000Z</time>
      </trkpt>
      <trkpt lat="46.35797" lon="5.84663">
        <ele>614</ele>
        <time>2025-08-08T07:11:58.000Z</time>
      </trkpt>
      <trkpt lat="46.3579" lon="5.84645">
        <ele>615</ele>
        <time>2025-08-08T07:12:03.000Z</time>
      </trkpt>
      <trkpt lat="46.35789" lon="5.84642">
        <ele>615.20001220703</ele>
        <time>2025-08-08T07:12:04.000Z</time>
      </trkpt>
      <trkpt lat="46.35781" lon="5.84625">
        <ele>616.40002441406</ele>
        <time>2025-08-08T07:12:09.000Z</time>
      </trkpt>
      <trkpt lat="46.35774" lon="5.84615">
        <ele>616.79998779297</ele>
        <time>2025-08-08T07:12:12.000Z</time>
      </trkpt>
      <trkpt lat="46.35766" lon="5.84604">
        <ele>617.40002441406</ele>
        <time>2025-08-08T07:12:16.000Z</time>
      </trkpt>
      <trkpt lat="46.35757" lon="5.84592">
        <ele>618.59997558594</ele>
        <time>2025-08-08T07:12:20.000Z</time>
      </trkpt>
      <trkpt lat="46.35744" lon="5.84576">
        <ele>619.79998779297</ele>
        <time>2025-08-08T07:12:26.000Z</time>
      </trkpt>
      <trkpt lat="46.35739" lon="5.84571">
        <ele>620</ele>
        <time>2025-08-08T07:12:28.000Z</time>
      </trkpt>
      <trkpt lat="46.35725" lon="5.84565">
        <ele>621</ele>
        <time>2025-08-08T07:12:33.000Z</time>
      </trkpt>
      <trkpt lat="46.35719" lon="5.84564">
        <ele>621.40002441406</ele>
        <time>2025-08-08T07:12:35.000Z</time>
      </trkpt>
      <trkpt lat="46.35713" lon="5.84563">
        <ele>622</ele>
        <time>2025-08-08T07:12:37.000Z</time>
      </trkpt>
      <trkpt lat="46.35698" lon="5.84563">
        <ele>622.79998779297</ele>
        <time>2025-08-08T07:12:42.000Z</time>
      </trkpt>
      <trkpt lat="46.35695" lon="5.84563">
        <ele>623</ele>
        <time>2025-08-08T07:12:43.000Z</time>
      </trkpt>
      <trkpt lat="46.35678" lon="5.84556">
        <ele>624</ele>
        <time>2025-08-08T07:12:49.000Z</time>
      </trkpt>
      <trkpt lat="46.35673" lon="5.84552">
        <ele>624.20001220703</ele>
        <time>2025-08-08T07:12:51.000Z</time>
      </trkpt>
      <trkpt lat="46.35667" lon="5.84544">
        <ele>625</ele>
        <time>2025-08-08T07:12:54.000Z</time>
      </trkpt>
      <trkpt lat="46.35656" lon="5.84528">
        <ele>626</ele>
        <time>2025-08-08T07:12:59.000Z</time>
      </trkpt>
      <trkpt lat="46.35654" lon="5.84525">
        <ele>626.20001220703</ele>
        <time>2025-08-08T07:13:00.000Z</time>
      </trkpt>
      <trkpt lat="46.35642" lon="5.84513">
        <ele>627</ele>
        <time>2025-08-08T07:13:05.000Z</time>
      </trkpt>
      <trkpt lat="46.35636" lon="5.84508">
        <ele>627.20001220703</ele>
        <time>2025-08-08T07:13:07.000Z</time>
      </trkpt>
      <trkpt lat="46.35623" lon="5.84497">
        <ele>628.20001220703</ele>
        <time>2025-08-08T07:13:12.000Z</time>
      </trkpt>
      <trkpt lat="46.35618" lon="5.84493">
        <ele>628.59997558594</ele>
        <time>2025-08-08T07:13:14.000Z</time>
      </trkpt>
      <trkpt lat="46.35613" lon="5.84489">
        <ele>629.20001220703</ele>
        <time>2025-08-08T07:13:16.000Z</time>
      </trkpt>
      <trkpt lat="46.35602" lon="5.8448">
        <ele>630.40002441406</ele>
        <time>2025-08-08T07:13:20.000Z</time>
      </trkpt>
      <trkpt lat="46.356" lon="5.84478">
        <ele>630.59997558594</ele>
        <time>2025-08-08T07:13:21.000Z</time>
      </trkpt>
      <trkpt lat="46.35577" lon="5.84468">
        <ele>631.40002441406</ele>
        <time>2025-08-08T07:13:29.000Z</time>
      </trkpt>
      <trkpt lat="46.35574" lon="5.84467">
        <ele>631.59997558594</ele>
        <time>2025-08-08T07:13:30.000Z</time>
      </trkpt>
      <trkpt lat="46.35551" lon="5.84465">
        <ele>632.59997558594</ele>
        <time>2025-08-08T07:13:37.000Z</time>
      </trkpt>
      <trkpt lat="46.35548" lon="5.84465">
        <ele>632.79998779297</ele>
        <time>2025-08-08T07:13:38.000Z</time>
      </trkpt>
      <trkpt lat="46.3553" lon="5.84466">
        <ele>633.79998779297</ele>
        <time>2025-08-08T07:13:44.000Z</time>
      </trkpt>
      <trkpt lat="46.35527" lon="5.84467">
        <ele>634</ele>
        <time>2025-08-08T07:13:45.000Z</time>
      </trkpt>
      <trkpt lat="46.35515" lon="5.84468">
        <ele>635</ele>
        <time>2025-08-08T07:13:49.000Z</time>
      </trkpt>
      <trkpt lat="46.35502" lon="5.8447">
        <ele>635.79998779297</ele>
        <time>2025-08-08T07:13:53.000Z</time>
      </trkpt>
      <trkpt lat="46.35499" lon="5.8447">
        <ele>636.20001220703</ele>
        <time>2025-08-08T07:13:54.000Z</time>
      </trkpt>
      <trkpt lat="46.35477" lon="5.84467">
        <ele>637.20001220703</ele>
        <time>2025-08-08T07:14:01.000Z</time>
      </trkpt>
      <trkpt lat="46.35474" lon="5.84466">
        <ele>637.59997558594</ele>
        <time>2025-08-08T07:14:02.000Z</time>
      </trkpt>
      <trkpt lat="46.35462" lon="5.8446">
        <ele>638.40002441406</ele>
        <time>2025-08-08T07:14:06.000Z</time>
      </trkpt>
      <trkpt lat="46.35443" lon="5.8445">
        <ele>639.59997558594</ele>
        <time>2025-08-08T07:14:13.000Z</time>
      </trkpt>
      <trkpt lat="46.35437" lon="5.84447">
        <ele>639.79998779297</ele>
        <time>2025-08-08T07:14:15.000Z</time>
      </trkpt>
      <trkpt lat="46.35426" lon="5.84441">
        <ele>640.59997558594</ele>
        <time>2025-08-08T07:14:19.000Z</time>
      </trkpt>
      <trkpt lat="46.35416" lon="5.84434">
        <ele>641.20001220703</ele>
        <time>2025-08-08T07:14:23.000Z</time>
      </trkpt>
      <trkpt lat="46.35411" lon="5.84429">
        <ele>641.79998779297</ele>
        <time>2025-08-08T07:14:25.000Z</time>
      </trkpt>
      <trkpt lat="46.354" lon="5.84416">
        <ele>642.59997558594</ele>
        <time>2025-08-08T07:14:30.000Z</time>
      </trkpt>
      <trkpt lat="46.35397" lon="5.84409">
        <ele>643.20001220703</ele>
        <time>2025-08-08T07:14:32.000Z</time>
      </trkpt>
      <trkpt lat="46.35391" lon="5.84389">
        <ele>644</ele>
        <time>2025-08-08T07:14:37.000Z</time>
      </trkpt>
      <trkpt lat="46.3539" lon="5.84381">
        <ele>644.20001220703</ele>
        <time>2025-08-08T07:14:39.000Z</time>
      </trkpt>
      <trkpt lat="46.35387" lon="5.84364">
        <ele>645.59997558594</ele>
        <time>2025-08-08T07:14:43.000Z</time>
      </trkpt>
      <trkpt lat="46.35385" lon="5.84351">
        <ele>646</ele>
        <time>2025-08-08T07:14:46.000Z</time>
      </trkpt>
      <trkpt lat="46.35382" lon="5.84334">
        <ele>646.59997558594</ele>
        <time>2025-08-08T07:14:50.000Z</time>
      </trkpt>
      <trkpt lat="46.35377" lon="5.84318">
        <ele>647.20001220703</ele>
        <time>2025-08-08T07:14:54.000Z</time>
      </trkpt>
      <trkpt lat="46.35375" lon="5.8431">
        <ele>647.79998779297</ele>
        <time>2025-08-08T07:14:56.000Z</time>
      </trkpt>
      <trkpt lat="46.35366" lon="5.84285">
        <ele>649.20001220703</ele>
        <time>2025-08-08T07:15:02.000Z</time>
      </trkpt>
      <trkpt lat="46.35365" lon="5.84281">
        <ele>649.40002441406</ele>
        <time>2025-08-08T07:15:03.000Z</time>
      </trkpt>
      <trkpt lat="46.35355" lon="5.84259">
        <ele>650.20001220703</ele>
        <time>2025-08-08T07:15:09.000Z</time>
      </trkpt>
      <trkpt lat="46.35352" lon="5.84253">
        <ele>650.59997558594</ele>
        <time>2025-08-08T07:15:11.000Z</time>
      </trkpt>
      <trkpt lat="46.35346" lon="5.84244">
        <ele>651.40002441406</ele>
        <time>2025-08-08T07:15:14.000Z</time>
      </trkpt>
      <trkpt lat="46.35333" lon="5.84232">
        <ele>652</ele>
        <time>2025-08-08T07:15:19.000Z</time>
      </trkpt>
      <trkpt lat="46.35328" lon="5.84226">
        <ele>652.40002441406</ele>
        <time>2025-08-08T07:15:21.000Z</time>
      </trkpt>
      <trkpt lat="46.35319" lon="5.84213">
        <ele>652.79998779297</ele>
        <time>2025-08-08T07:15:25.000Z</time>
      </trkpt>
      <trkpt lat="46.35313" lon="5.84203">
        <ele>653.40002441406</ele>
        <time>2025-08-08T07:15:28.000Z</time>
      </trkpt>
      <trkpt lat="46.35305" lon="5.84184">
        <ele>654.59997558594</ele>
        <time>2025-08-08T07:15:33.000Z</time>
      </trkpt>
      <trkpt lat="46.35304" lon="5.84181">
        <ele>654.79998779297</ele>
        <time>2025-08-08T07:15:34.000Z</time>
      </trkpt>
      <trkpt lat="46.35297" lon="5.84166">
        <ele>655.59997558594</ele>
        <time>2025-08-08T07:15:38.000Z</time>
      </trkpt>
      <trkpt lat="46.35287" lon="5.84144">
        <ele>656.79998779297</ele>
        <time>2025-08-08T07:15:44.000Z</time>
      </trkpt>
      <trkpt lat="46.35284" lon="5.84136">
        <ele>657.20001220703</ele>
        <time>2025-08-08T07:15:46.000Z</time>
      </trkpt>
      <trkpt lat="46.35281" lon="5.8413">
        <ele>657.79998779297</ele>
        <time>2025-08-08T07:15:48.000Z</time>
      </trkpt>
      <trkpt lat="46.35266" lon="5.84095">
        <ele>659.20001220703</ele>
        <time>2025-08-08T07:15:57.000Z</time>
      </trkpt>
      <trkpt lat="46.35253" lon="5.84065">
        <ele>660.40002441406</ele>
        <time>2025-08-08T07:16:05.000Z</time>
      </trkpt>
      <trkpt lat="46.35247" lon="5.84049">
        <ele>661.59997558594</ele>
        <time>2025-08-08T07:16:09.000Z</time>
      </trkpt>
      <trkpt lat="46.35239" lon="5.8403">
        <ele>662.59997558594</ele>
        <time>2025-08-08T07:16:14.000Z</time>
      </trkpt>
      <trkpt lat="46.35234" lon="5.84025">
        <ele>662.79998779297</ele>
        <time>2025-08-08T07:16:16.000Z</time>
      </trkpt>
      <trkpt lat="46.35214" lon="5.84014">
        <ele>663.79998779297</ele>
        <time>2025-08-08T07:16:23.000Z</time>
      </trkpt>
      <trkpt lat="46.35198" lon="5.84007">
        <ele>665</ele>
        <time>2025-08-08T07:16:28.000Z</time>
      </trkpt>
      <trkpt lat="46.35192" lon="5.84004">
        <ele>665.59997558594</ele>
        <time>2025-08-08T07:16:30.000Z</time>
      </trkpt>
      <trkpt lat="46.35182" lon="5.83999">
        <ele>666.20001220703</ele>
        <time>2025-08-08T07:16:33.000Z</time>
      </trkpt>
      <trkpt lat="46.35161" lon="5.83985">
        <ele>667.20001220703</ele>
        <time>2025-08-08T07:16:40.000Z</time>
      </trkpt>
      <trkpt lat="46.35143" lon="5.83972">
        <ele>668.20001220703</ele>
        <time>2025-08-08T07:16:46.000Z</time>
      </trkpt>
      <trkpt lat="46.3514" lon="5.83969">
        <ele>668.40002441406</ele>
        <time>2025-08-08T07:16:47.000Z</time>
      </trkpt>
      <trkpt lat="46.35125" lon="5.83959">
        <ele>669.20001220703</ele>
        <time>2025-08-08T07:16:52.000Z</time>
      </trkpt>
      <trkpt lat="46.35117" lon="5.83951">
        <ele>669.59997558594</ele>
        <time>2025-08-08T07:16:55.000Z</time>
      </trkpt>
      <trkpt lat="46.35108" lon="5.8394">
        <ele>670.20001220703</ele>
        <time>2025-08-08T07:16:59.000Z</time>
      </trkpt>
      <trkpt lat="46.35105" lon="5.83937">
        <ele>670.40002441406</ele>
        <time>2025-08-08T07:17:00.000Z</time>
      </trkpt>
      <trkpt lat="46.35097" lon="5.83924">
        <ele>671</ele>
        <time>2025-08-08T07:17:04.000Z</time>
      </trkpt>
      <trkpt lat="46.35093" lon="5.83918">
        <ele>671.59997558594</ele>
        <time>2025-08-08T07:17:06.000Z</time>
      </trkpt>
      <trkpt lat="46.35083" lon="5.83901">
        <ele>672.59997558594</ele>
        <time>2025-08-08T07:17:11.000Z</time>
      </trkpt>
      <trkpt lat="46.3507" lon="5.83879">
        <ele>674</ele>
        <time>2025-08-08T07:17:18.000Z</time>
      </trkpt>
      <trkpt lat="46.35068" lon="5.83877">
        <ele>674</ele>
        <time>2025-08-08T07:17:19.000Z</time>
      </trkpt>
      <trkpt lat="46.35053" lon="5.83867">
        <ele>675</ele>
        <time>2025-08-08T07:17:24.000Z</time>
      </trkpt>
      <trkpt lat="46.3505" lon="5.83866">
        <ele>675.40002441406</ele>
        <time>2025-08-08T07:17:25.000Z</time>
      </trkpt>
      <trkpt lat="46.3504" lon="5.83863">
        <ele>676.20001220703</ele>
        <time>2025-08-08T07:17:28.000Z</time>
      </trkpt>
      <trkpt lat="46.35031" lon="5.8386">
        <ele>676.79998779297</ele>
        <time>2025-08-08T07:17:31.000Z</time>
      </trkpt>
      <trkpt lat="46.35022" lon="5.83856">
        <ele>677.20001220703</ele>
        <time>2025-08-08T07:17:34.000Z</time>
      </trkpt>
      <trkpt lat="46.35005" lon="5.83845">
        <ele>678.20001220703</ele>
        <time>2025-08-08T07:17:40.000Z</time>
      </trkpt>
      <trkpt lat="46.35003" lon="5.83844">
        <ele>678.40002441406</ele>
        <time>2025-08-08T07:17:41.000Z</time>
      </trkpt>
      <trkpt lat="46.34986" lon="5.83829">
        <ele>679.59997558594</ele>
        <time>2025-08-08T07:17:47.000Z</time>
      </trkpt>
      <trkpt lat="46.34978" lon="5.83823">
        <ele>680.20001220703</ele>
        <time>2025-08-08T07:17:50.000Z</time>
      </trkpt>
      <trkpt lat="46.34973" lon="5.83818">
        <ele>680.79998779297</ele>
        <time>2025-08-08T07:17:52.000Z</time>
      </trkpt>
      <trkpt lat="46.34962" lon="5.8381">
        <ele>681.79998779297</ele>
        <time>2025-08-08T07:17:56.000Z</time>
      </trkpt>
      <trkpt lat="46.34949" lon="5.83799">
        <ele>682.59997558594</ele>
        <time>2025-08-08T07:18:01.000Z</time>
      </trkpt>
      <trkpt lat="46.34944" lon="5.83794">
        <ele>682.79998779297</ele>
        <time>2025-08-08T07:18:03.000Z</time>
      </trkpt>
      <trkpt lat="46.34939" lon="5.8379">
        <ele>683.20001220703</ele>
        <time>2025-08-08T07:18:05.000Z</time>
      </trkpt>
      <trkpt lat="46.34931" lon="5.83784">
        <ele>683.79998779297</ele>
        <time>2025-08-08T07:18:08.000Z</time>
      </trkpt>
      <trkpt lat="46.34929" lon="5.83782">
        <ele>684</ele>
        <time>2025-08-08T07:18:09.000Z</time>
      </trkpt>
      <trkpt lat="46.34915" lon="5.83772">
        <ele>685</ele>
        <time>2025-08-08T07:18:14.000Z</time>
      </trkpt>
      <trkpt lat="46.34912" lon="5.8377">
        <ele>685.20001220703</ele>
        <time>2025-08-08T07:18:15.000Z</time>
      </trkpt>
      <trkpt lat="46.34902" lon="5.83762">
        <ele>686</ele>
        <time>2025-08-08T07:18:19.000Z</time>
      </trkpt>
      <trkpt lat="46.34893" lon="5.83755">
        <ele>686.79998779297</ele>
        <time>2025-08-08T07:18:22.000Z</time>
      </trkpt>
      <trkpt lat="46.34885" lon="5.83747">
        <ele>687</ele>
        <time>2025-08-08T07:18:25.000Z</time>
      </trkpt>
      <trkpt lat="46.34875" lon="5.83738">
        <ele>688</ele>
        <time>2025-08-08T07:18:29.000Z</time>
      </trkpt>
      <trkpt lat="46.34857" lon="5.83722">
        <ele>689.20001220703</ele>
        <time>2025-08-08T07:18:36.000Z</time>
      </trkpt>
      <trkpt lat="46.34849" lon="5.83715">
        <ele>689.79998779297</ele>
        <time>2025-08-08T07:18:39.000Z</time>
      </trkpt>
      <trkpt lat="46.34839" lon="5.83706">
        <ele>690.40002441406</ele>
        <time>2025-08-08T07:18:43.000Z</time>
      </trkpt>
      <trkpt lat="46.34825" lon="5.83696">
        <ele>691.40002441406</ele>
        <time>2025-08-08T07:18:48.000Z</time>
      </trkpt>
      <trkpt lat="46.34817" lon="5.83692">
        <ele>692</ele>
        <time>2025-08-08T07:18:51.000Z</time>
      </trkpt>
      <trkpt lat="46.34806" lon="5.83686">
        <ele>692.79998779297</ele>
        <time>2025-08-08T07:18:55.000Z</time>
      </trkpt>
      <trkpt lat="46.3479" lon="5.83674">
        <ele>693.59997558594</ele>
        <time>2025-08-08T07:19:01.000Z</time>
      </trkpt>
      <trkpt lat="46.34787" lon="5.83672">
        <ele>693.79998779297</ele>
        <time>2025-08-08T07:19:02.000Z</time>
      </trkpt>
      <trkpt lat="46.34773" lon="5.83656">
        <ele>694.59997558594</ele>
        <time>2025-08-08T07:19:08.000Z</time>
      </trkpt>
      <trkpt lat="46.34768" lon="5.83651">
        <ele>694.79998779297</ele>
        <time>2025-08-08T07:19:10.000Z</time>
      </trkpt>
      <trkpt lat="46.34765" lon="5.83648">
        <ele>695.20001220703</ele>
        <time>2025-08-08T07:19:11.000Z</time>
      </trkpt>
      <trkpt lat="46.34759" lon="5.8364">
        <ele>696</ele>
        <time>2025-08-08T07:19:14.000Z</time>
      </trkpt>
      <trkpt lat="46.34743" lon="5.8362">
        <ele>697</ele>
        <time>2025-08-08T07:19:21.000Z</time>
      </trkpt>
      <trkpt lat="46.34727" lon="5.83603">
        <ele>698.20001220703</ele>
        <time>2025-08-08T07:19:28.000Z</time>
      </trkpt>
      <trkpt lat="46.34715" lon="5.8359">
        <ele>699.40002441406</ele>
        <time>2025-08-08T07:19:33.000Z</time>
      </trkpt>
      <trkpt lat="46.34708" lon="5.83583">
        <ele>699.79998779297</ele>
        <time>2025-08-08T07:19:36.000Z</time>
      </trkpt>
      <trkpt lat="46.34704" lon="5.83579">
        <ele>700.40002441406</ele>
        <time>2025-08-08T07:19:38.000Z</time>
      </trkpt>
      <trkpt lat="46.34692" lon="5.83567">
        <ele>701.59997558594</ele>
        <time>2025-08-08T07:19:43.000Z</time>
      </trkpt>
      <trkpt lat="46.34687" lon="5.83561">
        <ele>702</ele>
        <time>2025-08-08T07:19:45.000Z</time>
      </trkpt>
      <trkpt lat="46.34677" lon="5.83551">
        <ele>702.59997558594</ele>
        <time>2025-08-08T07:19:49.000Z</time>
      </trkpt>
      <trkpt lat="46.34667" lon="5.8354">
        <ele>703.40002441406</ele>
        <time>2025-08-08T07:19:53.000Z</time>
      </trkpt>
      <trkpt lat="46.34665" lon="5.83537">
        <ele>703.59997558594</ele>
        <time>2025-08-08T07:19:54.000Z</time>
      </trkpt>
      <trkpt lat="46.34649" lon="5.83518">
        <ele>704.79998779297</ele>
        <time>2025-08-08T07:20:01.000Z</time>
      </trkpt>
      <trkpt lat="46.34647" lon="5.83515">
        <ele>704.79998779297</ele>
        <time>2025-08-08T07:20:02.000Z</time>
      </trkpt>
      <trkpt lat="46.34641" lon="5.83506">
        <ele>705.79998779297</ele>
        <time>2025-08-08T07:20:05.000Z</time>
      </trkpt>
      <trkpt lat="46.34637" lon="5.83501">
        <ele>706</ele>
        <time>2025-08-08T07:20:07.000Z</time>
      </trkpt>
      <trkpt lat="46.34629" lon="5.83493">
        <ele>706.79998779297</ele>
        <time>2025-08-08T07:20:10.000Z</time>
      </trkpt>
      <trkpt lat="46.34624" lon="5.83486">
        <ele>707.20001220703</ele>
        <time>2025-08-08T07:20:12.000Z</time>
      </trkpt>
      <trkpt lat="46.34616" lon="5.83477">
        <ele>707.59997558594</ele>
        <time>2025-08-08T07:20:15.000Z</time>
      </trkpt>
      <trkpt lat="46.34613" lon="5.83474">
        <ele>707.79998779297</ele>
        <time>2025-08-08T07:20:16.000Z</time>
      </trkpt>
      <trkpt lat="46.34601" lon="5.8346">
        <ele>709</ele>
        <time>2025-08-08T07:20:21.000Z</time>
      </trkpt>
      <trkpt lat="46.34595" lon="5.83451">
        <ele>709.20001220703</ele>
        <time>2025-08-08T07:20:24.000Z</time>
      </trkpt>
      <trkpt lat="46.3458" lon="5.83435">
        <ele>710</ele>
        <time>2025-08-08T07:20:30.000Z</time>
      </trkpt>
      <trkpt lat="46.34563" lon="5.83416">
        <ele>711.20001220703</ele>
        <time>2025-08-08T07:20:37.000Z</time>
      </trkpt>
      <trkpt lat="46.3456" lon="5.83414">
        <ele>711.40002441406</ele>
        <time>2025-08-08T07:20:38.000Z</time>
      </trkpt>
      <trkpt lat="46.3454" lon="5.83396">
        <ele>712.20001220703</ele>
        <time>2025-08-08T07:20:46.000Z</time>
      </trkpt>
      <trkpt lat="46.34537" lon="5.83393">
        <ele>712.40002441406</ele>
        <time>2025-08-08T07:20:47.000Z</time>
      </trkpt>
      <trkpt lat="46.34527" lon="5.83383">
        <ele>713.79998779297</ele>
        <time>2025-08-08T07:20:51.000Z</time>
      </trkpt>
      <trkpt lat="46.34515" lon="5.83372">
        <ele>714.79998779297</ele>
        <time>2025-08-08T07:20:56.000Z</time>
      </trkpt>
      <trkpt lat="46.34512" lon="5.83369">
        <ele>714.79998779297</ele>
        <time>2025-08-08T07:20:57.000Z</time>
      </trkpt>
      <trkpt lat="46.34493" lon="5.83354">
        <ele>716</ele>
        <time>2025-08-08T07:21:04.000Z</time>
      </trkpt>
      <trkpt lat="46.34491" lon="5.83352">
        <ele>716.20001220703</ele>
        <time>2025-08-08T07:21:05.000Z</time>
      </trkpt>
      <trkpt lat="46.34477" lon="5.83339">
        <ele>717.20001220703</ele>
        <time>2025-08-08T07:21:10.000Z</time>
      </trkpt>
      <trkpt lat="46.34464" lon="5.83328">
        <ele>718.40002441406</ele>
        <time>2025-08-08T07:21:15.000Z</time>
      </trkpt>
      <trkpt lat="46.34444" lon="5.83307">
        <ele>719.20001220703</ele>
        <time>2025-08-08T07:21:23.000Z</time>
      </trkpt>
      <trkpt lat="46.34438" lon="5.83301">
        <ele>719.40002441406</ele>
        <time>2025-08-08T07:21:25.000Z</time>
      </trkpt>
      <trkpt lat="46.34422" lon="5.83281">
        <ele>720.40002441406</ele>
        <time>2025-08-08T07:21:32.000Z</time>
      </trkpt>
      <trkpt lat="46.34421" lon="5.83278">
        <ele>720.79998779297</ele>
        <time>2025-08-08T07:21:33.000Z</time>
      </trkpt>
      <trkpt lat="46.34414" lon="5.83269">
        <ele>721.59997558594</ele>
        <time>2025-08-08T07:21:36.000Z</time>
      </trkpt>
      <trkpt lat="46.34403" lon="5.83255">
        <ele>722.40002441406</ele>
        <time>2025-08-08T07:21:41.000Z</time>
      </trkpt>
      <trkpt lat="46.34401" lon="5.83252">
        <ele>722.59997558594</ele>
        <time>2025-08-08T07:21:42.000Z</time>
      </trkpt>
      <trkpt lat="46.34397" lon="5.83245">
        <ele>723</ele>
        <time>2025-08-08T07:21:44.000Z</time>
      </trkpt>
      <trkpt lat="46.34388" lon="5.83233">
        <ele>723.79998779297</ele>
        <time>2025-08-08T07:21:48.000Z</time>
      </trkpt>
      <trkpt lat="46.34382" lon="5.83224">
        <ele>724.20001220703</ele>
        <time>2025-08-08T07:21:51.000Z</time>
      </trkpt>
      <trkpt lat="46.34376" lon="5.83215">
        <ele>724.79998779297</ele>
        <time>2025-08-08T07:21:54.000Z</time>
      </trkpt>
      <trkpt lat="46.34369" lon="5.83202">
        <ele>725.79998779297</ele>
        <time>2025-08-08T07:21:58.000Z</time>
      </trkpt>
      <trkpt lat="46.34356" lon="5.83182">
        <ele>727</ele>
        <time>2025-08-08T07:22:04.000Z</time>
      </trkpt>
      <trkpt lat="46.34354" lon="5.83179">
        <ele>727</ele>
        <time>2025-08-08T07:22:05.000Z</time>
      </trkpt>
      <trkpt lat="46.34346" lon="5.83166">
        <ele>728.20001220703</ele>
        <time>2025-08-08T07:22:09.000Z</time>
      </trkpt>
      <trkpt lat="46.3434" lon="5.83156">
        <ele>729.20001220703</ele>
        <time>2025-08-08T07:22:12.000Z</time>
      </trkpt>
      <trkpt lat="46.34338" lon="5.83153">
        <ele>729.59997558594</ele>
        <time>2025-08-08T07:22:13.000Z</time>
      </trkpt>
      <trkpt lat="46.34334" lon="5.83146">
        <ele>730.20001220703</ele>
        <time>2025-08-08T07:22:15.000Z</time>
      </trkpt>
      <trkpt lat="46.34319" lon="5.83126">
        <ele>730.59997558594</ele>
        <time>2025-08-08T07:22:22.000Z</time>
      </trkpt>
      <trkpt lat="46.34309" lon="5.8311">
        <ele>731.20001220703</ele>
        <time>2025-08-08T07:22:27.000Z</time>
      </trkpt>
      <trkpt lat="46.34303" lon="5.83099">
        <ele>731.79998779297</ele>
        <time>2025-08-08T07:22:30.000Z</time>
      </trkpt>
      <trkpt lat="46.34299" lon="5.83093">
        <ele>732.40002441406</ele>
        <time>2025-08-08T07:22:32.000Z</time>
      </trkpt>
      <trkpt lat="46.34289" lon="5.83077">
        <ele>733.59997558594</ele>
        <time>2025-08-08T07:22:37.000Z</time>
      </trkpt>
      <trkpt lat="46.34287" lon="5.83073">
        <ele>733.59997558594</ele>
        <time>2025-08-08T07:22:38.000Z</time>
      </trkpt>
      <trkpt lat="46.34277" lon="5.83058">
        <ele>734.59997558594</ele>
        <time>2025-08-08T07:22:43.000Z</time>
      </trkpt>
      <trkpt lat="46.34267" lon="5.83043">
        <ele>735.79998779297</ele>
        <time>2025-08-08T07:22:48.000Z</time>
      </trkpt>
      <trkpt lat="46.34254" lon="5.83025">
        <ele>736.79998779297</ele>
        <time>2025-08-08T07:22:54.000Z</time>
      </trkpt>
      <trkpt lat="46.3425" lon="5.83021">
        <ele>737.40002441406</ele>
        <time>2025-08-08T07:22:56.000Z</time>
      </trkpt>
      <trkpt lat="46.34244" lon="5.83014">
        <ele>737.59997558594</ele>
        <time>2025-08-08T07:22:58.000Z</time>
      </trkpt>
      <trkpt lat="46.3424" lon="5.83008">
        <ele>738</ele>
        <time>2025-08-08T07:23:00.000Z</time>
      </trkpt>
      <trkpt lat="46.34229" lon="5.82992">
        <ele>739</ele>
        <time>2025-08-08T07:23:05.000Z</time>
      </trkpt>
      <trkpt lat="46.34226" lon="5.82987">
        <ele>739.40002441406</ele>
        <time>2025-08-08T07:23:07.000Z</time>
      </trkpt>
      <trkpt lat="46.34217" lon="5.82976">
        <ele>740.20001220703</ele>
        <time>2025-08-08T07:23:11.000Z</time>
      </trkpt>
      <trkpt lat="46.34212" lon="5.82971">
        <ele>740.40002441406</ele>
        <time>2025-08-08T07:23:13.000Z</time>
      </trkpt>
      <trkpt lat="46.34204" lon="5.82958">
        <ele>741.20001220703</ele>
        <time>2025-08-08T07:23:17.000Z</time>
      </trkpt>
      <trkpt lat="46.34197" lon="5.82944">
        <ele>741.79998779297</ele>
        <time>2025-08-08T07:23:21.000Z</time>
      </trkpt>
      <trkpt lat="46.34191" lon="5.82931">
        <ele>742.40002441406</ele>
        <time>2025-08-08T07:23:24.000Z</time>
      </trkpt>
      <trkpt lat="46.34189" lon="5.82923">
        <ele>743</ele>
        <time>2025-08-08T07:23:26.000Z</time>
      </trkpt>
      <trkpt lat="46.34186" lon="5.82916">
        <ele>743.40002441406</ele>
        <time>2025-08-08T07:23:28.000Z</time>
      </trkpt>
      <trkpt lat="46.34179" lon="5.82889">
        <ele>744.40002441406</ele>
        <time>2025-08-08T07:23:35.000Z</time>
      </trkpt>
      <trkpt lat="46.34175" lon="5.82865">
        <ele>745.40002441406</ele>
        <time>2025-08-08T07:23:41.000Z</time>
      </trkpt>
      <trkpt lat="46.34174" lon="5.82861">
        <ele>745.79998779297</ele>
        <time>2025-08-08T07:23:42.000Z</time>
      </trkpt>
      <trkpt lat="46.34169" lon="5.8284">
        <ele>746.79998779297</ele>
        <time>2025-08-08T07:23:47.000Z</time>
      </trkpt>
      <trkpt lat="46.34168" lon="5.82836">
        <ele>747</ele>
        <time>2025-08-08T07:23:48.000Z</time>
      </trkpt>
      <trkpt lat="46.34158" lon="5.82817">
        <ele>748</ele>
        <time>2025-08-08T07:23:53.000Z</time>
      </trkpt>
      <trkpt lat="46.34155" lon="5.82811">
        <ele>748.20001220703</ele>
        <time>2025-08-08T07:23:55.000Z</time>
      </trkpt>
      <trkpt lat="46.34145" lon="5.82796">
        <ele>749</ele>
        <time>2025-08-08T07:23:59.000Z</time>
      </trkpt>
      <trkpt lat="46.34135" lon="5.82779">
        <ele>750</ele>
        <time>2025-08-08T07:24:04.000Z</time>
      </trkpt>
      <trkpt lat="46.34133" lon="5.82777">
        <ele>750.20001220703</ele>
        <time>2025-08-08T07:24:05.000Z</time>
      </trkpt>
      <trkpt lat="46.34121" lon="5.82758">
        <ele>751</ele>
        <time>2025-08-08T07:24:11.000Z</time>
      </trkpt>
      <trkpt lat="46.34119" lon="5.82755">
        <ele>751</ele>
        <time>2025-08-08T07:24:12.000Z</time>
      </trkpt>
      <trkpt lat="46.34102" lon="5.82737">
        <ele>752.20001220703</ele>
        <time>2025-08-08T07:24:19.000Z</time>
      </trkpt>
      <trkpt lat="46.341" lon="5.82736">
        <ele>752.40002441406</ele>
        <time>2025-08-08T07:24:20.000Z</time>
      </trkpt>
      <trkpt lat="46.34086" lon="5.82727">
        <ele>753.20001220703</ele>
        <time>2025-08-08T07:24:25.000Z</time>
      </trkpt>
      <trkpt lat="46.3408" lon="5.82725">
        <ele>753.59997558594</ele>
        <time>2025-08-08T07:24:27.000Z</time>
      </trkpt>
      <trkpt lat="46.34067" lon="5.82721">
        <ele>754.40002441406</ele>
        <time>2025-08-08T07:24:31.000Z</time>
      </trkpt>
      <trkpt lat="46.34055" lon="5.82716">
        <ele>755.40002441406</ele>
        <time>2025-08-08T07:24:35.000Z</time>
      </trkpt>
      <trkpt lat="46.34049" lon="5.82713">
        <ele>755.59997558594</ele>
        <time>2025-08-08T07:24:37.000Z</time>
      </trkpt>
      <trkpt lat="46.34033" lon="5.82703">
        <ele>756.59997558594</ele>
        <time>2025-08-08T07:24:43.000Z</time>
      </trkpt>
      <trkpt lat="46.3403" lon="5.82701">
        <ele>756.79998779297</ele>
        <time>2025-08-08T07:24:44.000Z</time>
      </trkpt>
      <trkpt lat="46.34015" lon="5.82686">
        <ele>757.59997558594</ele>
        <time>2025-08-08T07:24:50.000Z</time>
      </trkpt>
      <trkpt lat="46.34012" lon="5.82683">
        <ele>758</ele>
        <time>2025-08-08T07:24:51.000Z</time>
      </trkpt>
      <trkpt lat="46.34006" lon="5.82676">
        <ele>758.59997558594</ele>
        <time>2025-08-08T07:24:54.000Z</time>
      </trkpt>
      <trkpt lat="46.34003" lon="5.82673">
        <ele>758.59997558594</ele>
        <time>2025-08-08T07:24:55.000Z</time>
      </trkpt>
      <trkpt lat="46.33991" lon="5.8266">
        <ele>759.59997558594</ele>
        <time>2025-08-08T07:25:00.000Z</time>
      </trkpt>
      <trkpt lat="46.33988" lon="5.82656">
        <ele>759.79998779297</ele>
        <time>2025-08-08T07:25:01.000Z</time>
      </trkpt>
      <trkpt lat="46.33979" lon="5.82645">
        <ele>760.79998779297</ele>
        <time>2025-08-08T07:25:05.000Z</time>
      </trkpt>
      <trkpt lat="46.33973" lon="5.82637">
        <ele>761.40002441406</ele>
        <time>2025-08-08T07:25:08.000Z</time>
      </trkpt>
      <trkpt lat="46.33968" lon="5.82632">
        <ele>762</ele>
        <time>2025-08-08T07:25:10.000Z</time>
      </trkpt>
      <trkpt lat="46.3396" lon="5.82625">
        <ele>762.40002441406</ele>
        <time>2025-08-08T07:25:13.000Z</time>
      </trkpt>
      <trkpt lat="46.33953" lon="5.82617">
        <ele>763</ele>
        <time>2025-08-08T07:25:16.000Z</time>
      </trkpt>
      <trkpt lat="46.33939" lon="5.82604">
        <ele>764</ele>
        <time>2025-08-08T07:25:21.000Z</time>
      </trkpt>
      <trkpt lat="46.33923" lon="5.82587">
        <ele>765.40002441406</ele>
        <time>2025-08-08T07:25:28.000Z</time>
      </trkpt>
      <trkpt lat="46.33918" lon="5.82581">
        <ele>765.59997558594</ele>
        <time>2025-08-08T07:25:30.000Z</time>
      </trkpt>
      <trkpt lat="46.33906" lon="5.82567">
        <ele>766.40002441406</ele>
        <time>2025-08-08T07:25:35.000Z</time>
      </trkpt>
      <trkpt lat="46.33896" lon="5.82556">
        <ele>767.20001220703</ele>
        <time>2025-08-08T07:25:39.000Z</time>
      </trkpt>
      <trkpt lat="46.33891" lon="5.8255">
        <ele>767.59997558594</ele>
        <time>2025-08-08T07:25:41.000Z</time>
      </trkpt>
      <trkpt lat="46.33881" lon="5.8254">
        <ele>768.79998779297</ele>
        <time>2025-08-08T07:25:45.000Z</time>
      </trkpt>
      <trkpt lat="46.33875" lon="5.82535">
        <ele>769.20001220703</ele>
        <time>2025-08-08T07:25:47.000Z</time>
      </trkpt>
      <trkpt lat="46.33865" lon="5.82525">
        <ele>769.79998779297</ele>
        <time>2025-08-08T07:25:51.000Z</time>
      </trkpt>
      <trkpt lat="46.33852" lon="5.82512">
        <ele>770.40002441406</ele>
        <time>2025-08-08T07:25:56.000Z</time>
      </trkpt>
      <trkpt lat="46.3385" lon="5.8251">
        <ele>771</ele>
        <time>2025-08-08T07:25:57.000Z</time>
      </trkpt>
      <trkpt lat="46.33837" lon="5.82496">
        <ele>772</ele>
        <time>2025-08-08T07:26:02.000Z</time>
      </trkpt>
      <trkpt lat="46.3383" lon="5.82488">
        <ele>772.59997558594</ele>
        <time>2025-08-08T07:26:05.000Z</time>
      </trkpt>
      <trkpt lat="46.3382" lon="5.82477">
        <ele>773</ele>
        <time>2025-08-08T07:26:09.000Z</time>
      </trkpt>
      <trkpt lat="46.33807" lon="5.82456">
        <ele>774.20001220703</ele>
        <time>2025-08-08T07:26:15.000Z</time>
      </trkpt>
      <trkpt lat="46.33797" lon="5.82438">
        <ele>775.40002441406</ele>
        <time>2025-08-08T07:26:20.000Z</time>
      </trkpt>
      <trkpt lat="46.33793" lon="5.82425">
        <ele>776</ele>
        <time>2025-08-08T07:26:23.000Z</time>
      </trkpt>
      <trkpt lat="46.33789" lon="5.82407">
        <ele>776.59997558594</ele>
        <time>2025-08-08T07:26:27.000Z</time>
      </trkpt>
      <trkpt lat="46.33788" lon="5.82398">
        <ele>777</ele>
        <time>2025-08-08T07:26:29.000Z</time>
      </trkpt>
      <trkpt lat="46.33787" lon="5.82383">
        <ele>777.59997558594</ele>
        <time>2025-08-08T07:26:32.000Z</time>
      </trkpt>
      <trkpt lat="46.33785" lon="5.82364">
        <ele>778.79998779297</ele>
        <time>2025-08-08T07:26:37.000Z</time>
      </trkpt>
      <trkpt lat="46.33781" lon="5.82342">
        <ele>779.79998779297</ele>
        <time>2025-08-08T07:26:42.000Z</time>
      </trkpt>
      <trkpt lat="46.33781" lon="5.82339">
        <ele>780</ele>
        <time>2025-08-08T07:26:43.000Z</time>
      </trkpt>
      <trkpt lat="46.33773" lon="5.8232">
        <ele>781</ele>
        <time>2025-08-08T07:26:48.000Z</time>
      </trkpt>
      <trkpt lat="46.33767" lon="5.8231">
        <ele>781.59997558594</ele>
        <time>2025-08-08T07:26:51.000Z</time>
      </trkpt>
      <trkpt lat="46.33758" lon="5.82298">
        <ele>782.20001220703</ele>
        <time>2025-08-08T07:26:55.000Z</time>
      </trkpt>
      <trkpt lat="46.3375" lon="5.82292">
        <ele>782.79998779297</ele>
        <time>2025-08-08T07:26:58.000Z</time>
      </trkpt>
      <trkpt lat="46.3374" lon="5.82283">
        <ele>783.40002441406</ele>
        <time>2025-08-08T07:27:02.000Z</time>
      </trkpt>
      <trkpt lat="46.33733" lon="5.82271">
        <ele>784.20001220703</ele>
        <time>2025-08-08T07:27:06.000Z</time>
      </trkpt>
      <trkpt lat="46.3373" lon="5.82263">
        <ele>784.59997558594</ele>
        <time>2025-08-08T07:27:08.000Z</time>
      </trkpt>
      <trkpt lat="46.33722" lon="5.82244">
        <ele>785.59997558594</ele>
        <time>2025-08-08T07:27:13.000Z</time>
      </trkpt>
      <trkpt lat="46.33713" lon="5.82226">
        <ele>786.79998779297</ele>
        <time>2025-08-08T07:27:18.000Z</time>
      </trkpt>
      <trkpt lat="46.33711" lon="5.82223">
        <ele>787.20001220703</ele>
        <time>2025-08-08T07:27:19.000Z</time>
      </trkpt>
      <trkpt lat="46.33706" lon="5.82212">
        <ele>787.59997558594</ele>
        <time>2025-08-08T07:27:22.000Z</time>
      </trkpt>
      <trkpt lat="46.33705" lon="5.82208">
        <ele>788</ele>
        <time>2025-08-08T07:27:23.000Z</time>
      </trkpt>
      <trkpt lat="46.33695" lon="5.82189">
        <ele>789</ele>
        <time>2025-08-08T07:27:28.000Z</time>
      </trkpt>
      <trkpt lat="46.33692" lon="5.82182">
        <ele>789.59997558594</ele>
        <time>2025-08-08T07:27:30.000Z</time>
      </trkpt>
      <trkpt lat="46.33682" lon="5.8217">
        <ele>790.20001220703</ele>
        <time>2025-08-08T07:27:34.000Z</time>
      </trkpt>
      <trkpt lat="46.33669" lon="5.82158">
        <ele>791</ele>
        <time>2025-08-08T07:27:39.000Z</time>
      </trkpt>
      <trkpt lat="46.33666" lon="5.82154">
        <ele>791.20001220703</ele>
        <time>2025-08-08T07:27:40.000Z</time>
      </trkpt>
      <trkpt lat="46.33651" lon="5.82144">
        <ele>791.79998779297</ele>
        <time>2025-08-08T07:27:45.000Z</time>
      </trkpt>
      <trkpt lat="46.33646" lon="5.82141">
        <ele>792.20001220703</ele>
        <time>2025-08-08T07:27:47.000Z</time>
      </trkpt>
      <trkpt lat="46.33631" lon="5.82125">
        <ele>793.20001220703</ele>
        <time>2025-08-08T07:27:53.000Z</time>
      </trkpt>
      <trkpt lat="46.33628" lon="5.82122">
        <ele>793.40002441406</ele>
        <time>2025-08-08T07:27:54.000Z</time>
      </trkpt>
      <trkpt lat="46.33615" lon="5.82103">
        <ele>794.40002441406</ele>
        <time>2025-08-08T07:28:00.000Z</time>
      </trkpt>
      <trkpt lat="46.3361" lon="5.82096">
        <ele>794.79998779297</ele>
        <time>2025-08-08T07:28:02.000Z</time>
      </trkpt>
      <trkpt lat="46.33601" lon="5.82086">
        <ele>795.59997558594</ele>
        <time>2025-08-08T07:28:06.000Z</time>
      </trkpt>
      <trkpt lat="46.3359" lon="5.82076">
        <ele>796.40002441406</ele>
        <time>2025-08-08T07:28:10.000Z</time>
      </trkpt>
      <trkpt lat="46.33585" lon="5.82072">
        <ele>796.79998779297</ele>
        <time>2025-08-08T07:28:12.000Z</time>
      </trkpt>
      <trkpt lat="46.3357" lon="5.82064">
        <ele>797.59997558594</ele>
        <time>2025-08-08T07:28:17.000Z</time>
      </trkpt>
      <trkpt lat="46.33567" lon="5.82062">
        <ele>797.79998779297</ele>
        <time>2025-08-08T07:28:18.000Z</time>
      </trkpt>
      <trkpt lat="46.33549" lon="5.82055">
        <ele>798.79998779297</ele>
        <time>2025-08-08T07:28:24.000Z</time>
      </trkpt>
      <trkpt lat="46.33546" lon="5.82053">
        <ele>798.79998779297</ele>
        <time>2025-08-08T07:28:25.000Z</time>
      </trkpt>
      <trkpt lat="46.33535" lon="5.82048">
        <ele>799.79998779297</ele>
        <time>2025-08-08T07:28:29.000Z</time>
      </trkpt>
      <trkpt lat="46.33525" lon="5.82043">
        <ele>800.40002441406</ele>
        <time>2025-08-08T07:28:32.000Z</time>
      </trkpt>
      <trkpt lat="46.33519" lon="5.82041">
        <ele>800.79998779297</ele>
        <time>2025-08-08T07:28:34.000Z</time>
      </trkpt>
      <trkpt lat="46.33504" lon="5.82036">
        <ele>801.40002441406</ele>
        <time>2025-08-08T07:28:39.000Z</time>
      </trkpt>
      <trkpt lat="46.33498" lon="5.82035">
        <ele>802.20001220703</ele>
        <time>2025-08-08T07:28:41.000Z</time>
      </trkpt>
      <trkpt lat="46.33484" lon="5.82033">
        <ele>803.20001220703</ele>
        <time>2025-08-08T07:28:45.000Z</time>
      </trkpt>
      <trkpt lat="46.33469" lon="5.82031">
        <ele>804.20001220703</ele>
        <time>2025-08-08T07:28:50.000Z</time>
      </trkpt>
      <trkpt lat="46.33465" lon="5.8203">
        <ele>804.40002441406</ele>
        <time>2025-08-08T07:28:51.000Z</time>
      </trkpt>
      <trkpt lat="46.33443" lon="5.82034">
        <ele>805.40002441406</ele>
        <time>2025-08-08T07:28:58.000Z</time>
      </trkpt>
      <trkpt lat="46.3344" lon="5.82034">
        <ele>805.59997558594</ele>
        <time>2025-08-08T07:28:59.000Z</time>
      </trkpt>
      <trkpt lat="46.33431" lon="5.82034">
        <ele>806.40002441406</ele>
        <time>2025-08-08T07:29:02.000Z</time>
      </trkpt>
      <trkpt lat="46.33419" lon="5.82034">
        <ele>806.79998779297</ele>
        <time>2025-08-08T07:29:06.000Z</time>
      </trkpt>
      <trkpt lat="46.33414" lon="5.82032">
        <ele>807.40002441406</ele>
        <time>2025-08-08T07:29:08.000Z</time>
      </trkpt>
      <trkpt lat="46.33404" lon="5.8203">
        <ele>808</ele>
        <time>2025-08-08T07:29:11.000Z</time>
      </trkpt>
      <trkpt lat="46.33393" lon="5.8202">
        <ele>808.59997558594</ele>
        <time>2025-08-08T07:29:15.000Z</time>
      </trkpt>
      <trkpt lat="46.33383" lon="5.82013">
        <ele>809.40002441406</ele>
        <time>2025-08-08T07:29:19.000Z</time>
      </trkpt>
      <trkpt lat="46.3338" lon="5.82011">
        <ele>809.79998779297</ele>
        <time>2025-08-08T07:29:20.000Z</time>
      </trkpt>
      <trkpt lat="46.33365" lon="5.81999">
        <ele>810.79998779297</ele>
        <time>2025-08-08T07:29:26.000Z</time>
      </trkpt>
      <trkpt lat="46.33359" lon="5.81996">
        <ele>811.40002441406</ele>
        <time>2025-08-08T07:29:28.000Z</time>
      </trkpt>
      <trkpt lat="46.33353" lon="5.81995">
        <ele>812</ele>
        <time>2025-08-08T07:29:30.000Z</time>
      </trkpt>
      <trkpt lat="46.33333" lon="5.81995">
        <ele>813</ele>
        <time>2025-08-08T07:29:36.000Z</time>
      </trkpt>
      <trkpt lat="46.33314" lon="5.82004">
        <ele>814.20001220703</ele>
        <time>2025-08-08T07:29:43.000Z</time>
      </trkpt>
      <trkpt lat="46.33302" lon="5.82014">
        <ele>815.40002441406</ele>
        <time>2025-08-08T07:29:48.000Z</time>
      </trkpt>
      <trkpt lat="46.33297" lon="5.82018">
        <ele>815.79998779297</ele>
        <time>2025-08-08T07:29:50.000Z</time>
      </trkpt>
      <trkpt lat="46.33285" lon="5.82028">
        <ele>816.59997558594</ele>
        <time>2025-08-08T07:29:55.000Z</time>
      </trkpt>
      <trkpt lat="46.33282" lon="5.82029">
        <ele>816.79998779297</ele>
        <time>2025-08-08T07:29:56.000Z</time>
      </trkpt>
      <trkpt lat="46.33269" lon="5.8204">
        <ele>817.59997558594</ele>
        <time>2025-08-08T07:30:01.000Z</time>
      </trkpt>
      <trkpt lat="46.33266" lon="5.82041">
        <ele>817.59997558594</ele>
        <time>2025-08-08T07:30:02.000Z</time>
      </trkpt>
      <trkpt lat="46.33261" lon="5.82044">
        <ele>818.20001220703</ele>
        <time>2025-08-08T07:30:04.000Z</time>
      </trkpt>
      <trkpt lat="46.33258" lon="5.82046">
        <ele>818.59997558594</ele>
        <time>2025-08-08T07:30:05.000Z</time>
      </trkpt>
      <trkpt lat="46.33241" lon="5.82052">
        <ele>819.59997558594</ele>
        <time>2025-08-08T07:30:11.000Z</time>
      </trkpt>
      <trkpt lat="46.33225" lon="5.82054">
        <ele>820.59997558594</ele>
        <time>2025-08-08T07:30:16.000Z</time>
      </trkpt>
      <trkpt lat="46.33215" lon="5.82054">
        <ele>821.40002441406</ele>
        <time>2025-08-08T07:30:19.000Z</time>
      </trkpt>
      <trkpt lat="46.3321" lon="5.82055">
        <ele>822</ele>
        <time>2025-08-08T07:30:21.000Z</time>
      </trkpt>
      <trkpt lat="46.33197" lon="5.82054">
        <ele>822.59997558594</ele>
        <time>2025-08-08T07:30:25.000Z</time>
      </trkpt>
      <trkpt lat="46.33188" lon="5.82054">
        <ele>823.20001220703</ele>
        <time>2025-08-08T07:30:28.000Z</time>
      </trkpt>
      <trkpt lat="46.33173" lon="5.82055">
        <ele>824.20001220703</ele>
        <time>2025-08-08T07:30:33.000Z</time>
      </trkpt>
      <trkpt lat="46.3317" lon="5.82055">
        <ele>824.40002441406</ele>
        <time>2025-08-08T07:30:34.000Z</time>
      </trkpt>
      <trkpt lat="46.33152" lon="5.82057">
        <ele>825.40002441406</ele>
        <time>2025-08-08T07:30:40.000Z</time>
      </trkpt>
      <trkpt lat="46.33131" lon="5.82053">
        <ele>826.40002441406</ele>
        <time>2025-08-08T07:30:47.000Z</time>
      </trkpt>
      <trkpt lat="46.33108" lon="5.82052">
        <ele>827.59997558594</ele>
        <time>2025-08-08T07:30:54.000Z</time>
      </trkpt>
      <trkpt lat="46.33094" lon="5.82051">
        <ele>828.59997558594</ele>
        <time>2025-08-08T07:30:59.000Z</time>
      </trkpt>
      <trkpt lat="46.33085" lon="5.82049">
        <ele>829</ele>
        <time>2025-08-08T07:31:02.000Z</time>
      </trkpt>
      <trkpt lat="46.33073" lon="5.82046">
        <ele>829.79998779297</ele>
        <time>2025-08-08T07:31:06.000Z</time>
      </trkpt>
      <trkpt lat="46.33065" lon="5.82045">
        <ele>830</ele>
        <time>2025-08-08T07:31:09.000Z</time>
      </trkpt>
      <trkpt lat="46.33049" lon="5.82042">
        <ele>831</ele>
        <time>2025-08-08T07:31:14.000Z</time>
      </trkpt>
      <trkpt lat="46.33043" lon="5.82041">
        <ele>831.20001220703</ele>
        <time>2025-08-08T07:31:16.000Z</time>
      </trkpt>
      <trkpt lat="46.33032" lon="5.82039">
        <ele>832.20001220703</ele>
        <time>2025-08-08T07:31:20.000Z</time>
      </trkpt>
      <trkpt lat="46.33015" lon="5.82036">
        <ele>833.20001220703</ele>
        <time>2025-08-08T07:31:26.000Z</time>
      </trkpt>
      <trkpt lat="46.33011" lon="5.82035">
        <ele>833.40002441406</ele>
        <time>2025-08-08T07:31:27.000Z</time>
      </trkpt>
      <trkpt lat="46.32991" lon="5.82031">
        <ele>834.59997558594</ele>
        <time>2025-08-08T07:31:34.000Z</time>
      </trkpt>
      <trkpt lat="46.32985" lon="5.82029">
        <ele>834.79998779297</ele>
        <time>2025-08-08T07:31:36.000Z</time>
      </trkpt>
      <trkpt lat="46.3297" lon="5.82024">
        <ele>835.59997558594</ele>
        <time>2025-08-08T07:31:41.000Z</time>
      </trkpt>
      <trkpt lat="46.32965" lon="5.82021">
        <ele>835.79998779297</ele>
        <time>2025-08-08T07:31:43.000Z</time>
      </trkpt>
      <trkpt lat="46.32953" lon="5.82012">
        <ele>836.79998779297</ele>
        <time>2025-08-08T07:31:48.000Z</time>
      </trkpt>
      <trkpt lat="46.32949" lon="5.82009">
        <ele>837.20001220703</ele>
        <time>2025-08-08T07:31:50.000Z</time>
      </trkpt>
      <trkpt lat="46.32944" lon="5.82006">
        <ele>837.59997558594</ele>
        <time>2025-08-08T07:31:52.000Z</time>
      </trkpt>
      <trkpt lat="46.32941" lon="5.82005">
        <ele>838</ele>
        <time>2025-08-08T07:31:53.000Z</time>
      </trkpt>
      <trkpt lat="46.32929" lon="5.82002">
        <ele>838.59997558594</ele>
        <time>2025-08-08T07:31:57.000Z</time>
      </trkpt>
      <trkpt lat="46.32922" lon="5.82004">
        <ele>838.79998779297</ele>
        <time>2025-08-08T07:31:59.000Z</time>
      </trkpt>
      <trkpt lat="46.32903" lon="5.82009">
        <ele>839.79998779297</ele>
        <time>2025-08-08T07:32:05.000Z</time>
      </trkpt>
      <trkpt lat="46.329" lon="5.82009">
        <ele>840</ele>
        <time>2025-08-08T07:32:06.000Z</time>
      </trkpt>
      <trkpt lat="46.32885" lon="5.82007">
        <ele>840.79998779297</ele>
        <time>2025-08-08T07:32:11.000Z</time>
      </trkpt>
      <trkpt lat="46.32879" lon="5.82005">
        <ele>841</ele>
        <time>2025-08-08T07:32:13.000Z</time>
      </trkpt>
      <trkpt lat="46.32869" lon="5.82002">
        <ele>841.79998779297</ele>
        <time>2025-08-08T07:32:16.000Z</time>
      </trkpt>
      <trkpt lat="46.32864" lon="5.82">
        <ele>842.20001220703</ele>
        <time>2025-08-08T07:32:18.000Z</time>
      </trkpt>
      <trkpt lat="46.32855" lon="5.81998">
        <ele>842.40002441406</ele>
        <time>2025-08-08T07:32:21.000Z</time>
      </trkpt>
      <trkpt lat="46.32839" lon="5.81988">
        <ele>843.40002441406</ele>
        <time>2025-08-08T07:32:27.000Z</time>
      </trkpt>
      <trkpt lat="46.32831" lon="5.81983">
        <ele>844.40002441406</ele>
        <time>2025-08-08T07:32:30.000Z</time>
      </trkpt>
      <trkpt lat="46.3282" lon="5.8197">
        <ele>845.59997558594</ele>
        <time>2025-08-08T07:32:35.000Z</time>
      </trkpt>
      <trkpt lat="46.32816" lon="5.81965">
        <ele>845.79998779297</ele>
        <time>2025-08-08T07:32:37.000Z</time>
      </trkpt>
      <trkpt lat="46.32808" lon="5.81956">
        <ele>846.79998779297</ele>
        <time>2025-08-08T07:32:41.000Z</time>
      </trkpt>
      <trkpt lat="46.32802" lon="5.81953">
        <ele>847</ele>
        <time>2025-08-08T07:32:43.000Z</time>
      </trkpt>
      <trkpt lat="46.32793" lon="5.81948">
        <ele>847.79998779297</ele>
        <time>2025-08-08T07:32:46.000Z</time>
      </trkpt>
      <trkpt lat="46.32787" lon="5.81946">
        <ele>848.40002441406</ele>
        <time>2025-08-08T07:32:48.000Z</time>
      </trkpt>
      <trkpt lat="46.32774" lon="5.81944">
        <ele>848.79998779297</ele>
        <time>2025-08-08T07:32:52.000Z</time>
      </trkpt>
      <trkpt lat="46.32764" lon="5.81941">
        <ele>849.40002441406</ele>
        <time>2025-08-08T07:32:55.000Z</time>
      </trkpt>
      <trkpt lat="46.3275" lon="5.81933">
        <ele>850</ele>
        <time>2025-08-08T07:33:00.000Z</time>
      </trkpt>
      <trkpt lat="46.32743" lon="5.81926">
        <ele>850.59997558594</ele>
        <time>2025-08-08T07:33:03.000Z</time>
      </trkpt>
      <trkpt lat="46.32729" lon="5.81916">
        <ele>851</ele>
        <time>2025-08-08T07:33:08.000Z</time>
      </trkpt>
      <trkpt lat="46.32722" lon="5.81909">
        <ele>851.59997558594</ele>
        <time>2025-08-08T07:33:11.000Z</time>
      </trkpt>
      <trkpt lat="46.32714" lon="5.81902">
        <ele>852.20001220703</ele>
        <time>2025-08-08T07:33:14.000Z</time>
      </trkpt>
      <trkpt lat="46.32702" lon="5.81892">
        <ele>853</ele>
        <time>2025-08-08T07:33:19.000Z</time>
      </trkpt>
      <trkpt lat="46.32695" lon="5.8189">
        <ele>853.59997558594</ele>
        <time>2025-08-08T07:33:21.000Z</time>
      </trkpt>
      <trkpt lat="46.3268" lon="5.8189">
        <ele>854.40002441406</ele>
        <time>2025-08-08T07:33:26.000Z</time>
      </trkpt>
      <trkpt lat="46.32662" lon="5.81899">
        <ele>855.40002441406</ele>
        <time>2025-08-08T07:33:32.000Z</time>
      </trkpt>
      <trkpt lat="46.32656" lon="5.81901">
        <ele>855.79998779297</ele>
        <time>2025-08-08T07:33:34.000Z</time>
      </trkpt>
      <trkpt lat="46.32644" lon="5.81904">
        <ele>856.79998779297</ele>
        <time>2025-08-08T07:33:38.000Z</time>
      </trkpt>
      <trkpt lat="46.32632" lon="5.81904">
        <ele>857.40002441406</ele>
        <time>2025-08-08T07:33:42.000Z</time>
      </trkpt>
      <trkpt lat="46.32625" lon="5.81903">
        <ele>857.59997558594</ele>
        <time>2025-08-08T07:33:44.000Z</time>
      </trkpt>
      <trkpt lat="46.32622" lon="5.81901">
        <ele>857.79998779297</ele>
        <time>2025-08-08T07:33:45.000Z</time>
      </trkpt>
      <trkpt lat="46.32612" lon="5.81894">
        <ele>858.40002441406</ele>
        <time>2025-08-08T07:33:49.000Z</time>
      </trkpt>
      <trkpt lat="46.32607" lon="5.8189">
        <ele>859</ele>
        <time>2025-08-08T07:33:51.000Z</time>
      </trkpt>
      <trkpt lat="46.32594" lon="5.8188">
        <ele>860</ele>
        <time>2025-08-08T07:33:56.000Z</time>
      </trkpt>
      <trkpt lat="46.32592" lon="5.81878">
        <ele>860.20001220703</ele>
        <time>2025-08-08T07:33:57.000Z</time>
      </trkpt>
      <trkpt lat="46.3258" lon="5.81866">
        <ele>861</ele>
        <time>2025-08-08T07:34:02.000Z</time>
      </trkpt>
      <trkpt lat="46.32577" lon="5.81864">
        <ele>861.40002441406</ele>
        <time>2025-08-08T07:34:03.000Z</time>
      </trkpt>
      <trkpt lat="46.3256" lon="5.81849">
        <ele>862.59997558594</ele>
        <time>2025-08-08T07:34:09.000Z</time>
      </trkpt>
      <trkpt lat="46.32555" lon="5.81845">
        <ele>862.79998779297</ele>
        <time>2025-08-08T07:34:11.000Z</time>
      </trkpt>
      <trkpt lat="46.32544" lon="5.81838">
        <ele>863.59997558594</ele>
        <time>2025-08-08T07:34:15.000Z</time>
      </trkpt>
      <trkpt lat="46.32535" lon="5.81833">
        <ele>864</ele>
        <time>2025-08-08T07:34:18.000Z</time>
      </trkpt>
      <trkpt lat="46.32524" lon="5.81828">
        <ele>864.79998779297</ele>
        <time>2025-08-08T07:34:22.000Z</time>
      </trkpt>
      <trkpt lat="46.32517" lon="5.81826">
        <ele>865.20001220703</ele>
        <time>2025-08-08T07:34:24.000Z</time>
      </trkpt>
      <trkpt lat="46.32508" lon="5.81824">
        <ele>866</ele>
        <time>2025-08-08T07:34:27.000Z</time>
      </trkpt>
      <trkpt lat="46.3249" lon="5.81821">
        <ele>867.40002441406</ele>
        <time>2025-08-08T07:34:33.000Z</time>
      </trkpt>
      <trkpt lat="46.32487" lon="5.8182">
        <ele>867.79998779297</ele>
        <time>2025-08-08T07:34:34.000Z</time>
      </trkpt>
      <trkpt lat="46.32476" lon="5.81813">
        <ele>868.40002441406</ele>
        <time>2025-08-08T07:34:38.000Z</time>
      </trkpt>
      <trkpt lat="46.32466" lon="5.81806">
        <ele>869.40002441406</ele>
        <time>2025-08-08T07:34:42.000Z</time>
      </trkpt>
      <trkpt lat="46.32463" lon="5.81804">
        <ele>869.59997558594</ele>
        <time>2025-08-08T07:34:43.000Z</time>
      </trkpt>
      <trkpt lat="46.32452" lon="5.81796">
        <ele>870.79998779297</ele>
        <time>2025-08-08T07:34:47.000Z</time>
      </trkpt>
      <trkpt lat="46.3244" lon="5.81792">
        <ele>871.59997558594</ele>
        <time>2025-08-08T07:34:51.000Z</time>
      </trkpt>
      <trkpt lat="46.32437" lon="5.81791">
        <ele>871.59997558594</ele>
        <time>2025-08-08T07:34:52.000Z</time>
      </trkpt>
      <trkpt lat="46.32417" lon="5.81785">
        <ele>872.59997558594</ele>
        <time>2025-08-08T07:34:58.000Z</time>
      </trkpt>
      <trkpt lat="46.32414" lon="5.81783">
        <ele>872.79998779297</ele>
        <time>2025-08-08T07:34:59.000Z</time>
      </trkpt>
      <trkpt lat="46.32391" lon="5.81768">
        <ele>873.59997558594</ele>
        <time>2025-08-08T07:35:07.000Z</time>
      </trkpt>
      <trkpt lat="46.32389" lon="5.81766">
        <ele>873.79998779297</ele>
        <time>2025-08-08T07:35:08.000Z</time>
      </trkpt>
      <trkpt lat="46.32374" lon="5.8175">
        <ele>874.79998779297</ele>
        <time>2025-08-08T07:35:14.000Z</time>
      </trkpt>
      <trkpt lat="46.32368" lon="5.81742">
        <ele>875.59997558594</ele>
        <time>2025-08-08T07:35:17.000Z</time>
      </trkpt>
      <trkpt lat="46.32362" lon="5.81737">
        <ele>875.79998779297</ele>
        <time>2025-08-08T07:35:19.000Z</time>
      </trkpt>
      <trkpt lat="46.32351" lon="5.81726">
        <ele>877</ele>
        <time>2025-08-08T07:35:23.000Z</time>
      </trkpt>
      <trkpt lat="46.32339" lon="5.81719">
        <ele>877.40002441406</ele>
        <time>2025-08-08T07:35:27.000Z</time>
      </trkpt>
      <trkpt lat="46.32325" lon="5.81714">
        <ele>877.79998779297</ele>
        <time>2025-08-08T07:35:31.000Z</time>
      </trkpt>
      <trkpt lat="46.32312" lon="5.81711">
        <ele>878.40002441406</ele>
        <time>2025-08-08T07:35:35.000Z</time>
      </trkpt>
      <trkpt lat="46.32302" lon="5.81707">
        <ele>879</ele>
        <time>2025-08-08T07:35:38.000Z</time>
      </trkpt>
      <trkpt lat="46.32285" lon="5.81704">
        <ele>879.59997558594</ele>
        <time>2025-08-08T07:35:43.000Z</time>
      </trkpt>
      <trkpt lat="46.32279" lon="5.81702">
        <ele>879.79998779297</ele>
        <time>2025-08-08T07:35:45.000Z</time>
      </trkpt>
      <trkpt lat="46.32275" lon="5.81701">
        <ele>879.79998779297</ele>
        <time>2025-08-08T07:35:46.000Z</time>
      </trkpt>
      <trkpt lat="46.32254" lon="5.81698">
        <ele>881</ele>
        <time>2025-08-08T07:35:52.000Z</time>
      </trkpt>
      <trkpt lat="46.32235" lon="5.817">
        <ele>882</ele>
        <time>2025-08-08T07:35:57.000Z</time>
      </trkpt>
      <trkpt lat="46.3222" lon="5.81702">
        <ele>882.20001220703</ele>
        <time>2025-08-08T07:36:01.000Z</time>
      </trkpt>
      <trkpt lat="46.32188" lon="5.81708">
        <ele>882.79998779297</ele>
        <time>2025-08-08T07:36:09.000Z</time>
      </trkpt>
      <trkpt lat="46.3216" lon="5.81716">
        <ele>883.59997558594</ele>
        <time>2025-08-08T07:36:16.000Z</time>
      </trkpt>
      <trkpt lat="46.32135" lon="5.81724">
        <ele>884</ele>
        <time>2025-08-08T07:36:22.000Z</time>
      </trkpt>
      <trkpt lat="46.32122" lon="5.81728">
        <ele>884.40002441406</ele>
        <time>2025-08-08T07:36:25.000Z</time>
      </trkpt>
      <trkpt lat="46.3211" lon="5.8173">
        <ele>884.59997558594</ele>
        <time>2025-08-08T07:36:28.000Z</time>
      </trkpt>
      <trkpt lat="46.32105" lon="5.8173">
        <ele>884.59997558594</ele>
        <time>2025-08-08T07:36:29.000Z</time>
      </trkpt>
      <trkpt lat="46.32101" lon="5.8173">
        <ele>884.59997558594</ele>
        <time>2025-08-08T07:36:30.000Z</time>
      </trkpt>
      <trkpt lat="46.3207" lon="5.81722">
        <ele>885.20001220703</ele>
        <time>2025-08-08T07:36:37.000Z</time>
      </trkpt>
      <trkpt lat="46.32049" lon="5.8171">
        <ele>885.59997558594</ele>
        <time>2025-08-08T07:36:42.000Z</time>
      </trkpt>
      <trkpt lat="46.32027" lon="5.81696">
        <ele>885.59997558594</ele>
        <time>2025-08-08T07:36:47.000Z</time>
      </trkpt>
      <trkpt lat="46.31994" lon="5.81669">
        <ele>886.40002441406</ele>
        <time>2025-08-08T07:36:55.000Z</time>
      </trkpt>
      <trkpt lat="46.3199" lon="5.81666">
        <ele>886.59997558594</ele>
        <time>2025-08-08T07:36:56.000Z</time>
      </trkpt>
      <trkpt lat="46.31951" lon="5.8164">
        <ele>887.40002441406</ele>
        <time>2025-08-08T07:37:05.000Z</time>
      </trkpt>
      <trkpt lat="46.31921" lon="5.81632">
        <ele>887.79998779297</ele>
        <time>2025-08-08T07:37:11.000Z</time>
      </trkpt>
      <trkpt lat="46.31889" lon="5.81627">
        <ele>888</ele>
        <time>2025-08-08T07:37:17.000Z</time>
      </trkpt>
      <trkpt lat="46.31878" lon="5.81624">
        <ele>888.20001220703</ele>
        <time>2025-08-08T07:37:19.000Z</time>
      </trkpt>
      <trkpt lat="46.31856" lon="5.81618">
        <ele>888.20001220703</ele>
        <time>2025-08-08T07:37:23.000Z</time>
      </trkpt>
      <trkpt lat="46.3184" lon="5.81614">
        <ele>888.40002441406</ele>
        <time>2025-08-08T07:37:26.000Z</time>
      </trkpt>
      <trkpt lat="46.31829" lon="5.8161">
        <ele>888.40002441406</ele>
        <time>2025-08-08T07:37:28.000Z</time>
      </trkpt>
      <trkpt lat="46.31786" lon="5.81603">
        <ele>888.20001220703</ele>
        <time>2025-08-08T07:37:36.000Z</time>
      </trkpt>
      <trkpt lat="46.31749" lon="5.81607">
        <ele>888.20001220703</ele>
        <time>2025-08-08T07:37:43.000Z</time>
      </trkpt>
      <trkpt lat="46.31722" lon="5.81608">
        <ele>888.40002441406</ele>
        <time>2025-08-08T07:37:48.000Z</time>
      </trkpt>
      <trkpt lat="46.31712" lon="5.81608">
        <ele>888.40002441406</ele>
        <time>2025-08-08T07:37:50.000Z</time>
      </trkpt>
      <trkpt lat="46.31674" lon="5.81603">
        <ele>888.40002441406</ele>
        <time>2025-08-08T07:37:57.000Z</time>
      </trkpt>
      <trkpt lat="46.31668" lon="5.81599">
        <ele>888.40002441406</ele>
        <time>2025-08-08T07:37:58.000Z</time>
      </trkpt>
      <trkpt lat="46.3166" lon="5.81591">
        <ele>888.20001220703</ele>
        <time>2025-08-08T07:38:00.000Z</time>
      </trkpt>
      <trkpt lat="46.31656" lon="5.81585">
        <ele>888.40002441406</ele>
        <time>2025-08-08T07:38:01.000Z</time>
      </trkpt>
      <trkpt lat="46.31632" lon="5.81549">
        <ele>888.40002441406</ele>
        <time>2025-08-08T07:38:07.000Z</time>
      </trkpt>
      <trkpt lat="46.3162" lon="5.81541">
        <ele>888.40002441406</ele>
        <time>2025-08-08T07:38:09.000Z</time>
      </trkpt>
      <trkpt lat="46.31609" lon="5.81539">
        <ele>888.40002441406</ele>
        <time>2025-08-08T07:38:11.000Z</time>
      </trkpt>
      <trkpt lat="46.31573" lon="5.81543">
        <ele>888.40002441406</ele>
        <time>2025-08-08T07:38:18.000Z</time>
      </trkpt>
      <trkpt lat="46.31568" lon="5.81543">
        <ele>888.59997558594</ele>
        <time>2025-08-08T07:38:19.000Z</time>
      </trkpt>
      <trkpt lat="46.31559" lon="5.81543">
        <ele>888.79998779297</ele>
        <time>2025-08-08T07:38:21.000Z</time>
      </trkpt>
      <trkpt lat="46.31555" lon="5.81541">
        <ele>889</ele>
        <time>2025-08-08T07:38:22.000Z</time>
      </trkpt>
      <trkpt lat="46.31551" lon="5.81539">
        <ele>889.20001220703</ele>
        <time>2025-08-08T07:38:23.000Z</time>
      </trkpt>
      <trkpt lat="46.31537" lon="5.8153">
        <ele>889.59997558594</ele>
        <time>2025-08-08T07:38:27.000Z</time>
      </trkpt>
      <trkpt lat="46.31527" lon="5.81522">
        <ele>890.20001220703</ele>
        <time>2025-08-08T07:38:30.000Z</time>
      </trkpt>
      <trkpt lat="46.31524" lon="5.8152">
        <ele>890.40002441406</ele>
        <time>2025-08-08T07:38:31.000Z</time>
      </trkpt>
      <trkpt lat="46.3151" lon="5.81513">
        <ele>891.20001220703</ele>
        <time>2025-08-08T07:38:35.000Z</time>
      </trkpt>
      <trkpt lat="46.31502" lon="5.81511">
        <ele>891.59997558594</ele>
        <time>2025-08-08T07:38:37.000Z</time>
      </trkpt>
      <trkpt lat="46.31492" lon="5.81509">
        <ele>892.40002441406</ele>
        <time>2025-08-08T07:38:40.000Z</time>
      </trkpt>
      <trkpt lat="46.3148" lon="5.81508">
        <ele>892.79998779297</ele>
        <time>2025-08-08T07:38:43.000Z</time>
      </trkpt>
      <trkpt lat="46.31459" lon="5.81508">
        <ele>893.79998779297</ele>
        <time>2025-08-08T07:38:49.000Z</time>
      </trkpt>
      <trkpt lat="46.31449" lon="5.81509">
        <ele>894.40002441406</ele>
        <time>2025-08-08T07:38:52.000Z</time>
      </trkpt>
      <trkpt lat="46.31443" lon="5.81509">
        <ele>895</ele>
        <time>2025-08-08T07:38:54.000Z</time>
      </trkpt>
      <trkpt lat="46.31424" lon="5.81515">
        <ele>895.79998779297</ele>
        <time>2025-08-08T07:39:00.000Z</time>
      </trkpt>
      <trkpt lat="46.31418" lon="5.81517">
        <ele>896.20001220703</ele>
        <time>2025-08-08T07:39:02.000Z</time>
      </trkpt>
      <trkpt lat="46.31399" lon="5.81522">
        <ele>897.20001220703</ele>
        <time>2025-08-08T07:39:08.000Z</time>
      </trkpt>
      <trkpt lat="46.31397" lon="5.81524">
        <ele>897.40002441406</ele>
        <time>2025-08-08T07:39:09.000Z</time>
      </trkpt>
      <trkpt lat="46.31385" lon="5.81526">
        <ele>898</ele>
        <time>2025-08-08T07:39:13.000Z</time>
      </trkpt>
      <trkpt lat="46.31377" lon="5.81527">
        <ele>898.20001220703</ele>
        <time>2025-08-08T07:39:15.000Z</time>
      </trkpt>
      <trkpt lat="46.31357" lon="5.81531">
        <ele>899</ele>
        <time>2025-08-08T07:39:21.000Z</time>
      </trkpt>
      <trkpt lat="46.31345" lon="5.81533">
        <ele>899.40002441406</ele>
        <time>2025-08-08T07:39:25.000Z</time>
      </trkpt>
      <trkpt lat="46.31333" lon="5.81533">
        <ele>900.20001220703</ele>
        <time>2025-08-08T07:39:29.000Z</time>
      </trkpt>
      <trkpt lat="46.31313" lon="5.8154">
        <ele>901.59997558594</ele>
        <time>2025-08-08T07:39:35.000Z</time>
      </trkpt>
      <trkpt lat="46.31305" lon="5.81545">
        <ele>902.59997558594</ele>
        <time>2025-08-08T07:39:38.000Z</time>
      </trkpt>
      <trkpt lat="46.31295" lon="5.81556">
        <ele>903</ele>
        <time>2025-08-08T07:39:42.000Z</time>
      </trkpt>
      <trkpt lat="46.31289" lon="5.81566">
        <ele>903.59997558594</ele>
        <time>2025-08-08T07:39:45.000Z</time>
      </trkpt>
      <trkpt lat="46.3128" lon="5.8158">
        <ele>904.20001220703</ele>
        <time>2025-08-08T07:39:49.000Z</time>
      </trkpt>
      <trkpt lat="46.31276" lon="5.81585">
        <ele>904.59997558594</ele>
        <time>2025-08-08T07:39:51.000Z</time>
      </trkpt>
      <trkpt lat="46.3126" lon="5.81609">
        <ele>905.59997558594</ele>
        <time>2025-08-08T07:39:58.000Z</time>
      </trkpt>
      <trkpt lat="46.31242" lon="5.8162">
        <ele>906.59997558594</ele>
        <time>2025-08-08T07:40:05.000Z</time>
      </trkpt>
      <trkpt lat="46.31227" lon="5.81631">
        <ele>907.59997558594</ele>
        <time>2025-08-08T07:40:10.000Z</time>
      </trkpt>
      <trkpt lat="46.31224" lon="5.81633">
        <ele>907.79998779297</ele>
        <time>2025-08-08T07:40:11.000Z</time>
      </trkpt>
      <trkpt lat="46.31212" lon="5.81641">
        <ele>908.59997558594</ele>
        <time>2025-08-08T07:40:15.000Z</time>
      </trkpt>
      <trkpt lat="46.31206" lon="5.81645">
        <ele>909</ele>
        <time>2025-08-08T07:40:17.000Z</time>
      </trkpt>
      <trkpt lat="46.31191" lon="5.81651">
        <ele>909.79998779297</ele>
        <time>2025-08-08T07:40:22.000Z</time>
      </trkpt>
      <trkpt lat="46.31184" lon="5.81652">
        <ele>910.20001220703</ele>
        <time>2025-08-08T07:40:24.000Z</time>
      </trkpt>
      <trkpt lat="46.31166" lon="5.81654">
        <ele>911.20001220703</ele>
        <time>2025-08-08T07:40:30.000Z</time>
      </trkpt>
      <trkpt lat="46.31163" lon="5.81654">
        <ele>911.40002441406</ele>
        <time>2025-08-08T07:40:31.000Z</time>
      </trkpt>
      <trkpt lat="46.31141" lon="5.81652">
        <ele>912.20001220703</ele>
        <time>2025-08-08T07:40:38.000Z</time>
      </trkpt>
      <trkpt lat="46.3112" lon="5.81649">
        <ele>913.40002441406</ele>
        <time>2025-08-08T07:40:45.000Z</time>
      </trkpt>
      <trkpt lat="46.31111" lon="5.81646">
        <ele>913.79998779297</ele>
        <time>2025-08-08T07:40:48.000Z</time>
      </trkpt>
      <trkpt lat="46.311" lon="5.8164">
        <ele>914.40002441406</ele>
        <time>2025-08-08T07:40:52.000Z</time>
      </trkpt>
      <trkpt lat="46.31086" lon="5.8163">
        <ele>915.20001220703</ele>
        <time>2025-08-08T07:40:57.000Z</time>
      </trkpt>
      <trkpt lat="46.31079" lon="5.81622">
        <ele>915.40002441406</ele>
        <time>2025-08-08T07:41:00.000Z</time>
      </trkpt>
      <trkpt lat="46.31065" lon="5.81605">
        <ele>916.59997558594</ele>
        <time>2025-08-08T07:41:06.000Z</time>
      </trkpt>
      <trkpt lat="46.31054" lon="5.8159">
        <ele>917.40002441406</ele>
        <time>2025-08-08T07:41:12.000Z</time>
      </trkpt>
      <trkpt lat="46.31049" lon="5.81586">
        <ele>917.79998779297</ele>
        <time>2025-08-08T07:41:14.000Z</time>
      </trkpt>
      <trkpt lat="46.3104" lon="5.81575">
        <ele>919</ele>
        <time>2025-08-08T07:41:18.000Z</time>
      </trkpt>
      <trkpt lat="46.31038" lon="5.81572">
        <ele>919</ele>
        <time>2025-08-08T07:41:19.000Z</time>
      </trkpt>
      <trkpt lat="46.31023" lon="5.81556">
        <ele>920</ele>
        <time>2025-08-08T07:41:25.000Z</time>
      </trkpt>
      <trkpt lat="46.3102" lon="5.81554">
        <ele>920</ele>
        <time>2025-08-08T07:41:26.000Z</time>
      </trkpt>
      <trkpt lat="46.31017" lon="5.81551">
        <ele>920.20001220703</ele>
        <time>2025-08-08T07:41:27.000Z</time>
      </trkpt>
      <trkpt lat="46.31004" lon="5.81543">
        <ele>921.20001220703</ele>
        <time>2025-08-08T07:41:32.000Z</time>
      </trkpt>
      <trkpt lat="46.30996" lon="5.81537">
        <ele>921.59997558594</ele>
        <time>2025-08-08T07:41:35.000Z</time>
      </trkpt>
      <trkpt lat="46.30984" lon="5.81531">
        <ele>922.20001220703</ele>
        <time>2025-08-08T07:41:39.000Z</time>
      </trkpt>
      <trkpt lat="46.30975" lon="5.81525">
        <ele>922.40002441406</ele>
        <time>2025-08-08T07:41:42.000Z</time>
      </trkpt>
      <trkpt lat="46.30959" lon="5.81514">
        <ele>923.40002441406</ele>
        <time>2025-08-08T07:41:48.000Z</time>
      </trkpt>
      <trkpt lat="46.30947" lon="5.81505">
        <ele>923.79998779297</ele>
        <time>2025-08-08T07:41:52.000Z</time>
      </trkpt>
      <trkpt lat="46.30942" lon="5.815">
        <ele>924.20001220703</ele>
        <time>2025-08-08T07:41:54.000Z</time>
      </trkpt>
      <trkpt lat="46.30924" lon="5.81486">
        <ele>925</ele>
        <time>2025-08-08T07:42:01.000Z</time>
      </trkpt>
      <trkpt lat="46.30919" lon="5.81482">
        <ele>925.20001220703</ele>
        <time>2025-08-08T07:42:03.000Z</time>
      </trkpt>
      <trkpt lat="46.30908" lon="5.81474">
        <ele>926.40002441406</ele>
        <time>2025-08-08T07:42:07.000Z</time>
      </trkpt>
      <trkpt lat="46.30903" lon="5.81469">
        <ele>926.59997558594</ele>
        <time>2025-08-08T07:42:09.000Z</time>
      </trkpt>
      <trkpt lat="46.30893" lon="5.81461">
        <ele>927.40002441406</ele>
        <time>2025-08-08T07:42:13.000Z</time>
      </trkpt>
      <trkpt lat="46.30882" lon="5.8145">
        <ele>928.40002441406</ele>
        <time>2025-08-08T07:42:17.000Z</time>
      </trkpt>
      <trkpt lat="46.30866" lon="5.81436">
        <ele>929.20001220703</ele>
        <time>2025-08-08T07:42:23.000Z</time>
      </trkpt>
      <trkpt lat="46.30855" lon="5.81426">
        <ele>929.79998779297</ele>
        <time>2025-08-08T07:42:27.000Z</time>
      </trkpt>
      <trkpt lat="46.30847" lon="5.8142">
        <ele>930.20001220703</ele>
        <time>2025-08-08T07:42:30.000Z</time>
      </trkpt>
      <trkpt lat="46.30837" lon="5.81412">
        <ele>931.20001220703</ele>
        <time>2025-08-08T07:42:34.000Z</time>
      </trkpt>
      <trkpt lat="46.30835" lon="5.8141">
        <ele>931.40002441406</ele>
        <time>2025-08-08T07:42:35.000Z</time>
      </trkpt>
      <trkpt lat="46.30818" lon="5.81395">
        <ele>932.40002441406</ele>
        <time>2025-08-08T07:42:41.000Z</time>
      </trkpt>
      <trkpt lat="46.30816" lon="5.81393">
        <ele>932.59997558594</ele>
        <time>2025-08-08T07:42:42.000Z</time>
      </trkpt>
      <trkpt lat="46.30802" lon="5.81378">
        <ele>933.79998779297</ele>
        <time>2025-08-08T07:42:48.000Z</time>
      </trkpt>
      <trkpt lat="46.30786" lon="5.81356">
        <ele>935</ele>
        <time>2025-08-08T07:42:55.000Z</time>
      </trkpt>
      <trkpt lat="46.30774" lon="5.81335">
        <ele>935.79998779297</ele>
        <time>2025-08-08T07:43:01.000Z</time>
      </trkpt>
      <trkpt lat="46.30761" lon="5.81319">
        <ele>936.79998779297</ele>
        <time>2025-08-08T07:43:07.000Z</time>
      </trkpt>
      <trkpt lat="46.30746" lon="5.81309">
        <ele>937.79998779297</ele>
        <time>2025-08-08T07:43:12.000Z</time>
      </trkpt>
      <trkpt lat="46.30743" lon="5.81307">
        <ele>938</ele>
        <time>2025-08-08T07:43:13.000Z</time>
      </trkpt>
      <trkpt lat="46.30724" lon="5.81301">
        <ele>938.79998779297</ele>
        <time>2025-08-08T07:43:19.000Z</time>
      </trkpt>
      <trkpt lat="46.30718" lon="5.81299">
        <ele>939</ele>
        <time>2025-08-08T07:43:21.000Z</time>
      </trkpt>
      <trkpt lat="46.30696" lon="5.81292">
        <ele>940</ele>
        <time>2025-08-08T07:43:28.000Z</time>
      </trkpt>
      <trkpt lat="46.30671" lon="5.81283">
        <ele>940.79998779297</ele>
        <time>2025-08-08T07:43:36.000Z</time>
      </trkpt>
      <trkpt lat="46.30667" lon="5.81282">
        <ele>941.20001220703</ele>
        <time>2025-08-08T07:43:37.000Z</time>
      </trkpt>
      <trkpt lat="46.30655" lon="5.81277">
        <ele>941.79998779297</ele>
        <time>2025-08-08T07:43:41.000Z</time>
      </trkpt>
      <trkpt lat="46.30643" lon="5.81274">
        <ele>942.59997558594</ele>
        <time>2025-08-08T07:43:45.000Z</time>
      </trkpt>
      <trkpt lat="46.3064" lon="5.81273">
        <ele>942.79998779297</ele>
        <time>2025-08-08T07:43:46.000Z</time>
      </trkpt>
      <trkpt lat="46.30626" lon="5.81267">
        <ele>943.59997558594</ele>
        <time>2025-08-08T07:43:51.000Z</time>
      </trkpt>
      <trkpt lat="46.30619" lon="5.81266">
        <ele>944</ele>
        <time>2025-08-08T07:43:53.000Z</time>
      </trkpt>
      <trkpt lat="46.30601" lon="5.81261">
        <ele>945.20001220703</ele>
        <time>2025-08-08T07:43:59.000Z</time>
      </trkpt>
      <trkpt lat="46.30598" lon="5.8126">
        <ele>945.40002441406</ele>
        <time>2025-08-08T07:44:00.000Z</time>
      </trkpt>
      <trkpt lat="46.30582" lon="5.81253">
        <ele>946.20001220703</ele>
        <time>2025-08-08T07:44:05.000Z</time>
      </trkpt>
      <trkpt lat="46.30574" lon="5.81249">
        <ele>946.79998779297</ele>
        <time>2025-08-08T07:44:08.000Z</time>
      </trkpt>
      <trkpt lat="46.30566" lon="5.81245">
        <ele>947.20001220703</ele>
        <time>2025-08-08T07:44:11.000Z</time>
      </trkpt>
      <trkpt lat="46.3056" lon="5.81244">
        <ele>947.40002441406</ele>
        <time>2025-08-08T07:44:13.000Z</time>
      </trkpt>
      <trkpt lat="46.30558" lon="5.81243">
        <ele>947.79998779297</ele>
        <time>2025-08-08T07:44:14.000Z</time>
      </trkpt>
      <trkpt lat="46.30552" lon="5.81241">
        <ele>948.20001220703</ele>
        <time>2025-08-08T07:44:16.000Z</time>
      </trkpt>
      <trkpt lat="46.30537" lon="5.81239">
        <ele>949.20001220703</ele>
        <time>2025-08-08T07:44:21.000Z</time>
      </trkpt>
      <trkpt lat="46.30508" lon="5.81222">
        <ele>950.20001220703</ele>
        <time>2025-08-08T07:44:30.000Z</time>
      </trkpt>
      <trkpt lat="46.30498" lon="5.81217">
        <ele>950.40002441406</ele>
        <time>2025-08-08T07:44:33.000Z</time>
      </trkpt>
      <trkpt lat="46.30483" lon="5.81211">
        <ele>950.79998779297</ele>
        <time>2025-08-08T07:44:38.000Z</time>
      </trkpt>
      <trkpt lat="46.3048" lon="5.8121">
        <ele>951.20001220703</ele>
        <time>2025-08-08T07:44:39.000Z</time>
      </trkpt>
      <trkpt lat="46.30459" lon="5.81202">
        <ele>952</ele>
        <time>2025-08-08T07:44:46.000Z</time>
      </trkpt>
      <trkpt lat="46.30457" lon="5.81201">
        <ele>952.20001220703</ele>
        <time>2025-08-08T07:44:47.000Z</time>
      </trkpt>
      <trkpt lat="46.30432" lon="5.81192">
        <ele>953</ele>
        <time>2025-08-08T07:44:55.000Z</time>
      </trkpt>
      <trkpt lat="46.3041" lon="5.81189">
        <ele>954</ele>
        <time>2025-08-08T07:45:02.000Z</time>
      </trkpt>
      <trkpt lat="46.30406" lon="5.81189">
        <ele>954.20001220703</ele>
        <time>2025-08-08T07:45:03.000Z</time>
      </trkpt>
      <trkpt lat="46.3039" lon="5.81192">
        <ele>955.20001220703</ele>
        <time>2025-08-08T07:45:08.000Z</time>
      </trkpt>
      <trkpt lat="46.30384" lon="5.81194">
        <ele>955.79998779297</ele>
        <time>2025-08-08T07:45:10.000Z</time>
      </trkpt>
      <trkpt lat="46.30374" lon="5.81199">
        <ele>956.40002441406</ele>
        <time>2025-08-08T07:45:13.000Z</time>
      </trkpt>
      <trkpt lat="46.30358" lon="5.81204">
        <ele>957</ele>
        <time>2025-08-08T07:45:18.000Z</time>
      </trkpt>
      <trkpt lat="46.30352" lon="5.81204">
        <ele>957.20001220703</ele>
        <time>2025-08-08T07:45:20.000Z</time>
      </trkpt>
      <trkpt lat="46.3034" lon="5.812">
        <ele>957.79998779297</ele>
        <time>2025-08-08T07:45:24.000Z</time>
      </trkpt>
      <trkpt lat="46.30335" lon="5.81197">
        <ele>958.40002441406</ele>
        <time>2025-08-08T07:45:26.000Z</time>
      </trkpt>
      <trkpt lat="46.30325" lon="5.81183">
        <ele>959</ele>
        <time>2025-08-08T07:45:30.000Z</time>
      </trkpt>
      <trkpt lat="46.30319" lon="5.81178">
        <ele>959.59997558594</ele>
        <time>2025-08-08T07:45:32.000Z</time>
      </trkpt>
      <trkpt lat="46.3031" lon="5.81173">
        <ele>960.20001220703</ele>
        <time>2025-08-08T07:45:35.000Z</time>
      </trkpt>
      <trkpt lat="46.30304" lon="5.81171">
        <ele>960.79998779297</ele>
        <time>2025-08-08T07:45:37.000Z</time>
      </trkpt>
      <trkpt lat="46.30288" lon="5.81169">
        <ele>961.59997558594</ele>
        <time>2025-08-08T07:45:42.000Z</time>
      </trkpt>
      <trkpt lat="46.30283" lon="5.81169">
        <ele>962</ele>
        <time>2025-08-08T07:45:44.000Z</time>
      </trkpt>
      <trkpt lat="46.30265" lon="5.8116">
        <ele>963</ele>
        <time>2025-08-08T07:45:50.000Z</time>
      </trkpt>
      <trkpt lat="46.30262" lon="5.81157">
        <ele>963.20001220703</ele>
        <time>2025-08-08T07:45:51.000Z</time>
      </trkpt>
      <trkpt lat="46.30249" lon="5.81144">
        <ele>963.79998779297</ele>
        <time>2025-08-08T07:45:56.000Z</time>
      </trkpt>
      <trkpt lat="46.30244" lon="5.81139">
        <ele>964.20001220703</ele>
        <time>2025-08-08T07:45:58.000Z</time>
      </trkpt>
      <trkpt lat="46.30237" lon="5.8113">
        <ele>964.40002441406</ele>
        <time>2025-08-08T07:46:01.000Z</time>
      </trkpt>
      <trkpt lat="46.30218" lon="5.8111">
        <ele>965.20001220703</ele>
        <time>2025-08-08T07:46:08.000Z</time>
      </trkpt>
      <trkpt lat="46.30216" lon="5.81108">
        <ele>965.40002441406</ele>
        <time>2025-08-08T07:46:09.000Z</time>
      </trkpt>
      <trkpt lat="46.30209" lon="5.811">
        <ele>966</ele>
        <time>2025-08-08T07:46:12.000Z</time>
      </trkpt>
      <trkpt lat="46.30201" lon="5.81092">
        <ele>966.79998779297</ele>
        <time>2025-08-08T07:46:15.000Z</time>
      </trkpt>
      <trkpt lat="46.30196" lon="5.81087">
        <ele>967.20001220703</ele>
        <time>2025-08-08T07:46:17.000Z</time>
      </trkpt>
      <trkpt lat="46.30178" lon="5.81071">
        <ele>968.20001220703</ele>
        <time>2025-08-08T07:46:24.000Z</time>
      </trkpt>
      <trkpt lat="46.30176" lon="5.81068">
        <ele>968.40002441406</ele>
        <time>2025-08-08T07:46:25.000Z</time>
      </trkpt>
      <trkpt lat="46.30163" lon="5.81058">
        <ele>969.59997558594</ele>
        <time>2025-08-08T07:46:30.000Z</time>
      </trkpt>
      <trkpt lat="46.30161" lon="5.81056">
        <ele>969.79998779297</ele>
        <time>2025-08-08T07:46:31.000Z</time>
      </trkpt>
      <trkpt lat="46.30152" lon="5.81048">
        <ele>970.79998779297</ele>
        <time>2025-08-08T07:46:35.000Z</time>
      </trkpt>
      <trkpt lat="46.30142" lon="5.81038">
        <ele>971.40002441406</ele>
        <time>2025-08-08T07:46:39.000Z</time>
      </trkpt>
      <trkpt lat="46.30137" lon="5.81033">
        <ele>971.79998779297</ele>
        <time>2025-08-08T07:46:41.000Z</time>
      </trkpt>
      <trkpt lat="46.30127" lon="5.81017">
        <ele>972.59997558594</ele>
        <time>2025-08-08T07:46:46.000Z</time>
      </trkpt>
      <trkpt lat="46.30126" lon="5.81014">
        <ele>972.79998779297</ele>
        <time>2025-08-08T07:46:47.000Z</time>
      </trkpt>
      <trkpt lat="46.30121" lon="5.80996">
        <ele>974</ele>
        <time>2025-08-08T07:46:52.000Z</time>
      </trkpt>
      <trkpt lat="46.3012" lon="5.80992">
        <ele>974</ele>
        <time>2025-08-08T07:46:53.000Z</time>
      </trkpt>
      <trkpt lat="46.30116" lon="5.80974">
        <ele>975</ele>
        <time>2025-08-08T07:46:58.000Z</time>
      </trkpt>
      <trkpt lat="46.30114" lon="5.80962">
        <ele>975.79998779297</ele>
        <time>2025-08-08T07:47:01.000Z</time>
      </trkpt>
      <trkpt lat="46.30111" lon="5.80955">
        <ele>976.20001220703</ele>
        <time>2025-08-08T07:47:03.000Z</time>
      </trkpt>
      <trkpt lat="46.30109" lon="5.80945">
        <ele>977.20001220703</ele>
        <time>2025-08-08T07:47:06.000Z</time>
      </trkpt>
      <trkpt lat="46.30107" lon="5.80938">
        <ele>977.59997558594</ele>
        <time>2025-08-08T07:47:08.000Z</time>
      </trkpt>
      <trkpt lat="46.30102" lon="5.80923">
        <ele>978.59997558594</ele>
        <time>2025-08-08T07:47:12.000Z</time>
      </trkpt>
      <trkpt lat="46.30095" lon="5.80908">
        <ele>979</ele>
        <time>2025-08-08T07:47:16.000Z</time>
      </trkpt>
      <trkpt lat="46.30091" lon="5.80902">
        <ele>979.59997558594</ele>
        <time>2025-08-08T07:47:18.000Z</time>
      </trkpt>
      <trkpt lat="46.30082" lon="5.80891">
        <ele>980.59997558594</ele>
        <time>2025-08-08T07:47:22.000Z</time>
      </trkpt>
      <trkpt lat="46.30066" lon="5.80879">
        <ele>981.59997558594</ele>
        <time>2025-08-08T07:47:28.000Z</time>
      </trkpt>
      <trkpt lat="46.30063" lon="5.80877">
        <ele>981.79998779297</ele>
        <time>2025-08-08T07:47:29.000Z</time>
      </trkpt>
      <trkpt lat="46.30055" lon="5.80871">
        <ele>982.79998779297</ele>
        <time>2025-08-08T07:47:32.000Z</time>
      </trkpt>
      <trkpt lat="46.30041" lon="5.80868">
        <ele>983.79998779297</ele>
        <time>2025-08-08T07:47:36.000Z</time>
      </trkpt>
      <trkpt lat="46.30027" lon="5.80863">
        <ele>984.79998779297</ele>
        <time>2025-08-08T07:47:41.000Z</time>
      </trkpt>
      <trkpt lat="46.30021" lon="5.80861">
        <ele>985.59997558594</ele>
        <time>2025-08-08T07:47:43.000Z</time>
      </trkpt>
      <trkpt lat="46.30011" lon="5.8086">
        <ele>986</ele>
        <time>2025-08-08T07:47:46.000Z</time>
      </trkpt>
      <trkpt lat="46.3" lon="5.80858">
        <ele>986.79998779297</ele>
        <time>2025-08-08T07:47:50.000Z</time>
      </trkpt>
      <trkpt lat="46.29992" lon="5.80855">
        <ele>987.59997558594</ele>
        <time>2025-08-08T07:47:53.000Z</time>
      </trkpt>
      <trkpt lat="46.29989" lon="5.80854">
        <ele>987.79998779297</ele>
        <time>2025-08-08T07:47:54.000Z</time>
      </trkpt>
      <trkpt lat="46.29968" lon="5.8085">
        <ele>989.20001220703</ele>
        <time>2025-08-08T07:48:01.000Z</time>
      </trkpt>
      <trkpt lat="46.29961" lon="5.80848">
        <ele>989.59997558594</ele>
        <time>2025-08-08T07:48:03.000Z</time>
      </trkpt>
      <trkpt lat="46.29953" lon="5.80845">
        <ele>990.20001220703</ele>
        <time>2025-08-08T07:48:06.000Z</time>
      </trkpt>
      <trkpt lat="46.29935" lon="5.80838">
        <ele>990.79998779297</ele>
        <time>2025-08-08T07:48:12.000Z</time>
      </trkpt>
      <trkpt lat="46.29926" lon="5.80835">
        <ele>991.40002441406</ele>
        <time>2025-08-08T07:48:15.000Z</time>
      </trkpt>
      <trkpt lat="46.29908" lon="5.80823">
        <ele>991.79998779297</ele>
        <time>2025-08-08T07:48:21.000Z</time>
      </trkpt>
      <trkpt lat="46.29882" lon="5.80797">
        <ele>991.79998779297</ele>
        <time>2025-08-08T07:48:30.000Z</time>
      </trkpt>
      <trkpt lat="46.29874" lon="5.80788">
        <ele>992.20001220703</ele>
        <time>2025-08-08T07:48:33.000Z</time>
      </trkpt>
      <trkpt lat="46.29851" lon="5.80759">
        <ele>993.20001220703</ele>
        <time>2025-08-08T07:48:42.000Z</time>
      </trkpt>
      <trkpt lat="46.29833" lon="5.80738">
        <ele>994.40002441406</ele>
        <time>2025-08-08T07:48:49.000Z</time>
      </trkpt>
      <trkpt lat="46.2982" lon="5.80723">
        <ele>994.79998779297</ele>
        <time>2025-08-08T07:48:54.000Z</time>
      </trkpt>
      <trkpt lat="46.2981" lon="5.80712">
        <ele>995.40002441406</ele>
        <time>2025-08-08T07:48:58.000Z</time>
      </trkpt>
      <trkpt lat="46.298" lon="5.80699">
        <ele>995.79998779297</ele>
        <time>2025-08-08T07:49:02.000Z</time>
      </trkpt>
      <trkpt lat="46.29792" lon="5.80691">
        <ele>996.20001220703</ele>
        <time>2025-08-08T07:49:05.000Z</time>
      </trkpt>
      <trkpt lat="46.29771" lon="5.80665">
        <ele>997.40002441406</ele>
        <time>2025-08-08T07:49:13.000Z</time>
      </trkpt>
      <trkpt lat="46.29758" lon="5.80648">
        <ele>998.40002441406</ele>
        <time>2025-08-08T07:49:18.000Z</time>
      </trkpt>
      <trkpt lat="46.29747" lon="5.80638">
        <ele>999.20001220703</ele>
        <time>2025-08-08T07:49:22.000Z</time>
      </trkpt>
      <trkpt lat="46.29738" lon="5.80631">
        <ele>999.59997558594</ele>
        <time>2025-08-08T07:49:25.000Z</time>
      </trkpt>
      <trkpt lat="46.2972" lon="5.80622">
        <ele>1000.5999755859</ele>
        <time>2025-08-08T07:49:31.000Z</time>
      </trkpt>
      <trkpt lat="46.29717" lon="5.80621">
        <ele>1000.799987793</ele>
        <time>2025-08-08T07:49:32.000Z</time>
      </trkpt>
      <trkpt lat="46.29695" lon="5.80613">
        <ele>1001.799987793</ele>
        <time>2025-08-08T07:49:39.000Z</time>
      </trkpt>
      <trkpt lat="46.29685" lon="5.8061">
        <ele>1002.4000244141</ele>
        <time>2025-08-08T07:49:42.000Z</time>
      </trkpt>
      <trkpt lat="46.29676" lon="5.80606">
        <ele>1002.799987793</ele>
        <time>2025-08-08T07:49:45.000Z</time>
      </trkpt>
      <trkpt lat="46.29655" lon="5.806">
        <ele>1003.799987793</ele>
        <time>2025-08-08T07:49:52.000Z</time>
      </trkpt>
      <trkpt lat="46.29652" lon="5.80599">
        <ele>1004</ele>
        <time>2025-08-08T07:49:53.000Z</time>
      </trkpt>
      <trkpt lat="46.29633" lon="5.80592">
        <ele>1005</ele>
        <time>2025-08-08T07:49:59.000Z</time>
      </trkpt>
      <trkpt lat="46.2963" lon="5.8059">
        <ele>1005.200012207</ele>
        <time>2025-08-08T07:50:00.000Z</time>
      </trkpt>
      <trkpt lat="46.29618" lon="5.80585">
        <ele>1006.200012207</ele>
        <time>2025-08-08T07:50:04.000Z</time>
      </trkpt>
      <trkpt lat="46.29606" lon="5.80581">
        <ele>1006.5999755859</ele>
        <time>2025-08-08T07:50:08.000Z</time>
      </trkpt>
      <trkpt lat="46.29597" lon="5.80578">
        <ele>1007.200012207</ele>
        <time>2025-08-08T07:50:11.000Z</time>
      </trkpt>
      <trkpt lat="46.29574" lon="5.80573">
        <ele>1008.4000244141</ele>
        <time>2025-08-08T07:50:18.000Z</time>
      </trkpt>
      <trkpt lat="46.29568" lon="5.80572">
        <ele>1008.5999755859</ele>
        <time>2025-08-08T07:50:20.000Z</time>
      </trkpt>
      <trkpt lat="46.29552" lon="5.80568">
        <ele>1009.4000244141</ele>
        <time>2025-08-08T07:50:25.000Z</time>
      </trkpt>
      <trkpt lat="46.29537" lon="5.80564">
        <ele>1010</ele>
        <time>2025-08-08T07:50:30.000Z</time>
      </trkpt>
      <trkpt lat="46.29531" lon="5.80561">
        <ele>1010.4000244141</ele>
        <time>2025-08-08T07:50:32.000Z</time>
      </trkpt>
      <trkpt lat="46.29513" lon="5.80549">
        <ele>1011.4000244141</ele>
        <time>2025-08-08T07:50:38.000Z</time>
      </trkpt>
      <trkpt lat="46.29507" lon="5.80543">
        <ele>1011.4000244141</ele>
        <time>2025-08-08T07:50:40.000Z</time>
      </trkpt>
      <trkpt lat="46.29494" lon="5.80523">
        <ele>1012</ele>
        <time>2025-08-08T07:50:46.000Z</time>
      </trkpt>
      <trkpt lat="46.29488" lon="5.80511">
        <ele>1012.4000244141</ele>
        <time>2025-08-08T07:50:49.000Z</time>
      </trkpt>
      <trkpt lat="46.29481" lon="5.80495">
        <ele>1013.799987793</ele>
        <time>2025-08-08T07:50:53.000Z</time>
      </trkpt>
      <trkpt lat="46.29474" lon="5.80483">
        <ele>1014.4000244141</ele>
        <time>2025-08-08T07:50:56.000Z</time>
      </trkpt>
      <trkpt lat="46.29468" lon="5.80471">
        <ele>1015</ele>
        <time>2025-08-08T07:50:59.000Z</time>
      </trkpt>
      <trkpt lat="46.29456" lon="5.80452">
        <ele>1015.5999755859</ele>
        <time>2025-08-08T07:51:04.000Z</time>
      </trkpt>
      <trkpt lat="46.29443" lon="5.80436">
        <ele>1015.799987793</ele>
        <time>2025-08-08T07:51:09.000Z</time>
      </trkpt>
      <trkpt lat="46.29435" lon="5.80428">
        <ele>1016.200012207</ele>
        <time>2025-08-08T07:51:12.000Z</time>
      </trkpt>
      <trkpt lat="46.29424" lon="5.80416">
        <ele>1016.799987793</ele>
        <time>2025-08-08T07:51:16.000Z</time>
      </trkpt>
      <trkpt lat="46.29409" lon="5.80399">
        <ele>1017.5999755859</ele>
        <time>2025-08-08T07:51:22.000Z</time>
      </trkpt>
      <trkpt lat="46.29404" lon="5.80393">
        <ele>1018</ele>
        <time>2025-08-08T07:51:24.000Z</time>
      </trkpt>
      <trkpt lat="46.29388" lon="5.80376">
        <ele>1019</ele>
        <time>2025-08-08T07:51:30.000Z</time>
      </trkpt>
      <trkpt lat="46.29381" lon="5.80368">
        <ele>1019.200012207</ele>
        <time>2025-08-08T07:51:33.000Z</time>
      </trkpt>
      <trkpt lat="46.29373" lon="5.8036">
        <ele>1020</ele>
        <time>2025-08-08T07:51:36.000Z</time>
      </trkpt>
      <trkpt lat="46.29354" lon="5.80339">
        <ele>1020.5999755859</ele>
        <time>2025-08-08T07:51:43.000Z</time>
      </trkpt>
      <trkpt lat="46.29349" lon="5.80334">
        <ele>1021</ele>
        <time>2025-08-08T07:51:45.000Z</time>
      </trkpt>
      <trkpt lat="46.29331" lon="5.80322">
        <ele>1022</ele>
        <time>2025-08-08T07:51:51.000Z</time>
      </trkpt>
      <trkpt lat="46.29306" lon="5.80306">
        <ele>1023.200012207</ele>
        <time>2025-08-08T07:51:59.000Z</time>
      </trkpt>
      <trkpt lat="46.29303" lon="5.80304">
        <ele>1023.4000244141</ele>
        <time>2025-08-08T07:52:00.000Z</time>
      </trkpt>
      <trkpt lat="46.29284" lon="5.80294">
        <ele>1024.1999511719</ele>
        <time>2025-08-08T07:52:06.000Z</time>
      </trkpt>
      <trkpt lat="46.29266" lon="5.80283">
        <ele>1025</ele>
        <time>2025-08-08T07:52:12.000Z</time>
      </trkpt>
      <trkpt lat="46.29263" lon="5.80281">
        <ele>1025.1999511719</ele>
        <time>2025-08-08T07:52:13.000Z</time>
      </trkpt>
      <trkpt lat="46.29244" lon="5.80272">
        <ele>1026.4000244141</ele>
        <time>2025-08-08T07:52:19.000Z</time>
      </trkpt>
      <trkpt lat="46.29233" lon="5.80265">
        <ele>1027.4000244141</ele>
        <time>2025-08-08T07:52:23.000Z</time>
      </trkpt>
      <trkpt lat="46.2923" lon="5.80263">
        <ele>1027.5999755859</ele>
        <time>2025-08-08T07:52:24.000Z</time>
      </trkpt>
      <trkpt lat="46.29212" lon="5.80254">
        <ele>1028.5999755859</ele>
        <time>2025-08-08T07:52:30.000Z</time>
      </trkpt>
      <trkpt lat="46.29209" lon="5.80252">
        <ele>1028.5999755859</ele>
        <time>2025-08-08T07:52:31.000Z</time>
      </trkpt>
      <trkpt lat="46.2919" lon="5.80241">
        <ele>1029.4000244141</ele>
        <time>2025-08-08T07:52:37.000Z</time>
      </trkpt>
      <trkpt lat="46.29175" lon="5.8023">
        <ele>1030</ele>
        <time>2025-08-08T07:52:42.000Z</time>
      </trkpt>
      <trkpt lat="46.29161" lon="5.80219">
        <ele>1030.5999755859</ele>
        <time>2025-08-08T07:52:47.000Z</time>
      </trkpt>
      <trkpt lat="46.29158" lon="5.80217">
        <ele>1030.5999755859</ele>
        <time>2025-08-08T07:52:48.000Z</time>
      </trkpt>
      <trkpt lat="46.29137" lon="5.80198">
        <ele>1031.5999755859</ele>
        <time>2025-08-08T07:52:55.000Z</time>
      </trkpt>
      <trkpt lat="46.29134" lon="5.80195">
        <ele>1031.5999755859</ele>
        <time>2025-08-08T07:52:56.000Z</time>
      </trkpt>
      <trkpt lat="46.29102" lon="5.80164">
        <ele>1032.8000488281</ele>
        <time>2025-08-08T07:53:07.000Z</time>
      </trkpt>
      <trkpt lat="46.29078" lon="5.80142">
        <ele>1033.5999755859</ele>
        <time>2025-08-08T07:53:15.000Z</time>
      </trkpt>
      <trkpt lat="46.29067" lon="5.80131">
        <ele>1034</ele>
        <time>2025-08-08T07:53:19.000Z</time>
      </trkpt>
      <trkpt lat="46.29046" lon="5.80111">
        <ele>1034.5999755859</ele>
        <time>2025-08-08T07:53:26.000Z</time>
      </trkpt>
      <trkpt lat="46.2904" lon="5.80106">
        <ele>1035</ele>
        <time>2025-08-08T07:53:28.000Z</time>
      </trkpt>
      <trkpt lat="46.29025" lon="5.80092">
        <ele>1035.4000244141</ele>
        <time>2025-08-08T07:53:33.000Z</time>
      </trkpt>
      <trkpt lat="46.29007" lon="5.80075">
        <ele>1036.1999511719</ele>
        <time>2025-08-08T07:53:39.000Z</time>
      </trkpt>
      <trkpt lat="46.28998" lon="5.80066">
        <ele>1036.4000244141</ele>
        <time>2025-08-08T07:53:42.000Z</time>
      </trkpt>
      <trkpt lat="46.28985" lon="5.80056">
        <ele>1037</ele>
        <time>2025-08-08T07:53:46.000Z</time>
      </trkpt>
      <trkpt lat="46.28977" lon="5.80048">
        <ele>1037.4000244141</ele>
        <time>2025-08-08T07:53:49.000Z</time>
      </trkpt>
      <trkpt lat="46.28955" lon="5.80029">
        <ele>1038.4000244141</ele>
        <time>2025-08-08T07:53:56.000Z</time>
      </trkpt>
      <trkpt lat="46.28952" lon="5.80026">
        <ele>1038.5999755859</ele>
        <time>2025-08-08T07:53:57.000Z</time>
      </trkpt>
      <trkpt lat="46.28932" lon="5.80008">
        <ele>1039.1999511719</ele>
        <time>2025-08-08T07:54:04.000Z</time>
      </trkpt>
      <trkpt lat="46.28929" lon="5.80006">
        <ele>1039.4000244141</ele>
        <time>2025-08-08T07:54:05.000Z</time>
      </trkpt>
      <trkpt lat="46.28902" lon="5.79982">
        <ele>1040.4000244141</ele>
        <time>2025-08-08T07:54:14.000Z</time>
      </trkpt>
      <trkpt lat="46.28896" lon="5.79977">
        <ele>1040.4000244141</ele>
        <time>2025-08-08T07:54:16.000Z</time>
      </trkpt>
      <trkpt lat="46.28872" lon="5.79955">
        <ele>1041.4000244141</ele>
        <time>2025-08-08T07:54:24.000Z</time>
      </trkpt>
      <trkpt lat="46.2887" lon="5.79953">
        <ele>1041.5999755859</ele>
        <time>2025-08-08T07:54:25.000Z</time>
      </trkpt>
      <trkpt lat="46.28848" lon="5.79924">
        <ele>1042.5999755859</ele>
        <time>2025-08-08T07:54:33.000Z</time>
      </trkpt>
      <trkpt lat="46.28843" lon="5.79912">
        <ele>1042.8000488281</ele>
        <time>2025-08-08T07:54:38.000Z</time>
      </trkpt>
      <trkpt lat="46.28843" lon="5.79912">
        <ele>1042.8000488281</ele>
        <time>2025-08-08T07:54:39.000Z</time>
      </trkpt>
      <trkpt lat="46.28841" lon="5.79911">
        <ele>1041.5999755859</ele>
        <time>2025-08-08T07:58:33.000Z</time>
      </trkpt>
      <trkpt lat="46.28838" lon="5.79905">
        <ele>1041.5999755859</ele>
        <time>2025-08-08T07:58:35.000Z</time>
      </trkpt>
      <trkpt lat="46.28836" lon="5.79902">
        <ele>1041.5999755859</ele>
        <time>2025-08-08T07:58:36.000Z</time>
      </trkpt>
      <trkpt lat="46.28825" lon="5.79874">
        <ele>1041.5999755859</ele>
        <time>2025-08-08T07:58:42.000Z</time>
      </trkpt>
      <trkpt lat="46.28815" lon="5.79832">
        <ele>1041.4000244141</ele>
        <time>2025-08-08T07:58:48.000Z</time>
      </trkpt>
      <trkpt lat="46.28814" lon="5.79814">
        <ele>1041</ele>
        <time>2025-08-08T07:58:50.000Z</time>
      </trkpt>
      <trkpt lat="46.28812" lon="5.79786">
        <ele>1040.5999755859</ele>
        <time>2025-08-08T07:58:53.000Z</time>
      </trkpt>
      <trkpt lat="46.28812" lon="5.79776">
        <ele>1040.1999511719</ele>
        <time>2025-08-08T07:58:54.000Z</time>
      </trkpt>
      <trkpt lat="46.28813" lon="5.79732">
        <ele>1039.5999755859</ele>
        <time>2025-08-08T07:58:58.000Z</time>
      </trkpt>
      <trkpt lat="46.28813" lon="5.79708">
        <ele>1039.1999511719</ele>
        <time>2025-08-08T07:59:00.000Z</time>
      </trkpt>
      <trkpt lat="46.28811" lon="5.79672">
        <ele>1037.8000488281</ele>
        <time>2025-08-08T07:59:03.000Z</time>
      </trkpt>
      <trkpt lat="46.28809" lon="5.7966">
        <ele>1037.1999511719</ele>
        <time>2025-08-08T07:59:04.000Z</time>
      </trkpt>
      <trkpt lat="46.28805" lon="5.79634">
        <ele>1036.5999755859</ele>
        <time>2025-08-08T07:59:06.000Z</time>
      </trkpt>
      <trkpt lat="46.28799" lon="5.79595">
        <ele>1035.1999511719</ele>
        <time>2025-08-08T07:59:09.000Z</time>
      </trkpt>
      <trkpt lat="46.28797" lon="5.79582">
        <ele>1034.5999755859</ele>
        <time>2025-08-08T07:59:10.000Z</time>
      </trkpt>
      <trkpt lat="46.28791" lon="5.79555">
        <ele>1033.8000488281</ele>
        <time>2025-08-08T07:59:12.000Z</time>
      </trkpt>
      <trkpt lat="46.2878" lon="5.79515">
        <ele>1032.8000488281</ele>
        <time>2025-08-08T07:59:15.000Z</time>
      </trkpt>
      <trkpt lat="46.2877" lon="5.79489">
        <ele>1031.4000244141</ele>
        <time>2025-08-08T07:59:17.000Z</time>
      </trkpt>
      <trkpt lat="46.28755" lon="5.79451">
        <ele>1030</ele>
        <time>2025-08-08T07:59:20.000Z</time>
      </trkpt>
      <trkpt lat="46.28741" lon="5.79412">
        <ele>1029</ele>
        <time>2025-08-08T07:59:23.000Z</time>
      </trkpt>
      <trkpt lat="46.28724" lon="5.79376">
        <ele>1027.4000244141</ele>
        <time>2025-08-08T07:59:26.000Z</time>
      </trkpt>
      <trkpt lat="46.2871" lon="5.79355">
        <ele>1026.1999511719</ele>
        <time>2025-08-08T07:59:28.000Z</time>
      </trkpt>
      <trkpt lat="46.28687" lon="5.79328">
        <ele>1025.1999511719</ele>
        <time>2025-08-08T07:59:31.000Z</time>
      </trkpt>
      <trkpt lat="46.28664" lon="5.79301">
        <ele>1023.799987793</ele>
        <time>2025-08-08T07:59:34.000Z</time>
      </trkpt>
      <trkpt lat="46.28649" lon="5.79284">
        <ele>1022.4000244141</ele>
        <time>2025-08-08T07:59:36.000Z</time>
      </trkpt>
      <trkpt lat="46.28633" lon="5.79267">
        <ele>1021.4000244141</ele>
        <time>2025-08-08T07:59:38.000Z</time>
      </trkpt>
      <trkpt lat="46.2861" lon="5.79242">
        <ele>1019.5999755859</ele>
        <time>2025-08-08T07:59:41.000Z</time>
      </trkpt>
      <trkpt lat="46.28594" lon="5.79227">
        <ele>1018.200012207</ele>
        <time>2025-08-08T07:59:43.000Z</time>
      </trkpt>
      <trkpt lat="46.28576" lon="5.79217">
        <ele>1016.799987793</ele>
        <time>2025-08-08T07:59:45.000Z</time>
      </trkpt>
      <trkpt lat="46.28567" lon="5.79214">
        <ele>1016.4000244141</ele>
        <time>2025-08-08T07:59:46.000Z</time>
      </trkpt>
      <trkpt lat="46.28557" lon="5.79211">
        <ele>1015.5999755859</ele>
        <time>2025-08-08T07:59:47.000Z</time>
      </trkpt>
      <trkpt lat="46.28536" lon="5.79208">
        <ele>1014.200012207</ele>
        <time>2025-08-08T07:59:49.000Z</time>
      </trkpt>
      <trkpt lat="46.28526" lon="5.79207">
        <ele>1013</ele>
        <time>2025-08-08T07:59:50.000Z</time>
      </trkpt>
      <trkpt lat="46.28504" lon="5.79204">
        <ele>1011.200012207</ele>
        <time>2025-08-08T07:59:52.000Z</time>
      </trkpt>
      <trkpt lat="46.28493" lon="5.79204">
        <ele>1010.799987793</ele>
        <time>2025-08-08T07:59:53.000Z</time>
      </trkpt>
      <trkpt lat="46.28482" lon="5.79202">
        <ele>1010</ele>
        <time>2025-08-08T07:59:54.000Z</time>
      </trkpt>
      <trkpt lat="46.2846" lon="5.792">
        <ele>1008.799987793</ele>
        <time>2025-08-08T07:59:56.000Z</time>
      </trkpt>
      <trkpt lat="46.28438" lon="5.79198">
        <ele>1007.5999755859</ele>
        <time>2025-08-08T07:59:58.000Z</time>
      </trkpt>
      <trkpt lat="46.28417" lon="5.79195">
        <ele>1006.5999755859</ele>
        <time>2025-08-08T08:00:00.000Z</time>
      </trkpt>
      <trkpt lat="46.28406" lon="5.79193">
        <ele>1005.5999755859</ele>
        <time>2025-08-08T08:00:01.000Z</time>
      </trkpt>
      <trkpt lat="46.28385" lon="5.7919">
        <ele>1004.5999755859</ele>
        <time>2025-08-08T08:00:03.000Z</time>
      </trkpt>
      <trkpt lat="46.28355" lon="5.79185">
        <ele>1003.4000244141</ele>
        <time>2025-08-08T08:00:06.000Z</time>
      </trkpt>
      <trkpt lat="46.28335" lon="5.79181">
        <ele>1002.4000244141</ele>
        <time>2025-08-08T08:00:08.000Z</time>
      </trkpt>
      <trkpt lat="46.28325" lon="5.79179">
        <ele>1002</ele>
        <time>2025-08-08T08:00:09.000Z</time>
      </trkpt>
      <trkpt lat="46.28306" lon="5.79173">
        <ele>1000.5999755859</ele>
        <time>2025-08-08T08:00:11.000Z</time>
      </trkpt>
      <trkpt lat="46.28278" lon="5.79164">
        <ele>999.40002441406</ele>
        <time>2025-08-08T08:00:14.000Z</time>
      </trkpt>
      <trkpt lat="46.28269" lon="5.79162">
        <ele>998.59997558594</ele>
        <time>2025-08-08T08:00:15.000Z</time>
      </trkpt>
      <trkpt lat="46.28252" lon="5.79155">
        <ele>997.59997558594</ele>
        <time>2025-08-08T08:00:17.000Z</time>
      </trkpt>
      <trkpt lat="46.28209" lon="5.79139">
        <ele>996.20001220703</ele>
        <time>2025-08-08T08:00:22.000Z</time>
      </trkpt>
      <trkpt lat="46.28193" lon="5.79133">
        <ele>995.79998779297</ele>
        <time>2025-08-08T08:00:24.000Z</time>
      </trkpt>
      <trkpt lat="46.28176" lon="5.79128">
        <ele>995.20001220703</ele>
        <time>2025-08-08T08:00:26.000Z</time>
      </trkpt>
      <trkpt lat="46.28142" lon="5.79116">
        <ele>994</ele>
        <time>2025-08-08T08:00:30.000Z</time>
      </trkpt>
      <trkpt lat="46.28125" lon="5.7911">
        <ele>993</ele>
        <time>2025-08-08T08:00:32.000Z</time>
      </trkpt>
      <trkpt lat="46.28117" lon="5.79107">
        <ele>992.59997558594</ele>
        <time>2025-08-08T08:00:33.000Z</time>
      </trkpt>
      <trkpt lat="46.28109" lon="5.79104">
        <ele>992.20001220703</ele>
        <time>2025-08-08T08:00:34.000Z</time>
      </trkpt>
      <trkpt lat="46.28084" lon="5.79095">
        <ele>991.40002441406</ele>
        <time>2025-08-08T08:00:37.000Z</time>
      </trkpt>
      <trkpt lat="46.28061" lon="5.79087">
        <ele>990.40002441406</ele>
        <time>2025-08-08T08:00:40.000Z</time>
      </trkpt>
      <trkpt lat="46.28045" lon="5.79081">
        <ele>990</ele>
        <time>2025-08-08T08:00:42.000Z</time>
      </trkpt>
      <trkpt lat="46.28022" lon="5.79073">
        <ele>989.20001220703</ele>
        <time>2025-08-08T08:00:45.000Z</time>
      </trkpt>
      <trkpt lat="46.27999" lon="5.79064">
        <ele>987.79998779297</ele>
        <time>2025-08-08T08:00:48.000Z</time>
      </trkpt>
      <trkpt lat="46.27977" lon="5.79056">
        <ele>987.40002441406</ele>
        <time>2025-08-08T08:00:51.000Z</time>
      </trkpt>
      <trkpt lat="46.27962" lon="5.7905">
        <ele>986.79998779297</ele>
        <time>2025-08-08T08:00:53.000Z</time>
      </trkpt>
      <trkpt lat="46.27932" lon="5.79038">
        <ele>985.79998779297</ele>
        <time>2025-08-08T08:00:57.000Z</time>
      </trkpt>
      <trkpt lat="46.27918" lon="5.79032">
        <ele>985.20001220703</ele>
        <time>2025-08-08T08:00:59.000Z</time>
      </trkpt>
      <trkpt lat="46.27882" lon="5.79019">
        <ele>984.79998779297</ele>
        <time>2025-08-08T08:01:04.000Z</time>
      </trkpt>
      <trkpt lat="46.27859" lon="5.79009">
        <ele>984.20001220703</ele>
        <time>2025-08-08T08:01:07.000Z</time>
      </trkpt>
      <trkpt lat="46.27844" lon="5.79002">
        <ele>983.79998779297</ele>
        <time>2025-08-08T08:01:09.000Z</time>
      </trkpt>
      <trkpt lat="46.27797" lon="5.78982">
        <ele>983</ele>
        <time>2025-08-08T08:01:15.000Z</time>
      </trkpt>
      <trkpt lat="46.2778" lon="5.78975">
        <ele>982.40002441406</ele>
        <time>2025-08-08T08:01:17.000Z</time>
      </trkpt>
      <trkpt lat="46.27756" lon="5.78964">
        <ele>981.20001220703</ele>
        <time>2025-08-08T08:01:20.000Z</time>
      </trkpt>
      <trkpt lat="46.27722" lon="5.78951">
        <ele>980</ele>
        <time>2025-08-08T08:01:24.000Z</time>
      </trkpt>
      <trkpt lat="46.27714" lon="5.78948">
        <ele>979.59997558594</ele>
        <time>2025-08-08T08:01:25.000Z</time>
      </trkpt>
      <trkpt lat="46.27698" lon="5.78945">
        <ele>978.59997558594</ele>
        <time>2025-08-08T08:01:27.000Z</time>
      </trkpt>
      <trkpt lat="46.27674" lon="5.78946">
        <ele>977.79998779297</ele>
        <time>2025-08-08T08:01:30.000Z</time>
      </trkpt>
      <trkpt lat="46.27652" lon="5.78949">
        <ele>977.59997558594</ele>
        <time>2025-08-08T08:01:33.000Z</time>
      </trkpt>
      <trkpt lat="46.27637" lon="5.78952">
        <ele>977.40002441406</ele>
        <time>2025-08-08T08:01:35.000Z</time>
      </trkpt>
      <trkpt lat="46.27613" lon="5.78953">
        <ele>977</ele>
        <time>2025-08-08T08:01:38.000Z</time>
      </trkpt>
      <trkpt lat="46.27598" lon="5.78948">
        <ele>977</ele>
        <time>2025-08-08T08:01:40.000Z</time>
      </trkpt>
      <trkpt lat="46.27583" lon="5.78938">
        <ele>976.59997558594</ele>
        <time>2025-08-08T08:01:42.000Z</time>
      </trkpt>
      <trkpt lat="46.27571" lon="5.78923">
        <ele>975.79998779297</ele>
        <time>2025-08-08T08:01:44.000Z</time>
      </trkpt>
      <trkpt lat="46.27565" lon="5.78915">
        <ele>975.40002441406</ele>
        <time>2025-08-08T08:01:45.000Z</time>
      </trkpt>
      <trkpt lat="46.27541" lon="5.78882">
        <ele>974.40002441406</ele>
        <time>2025-08-08T08:01:49.000Z</time>
      </trkpt>
      <trkpt lat="46.27521" lon="5.78859">
        <ele>973.59997558594</ele>
        <time>2025-08-08T08:01:52.000Z</time>
      </trkpt>
      <trkpt lat="46.27513" lon="5.78853">
        <ele>973</ele>
        <time>2025-08-08T08:01:53.000Z</time>
      </trkpt>
      <trkpt lat="46.27481" lon="5.78832">
        <ele>972.40002441406</ele>
        <time>2025-08-08T08:01:57.000Z</time>
      </trkpt>
      <trkpt lat="46.27473" lon="5.78829">
        <ele>972.20001220703</ele>
        <time>2025-08-08T08:01:58.000Z</time>
      </trkpt>
      <trkpt lat="46.27447" lon="5.78823">
        <ele>971</ele>
        <time>2025-08-08T08:02:01.000Z</time>
      </trkpt>
      <trkpt lat="46.2743" lon="5.78819">
        <ele>970.20001220703</ele>
        <time>2025-08-08T08:02:03.000Z</time>
      </trkpt>
      <trkpt lat="46.27421" lon="5.78818">
        <ele>969.79998779297</ele>
        <time>2025-08-08T08:02:04.000Z</time>
      </trkpt>
      <trkpt lat="46.27395" lon="5.78812">
        <ele>968.59997558594</ele>
        <time>2025-08-08T08:02:07.000Z</time>
      </trkpt>
      <trkpt lat="46.2737" lon="5.78807">
        <ele>967.59997558594</ele>
        <time>2025-08-08T08:02:10.000Z</time>
      </trkpt>
      <trkpt lat="46.27336" lon="5.78799">
        <ele>966.40002441406</ele>
        <time>2025-08-08T08:02:14.000Z</time>
      </trkpt>
      <trkpt lat="46.27318" lon="5.78795">
        <ele>965.20001220703</ele>
        <time>2025-08-08T08:02:16.000Z</time>
      </trkpt>
      <trkpt lat="46.27293" lon="5.78786">
        <ele>964.40002441406</ele>
        <time>2025-08-08T08:02:19.000Z</time>
      </trkpt>
      <trkpt lat="46.27285" lon="5.78782">
        <ele>964</ele>
        <time>2025-08-08T08:02:20.000Z</time>
      </trkpt>
      <trkpt lat="46.27269" lon="5.78769">
        <ele>963.20001220703</ele>
        <time>2025-08-08T08:02:22.000Z</time>
      </trkpt>
      <trkpt lat="46.27262" lon="5.78762">
        <ele>963</ele>
        <time>2025-08-08T08:02:23.000Z</time>
      </trkpt>
      <trkpt lat="46.27237" lon="5.78723">
        <ele>962.40002441406</ele>
        <time>2025-08-08T08:02:27.000Z</time>
      </trkpt>
      <trkpt lat="46.27227" lon="5.78701">
        <ele>961.59997558594</ele>
        <time>2025-08-08T08:02:29.000Z</time>
      </trkpt>
      <trkpt lat="46.27207" lon="5.78659">
        <ele>960.59997558594</ele>
        <time>2025-08-08T08:02:33.000Z</time>
      </trkpt>
      <trkpt lat="46.27201" lon="5.7865">
        <ele>960.20001220703</ele>
        <time>2025-08-08T08:02:34.000Z</time>
      </trkpt>
      <trkpt lat="46.27194" lon="5.78642">
        <ele>960</ele>
        <time>2025-08-08T08:02:35.000Z</time>
      </trkpt>
      <trkpt lat="46.2718" lon="5.78628">
        <ele>959</ele>
        <time>2025-08-08T08:02:37.000Z</time>
      </trkpt>
      <trkpt lat="46.27172" lon="5.78623">
        <ele>958.79998779297</ele>
        <time>2025-08-08T08:02:38.000Z</time>
      </trkpt>
      <trkpt lat="46.27155" lon="5.78613">
        <ele>958</ele>
        <time>2025-08-08T08:02:40.000Z</time>
      </trkpt>
      <trkpt lat="46.27129" lon="5.78601">
        <ele>956.40002441406</ele>
        <time>2025-08-08T08:02:43.000Z</time>
      </trkpt>
      <trkpt lat="46.27121" lon="5.78597">
        <ele>955.79998779297</ele>
        <time>2025-08-08T08:02:44.000Z</time>
      </trkpt>
      <trkpt lat="46.27104" lon="5.78588">
        <ele>955.20001220703</ele>
        <time>2025-08-08T08:02:46.000Z</time>
      </trkpt>
      <trkpt lat="46.27096" lon="5.78583">
        <ele>955</ele>
        <time>2025-08-08T08:02:47.000Z</time>
      </trkpt>
      <trkpt lat="46.2708" lon="5.78571">
        <ele>954.40002441406</ele>
        <time>2025-08-08T08:02:49.000Z</time>
      </trkpt>
      <trkpt lat="46.27072" lon="5.78565">
        <ele>953.79998779297</ele>
        <time>2025-08-08T08:02:50.000Z</time>
      </trkpt>
      <trkpt lat="46.27048" lon="5.78548">
        <ele>952.59997558594</ele>
        <time>2025-08-08T08:02:53.000Z</time>
      </trkpt>
      <trkpt lat="46.27032" lon="5.7854">
        <ele>952</ele>
        <time>2025-08-08T08:02:55.000Z</time>
      </trkpt>
      <trkpt lat="46.27017" lon="5.78536">
        <ele>951.40002441406</ele>
        <time>2025-08-08T08:02:57.000Z</time>
      </trkpt>
      <trkpt lat="46.26989" lon="5.78533">
        <ele>950.79998779297</ele>
        <time>2025-08-08T08:03:00.000Z</time>
      </trkpt>
      <trkpt lat="46.26972" lon="5.78533">
        <ele>950.20001220703</ele>
        <time>2025-08-08T08:03:02.000Z</time>
      </trkpt>
      <trkpt lat="46.26955" lon="5.7853">
        <ele>949.40002441406</ele>
        <time>2025-08-08T08:03:04.000Z</time>
      </trkpt>
      <trkpt lat="46.26939" lon="5.78524">
        <ele>948.79998779297</ele>
        <time>2025-08-08T08:03:06.000Z</time>
      </trkpt>
      <trkpt lat="46.269" lon="5.785">
        <ele>948.20001220703</ele>
        <time>2025-08-08T08:03:11.000Z</time>
      </trkpt>
      <trkpt lat="46.26879" lon="5.78482">
        <ele>947.79998779297</ele>
        <time>2025-08-08T08:03:14.000Z</time>
      </trkpt>
      <trkpt lat="46.26843" lon="5.78451">
        <ele>947.40002441406</ele>
        <time>2025-08-08T08:03:19.000Z</time>
      </trkpt>
      <trkpt lat="46.26822" lon="5.78432">
        <ele>946.79998779297</ele>
        <time>2025-08-08T08:03:22.000Z</time>
      </trkpt>
      <trkpt lat="46.26779" lon="5.78399">
        <ele>945.40002441406</ele>
        <time>2025-08-08T08:03:28.000Z</time>
      </trkpt>
      <trkpt lat="46.26725" lon="5.78369">
        <ele>944.79998779297</ele>
        <time>2025-08-08T08:03:35.000Z</time>
      </trkpt>
      <trkpt lat="46.26718" lon="5.78365">
        <ele>944.59997558594</ele>
        <time>2025-08-08T08:03:36.000Z</time>
      </trkpt>
      <trkpt lat="46.2671" lon="5.78361">
        <ele>944.40002441406</ele>
        <time>2025-08-08T08:03:37.000Z</time>
      </trkpt>
      <trkpt lat="46.26652" lon="5.78331">
        <ele>943.79998779297</ele>
        <time>2025-08-08T08:03:45.000Z</time>
      </trkpt>
      <trkpt lat="46.26639" lon="5.78325">
        <ele>943.79998779297</ele>
        <time>2025-08-08T08:03:47.000Z</time>
      </trkpt>
      <trkpt lat="46.26584" lon="5.78298">
        <ele>943.79998779297</ele>
        <time>2025-08-08T08:03:55.000Z</time>
      </trkpt>
      <trkpt lat="46.26556" lon="5.78284">
        <ele>943.20001220703</ele>
        <time>2025-08-08T08:03:59.000Z</time>
      </trkpt>
      <trkpt lat="46.26521" lon="5.78267">
        <ele>942.40002441406</ele>
        <time>2025-08-08T08:04:04.000Z</time>
      </trkpt>
      <trkpt lat="46.26515" lon="5.78264">
        <ele>942.20001220703</ele>
        <time>2025-08-08T08:04:05.000Z</time>
      </trkpt>
      <trkpt lat="46.26473" lon="5.7825">
        <ele>942</ele>
        <time>2025-08-08T08:04:11.000Z</time>
      </trkpt>
      <trkpt lat="46.26428" lon="5.78255">
        <ele>941.20001220703</ele>
        <time>2025-08-08T08:04:17.000Z</time>
      </trkpt>
      <trkpt lat="46.26393" lon="5.78258">
        <ele>940.20001220703</ele>
        <time>2025-08-08T08:04:21.000Z</time>
      </trkpt>
      <trkpt lat="46.26375" lon="5.78258">
        <ele>939.40002441406</ele>
        <time>2025-08-08T08:04:23.000Z</time>
      </trkpt>
      <trkpt lat="46.26356" lon="5.78256">
        <ele>938.59997558594</ele>
        <time>2025-08-08T08:04:25.000Z</time>
      </trkpt>
      <trkpt lat="46.26337" lon="5.7825">
        <ele>937.20001220703</ele>
        <time>2025-08-08T08:04:27.000Z</time>
      </trkpt>
      <trkpt lat="46.26328" lon="5.78246">
        <ele>936.40002441406</ele>
        <time>2025-08-08T08:04:28.000Z</time>
      </trkpt>
      <trkpt lat="46.26318" lon="5.78241">
        <ele>936.20001220703</ele>
        <time>2025-08-08T08:04:29.000Z</time>
      </trkpt>
      <trkpt lat="46.263" lon="5.7823">
        <ele>934.79998779297</ele>
        <time>2025-08-08T08:04:31.000Z</time>
      </trkpt>
      <trkpt lat="46.26282" lon="5.78219">
        <ele>933</ele>
        <time>2025-08-08T08:04:33.000Z</time>
      </trkpt>
      <trkpt lat="46.26273" lon="5.78214">
        <ele>932.79998779297</ele>
        <time>2025-08-08T08:04:34.000Z</time>
      </trkpt>
      <trkpt lat="46.26253" lon="5.78206">
        <ele>931.59997558594</ele>
        <time>2025-08-08T08:04:36.000Z</time>
      </trkpt>
      <trkpt lat="46.26233" lon="5.78203">
        <ele>930.59997558594</ele>
        <time>2025-08-08T08:04:38.000Z</time>
      </trkpt>
      <trkpt lat="46.26212" lon="5.78204">
        <ele>929.59997558594</ele>
        <time>2025-08-08T08:04:40.000Z</time>
      </trkpt>
      <trkpt lat="46.26191" lon="5.78208">
        <ele>928</ele>
        <time>2025-08-08T08:04:42.000Z</time>
      </trkpt>
      <trkpt lat="46.2617" lon="5.78213">
        <ele>927</ele>
        <time>2025-08-08T08:04:44.000Z</time>
      </trkpt>
      <trkpt lat="46.26149" lon="5.78212">
        <ele>925.79998779297</ele>
        <time>2025-08-08T08:04:46.000Z</time>
      </trkpt>
      <trkpt lat="46.26129" lon="5.78203">
        <ele>924.59997558594</ele>
        <time>2025-08-08T08:04:48.000Z</time>
      </trkpt>
      <trkpt lat="46.2612" lon="5.78196">
        <ele>923.79998779297</ele>
        <time>2025-08-08T08:04:49.000Z</time>
      </trkpt>
      <trkpt lat="46.26111" lon="5.78191">
        <ele>922.79998779297</ele>
        <time>2025-08-08T08:04:50.000Z</time>
      </trkpt>
      <trkpt lat="46.26102" lon="5.78186">
        <ele>921.79998779297</ele>
        <time>2025-08-08T08:04:51.000Z</time>
      </trkpt>
      <trkpt lat="46.26092" lon="5.78184">
        <ele>921.40002441406</ele>
        <time>2025-08-08T08:04:52.000Z</time>
      </trkpt>
      <trkpt lat="46.26082" lon="5.78183">
        <ele>920.59997558594</ele>
        <time>2025-08-08T08:04:53.000Z</time>
      </trkpt>
      <trkpt lat="46.26061" lon="5.78186">
        <ele>920</ele>
        <time>2025-08-08T08:04:55.000Z</time>
      </trkpt>
      <trkpt lat="46.26051" lon="5.7819">
        <ele>919</ele>
        <time>2025-08-08T08:04:56.000Z</time>
      </trkpt>
      <trkpt lat="46.26031" lon="5.782">
        <ele>917.79998779297</ele>
        <time>2025-08-08T08:04:58.000Z</time>
      </trkpt>
      <trkpt lat="46.26021" lon="5.78204">
        <ele>917.59997558594</ele>
        <time>2025-08-08T08:04:59.000Z</time>
      </trkpt>
      <trkpt lat="46.2601" lon="5.78208">
        <ele>916.79998779297</ele>
        <time>2025-08-08T08:05:00.000Z</time>
      </trkpt>
      <trkpt lat="46.25989" lon="5.78212">
        <ele>915.20001220703</ele>
        <time>2025-08-08T08:05:02.000Z</time>
      </trkpt>
      <trkpt lat="46.25967" lon="5.78216">
        <ele>914.20001220703</ele>
        <time>2025-08-08T08:05:04.000Z</time>
      </trkpt>
      <trkpt lat="46.25956" lon="5.78219">
        <ele>913</ele>
        <time>2025-08-08T08:05:05.000Z</time>
      </trkpt>
      <trkpt lat="46.25935" lon="5.78224">
        <ele>912</ele>
        <time>2025-08-08T08:05:07.000Z</time>
      </trkpt>
      <trkpt lat="46.25915" lon="5.78231">
        <ele>910.79998779297</ele>
        <time>2025-08-08T08:05:09.000Z</time>
      </trkpt>
      <trkpt lat="46.25905" lon="5.78234">
        <ele>909.59997558594</ele>
        <time>2025-08-08T08:05:10.000Z</time>
      </trkpt>
      <trkpt lat="46.25887" lon="5.78234">
        <ele>908</ele>
        <time>2025-08-08T08:05:12.000Z</time>
      </trkpt>
      <trkpt lat="46.25879" lon="5.7823">
        <ele>907.20001220703</ele>
        <time>2025-08-08T08:05:13.000Z</time>
      </trkpt>
      <trkpt lat="46.25871" lon="5.78225">
        <ele>906.20001220703</ele>
        <time>2025-08-08T08:05:14.000Z</time>
      </trkpt>
      <trkpt lat="46.2586" lon="5.78206">
        <ele>905.20001220703</ele>
        <time>2025-08-08T08:05:16.000Z</time>
      </trkpt>
      <trkpt lat="46.25856" lon="5.78195">
        <ele>904.20001220703</ele>
        <time>2025-08-08T08:05:17.000Z</time>
      </trkpt>
      <trkpt lat="46.25854" lon="5.78182">
        <ele>903.79998779297</ele>
        <time>2025-08-08T08:05:18.000Z</time>
      </trkpt>
      <trkpt lat="46.25853" lon="5.78169">
        <ele>903.40002441406</ele>
        <time>2025-08-08T08:05:19.000Z</time>
      </trkpt>
      <trkpt lat="46.25853" lon="5.78144">
        <ele>902.20001220703</ele>
        <time>2025-08-08T08:05:21.000Z</time>
      </trkpt>
      <trkpt lat="46.25853" lon="5.78131">
        <ele>901.79998779297</ele>
        <time>2025-08-08T08:05:22.000Z</time>
      </trkpt>
      <trkpt lat="46.25849" lon="5.78106">
        <ele>901.20001220703</ele>
        <time>2025-08-08T08:05:24.000Z</time>
      </trkpt>
      <trkpt lat="46.25841" lon="5.78082">
        <ele>900.40002441406</ele>
        <time>2025-08-08T08:05:26.000Z</time>
      </trkpt>
      <trkpt lat="46.25835" lon="5.7807">
        <ele>900.20001220703</ele>
        <time>2025-08-08T08:05:27.000Z</time>
      </trkpt>
      <trkpt lat="46.25828" lon="5.78061">
        <ele>899.79998779297</ele>
        <time>2025-08-08T08:05:28.000Z</time>
      </trkpt>
      <trkpt lat="46.25811" lon="5.78048">
        <ele>898.79998779297</ele>
        <time>2025-08-08T08:05:30.000Z</time>
      </trkpt>
      <trkpt lat="46.25793" lon="5.7804">
        <ele>897.40002441406</ele>
        <time>2025-08-08T08:05:32.000Z</time>
      </trkpt>
      <trkpt lat="46.25774" lon="5.78033">
        <ele>896.40002441406</ele>
        <time>2025-08-08T08:05:34.000Z</time>
      </trkpt>
      <trkpt lat="46.25765" lon="5.78027">
        <ele>896</ele>
        <time>2025-08-08T08:05:35.000Z</time>
      </trkpt>
      <trkpt lat="46.25748" lon="5.78012">
        <ele>895.20001220703</ele>
        <time>2025-08-08T08:05:37.000Z</time>
      </trkpt>
      <trkpt lat="46.25741" lon="5.78003">
        <ele>894.40002441406</ele>
        <time>2025-08-08T08:05:38.000Z</time>
      </trkpt>
      <trkpt lat="46.25733" lon="5.77994">
        <ele>894</ele>
        <time>2025-08-08T08:05:39.000Z</time>
      </trkpt>
      <trkpt lat="46.25715" lon="5.77983">
        <ele>893</ele>
        <time>2025-08-08T08:05:41.000Z</time>
      </trkpt>
      <trkpt lat="46.25705" lon="5.77979">
        <ele>891.59997558594</ele>
        <time>2025-08-08T08:05:42.000Z</time>
      </trkpt>
      <trkpt lat="46.25685" lon="5.77977">
        <ele>890.59997558594</ele>
        <time>2025-08-08T08:05:44.000Z</time>
      </trkpt>
      <trkpt lat="46.25675" lon="5.77976">
        <ele>890</ele>
        <time>2025-08-08T08:05:45.000Z</time>
      </trkpt>
      <trkpt lat="46.25665" lon="5.77976">
        <ele>889.20001220703</ele>
        <time>2025-08-08T08:05:46.000Z</time>
      </trkpt>
      <trkpt lat="46.25645" lon="5.77974">
        <ele>888</ele>
        <time>2025-08-08T08:05:48.000Z</time>
      </trkpt>
      <trkpt lat="46.25625" lon="5.77972">
        <ele>886.79998779297</ele>
        <time>2025-08-08T08:05:50.000Z</time>
      </trkpt>
      <trkpt lat="46.25605" lon="5.77971">
        <ele>885.40002441406</ele>
        <time>2025-08-08T08:05:52.000Z</time>
      </trkpt>
      <trkpt lat="46.25596" lon="5.77969">
        <ele>884.40002441406</ele>
        <time>2025-08-08T08:05:53.000Z</time>
      </trkpt>
      <trkpt lat="46.25577" lon="5.77967">
        <ele>883</ele>
        <time>2025-08-08T08:05:55.000Z</time>
      </trkpt>
      <trkpt lat="46.25568" lon="5.77967">
        <ele>882</ele>
        <time>2025-08-08T08:05:56.000Z</time>
      </trkpt>
      <trkpt lat="46.25559" lon="5.77968">
        <ele>881.40002441406</ele>
        <time>2025-08-08T08:05:57.000Z</time>
      </trkpt>
      <trkpt lat="46.25551" lon="5.7797">
        <ele>880.79998779297</ele>
        <time>2025-08-08T08:05:58.000Z</time>
      </trkpt>
      <trkpt lat="46.25535" lon="5.77973">
        <ele>879.20001220703</ele>
        <time>2025-08-08T08:06:00.000Z</time>
      </trkpt>
      <trkpt lat="46.25519" lon="5.77972">
        <ele>878</ele>
        <time>2025-08-08T08:06:02.000Z</time>
      </trkpt>
      <trkpt lat="46.2551" lon="5.7797">
        <ele>877</ele>
        <time>2025-08-08T08:06:03.000Z</time>
      </trkpt>
      <trkpt lat="46.25502" lon="5.77967">
        <ele>876.59997558594</ele>
        <time>2025-08-08T08:06:04.000Z</time>
      </trkpt>
      <trkpt lat="46.25495" lon="5.77961">
        <ele>876.20001220703</ele>
        <time>2025-08-08T08:06:05.000Z</time>
      </trkpt>
      <trkpt lat="46.25481" lon="5.77945">
        <ele>875</ele>
        <time>2025-08-08T08:06:07.000Z</time>
      </trkpt>
      <trkpt lat="46.25468" lon="5.77925">
        <ele>874</ele>
        <time>2025-08-08T08:06:09.000Z</time>
      </trkpt>
      <trkpt lat="46.25454" lon="5.77907">
        <ele>873</ele>
        <time>2025-08-08T08:06:11.000Z</time>
      </trkpt>
      <trkpt lat="46.25446" lon="5.77899">
        <ele>872</ele>
        <time>2025-08-08T08:06:12.000Z</time>
      </trkpt>
      <trkpt lat="46.25439" lon="5.7789">
        <ele>871.59997558594</ele>
        <time>2025-08-08T08:06:13.000Z</time>
      </trkpt>
      <trkpt lat="46.25422" lon="5.77874">
        <ele>870.20001220703</ele>
        <time>2025-08-08T08:06:15.000Z</time>
      </trkpt>
      <trkpt lat="46.25404" lon="5.77857">
        <ele>869.40002441406</ele>
        <time>2025-08-08T08:06:17.000Z</time>
      </trkpt>
      <trkpt lat="46.25387" lon="5.7784">
        <ele>868</ele>
        <time>2025-08-08T08:06:19.000Z</time>
      </trkpt>
      <trkpt lat="46.25369" lon="5.77822">
        <ele>866.79998779297</ele>
        <time>2025-08-08T08:06:21.000Z</time>
      </trkpt>
      <trkpt lat="46.25359" lon="5.77814">
        <ele>865.59997558594</ele>
        <time>2025-08-08T08:06:22.000Z</time>
      </trkpt>
      <trkpt lat="46.2535" lon="5.77808">
        <ele>865.20001220703</ele>
        <time>2025-08-08T08:06:23.000Z</time>
      </trkpt>
      <trkpt lat="46.25339" lon="5.77803">
        <ele>864.40002441406</ele>
        <time>2025-08-08T08:06:24.000Z</time>
      </trkpt>
      <trkpt lat="46.25318" lon="5.77794">
        <ele>863</ele>
        <time>2025-08-08T08:06:26.000Z</time>
      </trkpt>
      <trkpt lat="46.25299" lon="5.77783">
        <ele>861.59997558594</ele>
        <time>2025-08-08T08:06:28.000Z</time>
      </trkpt>
      <trkpt lat="46.2528" lon="5.77767">
        <ele>860.40002441406</ele>
        <time>2025-08-08T08:06:30.000Z</time>
      </trkpt>
      <trkpt lat="46.25271" lon="5.77759">
        <ele>859.20001220703</ele>
        <time>2025-08-08T08:06:31.000Z</time>
      </trkpt>
      <trkpt lat="46.25254" lon="5.77744">
        <ele>857.79998779297</ele>
        <time>2025-08-08T08:06:33.000Z</time>
      </trkpt>
      <trkpt lat="46.25241" lon="5.77725">
        <ele>856.59997558594</ele>
        <time>2025-08-08T08:06:35.000Z</time>
      </trkpt>
      <trkpt lat="46.25235" lon="5.77714">
        <ele>855.40002441406</ele>
        <time>2025-08-08T08:06:36.000Z</time>
      </trkpt>
      <trkpt lat="46.25224" lon="5.77691">
        <ele>854</ele>
        <time>2025-08-08T08:06:38.000Z</time>
      </trkpt>
      <trkpt lat="46.25212" lon="5.77669">
        <ele>852.59997558594</ele>
        <time>2025-08-08T08:06:40.000Z</time>
      </trkpt>
      <trkpt lat="46.25205" lon="5.77658">
        <ele>852</ele>
        <time>2025-08-08T08:06:41.000Z</time>
      </trkpt>
      <trkpt lat="46.25198" lon="5.77649">
        <ele>851.40002441406</ele>
        <time>2025-08-08T08:06:42.000Z</time>
      </trkpt>
      <trkpt lat="46.2519" lon="5.77642">
        <ele>851.40002441406</ele>
        <time>2025-08-08T08:06:43.000Z</time>
      </trkpt>
      <trkpt lat="46.25181" lon="5.77635">
        <ele>851.20001220703</ele>
        <time>2025-08-08T08:06:44.000Z</time>
      </trkpt>
      <trkpt lat="46.25171" lon="5.77629">
        <ele>850</ele>
        <time>2025-08-08T08:06:45.000Z</time>
      </trkpt>
      <trkpt lat="46.25151" lon="5.77619">
        <ele>848.59997558594</ele>
        <time>2025-08-08T08:06:47.000Z</time>
      </trkpt>
      <trkpt lat="46.25141" lon="5.77615">
        <ele>848</ele>
        <time>2025-08-08T08:06:48.000Z</time>
      </trkpt>
      <trkpt lat="46.2513" lon="5.77611">
        <ele>847.20001220703</ele>
        <time>2025-08-08T08:06:49.000Z</time>
      </trkpt>
      <trkpt lat="46.2511" lon="5.77603">
        <ele>846.20001220703</ele>
        <time>2025-08-08T08:06:51.000Z</time>
      </trkpt>
      <trkpt lat="46.251" lon="5.77598">
        <ele>845.20001220703</ele>
        <time>2025-08-08T08:06:52.000Z</time>
      </trkpt>
      <trkpt lat="46.2509" lon="5.77591">
        <ele>845</ele>
        <time>2025-08-08T08:06:53.000Z</time>
      </trkpt>
      <trkpt lat="46.25081" lon="5.77583">
        <ele>843.79998779297</ele>
        <time>2025-08-08T08:06:54.000Z</time>
      </trkpt>
      <trkpt lat="46.25064" lon="5.77567">
        <ele>842.40002441406</ele>
        <time>2025-08-08T08:06:56.000Z</time>
      </trkpt>
      <trkpt lat="46.25056" lon="5.77559">
        <ele>842</ele>
        <time>2025-08-08T08:06:57.000Z</time>
      </trkpt>
      <trkpt lat="46.25041" lon="5.77543">
        <ele>840.79998779297</ele>
        <time>2025-08-08T08:06:59.000Z</time>
      </trkpt>
      <trkpt lat="46.25026" lon="5.77528">
        <ele>839.79998779297</ele>
        <time>2025-08-08T08:07:01.000Z</time>
      </trkpt>
      <trkpt lat="46.25014" lon="5.77512">
        <ele>839.20001220703</ele>
        <time>2025-08-08T08:07:03.000Z</time>
      </trkpt>
      <trkpt lat="46.24996" lon="5.7749">
        <ele>838.59997558594</ele>
        <time>2025-08-08T08:07:06.000Z</time>
      </trkpt>
      <trkpt lat="46.2499" lon="5.77485">
        <ele>838.40002441406</ele>
        <time>2025-08-08T08:07:07.000Z</time>
      </trkpt>
      <trkpt lat="46.24984" lon="5.77481">
        <ele>838.20001220703</ele>
        <time>2025-08-08T08:07:08.000Z</time>
      </trkpt>
      <trkpt lat="46.24963" lon="5.77471">
        <ele>837.79998779297</ele>
        <time>2025-08-08T08:07:12.000Z</time>
      </trkpt>
      <trkpt lat="46.24958" lon="5.77468">
        <ele>837.59997558594</ele>
        <time>2025-08-08T08:07:13.000Z</time>
      </trkpt>
      <trkpt lat="46.24935" lon="5.77459">
        <ele>837</ele>
        <time>2025-08-08T08:07:17.000Z</time>
      </trkpt>
      <trkpt lat="46.24917" lon="5.77452">
        <ele>836.40002441406</ele>
        <time>2025-08-08T08:07:20.000Z</time>
      </trkpt>
      <trkpt lat="46.24892" lon="5.77439">
        <ele>835.20001220703</ele>
        <time>2025-08-08T08:07:24.000Z</time>
      </trkpt>
      <trkpt lat="46.24885" lon="5.77435">
        <ele>835</ele>
        <time>2025-08-08T08:07:25.000Z</time>
      </trkpt>
      <trkpt lat="46.24852" lon="5.77414">
        <ele>834</ele>
        <time>2025-08-08T08:07:30.000Z</time>
      </trkpt>
      <trkpt lat="46.24845" lon="5.77411">
        <ele>834</ele>
        <time>2025-08-08T08:07:31.000Z</time>
      </trkpt>
      <trkpt lat="46.24807" lon="5.77394">
        <ele>832.79998779297</ele>
        <time>2025-08-08T08:07:36.000Z</time>
      </trkpt>
      <trkpt lat="46.24799" lon="5.7739">
        <ele>832.79998779297</ele>
        <time>2025-08-08T08:07:37.000Z</time>
      </trkpt>
      <trkpt lat="46.24785" lon="5.77379">
        <ele>832.20001220703</ele>
        <time>2025-08-08T08:07:39.000Z</time>
      </trkpt>
      <trkpt lat="46.24779" lon="5.77371">
        <ele>831.79998779297</ele>
        <time>2025-08-08T08:07:40.000Z</time>
      </trkpt>
      <trkpt lat="46.24774" lon="5.77363">
        <ele>831.59997558594</ele>
        <time>2025-08-08T08:07:41.000Z</time>
      </trkpt>
      <trkpt lat="46.24768" lon="5.77354">
        <ele>831.40002441406</ele>
        <time>2025-08-08T08:07:42.000Z</time>
      </trkpt>
      <trkpt lat="46.24755" lon="5.77339">
        <ele>830.79998779297</ele>
        <time>2025-08-08T08:07:44.000Z</time>
      </trkpt>
      <trkpt lat="46.24748" lon="5.77333">
        <ele>830.40002441406</ele>
        <time>2025-08-08T08:07:45.000Z</time>
      </trkpt>
      <trkpt lat="46.24725" lon="5.77322">
        <ele>829.59997558594</ele>
        <time>2025-08-08T08:07:48.000Z</time>
      </trkpt>
      <trkpt lat="46.24717" lon="5.77321">
        <ele>829.40002441406</ele>
        <time>2025-08-08T08:07:49.000Z</time>
      </trkpt>
      <trkpt lat="46.24709" lon="5.77322">
        <ele>829</ele>
        <time>2025-08-08T08:07:50.000Z</time>
      </trkpt>
      <trkpt lat="46.24694" lon="5.77327">
        <ele>828.40002441406</ele>
        <time>2025-08-08T08:07:52.000Z</time>
      </trkpt>
      <trkpt lat="46.24686" lon="5.7733">
        <ele>828.20001220703</ele>
        <time>2025-08-08T08:07:53.000Z</time>
      </trkpt>
      <trkpt lat="46.24679" lon="5.77332">
        <ele>827.79998779297</ele>
        <time>2025-08-08T08:07:54.000Z</time>
      </trkpt>
      <trkpt lat="46.24664" lon="5.77332">
        <ele>827.40002441406</ele>
        <time>2025-08-08T08:07:56.000Z</time>
      </trkpt>
      <trkpt lat="46.24656" lon="5.77329">
        <ele>827</ele>
        <time>2025-08-08T08:07:57.000Z</time>
      </trkpt>
      <trkpt lat="46.24648" lon="5.77326">
        <ele>827</ele>
        <time>2025-08-08T08:07:58.000Z</time>
      </trkpt>
      <trkpt lat="46.24635" lon="5.77314">
        <ele>826.79998779297</ele>
        <time>2025-08-08T08:08:00.000Z</time>
      </trkpt>
      <trkpt lat="46.24628" lon="5.77307">
        <ele>826.59997558594</ele>
        <time>2025-08-08T08:08:01.000Z</time>
      </trkpt>
      <trkpt lat="46.24623" lon="5.77299">
        <ele>826.40002441406</ele>
        <time>2025-08-08T08:08:02.000Z</time>
      </trkpt>
      <trkpt lat="46.24618" lon="5.7729">
        <ele>826.40002441406</ele>
        <time>2025-08-08T08:08:03.000Z</time>
      </trkpt>
      <trkpt lat="46.24609" lon="5.77271">
        <ele>826</ele>
        <time>2025-08-08T08:08:05.000Z</time>
      </trkpt>
      <trkpt lat="46.24599" lon="5.77252">
        <ele>825.20001220703</ele>
        <time>2025-08-08T08:08:07.000Z</time>
      </trkpt>
      <trkpt lat="46.24579" lon="5.77214">
        <ele>824</ele>
        <time>2025-08-08T08:08:11.000Z</time>
      </trkpt>
      <trkpt lat="46.2455" lon="5.77171">
        <ele>823.20001220703</ele>
        <time>2025-08-08T08:08:16.000Z</time>
      </trkpt>
      <trkpt lat="46.24545" lon="5.77161">
        <ele>822.79998779297</ele>
        <time>2025-08-08T08:08:17.000Z</time>
      </trkpt>
      <trkpt lat="46.24523" lon="5.77122">
        <ele>821.79998779297</ele>
        <time>2025-08-08T08:08:21.000Z</time>
      </trkpt>
      <trkpt lat="46.24516" lon="5.77113">
        <ele>821.59997558594</ele>
        <time>2025-08-08T08:08:22.000Z</time>
      </trkpt>
      <trkpt lat="46.24495" lon="5.77092">
        <ele>820.79998779297</ele>
        <time>2025-08-08T08:08:25.000Z</time>
      </trkpt>
      <trkpt lat="46.24487" lon="5.77086">
        <ele>820.59997558594</ele>
        <time>2025-08-08T08:08:26.000Z</time>
      </trkpt>
      <trkpt lat="46.24473" lon="5.7707">
        <ele>820</ele>
        <time>2025-08-08T08:08:28.000Z</time>
      </trkpt>
      <trkpt lat="46.24461" lon="5.77053">
        <ele>819.59997558594</ele>
        <time>2025-08-08T08:08:30.000Z</time>
      </trkpt>
      <trkpt lat="46.24454" lon="5.77044">
        <ele>819.40002441406</ele>
        <time>2025-08-08T08:08:31.000Z</time>
      </trkpt>
      <trkpt lat="46.24436" lon="5.77017">
        <ele>818.79998779297</ele>
        <time>2025-08-08T08:08:34.000Z</time>
      </trkpt>
      <trkpt lat="46.24429" lon="5.7701">
        <ele>818.79998779297</ele>
        <time>2025-08-08T08:08:35.000Z</time>
      </trkpt>
      <trkpt lat="46.24422" lon="5.77004">
        <ele>818.40002441406</ele>
        <time>2025-08-08T08:08:36.000Z</time>
      </trkpt>
      <trkpt lat="46.24392" lon="5.76977">
        <ele>817.59997558594</ele>
        <time>2025-08-08T08:08:40.000Z</time>
      </trkpt>
      <trkpt lat="46.24384" lon="5.7697">
        <ele>817.40002441406</ele>
        <time>2025-08-08T08:08:41.000Z</time>
      </trkpt>
      <trkpt lat="46.24353" lon="5.76945">
        <ele>816.20001220703</ele>
        <time>2025-08-08T08:08:45.000Z</time>
      </trkpt>
      <trkpt lat="46.24346" lon="5.76937">
        <ele>816.20001220703</ele>
        <time>2025-08-08T08:08:46.000Z</time>
      </trkpt>
      <trkpt lat="46.24318" lon="5.76908">
        <ele>815</ele>
        <time>2025-08-08T08:08:50.000Z</time>
      </trkpt>
      <trkpt lat="46.24294" lon="5.76892">
        <ele>814.40002441406</ele>
        <time>2025-08-08T08:08:53.000Z</time>
      </trkpt>
      <trkpt lat="46.24286" lon="5.76887">
        <ele>814</ele>
        <time>2025-08-08T08:08:54.000Z</time>
      </trkpt>
      <trkpt lat="46.24278" lon="5.76881">
        <ele>813.59997558594</ele>
        <time>2025-08-08T08:08:55.000Z</time>
      </trkpt>
      <trkpt lat="46.24257" lon="5.76859">
        <ele>812.79998779297</ele>
        <time>2025-08-08T08:08:58.000Z</time>
      </trkpt>
      <trkpt lat="46.24237" lon="5.76834">
        <ele>811.79998779297</ele>
        <time>2025-08-08T08:09:01.000Z</time>
      </trkpt>
      <trkpt lat="46.24216" lon="5.76811">
        <ele>810.79998779297</ele>
        <time>2025-08-08T08:09:04.000Z</time>
      </trkpt>
      <trkpt lat="46.24208" lon="5.76803">
        <ele>810.59997558594</ele>
        <time>2025-08-08T08:09:05.000Z</time>
      </trkpt>
      <trkpt lat="46.2417" lon="5.76767">
        <ele>809.59997558594</ele>
        <time>2025-08-08T08:09:10.000Z</time>
      </trkpt>
      <trkpt lat="46.24155" lon="5.76751">
        <ele>809.20001220703</ele>
        <time>2025-08-08T08:09:12.000Z</time>
      </trkpt>
      <trkpt lat="46.24141" lon="5.76735">
        <ele>808.59997558594</ele>
        <time>2025-08-08T08:09:14.000Z</time>
      </trkpt>
      <trkpt lat="46.24112" lon="5.76703">
        <ele>807.20001220703</ele>
        <time>2025-08-08T08:09:18.000Z</time>
      </trkpt>
      <trkpt lat="46.24092" lon="5.76677">
        <ele>806.59997558594</ele>
        <time>2025-08-08T08:09:21.000Z</time>
      </trkpt>
      <trkpt lat="46.2408" lon="5.76657">
        <ele>805.79998779297</ele>
        <time>2025-08-08T08:09:23.000Z</time>
      </trkpt>
      <trkpt lat="46.24071" lon="5.76634">
        <ele>805.20001220703</ele>
        <time>2025-08-08T08:09:25.000Z</time>
      </trkpt>
      <trkpt lat="46.24063" lon="5.76596">
        <ele>804.59997558594</ele>
        <time>2025-08-08T08:09:28.000Z</time>
      </trkpt>
      <trkpt lat="46.24059" lon="5.76585">
        <ele>804.40002441406</ele>
        <time>2025-08-08T08:09:29.000Z</time>
      </trkpt>
      <trkpt lat="46.24055" lon="5.76574">
        <ele>804.40002441406</ele>
        <time>2025-08-08T08:09:30.000Z</time>
      </trkpt>
      <trkpt lat="46.24045" lon="5.76553">
        <ele>803.40002441406</ele>
        <time>2025-08-08T08:09:32.000Z</time>
      </trkpt>
      <trkpt lat="46.2403" lon="5.76521">
        <ele>802.79998779297</ele>
        <time>2025-08-08T08:09:35.000Z</time>
      </trkpt>
      <trkpt lat="46.2402" lon="5.765">
        <ele>802.40002441406</ele>
        <time>2025-08-08T08:09:37.000Z</time>
      </trkpt>
      <trkpt lat="46.2401" lon="5.76478">
        <ele>801.20001220703</ele>
        <time>2025-08-08T08:09:39.000Z</time>
      </trkpt>
      <trkpt lat="46.23998" lon="5.76459">
        <ele>800.59997558594</ele>
        <time>2025-08-08T08:09:41.000Z</time>
      </trkpt>
      <trkpt lat="46.23991" lon="5.76451">
        <ele>800.40002441406</ele>
        <time>2025-08-08T08:09:42.000Z</time>
      </trkpt>
      <trkpt lat="46.23976" lon="5.76436">
        <ele>800.20001220703</ele>
        <time>2025-08-08T08:09:44.000Z</time>
      </trkpt>
      <trkpt lat="46.23969" lon="5.76428">
        <ele>799.79998779297</ele>
        <time>2025-08-08T08:09:45.000Z</time>
      </trkpt>
      <trkpt lat="46.23936" lon="5.76384">
        <ele>799.20001220703</ele>
        <time>2025-08-08T08:09:50.000Z</time>
      </trkpt>
      <trkpt lat="46.23929" lon="5.76377">
        <ele>798.79998779297</ele>
        <time>2025-08-08T08:09:51.000Z</time>
      </trkpt>
      <trkpt lat="46.23905" lon="5.7636">
        <ele>798</ele>
        <time>2025-08-08T08:09:54.000Z</time>
      </trkpt>
      <trkpt lat="46.23896" lon="5.76357">
        <ele>797.59997558594</ele>
        <time>2025-08-08T08:09:55.000Z</time>
      </trkpt>
      <trkpt lat="46.23888" lon="5.76356">
        <ele>797.40002441406</ele>
        <time>2025-08-08T08:09:56.000Z</time>
      </trkpt>
      <trkpt lat="46.23879" lon="5.76356">
        <ele>797.40002441406</ele>
        <time>2025-08-08T08:09:57.000Z</time>
      </trkpt>
      <trkpt lat="46.23854" lon="5.76355">
        <ele>796.59997558594</ele>
        <time>2025-08-08T08:10:00.000Z</time>
      </trkpt>
      <trkpt lat="46.23821" lon="5.76351">
        <ele>795.20001220703</ele>
        <time>2025-08-08T08:10:04.000Z</time>
      </trkpt>
      <trkpt lat="46.23805" lon="5.76344">
        <ele>794.59997558594</ele>
        <time>2025-08-08T08:10:06.000Z</time>
      </trkpt>
      <trkpt lat="46.2379" lon="5.76334">
        <ele>794.59997558594</ele>
        <time>2025-08-08T08:10:08.000Z</time>
      </trkpt>
      <trkpt lat="46.23783" lon="5.76329">
        <ele>794</ele>
        <time>2025-08-08T08:10:09.000Z</time>
      </trkpt>
      <trkpt lat="46.23749" lon="5.76299">
        <ele>793.20001220703</ele>
        <time>2025-08-08T08:10:14.000Z</time>
      </trkpt>
      <trkpt lat="46.23741" lon="5.76293">
        <ele>793.20001220703</ele>
        <time>2025-08-08T08:10:15.000Z</time>
      </trkpt>
      <trkpt lat="46.23734" lon="5.76288">
        <ele>793</ele>
        <time>2025-08-08T08:10:16.000Z</time>
      </trkpt>
      <trkpt lat="46.23704" lon="5.76264">
        <ele>792</ele>
        <time>2025-08-08T08:10:20.000Z</time>
      </trkpt>
      <trkpt lat="46.23696" lon="5.76258">
        <ele>791.79998779297</ele>
        <time>2025-08-08T08:10:21.000Z</time>
      </trkpt>
      <trkpt lat="46.23665" lon="5.76232">
        <ele>790.79998779297</ele>
        <time>2025-08-08T08:10:25.000Z</time>
      </trkpt>
      <trkpt lat="46.23635" lon="5.76203">
        <ele>789.59997558594</ele>
        <time>2025-08-08T08:10:29.000Z</time>
      </trkpt>
      <trkpt lat="46.2362" lon="5.76188">
        <ele>789.20001220703</ele>
        <time>2025-08-08T08:10:31.000Z</time>
      </trkpt>
      <trkpt lat="46.23608" lon="5.7617">
        <ele>788.40002441406</ele>
        <time>2025-08-08T08:10:33.000Z</time>
      </trkpt>
      <trkpt lat="46.23592" lon="5.76133">
        <ele>787.40002441406</ele>
        <time>2025-08-08T08:10:36.000Z</time>
      </trkpt>
      <trkpt lat="46.23584" lon="5.76113">
        <ele>786.59997558594</ele>
        <time>2025-08-08T08:10:38.000Z</time>
      </trkpt>
      <trkpt lat="46.23578" lon="5.76099">
        <ele>786.40002441406</ele>
        <time>2025-08-08T08:10:39.000Z</time>
      </trkpt>
      <trkpt lat="46.2356" lon="5.76054">
        <ele>785</ele>
        <time>2025-08-08T08:10:43.000Z</time>
      </trkpt>
      <trkpt lat="46.23551" lon="5.76029">
        <ele>784.59997558594</ele>
        <time>2025-08-08T08:10:45.000Z</time>
      </trkpt>
      <trkpt lat="46.23544" lon="5.76004">
        <ele>783.79998779297</ele>
        <time>2025-08-08T08:10:47.000Z</time>
      </trkpt>
      <trkpt lat="46.23539" lon="5.75979">
        <ele>783</ele>
        <time>2025-08-08T08:10:49.000Z</time>
      </trkpt>
      <trkpt lat="46.23536" lon="5.75966">
        <ele>782.59997558594</ele>
        <time>2025-08-08T08:10:50.000Z</time>
      </trkpt>
      <trkpt lat="46.23532" lon="5.75952">
        <ele>782.40002441406</ele>
        <time>2025-08-08T08:10:51.000Z</time>
      </trkpt>
      <trkpt lat="46.23523" lon="5.75928">
        <ele>781.59997558594</ele>
        <time>2025-08-08T08:10:53.000Z</time>
      </trkpt>
      <trkpt lat="46.23504" lon="5.75881">
        <ele>780.20001220703</ele>
        <time>2025-08-08T08:10:57.000Z</time>
      </trkpt>
      <trkpt lat="46.23491" lon="5.75845">
        <ele>779.20001220703</ele>
        <time>2025-08-08T08:11:00.000Z</time>
      </trkpt>
      <trkpt lat="46.2347" lon="5.75798">
        <ele>777.79998779297</ele>
        <time>2025-08-08T08:11:04.000Z</time>
      </trkpt>
      <trkpt lat="46.2346" lon="5.75774">
        <ele>777</ele>
        <time>2025-08-08T08:11:06.000Z</time>
      </trkpt>
      <trkpt lat="46.23453" lon="5.75746">
        <ele>776.59997558594</ele>
        <time>2025-08-08T08:11:08.000Z</time>
      </trkpt>
      <trkpt lat="46.23453" lon="5.75735">
        <ele>775.79998779297</ele>
        <time>2025-08-08T08:11:09.000Z</time>
      </trkpt>
      <trkpt lat="46.23453" lon="5.75721">
        <ele>775.59997558594</ele>
        <time>2025-08-08T08:11:10.000Z</time>
      </trkpt>
      <trkpt lat="46.23449" lon="5.75693">
        <ele>774.20001220703</ele>
        <time>2025-08-08T08:11:12.000Z</time>
      </trkpt>
      <trkpt lat="46.23439" lon="5.75668">
        <ele>773.20001220703</ele>
        <time>2025-08-08T08:11:14.000Z</time>
      </trkpt>
      <trkpt lat="46.23432" lon="5.75658">
        <ele>773</ele>
        <time>2025-08-08T08:11:15.000Z</time>
      </trkpt>
      <trkpt lat="46.23407" lon="5.75631">
        <ele>771.59997558594</ele>
        <time>2025-08-08T08:11:18.000Z</time>
      </trkpt>
      <trkpt lat="46.23391" lon="5.75614">
        <ele>770.59997558594</ele>
        <time>2025-08-08T08:11:20.000Z</time>
      </trkpt>
      <trkpt lat="46.23375" lon="5.75596">
        <ele>769.40002441406</ele>
        <time>2025-08-08T08:11:22.000Z</time>
      </trkpt>
      <trkpt lat="46.2335" lon="5.7557">
        <ele>768.20001220703</ele>
        <time>2025-08-08T08:11:25.000Z</time>
      </trkpt>
      <trkpt lat="46.23342" lon="5.75562">
        <ele>767.79998779297</ele>
        <time>2025-08-08T08:11:26.000Z</time>
      </trkpt>
      <trkpt lat="46.23324" lon="5.75547">
        <ele>767.20001220703</ele>
        <time>2025-08-08T08:11:28.000Z</time>
      </trkpt>
      <trkpt lat="46.23297" lon="5.7553">
        <ele>766.20001220703</ele>
        <time>2025-08-08T08:11:31.000Z</time>
      </trkpt>
      <trkpt lat="46.23288" lon="5.75524">
        <ele>765.40002441406</ele>
        <time>2025-08-08T08:11:32.000Z</time>
      </trkpt>
      <trkpt lat="46.23263" lon="5.75507">
        <ele>764</ele>
        <time>2025-08-08T08:11:35.000Z</time>
      </trkpt>
      <trkpt lat="46.23245" lon="5.75498">
        <ele>763.59997558594</ele>
        <time>2025-08-08T08:11:37.000Z</time>
      </trkpt>
      <trkpt lat="46.23226" lon="5.75491">
        <ele>762.79998779297</ele>
        <time>2025-08-08T08:11:39.000Z</time>
      </trkpt>
      <trkpt lat="46.23209" lon="5.7548">
        <ele>762.20001220703</ele>
        <time>2025-08-08T08:11:41.000Z</time>
      </trkpt>
      <trkpt lat="46.23201" lon="5.75473">
        <ele>761.79998779297</ele>
        <time>2025-08-08T08:11:42.000Z</time>
      </trkpt>
      <trkpt lat="46.23194" lon="5.75465">
        <ele>761.79998779297</ele>
        <time>2025-08-08T08:11:43.000Z</time>
      </trkpt>
      <trkpt lat="46.23187" lon="5.75457">
        <ele>761.20001220703</ele>
        <time>2025-08-08T08:11:44.000Z</time>
      </trkpt>
      <trkpt lat="46.2317" lon="5.75444">
        <ele>760.59997558594</ele>
        <time>2025-08-08T08:11:46.000Z</time>
      </trkpt>
      <trkpt lat="46.23152" lon="5.75436">
        <ele>760.20001220703</ele>
        <time>2025-08-08T08:11:48.000Z</time>
      </trkpt>
      <trkpt lat="46.23142" lon="5.75433">
        <ele>759.59997558594</ele>
        <time>2025-08-08T08:11:49.000Z</time>
      </trkpt>
      <trkpt lat="46.23126" lon="5.75425">
        <ele>759</ele>
        <time>2025-08-08T08:11:51.000Z</time>
      </trkpt>
      <trkpt lat="46.23118" lon="5.7542">
        <ele>758.79998779297</ele>
        <time>2025-08-08T08:11:52.000Z</time>
      </trkpt>
      <trkpt lat="46.2311" lon="5.75413">
        <ele>758.20001220703</ele>
        <time>2025-08-08T08:11:53.000Z</time>
      </trkpt>
      <trkpt lat="46.23087" lon="5.75389">
        <ele>757</ele>
        <time>2025-08-08T08:11:56.000Z</time>
      </trkpt>
      <trkpt lat="46.23054" lon="5.75363">
        <ele>755.79998779297</ele>
        <time>2025-08-08T08:12:00.000Z</time>
      </trkpt>
      <trkpt lat="46.23046" lon="5.75358">
        <ele>755.79998779297</ele>
        <time>2025-08-08T08:12:01.000Z</time>
      </trkpt>
      <trkpt lat="46.23028" lon="5.75343">
        <ele>754.79998779297</ele>
        <time>2025-08-08T08:12:03.000Z</time>
      </trkpt>
      <trkpt lat="46.23007" lon="5.75321">
        <ele>753.59997558594</ele>
        <time>2025-08-08T08:12:06.000Z</time>
      </trkpt>
      <trkpt lat="46.22978" lon="5.75283">
        <ele>752.20001220703</ele>
        <time>2025-08-08T08:12:10.000Z</time>
      </trkpt>
      <trkpt lat="46.22967" lon="5.75266">
        <ele>751.59997558594</ele>
        <time>2025-08-08T08:12:12.000Z</time>
      </trkpt>
      <trkpt lat="46.22959" lon="5.75256">
        <ele>751.40002441406</ele>
        <time>2025-08-08T08:12:13.000Z</time>
      </trkpt>
      <trkpt lat="46.22951" lon="5.75249">
        <ele>751</ele>
        <time>2025-08-08T08:12:14.000Z</time>
      </trkpt>
      <trkpt lat="46.22941" lon="5.75242">
        <ele>750.79998779297</ele>
        <time>2025-08-08T08:12:15.000Z</time>
      </trkpt>
      <trkpt lat="46.22917" lon="5.75227">
        <ele>749.79998779297</ele>
        <time>2025-08-08T08:12:18.000Z</time>
      </trkpt>
      <trkpt lat="46.229" lon="5.75213">
        <ele>749</ele>
        <time>2025-08-08T08:12:20.000Z</time>
      </trkpt>
      <trkpt lat="46.22892" lon="5.75206">
        <ele>749</ele>
        <time>2025-08-08T08:12:21.000Z</time>
      </trkpt>
      <trkpt lat="46.22872" lon="5.75183">
        <ele>747.79998779297</ele>
        <time>2025-08-08T08:12:24.000Z</time>
      </trkpt>
      <trkpt lat="46.22859" lon="5.75165">
        <ele>747</ele>
        <time>2025-08-08T08:12:26.000Z</time>
      </trkpt>
      <trkpt lat="46.22845" lon="5.75147">
        <ele>746.59997558594</ele>
        <time>2025-08-08T08:12:28.000Z</time>
      </trkpt>
      <trkpt lat="46.22833" lon="5.75128">
        <ele>745.40002441406</ele>
        <time>2025-08-08T08:12:30.000Z</time>
      </trkpt>
      <trkpt lat="46.22822" lon="5.75107">
        <ele>744.79998779297</ele>
        <time>2025-08-08T08:12:32.000Z</time>
      </trkpt>
      <trkpt lat="46.22817" lon="5.75097">
        <ele>744.40002441406</ele>
        <time>2025-08-08T08:12:33.000Z</time>
      </trkpt>
      <trkpt lat="46.22787" lon="5.75042">
        <ele>743</ele>
        <time>2025-08-08T08:12:38.000Z</time>
      </trkpt>
      <trkpt lat="46.22766" lon="5.75013">
        <ele>741.79998779297</ele>
        <time>2025-08-08T08:12:41.000Z</time>
      </trkpt>
      <trkpt lat="46.22745" lon="5.74984">
        <ele>740.59997558594</ele>
        <time>2025-08-08T08:12:44.000Z</time>
      </trkpt>
      <trkpt lat="46.22739" lon="5.74973">
        <ele>739.79998779297</ele>
        <time>2025-08-08T08:12:45.000Z</time>
      </trkpt>
      <trkpt lat="46.22732" lon="5.74962">
        <ele>739.40002441406</ele>
        <time>2025-08-08T08:12:46.000Z</time>
      </trkpt>
      <trkpt lat="46.22718" lon="5.7494">
        <ele>738.20001220703</ele>
        <time>2025-08-08T08:12:48.000Z</time>
      </trkpt>
      <trkpt lat="46.22705" lon="5.74917">
        <ele>737</ele>
        <time>2025-08-08T08:12:50.000Z</time>
      </trkpt>
      <trkpt lat="46.22699" lon="5.74906">
        <ele>736</ele>
        <time>2025-08-08T08:12:51.000Z</time>
      </trkpt>
      <trkpt lat="46.22695" lon="5.74894">
        <ele>735</ele>
        <time>2025-08-08T08:12:52.000Z</time>
      </trkpt>
      <trkpt lat="46.22691" lon="5.74881">
        <ele>734.79998779297</ele>
        <time>2025-08-08T08:12:53.000Z</time>
      </trkpt>
      <trkpt lat="46.22689" lon="5.74867">
        <ele>734.40002441406</ele>
        <time>2025-08-08T08:12:54.000Z</time>
      </trkpt>
      <trkpt lat="46.22686" lon="5.74838">
        <ele>733.59997558594</ele>
        <time>2025-08-08T08:12:56.000Z</time>
      </trkpt>
      <trkpt lat="46.22684" lon="5.74808">
        <ele>731.40002441406</ele>
        <time>2025-08-08T08:12:58.000Z</time>
      </trkpt>
      <trkpt lat="46.22682" lon="5.74793">
        <ele>730</ele>
        <time>2025-08-08T08:12:59.000Z</time>
      </trkpt>
      <trkpt lat="46.22675" lon="5.74765">
        <ele>728.59997558594</ele>
        <time>2025-08-08T08:13:01.000Z</time>
      </trkpt>
      <trkpt lat="46.22662" lon="5.74722">
        <ele>727.40002441406</ele>
        <time>2025-08-08T08:13:04.000Z</time>
      </trkpt>
      <trkpt lat="46.22653" lon="5.74694">
        <ele>726.20001220703</ele>
        <time>2025-08-08T08:13:06.000Z</time>
      </trkpt>
      <trkpt lat="46.22647" lon="5.74681">
        <ele>726</ele>
        <time>2025-08-08T08:13:07.000Z</time>
      </trkpt>
      <trkpt lat="46.22641" lon="5.7467">
        <ele>725.40002441406</ele>
        <time>2025-08-08T08:13:08.000Z</time>
      </trkpt>
      <trkpt lat="46.22633" lon="5.74659">
        <ele>724.79998779297</ele>
        <time>2025-08-08T08:13:09.000Z</time>
      </trkpt>
      <trkpt lat="46.22626" lon="5.74647">
        <ele>723.40002441406</ele>
        <time>2025-08-08T08:13:10.000Z</time>
      </trkpt>
      <trkpt lat="46.22612" lon="5.74623">
        <ele>722</ele>
        <time>2025-08-08T08:13:12.000Z</time>
      </trkpt>
      <trkpt lat="46.22602" lon="5.74597">
        <ele>721.20001220703</ele>
        <time>2025-08-08T08:13:14.000Z</time>
      </trkpt>
      <trkpt lat="46.226" lon="5.74584">
        <ele>720.59997558594</ele>
        <time>2025-08-08T08:13:15.000Z</time>
      </trkpt>
      <trkpt lat="46.22599" lon="5.74572">
        <ele>720.20001220703</ele>
        <time>2025-08-08T08:13:16.000Z</time>
      </trkpt>
      <trkpt lat="46.22601" lon="5.7456">
        <ele>719.20001220703</ele>
        <time>2025-08-08T08:13:17.000Z</time>
      </trkpt>
      <trkpt lat="46.22605" lon="5.74549">
        <ele>718.40002441406</ele>
        <time>2025-08-08T08:13:18.000Z</time>
      </trkpt>
      <trkpt lat="46.22609" lon="5.74538">
        <ele>717.40002441406</ele>
        <time>2025-08-08T08:13:19.000Z</time>
      </trkpt>
      <trkpt lat="46.22616" lon="5.74518">
        <ele>716.20001220703</ele>
        <time>2025-08-08T08:13:21.000Z</time>
      </trkpt>
      <trkpt lat="46.22618" lon="5.74501">
        <ele>715.20001220703</ele>
        <time>2025-08-08T08:13:23.000Z</time>
      </trkpt>
      <trkpt lat="46.22602" lon="5.74484">
        <ele>714.20001220703</ele>
        <time>2025-08-08T08:13:25.000Z</time>
      </trkpt>
      <trkpt lat="46.22593" lon="5.74478">
        <ele>713.59997558594</ele>
        <time>2025-08-08T08:13:26.000Z</time>
      </trkpt>
      <trkpt lat="46.22583" lon="5.74474">
        <ele>712.79998779297</ele>
        <time>2025-08-08T08:13:27.000Z</time>
      </trkpt>
      <trkpt lat="46.22573" lon="5.7447">
        <ele>712.59997558594</ele>
        <time>2025-08-08T08:13:28.000Z</time>
      </trkpt>
      <trkpt lat="46.22544" lon="5.7446">
        <ele>711.40002441406</ele>
        <time>2025-08-08T08:13:31.000Z</time>
      </trkpt>
      <trkpt lat="46.22524" lon="5.7445">
        <ele>710.20001220703</ele>
        <time>2025-08-08T08:13:33.000Z</time>
      </trkpt>
      <trkpt lat="46.22505" lon="5.7444">
        <ele>709.20001220703</ele>
        <time>2025-08-08T08:13:35.000Z</time>
      </trkpt>
      <trkpt lat="46.22495" lon="5.74435">
        <ele>708.59997558594</ele>
        <time>2025-08-08T08:13:36.000Z</time>
      </trkpt>
      <trkpt lat="46.22475" lon="5.74425">
        <ele>707.40002441406</ele>
        <time>2025-08-08T08:13:38.000Z</time>
      </trkpt>
      <trkpt lat="46.22466" lon="5.74422">
        <ele>707</ele>
        <time>2025-08-08T08:13:39.000Z</time>
      </trkpt>
      <trkpt lat="46.22458" lon="5.74421">
        <ele>706.20001220703</ele>
        <time>2025-08-08T08:13:40.000Z</time>
      </trkpt>
      <trkpt lat="46.22442" lon="5.74418">
        <ele>705</ele>
        <time>2025-08-08T08:13:42.000Z</time>
      </trkpt>
      <trkpt lat="46.22428" lon="5.74405">
        <ele>704</ele>
        <time>2025-08-08T08:13:44.000Z</time>
      </trkpt>
      <trkpt lat="46.22413" lon="5.74379">
        <ele>702.20001220703</ele>
        <time>2025-08-08T08:13:47.000Z</time>
      </trkpt>
      <trkpt lat="46.22406" lon="5.74373">
        <ele>701.20001220703</ele>
        <time>2025-08-08T08:13:48.000Z</time>
      </trkpt>
      <trkpt lat="46.224" lon="5.7437">
        <ele>701</ele>
        <time>2025-08-08T08:13:49.000Z</time>
      </trkpt>
      <trkpt lat="46.22381" lon="5.74368">
        <ele>700.20001220703</ele>
        <time>2025-08-08T08:13:51.000Z</time>
      </trkpt>
      <trkpt lat="46.22373" lon="5.7437">
        <ele>699.79998779297</ele>
        <time>2025-08-08T08:13:52.000Z</time>
      </trkpt>
      <trkpt lat="46.22348" lon="5.74377">
        <ele>698.20001220703</ele>
        <time>2025-08-08T08:13:55.000Z</time>
      </trkpt>
      <trkpt lat="46.22332" lon="5.74375">
        <ele>697.20001220703</ele>
        <time>2025-08-08T08:13:57.000Z</time>
      </trkpt>
      <trkpt lat="46.22324" lon="5.74372">
        <ele>697</ele>
        <time>2025-08-08T08:13:58.000Z</time>
      </trkpt>
      <trkpt lat="46.22317" lon="5.74371">
        <ele>696.40002441406</ele>
        <time>2025-08-08T08:13:59.000Z</time>
      </trkpt>
      <trkpt lat="46.22309" lon="5.74373">
        <ele>695.79998779297</ele>
        <time>2025-08-08T08:14:00.000Z</time>
      </trkpt>
      <trkpt lat="46.22298" lon="5.74377">
        <ele>695</ele>
        <time>2025-08-08T08:14:01.000Z</time>
      </trkpt>
      <trkpt lat="46.22289" lon="5.74381">
        <ele>694.59997558594</ele>
        <time>2025-08-08T08:14:02.000Z</time>
      </trkpt>
      <trkpt lat="46.22263" lon="5.74392">
        <ele>693.59997558594</ele>
        <time>2025-08-08T08:14:05.000Z</time>
      </trkpt>
      <trkpt lat="46.22253" lon="5.74397">
        <ele>692.59997558594</ele>
        <time>2025-08-08T08:14:06.000Z</time>
      </trkpt>
      <trkpt lat="46.22238" lon="5.74409">
        <ele>691.79998779297</ele>
        <time>2025-08-08T08:14:08.000Z</time>
      </trkpt>
      <trkpt lat="46.2223" lon="5.74417">
        <ele>691.40002441406</ele>
        <time>2025-08-08T08:14:09.000Z</time>
      </trkpt>
      <trkpt lat="46.22216" lon="5.74436">
        <ele>690.40002441406</ele>
        <time>2025-08-08T08:14:11.000Z</time>
      </trkpt>
      <trkpt lat="46.2221" lon="5.74445">
        <ele>690.40002441406</ele>
        <time>2025-08-08T08:14:12.000Z</time>
      </trkpt>
      <trkpt lat="46.22204" lon="5.74454">
        <ele>689.20001220703</ele>
        <time>2025-08-08T08:14:13.000Z</time>
      </trkpt>
      <trkpt lat="46.22191" lon="5.74475">
        <ele>688.40002441406</ele>
        <time>2025-08-08T08:14:15.000Z</time>
      </trkpt>
      <trkpt lat="46.22187" lon="5.74486">
        <ele>688.20001220703</ele>
        <time>2025-08-08T08:14:16.000Z</time>
      </trkpt>
      <trkpt lat="46.22182" lon="5.74498">
        <ele>687.40002441406</ele>
        <time>2025-08-08T08:14:17.000Z</time>
      </trkpt>
      <trkpt lat="46.22174" lon="5.74522">
        <ele>686.20001220703</ele>
        <time>2025-08-08T08:14:19.000Z</time>
      </trkpt>
      <trkpt lat="46.22168" lon="5.74544">
        <ele>685.20001220703</ele>
        <time>2025-08-08T08:14:21.000Z</time>
      </trkpt>
      <trkpt lat="46.22164" lon="5.74559">
        <ele>684.79998779297</ele>
        <time>2025-08-08T08:14:22.000Z</time>
      </trkpt>
      <trkpt lat="46.22158" lon="5.74585">
        <ele>683.40002441406</ele>
        <time>2025-08-08T08:14:24.000Z</time>
      </trkpt>
      <trkpt lat="46.22155" lon="5.74595">
        <ele>682.79998779297</ele>
        <time>2025-08-08T08:14:25.000Z</time>
      </trkpt>
      <trkpt lat="46.22151" lon="5.74608">
        <ele>682.40002441406</ele>
        <time>2025-08-08T08:14:26.000Z</time>
      </trkpt>
      <trkpt lat="46.22148" lon="5.7462">
        <ele>681.59997558594</ele>
        <time>2025-08-08T08:14:27.000Z</time>
      </trkpt>
      <trkpt lat="46.2213" lon="5.74669">
        <ele>679.79998779297</ele>
        <time>2025-08-08T08:14:31.000Z</time>
      </trkpt>
      <trkpt lat="46.22117" lon="5.74691">
        <ele>678.59997558594</ele>
        <time>2025-08-08T08:14:33.000Z</time>
      </trkpt>
      <trkpt lat="46.22097" lon="5.74723">
        <ele>676.79998779297</ele>
        <time>2025-08-08T08:14:36.000Z</time>
      </trkpt>
      <trkpt lat="46.22085" lon="5.74741">
        <ele>675.59997558594</ele>
        <time>2025-08-08T08:14:38.000Z</time>
      </trkpt>
      <trkpt lat="46.22078" lon="5.74748">
        <ele>675.20001220703</ele>
        <time>2025-08-08T08:14:39.000Z</time>
      </trkpt>
      <trkpt lat="46.22062" lon="5.74755">
        <ele>674</ele>
        <time>2025-08-08T08:14:41.000Z</time>
      </trkpt>
      <trkpt lat="46.22054" lon="5.74755">
        <ele>673.59997558594</ele>
        <time>2025-08-08T08:14:42.000Z</time>
      </trkpt>
      <trkpt lat="46.22036" lon="5.74755">
        <ele>672.59997558594</ele>
        <time>2025-08-08T08:14:44.000Z</time>
      </trkpt>
      <trkpt lat="46.22026" lon="5.74754">
        <ele>671.20001220703</ele>
        <time>2025-08-08T08:14:45.000Z</time>
      </trkpt>
      <trkpt lat="46.22016" lon="5.74754">
        <ele>670.40002441406</ele>
        <time>2025-08-08T08:14:46.000Z</time>
      </trkpt>
      <trkpt lat="46.22006" lon="5.74754">
        <ele>670.20001220703</ele>
        <time>2025-08-08T08:14:47.000Z</time>
      </trkpt>
      <trkpt lat="46.21997" lon="5.74753">
        <ele>669.59997558594</ele>
        <time>2025-08-08T08:14:48.000Z</time>
      </trkpt>
      <trkpt lat="46.21988" lon="5.7475">
        <ele>669.20001220703</ele>
        <time>2025-08-08T08:14:49.000Z</time>
      </trkpt>
      <trkpt lat="46.21979" lon="5.74745">
        <ele>668.59997558594</ele>
        <time>2025-08-08T08:14:50.000Z</time>
      </trkpt>
      <trkpt lat="46.21962" lon="5.74725">
        <ele>667.59997558594</ele>
        <time>2025-08-08T08:14:52.000Z</time>
      </trkpt>
      <trkpt lat="46.21945" lon="5.74707">
        <ele>666.59997558594</ele>
        <time>2025-08-08T08:14:54.000Z</time>
      </trkpt>
      <trkpt lat="46.2192" lon="5.7468">
        <ele>665.40002441406</ele>
        <time>2025-08-08T08:14:57.000Z</time>
      </trkpt>
      <trkpt lat="46.21903" lon="5.74661">
        <ele>664.40002441406</ele>
        <time>2025-08-08T08:14:59.000Z</time>
      </trkpt>
      <trkpt lat="46.21895" lon="5.74652">
        <ele>663.20001220703</ele>
        <time>2025-08-08T08:15:00.000Z</time>
      </trkpt>
      <trkpt lat="46.21881" lon="5.74634">
        <ele>661.59997558594</ele>
        <time>2025-08-08T08:15:02.000Z</time>
      </trkpt>
      <trkpt lat="46.21874" lon="5.74627">
        <ele>661.40002441406</ele>
        <time>2025-08-08T08:15:03.000Z</time>
      </trkpt>
      <trkpt lat="46.21867" lon="5.74623">
        <ele>660.79998779297</ele>
        <time>2025-08-08T08:15:04.000Z</time>
      </trkpt>
      <trkpt lat="46.21857" lon="5.74623">
        <ele>660.20001220703</ele>
        <time>2025-08-08T08:15:05.000Z</time>
      </trkpt>
      <trkpt lat="46.2185" lon="5.74625">
        <ele>659.40002441406</ele>
        <time>2025-08-08T08:15:06.000Z</time>
      </trkpt>
      <trkpt lat="46.21842" lon="5.74628">
        <ele>658.79998779297</ele>
        <time>2025-08-08T08:15:07.000Z</time>
      </trkpt>
      <trkpt lat="46.21827" lon="5.74635">
        <ele>657.79998779297</ele>
        <time>2025-08-08T08:15:09.000Z</time>
      </trkpt>
      <trkpt lat="46.21816" lon="5.7464">
        <ele>657.59997558594</ele>
        <time>2025-08-08T08:15:10.000Z</time>
      </trkpt>
      <trkpt lat="46.21799" lon="5.74652">
        <ele>656.79998779297</ele>
        <time>2025-08-08T08:15:12.000Z</time>
      </trkpt>
      <trkpt lat="46.21791" lon="5.7466">
        <ele>656</ele>
        <time>2025-08-08T08:15:13.000Z</time>
      </trkpt>
      <trkpt lat="46.21784" lon="5.74669">
        <ele>655.20001220703</ele>
        <time>2025-08-08T08:15:14.000Z</time>
      </trkpt>
      <trkpt lat="46.21773" lon="5.74687">
        <ele>654.59997558594</ele>
        <time>2025-08-08T08:15:16.000Z</time>
      </trkpt>
      <trkpt lat="46.21747" lon="5.74723">
        <ele>653.59997558594</ele>
        <time>2025-08-08T08:15:19.000Z</time>
      </trkpt>
      <trkpt lat="46.21739" lon="5.74732">
        <ele>653.20001220703</ele>
        <time>2025-08-08T08:15:20.000Z</time>
      </trkpt>
      <trkpt lat="46.21724" lon="5.74749">
        <ele>651.79998779297</ele>
        <time>2025-08-08T08:15:22.000Z</time>
      </trkpt>
      <trkpt lat="46.21715" lon="5.74755">
        <ele>651</ele>
        <time>2025-08-08T08:15:23.000Z</time>
      </trkpt>
      <trkpt lat="46.21705" lon="5.74758">
        <ele>650.79998779297</ele>
        <time>2025-08-08T08:15:24.000Z</time>
      </trkpt>
      <trkpt lat="46.21683" lon="5.74764">
        <ele>649.40002441406</ele>
        <time>2025-08-08T08:15:26.000Z</time>
      </trkpt>
      <trkpt lat="46.21663" lon="5.7477">
        <ele>647.40002441406</ele>
        <time>2025-08-08T08:15:28.000Z</time>
      </trkpt>
      <trkpt lat="46.21642" lon="5.74772">
        <ele>646.40002441406</ele>
        <time>2025-08-08T08:15:30.000Z</time>
      </trkpt>
      <trkpt lat="46.21621" lon="5.74774">
        <ele>645.40002441406</ele>
        <time>2025-08-08T08:15:32.000Z</time>
      </trkpt>
      <trkpt lat="46.21611" lon="5.74776">
        <ele>645.20001220703</ele>
        <time>2025-08-08T08:15:33.000Z</time>
      </trkpt>
      <trkpt lat="46.21593" lon="5.74775">
        <ele>644.20001220703</ele>
        <time>2025-08-08T08:15:35.000Z</time>
      </trkpt>
      <trkpt lat="46.21569" lon="5.7477">
        <ele>643</ele>
        <time>2025-08-08T08:15:37.000Z</time>
      </trkpt>
      <trkpt lat="46.21548" lon="5.7477">
        <ele>641.79998779297</ele>
        <time>2025-08-08T08:15:39.000Z</time>
      </trkpt>
      <trkpt lat="46.21526" lon="5.74773">
        <ele>640</ele>
        <time>2025-08-08T08:15:41.000Z</time>
      </trkpt>
      <trkpt lat="46.21496" lon="5.74784">
        <ele>639</ele>
        <time>2025-08-08T08:15:44.000Z</time>
      </trkpt>
      <trkpt lat="46.21485" lon="5.74788">
        <ele>638.59997558594</ele>
        <time>2025-08-08T08:15:45.000Z</time>
      </trkpt>
      <trkpt lat="46.21475" lon="5.7479">
        <ele>637.59997558594</ele>
        <time>2025-08-08T08:15:46.000Z</time>
      </trkpt>
      <trkpt lat="46.21465" lon="5.74789">
        <ele>637.20001220703</ele>
        <time>2025-08-08T08:15:47.000Z</time>
      </trkpt>
      <trkpt lat="46.21455" lon="5.74788">
        <ele>636.40002441406</ele>
        <time>2025-08-08T08:15:48.000Z</time>
      </trkpt>
      <trkpt lat="46.21446" lon="5.74787">
        <ele>635.59997558594</ele>
        <time>2025-08-08T08:15:49.000Z</time>
      </trkpt>
      <trkpt lat="46.21436" lon="5.74786">
        <ele>635.20001220703</ele>
        <time>2025-08-08T08:15:50.000Z</time>
      </trkpt>
      <trkpt lat="46.21418" lon="5.74783">
        <ele>634</ele>
        <time>2025-08-08T08:15:52.000Z</time>
      </trkpt>
      <trkpt lat="46.21399" lon="5.74777">
        <ele>633.20001220703</ele>
        <time>2025-08-08T08:15:54.000Z</time>
      </trkpt>
      <trkpt lat="46.21391" lon="5.74773">
        <ele>632.40002441406</ele>
        <time>2025-08-08T08:15:55.000Z</time>
      </trkpt>
      <trkpt lat="46.21382" lon="5.74773">
        <ele>631.59997558594</ele>
        <time>2025-08-08T08:15:56.000Z</time>
      </trkpt>
      <trkpt lat="46.21373" lon="5.74775">
        <ele>631</ele>
        <time>2025-08-08T08:15:57.000Z</time>
      </trkpt>
      <trkpt lat="46.21366" lon="5.74779">
        <ele>630.20001220703</ele>
        <time>2025-08-08T08:15:58.000Z</time>
      </trkpt>
      <trkpt lat="46.21357" lon="5.74786">
        <ele>630</ele>
        <time>2025-08-08T08:15:59.000Z</time>
      </trkpt>
      <trkpt lat="46.21351" lon="5.74794">
        <ele>629</ele>
        <time>2025-08-08T08:16:00.000Z</time>
      </trkpt>
      <trkpt lat="46.21344" lon="5.748">
        <ele>628.40002441406</ele>
        <time>2025-08-08T08:16:01.000Z</time>
      </trkpt>
      <trkpt lat="46.21327" lon="5.7481">
        <ele>627.20001220703</ele>
        <time>2025-08-08T08:16:03.000Z</time>
      </trkpt>
      <trkpt lat="46.21308" lon="5.74811">
        <ele>626</ele>
        <time>2025-08-08T08:16:05.000Z</time>
      </trkpt>
      <trkpt lat="46.21291" lon="5.74804">
        <ele>625.40002441406</ele>
        <time>2025-08-08T08:16:07.000Z</time>
      </trkpt>
      <trkpt lat="46.21283" lon="5.74801">
        <ele>624.79998779297</ele>
        <time>2025-08-08T08:16:08.000Z</time>
      </trkpt>
      <trkpt lat="46.21257" lon="5.74796">
        <ele>623.20001220703</ele>
        <time>2025-08-08T08:16:11.000Z</time>
      </trkpt>
      <trkpt lat="46.21249" lon="5.74797">
        <ele>622.59997558594</ele>
        <time>2025-08-08T08:16:12.000Z</time>
      </trkpt>
      <trkpt lat="46.21236" lon="5.7481">
        <ele>621.79998779297</ele>
        <time>2025-08-08T08:16:14.000Z</time>
      </trkpt>
      <trkpt lat="46.2123" lon="5.7482">
        <ele>621.59997558594</ele>
        <time>2025-08-08T08:16:15.000Z</time>
      </trkpt>
      <trkpt lat="46.21226" lon="5.74829">
        <ele>620.79998779297</ele>
        <time>2025-08-08T08:16:16.000Z</time>
      </trkpt>
      <trkpt lat="46.21221" lon="5.74837">
        <ele>620.59997558594</ele>
        <time>2025-08-08T08:16:17.000Z</time>
      </trkpt>
      <trkpt lat="46.21214" lon="5.74842">
        <ele>620.20001220703</ele>
        <time>2025-08-08T08:16:18.000Z</time>
      </trkpt>
      <trkpt lat="46.21207" lon="5.74844">
        <ele>619.40002441406</ele>
        <time>2025-08-08T08:16:19.000Z</time>
      </trkpt>
      <trkpt lat="46.21192" lon="5.74847">
        <ele>618.79998779297</ele>
        <time>2025-08-08T08:16:21.000Z</time>
      </trkpt>
      <trkpt lat="46.21177" lon="5.74854">
        <ele>618.20001220703</ele>
        <time>2025-08-08T08:16:23.000Z</time>
      </trkpt>
      <trkpt lat="46.21169" lon="5.74857">
        <ele>618</ele>
        <time>2025-08-08T08:16:24.000Z</time>
      </trkpt>
      <trkpt lat="46.21144" lon="5.74869">
        <ele>617</ele>
        <time>2025-08-08T08:16:27.000Z</time>
      </trkpt>
      <trkpt lat="46.21118" lon="5.74879">
        <ele>615.79998779297</ele>
        <time>2025-08-08T08:16:30.000Z</time>
      </trkpt>
      <trkpt lat="46.21087" lon="5.74902">
        <ele>614.79998779297</ele>
        <time>2025-08-08T08:16:34.000Z</time>
      </trkpt>
      <trkpt lat="46.2107" lon="5.74916">
        <ele>614</ele>
        <time>2025-08-08T08:16:36.000Z</time>
      </trkpt>
      <trkpt lat="46.21061" lon="5.74923">
        <ele>613.59997558594</ele>
        <time>2025-08-08T08:16:37.000Z</time>
      </trkpt>
      <trkpt lat="46.2104" lon="5.74942">
        <ele>612.40002441406</ele>
        <time>2025-08-08T08:16:40.000Z</time>
      </trkpt>
      <trkpt lat="46.21034" lon="5.7495">
        <ele>612</ele>
        <time>2025-08-08T08:16:41.000Z</time>
      </trkpt>
      <trkpt lat="46.21025" lon="5.74959">
        <ele>611.40002441406</ele>
        <time>2025-08-08T08:16:42.000Z</time>
      </trkpt>
      <trkpt lat="46.20992" lon="5.74991">
        <ele>609.79998779297</ele>
        <time>2025-08-08T08:16:46.000Z</time>
      </trkpt>
      <trkpt lat="46.20967" lon="5.75012">
        <ele>608.40002441406</ele>
        <time>2025-08-08T08:16:49.000Z</time>
      </trkpt>
      <trkpt lat="46.20941" lon="5.75034">
        <ele>607.79998779297</ele>
        <time>2025-08-08T08:16:52.000Z</time>
      </trkpt>
      <trkpt lat="46.20932" lon="5.75041">
        <ele>607.40002441406</ele>
        <time>2025-08-08T08:16:53.000Z</time>
      </trkpt>
      <trkpt lat="46.20907" lon="5.75062">
        <ele>605.79998779297</ele>
        <time>2025-08-08T08:16:56.000Z</time>
      </trkpt>
      <trkpt lat="46.20893" lon="5.75076">
        <ele>604.40002441406</ele>
        <time>2025-08-08T08:16:58.000Z</time>
      </trkpt>
      <trkpt lat="46.20885" lon="5.75083">
        <ele>603.79998779297</ele>
        <time>2025-08-08T08:16:59.000Z</time>
      </trkpt>
      <trkpt lat="46.20877" lon="5.7509">
        <ele>603</ele>
        <time>2025-08-08T08:17:00.000Z</time>
      </trkpt>
      <trkpt lat="46.20859" lon="5.751">
        <ele>602.59997558594</ele>
        <time>2025-08-08T08:17:02.000Z</time>
      </trkpt>
      <trkpt lat="46.20852" lon="5.75102">
        <ele>602.20001220703</ele>
        <time>2025-08-08T08:17:03.000Z</time>
      </trkpt>
      <trkpt lat="46.20841" lon="5.75105">
        <ele>601.79998779297</ele>
        <time>2025-08-08T08:17:04.000Z</time>
      </trkpt>
      <trkpt lat="46.20822" lon="5.75107">
        <ele>600.79998779297</ele>
        <time>2025-08-08T08:17:06.000Z</time>
      </trkpt>
      <trkpt lat="46.20813" lon="5.75106">
        <ele>600</ele>
        <time>2025-08-08T08:17:07.000Z</time>
      </trkpt>
      <trkpt lat="46.20804" lon="5.75106">
        <ele>599.40002441406</ele>
        <time>2025-08-08T08:17:08.000Z</time>
      </trkpt>
      <trkpt lat="46.20784" lon="5.75105">
        <ele>598.59997558594</ele>
        <time>2025-08-08T08:17:10.000Z</time>
      </trkpt>
      <trkpt lat="46.20754" lon="5.75106">
        <ele>597.40002441406</ele>
        <time>2025-08-08T08:17:13.000Z</time>
      </trkpt>
      <trkpt lat="46.20744" lon="5.75106">
        <ele>596.79998779297</ele>
        <time>2025-08-08T08:17:14.000Z</time>
      </trkpt>
      <trkpt lat="46.20726" lon="5.75101">
        <ele>596.59997558594</ele>
        <time>2025-08-08T08:17:16.000Z</time>
      </trkpt>
      <trkpt lat="46.20716" lon="5.75097">
        <ele>596</ele>
        <time>2025-08-08T08:17:17.000Z</time>
      </trkpt>
      <trkpt lat="46.20709" lon="5.75095">
        <ele>595.59997558594</ele>
        <time>2025-08-08T08:17:18.000Z</time>
      </trkpt>
      <trkpt lat="46.20698" lon="5.75089">
        <ele>594.79998779297</ele>
        <time>2025-08-08T08:17:19.000Z</time>
      </trkpt>
      <trkpt lat="46.20679" lon="5.75077">
        <ele>593.59997558594</ele>
        <time>2025-08-08T08:17:21.000Z</time>
      </trkpt>
      <trkpt lat="46.20672" lon="5.75072">
        <ele>593</ele>
        <time>2025-08-08T08:17:22.000Z</time>
      </trkpt>
      <trkpt lat="46.20661" lon="5.75062">
        <ele>592.79998779297</ele>
        <time>2025-08-08T08:17:23.000Z</time>
      </trkpt>
      <trkpt lat="46.20653" lon="5.75052">
        <ele>592.20001220703</ele>
        <time>2025-08-08T08:17:24.000Z</time>
      </trkpt>
      <trkpt lat="46.20636" lon="5.75033">
        <ele>590.20001220703</ele>
        <time>2025-08-08T08:17:26.000Z</time>
      </trkpt>
      <trkpt lat="46.20619" lon="5.75015">
        <ele>589</ele>
        <time>2025-08-08T08:17:28.000Z</time>
      </trkpt>
      <trkpt lat="46.20595" lon="5.74986">
        <ele>587.40002441406</ele>
        <time>2025-08-08T08:17:31.000Z</time>
      </trkpt>
      <trkpt lat="46.2057" lon="5.74959">
        <ele>586</ele>
        <time>2025-08-08T08:17:34.000Z</time>
      </trkpt>
      <trkpt lat="46.20551" lon="5.74942">
        <ele>584.40002441406</ele>
        <time>2025-08-08T08:17:36.000Z</time>
      </trkpt>
      <trkpt lat="46.20523" lon="5.74917">
        <ele>583</ele>
        <time>2025-08-08T08:17:39.000Z</time>
      </trkpt>
      <trkpt lat="46.20505" lon="5.749">
        <ele>582</ele>
        <time>2025-08-08T08:17:41.000Z</time>
      </trkpt>
      <trkpt lat="46.20487" lon="5.74882">
        <ele>580.40002441406</ele>
        <time>2025-08-08T08:17:43.000Z</time>
      </trkpt>
      <trkpt lat="46.20469" lon="5.74867">
        <ele>579.59997558594</ele>
        <time>2025-08-08T08:17:45.000Z</time>
      </trkpt>
      <trkpt lat="46.2046" lon="5.74861">
        <ele>579.20001220703</ele>
        <time>2025-08-08T08:17:46.000Z</time>
      </trkpt>
      <trkpt lat="46.2045" lon="5.74856">
        <ele>578.40002441406</ele>
        <time>2025-08-08T08:17:47.000Z</time>
      </trkpt>
      <trkpt lat="46.2044" lon="5.74852">
        <ele>578.20001220703</ele>
        <time>2025-08-08T08:17:48.000Z</time>
      </trkpt>
      <trkpt lat="46.2042" lon="5.74844">
        <ele>576.79998779297</ele>
        <time>2025-08-08T08:17:50.000Z</time>
      </trkpt>
      <trkpt lat="46.204" lon="5.74837">
        <ele>575.59997558594</ele>
        <time>2025-08-08T08:17:52.000Z</time>
      </trkpt>
      <trkpt lat="46.20389" lon="5.74834">
        <ele>575.20001220703</ele>
        <time>2025-08-08T08:17:53.000Z</time>
      </trkpt>
      <trkpt lat="46.2037" lon="5.74828">
        <ele>573.79998779297</ele>
        <time>2025-08-08T08:17:55.000Z</time>
      </trkpt>
      <trkpt lat="46.20351" lon="5.74822">
        <ele>572.59997558594</ele>
        <time>2025-08-08T08:17:57.000Z</time>
      </trkpt>
      <trkpt lat="46.20333" lon="5.74813">
        <ele>571.59997558594</ele>
        <time>2025-08-08T08:17:59.000Z</time>
      </trkpt>
      <trkpt lat="46.20306" lon="5.74801">
        <ele>570.40002441406</ele>
        <time>2025-08-08T08:18:02.000Z</time>
      </trkpt>
      <trkpt lat="46.20287" lon="5.74798">
        <ele>569.59997558594</ele>
        <time>2025-08-08T08:18:04.000Z</time>
      </trkpt>
      <trkpt lat="46.20271" lon="5.7479">
        <ele>568.40002441406</ele>
        <time>2025-08-08T08:18:06.000Z</time>
      </trkpt>
      <trkpt lat="46.20265" lon="5.74781">
        <ele>568</ele>
        <time>2025-08-08T08:18:07.000Z</time>
      </trkpt>
      <trkpt lat="46.2026" lon="5.7477">
        <ele>567.20001220703</ele>
        <time>2025-08-08T08:18:08.000Z</time>
      </trkpt>
      <trkpt lat="46.2025" lon="5.74746">
        <ele>566.20001220703</ele>
        <time>2025-08-08T08:18:10.000Z</time>
      </trkpt>
      <trkpt lat="46.20244" lon="5.74734">
        <ele>565.59997558594</ele>
        <time>2025-08-08T08:18:11.000Z</time>
      </trkpt>
      <trkpt lat="46.2023" lon="5.74715">
        <ele>564.79998779297</ele>
        <time>2025-08-08T08:18:13.000Z</time>
      </trkpt>
      <trkpt lat="46.20214" lon="5.74699">
        <ele>563.79998779297</ele>
        <time>2025-08-08T08:18:15.000Z</time>
      </trkpt>
      <trkpt lat="46.20206" lon="5.7469">
        <ele>563.20001220703</ele>
        <time>2025-08-08T08:18:16.000Z</time>
      </trkpt>
      <trkpt lat="46.20194" lon="5.74668">
        <ele>562.20001220703</ele>
        <time>2025-08-08T08:18:18.000Z</time>
      </trkpt>
      <trkpt lat="46.20177" lon="5.74632">
        <ele>560.79998779297</ele>
        <time>2025-08-08T08:18:21.000Z</time>
      </trkpt>
      <trkpt lat="46.20163" lon="5.74611">
        <ele>559.20001220703</ele>
        <time>2025-08-08T08:18:23.000Z</time>
      </trkpt>
      <trkpt lat="46.20141" lon="5.74584">
        <ele>558</ele>
        <time>2025-08-08T08:18:26.000Z</time>
      </trkpt>
      <trkpt lat="46.20132" lon="5.74579">
        <ele>557.59997558594</ele>
        <time>2025-08-08T08:18:27.000Z</time>
      </trkpt>
      <trkpt lat="46.20124" lon="5.74576">
        <ele>557.40002441406</ele>
        <time>2025-08-08T08:18:28.000Z</time>
      </trkpt>
      <trkpt lat="46.20114" lon="5.74575">
        <ele>556.79998779297</ele>
        <time>2025-08-08T08:18:29.000Z</time>
      </trkpt>
      <trkpt lat="46.20103" lon="5.74578">
        <ele>555.79998779297</ele>
        <time>2025-08-08T08:18:30.000Z</time>
      </trkpt>
      <trkpt lat="46.20093" lon="5.74581">
        <ele>555.40002441406</ele>
        <time>2025-08-08T08:18:31.000Z</time>
      </trkpt>
      <trkpt lat="46.20083" lon="5.74586">
        <ele>554.20001220703</ele>
        <time>2025-08-08T08:18:32.000Z</time>
      </trkpt>
      <trkpt lat="46.20073" lon="5.74591">
        <ele>554</ele>
        <time>2025-08-08T08:18:33.000Z</time>
      </trkpt>
      <trkpt lat="46.20063" lon="5.74598">
        <ele>553.40002441406</ele>
        <time>2025-08-08T08:18:34.000Z</time>
      </trkpt>
      <trkpt lat="46.20054" lon="5.74603">
        <ele>553</ele>
        <time>2025-08-08T08:18:35.000Z</time>
      </trkpt>
      <trkpt lat="46.20044" lon="5.74602">
        <ele>552.20001220703</ele>
        <time>2025-08-08T08:18:36.000Z</time>
      </trkpt>
      <trkpt lat="46.20036" lon="5.74598">
        <ele>551.20001220703</ele>
        <time>2025-08-08T08:18:37.000Z</time>
      </trkpt>
      <trkpt lat="46.20026" lon="5.74593">
        <ele>550.79998779297</ele>
        <time>2025-08-08T08:18:38.000Z</time>
      </trkpt>
      <trkpt lat="46.20018" lon="5.74596">
        <ele>550.40002441406</ele>
        <time>2025-08-08T08:18:39.000Z</time>
      </trkpt>
      <trkpt lat="46.20002" lon="5.74603">
        <ele>549.79998779297</ele>
        <time>2025-08-08T08:18:41.000Z</time>
      </trkpt>
      <trkpt lat="46.19994" lon="5.74604">
        <ele>549.79998779297</ele>
        <time>2025-08-08T08:18:42.000Z</time>
      </trkpt>
      <trkpt lat="46.19979" lon="5.74605">
        <ele>549.59997558594</ele>
        <time>2025-08-08T08:18:44.000Z</time>
      </trkpt>
      <trkpt lat="46.19962" lon="5.74595">
        <ele>549.59997558594</ele>
        <time>2025-08-08T08:18:47.000Z</time>
      </trkpt>
      <trkpt lat="46.19946" lon="5.74585">
        <ele>550</ele>
        <time>2025-08-08T08:18:51.000Z</time>
      </trkpt>
      <trkpt lat="46.19943" lon="5.74582">
        <ele>550.20001220703</ele>
        <time>2025-08-08T08:18:52.000Z</time>
      </trkpt>
      <trkpt lat="46.19929" lon="5.74575">
        <ele>551</ele>
        <time>2025-08-08T08:18:56.000Z</time>
      </trkpt>
      <trkpt lat="46.19923" lon="5.74574">
        <ele>551.59997558594</ele>
        <time>2025-08-08T08:18:58.000Z</time>
      </trkpt>
      <trkpt lat="46.19909" lon="5.7457">
        <ele>552.20001220703</ele>
        <time>2025-08-08T08:19:02.000Z</time>
      </trkpt>
      <trkpt lat="46.19899" lon="5.74569">
        <ele>552.59997558594</ele>
        <time>2025-08-08T08:19:05.000Z</time>
      </trkpt>
      <trkpt lat="46.19886" lon="5.74569">
        <ele>553.20001220703</ele>
        <time>2025-08-08T08:19:09.000Z</time>
      </trkpt>
      <trkpt lat="46.19883" lon="5.74569">
        <ele>553.20001220703</ele>
        <time>2025-08-08T08:19:10.000Z</time>
      </trkpt>
      <trkpt lat="46.19863" lon="5.74573">
        <ele>554</ele>
        <time>2025-08-08T08:19:17.000Z</time>
      </trkpt>
      <trkpt lat="46.19861" lon="5.74571">
        <ele>554.20001220703</ele>
        <time>2025-08-08T08:19:18.000Z</time>
      </trkpt>
      <trkpt lat="46.19855" lon="5.74566">
        <ele>555</ele>
        <time>2025-08-08T08:19:21.000Z</time>
      </trkpt>
      <trkpt lat="46.19853" lon="5.74564">
        <ele>555</ele>
        <time>2025-08-08T08:19:22.000Z</time>
      </trkpt>
      <trkpt lat="46.19847" lon="5.74556">
        <ele>555.20001220703</ele>
        <time>2025-08-08T08:19:25.000Z</time>
      </trkpt>
      <trkpt lat="46.1984" lon="5.74552">
        <ele>555.79998779297</ele>
        <time>2025-08-08T08:19:28.000Z</time>
      </trkpt>
      <trkpt lat="46.1983" lon="5.74541">
        <ele>556.40002441406</ele>
        <time>2025-08-08T08:19:32.000Z</time>
      </trkpt>
      <trkpt lat="46.19829" lon="5.74539">
        <ele>556.59997558594</ele>
        <time>2025-08-08T08:19:33.000Z</time>
      </trkpt>
      <trkpt lat="46.19815" lon="5.74526">
        <ele>557.20001220703</ele>
        <time>2025-08-08T08:19:39.000Z</time>
      </trkpt>
      <trkpt lat="46.19813" lon="5.74523">
        <ele>557.40002441406</ele>
        <time>2025-08-08T08:19:40.000Z</time>
      </trkpt>
      <trkpt lat="46.19799" lon="5.74509">
        <ele>558.20001220703</ele>
        <time>2025-08-08T08:19:46.000Z</time>
      </trkpt>
      <trkpt lat="46.19792" lon="5.74501">
        <ele>558.59997558594</ele>
        <time>2025-08-08T08:19:49.000Z</time>
      </trkpt>
      <trkpt lat="46.19784" lon="5.74485">
        <ele>559.20001220703</ele>
        <time>2025-08-08T08:19:53.000Z</time>
      </trkpt>
      <trkpt lat="46.19782" lon="5.74478">
        <ele>559.40002441406</ele>
        <time>2025-08-08T08:19:55.000Z</time>
      </trkpt>
      <trkpt lat="46.19778" lon="5.74474">
        <ele>559.59997558594</ele>
        <time>2025-08-08T08:19:57.000Z</time>
      </trkpt>
      <trkpt lat="46.19777" lon="5.74471">
        <ele>559.79998779297</ele>
        <time>2025-08-08T08:19:58.000Z</time>
      </trkpt>
      <trkpt lat="46.19776" lon="5.74468">
        <ele>560</ele>
        <time>2025-08-08T08:19:59.000Z</time>
      </trkpt>
      <trkpt lat="46.19768" lon="5.74455">
        <ele>560.59997558594</ele>
        <time>2025-08-08T08:20:05.000Z</time>
      </trkpt>
      <trkpt lat="46.19766" lon="5.74453">
        <ele>560.59997558594</ele>
        <time>2025-08-08T08:20:06.000Z</time>
      </trkpt>
      <trkpt lat="46.19759" lon="5.7444">
        <ele>561.79998779297</ele>
        <time>2025-08-08T08:20:11.000Z</time>
      </trkpt>
      <trkpt lat="46.19757" lon="5.74437">
        <ele>562</ele>
        <time>2025-08-08T08:20:12.000Z</time>
      </trkpt>
      <trkpt lat="46.19754" lon="5.74431">
        <ele>562.20001220703</ele>
        <time>2025-08-08T08:20:14.000Z</time>
      </trkpt>
      <trkpt lat="46.19748" lon="5.74426">
        <ele>562.59997558594</ele>
        <time>2025-08-08T08:20:16.000Z</time>
      </trkpt>
      <trkpt lat="46.19737" lon="5.74422">
        <ele>563.20001220703</ele>
        <time>2025-08-08T08:20:19.000Z</time>
      </trkpt>
      <trkpt lat="46.19724" lon="5.74417">
        <ele>563.59997558594</ele>
        <time>2025-08-08T08:20:23.000Z</time>
      </trkpt>
      <trkpt lat="46.19712" lon="5.74413">
        <ele>564.20001220703</ele>
        <time>2025-08-08T08:20:27.000Z</time>
      </trkpt>
      <trkpt lat="46.19698" lon="5.74408">
        <ele>565</ele>
        <time>2025-08-08T08:20:32.000Z</time>
      </trkpt>
      <trkpt lat="46.19694" lon="5.74403">
        <ele>565.20001220703</ele>
        <time>2025-08-08T08:20:34.000Z</time>
      </trkpt>
      <trkpt lat="46.19687" lon="5.74393">
        <ele>566</ele>
        <time>2025-08-08T08:20:38.000Z</time>
      </trkpt>
      <trkpt lat="46.19679" lon="5.74389">
        <ele>566.59997558594</ele>
        <time>2025-08-08T08:20:42.000Z</time>
      </trkpt>
      <trkpt lat="46.19675" lon="5.74388">
        <ele>566.79998779297</ele>
        <time>2025-08-08T08:20:44.000Z</time>
      </trkpt>
      <trkpt lat="46.19671" lon="5.74385">
        <ele>567.20001220703</ele>
        <time>2025-08-08T08:20:46.000Z</time>
      </trkpt>
      <trkpt lat="46.19667" lon="5.74383">
        <ele>567.59997558594</ele>
        <time>2025-08-08T08:20:48.000Z</time>
      </trkpt>
      <trkpt lat="46.19665" lon="5.74383">
        <ele>567.59997558594</ele>
        <time>2025-08-08T08:20:49.000Z</time>
      </trkpt>
      <trkpt lat="46.19652" lon="5.74378">
        <ele>568.40002441406</ele>
        <time>2025-08-08T08:20:54.000Z</time>
      </trkpt>
      <trkpt lat="46.19649" lon="5.74377">
        <ele>568.59997558594</ele>
        <time>2025-08-08T08:20:55.000Z</time>
      </trkpt>
      <trkpt lat="46.1963" lon="5.74376">
        <ele>569.79998779297</ele>
        <time>2025-08-08T08:21:02.000Z</time>
      </trkpt>
      <trkpt lat="46.19614" lon="5.74376">
        <ele>570.59997558594</ele>
        <time>2025-08-08T08:21:07.000Z</time>
      </trkpt>
      <trkpt lat="46.19603" lon="5.74374">
        <ele>571.20001220703</ele>
        <time>2025-08-08T08:21:11.000Z</time>
      </trkpt>
      <trkpt lat="46.19598" lon="5.74375">
        <ele>571.40002441406</ele>
        <time>2025-08-08T08:21:13.000Z</time>
      </trkpt>
      <trkpt lat="46.19585" lon="5.74379">
        <ele>572.20001220703</ele>
        <time>2025-08-08T08:21:18.000Z</time>
      </trkpt>
      <trkpt lat="46.19583" lon="5.74379">
        <ele>572.59997558594</ele>
        <time>2025-08-08T08:21:19.000Z</time>
      </trkpt>
      <trkpt lat="46.19573" lon="5.74379">
        <ele>573.59997558594</ele>
        <time>2025-08-08T08:21:23.000Z</time>
      </trkpt>
      <trkpt lat="46.19565" lon="5.74379">
        <ele>574</ele>
        <time>2025-08-08T08:21:26.000Z</time>
      </trkpt>
      <trkpt lat="46.1955" lon="5.74377">
        <ele>574.79998779297</ele>
        <time>2025-08-08T08:21:32.000Z</time>
      </trkpt>
      <trkpt lat="46.19535" lon="5.74371">
        <ele>575.59997558594</ele>
        <time>2025-08-08T08:21:38.000Z</time>
      </trkpt>
      <trkpt lat="46.1953" lon="5.74367">
        <ele>575.79998779297</ele>
        <time>2025-08-08T08:21:40.000Z</time>
      </trkpt>
      <trkpt lat="46.19512" lon="5.7436">
        <ele>576.79998779297</ele>
        <time>2025-08-08T08:21:46.000Z</time>
      </trkpt>
      <trkpt lat="46.1951" lon="5.7436">
        <ele>577</ele>
        <time>2025-08-08T08:21:47.000Z</time>
      </trkpt>
      <trkpt lat="46.19499" lon="5.74352">
        <ele>578</ele>
        <time>2025-08-08T08:21:52.000Z</time>
      </trkpt>
      <trkpt lat="46.19497" lon="5.7435">
        <ele>578.20001220703</ele>
        <time>2025-08-08T08:21:53.000Z</time>
      </trkpt>
      <trkpt lat="46.19479" lon="5.74347">
        <ele>579</ele>
        <time>2025-08-08T08:22:00.000Z</time>
      </trkpt>
      <trkpt lat="46.19476" lon="5.74347">
        <ele>579.20001220703</ele>
        <time>2025-08-08T08:22:01.000Z</time>
      </trkpt>
      <trkpt lat="46.19454" lon="5.74348">
        <ele>580.20001220703</ele>
        <time>2025-08-08T08:22:08.000Z</time>
      </trkpt>
      <trkpt lat="46.19451" lon="5.74347">
        <ele>580.40002441406</ele>
        <time>2025-08-08T08:22:09.000Z</time>
      </trkpt>
      <trkpt lat="46.19441" lon="5.74336">
        <ele>580.79998779297</ele>
        <time>2025-08-08T08:22:13.000Z</time>
      </trkpt>
      <trkpt lat="46.19429" lon="5.74317">
        <ele>581.40002441406</ele>
        <time>2025-08-08T08:22:19.000Z</time>
      </trkpt>
      <trkpt lat="46.19425" lon="5.7431">
        <ele>581.79998779297</ele>
        <time>2025-08-08T08:22:21.000Z</time>
      </trkpt>
      <trkpt lat="46.19408" lon="5.74291">
        <ele>582.40002441406</ele>
        <time>2025-08-08T08:22:28.000Z</time>
      </trkpt>
      <trkpt lat="46.19393" lon="5.74276">
        <ele>583.59997558594</ele>
        <time>2025-08-08T08:22:34.000Z</time>
      </trkpt>
      <trkpt lat="46.19388" lon="5.74272">
        <ele>583.79998779297</ele>
        <time>2025-08-08T08:22:36.000Z</time>
      </trkpt>
      <trkpt lat="46.19355" lon="5.74244">
        <ele>584.20001220703</ele>
        <time>2025-08-08T08:22:47.000Z</time>
      </trkpt>
      <trkpt lat="46.19319" lon="5.74216">
        <ele>584.79998779297</ele>
        <time>2025-08-08T08:22:59.000Z</time>
      </trkpt>
      <trkpt lat="46.19297" lon="5.74203">
        <ele>585.20001220703</ele>
        <time>2025-08-08T08:23:06.000Z</time>
      </trkpt>
      <trkpt lat="46.19284" lon="5.74197">
        <ele>585</ele>
        <time>2025-08-08T08:23:09.000Z</time>
      </trkpt>
      <trkpt lat="46.1927" lon="5.74192">
        <ele>585</ele>
        <time>2025-08-08T08:23:12.000Z</time>
      </trkpt>
      <trkpt lat="46.19237" lon="5.74182">
        <ele>584.40002441406</ele>
        <time>2025-08-08T08:23:18.000Z</time>
      </trkpt>
      <trkpt lat="46.19225" lon="5.7418">
        <ele>584.40002441406</ele>
        <time>2025-08-08T08:23:20.000Z</time>
      </trkpt>
      <trkpt lat="46.19195" lon="5.74176">
        <ele>583.79998779297</ele>
        <time>2025-08-08T08:23:25.000Z</time>
      </trkpt>
      <trkpt lat="46.19188" lon="5.74177">
        <ele>583.79998779297</ele>
        <time>2025-08-08T08:23:26.000Z</time>
      </trkpt>
      <trkpt lat="46.19174" lon="5.74184">
        <ele>583.40002441406</ele>
        <time>2025-08-08T08:23:28.000Z</time>
      </trkpt>
      <trkpt lat="46.19154" lon="5.74199">
        <ele>582.79998779297</ele>
        <time>2025-08-08T08:23:31.000Z</time>
      </trkpt>
      <trkpt lat="46.19131" lon="5.74214">
        <ele>582</ele>
        <time>2025-08-08T08:23:34.000Z</time>
      </trkpt>
      <trkpt lat="46.19123" lon="5.74218">
        <ele>581.40002441406</ele>
        <time>2025-08-08T08:23:35.000Z</time>
      </trkpt>
      <trkpt lat="46.19106" lon="5.7422">
        <ele>580.79998779297</ele>
        <time>2025-08-08T08:23:37.000Z</time>
      </trkpt>
      <trkpt lat="46.19089" lon="5.74215">
        <ele>580.20001220703</ele>
        <time>2025-08-08T08:23:39.000Z</time>
      </trkpt>
      <trkpt lat="46.19072" lon="5.74207">
        <ele>579.79998779297</ele>
        <time>2025-08-08T08:23:41.000Z</time>
      </trkpt>
      <trkpt lat="46.19056" lon="5.74198">
        <ele>579</ele>
        <time>2025-08-08T08:23:43.000Z</time>
      </trkpt>
      <trkpt lat="46.19048" lon="5.74191">
        <ele>578.59997558594</ele>
        <time>2025-08-08T08:23:44.000Z</time>
      </trkpt>
      <trkpt lat="46.19041" lon="5.74182">
        <ele>578.59997558594</ele>
        <time>2025-08-08T08:23:45.000Z</time>
      </trkpt>
      <trkpt lat="46.19027" lon="5.7416">
        <ele>577.79998779297</ele>
        <time>2025-08-08T08:23:47.000Z</time>
      </trkpt>
      <trkpt lat="46.19011" lon="5.74146">
        <ele>576.59997558594</ele>
        <time>2025-08-08T08:23:49.000Z</time>
      </trkpt>
      <trkpt lat="46.19002" lon="5.74141">
        <ele>576</ele>
        <time>2025-08-08T08:23:50.000Z</time>
      </trkpt>
      <trkpt lat="46.18992" lon="5.74137">
        <ele>575.20001220703</ele>
        <time>2025-08-08T08:23:51.000Z</time>
      </trkpt>
      <trkpt lat="46.18982" lon="5.74131">
        <ele>575</ele>
        <time>2025-08-08T08:23:52.000Z</time>
      </trkpt>
      <trkpt lat="46.18965" lon="5.74114">
        <ele>574</ele>
        <time>2025-08-08T08:23:54.000Z</time>
      </trkpt>
      <trkpt lat="46.18956" lon="5.74105">
        <ele>573</ele>
        <time>2025-08-08T08:23:55.000Z</time>
      </trkpt>
      <trkpt lat="46.18947" lon="5.74096">
        <ele>572.40002441406</ele>
        <time>2025-08-08T08:23:56.000Z</time>
      </trkpt>
      <trkpt lat="46.18937" lon="5.7409">
        <ele>572</ele>
        <time>2025-08-08T08:23:57.000Z</time>
      </trkpt>
      <trkpt lat="46.18917" lon="5.74078">
        <ele>570.59997558594</ele>
        <time>2025-08-08T08:23:59.000Z</time>
      </trkpt>
      <trkpt lat="46.18908" lon="5.74072">
        <ele>569.40002441406</ele>
        <time>2025-08-08T08:24:00.000Z</time>
      </trkpt>
      <trkpt lat="46.1889" lon="5.74056">
        <ele>568.20001220703</ele>
        <time>2025-08-08T08:24:02.000Z</time>
      </trkpt>
      <trkpt lat="46.18883" lon="5.74046">
        <ele>567.40002441406</ele>
        <time>2025-08-08T08:24:03.000Z</time>
      </trkpt>
      <trkpt lat="46.18876" lon="5.74034">
        <ele>566.79998779297</ele>
        <time>2025-08-08T08:24:04.000Z</time>
      </trkpt>
      <trkpt lat="46.18869" lon="5.74024">
        <ele>565.40002441406</ele>
        <time>2025-08-08T08:24:05.000Z</time>
      </trkpt>
      <trkpt lat="46.18854" lon="5.74013">
        <ele>564</ele>
        <time>2025-08-08T08:24:07.000Z</time>
      </trkpt>
      <trkpt lat="46.18836" lon="5.74013">
        <ele>563.40002441406</ele>
        <time>2025-08-08T08:24:09.000Z</time>
      </trkpt>
      <trkpt lat="46.18826" lon="5.74016">
        <ele>562.40002441406</ele>
        <time>2025-08-08T08:24:10.000Z</time>
      </trkpt>
      <trkpt lat="46.18808" lon="5.74028">
        <ele>561.20001220703</ele>
        <time>2025-08-08T08:24:12.000Z</time>
      </trkpt>
      <trkpt lat="46.1879" lon="5.74045">
        <ele>559.59997558594</ele>
        <time>2025-08-08T08:24:14.000Z</time>
      </trkpt>
      <trkpt lat="46.18781" lon="5.74052">
        <ele>559</ele>
        <time>2025-08-08T08:24:15.000Z</time>
      </trkpt>
      <trkpt lat="46.18771" lon="5.74058">
        <ele>558.59997558594</ele>
        <time>2025-08-08T08:24:16.000Z</time>
      </trkpt>
      <trkpt lat="46.1876" lon="5.74061">
        <ele>557.59997558594</ele>
        <time>2025-08-08T08:24:17.000Z</time>
      </trkpt>
      <trkpt lat="46.1875" lon="5.7406">
        <ele>557</ele>
        <time>2025-08-08T08:24:18.000Z</time>
      </trkpt>
      <trkpt lat="46.1874" lon="5.74057">
        <ele>555.79998779297</ele>
        <time>2025-08-08T08:24:19.000Z</time>
      </trkpt>
      <trkpt lat="46.18722" lon="5.74047">
        <ele>554.40002441406</ele>
        <time>2025-08-08T08:24:21.000Z</time>
      </trkpt>
      <trkpt lat="46.18712" lon="5.74043">
        <ele>553.20001220703</ele>
        <time>2025-08-08T08:24:22.000Z</time>
      </trkpt>
      <trkpt lat="46.18691" lon="5.74039">
        <ele>552.20001220703</ele>
        <time>2025-08-08T08:24:24.000Z</time>
      </trkpt>
      <trkpt lat="46.1868" lon="5.74039">
        <ele>552</ele>
        <time>2025-08-08T08:24:25.000Z</time>
      </trkpt>
      <trkpt lat="46.18669" lon="5.74037">
        <ele>551.20001220703</ele>
        <time>2025-08-08T08:24:26.000Z</time>
      </trkpt>
      <trkpt lat="46.18658" lon="5.74034">
        <ele>551</ele>
        <time>2025-08-08T08:24:27.000Z</time>
      </trkpt>
      <trkpt lat="46.18635" lon="5.74027">
        <ele>549.79998779297</ele>
        <time>2025-08-08T08:24:29.000Z</time>
      </trkpt>
      <trkpt lat="46.18614" lon="5.74017">
        <ele>548</ele>
        <time>2025-08-08T08:24:31.000Z</time>
      </trkpt>
      <trkpt lat="46.18605" lon="5.7401">
        <ele>547.59997558594</ele>
        <time>2025-08-08T08:24:32.000Z</time>
      </trkpt>
      <trkpt lat="46.18596" lon="5.74002">
        <ele>547</ele>
        <time>2025-08-08T08:24:33.000Z</time>
      </trkpt>
      <trkpt lat="46.18587" lon="5.73993">
        <ele>546.40002441406</ele>
        <time>2025-08-08T08:24:34.000Z</time>
      </trkpt>
      <trkpt lat="46.18572" lon="5.7397">
        <ele>544.79998779297</ele>
        <time>2025-08-08T08:24:36.000Z</time>
      </trkpt>
      <trkpt lat="46.18565" lon="5.73958">
        <ele>544.40002441406</ele>
        <time>2025-08-08T08:24:37.000Z</time>
      </trkpt>
      <trkpt lat="46.18557" lon="5.73945">
        <ele>543.79998779297</ele>
        <time>2025-08-08T08:24:38.000Z</time>
      </trkpt>
      <trkpt lat="46.18545" lon="5.73922">
        <ele>542</ele>
        <time>2025-08-08T08:24:40.000Z</time>
      </trkpt>
      <trkpt lat="46.18539" lon="5.73912">
        <ele>541.40002441406</ele>
        <time>2025-08-08T08:24:41.000Z</time>
      </trkpt>
      <trkpt lat="46.18532" lon="5.73904">
        <ele>540.79998779297</ele>
        <time>2025-08-08T08:24:42.000Z</time>
      </trkpt>
      <trkpt lat="46.18523" lon="5.73899">
        <ele>539.59997558594</ele>
        <time>2025-08-08T08:24:43.000Z</time>
      </trkpt>
      <trkpt lat="46.18514" lon="5.73897">
        <ele>539.20001220703</ele>
        <time>2025-08-08T08:24:44.000Z</time>
      </trkpt>
      <trkpt lat="46.18503" lon="5.73897">
        <ele>538.20001220703</ele>
        <time>2025-08-08T08:24:45.000Z</time>
      </trkpt>
      <trkpt lat="46.18484" lon="5.739">
        <ele>537</ele>
        <time>2025-08-08T08:24:47.000Z</time>
      </trkpt>
      <trkpt lat="46.18463" lon="5.73905">
        <ele>535.59997558594</ele>
        <time>2025-08-08T08:24:49.000Z</time>
      </trkpt>
      <trkpt lat="46.18442" lon="5.73913">
        <ele>534.20001220703</ele>
        <time>2025-08-08T08:24:51.000Z</time>
      </trkpt>
      <trkpt lat="46.18423" lon="5.7392">
        <ele>533.40002441406</ele>
        <time>2025-08-08T08:24:53.000Z</time>
      </trkpt>
      <trkpt lat="46.18413" lon="5.73923">
        <ele>532.20001220703</ele>
        <time>2025-08-08T08:24:54.000Z</time>
      </trkpt>
      <trkpt lat="46.18396" lon="5.73925">
        <ele>531.20001220703</ele>
        <time>2025-08-08T08:24:56.000Z</time>
      </trkpt>
      <trkpt lat="46.18377" lon="5.73928">
        <ele>530</ele>
        <time>2025-08-08T08:24:58.000Z</time>
      </trkpt>
      <trkpt lat="46.18358" lon="5.73931">
        <ele>528.79998779297</ele>
        <time>2025-08-08T08:25:00.000Z</time>
      </trkpt>
      <trkpt lat="46.18349" lon="5.73931">
        <ele>528.20001220703</ele>
        <time>2025-08-08T08:25:01.000Z</time>
      </trkpt>
      <trkpt lat="46.1834" lon="5.73929">
        <ele>527.59997558594</ele>
        <time>2025-08-08T08:25:02.000Z</time>
      </trkpt>
      <trkpt lat="46.18331" lon="5.73927">
        <ele>526.40002441406</ele>
        <time>2025-08-08T08:25:03.000Z</time>
      </trkpt>
      <trkpt lat="46.18313" lon="5.73924">
        <ele>525.20001220703</ele>
        <time>2025-08-08T08:25:05.000Z</time>
      </trkpt>
      <trkpt lat="46.18296" lon="5.7392">
        <ele>524.20001220703</ele>
        <time>2025-08-08T08:25:07.000Z</time>
      </trkpt>
      <trkpt lat="46.18288" lon="5.73917">
        <ele>523.40002441406</ele>
        <time>2025-08-08T08:25:08.000Z</time>
      </trkpt>
      <trkpt lat="46.18281" lon="5.73913">
        <ele>523</ele>
        <time>2025-08-08T08:25:09.000Z</time>
      </trkpt>
      <trkpt lat="46.18267" lon="5.73903">
        <ele>521.59997558594</ele>
        <time>2025-08-08T08:25:11.000Z</time>
      </trkpt>
      <trkpt lat="46.18255" lon="5.73893">
        <ele>520.40002441406</ele>
        <time>2025-08-08T08:25:13.000Z</time>
      </trkpt>
      <trkpt lat="46.18249" lon="5.73888">
        <ele>520</ele>
        <time>2025-08-08T08:25:14.000Z</time>
      </trkpt>
      <trkpt lat="46.18245" lon="5.73881">
        <ele>519</ele>
        <time>2025-08-08T08:25:15.000Z</time>
      </trkpt>
      <trkpt lat="46.18243" lon="5.73876">
        <ele>518.59997558594</ele>
        <time>2025-08-08T08:25:16.000Z</time>
      </trkpt>
      <trkpt lat="46.18239" lon="5.73864">
        <ele>517.79998779297</ele>
        <time>2025-08-08T08:25:18.000Z</time>
      </trkpt>
      <trkpt lat="46.18235" lon="5.73849">
        <ele>517</ele>
        <time>2025-08-08T08:25:20.000Z</time>
      </trkpt>
      <trkpt lat="46.18232" lon="5.73836">
        <ele>516.40002441406</ele>
        <time>2025-08-08T08:25:22.000Z</time>
      </trkpt>
      <trkpt lat="46.1823" lon="5.73828">
        <ele>516</ele>
        <time>2025-08-08T08:25:23.000Z</time>
      </trkpt>
      <trkpt lat="46.18228" lon="5.73823">
        <ele>516</ele>
        <time>2025-08-08T08:25:24.000Z</time>
      </trkpt>
      <trkpt lat="46.1822" lon="5.73815">
        <ele>515.59997558594</ele>
        <time>2025-08-08T08:25:26.000Z</time>
      </trkpt>
      <trkpt lat="46.1821" lon="5.73812">
        <ele>515.40002441406</ele>
        <time>2025-08-08T08:25:28.000Z</time>
      </trkpt>
      <trkpt lat="46.18202" lon="5.73811">
        <ele>515.20001220703</ele>
        <time>2025-08-08T08:25:30.000Z</time>
      </trkpt>
      <trkpt lat="46.18189" lon="5.73808">
        <ele>515.40002441406</ele>
        <time>2025-08-08T08:25:34.000Z</time>
      </trkpt>
      <trkpt lat="46.18186" lon="5.73806">
        <ele>515.40002441406</ele>
        <time>2025-08-08T08:25:35.000Z</time>
      </trkpt>
      <trkpt lat="46.18181" lon="5.73802">
        <ele>516.20001220703</ele>
        <time>2025-08-08T08:25:37.000Z</time>
      </trkpt>
      <trkpt lat="46.18174" lon="5.73801">
        <ele>516.79998779297</ele>
        <time>2025-08-08T08:25:39.000Z</time>
      </trkpt>
      <trkpt lat="46.18159" lon="5.73801">
        <ele>517.40002441406</ele>
        <time>2025-08-08T08:25:43.000Z</time>
      </trkpt>
      <trkpt lat="46.1815" lon="5.73803">
        <ele>517.79998779297</ele>
        <time>2025-08-08T08:25:46.000Z</time>
      </trkpt>
      <trkpt lat="46.18134" lon="5.73807">
        <ele>518.20001220703</ele>
        <time>2025-08-08T08:25:50.000Z</time>
      </trkpt>
      <trkpt lat="46.18123" lon="5.73813">
        <ele>518.40002441406</ele>
        <time>2025-08-08T08:25:53.000Z</time>
      </trkpt>
      <trkpt lat="46.18119" lon="5.73814">
        <ele>518.59997558594</ele>
        <time>2025-08-08T08:25:54.000Z</time>
      </trkpt>
      <trkpt lat="46.18116" lon="5.73812">
        <ele>518.79998779297</ele>
        <time>2025-08-08T08:25:55.000Z</time>
      </trkpt>
      <trkpt lat="46.18103" lon="5.73812">
        <ele>519.40002441406</ele>
        <time>2025-08-08T08:25:59.000Z</time>
      </trkpt>
      <trkpt lat="46.18088" lon="5.73815">
        <ele>519.79998779297</ele>
        <time>2025-08-08T08:26:04.000Z</time>
      </trkpt>
      <trkpt lat="46.18079" lon="5.73819">
        <ele>520.20001220703</ele>
        <time>2025-08-08T08:26:07.000Z</time>
      </trkpt>
      <trkpt lat="46.18064" lon="5.73824">
        <ele>520.79998779297</ele>
        <time>2025-08-08T08:26:12.000Z</time>
      </trkpt>
      <trkpt lat="46.18058" lon="5.73825">
        <ele>521.20001220703</ele>
        <time>2025-08-08T08:26:14.000Z</time>
      </trkpt>
      <trkpt lat="46.18046" lon="5.73828">
        <ele>522</ele>
        <time>2025-08-08T08:26:18.000Z</time>
      </trkpt>
      <trkpt lat="46.1803" lon="5.73826">
        <ele>522.79998779297</ele>
        <time>2025-08-08T08:26:23.000Z</time>
      </trkpt>
      <trkpt lat="46.18024" lon="5.73826">
        <ele>523</ele>
        <time>2025-08-08T08:26:25.000Z</time>
      </trkpt>
      <trkpt lat="46.1801" lon="5.73824">
        <ele>523.40002441406</ele>
        <time>2025-08-08T08:26:30.000Z</time>
      </trkpt>
      <trkpt lat="46.17989" lon="5.73821">
        <ele>523.59997558594</ele>
        <time>2025-08-08T08:26:37.000Z</time>
      </trkpt>
      <trkpt lat="46.1798" lon="5.7382">
        <ele>524</ele>
        <time>2025-08-08T08:26:40.000Z</time>
      </trkpt>
      <trkpt lat="46.1796" lon="5.73817">
        <ele>524.79998779297</ele>
        <time>2025-08-08T08:26:47.000Z</time>
      </trkpt>
      <trkpt lat="46.17946" lon="5.73814">
        <ele>525.20001220703</ele>
        <time>2025-08-08T08:26:52.000Z</time>
      </trkpt>
      <trkpt lat="46.17943" lon="5.73813">
        <ele>525.40002441406</ele>
        <time>2025-08-08T08:26:53.000Z</time>
      </trkpt>
      <trkpt lat="46.17929" lon="5.73817">
        <ele>525.79998779297</ele>
        <time>2025-08-08T08:26:57.000Z</time>
      </trkpt>
      <trkpt lat="46.17901" lon="5.73829">
        <ele>525.79998779297</ele>
        <time>2025-08-08T08:27:04.000Z</time>
      </trkpt>
      <trkpt lat="46.17867" lon="5.73849">
        <ele>525.79998779297</ele>
        <time>2025-08-08T08:27:12.000Z</time>
      </trkpt>
      <trkpt lat="46.1784" lon="5.73856">
        <ele>525.59997558594</ele>
        <time>2025-08-08T08:27:18.000Z</time>
      </trkpt>
      <trkpt lat="46.17835" lon="5.73855">
        <ele>525.59997558594</ele>
        <time>2025-08-08T08:27:19.000Z</time>
      </trkpt>
      <trkpt lat="46.17808" lon="5.73844">
        <ele>525.79998779297</ele>
        <time>2025-08-08T08:27:26.000Z</time>
      </trkpt>
      <trkpt lat="46.17805" lon="5.73842">
        <ele>525.79998779297</ele>
        <time>2025-08-08T08:27:27.000Z</time>
      </trkpt>
      <trkpt lat="46.17799" lon="5.73839">
        <ele>525.79998779297</ele>
        <time>2025-08-08T08:27:29.000Z</time>
      </trkpt>
      <trkpt lat="46.17795" lon="5.73841">
        <ele>525.79998779297</ele>
        <time>2025-08-08T08:27:31.000Z</time>
      </trkpt>
      <trkpt lat="46.17793" lon="5.73845">
        <ele>525.79998779297</ele>
        <time>2025-08-08T08:27:32.000Z</time>
      </trkpt>
      <trkpt lat="46.17786" lon="5.73858">
        <ele>525.59997558594</ele>
        <time>2025-08-08T08:27:35.000Z</time>
      </trkpt>
      <trkpt lat="46.17779" lon="5.73869">
        <ele>525.59997558594</ele>
        <time>2025-08-08T08:27:37.000Z</time>
      </trkpt>
      <trkpt lat="46.17766" lon="5.73887">
        <ele>525.20001220703</ele>
        <time>2025-08-08T08:27:40.000Z</time>
      </trkpt>
      <trkpt lat="46.17757" lon="5.739">
        <ele>524.40002441406</ele>
        <time>2025-08-08T08:27:42.000Z</time>
      </trkpt>
      <trkpt lat="46.17744" lon="5.73917">
        <ele>523.40002441406</ele>
        <time>2025-08-08T08:27:45.000Z</time>
      </trkpt>
      <trkpt lat="46.17739" lon="5.73923">
        <ele>523.20001220703</ele>
        <time>2025-08-08T08:27:46.000Z</time>
      </trkpt>
      <trkpt lat="46.17727" lon="5.7395">
        <ele>521.59997558594</ele>
        <time>2025-08-08T08:27:49.000Z</time>
      </trkpt>
      <trkpt lat="46.17719" lon="5.7397">
        <ele>520.59997558594</ele>
        <time>2025-08-08T08:27:51.000Z</time>
      </trkpt>
      <trkpt lat="46.17715" lon="5.73983">
        <ele>519.59997558594</ele>
        <time>2025-08-08T08:27:52.000Z</time>
      </trkpt>
      <trkpt lat="46.17712" lon="5.73995">
        <ele>519.20001220703</ele>
        <time>2025-08-08T08:27:53.000Z</time>
      </trkpt>
      <trkpt lat="46.17708" lon="5.74014">
        <ele>518</ele>
        <time>2025-08-08T08:27:55.000Z</time>
      </trkpt>
      <trkpt lat="46.17703" lon="5.74035">
        <ele>516.59997558594</ele>
        <time>2025-08-08T08:27:57.000Z</time>
      </trkpt>
      <trkpt lat="46.17698" lon="5.74052">
        <ele>515.40002441406</ele>
        <time>2025-08-08T08:27:59.000Z</time>
      </trkpt>
      <trkpt lat="46.17695" lon="5.74064">
        <ele>514.40002441406</ele>
        <time>2025-08-08T08:28:01.000Z</time>
      </trkpt>
      <trkpt lat="46.17693" lon="5.7407">
        <ele>513.40002441406</ele>
        <time>2025-08-08T08:28:02.000Z</time>
      </trkpt>
      <trkpt lat="46.17691" lon="5.74073">
        <ele>513</ele>
        <time>2025-08-08T08:28:03.000Z</time>
      </trkpt>
      <trkpt lat="46.17683" lon="5.74083">
        <ele>511.60000610352</ele>
        <time>2025-08-08T08:28:06.000Z</time>
      </trkpt>
      <trkpt lat="46.17681" lon="5.74088">
        <ele>511.39999389648</ele>
        <time>2025-08-08T08:28:07.000Z</time>
      </trkpt>
      <trkpt lat="46.17679" lon="5.74094">
        <ele>511</ele>
        <time>2025-08-08T08:28:08.000Z</time>
      </trkpt>
      <trkpt lat="46.17679" lon="5.74102">
        <ele>510.39999389648</ele>
        <time>2025-08-08T08:28:09.000Z</time>
      </trkpt>
      <trkpt lat="46.1768" lon="5.74119">
        <ele>510</ele>
        <time>2025-08-08T08:28:11.000Z</time>
      </trkpt>
      <trkpt lat="46.1768" lon="5.74128">
        <ele>509.79998779297</ele>
        <time>2025-08-08T08:28:12.000Z</time>
      </trkpt>
      <trkpt lat="46.17676" lon="5.74156">
        <ele>509.39999389648</ele>
        <time>2025-08-08T08:28:15.000Z</time>
      </trkpt>
      <trkpt lat="46.17672" lon="5.74174">
        <ele>509</ele>
        <time>2025-08-08T08:28:17.000Z</time>
      </trkpt>
      <trkpt lat="46.17669" lon="5.74183">
        <ele>509</ele>
        <time>2025-08-08T08:28:18.000Z</time>
      </trkpt>
      <trkpt lat="46.17661" lon="5.742">
        <ele>508.79998779297</ele>
        <time>2025-08-08T08:28:20.000Z</time>
      </trkpt>
      <trkpt lat="46.17657" lon="5.74209">
        <ele>508.60000610352</ele>
        <time>2025-08-08T08:28:21.000Z</time>
      </trkpt>
      <trkpt lat="46.17653" lon="5.74217">
        <ele>508</ele>
        <time>2025-08-08T08:28:22.000Z</time>
      </trkpt>
      <trkpt lat="46.17627" lon="5.74264">
        <ele>507</ele>
        <time>2025-08-08T08:28:28.000Z</time>
      </trkpt>
      <trkpt lat="46.17622" lon="5.74272">
        <ele>506.79998779297</ele>
        <time>2025-08-08T08:28:29.000Z</time>
      </trkpt>
      <trkpt lat="46.17598" lon="5.74313">
        <ele>506.39999389648</ele>
        <time>2025-08-08T08:28:34.000Z</time>
      </trkpt>
      <trkpt lat="46.17586" lon="5.74329">
        <ele>506.20001220703</ele>
        <time>2025-08-08T08:28:36.000Z</time>
      </trkpt>
      <trkpt lat="46.1757" lon="5.74353">
        <ele>505.79998779297</ele>
        <time>2025-08-08T08:28:39.000Z</time>
      </trkpt>
      <trkpt lat="46.17539" lon="5.74404">
        <ele>505</ele>
        <time>2025-08-08T08:28:45.000Z</time>
      </trkpt>
      <trkpt lat="46.17526" lon="5.74434">
        <ele>504.60000610352</ele>
        <time>2025-08-08T08:28:48.000Z</time>
      </trkpt>
      <trkpt lat="46.1751" lon="5.74476">
        <ele>504</ele>
        <time>2025-08-08T08:28:52.000Z</time>
      </trkpt>
      <trkpt lat="46.175" lon="5.74509">
        <ele>503.60000610352</ele>
        <time>2025-08-08T08:28:55.000Z</time>
      </trkpt>
      <trkpt lat="46.17491" lon="5.7453">
        <ele>503</ele>
        <time>2025-08-08T08:28:57.000Z</time>
      </trkpt>
      <trkpt lat="46.17484" lon="5.74541">
        <ele>503</ele>
        <time>2025-08-08T08:28:58.000Z</time>
      </trkpt>
      <trkpt lat="46.17478" lon="5.74549">
        <ele>502.39999389648</ele>
        <time>2025-08-08T08:28:59.000Z</time>
      </trkpt>
      <trkpt lat="46.17472" lon="5.74554">
        <ele>502</ele>
        <time>2025-08-08T08:29:00.000Z</time>
      </trkpt>
      <trkpt lat="46.17455" lon="5.74568">
        <ele>501.79998779297</ele>
        <time>2025-08-08T08:29:02.000Z</time>
      </trkpt>
      <trkpt lat="46.17433" lon="5.74584">
        <ele>501.20001220703</ele>
        <time>2025-08-08T08:29:05.000Z</time>
      </trkpt>
      <trkpt lat="46.17393" lon="5.74606">
        <ele>500.20001220703</ele>
        <time>2025-08-08T08:29:10.000Z</time>
      </trkpt>
      <trkpt lat="46.17385" lon="5.7461">
        <ele>500.20001220703</ele>
        <time>2025-08-08T08:29:11.000Z</time>
      </trkpt>
      <trkpt lat="46.17344" lon="5.7463">
        <ele>498.79998779297</ele>
        <time>2025-08-08T08:29:16.000Z</time>
      </trkpt>
      <trkpt lat="46.17334" lon="5.74634">
        <ele>498.79998779297</ele>
        <time>2025-08-08T08:29:17.000Z</time>
      </trkpt>
      <trkpt lat="46.17304" lon="5.74645">
        <ele>497.79998779297</ele>
        <time>2025-08-08T08:29:21.000Z</time>
      </trkpt>
      <trkpt lat="46.17295" lon="5.74651">
        <ele>497.79998779297</ele>
        <time>2025-08-08T08:29:22.000Z</time>
      </trkpt>
      <trkpt lat="46.17282" lon="5.74663">
        <ele>497.60000610352</ele>
        <time>2025-08-08T08:29:24.000Z</time>
      </trkpt>
      <trkpt lat="46.17263" lon="5.74683">
        <ele>496.79998779297</ele>
        <time>2025-08-08T08:29:27.000Z</time>
      </trkpt>
      <trkpt lat="46.17256" lon="5.74689">
        <ele>496.60000610352</ele>
        <time>2025-08-08T08:29:28.000Z</time>
      </trkpt>
      <trkpt lat="46.17219" lon="5.74721">
        <ele>495.20001220703</ele>
        <time>2025-08-08T08:29:33.000Z</time>
      </trkpt>
      <trkpt lat="46.17211" lon="5.74727">
        <ele>495</ele>
        <time>2025-08-08T08:29:34.000Z</time>
      </trkpt>
      <trkpt lat="46.17187" lon="5.74748">
        <ele>493.79998779297</ele>
        <time>2025-08-08T08:29:37.000Z</time>
      </trkpt>
      <trkpt lat="46.17174" lon="5.74767">
        <ele>493</ele>
        <time>2025-08-08T08:29:39.000Z</time>
      </trkpt>
      <trkpt lat="46.17168" lon="5.74777">
        <ele>492.79998779297</ele>
        <time>2025-08-08T08:29:40.000Z</time>
      </trkpt>
      <trkpt lat="46.17163" lon="5.74789">
        <ele>492.39999389648</ele>
        <time>2025-08-08T08:29:41.000Z</time>
      </trkpt>
      <trkpt lat="46.17154" lon="5.74814">
        <ele>491.79998779297</ele>
        <time>2025-08-08T08:29:43.000Z</time>
      </trkpt>
      <trkpt lat="46.1715" lon="5.74826">
        <ele>491.39999389648</ele>
        <time>2025-08-08T08:29:44.000Z</time>
      </trkpt>
      <trkpt lat="46.17142" lon="5.74851">
        <ele>491</ele>
        <time>2025-08-08T08:29:46.000Z</time>
      </trkpt>
      <trkpt lat="46.17133" lon="5.74876">
        <ele>490.39999389648</ele>
        <time>2025-08-08T08:29:48.000Z</time>
      </trkpt>
      <trkpt lat="46.17128" lon="5.74889">
        <ele>490</ele>
        <time>2025-08-08T08:29:49.000Z</time>
      </trkpt>
      <trkpt lat="46.17109" lon="5.74926">
        <ele>489.20001220703</ele>
        <time>2025-08-08T08:29:52.000Z</time>
      </trkpt>
      <trkpt lat="46.17101" lon="5.74937">
        <ele>488.60000610352</ele>
        <time>2025-08-08T08:29:53.000Z</time>
      </trkpt>
      <trkpt lat="46.17078" lon="5.74968">
        <ele>487.39999389648</ele>
        <time>2025-08-08T08:29:56.000Z</time>
      </trkpt>
      <trkpt lat="46.17046" lon="5.75007">
        <ele>485.60000610352</ele>
        <time>2025-08-08T08:30:00.000Z</time>
      </trkpt>
      <trkpt lat="46.17037" lon="5.7502">
        <ele>485.39999389648</ele>
        <time>2025-08-08T08:30:01.000Z</time>
      </trkpt>
      <trkpt lat="46.17031" lon="5.75032">
        <ele>485</ele>
        <time>2025-08-08T08:30:02.000Z</time>
      </trkpt>
      <trkpt lat="46.1702" lon="5.75055">
        <ele>484.39999389648</ele>
        <time>2025-08-08T08:30:04.000Z</time>
      </trkpt>
      <trkpt lat="46.17003" lon="5.75098">
        <ele>483.20001220703</ele>
        <time>2025-08-08T08:30:07.000Z</time>
      </trkpt>
      <trkpt lat="46.16999" lon="5.75108">
        <ele>483</ele>
        <time>2025-08-08T08:30:08.000Z</time>
      </trkpt>
      <trkpt lat="46.16986" lon="5.75152">
        <ele>482</ele>
        <time>2025-08-08T08:30:11.000Z</time>
      </trkpt>
      <trkpt lat="46.1698" lon="5.75179">
        <ele>481</ele>
        <time>2025-08-08T08:30:13.000Z</time>
      </trkpt>
      <trkpt lat="46.16977" lon="5.75193">
        <ele>480.20001220703</ele>
        <time>2025-08-08T08:30:14.000Z</time>
      </trkpt>
      <trkpt lat="46.16963" lon="5.75255">
        <ele>479</ele>
        <time>2025-08-08T08:30:18.000Z</time>
      </trkpt>
      <trkpt lat="46.1696" lon="5.75266">
        <ele>478.60000610352</ele>
        <time>2025-08-08T08:30:19.000Z</time>
      </trkpt>
      <trkpt lat="46.16952" lon="5.75298">
        <ele>478.20001220703</ele>
        <time>2025-08-08T08:30:21.000Z</time>
      </trkpt>
      <trkpt lat="46.16942" lon="5.75324">
        <ele>477.60000610352</ele>
        <time>2025-08-08T08:30:23.000Z</time>
      </trkpt>
      <trkpt lat="46.16937" lon="5.75335">
        <ele>477.20001220703</ele>
        <time>2025-08-08T08:30:24.000Z</time>
      </trkpt>
      <trkpt lat="46.16924" lon="5.75358">
        <ele>476.39999389648</ele>
        <time>2025-08-08T08:30:26.000Z</time>
      </trkpt>
      <trkpt lat="46.16912" lon="5.75382">
        <ele>475.60000610352</ele>
        <time>2025-08-08T08:30:28.000Z</time>
      </trkpt>
      <trkpt lat="46.16905" lon="5.75394">
        <ele>475.20001220703</ele>
        <time>2025-08-08T08:30:29.000Z</time>
      </trkpt>
      <trkpt lat="46.16887" lon="5.75433">
        <ele>474.20001220703</ele>
        <time>2025-08-08T08:30:32.000Z</time>
      </trkpt>
      <trkpt lat="46.16879" lon="5.75456">
        <ele>473.60000610352</ele>
        <time>2025-08-08T08:30:34.000Z</time>
      </trkpt>
      <trkpt lat="46.1687" lon="5.75482">
        <ele>473</ele>
        <time>2025-08-08T08:30:36.000Z</time>
      </trkpt>
      <trkpt lat="46.16858" lon="5.75523">
        <ele>471.79998779297</ele>
        <time>2025-08-08T08:30:39.000Z</time>
      </trkpt>
      <trkpt lat="46.16851" lon="5.7555">
        <ele>471.20001220703</ele>
        <time>2025-08-08T08:30:41.000Z</time>
      </trkpt>
      <trkpt lat="46.16847" lon="5.75566">
        <ele>470.60000610352</ele>
        <time>2025-08-08T08:30:42.000Z</time>
      </trkpt>
      <trkpt lat="46.16833" lon="5.75622">
        <ele>469.20001220703</ele>
        <time>2025-08-08T08:30:46.000Z</time>
      </trkpt>
      <trkpt lat="46.16822" lon="5.75661">
        <ele>468</ele>
        <time>2025-08-08T08:30:49.000Z</time>
      </trkpt>
      <trkpt lat="46.16819" lon="5.75675">
        <ele>468</ele>
        <time>2025-08-08T08:30:50.000Z</time>
      </trkpt>
      <trkpt lat="46.1681" lon="5.75706">
        <ele>466.79998779297</ele>
        <time>2025-08-08T08:30:52.000Z</time>
      </trkpt>
      <trkpt lat="46.16798" lon="5.75745">
        <ele>465.39999389648</ele>
        <time>2025-08-08T08:30:55.000Z</time>
      </trkpt>
      <trkpt lat="46.16789" lon="5.75775">
        <ele>464.20001220703</ele>
        <time>2025-08-08T08:30:57.000Z</time>
      </trkpt>
      <trkpt lat="46.16779" lon="5.75799">
        <ele>463.39999389648</ele>
        <time>2025-08-08T08:30:59.000Z</time>
      </trkpt>
      <trkpt lat="46.16774" lon="5.75812">
        <ele>462.79998779297</ele>
        <time>2025-08-08T08:31:00.000Z</time>
      </trkpt>
      <trkpt lat="46.16758" lon="5.7585">
        <ele>461.20001220703</ele>
        <time>2025-08-08T08:31:03.000Z</time>
      </trkpt>
      <trkpt lat="46.16745" lon="5.75877">
        <ele>460.20001220703</ele>
        <time>2025-08-08T08:31:05.000Z</time>
      </trkpt>
      <trkpt lat="46.16729" lon="5.75912">
        <ele>459.39999389648</ele>
        <time>2025-08-08T08:31:08.000Z</time>
      </trkpt>
      <trkpt lat="46.16717" lon="5.75936">
        <ele>458.39999389648</ele>
        <time>2025-08-08T08:31:10.000Z</time>
      </trkpt>
      <trkpt lat="46.16711" lon="5.75948">
        <ele>458.20001220703</ele>
        <time>2025-08-08T08:31:11.000Z</time>
      </trkpt>
      <trkpt lat="46.16694" lon="5.75983">
        <ele>457</ele>
        <time>2025-08-08T08:31:14.000Z</time>
      </trkpt>
      <trkpt lat="46.16665" lon="5.76039">
        <ele>456</ele>
        <time>2025-08-08T08:31:19.000Z</time>
      </trkpt>
      <trkpt lat="46.16638" lon="5.76079">
        <ele>455</ele>
        <time>2025-08-08T08:31:23.000Z</time>
      </trkpt>
      <trkpt lat="46.16631" lon="5.76088">
        <ele>454.60000610352</ele>
        <time>2025-08-08T08:31:24.000Z</time>
      </trkpt>
      <trkpt lat="46.16624" lon="5.76098">
        <ele>454.39999389648</ele>
        <time>2025-08-08T08:31:25.000Z</time>
      </trkpt>
      <trkpt lat="46.16602" lon="5.76124">
        <ele>453.39999389648</ele>
        <time>2025-08-08T08:31:28.000Z</time>
      </trkpt>
      <trkpt lat="46.16565" lon="5.76165">
        <ele>452.60000610352</ele>
        <time>2025-08-08T08:31:33.000Z</time>
      </trkpt>
      <trkpt lat="46.16557" lon="5.76174">
        <ele>452.60000610352</ele>
        <time>2025-08-08T08:31:34.000Z</time>
      </trkpt>
      <trkpt lat="46.1651" lon="5.76225">
        <ele>452</ele>
        <time>2025-08-08T08:31:41.000Z</time>
      </trkpt>
      <trkpt lat="46.16466" lon="5.76285">
        <ele>452.20001220703</ele>
        <time>2025-08-08T08:31:49.000Z</time>
      </trkpt>
      <trkpt lat="46.16441" lon="5.76331">
        <ele>452.60000610352</ele>
        <time>2025-08-08T08:31:55.000Z</time>
      </trkpt>
      <trkpt lat="46.16419" lon="5.76385">
        <ele>453.39999389648</ele>
        <time>2025-08-08T08:32:02.000Z</time>
      </trkpt>
      <trkpt lat="46.16408" lon="5.76415">
        <ele>453.60000610352</ele>
        <time>2025-08-08T08:32:06.000Z</time>
      </trkpt>
      <trkpt lat="46.164" lon="5.76445">
        <ele>454.20001220703</ele>
        <time>2025-08-08T08:32:10.000Z</time>
      </trkpt>
      <trkpt lat="46.16393" lon="5.76482">
        <ele>454.79998779297</ele>
        <time>2025-08-08T08:32:15.000Z</time>
      </trkpt>
      <trkpt lat="46.1639" lon="5.76505">
        <ele>455</ele>
        <time>2025-08-08T08:32:18.000Z</time>
      </trkpt>
      <trkpt lat="46.16389" lon="5.76534">
        <ele>455.60000610352</ele>
        <time>2025-08-08T08:32:22.000Z</time>
      </trkpt>
      <trkpt lat="46.16388" lon="5.76542">
        <ele>455.79998779297</ele>
        <time>2025-08-08T08:32:23.000Z</time>
      </trkpt>
      <trkpt lat="46.16386" lon="5.76549">
        <ele>456.20001220703</ele>
        <time>2025-08-08T08:32:24.000Z</time>
      </trkpt>
      <trkpt lat="46.16385" lon="5.76556">
        <ele>456.20001220703</ele>
        <time>2025-08-08T08:32:25.000Z</time>
      </trkpt>
      <trkpt lat="46.16381" lon="5.76579">
        <ele>457</ele>
        <time>2025-08-08T08:32:28.000Z</time>
      </trkpt>
      <trkpt lat="46.1638" lon="5.76594">
        <ele>457.20001220703</ele>
        <time>2025-08-08T08:32:30.000Z</time>
      </trkpt>
      <trkpt lat="46.16372" lon="5.76651">
        <ele>458</ele>
        <time>2025-08-08T08:32:38.000Z</time>
      </trkpt>
      <trkpt lat="46.16356" lon="5.7671">
        <ele>458.20001220703</ele>
        <time>2025-08-08T08:32:47.000Z</time>
      </trkpt>
      <trkpt lat="46.16344" lon="5.76753">
        <ele>458.60000610352</ele>
        <time>2025-08-08T08:32:55.000Z</time>
      </trkpt>
      <trkpt lat="46.16337" lon="5.76767">
        <ele>459</ele>
        <time>2025-08-08T08:32:58.000Z</time>
      </trkpt>
      <trkpt lat="46.16325" lon="5.76788">
        <ele>459.39999389648</ele>
        <time>2025-08-08T08:33:03.000Z</time>
      </trkpt>
      <trkpt lat="46.16312" lon="5.7682">
        <ele>460.20001220703</ele>
        <time>2025-08-08T08:33:10.000Z</time>
      </trkpt>
      <trkpt lat="46.1631" lon="5.76824">
        <ele>460.20001220703</ele>
        <time>2025-08-08T08:33:11.000Z</time>
      </trkpt>
      <trkpt lat="46.16302" lon="5.76851">
        <ele>460.79998779297</ele>
        <time>2025-08-08T08:33:16.000Z</time>
      </trkpt>
      <trkpt lat="46.16299" lon="5.76862">
        <ele>461.20001220703</ele>
        <time>2025-08-08T08:33:18.000Z</time>
      </trkpt>
      <trkpt lat="46.16297" lon="5.76868">
        <ele>461.20001220703</ele>
        <time>2025-08-08T08:33:19.000Z</time>
      </trkpt>
      <trkpt lat="46.16296" lon="5.76874">
        <ele>461.20001220703</ele>
        <time>2025-08-08T08:33:20.000Z</time>
      </trkpt>
      <trkpt lat="46.1629" lon="5.76903">
        <ele>461.79998779297</ele>
        <time>2025-08-08T08:33:25.000Z</time>
      </trkpt>
      <trkpt lat="46.1629" lon="5.76909">
        <ele>462</ele>
        <time>2025-08-08T08:33:26.000Z</time>
      </trkpt>
      <trkpt lat="46.16288" lon="5.76921">
        <ele>462.39999389648</ele>
        <time>2025-08-08T08:33:28.000Z</time>
      </trkpt>
      <trkpt lat="46.16284" lon="5.7695">
        <ele>463.20001220703</ele>
        <time>2025-08-08T08:33:33.000Z</time>
      </trkpt>
      <trkpt lat="46.1628" lon="5.76974">
        <ele>463.60000610352</ele>
        <time>2025-08-08T08:33:37.000Z</time>
      </trkpt>
      <trkpt lat="46.16276" lon="5.77003">
        <ele>464.39999389648</ele>
        <time>2025-08-08T08:33:42.000Z</time>
      </trkpt>
      <trkpt lat="46.16271" lon="5.77019">
        <ele>464.60000610352</ele>
        <time>2025-08-08T08:33:45.000Z</time>
      </trkpt>
      <trkpt lat="46.16263" lon="5.77044">
        <ele>465</ele>
        <time>2025-08-08T08:33:50.000Z</time>
      </trkpt>
      <trkpt lat="46.16247" lon="5.77077">
        <ele>465.79998779297</ele>
        <time>2025-08-08T08:33:57.000Z</time>
      </trkpt>
      <trkpt lat="46.16243" lon="5.77087">
        <ele>466.20001220703</ele>
        <time>2025-08-08T08:33:59.000Z</time>
      </trkpt>
      <trkpt lat="46.16231" lon="5.77116">
        <ele>466.79998779297</ele>
        <time>2025-08-08T08:34:05.000Z</time>
      </trkpt>
      <trkpt lat="46.16229" lon="5.77121">
        <ele>467</ele>
        <time>2025-08-08T08:34:06.000Z</time>
      </trkpt>
      <trkpt lat="46.16214" lon="5.77167">
        <ele>468</ele>
        <time>2025-08-08T08:34:15.000Z</time>
      </trkpt>
      <trkpt lat="46.16212" lon="5.77178">
        <ele>468.39999389648</ele>
        <time>2025-08-08T08:34:17.000Z</time>
      </trkpt>
      <trkpt lat="46.1621" lon="5.7722">
        <ele>469.20001220703</ele>
        <time>2025-08-08T08:34:24.000Z</time>
      </trkpt>
      <trkpt lat="46.16214" lon="5.77277">
        <ele>470.20001220703</ele>
        <time>2025-08-08T08:34:33.000Z</time>
      </trkpt>
      <trkpt lat="46.16219" lon="5.77319">
        <ele>471.60000610352</ele>
        <time>2025-08-08T08:34:40.000Z</time>
      </trkpt>
      <trkpt lat="46.16222" lon="5.77338">
        <ele>472.20001220703</ele>
        <time>2025-08-08T08:34:43.000Z</time>
      </trkpt>
      <trkpt lat="46.16224" lon="5.77356">
        <ele>472.60000610352</ele>
        <time>2025-08-08T08:34:46.000Z</time>
      </trkpt>
      <trkpt lat="46.16228" lon="5.77386">
        <ele>473.39999389648</ele>
        <time>2025-08-08T08:34:51.000Z</time>
      </trkpt>
      <trkpt lat="46.16229" lon="5.77392">
        <ele>473.60000610352</ele>
        <time>2025-08-08T08:34:52.000Z</time>
      </trkpt>
      <trkpt lat="46.16234" lon="5.77429">
        <ele>474.60000610352</ele>
        <time>2025-08-08T08:34:58.000Z</time>
      </trkpt>
      <trkpt lat="46.16235" lon="5.77441">
        <ele>474.79998779297</ele>
        <time>2025-08-08T08:35:00.000Z</time>
      </trkpt>
      <trkpt lat="46.16237" lon="5.77466">
        <ele>475.20001220703</ele>
        <time>2025-08-08T08:35:04.000Z</time>
      </trkpt>
      <trkpt lat="46.16238" lon="5.77478">
        <ele>475.39999389648</ele>
        <time>2025-08-08T08:35:06.000Z</time>
      </trkpt>
      <trkpt lat="46.1624" lon="5.77504">
        <ele>475.79998779297</ele>
        <time>2025-08-08T08:35:10.000Z</time>
      </trkpt>
      <trkpt lat="46.1624" lon="5.77523">
        <ele>476.20001220703</ele>
        <time>2025-08-08T08:35:13.000Z</time>
      </trkpt>
      <trkpt lat="46.16233" lon="5.77572">
        <ele>477</ele>
        <time>2025-08-08T08:35:21.000Z</time>
      </trkpt>
      <trkpt lat="46.16228" lon="5.77593">
        <ele>477.20001220703</ele>
        <time>2025-08-08T08:35:25.000Z</time>
      </trkpt>
      <trkpt lat="46.16227" lon="5.77605">
        <ele>477.79998779297</ele>
        <time>2025-08-08T08:35:27.000Z</time>
      </trkpt>
      <trkpt lat="46.16225" lon="5.77611">
        <ele>477.79998779297</ele>
        <time>2025-08-08T08:35:28.000Z</time>
      </trkpt>
      <trkpt lat="46.16223" lon="5.77623">
        <ele>478</ele>
        <time>2025-08-08T08:35:30.000Z</time>
      </trkpt>
      <trkpt lat="46.16223" lon="5.77635">
        <ele>478.20001220703</ele>
        <time>2025-08-08T08:35:32.000Z</time>
      </trkpt>
      <trkpt lat="46.16223" lon="5.7766">
        <ele>478.60000610352</ele>
        <time>2025-08-08T08:35:36.000Z</time>
      </trkpt>
      <trkpt lat="46.16228" lon="5.77693">
        <ele>479.20001220703</ele>
        <time>2025-08-08T08:35:42.000Z</time>
      </trkpt>
      <trkpt lat="46.16229" lon="5.77704">
        <ele>479.39999389648</ele>
        <time>2025-08-08T08:35:44.000Z</time>
      </trkpt>
      <trkpt lat="46.16227" lon="5.77744">
        <ele>480.60000610352</ele>
        <time>2025-08-08T08:35:51.000Z</time>
      </trkpt>
      <trkpt lat="46.16216" lon="5.77781">
        <ele>481.60000610352</ele>
        <time>2025-08-08T08:35:58.000Z</time>
      </trkpt>
      <trkpt lat="46.16214" lon="5.77786">
        <ele>481.60000610352</ele>
        <time>2025-08-08T08:35:59.000Z</time>
      </trkpt>
      <trkpt lat="46.16202" lon="5.7782">
        <ele>482.60000610352</ele>
        <time>2025-08-08T08:36:06.000Z</time>
      </trkpt>
      <trkpt lat="46.16196" lon="5.77829">
        <ele>482.79998779297</ele>
        <time>2025-08-08T08:36:08.000Z</time>
      </trkpt>
      <trkpt lat="46.16181" lon="5.77847">
        <ele>483</ele>
        <time>2025-08-08T08:36:13.000Z</time>
      </trkpt>
      <trkpt lat="46.16162" lon="5.77863">
        <ele>483.79998779297</ele>
        <time>2025-08-08T08:36:19.000Z</time>
      </trkpt>
      <trkpt lat="46.16159" lon="5.77865">
        <ele>484.20001220703</ele>
        <time>2025-08-08T08:36:20.000Z</time>
      </trkpt>
      <trkpt lat="46.16142" lon="5.77873">
        <ele>484.79998779297</ele>
        <time>2025-08-08T08:36:25.000Z</time>
      </trkpt>
      <trkpt lat="46.16137" lon="5.77875">
        <ele>485</ele>
        <time>2025-08-08T08:36:26.000Z</time>
      </trkpt>
      <trkpt lat="46.16119" lon="5.77884">
        <ele>485.20001220703</ele>
        <time>2025-08-08T08:36:30.000Z</time>
      </trkpt>
      <trkpt lat="46.16094" lon="5.77909">
        <ele>485.60000610352</ele>
        <time>2025-08-08T08:36:37.000Z</time>
      </trkpt>
      <trkpt lat="46.16086" lon="5.77921">
        <ele>486</ele>
        <time>2025-08-08T08:36:40.000Z</time>
      </trkpt>
      <trkpt lat="46.16076" lon="5.77937">
        <ele>486.79998779297</ele>
        <time>2025-08-08T08:36:44.000Z</time>
      </trkpt>
      <trkpt lat="46.16065" lon="5.7796">
        <ele>487.39999389648</ele>
        <time>2025-08-08T08:36:49.000Z</time>
      </trkpt>
      <trkpt lat="46.16061" lon="5.7797">
        <ele>487.39999389648</ele>
        <time>2025-08-08T08:36:51.000Z</time>
      </trkpt>
      <trkpt lat="46.16045" lon="5.78004">
        <ele>488.20001220703</ele>
        <time>2025-08-08T08:36:58.000Z</time>
      </trkpt>
      <trkpt lat="46.16044" lon="5.78008">
        <ele>488.20001220703</ele>
        <time>2025-08-08T08:36:59.000Z</time>
      </trkpt>
      <trkpt lat="46.16033" lon="5.78032">
        <ele>488.79998779297</ele>
        <time>2025-08-08T08:37:04.000Z</time>
      </trkpt>
      <trkpt lat="46.16028" lon="5.78043">
        <ele>489.20001220703</ele>
        <time>2025-08-08T08:37:06.000Z</time>
      </trkpt>
      <trkpt lat="46.16026" lon="5.78048">
        <ele>489.39999389648</ele>
        <time>2025-08-08T08:37:07.000Z</time>
      </trkpt>
      <trkpt lat="46.16016" lon="5.78074">
        <ele>490</ele>
        <time>2025-08-08T08:37:12.000Z</time>
      </trkpt>
      <trkpt lat="46.16012" lon="5.78083">
        <ele>490.20001220703</ele>
        <time>2025-08-08T08:37:14.000Z</time>
      </trkpt>
      <trkpt lat="46.16009" lon="5.78088">
        <ele>490.39999389648</ele>
        <time>2025-08-08T08:37:15.000Z</time>
      </trkpt>
      <trkpt lat="46.16008" lon="5.78093">
        <ele>490.39999389648</ele>
        <time>2025-08-08T08:37:16.000Z</time>
      </trkpt>
      <trkpt lat="46.16" lon="5.78114">
        <ele>490.60000610352</ele>
        <time>2025-08-08T08:37:20.000Z</time>
      </trkpt>
      <trkpt lat="46.15998" lon="5.78119">
        <ele>490.79998779297</ele>
        <time>2025-08-08T08:37:21.000Z</time>
      </trkpt>
      <trkpt lat="46.1599" lon="5.78138">
        <ele>491.60000610352</ele>
        <time>2025-08-08T08:37:25.000Z</time>
      </trkpt>
      <trkpt lat="46.15985" lon="5.78153">
        <ele>491.79998779297</ele>
        <time>2025-08-08T08:37:28.000Z</time>
      </trkpt>
      <trkpt lat="46.15964" lon="5.78194">
        <ele>492.39999389648</ele>
        <time>2025-08-08T08:37:37.000Z</time>
      </trkpt>
      <trkpt lat="46.15962" lon="5.78198">
        <ele>492.60000610352</ele>
        <time>2025-08-08T08:37:38.000Z</time>
      </trkpt>
      <trkpt lat="46.15959" lon="5.78203">
        <ele>492.60000610352</ele>
        <time>2025-08-08T08:37:39.000Z</time>
      </trkpt>
      <trkpt lat="46.15944" lon="5.78224">
        <ele>493.60000610352</ele>
        <time>2025-08-08T08:37:44.000Z</time>
      </trkpt>
      <trkpt lat="46.15942" lon="5.78228">
        <ele>493.79998779297</ele>
        <time>2025-08-08T08:37:45.000Z</time>
      </trkpt>
      <trkpt lat="46.15928" lon="5.78249">
        <ele>494.60000610352</ele>
        <time>2025-08-08T08:37:50.000Z</time>
      </trkpt>
      <trkpt lat="46.15919" lon="5.78266">
        <ele>495.20001220703</ele>
        <time>2025-08-08T08:37:54.000Z</time>
      </trkpt>
      <trkpt lat="46.15908" lon="5.78283">
        <ele>495.60000610352</ele>
        <time>2025-08-08T08:37:58.000Z</time>
      </trkpt>
      <trkpt lat="46.15898" lon="5.78301">
        <ele>496</ele>
        <time>2025-08-08T08:38:02.000Z</time>
      </trkpt>
      <trkpt lat="46.1589" lon="5.78313">
        <ele>496.39999389648</ele>
        <time>2025-08-08T08:38:05.000Z</time>
      </trkpt>
      <trkpt lat="46.1588" lon="5.78332">
        <ele>496.60000610352</ele>
        <time>2025-08-08T08:38:09.000Z</time>
      </trkpt>
      <trkpt lat="46.15875" lon="5.78341">
        <ele>496.79998779297</ele>
        <time>2025-08-08T08:38:11.000Z</time>
      </trkpt>
      <trkpt lat="46.15867" lon="5.78361">
        <ele>497.20001220703</ele>
        <time>2025-08-08T08:38:15.000Z</time>
      </trkpt>
      <trkpt lat="46.15858" lon="5.78381">
        <ele>497.79998779297</ele>
        <time>2025-08-08T08:38:19.000Z</time>
      </trkpt>
      <trkpt lat="46.15852" lon="5.7839">
        <ele>497.79998779297</ele>
        <time>2025-08-08T08:38:21.000Z</time>
      </trkpt>
      <trkpt lat="46.15848" lon="5.78394">
        <ele>498</ele>
        <time>2025-08-08T08:38:22.000Z</time>
      </trkpt>
      <trkpt lat="46.15843" lon="5.78403">
        <ele>498.20001220703</ele>
        <time>2025-08-08T08:38:24.000Z</time>
      </trkpt>
      <trkpt lat="46.15839" lon="5.78414">
        <ele>498.39999389648</ele>
        <time>2025-08-08T08:38:26.000Z</time>
      </trkpt>
      <trkpt lat="46.15835" lon="5.78423">
        <ele>498.60000610352</ele>
        <time>2025-08-08T08:38:28.000Z</time>
      </trkpt>
      <trkpt lat="46.1583" lon="5.78433">
        <ele>498.79998779297</ele>
        <time>2025-08-08T08:38:30.000Z</time>
      </trkpt>
      <trkpt lat="46.15825" lon="5.78443">
        <ele>499.20001220703</ele>
        <time>2025-08-08T08:38:32.000Z</time>
      </trkpt>
      <trkpt lat="46.15823" lon="5.78446">
        <ele>499.39999389648</ele>
        <time>2025-08-08T08:38:33.000Z</time>
      </trkpt>
      <trkpt lat="46.15803" lon="5.7847">
        <ele>500</ele>
        <time>2025-08-08T08:38:39.000Z</time>
      </trkpt>
      <trkpt lat="46.158" lon="5.78474">
        <ele>500</ele>
        <time>2025-08-08T08:38:40.000Z</time>
      </trkpt>
      <trkpt lat="46.15776" lon="5.78497">
        <ele>501</ele>
        <time>2025-08-08T08:38:47.000Z</time>
      </trkpt>
      <trkpt lat="46.15769" lon="5.78503">
        <ele>501.39999389648</ele>
        <time>2025-08-08T08:38:49.000Z</time>
      </trkpt>
      <trkpt lat="46.15751" lon="5.78518">
        <ele>502.39999389648</ele>
        <time>2025-08-08T08:38:54.000Z</time>
      </trkpt>
      <trkpt lat="46.1574" lon="5.78527">
        <ele>502.60000610352</ele>
        <time>2025-08-08T08:38:57.000Z</time>
      </trkpt>
      <trkpt lat="46.15713" lon="5.78548">
        <ele>503.60000610352</ele>
        <time>2025-08-08T08:39:05.000Z</time>
      </trkpt>
      <trkpt lat="46.1571" lon="5.7855">
        <ele>503.60000610352</ele>
        <time>2025-08-08T08:39:06.000Z</time>
      </trkpt>
      <trkpt lat="46.15694" lon="5.78564">
        <ele>504.60000610352</ele>
        <time>2025-08-08T08:39:11.000Z</time>
      </trkpt>
      <trkpt lat="46.15686" lon="5.78574">
        <ele>505.20001220703</ele>
        <time>2025-08-08T08:39:14.000Z</time>
      </trkpt>
      <trkpt lat="46.15675" lon="5.78587">
        <ele>505.79998779297</ele>
        <time>2025-08-08T08:39:18.000Z</time>
      </trkpt>
      <trkpt lat="46.15665" lon="5.78599">
        <ele>506</ele>
        <time>2025-08-08T08:39:21.000Z</time>
      </trkpt>
      <trkpt lat="46.15646" lon="5.78635">
        <ele>506.79998779297</ele>
        <time>2025-08-08T08:39:28.000Z</time>
      </trkpt>
      <trkpt lat="46.15643" lon="5.7864">
        <ele>506.79998779297</ele>
        <time>2025-08-08T08:39:29.000Z</time>
      </trkpt>
      <trkpt lat="46.15624" lon="5.78681">
        <ele>507.39999389648</ele>
        <time>2025-08-08T08:39:37.000Z</time>
      </trkpt>
      <trkpt lat="46.15614" lon="5.787">
        <ele>507.79998779297</ele>
        <time>2025-08-08T08:39:41.000Z</time>
      </trkpt>
      <trkpt lat="46.15603" lon="5.78726">
        <ele>508.79998779297</ele>
        <time>2025-08-08T08:39:46.000Z</time>
      </trkpt>
      <trkpt lat="46.156" lon="5.78731">
        <ele>508.79998779297</ele>
        <time>2025-08-08T08:39:47.000Z</time>
      </trkpt>
      <trkpt lat="46.15596" lon="5.78741">
        <ele>509</ele>
        <time>2025-08-08T08:39:49.000Z</time>
      </trkpt>
      <trkpt lat="46.15579" lon="5.78778">
        <ele>510</ele>
        <time>2025-08-08T08:39:56.000Z</time>
      </trkpt>
      <trkpt lat="46.15576" lon="5.78783">
        <ele>510.20001220703</ele>
        <time>2025-08-08T08:39:57.000Z</time>
      </trkpt>
      <trkpt lat="46.15558" lon="5.78822">
        <ele>511.20001220703</ele>
        <time>2025-08-08T08:40:05.000Z</time>
      </trkpt>
      <trkpt lat="46.15539" lon="5.78861">
        <ele>512.59997558594</ele>
        <time>2025-08-08T08:40:13.000Z</time>
      </trkpt>
      <trkpt lat="46.15537" lon="5.78866">
        <ele>512.59997558594</ele>
        <time>2025-08-08T08:40:14.000Z</time>
      </trkpt>
      <trkpt lat="46.15508" lon="5.78912">
        <ele>513.59997558594</ele>
        <time>2025-08-08T08:40:24.000Z</time>
      </trkpt>
      <trkpt lat="46.15479" lon="5.7894">
        <ele>514.59997558594</ele>
        <time>2025-08-08T08:40:32.000Z</time>
      </trkpt>
      <trkpt lat="46.15475" lon="5.78942">
        <ele>514.79998779297</ele>
        <time>2025-08-08T08:40:33.000Z</time>
      </trkpt>
      <trkpt lat="46.15438" lon="5.78962">
        <ele>515.79998779297</ele>
        <time>2025-08-08T08:40:42.000Z</time>
      </trkpt>
      <trkpt lat="46.15399" lon="5.78971">
        <ele>516.79998779297</ele>
        <time>2025-08-08T08:40:51.000Z</time>
      </trkpt>
      <trkpt lat="46.1539" lon="5.78973">
        <ele>517.20001220703</ele>
        <time>2025-08-08T08:40:53.000Z</time>
      </trkpt>
      <trkpt lat="46.15372" lon="5.78976">
        <ele>518</ele>
        <time>2025-08-08T08:40:57.000Z</time>
      </trkpt>
      <trkpt lat="46.15342" lon="5.78983">
        <ele>519</ele>
        <time>2025-08-08T08:41:04.000Z</time>
      </trkpt>
      <trkpt lat="46.15333" lon="5.78985">
        <ele>519.40002441406</ele>
        <time>2025-08-08T08:41:06.000Z</time>
      </trkpt>
      <trkpt lat="46.15303" lon="5.78996">
        <ele>520.20001220703</ele>
        <time>2025-08-08T08:41:13.000Z</time>
      </trkpt>
      <trkpt lat="46.15299" lon="5.78998">
        <ele>520.40002441406</ele>
        <time>2025-08-08T08:41:14.000Z</time>
      </trkpt>
      <trkpt lat="46.15266" lon="5.79016">
        <ele>521.20001220703</ele>
        <time>2025-08-08T08:41:22.000Z</time>
      </trkpt>
      <trkpt lat="46.15258" lon="5.79021">
        <ele>521.59997558594</ele>
        <time>2025-08-08T08:41:24.000Z</time>
      </trkpt>
      <trkpt lat="46.15227" lon="5.79042">
        <ele>522.20001220703</ele>
        <time>2025-08-08T08:41:32.000Z</time>
      </trkpt>
      <trkpt lat="46.15215" lon="5.7905">
        <ele>522.59997558594</ele>
        <time>2025-08-08T08:41:35.000Z</time>
      </trkpt>
      <trkpt lat="46.15212" lon="5.79053">
        <ele>522.79998779297</ele>
        <time>2025-08-08T08:41:36.000Z</time>
      </trkpt>
      <trkpt lat="46.15197" lon="5.79066">
        <ele>523.20001220703</ele>
        <time>2025-08-08T08:41:40.000Z</time>
      </trkpt>
      <trkpt lat="46.1519" lon="5.79073">
        <ele>523.59997558594</ele>
        <time>2025-08-08T08:41:42.000Z</time>
      </trkpt>
      <trkpt lat="46.15163" lon="5.79096">
        <ele>524.79998779297</ele>
        <time>2025-08-08T08:41:49.000Z</time>
      </trkpt>
      <trkpt lat="46.1516" lon="5.79099">
        <ele>524.79998779297</ele>
        <time>2025-08-08T08:41:50.000Z</time>
      </trkpt>
      <trkpt lat="46.1512" lon="5.79131">
        <ele>526</ele>
        <time>2025-08-08T08:42:00.000Z</time>
      </trkpt>
      <trkpt lat="46.15116" lon="5.79134">
        <ele>526</ele>
        <time>2025-08-08T08:42:01.000Z</time>
      </trkpt>
      <trkpt lat="46.15091" lon="5.79153">
        <ele>526.59997558594</ele>
        <time>2025-08-08T08:42:07.000Z</time>
      </trkpt>
      <trkpt lat="46.15083" lon="5.79159">
        <ele>526.79998779297</ele>
        <time>2025-08-08T08:42:09.000Z</time>
      </trkpt>
      <trkpt lat="46.15066" lon="5.79171">
        <ele>527</ele>
        <time>2025-08-08T08:42:13.000Z</time>
      </trkpt>
      <trkpt lat="46.15039" lon="5.79194">
        <ele>527.40002441406</ele>
        <time>2025-08-08T08:42:19.000Z</time>
      </trkpt>
      <trkpt lat="46.15" lon="5.79227">
        <ele>527.40002441406</ele>
        <time>2025-08-08T08:42:27.000Z</time>
      </trkpt>
      <trkpt lat="46.14951" lon="5.7927">
        <ele>528</ele>
        <time>2025-08-08T08:42:37.000Z</time>
      </trkpt>
      <trkpt lat="46.14912" lon="5.79305">
        <ele>528.20001220703</ele>
        <time>2025-08-08T08:42:46.000Z</time>
      </trkpt>
      <trkpt lat="46.14899" lon="5.79317">
        <ele>528.20001220703</ele>
        <time>2025-08-08T08:42:49.000Z</time>
      </trkpt>
      <trkpt lat="46.14882" lon="5.79333">
        <ele>528.40002441406</ele>
        <time>2025-08-08T08:42:53.000Z</time>
      </trkpt>
      <trkpt lat="46.14857" lon="5.79355">
        <ele>529</ele>
        <time>2025-08-08T08:42:59.000Z</time>
      </trkpt>
      <trkpt lat="46.14853" lon="5.79359">
        <ele>529</ele>
        <time>2025-08-08T08:43:00.000Z</time>
      </trkpt>
      <trkpt lat="46.14844" lon="5.79365">
        <ele>529.20001220703</ele>
        <time>2025-08-08T08:43:02.000Z</time>
      </trkpt>
      <trkpt lat="46.14823" lon="5.79381">
        <ele>529.79998779297</ele>
        <time>2025-08-08T08:43:07.000Z</time>
      </trkpt>
      <trkpt lat="46.14814" lon="5.79385">
        <ele>530</ele>
        <time>2025-08-08T08:43:09.000Z</time>
      </trkpt>
      <trkpt lat="46.14795" lon="5.79395">
        <ele>530.20001220703</ele>
        <time>2025-08-08T08:43:13.000Z</time>
      </trkpt>
      <trkpt lat="46.14776" lon="5.79403">
        <ele>530.79998779297</ele>
        <time>2025-08-08T08:43:17.000Z</time>
      </trkpt>
      <trkpt lat="46.14743" lon="5.79417">
        <ele>531.40002441406</ele>
        <time>2025-08-08T08:43:24.000Z</time>
      </trkpt>
      <trkpt lat="46.14734" lon="5.79421">
        <ele>531.59997558594</ele>
        <time>2025-08-08T08:43:26.000Z</time>
      </trkpt>
      <trkpt lat="46.14697" lon="5.79438">
        <ele>532.20001220703</ele>
        <time>2025-08-08T08:43:34.000Z</time>
      </trkpt>
      <trkpt lat="46.14678" lon="5.79447">
        <ele>532.59997558594</ele>
        <time>2025-08-08T08:43:38.000Z</time>
      </trkpt>
      <trkpt lat="46.14651" lon="5.7946">
        <ele>533</ele>
        <time>2025-08-08T08:43:44.000Z</time>
      </trkpt>
      <trkpt lat="46.14624" lon="5.79471">
        <ele>533.59997558594</ele>
        <time>2025-08-08T08:43:50.000Z</time>
      </trkpt>
      <trkpt lat="46.14601" lon="5.79482">
        <ele>534.20001220703</ele>
        <time>2025-08-08T08:43:55.000Z</time>
      </trkpt>
      <trkpt lat="46.14574" lon="5.79495">
        <ele>535</ele>
        <time>2025-08-08T08:44:01.000Z</time>
      </trkpt>
      <trkpt lat="46.14565" lon="5.79499">
        <ele>535.20001220703</ele>
        <time>2025-08-08T08:44:03.000Z</time>
      </trkpt>
      <trkpt lat="46.14561" lon="5.795">
        <ele>535.40002441406</ele>
        <time>2025-08-08T08:44:04.000Z</time>
      </trkpt>
      <trkpt lat="46.14556" lon="5.79502">
        <ele>535.40002441406</ele>
        <time>2025-08-08T08:44:05.000Z</time>
      </trkpt>
      <trkpt lat="46.14535" lon="5.79514">
        <ele>536</ele>
        <time>2025-08-08T08:44:10.000Z</time>
      </trkpt>
      <trkpt lat="46.14531" lon="5.79517">
        <ele>536.20001220703</ele>
        <time>2025-08-08T08:44:11.000Z</time>
      </trkpt>
      <trkpt lat="46.14505" lon="5.79534">
        <ele>537.20001220703</ele>
        <time>2025-08-08T08:44:17.000Z</time>
      </trkpt>
      <trkpt lat="46.14493" lon="5.79543">
        <ele>537.59997558594</ele>
        <time>2025-08-08T08:44:20.000Z</time>
      </trkpt>
      <trkpt lat="46.1446" lon="5.79565">
        <ele>538.20001220703</ele>
        <time>2025-08-08T08:44:27.000Z</time>
      </trkpt>
      <trkpt lat="46.14447" lon="5.79574">
        <ele>538.40002441406</ele>
        <time>2025-08-08T08:44:30.000Z</time>
      </trkpt>
      <trkpt lat="46.14404" lon="5.79605">
        <ele>539.20001220703</ele>
        <time>2025-08-08T08:44:40.000Z</time>
      </trkpt>
      <trkpt lat="46.14399" lon="5.79608">
        <ele>539.40002441406</ele>
        <time>2025-08-08T08:44:41.000Z</time>
      </trkpt>
      <trkpt lat="46.14375" lon="5.7963">
        <ele>539.79998779297</ele>
        <time>2025-08-08T08:44:47.000Z</time>
      </trkpt>
      <trkpt lat="46.14371" lon="5.79634">
        <ele>539.79998779297</ele>
        <time>2025-08-08T08:44:48.000Z</time>
      </trkpt>
      <trkpt lat="46.14363" lon="5.79651">
        <ele>540</ele>
        <time>2025-08-08T08:44:51.000Z</time>
      </trkpt>
      <trkpt lat="46.14359" lon="5.79664">
        <ele>540.40002441406</ele>
        <time>2025-08-08T08:44:53.000Z</time>
      </trkpt>
      <trkpt lat="46.14358" lon="5.79677">
        <ele>540.79998779297</ele>
        <time>2025-08-08T08:44:55.000Z</time>
      </trkpt>
      <trkpt lat="46.14358" lon="5.79704">
        <ele>541.40002441406</ele>
        <time>2025-08-08T08:44:59.000Z</time>
      </trkpt>
      <trkpt lat="46.14357" lon="5.79717">
        <ele>541.59997558594</ele>
        <time>2025-08-08T08:45:01.000Z</time>
      </trkpt>
      <trkpt lat="46.14358" lon="5.79753">
        <ele>542.40002441406</ele>
        <time>2025-08-08T08:45:07.000Z</time>
      </trkpt>
      <trkpt lat="46.14357" lon="5.7977">
        <ele>542.59997558594</ele>
        <time>2025-08-08T08:45:10.000Z</time>
      </trkpt>
      <trkpt lat="46.14358" lon="5.79794">
        <ele>543.20001220703</ele>
        <time>2025-08-08T08:45:15.000Z</time>
      </trkpt>
      <trkpt lat="46.14357" lon="5.79799">
        <ele>543.20001220703</ele>
        <time>2025-08-08T08:45:16.000Z</time>
      </trkpt>
      <trkpt lat="46.14355" lon="5.7981">
        <ele>544</ele>
        <time>2025-08-08T08:45:19.000Z</time>
      </trkpt>
      <trkpt lat="46.14353" lon="5.79814">
        <ele>544.20001220703</ele>
        <time>2025-08-08T08:45:21.000Z</time>
      </trkpt>
      <trkpt lat="46.14352" lon="5.79816">
        <ele>544.40002441406</ele>
        <time>2025-08-08T08:45:25.000Z</time>
      </trkpt>
      <trkpt lat="46.14329" lon="5.79831">
        <ele>543.79998779297</ele>
        <time>2025-08-08T09:16:42.000Z</time>
      </trkpt>
      <trkpt lat="46.14322" lon="5.79828">
        <ele>543.59997558594</ele>
        <time>2025-08-08T09:16:44.000Z</time>
      </trkpt>
      <trkpt lat="46.14289" lon="5.79811">
        <ele>542.79998779297</ele>
        <time>2025-08-08T09:16:53.000Z</time>
      </trkpt>
      <trkpt lat="46.14286" lon="5.7981">
        <ele>542.59997558594</ele>
        <time>2025-08-08T09:16:54.000Z</time>
      </trkpt>
      <trkpt lat="46.14259" lon="5.79802">
        <ele>542.40002441406</ele>
        <time>2025-08-08T09:17:00.000Z</time>
      </trkpt>
      <trkpt lat="46.14228" lon="5.79784">
        <ele>541.79998779297</ele>
        <time>2025-08-08T09:17:07.000Z</time>
      </trkpt>
      <trkpt lat="46.14215" lon="5.79776">
        <ele>541.59997558594</ele>
        <time>2025-08-08T09:17:10.000Z</time>
      </trkpt>
      <trkpt lat="46.14182" lon="5.79757">
        <ele>541</ele>
        <time>2025-08-08T09:17:18.000Z</time>
      </trkpt>
      <trkpt lat="46.14154" lon="5.79741">
        <ele>541</ele>
        <time>2025-08-08T09:17:25.000Z</time>
      </trkpt>
      <trkpt lat="46.14142" lon="5.79736">
        <ele>541</ele>
        <time>2025-08-08T09:17:28.000Z</time>
      </trkpt>
      <trkpt lat="46.14111" lon="5.79719">
        <ele>541</ele>
        <time>2025-08-08T09:17:36.000Z</time>
      </trkpt>
      <trkpt lat="46.141" lon="5.79712">
        <ele>541</ele>
        <time>2025-08-08T09:17:39.000Z</time>
      </trkpt>
      <trkpt lat="46.14067" lon="5.79694">
        <ele>542.40002441406</ele>
        <time>2025-08-08T09:17:48.000Z</time>
      </trkpt>
      <trkpt lat="46.14056" lon="5.79688">
        <ele>542.79998779297</ele>
        <time>2025-08-08T09:17:51.000Z</time>
      </trkpt>
      <trkpt lat="46.14042" lon="5.7968">
        <ele>543.59997558594</ele>
        <time>2025-08-08T09:17:55.000Z</time>
      </trkpt>
      <trkpt lat="46.14035" lon="5.79676">
        <ele>543.79998779297</ele>
        <time>2025-08-08T09:17:57.000Z</time>
      </trkpt>
      <trkpt lat="46.14019" lon="5.79667">
        <ele>543.79998779297</ele>
        <time>2025-08-08T09:18:02.000Z</time>
      </trkpt>
      <trkpt lat="46.14012" lon="5.79664">
        <ele>544</ele>
        <time>2025-08-08T09:18:04.000Z</time>
      </trkpt>
      <trkpt lat="46.13989" lon="5.79653">
        <ele>544.59997558594</ele>
        <time>2025-08-08T09:18:12.000Z</time>
      </trkpt>
      <trkpt lat="46.1398" lon="5.79648">
        <ele>545</ele>
        <time>2025-08-08T09:18:15.000Z</time>
      </trkpt>
      <trkpt lat="46.1396" lon="5.79637">
        <ele>545.79998779297</ele>
        <time>2025-08-08T09:18:22.000Z</time>
      </trkpt>
      <trkpt lat="46.13957" lon="5.79635">
        <ele>546</ele>
        <time>2025-08-08T09:18:23.000Z</time>
      </trkpt>
      <trkpt lat="46.13934" lon="5.79623">
        <ele>547.20001220703</ele>
        <time>2025-08-08T09:18:31.000Z</time>
      </trkpt>
      <trkpt lat="46.13931" lon="5.79621">
        <ele>547.20001220703</ele>
        <time>2025-08-08T09:18:32.000Z</time>
      </trkpt>
      <trkpt lat="46.13913" lon="5.79612">
        <ele>548.20001220703</ele>
        <time>2025-08-08T09:18:38.000Z</time>
      </trkpt>
      <trkpt lat="46.13904" lon="5.79607">
        <ele>548.59997558594</ele>
        <time>2025-08-08T09:18:41.000Z</time>
      </trkpt>
      <trkpt lat="46.13889" lon="5.796">
        <ele>549.20001220703</ele>
        <time>2025-08-08T09:18:46.000Z</time>
      </trkpt>
      <trkpt lat="46.13879" lon="5.79595">
        <ele>549.59997558594</ele>
        <time>2025-08-08T09:18:49.000Z</time>
      </trkpt>
      <trkpt lat="46.13857" lon="5.79583">
        <ele>550.40002441406</ele>
        <time>2025-08-08T09:18:56.000Z</time>
      </trkpt>
      <trkpt lat="46.13852" lon="5.7958">
        <ele>550.59997558594</ele>
        <time>2025-08-08T09:18:58.000Z</time>
      </trkpt>
      <trkpt lat="46.13821" lon="5.79562">
        <ele>551.59997558594</ele>
        <time>2025-08-08T09:19:08.000Z</time>
      </trkpt>
      <trkpt lat="46.13818" lon="5.79561">
        <ele>551.79998779297</ele>
        <time>2025-08-08T09:19:09.000Z</time>
      </trkpt>
      <trkpt lat="46.13784" lon="5.79544">
        <ele>552.79998779297</ele>
        <time>2025-08-08T09:19:20.000Z</time>
      </trkpt>
      <trkpt lat="46.13762" lon="5.79532">
        <ele>553.79998779297</ele>
        <time>2025-08-08T09:19:28.000Z</time>
      </trkpt>
      <trkpt lat="46.13753" lon="5.79527">
        <ele>554.40002441406</ele>
        <time>2025-08-08T09:19:31.000Z</time>
      </trkpt>
      <trkpt lat="46.13751" lon="5.79525">
        <ele>554.59997558594</ele>
        <time>2025-08-08T09:19:32.000Z</time>
      </trkpt>
      <trkpt lat="46.13745" lon="5.79522">
        <ele>555</ele>
        <time>2025-08-08T09:19:34.000Z</time>
      </trkpt>
      <trkpt lat="46.13727" lon="5.79513">
        <ele>556</ele>
        <time>2025-08-08T09:19:40.000Z</time>
      </trkpt>
      <trkpt lat="46.13724" lon="5.79511">
        <ele>556</ele>
        <time>2025-08-08T09:19:41.000Z</time>
      </trkpt>
      <trkpt lat="46.1371" lon="5.79503">
        <ele>557</ele>
        <time>2025-08-08T09:19:46.000Z</time>
      </trkpt>
      <trkpt lat="46.13697" lon="5.79496">
        <ele>558</ele>
        <time>2025-08-08T09:19:51.000Z</time>
      </trkpt>
      <trkpt lat="46.13691" lon="5.79493">
        <ele>558.20001220703</ele>
        <time>2025-08-08T09:19:53.000Z</time>
      </trkpt>
      <trkpt lat="46.13673" lon="5.79481">
        <ele>559</ele>
        <time>2025-08-08T09:20:00.000Z</time>
      </trkpt>
      <trkpt lat="46.13667" lon="5.79478">
        <ele>559.40002441406</ele>
        <time>2025-08-08T09:20:02.000Z</time>
      </trkpt>
      <trkpt lat="46.13652" lon="5.79472">
        <ele>560.20001220703</ele>
        <time>2025-08-08T09:20:07.000Z</time>
      </trkpt>
      <trkpt lat="46.13643" lon="5.79468">
        <ele>560.40002441406</ele>
        <time>2025-08-08T09:20:10.000Z</time>
      </trkpt>
      <trkpt lat="46.13623" lon="5.79458">
        <ele>561.20001220703</ele>
        <time>2025-08-08T09:20:17.000Z</time>
      </trkpt>
      <trkpt lat="46.13611" lon="5.79452">
        <ele>561.59997558594</ele>
        <time>2025-08-08T09:20:21.000Z</time>
      </trkpt>
      <trkpt lat="46.13596" lon="5.79444">
        <ele>562.20001220703</ele>
        <time>2025-08-08T09:20:26.000Z</time>
      </trkpt>
      <trkpt lat="46.13586" lon="5.79437">
        <ele>562.59997558594</ele>
        <time>2025-08-08T09:20:29.000Z</time>
      </trkpt>
      <trkpt lat="46.13568" lon="5.79419">
        <ele>563.59997558594</ele>
        <time>2025-08-08T09:20:36.000Z</time>
      </trkpt>
      <trkpt lat="46.13554" lon="5.79403">
        <ele>565</ele>
        <time>2025-08-08T09:20:41.000Z</time>
      </trkpt>
      <trkpt lat="46.1354" lon="5.79387">
        <ele>565.40002441406</ele>
        <time>2025-08-08T09:20:46.000Z</time>
      </trkpt>
      <trkpt lat="46.13513" lon="5.79365">
        <ele>565.59997558594</ele>
        <time>2025-08-08T09:20:55.000Z</time>
      </trkpt>
      <trkpt lat="46.13492" lon="5.79357">
        <ele>566</ele>
        <time>2025-08-08T09:21:02.000Z</time>
      </trkpt>
      <trkpt lat="46.13468" lon="5.79353">
        <ele>566.79998779297</ele>
        <time>2025-08-08T09:21:09.000Z</time>
      </trkpt>
      <trkpt lat="46.13462" lon="5.79353">
        <ele>567.20001220703</ele>
        <time>2025-08-08T09:21:11.000Z</time>
      </trkpt>
      <trkpt lat="46.13443" lon="5.79351">
        <ele>568.20001220703</ele>
        <time>2025-08-08T09:21:17.000Z</time>
      </trkpt>
      <trkpt lat="46.1344" lon="5.7935">
        <ele>568.40002441406</ele>
        <time>2025-08-08T09:21:18.000Z</time>
      </trkpt>
      <trkpt lat="46.13426" lon="5.79345">
        <ele>568.79998779297</ele>
        <time>2025-08-08T09:21:23.000Z</time>
      </trkpt>
      <trkpt lat="46.13418" lon="5.79342">
        <ele>569.40002441406</ele>
        <time>2025-08-08T09:21:26.000Z</time>
      </trkpt>
      <trkpt lat="46.13404" lon="5.79338">
        <ele>569.79998779297</ele>
        <time>2025-08-08T09:21:30.000Z</time>
      </trkpt>
      <trkpt lat="46.13387" lon="5.79332">
        <ele>570.59997558594</ele>
        <time>2025-08-08T09:21:35.000Z</time>
      </trkpt>
      <trkpt lat="46.13371" lon="5.79325">
        <ele>571.20001220703</ele>
        <time>2025-08-08T09:21:40.000Z</time>
      </trkpt>
      <trkpt lat="46.13362" lon="5.7932">
        <ele>571.79998779297</ele>
        <time>2025-08-08T09:21:43.000Z</time>
      </trkpt>
      <trkpt lat="46.13339" lon="5.79308">
        <ele>572.79998779297</ele>
        <time>2025-08-08T09:21:50.000Z</time>
      </trkpt>
      <trkpt lat="46.13337" lon="5.79307">
        <ele>572.79998779297</ele>
        <time>2025-08-08T09:21:51.000Z</time>
      </trkpt>
      <trkpt lat="46.13311" lon="5.79292">
        <ele>573.79998779297</ele>
        <time>2025-08-08T09:21:59.000Z</time>
      </trkpt>
      <trkpt lat="46.13305" lon="5.79289">
        <ele>574</ele>
        <time>2025-08-08T09:22:01.000Z</time>
      </trkpt>
      <trkpt lat="46.13282" lon="5.79279">
        <ele>575</ele>
        <time>2025-08-08T09:22:08.000Z</time>
      </trkpt>
      <trkpt lat="46.13278" lon="5.79277">
        <ele>575</ele>
        <time>2025-08-08T09:22:09.000Z</time>
      </trkpt>
      <trkpt lat="46.13254" lon="5.79265">
        <ele>576</ele>
        <time>2025-08-08T09:22:17.000Z</time>
      </trkpt>
      <trkpt lat="46.13241" lon="5.79258">
        <ele>576.59997558594</ele>
        <time>2025-08-08T09:22:21.000Z</time>
      </trkpt>
      <trkpt lat="46.13228" lon="5.79251">
        <ele>577.20001220703</ele>
        <time>2025-08-08T09:22:25.000Z</time>
      </trkpt>
      <trkpt lat="46.13208" lon="5.7924">
        <ele>578.20001220703</ele>
        <time>2025-08-08T09:22:31.000Z</time>
      </trkpt>
      <trkpt lat="46.13201" lon="5.79236">
        <ele>578.40002441406</ele>
        <time>2025-08-08T09:22:33.000Z</time>
      </trkpt>
      <trkpt lat="46.1316" lon="5.79214">
        <ele>579.20001220703</ele>
        <time>2025-08-08T09:22:45.000Z</time>
      </trkpt>
      <trkpt lat="46.13131" lon="5.79197">
        <ele>580.20001220703</ele>
        <time>2025-08-08T09:22:54.000Z</time>
      </trkpt>
      <trkpt lat="46.13106" lon="5.79182">
        <ele>581</ele>
        <time>2025-08-08T09:23:02.000Z</time>
      </trkpt>
      <trkpt lat="46.13103" lon="5.7918">
        <ele>581.20001220703</ele>
        <time>2025-08-08T09:23:03.000Z</time>
      </trkpt>
      <trkpt lat="46.13091" lon="5.79176">
        <ele>582.40002441406</ele>
        <time>2025-08-08T09:23:07.000Z</time>
      </trkpt>
      <trkpt lat="46.13086" lon="5.79173">
        <ele>582.79998779297</ele>
        <time>2025-08-08T09:23:09.000Z</time>
      </trkpt>
      <trkpt lat="46.13069" lon="5.79164">
        <ele>583.59997558594</ele>
        <time>2025-08-08T09:23:14.000Z</time>
      </trkpt>
      <trkpt lat="46.13045" lon="5.79154">
        <ele>584.79998779297</ele>
        <time>2025-08-08T09:23:21.000Z</time>
      </trkpt>
      <trkpt lat="46.13006" lon="5.79133">
        <ele>585.79998779297</ele>
        <time>2025-08-08T09:23:32.000Z</time>
      </trkpt>
      <trkpt lat="46.12973" lon="5.79116">
        <ele>586.79998779297</ele>
        <time>2025-08-08T09:23:41.000Z</time>
      </trkpt>
      <trkpt lat="46.12938" lon="5.79097">
        <ele>587.79998779297</ele>
        <time>2025-08-08T09:23:51.000Z</time>
      </trkpt>
      <trkpt lat="46.12934" lon="5.79095">
        <ele>587.79998779297</ele>
        <time>2025-08-08T09:23:52.000Z</time>
      </trkpt>
      <trkpt lat="46.12912" lon="5.79082">
        <ele>588.79998779297</ele>
        <time>2025-08-08T09:23:58.000Z</time>
      </trkpt>
      <trkpt lat="46.12897" lon="5.79074">
        <ele>589</ele>
        <time>2025-08-08T09:24:02.000Z</time>
      </trkpt>
      <trkpt lat="46.12861" lon="5.79052">
        <ele>588.79998779297</ele>
        <time>2025-08-08T09:24:11.000Z</time>
      </trkpt>
      <trkpt lat="46.12827" lon="5.79034">
        <ele>588.20001220703</ele>
        <time>2025-08-08T09:24:18.000Z</time>
      </trkpt>
      <trkpt lat="46.128" lon="5.7902">
        <ele>587.79998779297</ele>
        <time>2025-08-08T09:24:23.000Z</time>
      </trkpt>
      <trkpt lat="46.12783" lon="5.79011">
        <ele>587.59997558594</ele>
        <time>2025-08-08T09:24:26.000Z</time>
      </trkpt>
      <trkpt lat="46.12729" lon="5.78983">
        <ele>587.20001220703</ele>
        <time>2025-08-08T09:24:35.000Z</time>
      </trkpt>
      <trkpt lat="46.12697" lon="5.78966">
        <ele>586.79998779297</ele>
        <time>2025-08-08T09:24:40.000Z</time>
      </trkpt>
      <trkpt lat="46.12664" lon="5.78949">
        <ele>586</ele>
        <time>2025-08-08T09:24:45.000Z</time>
      </trkpt>
      <trkpt lat="46.12651" lon="5.78942">
        <ele>585.59997558594</ele>
        <time>2025-08-08T09:24:47.000Z</time>
      </trkpt>
      <trkpt lat="46.12598" lon="5.78913">
        <ele>585</ele>
        <time>2025-08-08T09:24:55.000Z</time>
      </trkpt>
      <trkpt lat="46.12591" lon="5.78909">
        <ele>585</ele>
        <time>2025-08-08T09:24:56.000Z</time>
      </trkpt>
      <trkpt lat="46.12557" lon="5.78891">
        <ele>584.59997558594</ele>
        <time>2025-08-08T09:25:01.000Z</time>
      </trkpt>
      <trkpt lat="46.12503" lon="5.78862">
        <ele>583.79998779297</ele>
        <time>2025-08-08T09:25:09.000Z</time>
      </trkpt>
      <trkpt lat="46.12462" lon="5.78841">
        <ele>583.59997558594</ele>
        <time>2025-08-08T09:25:15.000Z</time>
      </trkpt>
      <trkpt lat="46.12432" lon="5.78825">
        <ele>583</ele>
        <time>2025-08-08T09:25:19.000Z</time>
      </trkpt>
      <trkpt lat="46.12424" lon="5.78821">
        <ele>582.20001220703</ele>
        <time>2025-08-08T09:25:20.000Z</time>
      </trkpt>
      <trkpt lat="46.12376" lon="5.78797">
        <ele>581</ele>
        <time>2025-08-08T09:25:26.000Z</time>
      </trkpt>
      <trkpt lat="46.12368" lon="5.78793">
        <ele>580.79998779297</ele>
        <time>2025-08-08T09:25:27.000Z</time>
      </trkpt>
      <trkpt lat="46.12352" lon="5.78784">
        <ele>580</ele>
        <time>2025-08-08T09:25:29.000Z</time>
      </trkpt>
      <trkpt lat="46.12327" lon="5.7877">
        <ele>578.79998779297</ele>
        <time>2025-08-08T09:25:32.000Z</time>
      </trkpt>
      <trkpt lat="46.123" lon="5.78755">
        <ele>577.59997558594</ele>
        <time>2025-08-08T09:25:35.000Z</time>
      </trkpt>
      <trkpt lat="46.12272" lon="5.7874">
        <ele>576</ele>
        <time>2025-08-08T09:25:38.000Z</time>
      </trkpt>
      <trkpt lat="46.12253" lon="5.7873">
        <ele>574.59997558594</ele>
        <time>2025-08-08T09:25:40.000Z</time>
      </trkpt>
      <trkpt lat="46.12244" lon="5.78725">
        <ele>574.20001220703</ele>
        <time>2025-08-08T09:25:41.000Z</time>
      </trkpt>
      <trkpt lat="46.12235" lon="5.78721">
        <ele>573.40002441406</ele>
        <time>2025-08-08T09:25:42.000Z</time>
      </trkpt>
      <trkpt lat="46.12216" lon="5.78711">
        <ele>572.20001220703</ele>
        <time>2025-08-08T09:25:44.000Z</time>
      </trkpt>
      <trkpt lat="46.1219" lon="5.78697">
        <ele>571.20001220703</ele>
        <time>2025-08-08T09:25:47.000Z</time>
      </trkpt>
      <trkpt lat="46.12173" lon="5.78688">
        <ele>570.59997558594</ele>
        <time>2025-08-08T09:25:49.000Z</time>
      </trkpt>
      <trkpt lat="46.12157" lon="5.78679">
        <ele>570</ele>
        <time>2025-08-08T09:25:51.000Z</time>
      </trkpt>
      <trkpt lat="46.12099" lon="5.7865">
        <ele>569</ele>
        <time>2025-08-08T09:25:58.000Z</time>
      </trkpt>
      <trkpt lat="46.12082" lon="5.78641">
        <ele>568.59997558594</ele>
        <time>2025-08-08T09:26:00.000Z</time>
      </trkpt>
      <trkpt lat="46.12027" lon="5.78612">
        <ele>568</ele>
        <time>2025-08-08T09:26:07.000Z</time>
      </trkpt>
      <trkpt lat="46.12012" lon="5.78604">
        <ele>567.79998779297</ele>
        <time>2025-08-08T09:26:09.000Z</time>
      </trkpt>
      <trkpt lat="46.12005" lon="5.786">
        <ele>567.59997558594</ele>
        <time>2025-08-08T09:26:10.000Z</time>
      </trkpt>
      <trkpt lat="46.11973" lon="5.78583">
        <ele>567.59997558594</ele>
        <time>2025-08-08T09:26:15.000Z</time>
      </trkpt>
      <trkpt lat="46.11921" lon="5.78555">
        <ele>568.40002441406</ele>
        <time>2025-08-08T09:26:24.000Z</time>
      </trkpt>
      <trkpt lat="46.11904" lon="5.78546">
        <ele>568.79998779297</ele>
        <time>2025-08-08T09:26:27.000Z</time>
      </trkpt>
      <trkpt lat="46.11878" lon="5.78533">
        <ele>569.20001220703</ele>
        <time>2025-08-08T09:26:32.000Z</time>
      </trkpt>
      <trkpt lat="46.11834" lon="5.78508">
        <ele>569.79998779297</ele>
        <time>2025-08-08T09:26:41.000Z</time>
      </trkpt>
      <trkpt lat="46.1183" lon="5.78506">
        <ele>570</ele>
        <time>2025-08-08T09:26:42.000Z</time>
      </trkpt>
      <trkpt lat="46.11806" lon="5.78493">
        <ele>571.20001220703</ele>
        <time>2025-08-08T09:26:48.000Z</time>
      </trkpt>
      <trkpt lat="46.11795" lon="5.78486">
        <ele>571.79998779297</ele>
        <time>2025-08-08T09:26:51.000Z</time>
      </trkpt>
      <trkpt lat="46.11782" lon="5.78479">
        <ele>572.40002441406</ele>
        <time>2025-08-08T09:26:55.000Z</time>
      </trkpt>
      <trkpt lat="46.11748" lon="5.7846">
        <ele>573.40002441406</ele>
        <time>2025-08-08T09:27:03.000Z</time>
      </trkpt>
      <trkpt lat="46.11743" lon="5.78457">
        <ele>573.40002441406</ele>
        <time>2025-08-08T09:27:04.000Z</time>
      </trkpt>
      <trkpt lat="46.11738" lon="5.78454">
        <ele>573.40002441406</ele>
        <time>2025-08-08T09:27:05.000Z</time>
      </trkpt>
      <trkpt lat="46.1171" lon="5.78441">
        <ele>573.59997558594</ele>
        <time>2025-08-08T09:27:10.000Z</time>
      </trkpt>
      <trkpt lat="46.1167" lon="5.78424">
        <ele>573.20001220703</ele>
        <time>2025-08-08T09:27:17.000Z</time>
      </trkpt>
      <trkpt lat="46.11641" lon="5.78409">
        <ele>572.79998779297</ele>
        <time>2025-08-08T09:27:22.000Z</time>
      </trkpt>
      <trkpt lat="46.11636" lon="5.78405">
        <ele>572.79998779297</ele>
        <time>2025-08-08T09:27:23.000Z</time>
      </trkpt>
      <trkpt lat="46.11599" lon="5.78385">
        <ele>572.59997558594</ele>
        <time>2025-08-08T09:27:30.000Z</time>
      </trkpt>
      <trkpt lat="46.1156" lon="5.78365">
        <ele>573.20001220703</ele>
        <time>2025-08-08T09:27:38.000Z</time>
      </trkpt>
      <trkpt lat="46.11535" lon="5.78352">
        <ele>573.79998779297</ele>
        <time>2025-08-08T09:27:44.000Z</time>
      </trkpt>
      <trkpt lat="46.11532" lon="5.7835">
        <ele>574</ele>
        <time>2025-08-08T09:27:45.000Z</time>
      </trkpt>
      <trkpt lat="46.11525" lon="5.78345">
        <ele>574.59997558594</ele>
        <time>2025-08-08T09:27:47.000Z</time>
      </trkpt>
      <trkpt lat="46.11518" lon="5.78341">
        <ele>574.79998779297</ele>
        <time>2025-08-08T09:27:49.000Z</time>
      </trkpt>
      <trkpt lat="46.11501" lon="5.78329">
        <ele>575.59997558594</ele>
        <time>2025-08-08T09:27:54.000Z</time>
      </trkpt>
      <trkpt lat="46.11493" lon="5.78326">
        <ele>576</ele>
        <time>2025-08-08T09:27:56.000Z</time>
      </trkpt>
      <trkpt lat="46.11459" lon="5.78309">
        <ele>576.59997558594</ele>
        <time>2025-08-08T09:28:03.000Z</time>
      </trkpt>
      <trkpt lat="46.11454" lon="5.78306">
        <ele>576.59997558594</ele>
        <time>2025-08-08T09:28:04.000Z</time>
      </trkpt>
      <trkpt lat="46.11417" lon="5.7829">
        <ele>576.79998779297</ele>
        <time>2025-08-08T09:28:12.000Z</time>
      </trkpt>
      <trkpt lat="46.11395" lon="5.78279">
        <ele>577.20001220703</ele>
        <time>2025-08-08T09:28:18.000Z</time>
      </trkpt>
      <trkpt lat="46.11392" lon="5.78278">
        <ele>577.59997558594</ele>
        <time>2025-08-08T09:28:19.000Z</time>
      </trkpt>
      <trkpt lat="46.1137" lon="5.78267">
        <ele>578.59997558594</ele>
        <time>2025-08-08T09:28:25.000Z</time>
      </trkpt>
      <trkpt lat="46.11363" lon="5.78263">
        <ele>578.79998779297</ele>
        <time>2025-08-08T09:28:27.000Z</time>
      </trkpt>
      <trkpt lat="46.11337" lon="5.78249">
        <ele>579.59997558594</ele>
        <time>2025-08-08T09:28:33.000Z</time>
      </trkpt>
      <trkpt lat="46.11328" lon="5.78245">
        <ele>579.79998779297</ele>
        <time>2025-08-08T09:28:35.000Z</time>
      </trkpt>
      <trkpt lat="46.113" lon="5.78231">
        <ele>580</ele>
        <time>2025-08-08T09:28:41.000Z</time>
      </trkpt>
      <trkpt lat="46.11286" lon="5.78223">
        <ele>580.20001220703</ele>
        <time>2025-08-08T09:28:44.000Z</time>
      </trkpt>
      <trkpt lat="46.11273" lon="5.78215">
        <ele>580.20001220703</ele>
        <time>2025-08-08T09:28:47.000Z</time>
      </trkpt>
      <trkpt lat="46.11246" lon="5.78202">
        <ele>580.79998779297</ele>
        <time>2025-08-08T09:28:53.000Z</time>
      </trkpt>
      <trkpt lat="46.11242" lon="5.782">
        <ele>580.79998779297</ele>
        <time>2025-08-08T09:28:54.000Z</time>
      </trkpt>
      <trkpt lat="46.11239" lon="5.78197">
        <ele>580.79998779297</ele>
        <time>2025-08-08T09:28:55.000Z</time>
      </trkpt>
      <trkpt lat="46.11221" lon="5.78185">
        <ele>581.79998779297</ele>
        <time>2025-08-08T09:29:00.000Z</time>
      </trkpt>
      <trkpt lat="46.11213" lon="5.7818">
        <ele>582.20001220703</ele>
        <time>2025-08-08T09:29:02.000Z</time>
      </trkpt>
      <trkpt lat="46.11188" lon="5.78167">
        <ele>582.59997558594</ele>
        <time>2025-08-08T09:29:08.000Z</time>
      </trkpt>
      <trkpt lat="46.1118" lon="5.78162">
        <ele>582.79998779297</ele>
        <time>2025-08-08T09:29:10.000Z</time>
      </trkpt>
      <trkpt lat="46.11152" lon="5.78151">
        <ele>583.59997558594</ele>
        <time>2025-08-08T09:29:16.000Z</time>
      </trkpt>
      <trkpt lat="46.11111" lon="5.78129">
        <ele>583.79998779297</ele>
        <time>2025-08-08T09:29:24.000Z</time>
      </trkpt>
      <trkpt lat="46.11057" lon="5.781">
        <ele>583.59997558594</ele>
        <time>2025-08-08T09:29:34.000Z</time>
      </trkpt>
      <trkpt lat="46.11004" lon="5.78071">
        <ele>583.59997558594</ele>
        <time>2025-08-08T09:29:44.000Z</time>
      </trkpt>
      <trkpt lat="46.10984" lon="5.7806">
        <ele>583.79998779297</ele>
        <time>2025-08-08T09:29:48.000Z</time>
      </trkpt>
      <trkpt lat="46.10952" lon="5.78045">
        <ele>584.79998779297</ele>
        <time>2025-08-08T09:29:55.000Z</time>
      </trkpt>
      <trkpt lat="46.10948" lon="5.78042">
        <ele>584.79998779297</ele>
        <time>2025-08-08T09:29:56.000Z</time>
      </trkpt>
      <trkpt lat="46.10921" lon="5.78028">
        <ele>586</ele>
        <time>2025-08-08T09:30:02.000Z</time>
      </trkpt>
      <trkpt lat="46.10917" lon="5.78025">
        <ele>586</ele>
        <time>2025-08-08T09:30:03.000Z</time>
      </trkpt>
      <trkpt lat="46.10886" lon="5.78007">
        <ele>586.59997558594</ele>
        <time>2025-08-08T09:30:10.000Z</time>
      </trkpt>
      <trkpt lat="46.10852" lon="5.77992">
        <ele>587.20001220703</ele>
        <time>2025-08-08T09:30:17.000Z</time>
      </trkpt>
      <trkpt lat="46.10842" lon="5.77987">
        <ele>587.20001220703</ele>
        <time>2025-08-08T09:30:19.000Z</time>
      </trkpt>
      <trkpt lat="46.108" lon="5.77971">
        <ele>587.59997558594</ele>
        <time>2025-08-08T09:30:27.000Z</time>
      </trkpt>
      <trkpt lat="46.10775" lon="5.77962">
        <ele>587.79998779297</ele>
        <time>2025-08-08T09:30:32.000Z</time>
      </trkpt>
      <trkpt lat="46.10765" lon="5.77956">
        <ele>588</ele>
        <time>2025-08-08T09:30:34.000Z</time>
      </trkpt>
      <trkpt lat="46.10761" lon="5.77952">
        <ele>588.20001220703</ele>
        <time>2025-08-08T09:30:35.000Z</time>
      </trkpt>
      <trkpt lat="46.10752" lon="5.77941">
        <ele>588.40002441406</ele>
        <time>2025-08-08T09:30:38.000Z</time>
      </trkpt>
      <trkpt lat="46.10749" lon="5.77938">
        <ele>588.40002441406</ele>
        <time>2025-08-08T09:30:39.000Z</time>
      </trkpt>
      <trkpt lat="46.10739" lon="5.77928">
        <ele>589.40002441406</ele>
        <time>2025-08-08T09:30:42.000Z</time>
      </trkpt>
      <trkpt lat="46.10732" lon="5.7792">
        <ele>589.79998779297</ele>
        <time>2025-08-08T09:30:44.000Z</time>
      </trkpt>
      <trkpt lat="46.10724" lon="5.77899">
        <ele>590.40002441406</ele>
        <time>2025-08-08T09:30:48.000Z</time>
      </trkpt>
      <trkpt lat="46.10722" lon="5.77894">
        <ele>590.40002441406</ele>
        <time>2025-08-08T09:30:49.000Z</time>
      </trkpt>
      <trkpt lat="46.1072" lon="5.77889">
        <ele>590.59997558594</ele>
        <time>2025-08-08T09:30:50.000Z</time>
      </trkpt>
      <trkpt lat="46.10709" lon="5.77877">
        <ele>591.20001220703</ele>
        <time>2025-08-08T09:30:53.000Z</time>
      </trkpt>
      <trkpt lat="46.10705" lon="5.77874">
        <ele>591.20001220703</ele>
        <time>2025-08-08T09:30:54.000Z</time>
      </trkpt>
      <trkpt lat="46.10678" lon="5.77858">
        <ele>591.40002441406</ele>
        <time>2025-08-08T09:30:59.000Z</time>
      </trkpt>
      <trkpt lat="46.10641" lon="5.77844">
        <ele>591</ele>
        <time>2025-08-08T09:31:05.000Z</time>
      </trkpt>
      <trkpt lat="46.10596" lon="5.77831">
        <ele>589.79998779297</ele>
        <time>2025-08-08T09:31:12.000Z</time>
      </trkpt>
      <trkpt lat="46.10583" lon="5.77827">
        <ele>589.20001220703</ele>
        <time>2025-08-08T09:31:14.000Z</time>
      </trkpt>
      <trkpt lat="46.1054" lon="5.77814">
        <ele>588.59997558594</ele>
        <time>2025-08-08T09:31:21.000Z</time>
      </trkpt>
      <trkpt lat="46.10496" lon="5.77802">
        <ele>589.20001220703</ele>
        <time>2025-08-08T09:31:29.000Z</time>
      </trkpt>
      <trkpt lat="46.10448" lon="5.7779">
        <ele>590</ele>
        <time>2025-08-08T09:31:38.000Z</time>
      </trkpt>
      <trkpt lat="46.10432" lon="5.77787">
        <ele>590.20001220703</ele>
        <time>2025-08-08T09:31:41.000Z</time>
      </trkpt>
      <trkpt lat="46.10427" lon="5.77785">
        <ele>590.40002441406</ele>
        <time>2025-08-08T09:31:42.000Z</time>
      </trkpt>
      <trkpt lat="46.10412" lon="5.77779">
        <ele>590.59997558594</ele>
        <time>2025-08-08T09:31:45.000Z</time>
      </trkpt>
      <trkpt lat="46.10376" lon="5.77769">
        <ele>591.20001220703</ele>
        <time>2025-08-08T09:31:52.000Z</time>
      </trkpt>
      <trkpt lat="46.10371" lon="5.77768">
        <ele>591.40002441406</ele>
        <time>2025-08-08T09:31:53.000Z</time>
      </trkpt>
      <trkpt lat="46.10343" lon="5.77759">
        <ele>591.59997558594</ele>
        <time>2025-08-08T09:31:58.000Z</time>
      </trkpt>
      <trkpt lat="46.10302" lon="5.77745">
        <ele>591.40002441406</ele>
        <time>2025-08-08T09:32:04.000Z</time>
      </trkpt>
      <trkpt lat="46.10248" lon="5.7773">
        <ele>590.20001220703</ele>
        <time>2025-08-08T09:32:11.000Z</time>
      </trkpt>
      <trkpt lat="46.10241" lon="5.77729">
        <ele>590</ele>
        <time>2025-08-08T09:32:12.000Z</time>
      </trkpt>
      <trkpt lat="46.10195" lon="5.77716">
        <ele>589</ele>
        <time>2025-08-08T09:32:18.000Z</time>
      </trkpt>
      <trkpt lat="46.10151" lon="5.77703">
        <ele>588.79998779297</ele>
        <time>2025-08-08T09:32:24.000Z</time>
      </trkpt>
      <trkpt lat="46.10097" lon="5.77689">
        <ele>589</ele>
        <time>2025-08-08T09:32:32.000Z</time>
      </trkpt>
      <trkpt lat="46.10091" lon="5.77687">
        <ele>589</ele>
        <time>2025-08-08T09:32:33.000Z</time>
      </trkpt>
      <trkpt lat="46.10036" lon="5.77673">
        <ele>589.59997558594</ele>
        <time>2025-08-08T09:32:42.000Z</time>
      </trkpt>
      <trkpt lat="46.09977" lon="5.77655">
        <ele>589.59997558594</ele>
        <time>2025-08-08T09:32:51.000Z</time>
      </trkpt>
      <trkpt lat="46.09921" lon="5.77639">
        <ele>589.79998779297</ele>
        <time>2025-08-08T09:33:00.000Z</time>
      </trkpt>
      <trkpt lat="46.09903" lon="5.77634">
        <ele>590.20001220703</ele>
        <time>2025-08-08T09:33:03.000Z</time>
      </trkpt>
      <trkpt lat="46.09866" lon="5.77622">
        <ele>590.79998779297</ele>
        <time>2025-08-08T09:33:10.000Z</time>
      </trkpt>
      <trkpt lat="46.09857" lon="5.77619">
        <ele>591.20001220703</ele>
        <time>2025-08-08T09:33:12.000Z</time>
      </trkpt>
      <trkpt lat="46.09828" lon="5.77608">
        <ele>592</ele>
        <time>2025-08-08T09:33:18.000Z</time>
      </trkpt>
      <trkpt lat="46.09814" lon="5.77603">
        <ele>592.20001220703</ele>
        <time>2025-08-08T09:33:21.000Z</time>
      </trkpt>
      <trkpt lat="46.09795" lon="5.77597">
        <ele>593</ele>
        <time>2025-08-08T09:33:25.000Z</time>
      </trkpt>
      <trkpt lat="46.09781" lon="5.77592">
        <ele>593.20001220703</ele>
        <time>2025-08-08T09:33:28.000Z</time>
      </trkpt>
      <trkpt lat="46.09776" lon="5.77591">
        <ele>593.40002441406</ele>
        <time>2025-08-08T09:33:29.000Z</time>
      </trkpt>
      <trkpt lat="46.09762" lon="5.77586">
        <ele>593.79998779297</ele>
        <time>2025-08-08T09:33:32.000Z</time>
      </trkpt>
      <trkpt lat="46.09739" lon="5.77579">
        <ele>594.40002441406</ele>
        <time>2025-08-08T09:33:37.000Z</time>
      </trkpt>
      <trkpt lat="46.09714" lon="5.77571">
        <ele>595</ele>
        <time>2025-08-08T09:33:42.000Z</time>
      </trkpt>
      <trkpt lat="46.09688" lon="5.77564">
        <ele>595.59997558594</ele>
        <time>2025-08-08T09:33:47.000Z</time>
      </trkpt>
      <trkpt lat="46.09679" lon="5.77562">
        <ele>595.59997558594</ele>
        <time>2025-08-08T09:33:49.000Z</time>
      </trkpt>
      <trkpt lat="46.09663" lon="5.77557">
        <ele>595.79998779297</ele>
        <time>2025-08-08T09:33:52.000Z</time>
      </trkpt>
      <trkpt lat="46.09632" lon="5.77549">
        <ele>596</ele>
        <time>2025-08-08T09:33:57.000Z</time>
      </trkpt>
      <trkpt lat="46.09598" lon="5.77538">
        <ele>595.59997558594</ele>
        <time>2025-08-08T09:34:02.000Z</time>
      </trkpt>
      <trkpt lat="46.09541" lon="5.77521">
        <ele>594.59997558594</ele>
        <time>2025-08-08T09:34:09.000Z</time>
      </trkpt>
      <trkpt lat="46.09533" lon="5.77519">
        <ele>594.40002441406</ele>
        <time>2025-08-08T09:34:10.000Z</time>
      </trkpt>
      <trkpt lat="46.09515" lon="5.77514">
        <ele>593.40002441406</ele>
        <time>2025-08-08T09:34:12.000Z</time>
      </trkpt>
      <trkpt lat="46.0948" lon="5.77505">
        <ele>591.79998779297</ele>
        <time>2025-08-08T09:34:16.000Z</time>
      </trkpt>
      <trkpt lat="46.09462" lon="5.77499">
        <ele>590.79998779297</ele>
        <time>2025-08-08T09:34:18.000Z</time>
      </trkpt>
      <trkpt lat="46.09425" lon="5.77489">
        <ele>589.59997558594</ele>
        <time>2025-08-08T09:34:22.000Z</time>
      </trkpt>
      <trkpt lat="46.09407" lon="5.77484">
        <ele>588.59997558594</ele>
        <time>2025-08-08T09:34:24.000Z</time>
      </trkpt>
      <trkpt lat="46.09379" lon="5.77476">
        <ele>587</ele>
        <time>2025-08-08T09:34:27.000Z</time>
      </trkpt>
      <trkpt lat="46.0937" lon="5.77473">
        <ele>586.59997558594</ele>
        <time>2025-08-08T09:34:28.000Z</time>
      </trkpt>
      <trkpt lat="46.09351" lon="5.77468">
        <ele>585.79998779297</ele>
        <time>2025-08-08T09:34:30.000Z</time>
      </trkpt>
      <trkpt lat="46.09313" lon="5.77456">
        <ele>584.79998779297</ele>
        <time>2025-08-08T09:34:34.000Z</time>
      </trkpt>
      <trkpt lat="46.09303" lon="5.77452">
        <ele>584.40002441406</ele>
        <time>2025-08-08T09:34:35.000Z</time>
      </trkpt>
      <trkpt lat="46.09294" lon="5.77449">
        <ele>583.79998779297</ele>
        <time>2025-08-08T09:34:36.000Z</time>
      </trkpt>
      <trkpt lat="46.09266" lon="5.77435">
        <ele>582.40002441406</ele>
        <time>2025-08-08T09:34:39.000Z</time>
      </trkpt>
      <trkpt lat="46.09248" lon="5.77424">
        <ele>581.20001220703</ele>
        <time>2025-08-08T09:34:41.000Z</time>
      </trkpt>
      <trkpt lat="46.09221" lon="5.77405">
        <ele>580.20001220703</ele>
        <time>2025-08-08T09:34:44.000Z</time>
      </trkpt>
      <trkpt lat="46.09187" lon="5.77377">
        <ele>578.40002441406</ele>
        <time>2025-08-08T09:34:48.000Z</time>
      </trkpt>
      <trkpt lat="46.09169" lon="5.77363">
        <ele>577.20001220703</ele>
        <time>2025-08-08T09:34:50.000Z</time>
      </trkpt>
      <trkpt lat="46.09135" lon="5.77334">
        <ele>576</ele>
        <time>2025-08-08T09:34:54.000Z</time>
      </trkpt>
      <trkpt lat="46.09127" lon="5.77328">
        <ele>575.59997558594</ele>
        <time>2025-08-08T09:34:55.000Z</time>
      </trkpt>
      <trkpt lat="46.09109" lon="5.77315">
        <ele>574.79998779297</ele>
        <time>2025-08-08T09:34:57.000Z</time>
      </trkpt>
      <trkpt lat="46.09082" lon="5.773">
        <ele>573.79998779297</ele>
        <time>2025-08-08T09:35:00.000Z</time>
      </trkpt>
      <trkpt lat="46.09072" lon="5.77295">
        <ele>573.20001220703</ele>
        <time>2025-08-08T09:35:01.000Z</time>
      </trkpt>
      <trkpt lat="46.09053" lon="5.77287">
        <ele>572.59997558594</ele>
        <time>2025-08-08T09:35:03.000Z</time>
      </trkpt>
      <trkpt lat="46.09026" lon="5.77276">
        <ele>571.20001220703</ele>
        <time>2025-08-08T09:35:06.000Z</time>
      </trkpt>
      <trkpt lat="46.09008" lon="5.7727">
        <ele>570.59997558594</ele>
        <time>2025-08-08T09:35:08.000Z</time>
      </trkpt>
      <trkpt lat="46.08991" lon="5.77267">
        <ele>570</ele>
        <time>2025-08-08T09:35:10.000Z</time>
      </trkpt>
      <trkpt lat="46.08957" lon="5.77263">
        <ele>569.59997558594</ele>
        <time>2025-08-08T09:35:14.000Z</time>
      </trkpt>
      <trkpt lat="46.08918" lon="5.77264">
        <ele>569.59997558594</ele>
        <time>2025-08-08T09:35:19.000Z</time>
      </trkpt>
      <trkpt lat="46.08865" lon="5.77274">
        <ele>569.79998779297</ele>
        <time>2025-08-08T09:35:26.000Z</time>
      </trkpt>
      <trkpt lat="46.08811" lon="5.77283">
        <ele>570.20001220703</ele>
        <time>2025-08-08T09:35:34.000Z</time>
      </trkpt>
      <trkpt lat="46.08758" lon="5.77285">
        <ele>570.59997558594</ele>
        <time>2025-08-08T09:35:42.000Z</time>
      </trkpt>
      <trkpt lat="46.08703" lon="5.77283">
        <ele>570.40002441406</ele>
        <time>2025-08-08T09:35:50.000Z</time>
      </trkpt>
      <trkpt lat="46.08695" lon="5.77283">
        <ele>570.20001220703</ele>
        <time>2025-08-08T09:35:51.000Z</time>
      </trkpt>
      <trkpt lat="46.08652" lon="5.77292">
        <ele>569.59997558594</ele>
        <time>2025-08-08T09:35:56.000Z</time>
      </trkpt>
      <trkpt lat="46.08633" lon="5.77299">
        <ele>568.59997558594</ele>
        <time>2025-08-08T09:35:58.000Z</time>
      </trkpt>
      <trkpt lat="46.08596" lon="5.77319">
        <ele>566.79998779297</ele>
        <time>2025-08-08T09:36:02.000Z</time>
      </trkpt>
      <trkpt lat="46.08586" lon="5.77326">
        <ele>565.59997558594</ele>
        <time>2025-08-08T09:36:03.000Z</time>
      </trkpt>
      <trkpt lat="46.08567" lon="5.7734">
        <ele>564.40002441406</ele>
        <time>2025-08-08T09:36:05.000Z</time>
      </trkpt>
      <trkpt lat="46.08549" lon="5.77356">
        <ele>563.40002441406</ele>
        <time>2025-08-08T09:36:07.000Z</time>
      </trkpt>
      <trkpt lat="46.08531" lon="5.77374">
        <ele>562</ele>
        <time>2025-08-08T09:36:09.000Z</time>
      </trkpt>
      <trkpt lat="46.08506" lon="5.77403">
        <ele>560.20001220703</ele>
        <time>2025-08-08T09:36:12.000Z</time>
      </trkpt>
      <trkpt lat="46.08489" lon="5.77424">
        <ele>558.79998779297</ele>
        <time>2025-08-08T09:36:14.000Z</time>
      </trkpt>
      <trkpt lat="46.08474" lon="5.77445">
        <ele>557.40002441406</ele>
        <time>2025-08-08T09:36:16.000Z</time>
      </trkpt>
      <trkpt lat="46.08458" lon="5.77465">
        <ele>556.20001220703</ele>
        <time>2025-08-08T09:36:18.000Z</time>
      </trkpt>
      <trkpt lat="46.08444" lon="5.77485">
        <ele>555</ele>
        <time>2025-08-08T09:36:20.000Z</time>
      </trkpt>
      <trkpt lat="46.08436" lon="5.77495">
        <ele>554.40002441406</ele>
        <time>2025-08-08T09:36:21.000Z</time>
      </trkpt>
      <trkpt lat="46.08421" lon="5.77513">
        <ele>553.40002441406</ele>
        <time>2025-08-08T09:36:23.000Z</time>
      </trkpt>
      <trkpt lat="46.08407" lon="5.77533">
        <ele>552.40002441406</ele>
        <time>2025-08-08T09:36:25.000Z</time>
      </trkpt>
      <trkpt lat="46.08386" lon="5.77562">
        <ele>551.20001220703</ele>
        <time>2025-08-08T09:36:28.000Z</time>
      </trkpt>
      <trkpt lat="46.08364" lon="5.77593">
        <ele>550.20001220703</ele>
        <time>2025-08-08T09:36:31.000Z</time>
      </trkpt>
      <trkpt lat="46.08333" lon="5.77633">
        <ele>548.59997558594</ele>
        <time>2025-08-08T09:36:35.000Z</time>
      </trkpt>
      <trkpt lat="46.08326" lon="5.77642">
        <ele>548.40002441406</ele>
        <time>2025-08-08T09:36:36.000Z</time>
      </trkpt>
      <trkpt lat="46.08312" lon="5.77661">
        <ele>547.20001220703</ele>
        <time>2025-08-08T09:36:38.000Z</time>
      </trkpt>
      <trkpt lat="46.0829" lon="5.7769">
        <ele>546</ele>
        <time>2025-08-08T09:36:41.000Z</time>
      </trkpt>
      <trkpt lat="46.08276" lon="5.7771">
        <ele>545</ele>
        <time>2025-08-08T09:36:43.000Z</time>
      </trkpt>
      <trkpt lat="46.08263" lon="5.77727">
        <ele>544.59997558594</ele>
        <time>2025-08-08T09:36:45.000Z</time>
      </trkpt>
      <trkpt lat="46.08231" lon="5.77768">
        <ele>544</ele>
        <time>2025-08-08T09:36:50.000Z</time>
      </trkpt>
      <trkpt lat="46.08205" lon="5.778">
        <ele>544</ele>
        <time>2025-08-08T09:36:55.000Z</time>
      </trkpt>
      <trkpt lat="46.0818" lon="5.77835">
        <ele>545.20001220703</ele>
        <time>2025-08-08T09:37:01.000Z</time>
      </trkpt>
      <trkpt lat="46.0815" lon="5.77878">
        <ele>545.59997558594</ele>
        <time>2025-08-08T09:37:08.000Z</time>
      </trkpt>
      <trkpt lat="46.08112" lon="5.77929">
        <ele>545.20001220703</ele>
        <time>2025-08-08T09:37:16.000Z</time>
      </trkpt>
      <trkpt lat="46.08073" lon="5.7798">
        <ele>544.59997558594</ele>
        <time>2025-08-08T09:37:24.000Z</time>
      </trkpt>
      <trkpt lat="46.08053" lon="5.78007">
        <ele>544.59997558594</ele>
        <time>2025-08-08T09:37:29.000Z</time>
      </trkpt>
      <trkpt lat="46.08035" lon="5.78032">
        <ele>545.79998779297</ele>
        <time>2025-08-08T09:37:35.000Z</time>
      </trkpt>
      <trkpt lat="46.08032" lon="5.78035">
        <ele>546</ele>
        <time>2025-08-08T09:37:36.000Z</time>
      </trkpt>
      <trkpt lat="46.0802" lon="5.78051">
        <ele>547.40002441406</ele>
        <time>2025-08-08T09:37:41.000Z</time>
      </trkpt>
      <trkpt lat="46.08014" lon="5.7806">
        <ele>548</ele>
        <time>2025-08-08T09:37:44.000Z</time>
      </trkpt>
      <trkpt lat="46.0801" lon="5.78066">
        <ele>548.40002441406</ele>
        <time>2025-08-08T09:37:46.000Z</time>
      </trkpt>
      <trkpt lat="46.07997" lon="5.78083">
        <ele>549.40002441406</ele>
        <time>2025-08-08T09:37:52.000Z</time>
      </trkpt>
      <trkpt lat="46.0798" lon="5.78106">
        <ele>550.79998779297</ele>
        <time>2025-08-08T09:37:59.000Z</time>
      </trkpt>
      <trkpt lat="46.07975" lon="5.78113">
        <ele>551</ele>
        <time>2025-08-08T09:38:01.000Z</time>
      </trkpt>
      <trkpt lat="46.07962" lon="5.78129">
        <ele>552</ele>
        <time>2025-08-08T09:38:06.000Z</time>
      </trkpt>
      <trkpt lat="46.07955" lon="5.78139">
        <ele>552.59997558594</ele>
        <time>2025-08-08T09:38:09.000Z</time>
      </trkpt>
      <trkpt lat="46.07948" lon="5.78148">
        <ele>553.20001220703</ele>
        <time>2025-08-08T09:38:12.000Z</time>
      </trkpt>
      <trkpt lat="46.07937" lon="5.78163">
        <ele>554.20001220703</ele>
        <time>2025-08-08T09:38:17.000Z</time>
      </trkpt>
      <trkpt lat="46.07934" lon="5.78166">
        <ele>554.40002441406</ele>
        <time>2025-08-08T09:38:18.000Z</time>
      </trkpt>
      <trkpt lat="46.07922" lon="5.78185">
        <ele>555.59997558594</ele>
        <time>2025-08-08T09:38:24.000Z</time>
      </trkpt>
      <trkpt lat="46.07921" lon="5.78188">
        <ele>555.59997558594</ele>
        <time>2025-08-08T09:38:25.000Z</time>
      </trkpt>
      <trkpt lat="46.07908" lon="5.78204">
        <ele>556.59997558594</ele>
        <time>2025-08-08T09:38:31.000Z</time>
      </trkpt>
      <trkpt lat="46.07904" lon="5.78211">
        <ele>557</ele>
        <time>2025-08-08T09:38:33.000Z</time>
      </trkpt>
      <trkpt lat="46.07896" lon="5.78222">
        <ele>557.79998779297</ele>
        <time>2025-08-08T09:38:37.000Z</time>
      </trkpt>
      <trkpt lat="46.07883" lon="5.78237">
        <ele>558.79998779297</ele>
        <time>2025-08-08T09:38:42.000Z</time>
      </trkpt>
      <trkpt lat="46.0787" lon="5.78251">
        <ele>559.79998779297</ele>
        <time>2025-08-08T09:38:47.000Z</time>
      </trkpt>
      <trkpt lat="46.0786" lon="5.78263">
        <ele>560.40002441406</ele>
        <time>2025-08-08T09:38:51.000Z</time>
      </trkpt>
      <trkpt lat="46.07851" lon="5.78276">
        <ele>561</ele>
        <time>2025-08-08T09:38:55.000Z</time>
      </trkpt>
      <trkpt lat="46.0784" lon="5.78293">
        <ele>562</ele>
        <time>2025-08-08T09:39:00.000Z</time>
      </trkpt>
      <trkpt lat="46.07838" lon="5.78296">
        <ele>562.20001220703</ele>
        <time>2025-08-08T09:39:01.000Z</time>
      </trkpt>
      <trkpt lat="46.07824" lon="5.78314">
        <ele>563.59997558594</ele>
        <time>2025-08-08T09:39:07.000Z</time>
      </trkpt>
      <trkpt lat="46.07821" lon="5.78316">
        <ele>563.79998779297</ele>
        <time>2025-08-08T09:39:08.000Z</time>
      </trkpt>
      <trkpt lat="46.07814" lon="5.78326">
        <ele>564.59997558594</ele>
        <time>2025-08-08T09:39:11.000Z</time>
      </trkpt>
      <trkpt lat="46.07797" lon="5.78349">
        <ele>565.59997558594</ele>
        <time>2025-08-08T09:39:18.000Z</time>
      </trkpt>
      <trkpt lat="46.07789" lon="5.78358">
        <ele>565.79998779297</ele>
        <time>2025-08-08T09:39:21.000Z</time>
      </trkpt>
      <trkpt lat="46.07781" lon="5.78373">
        <ele>566.20001220703</ele>
        <time>2025-08-08T09:39:25.000Z</time>
      </trkpt>
      <trkpt lat="46.07765" lon="5.78394">
        <ele>566.79998779297</ele>
        <time>2025-08-08T09:39:31.000Z</time>
      </trkpt>
      <trkpt lat="46.07755" lon="5.78398">
        <ele>566.79998779297</ele>
        <time>2025-08-08T09:39:34.000Z</time>
      </trkpt>
      <trkpt lat="46.07749" lon="5.784">
        <ele>567</ele>
        <time>2025-08-08T09:39:36.000Z</time>
      </trkpt>
      <trkpt lat="46.07728" lon="5.78402">
        <ele>566.79998779297</ele>
        <time>2025-08-08T09:39:41.000Z</time>
      </trkpt>
      <trkpt lat="46.07709" lon="5.78404">
        <ele>566.59997558594</ele>
        <time>2025-08-08T09:39:44.000Z</time>
      </trkpt>
      <trkpt lat="46.07703" lon="5.78405">
        <ele>566.20001220703</ele>
        <time>2025-08-08T09:39:45.000Z</time>
      </trkpt>
      <trkpt lat="46.07697" lon="5.78404">
        <ele>566</ele>
        <time>2025-08-08T09:39:46.000Z</time>
      </trkpt>
      <trkpt lat="46.0769" lon="5.78403">
        <ele>565.79998779297</ele>
        <time>2025-08-08T09:39:47.000Z</time>
      </trkpt>
      <trkpt lat="46.07676" lon="5.784">
        <ele>565.40002441406</ele>
        <time>2025-08-08T09:39:49.000Z</time>
      </trkpt>
      <trkpt lat="46.07661" lon="5.78395">
        <ele>564.79998779297</ele>
        <time>2025-08-08T09:39:51.000Z</time>
      </trkpt>
      <trkpt lat="46.07647" lon="5.7839">
        <ele>563.79998779297</ele>
        <time>2025-08-08T09:39:53.000Z</time>
      </trkpt>
      <trkpt lat="46.07631" lon="5.78384">
        <ele>562.59997558594</ele>
        <time>2025-08-08T09:39:55.000Z</time>
      </trkpt>
      <trkpt lat="46.07601" lon="5.78379">
        <ele>561.20001220703</ele>
        <time>2025-08-08T09:39:59.000Z</time>
      </trkpt>
      <trkpt lat="46.07573" lon="5.78373">
        <ele>560.20001220703</ele>
        <time>2025-08-08T09:40:03.000Z</time>
      </trkpt>
      <trkpt lat="46.07566" lon="5.78371">
        <ele>559.79998779297</ele>
        <time>2025-08-08T09:40:04.000Z</time>
      </trkpt>
      <trkpt lat="46.07543" lon="5.78368">
        <ele>559</ele>
        <time>2025-08-08T09:40:07.000Z</time>
      </trkpt>
      <trkpt lat="46.07518" lon="5.78364">
        <ele>557.40002441406</ele>
        <time>2025-08-08T09:40:10.000Z</time>
      </trkpt>
      <trkpt lat="46.07492" lon="5.78359">
        <ele>556</ele>
        <time>2025-08-08T09:40:13.000Z</time>
      </trkpt>
      <trkpt lat="46.07467" lon="5.78354">
        <ele>554.79998779297</ele>
        <time>2025-08-08T09:40:16.000Z</time>
      </trkpt>
      <trkpt lat="46.07459" lon="5.78352">
        <ele>554.40002441406</ele>
        <time>2025-08-08T09:40:17.000Z</time>
      </trkpt>
      <trkpt lat="46.07451" lon="5.7835">
        <ele>553.79998779297</ele>
        <time>2025-08-08T09:40:18.000Z</time>
      </trkpt>
      <trkpt lat="46.07443" lon="5.78349">
        <ele>552.79998779297</ele>
        <time>2025-08-08T09:40:19.000Z</time>
      </trkpt>
      <trkpt lat="46.07434" lon="5.78347">
        <ele>551.79998779297</ele>
        <time>2025-08-08T09:40:20.000Z</time>
      </trkpt>
      <trkpt lat="46.07417" lon="5.78343">
        <ele>550.59997558594</ele>
        <time>2025-08-08T09:40:22.000Z</time>
      </trkpt>
      <trkpt lat="46.07393" lon="5.78338">
        <ele>549.40002441406</ele>
        <time>2025-08-08T09:40:25.000Z</time>
      </trkpt>
      <trkpt lat="46.07378" lon="5.78335">
        <ele>548.40002441406</ele>
        <time>2025-08-08T09:40:27.000Z</time>
      </trkpt>
      <trkpt lat="46.0737" lon="5.78334">
        <ele>547.40002441406</ele>
        <time>2025-08-08T09:40:28.000Z</time>
      </trkpt>
      <trkpt lat="46.07353" lon="5.78331">
        <ele>546.20001220703</ele>
        <time>2025-08-08T09:40:30.000Z</time>
      </trkpt>
      <trkpt lat="46.07344" lon="5.78329">
        <ele>545</ele>
        <time>2025-08-08T09:40:31.000Z</time>
      </trkpt>
      <trkpt lat="46.07335" lon="5.78327">
        <ele>544.40002441406</ele>
        <time>2025-08-08T09:40:32.000Z</time>
      </trkpt>
      <trkpt lat="46.07326" lon="5.78325">
        <ele>544</ele>
        <time>2025-08-08T09:40:33.000Z</time>
      </trkpt>
      <trkpt lat="46.07309" lon="5.78322">
        <ele>542.79998779297</ele>
        <time>2025-08-08T09:40:35.000Z</time>
      </trkpt>
      <trkpt lat="46.07291" lon="5.78318">
        <ele>541.40002441406</ele>
        <time>2025-08-08T09:40:37.000Z</time>
      </trkpt>
      <trkpt lat="46.07274" lon="5.78313">
        <ele>540</ele>
        <time>2025-08-08T09:40:39.000Z</time>
      </trkpt>
      <trkpt lat="46.07265" lon="5.78309">
        <ele>539</ele>
        <time>2025-08-08T09:40:40.000Z</time>
      </trkpt>
      <trkpt lat="46.07256" lon="5.78305">
        <ele>538.79998779297</ele>
        <time>2025-08-08T09:40:41.000Z</time>
      </trkpt>
      <trkpt lat="46.07248" lon="5.78301">
        <ele>538.20001220703</ele>
        <time>2025-08-08T09:40:42.000Z</time>
      </trkpt>
      <trkpt lat="46.07239" lon="5.78298">
        <ele>538</ele>
        <time>2025-08-08T09:40:43.000Z</time>
      </trkpt>
      <trkpt lat="46.07229" lon="5.78297">
        <ele>537.59997558594</ele>
        <time>2025-08-08T09:40:44.000Z</time>
      </trkpt>
      <trkpt lat="46.0722" lon="5.78297">
        <ele>536.59997558594</ele>
        <time>2025-08-08T09:40:45.000Z</time>
      </trkpt>
      <trkpt lat="46.07201" lon="5.78296">
        <ele>535.20001220703</ele>
        <time>2025-08-08T09:40:47.000Z</time>
      </trkpt>
      <trkpt lat="46.07192" lon="5.78295">
        <ele>535</ele>
        <time>2025-08-08T09:40:48.000Z</time>
      </trkpt>
      <trkpt lat="46.07173" lon="5.78292">
        <ele>534</ele>
        <time>2025-08-08T09:40:50.000Z</time>
      </trkpt>
      <trkpt lat="46.07144" lon="5.78287">
        <ele>532.79998779297</ele>
        <time>2025-08-08T09:40:53.000Z</time>
      </trkpt>
      <trkpt lat="46.07115" lon="5.7828">
        <ele>531.40002441406</ele>
        <time>2025-08-08T09:40:56.000Z</time>
      </trkpt>
      <trkpt lat="46.07105" lon="5.78278">
        <ele>531.20001220703</ele>
        <time>2025-08-08T09:40:57.000Z</time>
      </trkpt>
      <trkpt lat="46.07077" lon="5.78273">
        <ele>530.40002441406</ele>
        <time>2025-08-08T09:41:00.000Z</time>
      </trkpt>
      <trkpt lat="46.07042" lon="5.78265">
        <ele>529.40002441406</ele>
        <time>2025-08-08T09:41:04.000Z</time>
      </trkpt>
      <trkpt lat="46.07034" lon="5.78264">
        <ele>529.20001220703</ele>
        <time>2025-08-08T09:41:05.000Z</time>
      </trkpt>
      <trkpt lat="46.06993" lon="5.78254">
        <ele>529</ele>
        <time>2025-08-08T09:41:11.000Z</time>
      </trkpt>
      <trkpt lat="46.06953" lon="5.78246">
        <ele>529.79998779297</ele>
        <time>2025-08-08T09:41:18.000Z</time>
      </trkpt>
      <trkpt lat="46.06928" lon="5.78241">
        <ele>530.40002441406</ele>
        <time>2025-08-08T09:41:23.000Z</time>
      </trkpt>
      <trkpt lat="46.06923" lon="5.78239">
        <ele>530.40002441406</ele>
        <time>2025-08-08T09:41:24.000Z</time>
      </trkpt>
      <trkpt lat="46.06895" lon="5.78233">
        <ele>531.59997558594</ele>
        <time>2025-08-08T09:41:30.000Z</time>
      </trkpt>
      <trkpt lat="46.06892" lon="5.78233">
        <ele>531.59997558594</ele>
        <time>2025-08-08T09:41:31.000Z</time>
      </trkpt>
      <trkpt lat="46.06866" lon="5.78226">
        <ele>532.79998779297</ele>
        <time>2025-08-08T09:41:37.000Z</time>
      </trkpt>
      <trkpt lat="46.06852" lon="5.78222">
        <ele>533.20001220703</ele>
        <time>2025-08-08T09:41:40.000Z</time>
      </trkpt>
      <trkpt lat="46.06835" lon="5.78218">
        <ele>534</ele>
        <time>2025-08-08T09:41:44.000Z</time>
      </trkpt>
      <trkpt lat="46.06811" lon="5.78214">
        <ele>534.40002441406</ele>
        <time>2025-08-08T09:41:49.000Z</time>
      </trkpt>
      <trkpt lat="46.06759" lon="5.78205">
        <ele>535.20001220703</ele>
        <time>2025-08-08T09:42:00.000Z</time>
      </trkpt>
      <trkpt lat="46.06754" lon="5.78204">
        <ele>535.20001220703</ele>
        <time>2025-08-08T09:42:01.000Z</time>
      </trkpt>
      <trkpt lat="46.06699" lon="5.78194">
        <ele>536</ele>
        <time>2025-08-08T09:42:12.000Z</time>
      </trkpt>
      <trkpt lat="46.06688" lon="5.78192">
        <ele>536</ele>
        <time>2025-08-08T09:42:14.000Z</time>
      </trkpt>
      <trkpt lat="46.06636" lon="5.78181">
        <ele>535.59997558594</ele>
        <time>2025-08-08T09:42:23.000Z</time>
      </trkpt>
      <trkpt lat="46.06579" lon="5.78169">
        <ele>535</ele>
        <time>2025-08-08T09:42:32.000Z</time>
      </trkpt>
      <trkpt lat="46.06573" lon="5.78167">
        <ele>535</ele>
        <time>2025-08-08T09:42:33.000Z</time>
      </trkpt>
      <trkpt lat="46.06515" lon="5.78153">
        <ele>534.20001220703</ele>
        <time>2025-08-08T09:42:42.000Z</time>
      </trkpt>
      <trkpt lat="46.06508" lon="5.78151">
        <ele>534</ele>
        <time>2025-08-08T09:42:43.000Z</time>
      </trkpt>
      <trkpt lat="46.06452" lon="5.78133">
        <ele>533</ele>
        <time>2025-08-08T09:42:51.000Z</time>
      </trkpt>
      <trkpt lat="46.06444" lon="5.78131">
        <ele>532.79998779297</ele>
        <time>2025-08-08T09:42:52.000Z</time>
      </trkpt>
      <trkpt lat="46.06411" lon="5.78119">
        <ele>532.40002441406</ele>
        <time>2025-08-08T09:42:57.000Z</time>
      </trkpt>
      <trkpt lat="46.06386" lon="5.78108">
        <ele>532.40002441406</ele>
        <time>2025-08-08T09:43:02.000Z</time>
      </trkpt>
      <trkpt lat="46.06376" lon="5.78105">
        <ele>532.79998779297</ele>
        <time>2025-08-08T09:43:04.000Z</time>
      </trkpt>
      <trkpt lat="46.0636" lon="5.781">
        <ele>533.59997558594</ele>
        <time>2025-08-08T09:43:07.000Z</time>
      </trkpt>
      <trkpt lat="46.0635" lon="5.78097">
        <ele>533.79998779297</ele>
        <time>2025-08-08T09:43:09.000Z</time>
      </trkpt>
      <trkpt lat="46.06345" lon="5.78094">
        <ele>533.79998779297</ele>
        <time>2025-08-08T09:43:10.000Z</time>
      </trkpt>
      <trkpt lat="46.0634" lon="5.78091">
        <ele>534</ele>
        <time>2025-08-08T09:43:11.000Z</time>
      </trkpt>
      <trkpt lat="46.06329" lon="5.78088">
        <ele>534.20001220703</ele>
        <time>2025-08-08T09:43:13.000Z</time>
      </trkpt>
      <trkpt lat="46.063" lon="5.78078">
        <ele>534.40002441406</ele>
        <time>2025-08-08T09:43:18.000Z</time>
      </trkpt>
      <trkpt lat="46.06268" lon="5.78066">
        <ele>534.79998779297</ele>
        <time>2025-08-08T09:43:24.000Z</time>
      </trkpt>
      <trkpt lat="46.06259" lon="5.78062">
        <ele>535</ele>
        <time>2025-08-08T09:43:26.000Z</time>
      </trkpt>
      <trkpt lat="46.06243" lon="5.78059">
        <ele>535.20001220703</ele>
        <time>2025-08-08T09:43:29.000Z</time>
      </trkpt>
      <trkpt lat="46.06234" lon="5.78058">
        <ele>535.40002441406</ele>
        <time>2025-08-08T09:43:31.000Z</time>
      </trkpt>
      <trkpt lat="46.06218" lon="5.78052">
        <ele>535.59997558594</ele>
        <time>2025-08-08T09:43:34.000Z</time>
      </trkpt>
      <trkpt lat="46.06203" lon="5.7805">
        <ele>536</ele>
        <time>2025-08-08T09:43:37.000Z</time>
      </trkpt>
      <trkpt lat="46.06194" lon="5.78046">
        <ele>536.20001220703</ele>
        <time>2025-08-08T09:43:39.000Z</time>
      </trkpt>
      <trkpt lat="46.06153" lon="5.78033">
        <ele>536.79998779297</ele>
        <time>2025-08-08T09:43:47.000Z</time>
      </trkpt>
      <trkpt lat="46.06149" lon="5.78032">
        <ele>537</ele>
        <time>2025-08-08T09:43:48.000Z</time>
      </trkpt>
      <trkpt lat="46.06123" lon="5.78023">
        <ele>537.59997558594</ele>
        <time>2025-08-08T09:43:53.000Z</time>
      </trkpt>
      <trkpt lat="46.06098" lon="5.78012">
        <ele>538</ele>
        <time>2025-08-08T09:43:58.000Z</time>
      </trkpt>
      <trkpt lat="46.06088" lon="5.78008">
        <ele>538.20001220703</ele>
        <time>2025-08-08T09:44:00.000Z</time>
      </trkpt>
      <trkpt lat="46.0605" lon="5.77995">
        <ele>538.79998779297</ele>
        <time>2025-08-08T09:44:07.000Z</time>
      </trkpt>
      <trkpt lat="46.06007" lon="5.7798">
        <ele>538.79998779297</ele>
        <time>2025-08-08T09:44:15.000Z</time>
      </trkpt>
      <trkpt lat="46.05975" lon="5.7797">
        <ele>539.20001220703</ele>
        <time>2025-08-08T09:44:21.000Z</time>
      </trkpt>
      <trkpt lat="46.05964" lon="5.77967">
        <ele>539.40002441406</ele>
        <time>2025-08-08T09:44:23.000Z</time>
      </trkpt>
      <trkpt lat="46.05941" lon="5.77957">
        <ele>540.20001220703</ele>
        <time>2025-08-08T09:44:27.000Z</time>
      </trkpt>
      <trkpt lat="46.05935" lon="5.77953">
        <ele>540.20001220703</ele>
        <time>2025-08-08T09:44:28.000Z</time>
      </trkpt>
      <trkpt lat="46.05929" lon="5.77949">
        <ele>540.20001220703</ele>
        <time>2025-08-08T09:44:29.000Z</time>
      </trkpt>
      <trkpt lat="46.05918" lon="5.77936">
        <ele>540.20001220703</ele>
        <time>2025-08-08T09:44:31.000Z</time>
      </trkpt>
      <trkpt lat="46.05913" lon="5.77927">
        <ele>539.79998779297</ele>
        <time>2025-08-08T09:44:32.000Z</time>
      </trkpt>
      <trkpt lat="46.05909" lon="5.77917">
        <ele>539.40002441406</ele>
        <time>2025-08-08T09:44:33.000Z</time>
      </trkpt>
      <trkpt lat="46.05906" lon="5.77906">
        <ele>538.79998779297</ele>
        <time>2025-08-08T09:44:34.000Z</time>
      </trkpt>
      <trkpt lat="46.05904" lon="5.77895">
        <ele>538.59997558594</ele>
        <time>2025-08-08T09:44:35.000Z</time>
      </trkpt>
      <trkpt lat="46.05895" lon="5.7786">
        <ele>537.40002441406</ele>
        <time>2025-08-08T09:44:38.000Z</time>
      </trkpt>
      <trkpt lat="46.05884" lon="5.77841">
        <ele>536.79998779297</ele>
        <time>2025-08-08T09:44:40.000Z</time>
      </trkpt>
      <trkpt lat="46.05868" lon="5.77831">
        <ele>536.20001220703</ele>
        <time>2025-08-08T09:44:42.000Z</time>
      </trkpt>
      <trkpt lat="46.05859" lon="5.7783">
        <ele>535.79998779297</ele>
        <time>2025-08-08T09:44:43.000Z</time>
      </trkpt>
      <trkpt lat="46.0585" lon="5.77833">
        <ele>535.59997558594</ele>
        <time>2025-08-08T09:44:44.000Z</time>
      </trkpt>
      <trkpt lat="46.05841" lon="5.77837">
        <ele>535.20001220703</ele>
        <time>2025-08-08T09:44:45.000Z</time>
      </trkpt>
      <trkpt lat="46.05833" lon="5.77843">
        <ele>534.79998779297</ele>
        <time>2025-08-08T09:44:46.000Z</time>
      </trkpt>
      <trkpt lat="46.05817" lon="5.77854">
        <ele>534</ele>
        <time>2025-08-08T09:44:48.000Z</time>
      </trkpt>
      <trkpt lat="46.05787" lon="5.77876">
        <ele>533.40002441406</ele>
        <time>2025-08-08T09:44:52.000Z</time>
      </trkpt>
      <trkpt lat="46.05773" lon="5.77885">
        <ele>533.20001220703</ele>
        <time>2025-08-08T09:44:54.000Z</time>
      </trkpt>
      <trkpt lat="46.05758" lon="5.77897">
        <ele>533</ele>
        <time>2025-08-08T09:44:56.000Z</time>
      </trkpt>
      <trkpt lat="46.0574" lon="5.7791">
        <ele>532.79998779297</ele>
        <time>2025-08-08T09:44:59.000Z</time>
      </trkpt>
      <trkpt lat="46.05731" lon="5.77917">
        <ele>533.20001220703</ele>
        <time>2025-08-08T09:45:01.000Z</time>
      </trkpt>
      <trkpt lat="46.05726" lon="5.77919">
        <ele>533.20001220703</ele>
        <time>2025-08-08T09:45:02.000Z</time>
      </trkpt>
      <trkpt lat="46.05708" lon="5.7793">
        <ele>534</ele>
        <time>2025-08-08T09:45:06.000Z</time>
      </trkpt>
      <trkpt lat="46.05691" lon="5.77939">
        <ele>535</ele>
        <time>2025-08-08T09:45:10.000Z</time>
      </trkpt>
      <trkpt lat="46.05668" lon="5.77952">
        <ele>535.79998779297</ele>
        <time>2025-08-08T09:45:15.000Z</time>
      </trkpt>
      <trkpt lat="46.0566" lon="5.77956">
        <ele>536</ele>
        <time>2025-08-08T09:45:17.000Z</time>
      </trkpt>
      <trkpt lat="46.05624" lon="5.77969">
        <ele>536.59997558594</ele>
        <time>2025-08-08T09:45:24.000Z</time>
      </trkpt>
      <trkpt lat="46.05587" lon="5.77971">
        <ele>536.40002441406</ele>
        <time>2025-08-08T09:45:30.000Z</time>
      </trkpt>
      <trkpt lat="46.05542" lon="5.77968">
        <ele>536</ele>
        <time>2025-08-08T09:45:37.000Z</time>
      </trkpt>
      <trkpt lat="46.05486" lon="5.77966">
        <ele>535.20001220703</ele>
        <time>2025-08-08T09:45:45.000Z</time>
      </trkpt>
      <trkpt lat="46.05425" lon="5.77962">
        <ele>534</ele>
        <time>2025-08-08T09:45:53.000Z</time>
      </trkpt>
      <trkpt lat="46.0541" lon="5.77961">
        <ele>533.79998779297</ele>
        <time>2025-08-08T09:45:55.000Z</time>
      </trkpt>
      <trkpt lat="46.05356" lon="5.77957">
        <ele>533</ele>
        <time>2025-08-08T09:46:02.000Z</time>
      </trkpt>
      <trkpt lat="46.05326" lon="5.77955">
        <ele>532.59997558594</ele>
        <time>2025-08-08T09:46:06.000Z</time>
      </trkpt>
      <trkpt lat="46.05303" lon="5.77952">
        <ele>532</ele>
        <time>2025-08-08T09:46:09.000Z</time>
      </trkpt>
      <trkpt lat="46.05263" lon="5.7795">
        <ele>531.20001220703</ele>
        <time>2025-08-08T09:46:14.000Z</time>
      </trkpt>
      <trkpt lat="46.05246" lon="5.77949">
        <ele>531</ele>
        <time>2025-08-08T09:46:16.000Z</time>
      </trkpt>
      <trkpt lat="46.05219" lon="5.77947">
        <ele>530.40002441406</ele>
        <time>2025-08-08T09:46:19.000Z</time>
      </trkpt>
      <trkpt lat="46.0521" lon="5.77947">
        <ele>529.79998779297</ele>
        <time>2025-08-08T09:46:20.000Z</time>
      </trkpt>
      <trkpt lat="46.0518" lon="5.77944">
        <ele>528.79998779297</ele>
        <time>2025-08-08T09:46:23.000Z</time>
      </trkpt>
      <trkpt lat="46.05156" lon="5.77943">
        <ele>527.59997558594</ele>
        <time>2025-08-08T09:46:26.000Z</time>
      </trkpt>
      <trkpt lat="46.0512" lon="5.77941">
        <ele>527</ele>
        <time>2025-08-08T09:46:31.000Z</time>
      </trkpt>
      <trkpt lat="46.05093" lon="5.77939">
        <ele>527.40002441406</ele>
        <time>2025-08-08T09:46:36.000Z</time>
      </trkpt>
      <trkpt lat="46.05061" lon="5.77937">
        <ele>528.59997558594</ele>
        <time>2025-08-08T09:46:42.000Z</time>
      </trkpt>
      <trkpt lat="46.05056" lon="5.77936">
        <ele>528.79998779297</ele>
        <time>2025-08-08T09:46:43.000Z</time>
      </trkpt>
      <trkpt lat="46.05051" lon="5.77936">
        <ele>528.79998779297</ele>
        <time>2025-08-08T09:46:44.000Z</time>
      </trkpt>
      <trkpt lat="46.04997" lon="5.77932">
        <ele>529.40002441406</ele>
        <time>2025-08-08T09:46:54.000Z</time>
      </trkpt>
      <trkpt lat="46.04991" lon="5.77932">
        <ele>529.40002441406</ele>
        <time>2025-08-08T09:46:55.000Z</time>
      </trkpt>
      <trkpt lat="46.04959" lon="5.77929">
        <ele>529.79998779297</ele>
        <time>2025-08-08T09:47:01.000Z</time>
      </trkpt>
      <trkpt lat="46.0495" lon="5.77929">
        <ele>530</ele>
        <time>2025-08-08T09:47:03.000Z</time>
      </trkpt>
      <trkpt lat="46.04919" lon="5.77927">
        <ele>530.59997558594</ele>
        <time>2025-08-08T09:47:09.000Z</time>
      </trkpt>
      <trkpt lat="46.04868" lon="5.77924">
        <ele>530.79998779297</ele>
        <time>2025-08-08T09:47:18.000Z</time>
      </trkpt>
      <trkpt lat="46.04863" lon="5.77924">
        <ele>531</ele>
        <time>2025-08-08T09:47:19.000Z</time>
      </trkpt>
      <trkpt lat="46.04858" lon="5.77923">
        <ele>531</ele>
        <time>2025-08-08T09:47:20.000Z</time>
      </trkpt>
      <trkpt lat="46.04842" lon="5.77921">
        <ele>531.20001220703</ele>
        <time>2025-08-08T09:47:23.000Z</time>
      </trkpt>
      <trkpt lat="46.04803" lon="5.7792">
        <ele>532</ele>
        <time>2025-08-08T09:47:30.000Z</time>
      </trkpt>
      <trkpt lat="46.04798" lon="5.77921">
        <ele>532.20001220703</ele>
        <time>2025-08-08T09:47:31.000Z</time>
      </trkpt>
      <trkpt lat="46.04792" lon="5.77922">
        <ele>532.20001220703</ele>
        <time>2025-08-08T09:47:32.000Z</time>
      </trkpt>
      <trkpt lat="46.04779" lon="5.77924">
        <ele>532.20001220703</ele>
        <time>2025-08-08T09:47:34.000Z</time>
      </trkpt>
      <trkpt lat="46.04759" lon="5.77929">
        <ele>532.20001220703</ele>
        <time>2025-08-08T09:47:37.000Z</time>
      </trkpt>
      <trkpt lat="46.04711" lon="5.77942">
        <ele>531.40002441406</ele>
        <time>2025-08-08T09:47:44.000Z</time>
      </trkpt>
      <trkpt lat="46.0469" lon="5.77948">
        <ele>531</ele>
        <time>2025-08-08T09:47:47.000Z</time>
      </trkpt>
      <trkpt lat="46.04642" lon="5.77961">
        <ele>530.59997558594</ele>
        <time>2025-08-08T09:47:54.000Z</time>
      </trkpt>
      <trkpt lat="46.04593" lon="5.77964">
        <ele>530.59997558594</ele>
        <time>2025-08-08T09:48:02.000Z</time>
      </trkpt>
      <trkpt lat="46.04567" lon="5.77961">
        <ele>531.20001220703</ele>
        <time>2025-08-08T09:48:07.000Z</time>
      </trkpt>
      <trkpt lat="46.04541" lon="5.77957">
        <ele>532.20001220703</ele>
        <time>2025-08-08T09:48:12.000Z</time>
      </trkpt>
      <trkpt lat="46.04519" lon="5.77955">
        <ele>532.79998779297</ele>
        <time>2025-08-08T09:48:16.000Z</time>
      </trkpt>
      <trkpt lat="46.04478" lon="5.77948">
        <ele>533.20001220703</ele>
        <time>2025-08-08T09:48:24.000Z</time>
      </trkpt>
      <trkpt lat="46.04473" lon="5.77947">
        <ele>533.40002441406</ele>
        <time>2025-08-08T09:48:25.000Z</time>
      </trkpt>
      <trkpt lat="46.04432" lon="5.77941">
        <ele>534.20001220703</ele>
        <time>2025-08-08T09:48:33.000Z</time>
      </trkpt>
      <trkpt lat="46.04427" lon="5.77941">
        <ele>534.40002441406</ele>
        <time>2025-08-08T09:48:34.000Z</time>
      </trkpt>
      <trkpt lat="46.04373" lon="5.77935">
        <ele>534.59997558594</ele>
        <time>2025-08-08T09:48:44.000Z</time>
      </trkpt>
      <trkpt lat="46.04315" lon="5.77926">
        <ele>534</ele>
        <time>2025-08-08T09:48:53.000Z</time>
      </trkpt>
      <trkpt lat="46.04284" lon="5.77923">
        <ele>533.20001220703</ele>
        <time>2025-08-08T09:48:57.000Z</time>
      </trkpt>
      <trkpt lat="46.04267" lon="5.77923">
        <ele>532.59997558594</ele>
        <time>2025-08-08T09:48:59.000Z</time>
      </trkpt>
      <trkpt lat="46.04251" lon="5.77925">
        <ele>532</ele>
        <time>2025-08-08T09:49:01.000Z</time>
      </trkpt>
      <trkpt lat="46.04216" lon="5.77932">
        <ele>531</ele>
        <time>2025-08-08T09:49:05.000Z</time>
      </trkpt>
      <trkpt lat="46.04184" lon="5.7794">
        <ele>529.79998779297</ele>
        <time>2025-08-08T09:49:09.000Z</time>
      </trkpt>
      <trkpt lat="46.04161" lon="5.77945">
        <ele>528.79998779297</ele>
        <time>2025-08-08T09:49:12.000Z</time>
      </trkpt>
      <trkpt lat="46.04154" lon="5.77947">
        <ele>528.59997558594</ele>
        <time>2025-08-08T09:49:13.000Z</time>
      </trkpt>
      <trkpt lat="46.0413" lon="5.77952">
        <ele>528.40002441406</ele>
        <time>2025-08-08T09:49:17.000Z</time>
      </trkpt>
      <trkpt lat="46.04108" lon="5.77959">
        <ele>529.40002441406</ele>
        <time>2025-08-08T09:49:22.000Z</time>
      </trkpt>
      <trkpt lat="46.04101" lon="5.77962">
        <ele>529.79998779297</ele>
        <time>2025-08-08T09:49:24.000Z</time>
      </trkpt>
      <trkpt lat="46.04081" lon="5.77966">
        <ele>531</ele>
        <time>2025-08-08T09:49:29.000Z</time>
      </trkpt>
      <trkpt lat="46.04055" lon="5.77973">
        <ele>532</ele>
        <time>2025-08-08T09:49:35.000Z</time>
      </trkpt>
      <trkpt lat="46.04051" lon="5.77974">
        <ele>532.20001220703</ele>
        <time>2025-08-08T09:49:36.000Z</time>
      </trkpt>
      <trkpt lat="46.04046" lon="5.77975">
        <ele>532.20001220703</ele>
        <time>2025-08-08T09:49:37.000Z</time>
      </trkpt>
      <trkpt lat="46.04019" lon="5.77983">
        <ele>532.40002441406</ele>
        <time>2025-08-08T09:49:42.000Z</time>
      </trkpt>
      <trkpt lat="46.03973" lon="5.77993">
        <ele>531.79998779297</ele>
        <time>2025-08-08T09:49:49.000Z</time>
      </trkpt>
      <trkpt lat="46.03944" lon="5.78001">
        <ele>531</ele>
        <time>2025-08-08T09:49:53.000Z</time>
      </trkpt>
      <trkpt lat="46.03929" lon="5.78005">
        <ele>530.79998779297</ele>
        <time>2025-08-08T09:49:55.000Z</time>
      </trkpt>
      <trkpt lat="46.03904" lon="5.78011">
        <ele>530</ele>
        <time>2025-08-08T09:49:58.000Z</time>
      </trkpt>
      <trkpt lat="46.03879" lon="5.78017">
        <ele>529.20001220703</ele>
        <time>2025-08-08T09:50:01.000Z</time>
      </trkpt>
      <trkpt lat="46.0387" lon="5.78019">
        <ele>529</ele>
        <time>2025-08-08T09:50:02.000Z</time>
      </trkpt>
      <trkpt lat="46.03834" lon="5.78029">
        <ele>528.20001220703</ele>
        <time>2025-08-08T09:50:06.000Z</time>
      </trkpt>
      <trkpt lat="46.03816" lon="5.78033">
        <ele>527.40002441406</ele>
        <time>2025-08-08T09:50:08.000Z</time>
      </trkpt>
      <trkpt lat="46.03798" lon="5.78037">
        <ele>527</ele>
        <time>2025-08-08T09:50:10.000Z</time>
      </trkpt>
      <trkpt lat="46.03751" lon="5.7805">
        <ele>526</ele>
        <time>2025-08-08T09:50:15.000Z</time>
      </trkpt>
      <trkpt lat="46.03742" lon="5.78053">
        <ele>525.79998779297</ele>
        <time>2025-08-08T09:50:16.000Z</time>
      </trkpt>
      <trkpt lat="46.03715" lon="5.78062">
        <ele>524.20001220703</ele>
        <time>2025-08-08T09:50:19.000Z</time>
      </trkpt>
      <trkpt lat="46.03679" lon="5.78076">
        <ele>523</ele>
        <time>2025-08-08T09:50:23.000Z</time>
      </trkpt>
      <trkpt lat="46.03636" lon="5.78093">
        <ele>522</ele>
        <time>2025-08-08T09:50:28.000Z</time>
      </trkpt>
      <trkpt lat="46.03621" lon="5.781">
        <ele>521.59997558594</ele>
        <time>2025-08-08T09:50:30.000Z</time>
      </trkpt>
      <trkpt lat="46.03579" lon="5.78116">
        <ele>521</ele>
        <time>2025-08-08T09:50:35.000Z</time>
      </trkpt>
      <trkpt lat="46.03555" lon="5.78129">
        <ele>520.79998779297</ele>
        <time>2025-08-08T09:50:38.000Z</time>
      </trkpt>
      <trkpt lat="46.03521" lon="5.78153">
        <ele>520.40002441406</ele>
        <time>2025-08-08T09:50:43.000Z</time>
      </trkpt>
      <trkpt lat="46.03469" lon="5.78194">
        <ele>520</ele>
        <time>2025-08-08T09:50:50.000Z</time>
      </trkpt>
      <trkpt lat="46.03461" lon="5.782">
        <ele>520</ele>
        <time>2025-08-08T09:50:51.000Z</time>
      </trkpt>
      <trkpt lat="46.0343" lon="5.7823">
        <ele>518.79998779297</ele>
        <time>2025-08-08T09:50:55.000Z</time>
      </trkpt>
      <trkpt lat="46.03423" lon="5.7824">
        <ele>518.20001220703</ele>
        <time>2025-08-08T09:50:56.000Z</time>
      </trkpt>
      <trkpt lat="46.03415" lon="5.78249">
        <ele>517.59997558594</ele>
        <time>2025-08-08T09:50:57.000Z</time>
      </trkpt>
      <trkpt lat="46.03394" lon="5.7828">
        <ele>516.20001220703</ele>
        <time>2025-08-08T09:51:00.000Z</time>
      </trkpt>
      <trkpt lat="46.03379" lon="5.78301">
        <ele>515.20001220703</ele>
        <time>2025-08-08T09:51:02.000Z</time>
      </trkpt>
      <trkpt lat="46.03372" lon="5.78311">
        <ele>514.79998779297</ele>
        <time>2025-08-08T09:51:03.000Z</time>
      </trkpt>
      <trkpt lat="46.0335" lon="5.78341">
        <ele>513.79998779297</ele>
        <time>2025-08-08T09:51:06.000Z</time>
      </trkpt>
      <trkpt lat="46.03328" lon="5.78372">
        <ele>512.20001220703</ele>
        <time>2025-08-08T09:51:09.000Z</time>
      </trkpt>
      <trkpt lat="46.03319" lon="5.78384">
        <ele>511.79998779297</ele>
        <time>2025-08-08T09:51:10.000Z</time>
      </trkpt>
      <trkpt lat="46.03312" lon="5.78391">
        <ele>511</ele>
        <time>2025-08-08T09:51:11.000Z</time>
      </trkpt>
      <trkpt lat="46.03289" lon="5.78421">
        <ele>509.20001220703</ele>
        <time>2025-08-08T09:51:14.000Z</time>
      </trkpt>
      <trkpt lat="46.03279" lon="5.78433">
        <ele>508.79998779297</ele>
        <time>2025-08-08T09:51:15.000Z</time>
      </trkpt>
      <trkpt lat="46.03272" lon="5.78439">
        <ele>508</ele>
        <time>2025-08-08T09:51:16.000Z</time>
      </trkpt>
      <trkpt lat="46.03263" lon="5.78446">
        <ele>507.60000610352</ele>
        <time>2025-08-08T09:51:17.000Z</time>
      </trkpt>
      <trkpt lat="46.03253" lon="5.78451">
        <ele>506.79998779297</ele>
        <time>2025-08-08T09:51:18.000Z</time>
      </trkpt>
      <trkpt lat="46.03241" lon="5.78455">
        <ele>506.60000610352</ele>
        <time>2025-08-08T09:51:19.000Z</time>
      </trkpt>
      <trkpt lat="46.0323" lon="5.78456">
        <ele>505.79998779297</ele>
        <time>2025-08-08T09:51:20.000Z</time>
      </trkpt>
      <trkpt lat="46.03222" lon="5.78455">
        <ele>505.60000610352</ele>
        <time>2025-08-08T09:51:21.000Z</time>
      </trkpt>
      <trkpt lat="46.03211" lon="5.78453">
        <ele>505.20001220703</ele>
        <time>2025-08-08T09:51:22.000Z</time>
      </trkpt>
      <trkpt lat="46.03199" lon="5.78449">
        <ele>504.79998779297</ele>
        <time>2025-08-08T09:51:23.000Z</time>
      </trkpt>
      <trkpt lat="46.03179" lon="5.78434">
        <ele>503.79998779297</ele>
        <time>2025-08-08T09:51:25.000Z</time>
      </trkpt>
      <trkpt lat="46.0317" lon="5.78424">
        <ele>503.20001220703</ele>
        <time>2025-08-08T09:51:26.000Z</time>
      </trkpt>
      <trkpt lat="46.03162" lon="5.78413">
        <ele>502.20001220703</ele>
        <time>2025-08-08T09:51:27.000Z</time>
      </trkpt>
      <trkpt lat="46.03155" lon="5.784">
        <ele>501.60000610352</ele>
        <time>2025-08-08T09:51:28.000Z</time>
      </trkpt>
      <trkpt lat="46.03149" lon="5.78386">
        <ele>500.60000610352</ele>
        <time>2025-08-08T09:51:29.000Z</time>
      </trkpt>
      <trkpt lat="46.0314" lon="5.78357">
        <ele>499.60000610352</ele>
        <time>2025-08-08T09:51:31.000Z</time>
      </trkpt>
      <trkpt lat="46.03134" lon="5.78326">
        <ele>498.39999389648</ele>
        <time>2025-08-08T09:51:33.000Z</time>
      </trkpt>
      <trkpt lat="46.03126" lon="5.7828">
        <ele>496.60000610352</ele>
        <time>2025-08-08T09:51:36.000Z</time>
      </trkpt>
      <trkpt lat="46.03123" lon="5.78265">
        <ele>496</ele>
        <time>2025-08-08T09:51:37.000Z</time>
      </trkpt>
      <trkpt lat="46.03121" lon="5.78251">
        <ele>495.20001220703</ele>
        <time>2025-08-08T09:51:38.000Z</time>
      </trkpt>
      <trkpt lat="46.03115" lon="5.78221">
        <ele>494</ele>
        <time>2025-08-08T09:51:40.000Z</time>
      </trkpt>
      <trkpt lat="46.03112" lon="5.7819">
        <ele>493</ele>
        <time>2025-08-08T09:51:42.000Z</time>
      </trkpt>
      <trkpt lat="46.03112" lon="5.78175">
        <ele>492</ele>
        <time>2025-08-08T09:51:43.000Z</time>
      </trkpt>
      <trkpt lat="46.03114" lon="5.78159">
        <ele>491.60000610352</ele>
        <time>2025-08-08T09:51:44.000Z</time>
      </trkpt>
      <trkpt lat="46.0312" lon="5.78128">
        <ele>490.79998779297</ele>
        <time>2025-08-08T09:51:46.000Z</time>
      </trkpt>
      <trkpt lat="46.03125" lon="5.78113">
        <ele>489.79998779297</ele>
        <time>2025-08-08T09:51:47.000Z</time>
      </trkpt>
      <trkpt lat="46.0313" lon="5.78098">
        <ele>489.39999389648</ele>
        <time>2025-08-08T09:51:48.000Z</time>
      </trkpt>
      <trkpt lat="46.03141" lon="5.78069">
        <ele>488.20001220703</ele>
        <time>2025-08-08T09:51:50.000Z</time>
      </trkpt>
      <trkpt lat="46.03151" lon="5.7804">
        <ele>487</ele>
        <time>2025-08-08T09:51:52.000Z</time>
      </trkpt>
      <trkpt lat="46.03156" lon="5.78022">
        <ele>486.39999389648</ele>
        <time>2025-08-08T09:51:53.000Z</time>
      </trkpt>
      <trkpt lat="46.03158" lon="5.78007">
        <ele>485.79998779297</ele>
        <time>2025-08-08T09:51:54.000Z</time>
      </trkpt>
      <trkpt lat="46.03158" lon="5.77995">
        <ele>485.60000610352</ele>
        <time>2025-08-08T09:51:55.000Z</time>
      </trkpt>
      <trkpt lat="46.03155" lon="5.77965">
        <ele>484.79998779297</ele>
        <time>2025-08-08T09:51:57.000Z</time>
      </trkpt>
      <trkpt lat="46.0315" lon="5.7795">
        <ele>484.39999389648</ele>
        <time>2025-08-08T09:51:58.000Z</time>
      </trkpt>
      <trkpt lat="46.03142" lon="5.77933">
        <ele>483.79998779297</ele>
        <time>2025-08-08T09:51:59.000Z</time>
      </trkpt>
      <trkpt lat="46.03136" lon="5.77923">
        <ele>483.60000610352</ele>
        <time>2025-08-08T09:52:00.000Z</time>
      </trkpt>
      <trkpt lat="46.03126" lon="5.77912">
        <ele>482.79998779297</ele>
        <time>2025-08-08T09:52:01.000Z</time>
      </trkpt>
      <trkpt lat="46.03104" lon="5.77898">
        <ele>481.60000610352</ele>
        <time>2025-08-08T09:52:03.000Z</time>
      </trkpt>
      <trkpt lat="46.03091" lon="5.77894">
        <ele>480.39999389648</ele>
        <time>2025-08-08T09:52:04.000Z</time>
      </trkpt>
      <trkpt lat="46.03071" lon="5.77892">
        <ele>479</ele>
        <time>2025-08-08T09:52:06.000Z</time>
      </trkpt>
      <trkpt lat="46.03038" lon="5.77892">
        <ele>478</ele>
        <time>2025-08-08T09:52:09.000Z</time>
      </trkpt>
      <trkpt lat="46.03008" lon="5.77893">
        <ele>476</ele>
        <time>2025-08-08T09:52:12.000Z</time>
      </trkpt>
      <trkpt lat="46.0299" lon="5.77896">
        <ele>475.39999389648</ele>
        <time>2025-08-08T09:52:14.000Z</time>
      </trkpt>
      <trkpt lat="46.02974" lon="5.77899">
        <ele>475.20001220703</ele>
        <time>2025-08-08T09:52:16.000Z</time>
      </trkpt>
      <trkpt lat="46.02936" lon="5.77919">
        <ele>474.20001220703</ele>
        <time>2025-08-08T09:52:21.000Z</time>
      </trkpt>
      <trkpt lat="46.02928" lon="5.77925">
        <ele>474</ele>
        <time>2025-08-08T09:52:22.000Z</time>
      </trkpt>
      <trkpt lat="46.0292" lon="5.77932">
        <ele>474</ele>
        <time>2025-08-08T09:52:23.000Z</time>
      </trkpt>
      <trkpt lat="46.02905" lon="5.77942">
        <ele>474</ele>
        <time>2025-08-08T09:52:25.000Z</time>
      </trkpt>
      <trkpt lat="46.02899" lon="5.77949">
        <ele>474</ele>
        <time>2025-08-08T09:52:26.000Z</time>
      </trkpt>
      <trkpt lat="46.02853" lon="5.77994">
        <ele>473.39999389648</ele>
        <time>2025-08-08T09:52:33.000Z</time>
      </trkpt>
      <trkpt lat="46.02842" lon="5.7801">
        <ele>473.20001220703</ele>
        <time>2025-08-08T09:52:35.000Z</time>
      </trkpt>
      <trkpt lat="46.02834" lon="5.78028">
        <ele>473.20001220703</ele>
        <time>2025-08-08T09:52:37.000Z</time>
      </trkpt>
      <trkpt lat="46.02827" lon="5.78048">
        <ele>473.20001220703</ele>
        <time>2025-08-08T09:52:39.000Z</time>
      </trkpt>
      <trkpt lat="46.02822" lon="5.78069">
        <ele>473</ele>
        <time>2025-08-08T09:52:41.000Z</time>
      </trkpt>
      <trkpt lat="46.02821" lon="5.78079">
        <ele>473</ele>
        <time>2025-08-08T09:52:42.000Z</time>
      </trkpt>
      <trkpt lat="46.02815" lon="5.78124">
        <ele>472.79998779297</ele>
        <time>2025-08-08T09:52:47.000Z</time>
      </trkpt>
      <trkpt lat="46.02809" lon="5.78172">
        <ele>473.39999389648</ele>
        <time>2025-08-08T09:52:53.000Z</time>
      </trkpt>
      <trkpt lat="46.02807" lon="5.78179">
        <ele>473.39999389648</ele>
        <time>2025-08-08T09:52:54.000Z</time>
      </trkpt>
      <trkpt lat="46.02798" lon="5.78205">
        <ele>474</ele>
        <time>2025-08-08T09:52:58.000Z</time>
      </trkpt>
      <trkpt lat="46.02792" lon="5.78217">
        <ele>474.20001220703</ele>
        <time>2025-08-08T09:53:00.000Z</time>
      </trkpt>
      <trkpt lat="46.02784" lon="5.78227">
        <ele>474.39999389648</ele>
        <time>2025-08-08T09:53:02.000Z</time>
      </trkpt>
      <trkpt lat="46.02777" lon="5.78234">
        <ele>474.60000610352</ele>
        <time>2025-08-08T09:53:04.000Z</time>
      </trkpt>
      <trkpt lat="46.02773" lon="5.78237">
        <ele>474.79998779297</ele>
        <time>2025-08-08T09:53:05.000Z</time>
      </trkpt>
      <trkpt lat="46.02769" lon="5.7824">
        <ele>474.79998779297</ele>
        <time>2025-08-08T09:53:06.000Z</time>
      </trkpt>
      <trkpt lat="46.02765" lon="5.78242">
        <ele>475.20001220703</ele>
        <time>2025-08-08T09:53:07.000Z</time>
      </trkpt>
      <trkpt lat="46.0276" lon="5.78244">
        <ele>475.20001220703</ele>
        <time>2025-08-08T09:53:08.000Z</time>
      </trkpt>
      <trkpt lat="46.02752" lon="5.78247">
        <ele>475.39999389648</ele>
        <time>2025-08-08T09:53:10.000Z</time>
      </trkpt>
      <trkpt lat="46.02727" lon="5.7825">
        <ele>476.20001220703</ele>
        <time>2025-08-08T09:53:16.000Z</time>
      </trkpt>
      <trkpt lat="46.0271" lon="5.78252">
        <ele>476.79998779297</ele>
        <time>2025-08-08T09:53:20.000Z</time>
      </trkpt>
      <trkpt lat="46.02697" lon="5.78256">
        <ele>477.20001220703</ele>
        <time>2025-08-08T09:53:23.000Z</time>
      </trkpt>
      <trkpt lat="46.02677" lon="5.78265">
        <ele>477.79998779297</ele>
        <time>2025-08-08T09:53:28.000Z</time>
      </trkpt>
      <trkpt lat="46.02647" lon="5.78276">
        <ele>478.20001220703</ele>
        <time>2025-08-08T09:53:35.000Z</time>
      </trkpt>
      <trkpt lat="46.02643" lon="5.78277">
        <ele>478.39999389648</ele>
        <time>2025-08-08T09:53:36.000Z</time>
      </trkpt>
      <trkpt lat="46.0263" lon="5.78277">
        <ele>478.60000610352</ele>
        <time>2025-08-08T09:53:39.000Z</time>
      </trkpt>
      <trkpt lat="46.02617" lon="5.78274">
        <ele>478.79998779297</ele>
        <time>2025-08-08T09:53:42.000Z</time>
      </trkpt>
      <trkpt lat="46.02592" lon="5.78265">
        <ele>479.39999389648</ele>
        <time>2025-08-08T09:53:48.000Z</time>
      </trkpt>
      <trkpt lat="46.02573" lon="5.7826">
        <ele>480.60000610352</ele>
        <time>2025-08-08T09:53:53.000Z</time>
      </trkpt>
      <trkpt lat="46.02549" lon="5.78258">
        <ele>481.20001220703</ele>
        <time>2025-08-08T09:54:00.000Z</time>
      </trkpt>
      <trkpt lat="46.02541" lon="5.78259">
        <ele>481.60000610352</ele>
        <time>2025-08-08T09:54:02.000Z</time>
      </trkpt>
      <trkpt lat="46.02528" lon="5.78259">
        <ele>482.60000610352</ele>
        <time>2025-08-08T09:54:06.000Z</time>
      </trkpt>
      <trkpt lat="46.02515" lon="5.78258">
        <ele>483.39999389648</ele>
        <time>2025-08-08T09:54:10.000Z</time>
      </trkpt>
      <trkpt lat="46.02512" lon="5.78257">
        <ele>483.79998779297</ele>
        <time>2025-08-08T09:54:11.000Z</time>
      </trkpt>
      <trkpt lat="46.02495" lon="5.78253">
        <ele>484.60000610352</ele>
        <time>2025-08-08T09:54:16.000Z</time>
      </trkpt>
      <trkpt lat="46.02489" lon="5.78249">
        <ele>484.79998779297</ele>
        <time>2025-08-08T09:54:18.000Z</time>
      </trkpt>
      <trkpt lat="46.02478" lon="5.7824">
        <ele>485.60000610352</ele>
        <time>2025-08-08T09:54:22.000Z</time>
      </trkpt>
      <trkpt lat="46.0247" lon="5.78231">
        <ele>486</ele>
        <time>2025-08-08T09:54:25.000Z</time>
      </trkpt>
      <trkpt lat="46.02463" lon="5.78221">
        <ele>486.39999389648</ele>
        <time>2025-08-08T09:54:28.000Z</time>
      </trkpt>
      <trkpt lat="46.02453" lon="5.78202">
        <ele>487.20001220703</ele>
        <time>2025-08-08T09:54:33.000Z</time>
      </trkpt>
      <trkpt lat="46.0245" lon="5.78194">
        <ele>487.39999389648</ele>
        <time>2025-08-08T09:54:35.000Z</time>
      </trkpt>
      <trkpt lat="46.02444" lon="5.78174">
        <ele>488.39999389648</ele>
        <time>2025-08-08T09:54:40.000Z</time>
      </trkpt>
      <trkpt lat="46.02442" lon="5.78158">
        <ele>489</ele>
        <time>2025-08-08T09:54:44.000Z</time>
      </trkpt>
      <trkpt lat="46.02438" lon="5.78135">
        <ele>489.39999389648</ele>
        <time>2025-08-08T09:54:49.000Z</time>
      </trkpt>
      <trkpt lat="46.02437" lon="5.78131">
        <ele>489.60000610352</ele>
        <time>2025-08-08T09:54:50.000Z</time>
      </trkpt>
      <trkpt lat="46.0243" lon="5.78102">
        <ele>490.60000610352</ele>
        <time>2025-08-08T09:54:57.000Z</time>
      </trkpt>
      <trkpt lat="46.02429" lon="5.78097">
        <ele>490.60000610352</ele>
        <time>2025-08-08T09:54:58.000Z</time>
      </trkpt>
      <trkpt lat="46.02415" lon="5.78071">
        <ele>491.60000610352</ele>
        <time>2025-08-08T09:55:05.000Z</time>
      </trkpt>
      <trkpt lat="46.02398" lon="5.78051">
        <ele>492.79998779297</ele>
        <time>2025-08-08T09:55:12.000Z</time>
      </trkpt>
      <trkpt lat="46.02391" lon="5.78042">
        <ele>493.20001220703</ele>
        <time>2025-08-08T09:55:15.000Z</time>
      </trkpt>
      <trkpt lat="46.02378" lon="5.78028">
        <ele>493.60000610352</ele>
        <time>2025-08-08T09:55:20.000Z</time>
      </trkpt>
      <trkpt lat="46.02375" lon="5.78026">
        <ele>493.79998779297</ele>
        <time>2025-08-08T09:55:21.000Z</time>
      </trkpt>
      <trkpt lat="46.0236" lon="5.78009">
        <ele>495</ele>
        <time>2025-08-08T09:55:27.000Z</time>
      </trkpt>
      <trkpt lat="46.02358" lon="5.78006">
        <ele>495.20001220703</ele>
        <time>2025-08-08T09:55:28.000Z</time>
      </trkpt>
      <trkpt lat="46.0234" lon="5.77987">
        <ele>496</ele>
        <time>2025-08-08T09:55:35.000Z</time>
      </trkpt>
      <trkpt lat="46.02338" lon="5.77985">
        <ele>496</ele>
        <time>2025-08-08T09:55:36.000Z</time>
      </trkpt>
      <trkpt lat="46.02324" lon="5.77968">
        <ele>497</ele>
        <time>2025-08-08T09:55:42.000Z</time>
      </trkpt>
      <trkpt lat="46.02317" lon="5.77963">
        <ele>497.20001220703</ele>
        <time>2025-08-08T09:55:44.000Z</time>
      </trkpt>
      <trkpt lat="46.02288" lon="5.77948">
        <ele>498.20001220703</ele>
        <time>2025-08-08T09:55:53.000Z</time>
      </trkpt>
      <trkpt lat="46.02284" lon="5.77947">
        <ele>498.20001220703</ele>
        <time>2025-08-08T09:55:54.000Z</time>
      </trkpt>
      <trkpt lat="46.02269" lon="5.77941">
        <ele>498.60000610352</ele>
        <time>2025-08-08T09:55:58.000Z</time>
      </trkpt>
      <trkpt lat="46.02252" lon="5.77935">
        <ele>499.20001220703</ele>
        <time>2025-08-08T09:56:02.000Z</time>
      </trkpt>
      <trkpt lat="46.02244" lon="5.77932">
        <ele>499.39999389648</ele>
        <time>2025-08-08T09:56:04.000Z</time>
      </trkpt>
      <trkpt lat="46.02212" lon="5.77919">
        <ele>500</ele>
        <time>2025-08-08T09:56:12.000Z</time>
      </trkpt>
      <trkpt lat="46.02209" lon="5.77917">
        <ele>500</ele>
        <time>2025-08-08T09:56:13.000Z</time>
      </trkpt>
      <trkpt lat="46.02202" lon="5.77913">
        <ele>500.20001220703</ele>
        <time>2025-08-08T09:56:15.000Z</time>
      </trkpt>
      <trkpt lat="46.02191" lon="5.77908">
        <ele>500.39999389648</ele>
        <time>2025-08-08T09:56:18.000Z</time>
      </trkpt>
      <trkpt lat="46.0218" lon="5.779">
        <ele>501.20001220703</ele>
        <time>2025-08-08T09:56:21.000Z</time>
      </trkpt>
      <trkpt lat="46.02163" lon="5.77887">
        <ele>501.79998779297</ele>
        <time>2025-08-08T09:56:25.000Z</time>
      </trkpt>
      <trkpt lat="46.02129" lon="5.77861">
        <ele>501.79998779297</ele>
        <time>2025-08-08T09:56:31.000Z</time>
      </trkpt>
      <trkpt lat="46.02112" lon="5.77853">
        <ele>501.39999389648</ele>
        <time>2025-08-08T09:56:33.000Z</time>
      </trkpt>
      <trkpt lat="46.02097" lon="5.77853">
        <ele>501</ele>
        <time>2025-08-08T09:56:35.000Z</time>
      </trkpt>
      <trkpt lat="46.02082" lon="5.77863">
        <ele>500.20001220703</ele>
        <time>2025-08-08T09:56:37.000Z</time>
      </trkpt>
      <trkpt lat="46.02074" lon="5.77871">
        <ele>499.79998779297</ele>
        <time>2025-08-08T09:56:38.000Z</time>
      </trkpt>
      <trkpt lat="46.02057" lon="5.77902">
        <ele>498.79998779297</ele>
        <time>2025-08-08T09:56:42.000Z</time>
      </trkpt>
      <trkpt lat="46.02054" lon="5.77907">
        <ele>498.79998779297</ele>
        <time>2025-08-08T09:56:43.000Z</time>
      </trkpt>
      <trkpt lat="46.02037" lon="5.77934">
        <ele>499.39999389648</ele>
        <time>2025-08-08T09:56:48.000Z</time>
      </trkpt>
      <trkpt lat="46.02031" lon="5.77942">
        <ele>500.20001220703</ele>
        <time>2025-08-08T09:56:50.000Z</time>
      </trkpt>
      <trkpt lat="46.02021" lon="5.77954">
        <ele>501</ele>
        <time>2025-08-08T09:56:53.000Z</time>
      </trkpt>
      <trkpt lat="46.02015" lon="5.77963">
        <ele>501.20001220703</ele>
        <time>2025-08-08T09:56:55.000Z</time>
      </trkpt>
      <trkpt lat="46.01993" lon="5.77985">
        <ele>502.39999389648</ele>
        <time>2025-08-08T09:57:01.000Z</time>
      </trkpt>
      <trkpt lat="46.0198" lon="5.77995">
        <ele>503.20001220703</ele>
        <time>2025-08-08T09:57:04.000Z</time>
      </trkpt>
      <trkpt lat="46.01972" lon="5.78001">
        <ele>503.60000610352</ele>
        <time>2025-08-08T09:57:06.000Z</time>
      </trkpt>
      <trkpt lat="46.01949" lon="5.78011">
        <ele>504.20001220703</ele>
        <time>2025-08-08T09:57:11.000Z</time>
      </trkpt>
      <trkpt lat="46.01944" lon="5.78014">
        <ele>504.39999389648</ele>
        <time>2025-08-08T09:57:12.000Z</time>
      </trkpt>
      <trkpt lat="46.01918" lon="5.78022">
        <ele>504.79998779297</ele>
        <time>2025-08-08T09:57:17.000Z</time>
      </trkpt>
      <trkpt lat="46.01907" lon="5.78027">
        <ele>504.60000610352</ele>
        <time>2025-08-08T09:57:19.000Z</time>
      </trkpt>
      <trkpt lat="46.01878" lon="5.78037">
        <ele>505.20001220703</ele>
        <time>2025-08-08T09:57:25.000Z</time>
      </trkpt>
      <trkpt lat="46.01857" lon="5.78044">
        <ele>506</ele>
        <time>2025-08-08T09:57:30.000Z</time>
      </trkpt>
      <trkpt lat="46.01838" lon="5.7805">
        <ele>507</ele>
        <time>2025-08-08T09:57:35.000Z</time>
      </trkpt>
      <trkpt lat="46.01827" lon="5.78055">
        <ele>507.60000610352</ele>
        <time>2025-08-08T09:57:38.000Z</time>
      </trkpt>
      <trkpt lat="46.01812" lon="5.78059">
        <ele>508.20001220703</ele>
        <time>2025-08-08T09:57:42.000Z</time>
      </trkpt>
      <trkpt lat="46.01786" lon="5.78065">
        <ele>509</ele>
        <time>2025-08-08T09:57:49.000Z</time>
      </trkpt>
      <trkpt lat="46.01779" lon="5.78067">
        <ele>509.39999389648</ele>
        <time>2025-08-08T09:57:51.000Z</time>
      </trkpt>
      <trkpt lat="46.01761" lon="5.78071">
        <ele>510.39999389648</ele>
        <time>2025-08-08T09:57:56.000Z</time>
      </trkpt>
      <trkpt lat="46.0175" lon="5.78075">
        <ele>510.79998779297</ele>
        <time>2025-08-08T09:57:59.000Z</time>
      </trkpt>
      <trkpt lat="46.01732" lon="5.78082">
        <ele>511.39999389648</ele>
        <time>2025-08-08T09:58:04.000Z</time>
      </trkpt>
      <trkpt lat="46.0172" lon="5.78086">
        <ele>511.79998779297</ele>
        <time>2025-08-08T09:58:07.000Z</time>
      </trkpt>
      <trkpt lat="46.01714" lon="5.78089">
        <ele>511.79998779297</ele>
        <time>2025-08-08T09:58:08.000Z</time>
      </trkpt>
      <trkpt lat="46.01683" lon="5.78105">
        <ele>511.60000610352</ele>
        <time>2025-08-08T09:58:14.000Z</time>
      </trkpt>
      <trkpt lat="46.01632" lon="5.78134">
        <ele>511.39999389648</ele>
        <time>2025-08-08T09:58:23.000Z</time>
      </trkpt>
      <trkpt lat="46.01584" lon="5.7817">
        <ele>510.60000610352</ele>
        <time>2025-08-08T09:58:31.000Z</time>
      </trkpt>
      <trkpt lat="46.01563" lon="5.78186">
        <ele>510.39999389648</ele>
        <time>2025-08-08T09:58:34.000Z</time>
      </trkpt>
      <trkpt lat="46.01545" lon="5.78198">
        <ele>510.39999389648</ele>
        <time>2025-08-08T09:58:37.000Z</time>
      </trkpt>
      <trkpt lat="46.01493" lon="5.78238">
        <ele>510</ele>
        <time>2025-08-08T09:58:46.000Z</time>
      </trkpt>
      <trkpt lat="46.01451" lon="5.78272">
        <ele>509.60000610352</ele>
        <time>2025-08-08T09:58:53.000Z</time>
      </trkpt>
      <trkpt lat="46.01428" lon="5.78291">
        <ele>509.60000610352</ele>
        <time>2025-08-08T09:58:57.000Z</time>
      </trkpt>
      <trkpt lat="46.01394" lon="5.78316">
        <ele>509.39999389648</ele>
        <time>2025-08-08T09:59:03.000Z</time>
      </trkpt>
      <trkpt lat="46.01348" lon="5.78355">
        <ele>509.79998779297</ele>
        <time>2025-08-08T09:59:12.000Z</time>
      </trkpt>
      <trkpt lat="46.01297" lon="5.78396">
        <ele>509.79998779297</ele>
        <time>2025-08-08T09:59:22.000Z</time>
      </trkpt>
      <trkpt lat="46.01292" lon="5.784">
        <ele>509.79998779297</ele>
        <time>2025-08-08T09:59:23.000Z</time>
      </trkpt>
      <trkpt lat="46.01255" lon="5.78421">
        <ele>510.60000610352</ele>
        <time>2025-08-08T09:59:30.000Z</time>
      </trkpt>
      <trkpt lat="46.01239" lon="5.78428">
        <ele>510.79998779297</ele>
        <time>2025-08-08T09:59:33.000Z</time>
      </trkpt>
      <trkpt lat="46.01206" lon="5.78436">
        <ele>511</ele>
        <time>2025-08-08T09:59:39.000Z</time>
      </trkpt>
      <trkpt lat="46.01161" lon="5.78445">
        <ele>511</ele>
        <time>2025-08-08T09:59:46.000Z</time>
      </trkpt>
      <trkpt lat="46.01116" lon="5.78459">
        <ele>510</ele>
        <time>2025-08-08T09:59:52.000Z</time>
      </trkpt>
      <trkpt lat="46.011" lon="5.78467">
        <ele>509.60000610352</ele>
        <time>2025-08-08T09:59:54.000Z</time>
      </trkpt>
      <trkpt lat="46.01086" lon="5.78478">
        <ele>509.20001220703</ele>
        <time>2025-08-08T09:59:56.000Z</time>
      </trkpt>
      <trkpt lat="46.01079" lon="5.78485">
        <ele>509</ele>
        <time>2025-08-08T09:59:57.000Z</time>
      </trkpt>
      <trkpt lat="46.01072" lon="5.78492">
        <ele>508.60000610352</ele>
        <time>2025-08-08T09:59:58.000Z</time>
      </trkpt>
      <trkpt lat="46.01035" lon="5.78535">
        <ele>507.60000610352</ele>
        <time>2025-08-08T10:00:04.000Z</time>
      </trkpt>
      <trkpt lat="46.0101" lon="5.78564">
        <ele>507.20001220703</ele>
        <time>2025-08-08T10:00:08.000Z</time>
      </trkpt>
      <trkpt lat="46.00989" lon="5.78584">
        <ele>506.39999389648</ele>
        <time>2025-08-08T10:00:11.000Z</time>
      </trkpt>
      <trkpt lat="46.00968" lon="5.786">
        <ele>505.79998779297</ele>
        <time>2025-08-08T10:00:14.000Z</time>
      </trkpt>
      <trkpt lat="46.00955" lon="5.78608">
        <ele>505.20001220703</ele>
        <time>2025-08-08T10:00:16.000Z</time>
      </trkpt>
      <trkpt lat="46.00935" lon="5.78621">
        <ele>504.79998779297</ele>
        <time>2025-08-08T10:00:19.000Z</time>
      </trkpt>
      <trkpt lat="46.00913" lon="5.78634">
        <ele>504.20001220703</ele>
        <time>2025-08-08T10:00:22.000Z</time>
      </trkpt>
      <trkpt lat="46.00877" lon="5.78651">
        <ele>503.79998779297</ele>
        <time>2025-08-08T10:00:27.000Z</time>
      </trkpt>
      <trkpt lat="46.00839" lon="5.78652">
        <ele>503.39999389648</ele>
        <time>2025-08-08T10:00:32.000Z</time>
      </trkpt>
      <trkpt lat="46.00818" lon="5.78651">
        <ele>503.20001220703</ele>
        <time>2025-08-08T10:00:35.000Z</time>
      </trkpt>
      <trkpt lat="46.00792" lon="5.78647">
        <ele>503.20001220703</ele>
        <time>2025-08-08T10:00:39.000Z</time>
      </trkpt>
      <trkpt lat="46.00753" lon="5.78637">
        <ele>503.79998779297</ele>
        <time>2025-08-08T10:00:46.000Z</time>
      </trkpt>
      <trkpt lat="46.00734" lon="5.78632">
        <ele>504.39999389648</ele>
        <time>2025-08-08T10:00:50.000Z</time>
      </trkpt>
      <trkpt lat="46.00724" lon="5.7863">
        <ele>504.60000610352</ele>
        <time>2025-08-08T10:00:52.000Z</time>
      </trkpt>
      <trkpt lat="46.00702" lon="5.78626">
        <ele>505.60000610352</ele>
        <time>2025-08-08T10:00:57.000Z</time>
      </trkpt>
      <trkpt lat="46.00694" lon="5.78622">
        <ele>505.60000610352</ele>
        <time>2025-08-08T10:00:59.000Z</time>
      </trkpt>
      <trkpt lat="46.00669" lon="5.78614">
        <ele>506.39999389648</ele>
        <time>2025-08-08T10:01:05.000Z</time>
      </trkpt>
      <trkpt lat="46.00666" lon="5.78612">
        <ele>506.79998779297</ele>
        <time>2025-08-08T10:01:06.000Z</time>
      </trkpt>
      <trkpt lat="46.00658" lon="5.78609">
        <ele>507</ele>
        <time>2025-08-08T10:01:08.000Z</time>
      </trkpt>
      <trkpt lat="46.00651" lon="5.78606">
        <ele>507.39999389648</ele>
        <time>2025-08-08T10:01:10.000Z</time>
      </trkpt>
      <trkpt lat="46.00644" lon="5.78605">
        <ele>507.60000610352</ele>
        <time>2025-08-08T10:01:12.000Z</time>
      </trkpt>
      <trkpt lat="46.0064" lon="5.78604">
        <ele>507.79998779297</ele>
        <time>2025-08-08T10:01:13.000Z</time>
      </trkpt>
      <trkpt lat="46.00616" lon="5.78595">
        <ele>508.79998779297</ele>
        <time>2025-08-08T10:01:19.000Z</time>
      </trkpt>
      <trkpt lat="46.00609" lon="5.78591">
        <ele>509</ele>
        <time>2025-08-08T10:01:21.000Z</time>
      </trkpt>
      <trkpt lat="46.00603" lon="5.78585">
        <ele>509.20001220703</ele>
        <time>2025-08-08T10:01:23.000Z</time>
      </trkpt>
      <trkpt lat="46.006" lon="5.78581">
        <ele>509.39999389648</ele>
        <time>2025-08-08T10:01:24.000Z</time>
      </trkpt>
      <trkpt lat="46.0059" lon="5.78564">
        <ele>510</ele>
        <time>2025-08-08T10:01:28.000Z</time>
      </trkpt>
      <trkpt lat="46.00581" lon="5.7855">
        <ele>510.39999389648</ele>
        <time>2025-08-08T10:01:31.000Z</time>
      </trkpt>
      <trkpt lat="46.00558" lon="5.78528">
        <ele>511</ele>
        <time>2025-08-08T10:01:37.000Z</time>
      </trkpt>
      <trkpt lat="46.00525" lon="5.78504">
        <ele>511</ele>
        <time>2025-08-08T10:01:44.000Z</time>
      </trkpt>
      <trkpt lat="46.00489" lon="5.78485">
        <ele>510.60000610352</ele>
        <time>2025-08-08T10:01:50.000Z</time>
      </trkpt>
      <trkpt lat="46.00455" lon="5.78476">
        <ele>510.39999389648</ele>
        <time>2025-08-08T10:01:55.000Z</time>
      </trkpt>
      <trkpt lat="46.00409" lon="5.78464">
        <ele>509.20001220703</ele>
        <time>2025-08-08T10:02:02.000Z</time>
      </trkpt>
      <trkpt lat="46.00403" lon="5.78463">
        <ele>509.20001220703</ele>
        <time>2025-08-08T10:02:03.000Z</time>
      </trkpt>
      <trkpt lat="46.00389" lon="5.78458">
        <ele>508.60000610352</ele>
        <time>2025-08-08T10:02:05.000Z</time>
      </trkpt>
      <trkpt lat="46.00369" lon="5.78445">
        <ele>508.39999389648</ele>
        <time>2025-08-08T10:02:08.000Z</time>
      </trkpt>
      <trkpt lat="46.00362" lon="5.7844">
        <ele>508.20001220703</ele>
        <time>2025-08-08T10:02:09.000Z</time>
      </trkpt>
      <trkpt lat="46.0035" lon="5.78428">
        <ele>508.20001220703</ele>
        <time>2025-08-08T10:02:11.000Z</time>
      </trkpt>
      <trkpt lat="46.00337" lon="5.78417">
        <ele>508</ele>
        <time>2025-08-08T10:02:13.000Z</time>
      </trkpt>
      <trkpt lat="46.00309" lon="5.78399">
        <ele>507.60000610352</ele>
        <time>2025-08-08T10:02:17.000Z</time>
      </trkpt>
      <trkpt lat="46.00301" lon="5.78397">
        <ele>507.39999389648</ele>
        <time>2025-08-08T10:02:18.000Z</time>
      </trkpt>
      <trkpt lat="46.00278" lon="5.78393">
        <ele>507</ele>
        <time>2025-08-08T10:02:21.000Z</time>
      </trkpt>
      <trkpt lat="46.00233" lon="5.78387">
        <ele>506.39999389648</ele>
        <time>2025-08-08T10:02:27.000Z</time>
      </trkpt>
      <trkpt lat="46.0021" lon="5.78385">
        <ele>506</ele>
        <time>2025-08-08T10:02:30.000Z</time>
      </trkpt>
      <trkpt lat="46.00179" lon="5.78382">
        <ele>505.39999389648</ele>
        <time>2025-08-08T10:02:34.000Z</time>
      </trkpt>
      <trkpt lat="46.00164" lon="5.78371">
        <ele>504.79998779297</ele>
        <time>2025-08-08T10:02:36.000Z</time>
      </trkpt>
      <trkpt lat="46.00157" lon="5.78362">
        <ele>504.60000610352</ele>
        <time>2025-08-08T10:02:37.000Z</time>
      </trkpt>
      <trkpt lat="46.00153" lon="5.7835">
        <ele>504.39999389648</ele>
        <time>2025-08-08T10:02:38.000Z</time>
      </trkpt>
      <trkpt lat="46.00151" lon="5.78338">
        <ele>504</ele>
        <time>2025-08-08T10:02:39.000Z</time>
      </trkpt>
      <trkpt lat="46.00152" lon="5.78325">
        <ele>503.79998779297</ele>
        <time>2025-08-08T10:02:40.000Z</time>
      </trkpt>
      <trkpt lat="46.00158" lon="5.78301">
        <ele>503.20001220703</ele>
        <time>2025-08-08T10:02:42.000Z</time>
      </trkpt>
      <trkpt lat="46.0017" lon="5.78281">
        <ele>502.79998779297</ele>
        <time>2025-08-08T10:02:44.000Z</time>
      </trkpt>
      <trkpt lat="46.00176" lon="5.78271">
        <ele>502.20001220703</ele>
        <time>2025-08-08T10:02:45.000Z</time>
      </trkpt>
      <trkpt lat="46.00198" lon="5.78244">
        <ele>501.20001220703</ele>
        <time>2025-08-08T10:02:48.000Z</time>
      </trkpt>
      <trkpt lat="46.00219" lon="5.78214">
        <ele>500.60000610352</ele>
        <time>2025-08-08T10:02:51.000Z</time>
      </trkpt>
      <trkpt lat="46.00222" lon="5.78201">
        <ele>500.20001220703</ele>
        <time>2025-08-08T10:02:52.000Z</time>
      </trkpt>
      <trkpt lat="46.00223" lon="5.78187">
        <ele>499.79998779297</ele>
        <time>2025-08-08T10:02:53.000Z</time>
      </trkpt>
      <trkpt lat="46.00217" lon="5.78161">
        <ele>498.79998779297</ele>
        <time>2025-08-08T10:02:55.000Z</time>
      </trkpt>
      <trkpt lat="46.00202" lon="5.78142">
        <ele>498.20001220703</ele>
        <time>2025-08-08T10:02:57.000Z</time>
      </trkpt>
      <trkpt lat="46.00182" lon="5.7814">
        <ele>497.39999389648</ele>
        <time>2025-08-08T10:02:59.000Z</time>
      </trkpt>
      <trkpt lat="46.00167" lon="5.78154">
        <ele>496.60000610352</ele>
        <time>2025-08-08T10:03:01.000Z</time>
      </trkpt>
      <trkpt lat="46.0016" lon="5.78163">
        <ele>496.20001220703</ele>
        <time>2025-08-08T10:03:02.000Z</time>
      </trkpt>
      <trkpt lat="46.00145" lon="5.78183">
        <ele>495.20001220703</ele>
        <time>2025-08-08T10:03:04.000Z</time>
      </trkpt>
      <trkpt lat="46.00128" lon="5.78203">
        <ele>493.79998779297</ele>
        <time>2025-08-08T10:03:06.000Z</time>
      </trkpt>
      <trkpt lat="46.00111" lon="5.7822">
        <ele>493</ele>
        <time>2025-08-08T10:03:08.000Z</time>
      </trkpt>
      <trkpt lat="46.00102" lon="5.78229">
        <ele>492.39999389648</ele>
        <time>2025-08-08T10:03:09.000Z</time>
      </trkpt>
      <trkpt lat="46.00081" lon="5.78249">
        <ele>491.20001220703</ele>
        <time>2025-08-08T10:03:11.000Z</time>
      </trkpt>
      <trkpt lat="46.00063" lon="5.78267">
        <ele>490</ele>
        <time>2025-08-08T10:03:13.000Z</time>
      </trkpt>
      <trkpt lat="46.00043" lon="5.78283">
        <ele>489</ele>
        <time>2025-08-08T10:03:15.000Z</time>
      </trkpt>
      <trkpt lat="46.00033" lon="5.78288">
        <ele>488.60000610352</ele>
        <time>2025-08-08T10:03:16.000Z</time>
      </trkpt>
      <trkpt lat="46.00022" lon="5.78291">
        <ele>487.79998779297</ele>
        <time>2025-08-08T10:03:17.000Z</time>
      </trkpt>
      <trkpt lat="46.00011" lon="5.78291">
        <ele>487.39999389648</ele>
        <time>2025-08-08T10:03:18.000Z</time>
      </trkpt>
      <trkpt lat="46.00002" lon="5.7829">
        <ele>487</ele>
        <time>2025-08-08T10:03:19.000Z</time>
      </trkpt>
      <trkpt lat="45.99988" lon="5.78287">
        <ele>486.20001220703</ele>
        <time>2025-08-08T10:03:20.000Z</time>
      </trkpt>
      <trkpt lat="45.99977" lon="5.78285">
        <ele>485.20001220703</ele>
        <time>2025-08-08T10:03:21.000Z</time>
      </trkpt>
      <trkpt lat="45.99955" lon="5.78289">
        <ele>484.20001220703</ele>
        <time>2025-08-08T10:03:23.000Z</time>
      </trkpt>
      <trkpt lat="45.99947" lon="5.78294">
        <ele>483.39999389648</ele>
        <time>2025-08-08T10:03:24.000Z</time>
      </trkpt>
      <trkpt lat="45.99924" lon="5.78309">
        <ele>482.20001220703</ele>
        <time>2025-08-08T10:03:26.000Z</time>
      </trkpt>
      <trkpt lat="45.99916" lon="5.78316">
        <ele>481.79998779297</ele>
        <time>2025-08-08T10:03:27.000Z</time>
      </trkpt>
      <trkpt lat="45.99904" lon="5.78326">
        <ele>481.20001220703</ele>
        <time>2025-08-08T10:03:28.000Z</time>
      </trkpt>
      <trkpt lat="45.99887" lon="5.78343">
        <ele>479.79998779297</ele>
        <time>2025-08-08T10:03:30.000Z</time>
      </trkpt>
      <trkpt lat="45.99868" lon="5.78363">
        <ele>478.60000610352</ele>
        <time>2025-08-08T10:03:32.000Z</time>
      </trkpt>
      <trkpt lat="45.99848" lon="5.78381">
        <ele>477.60000610352</ele>
        <time>2025-08-08T10:03:34.000Z</time>
      </trkpt>
      <trkpt lat="45.99828" lon="5.78398">
        <ele>476.20001220703</ele>
        <time>2025-08-08T10:03:36.000Z</time>
      </trkpt>
      <trkpt lat="45.99817" lon="5.78407">
        <ele>475</ele>
        <time>2025-08-08T10:03:37.000Z</time>
      </trkpt>
      <trkpt lat="45.99788" lon="5.78434">
        <ele>474</ele>
        <time>2025-08-08T10:03:40.000Z</time>
      </trkpt>
      <trkpt lat="45.99771" lon="5.78454">
        <ele>473</ele>
        <time>2025-08-08T10:03:42.000Z</time>
      </trkpt>
      <trkpt lat="45.99755" lon="5.78477">
        <ele>471.79998779297</ele>
        <time>2025-08-08T10:03:44.000Z</time>
      </trkpt>
      <trkpt lat="45.99748" lon="5.78488">
        <ele>471.39999389648</ele>
        <time>2025-08-08T10:03:45.000Z</time>
      </trkpt>
      <trkpt lat="45.99742" lon="5.78499">
        <ele>470.20001220703</ele>
        <time>2025-08-08T10:03:46.000Z</time>
      </trkpt>
      <trkpt lat="45.99726" lon="5.78533">
        <ele>469</ele>
        <time>2025-08-08T10:03:49.000Z</time>
      </trkpt>
      <trkpt lat="45.9972" lon="5.78545">
        <ele>468.20001220703</ele>
        <time>2025-08-08T10:03:50.000Z</time>
      </trkpt>
      <trkpt lat="45.99712" lon="5.78555">
        <ele>467</ele>
        <time>2025-08-08T10:03:51.000Z</time>
      </trkpt>
      <trkpt lat="45.99695" lon="5.78568">
        <ele>466.20001220703</ele>
        <time>2025-08-08T10:03:53.000Z</time>
      </trkpt>
      <trkpt lat="45.99687" lon="5.78569">
        <ele>465.79998779297</ele>
        <time>2025-08-08T10:03:54.000Z</time>
      </trkpt>
      <trkpt lat="45.9968" lon="5.78566">
        <ele>465.20001220703</ele>
        <time>2025-08-08T10:03:55.000Z</time>
      </trkpt>
      <trkpt lat="45.99673" lon="5.7856">
        <ele>464.39999389648</ele>
        <time>2025-08-08T10:03:56.000Z</time>
      </trkpt>
      <trkpt lat="45.99669" lon="5.7855">
        <ele>464</ele>
        <time>2025-08-08T10:03:57.000Z</time>
      </trkpt>
      <trkpt lat="45.99665" lon="5.78539">
        <ele>463</ele>
        <time>2025-08-08T10:03:58.000Z</time>
      </trkpt>
      <trkpt lat="45.99662" lon="5.78528">
        <ele>462.39999389648</ele>
        <time>2025-08-08T10:03:59.000Z</time>
      </trkpt>
      <trkpt lat="45.99659" lon="5.78515">
        <ele>461.79998779297</ele>
        <time>2025-08-08T10:04:00.000Z</time>
      </trkpt>
      <trkpt lat="45.99655" lon="5.78507">
        <ele>461.39999389648</ele>
        <time>2025-08-08T10:04:01.000Z</time>
      </trkpt>
      <trkpt lat="45.99642" lon="5.78493">
        <ele>460.79998779297</ele>
        <time>2025-08-08T10:04:03.000Z</time>
      </trkpt>
      <trkpt lat="45.99632" lon="5.78489">
        <ele>460.60000610352</ele>
        <time>2025-08-08T10:04:04.000Z</time>
      </trkpt>
      <trkpt lat="45.99623" lon="5.78489">
        <ele>460.39999389648</ele>
        <time>2025-08-08T10:04:05.000Z</time>
      </trkpt>
      <trkpt lat="45.99608" lon="5.78493">
        <ele>460</ele>
        <time>2025-08-08T10:04:07.000Z</time>
      </trkpt>
      <trkpt lat="45.99591" lon="5.78499">
        <ele>459.39999389648</ele>
        <time>2025-08-08T10:04:09.000Z</time>
      </trkpt>
      <trkpt lat="45.99583" lon="5.78503">
        <ele>459.39999389648</ele>
        <time>2025-08-08T10:04:10.000Z</time>
      </trkpt>
      <trkpt lat="45.99574" lon="5.78511">
        <ele>459.20001220703</ele>
        <time>2025-08-08T10:04:11.000Z</time>
      </trkpt>
      <trkpt lat="45.99569" lon="5.78518">
        <ele>459</ele>
        <time>2025-08-08T10:04:12.000Z</time>
      </trkpt>
      <trkpt lat="45.9956" lon="5.78543">
        <ele>458.79998779297</ele>
        <time>2025-08-08T10:04:14.000Z</time>
      </trkpt>
      <trkpt lat="45.99558" lon="5.78566">
        <ele>458.39999389648</ele>
        <time>2025-08-08T10:04:16.000Z</time>
      </trkpt>
      <trkpt lat="45.99558" lon="5.78591">
        <ele>458</ele>
        <time>2025-08-08T10:04:18.000Z</time>
      </trkpt>
      <trkpt lat="45.99559" lon="5.78642">
        <ele>457.60000610352</ele>
        <time>2025-08-08T10:04:22.000Z</time>
      </trkpt>
      <trkpt lat="45.99557" lon="5.78666">
        <ele>457.60000610352</ele>
        <time>2025-08-08T10:04:24.000Z</time>
      </trkpt>
      <trkpt lat="45.99551" lon="5.7869">
        <ele>457.39999389648</ele>
        <time>2025-08-08T10:04:26.000Z</time>
      </trkpt>
      <trkpt lat="45.99545" lon="5.78725">
        <ele>456.79998779297</ele>
        <time>2025-08-08T10:04:29.000Z</time>
      </trkpt>
      <trkpt lat="45.99544" lon="5.78748">
        <ele>456.39999389648</ele>
        <time>2025-08-08T10:04:31.000Z</time>
      </trkpt>
      <trkpt lat="45.99543" lon="5.78771">
        <ele>456.20001220703</ele>
        <time>2025-08-08T10:04:33.000Z</time>
      </trkpt>
      <trkpt lat="45.99537" lon="5.78805">
        <ele>455.79998779297</ele>
        <time>2025-08-08T10:04:36.000Z</time>
      </trkpt>
      <trkpt lat="45.99529" lon="5.78837">
        <ele>455.20001220703</ele>
        <time>2025-08-08T10:04:39.000Z</time>
      </trkpt>
      <trkpt lat="45.99527" lon="5.78848">
        <ele>455</ele>
        <time>2025-08-08T10:04:40.000Z</time>
      </trkpt>
      <trkpt lat="45.99526" lon="5.7887">
        <ele>454.79998779297</ele>
        <time>2025-08-08T10:04:42.000Z</time>
      </trkpt>
      <trkpt lat="45.99528" lon="5.78893">
        <ele>454.60000610352</ele>
        <time>2025-08-08T10:04:44.000Z</time>
      </trkpt>
      <trkpt lat="45.99532" lon="5.78915">
        <ele>454.20001220703</ele>
        <time>2025-08-08T10:04:46.000Z</time>
      </trkpt>
      <trkpt lat="45.99533" lon="5.78927">
        <ele>454.20001220703</ele>
        <time>2025-08-08T10:04:47.000Z</time>
      </trkpt>
      <trkpt lat="45.99534" lon="5.78963">
        <ele>453.60000610352</ele>
        <time>2025-08-08T10:04:50.000Z</time>
      </trkpt>
      <trkpt lat="45.99528" lon="5.79009">
        <ele>453</ele>
        <time>2025-08-08T10:04:54.000Z</time>
      </trkpt>
      <trkpt lat="45.99526" lon="5.7902">
        <ele>453</ele>
        <time>2025-08-08T10:04:55.000Z</time>
      </trkpt>
      <trkpt lat="45.99515" lon="5.79077">
        <ele>452</ele>
        <time>2025-08-08T10:05:00.000Z</time>
      </trkpt>
      <trkpt lat="45.99511" lon="5.79088">
        <ele>451.60000610352</ele>
        <time>2025-08-08T10:05:01.000Z</time>
      </trkpt>
      <trkpt lat="45.99497" lon="5.79116">
        <ele>451.39999389648</ele>
        <time>2025-08-08T10:05:04.000Z</time>
      </trkpt>
      <trkpt lat="45.99485" lon="5.79133">
        <ele>451.20001220703</ele>
        <time>2025-08-08T10:05:06.000Z</time>
      </trkpt>
      <trkpt lat="45.99479" lon="5.79141">
        <ele>451.20001220703</ele>
        <time>2025-08-08T10:05:07.000Z</time>
      </trkpt>
      <trkpt lat="45.9944" lon="5.79187">
        <ele>450</ele>
        <time>2025-08-08T10:05:13.000Z</time>
      </trkpt>
      <trkpt lat="45.99424" lon="5.79196">
        <ele>449.79998779297</ele>
        <time>2025-08-08T10:05:15.000Z</time>
      </trkpt>
      <trkpt lat="45.99407" lon="5.79203">
        <ele>449.60000610352</ele>
        <time>2025-08-08T10:05:17.000Z</time>
      </trkpt>
      <trkpt lat="45.9939" lon="5.79207">
        <ele>449.39999389648</ele>
        <time>2025-08-08T10:05:19.000Z</time>
      </trkpt>
      <trkpt lat="45.99373" lon="5.79203">
        <ele>449.20001220703</ele>
        <time>2025-08-08T10:05:21.000Z</time>
      </trkpt>
      <trkpt lat="45.99366" lon="5.79197">
        <ele>448.79998779297</ele>
        <time>2025-08-08T10:05:22.000Z</time>
      </trkpt>
      <trkpt lat="45.99359" lon="5.79188">
        <ele>448.79998779297</ele>
        <time>2025-08-08T10:05:23.000Z</time>
      </trkpt>
      <trkpt lat="45.99354" lon="5.79179">
        <ele>448.60000610352</ele>
        <time>2025-08-08T10:05:24.000Z</time>
      </trkpt>
      <trkpt lat="45.99336" lon="5.79136">
        <ele>447.79998779297</ele>
        <time>2025-08-08T10:05:28.000Z</time>
      </trkpt>
      <trkpt lat="45.99324" lon="5.79117">
        <ele>447.39999389648</ele>
        <time>2025-08-08T10:05:30.000Z</time>
      </trkpt>
      <trkpt lat="45.99317" lon="5.79111">
        <ele>447.20001220703</ele>
        <time>2025-08-08T10:05:31.000Z</time>
      </trkpt>
      <trkpt lat="45.99309" lon="5.79106">
        <ele>447</ele>
        <time>2025-08-08T10:05:32.000Z</time>
      </trkpt>
      <trkpt lat="45.99292" lon="5.79102">
        <ele>447</ele>
        <time>2025-08-08T10:05:34.000Z</time>
      </trkpt>
      <trkpt lat="45.99275" lon="5.79104">
        <ele>446.39999389648</ele>
        <time>2025-08-08T10:05:36.000Z</time>
      </trkpt>
      <trkpt lat="45.99267" lon="5.79107">
        <ele>446.39999389648</ele>
        <time>2025-08-08T10:05:37.000Z</time>
      </trkpt>
      <trkpt lat="45.9923" lon="5.79133">
        <ele>445.79998779297</ele>
        <time>2025-08-08T10:05:42.000Z</time>
      </trkpt>
      <trkpt lat="45.99184" lon="5.79178">
        <ele>444.60000610352</ele>
        <time>2025-08-08T10:05:49.000Z</time>
      </trkpt>
      <trkpt lat="45.99135" lon="5.79212">
        <ele>443.79998779297</ele>
        <time>2025-08-08T10:05:56.000Z</time>
      </trkpt>
      <trkpt lat="45.9912" lon="5.79221">
        <ele>443.60000610352</ele>
        <time>2025-08-08T10:05:58.000Z</time>
      </trkpt>
      <trkpt lat="45.99085" lon="5.79252">
        <ele>443</ele>
        <time>2025-08-08T10:06:03.000Z</time>
      </trkpt>
      <trkpt lat="45.99063" lon="5.79269">
        <ele>442.60000610352</ele>
        <time>2025-08-08T10:06:06.000Z</time>
      </trkpt>
      <trkpt lat="45.99047" lon="5.79276">
        <ele>442.39999389648</ele>
        <time>2025-08-08T10:06:08.000Z</time>
      </trkpt>
      <trkpt lat="45.99039" lon="5.79278">
        <ele>442</ele>
        <time>2025-08-08T10:06:09.000Z</time>
      </trkpt>
      <trkpt lat="45.99023" lon="5.79284">
        <ele>441.39999389648</ele>
        <time>2025-08-08T10:06:11.000Z</time>
      </trkpt>
      <trkpt lat="45.99015" lon="5.79288">
        <ele>441.20001220703</ele>
        <time>2025-08-08T10:06:12.000Z</time>
      </trkpt>
      <trkpt lat="45.98977" lon="5.79315">
        <ele>440.39999389648</ele>
        <time>2025-08-08T10:06:17.000Z</time>
      </trkpt>
      <trkpt lat="45.98963" lon="5.79327">
        <ele>440.20001220703</ele>
        <time>2025-08-08T10:06:19.000Z</time>
      </trkpt>
      <trkpt lat="45.98936" lon="5.79357">
        <ele>439.60000610352</ele>
        <time>2025-08-08T10:06:23.000Z</time>
      </trkpt>
      <trkpt lat="45.9893" lon="5.79365">
        <ele>439.39999389648</ele>
        <time>2025-08-08T10:06:24.000Z</time>
      </trkpt>
      <trkpt lat="45.98925" lon="5.79374">
        <ele>439.39999389648</ele>
        <time>2025-08-08T10:06:25.000Z</time>
      </trkpt>
      <trkpt lat="45.98889" lon="5.79441">
        <ele>439</ele>
        <time>2025-08-08T10:06:32.000Z</time>
      </trkpt>
      <trkpt lat="45.98884" lon="5.79451">
        <ele>439</ele>
        <time>2025-08-08T10:06:33.000Z</time>
      </trkpt>
      <trkpt lat="45.98861" lon="5.79494">
        <ele>438</ele>
        <time>2025-08-08T10:06:37.000Z</time>
      </trkpt>
      <trkpt lat="45.98855" lon="5.79504">
        <ele>437.60000610352</ele>
        <time>2025-08-08T10:06:38.000Z</time>
      </trkpt>
      <trkpt lat="45.98841" lon="5.79524">
        <ele>437</ele>
        <time>2025-08-08T10:06:40.000Z</time>
      </trkpt>
      <trkpt lat="45.98819" lon="5.79556">
        <ele>435.79998779297</ele>
        <time>2025-08-08T10:06:43.000Z</time>
      </trkpt>
      <trkpt lat="45.98805" lon="5.79579">
        <ele>435.20001220703</ele>
        <time>2025-08-08T10:06:45.000Z</time>
      </trkpt>
      <trkpt lat="45.98798" lon="5.7959">
        <ele>434.79998779297</ele>
        <time>2025-08-08T10:06:46.000Z</time>
      </trkpt>
      <trkpt lat="45.98784" lon="5.79612">
        <ele>433.60000610352</ele>
        <time>2025-08-08T10:06:48.000Z</time>
      </trkpt>
      <trkpt lat="45.98755" lon="5.7965">
        <ele>432.39999389648</ele>
        <time>2025-08-08T10:06:52.000Z</time>
      </trkpt>
      <trkpt lat="45.98711" lon="5.79692">
        <ele>431.79998779297</ele>
        <time>2025-08-08T10:06:58.000Z</time>
      </trkpt>
      <trkpt lat="45.98663" lon="5.79731">
        <ele>431.39999389648</ele>
        <time>2025-08-08T10:07:05.000Z</time>
      </trkpt>
      <trkpt lat="45.98656" lon="5.79735">
        <ele>431.39999389648</ele>
        <time>2025-08-08T10:07:06.000Z</time>
      </trkpt>
      <trkpt lat="45.9861" lon="5.79756">
        <ele>431.20001220703</ele>
        <time>2025-08-08T10:07:12.000Z</time>
      </trkpt>
      <trkpt lat="45.98569" lon="5.79773">
        <ele>430.39999389648</ele>
        <time>2025-08-08T10:07:17.000Z</time>
      </trkpt>
      <trkpt lat="45.98545" lon="5.79783">
        <ele>429.79998779297</ele>
        <time>2025-08-08T10:07:20.000Z</time>
      </trkpt>
      <trkpt lat="45.98523" lon="5.79795">
        <ele>429.39999389648</ele>
        <time>2025-08-08T10:07:23.000Z</time>
      </trkpt>
      <trkpt lat="45.98514" lon="5.79801">
        <ele>429.39999389648</ele>
        <time>2025-08-08T10:07:24.000Z</time>
      </trkpt>
      <trkpt lat="45.9851" lon="5.79807">
        <ele>429.20001220703</ele>
        <time>2025-08-08T10:07:25.000Z</time>
      </trkpt>
      <trkpt lat="45.98504" lon="5.79815">
        <ele>429.20001220703</ele>
        <time>2025-08-08T10:07:26.000Z</time>
      </trkpt>
      <trkpt lat="45.98496" lon="5.79834">
        <ele>429</ele>
        <time>2025-08-08T10:07:28.000Z</time>
      </trkpt>
      <trkpt lat="45.98472" lon="5.799">
        <ele>428.20001220703</ele>
        <time>2025-08-08T10:07:34.000Z</time>
      </trkpt>
      <trkpt lat="45.98451" lon="5.79938">
        <ele>427</ele>
        <time>2025-08-08T10:07:38.000Z</time>
      </trkpt>
      <trkpt lat="45.98438" lon="5.79958">
        <ele>426.60000610352</ele>
        <time>2025-08-08T10:07:40.000Z</time>
      </trkpt>
      <trkpt lat="45.98427" lon="5.79975">
        <ele>426</ele>
        <time>2025-08-08T10:07:42.000Z</time>
      </trkpt>
      <trkpt lat="45.98395" lon="5.80032">
        <ele>425.60000610352</ele>
        <time>2025-08-08T10:07:48.000Z</time>
      </trkpt>
      <trkpt lat="45.98379" lon="5.80055">
        <ele>425.39999389648</ele>
        <time>2025-08-08T10:07:51.000Z</time>
      </trkpt>
      <trkpt lat="45.98372" lon="5.80061">
        <ele>425.39999389648</ele>
        <time>2025-08-08T10:07:52.000Z</time>
      </trkpt>
      <trkpt lat="45.98366" lon="5.80067">
        <ele>425.39999389648</ele>
        <time>2025-08-08T10:07:53.000Z</time>
      </trkpt>
      <trkpt lat="45.98342" lon="5.80077">
        <ele>425.20001220703</ele>
        <time>2025-08-08T10:07:56.000Z</time>
      </trkpt>
      <trkpt lat="45.98315" lon="5.80084">
        <ele>425</ele>
        <time>2025-08-08T10:07:59.000Z</time>
      </trkpt>
      <trkpt lat="45.98306" lon="5.80087">
        <ele>425</ele>
        <time>2025-08-08T10:08:00.000Z</time>
      </trkpt>
      <trkpt lat="45.98288" lon="5.80094">
        <ele>424</ele>
        <time>2025-08-08T10:08:02.000Z</time>
      </trkpt>
      <trkpt lat="45.98271" lon="5.80104">
        <ele>423</ele>
        <time>2025-08-08T10:08:04.000Z</time>
      </trkpt>
      <trkpt lat="45.98263" lon="5.8011">
        <ele>422.20001220703</ele>
        <time>2025-08-08T10:08:05.000Z</time>
      </trkpt>
      <trkpt lat="45.98255" lon="5.80117">
        <ele>422</ele>
        <time>2025-08-08T10:08:06.000Z</time>
      </trkpt>
      <trkpt lat="45.98232" lon="5.8014">
        <ele>421</ele>
        <time>2025-08-08T10:08:09.000Z</time>
      </trkpt>
      <trkpt lat="45.98214" lon="5.80153">
        <ele>420</ele>
        <time>2025-08-08T10:08:11.000Z</time>
      </trkpt>
      <trkpt lat="45.98205" lon="5.80158">
        <ele>419.60000610352</ele>
        <time>2025-08-08T10:08:12.000Z</time>
      </trkpt>
      <trkpt lat="45.98196" lon="5.80161">
        <ele>419.39999389648</ele>
        <time>2025-08-08T10:08:13.000Z</time>
      </trkpt>
      <trkpt lat="45.98177" lon="5.80165">
        <ele>418.20001220703</ele>
        <time>2025-08-08T10:08:15.000Z</time>
      </trkpt>
      <trkpt lat="45.98148" lon="5.80167">
        <ele>417</ele>
        <time>2025-08-08T10:08:18.000Z</time>
      </trkpt>
      <trkpt lat="45.98119" lon="5.80173">
        <ele>415.60000610352</ele>
        <time>2025-08-08T10:08:21.000Z</time>
      </trkpt>
      <trkpt lat="45.98103" lon="5.80183">
        <ele>415.20001220703</ele>
        <time>2025-08-08T10:08:23.000Z</time>
      </trkpt>
      <trkpt lat="45.98095" lon="5.8019">
        <ele>415</ele>
        <time>2025-08-08T10:08:24.000Z</time>
      </trkpt>
      <trkpt lat="45.98089" lon="5.80198">
        <ele>415</ele>
        <time>2025-08-08T10:08:25.000Z</time>
      </trkpt>
      <trkpt lat="45.98078" lon="5.8022">
        <ele>415</ele>
        <time>2025-08-08T10:08:27.000Z</time>
      </trkpt>
      <trkpt lat="45.98072" lon="5.80243">
        <ele>415</ele>
        <time>2025-08-08T10:08:29.000Z</time>
      </trkpt>
      <trkpt lat="45.98071" lon="5.80253">
        <ele>415.20001220703</ele>
        <time>2025-08-08T10:08:30.000Z</time>
      </trkpt>
      <trkpt lat="45.9807" lon="5.80265">
        <ele>415.20001220703</ele>
        <time>2025-08-08T10:08:31.000Z</time>
      </trkpt>
      <trkpt lat="45.98072" lon="5.80301">
        <ele>415.20001220703</ele>
        <time>2025-08-08T10:08:34.000Z</time>
      </trkpt>
      <trkpt lat="45.9808" lon="5.8037">
        <ele>415.79998779297</ele>
        <time>2025-08-08T10:08:40.000Z</time>
      </trkpt>
      <trkpt lat="45.98088" lon="5.80413">
        <ele>415.79998779297</ele>
        <time>2025-08-08T10:08:44.000Z</time>
      </trkpt>
      <trkpt lat="45.98093" lon="5.80431">
        <ele>415.79998779297</ele>
        <time>2025-08-08T10:08:46.000Z</time>
      </trkpt>
      <trkpt lat="45.98114" lon="5.80468">
        <ele>415.79998779297</ele>
        <time>2025-08-08T10:08:51.000Z</time>
      </trkpt>
      <trkpt lat="45.98133" lon="5.805">
        <ele>416</ele>
        <time>2025-08-08T10:08:56.000Z</time>
      </trkpt>
      <trkpt lat="45.98136" lon="5.80506">
        <ele>416</ele>
        <time>2025-08-08T10:08:57.000Z</time>
      </trkpt>
      <trkpt lat="45.98138" lon="5.80513">
        <ele>416.20001220703</ele>
        <time>2025-08-08T10:08:58.000Z</time>
      </trkpt>
      <trkpt lat="45.98138" lon="5.80526">
        <ele>416.20001220703</ele>
        <time>2025-08-08T10:09:00.000Z</time>
      </trkpt>
      <trkpt lat="45.98133" lon="5.8054">
        <ele>416.39999389648</ele>
        <time>2025-08-08T10:09:02.000Z</time>
      </trkpt>
      <trkpt lat="45.98128" lon="5.80545">
        <ele>416.39999389648</ele>
        <time>2025-08-08T10:09:03.000Z</time>
      </trkpt>
      <trkpt lat="45.98123" lon="5.8055">
        <ele>416.39999389648</ele>
        <time>2025-08-08T10:09:04.000Z</time>
      </trkpt>
      <trkpt lat="45.981" lon="5.80565">
        <ele>416.39999389648</ele>
        <time>2025-08-08T10:09:08.000Z</time>
      </trkpt>
      <trkpt lat="45.98065" lon="5.80587">
        <ele>416</ele>
        <time>2025-08-08T10:09:14.000Z</time>
      </trkpt>
      <trkpt lat="45.98015" lon="5.80622">
        <ele>415.60000610352</ele>
        <time>2025-08-08T10:09:22.000Z</time>
      </trkpt>
      <trkpt lat="45.98001" lon="5.80632">
        <ele>415</ele>
        <time>2025-08-08T10:09:24.000Z</time>
      </trkpt>
      <trkpt lat="45.97963" lon="5.80654">
        <ele>413.20001220703</ele>
        <time>2025-08-08T10:09:29.000Z</time>
      </trkpt>
      <trkpt lat="45.97924" lon="5.80667">
        <ele>412</ele>
        <time>2025-08-08T10:09:34.000Z</time>
      </trkpt>
      <trkpt lat="45.97916" lon="5.80669">
        <ele>411.79998779297</ele>
        <time>2025-08-08T10:09:35.000Z</time>
      </trkpt>
      <trkpt lat="45.97884" lon="5.80675">
        <ele>411</ele>
        <time>2025-08-08T10:09:39.000Z</time>
      </trkpt>
      <trkpt lat="45.97859" lon="5.8068">
        <ele>410</ele>
        <time>2025-08-08T10:09:42.000Z</time>
      </trkpt>
      <trkpt lat="45.97825" lon="5.80689">
        <ele>409</ele>
        <time>2025-08-08T10:09:46.000Z</time>
      </trkpt>
      <trkpt lat="45.97808" lon="5.80694">
        <ele>407.79998779297</ele>
        <time>2025-08-08T10:09:48.000Z</time>
      </trkpt>
      <trkpt lat="45.97791" lon="5.807">
        <ele>407.20001220703</ele>
        <time>2025-08-08T10:09:50.000Z</time>
      </trkpt>
      <trkpt lat="45.97775" lon="5.80706">
        <ele>406.60000610352</ele>
        <time>2025-08-08T10:09:52.000Z</time>
      </trkpt>
      <trkpt lat="45.97721" lon="5.80724">
        <ele>405.79998779297</ele>
        <time>2025-08-08T10:09:59.000Z</time>
      </trkpt>
      <trkpt lat="45.97674" lon="5.80737">
        <ele>405.79998779297</ele>
        <time>2025-08-08T10:10:05.000Z</time>
      </trkpt>
      <trkpt lat="45.97651" lon="5.80743">
        <ele>405.20001220703</ele>
        <time>2025-08-08T10:10:08.000Z</time>
      </trkpt>
      <trkpt lat="45.97618" lon="5.80748">
        <ele>404.79998779297</ele>
        <time>2025-08-08T10:10:12.000Z</time>
      </trkpt>
      <trkpt lat="45.97601" lon="5.80747">
        <ele>404.39999389648</ele>
        <time>2025-08-08T10:10:14.000Z</time>
      </trkpt>
      <trkpt lat="45.97566" lon="5.80744">
        <ele>403.79998779297</ele>
        <time>2025-08-08T10:10:18.000Z</time>
      </trkpt>
      <trkpt lat="45.97557" lon="5.80746">
        <ele>403</ele>
        <time>2025-08-08T10:10:19.000Z</time>
      </trkpt>
      <trkpt lat="45.97548" lon="5.80748">
        <ele>402.79998779297</ele>
        <time>2025-08-08T10:10:20.000Z</time>
      </trkpt>
      <trkpt lat="45.97539" lon="5.80752">
        <ele>402.39999389648</ele>
        <time>2025-08-08T10:10:21.000Z</time>
      </trkpt>
      <trkpt lat="45.97514" lon="5.80765">
        <ele>401.39999389648</ele>
        <time>2025-08-08T10:10:24.000Z</time>
      </trkpt>
      <trkpt lat="45.97497" lon="5.80772">
        <ele>400.20001220703</ele>
        <time>2025-08-08T10:10:26.000Z</time>
      </trkpt>
      <trkpt lat="45.97474" lon="5.80785">
        <ele>399.39999389648</ele>
        <time>2025-08-08T10:10:29.000Z</time>
      </trkpt>
      <trkpt lat="45.97459" lon="5.80792">
        <ele>399.20001220703</ele>
        <time>2025-08-08T10:10:31.000Z</time>
      </trkpt>
      <trkpt lat="45.97423" lon="5.8081">
        <ele>399</ele>
        <time>2025-08-08T10:10:37.000Z</time>
      </trkpt>
      <trkpt lat="45.97392" lon="5.80823">
        <ele>400</ele>
        <time>2025-08-08T10:10:43.000Z</time>
      </trkpt>
      <trkpt lat="45.97377" lon="5.8083">
        <ele>400.39999389648</ele>
        <time>2025-08-08T10:10:46.000Z</time>
      </trkpt>
      <trkpt lat="45.97357" lon="5.80836">
        <ele>400.79998779297</ele>
        <time>2025-08-08T10:10:50.000Z</time>
      </trkpt>
      <trkpt lat="45.97312" lon="5.80852">
        <ele>401.39999389648</ele>
        <time>2025-08-08T10:10:59.000Z</time>
      </trkpt>
      <trkpt lat="45.97265" lon="5.80863">
        <ele>401.79998779297</ele>
        <time>2025-08-08T10:11:07.000Z</time>
      </trkpt>
      <trkpt lat="45.97223" lon="5.80863">
        <ele>401</ele>
        <time>2025-08-08T10:11:13.000Z</time>
      </trkpt>
      <trkpt lat="45.97201" lon="5.80859">
        <ele>400.20001220703</ele>
        <time>2025-08-08T10:11:16.000Z</time>
      </trkpt>
      <trkpt lat="45.97192" lon="5.80858">
        <ele>400</ele>
        <time>2025-08-08T10:11:17.000Z</time>
      </trkpt>
      <trkpt lat="45.97185" lon="5.80859">
        <ele>400</ele>
        <time>2025-08-08T10:11:18.000Z</time>
      </trkpt>
      <trkpt lat="45.97177" lon="5.80861">
        <ele>399.79998779297</ele>
        <time>2025-08-08T10:11:19.000Z</time>
      </trkpt>
      <trkpt lat="45.97158" lon="5.80874">
        <ele>399.39999389648</ele>
        <time>2025-08-08T10:11:22.000Z</time>
      </trkpt>
      <trkpt lat="45.97153" lon="5.80878">
        <ele>399.39999389648</ele>
        <time>2025-08-08T10:11:23.000Z</time>
      </trkpt>
      <trkpt lat="45.97133" lon="5.80897">
        <ele>399.39999389648</ele>
        <time>2025-08-08T10:11:27.000Z</time>
      </trkpt>
      <trkpt lat="45.97112" lon="5.80917">
        <ele>399.79998779297</ele>
        <time>2025-08-08T10:11:32.000Z</time>
      </trkpt>
      <trkpt lat="45.97101" lon="5.80931">
        <ele>400.39999389648</ele>
        <time>2025-08-08T10:11:35.000Z</time>
      </trkpt>
      <trkpt lat="45.97087" lon="5.80945">
        <ele>401</ele>
        <time>2025-08-08T10:11:38.000Z</time>
      </trkpt>
      <trkpt lat="45.97073" lon="5.80959">
        <ele>401.39999389648</ele>
        <time>2025-08-08T10:11:41.000Z</time>
      </trkpt>
      <trkpt lat="45.9705" lon="5.80974">
        <ele>401.20001220703</ele>
        <time>2025-08-08T10:11:45.000Z</time>
      </trkpt>
      <trkpt lat="45.9701" lon="5.80991">
        <ele>400.79998779297</ele>
        <time>2025-08-08T10:11:51.000Z</time>
      </trkpt>
      <trkpt lat="45.96972" lon="5.81">
        <ele>399.79998779297</ele>
        <time>2025-08-08T10:11:57.000Z</time>
      </trkpt>
      <trkpt lat="45.96957" lon="5.81002">
        <ele>399.39999389648</ele>
        <time>2025-08-08T10:11:59.000Z</time>
      </trkpt>
      <trkpt lat="45.96944" lon="5.81003">
        <ele>399.20001220703</ele>
        <time>2025-08-08T10:12:01.000Z</time>
      </trkpt>
      <trkpt lat="45.96931" lon="5.81004">
        <ele>399.20001220703</ele>
        <time>2025-08-08T10:12:03.000Z</time>
      </trkpt>
      <trkpt lat="45.96925" lon="5.81005">
        <ele>399</ele>
        <time>2025-08-08T10:12:04.000Z</time>
      </trkpt>
      <trkpt lat="45.96897" lon="5.81004">
        <ele>398.39999389648</ele>
        <time>2025-08-08T10:12:08.000Z</time>
      </trkpt>
      <trkpt lat="45.96884" lon="5.81004">
        <ele>398.20001220703</ele>
        <time>2025-08-08T10:12:10.000Z</time>
      </trkpt>
      <trkpt lat="45.96863" lon="5.81001">
        <ele>397.79998779297</ele>
        <time>2025-08-08T10:12:13.000Z</time>
      </trkpt>
      <trkpt lat="45.96845" lon="5.80994">
        <ele>397.60000610352</ele>
        <time>2025-08-08T10:12:16.000Z</time>
      </trkpt>
      <trkpt lat="45.96824" lon="5.80983">
        <ele>397.20001220703</ele>
        <time>2025-08-08T10:12:19.000Z</time>
      </trkpt>
      <trkpt lat="45.96804" lon="5.80975">
        <ele>395.79998779297</ele>
        <time>2025-08-08T10:12:22.000Z</time>
      </trkpt>
      <trkpt lat="45.96794" lon="5.80973">
        <ele>395.60000610352</ele>
        <time>2025-08-08T10:12:23.000Z</time>
      </trkpt>
      <trkpt lat="45.96772" lon="5.80975">
        <ele>394.79998779297</ele>
        <time>2025-08-08T10:12:26.000Z</time>
      </trkpt>
      <trkpt lat="45.96765" lon="5.80977">
        <ele>394.79998779297</ele>
        <time>2025-08-08T10:12:27.000Z</time>
      </trkpt>
      <trkpt lat="45.96732" lon="5.80991">
        <ele>393.79998779297</ele>
        <time>2025-08-08T10:12:32.000Z</time>
      </trkpt>
      <trkpt lat="45.96696" lon="5.81009">
        <ele>393.60000610352</ele>
        <time>2025-08-08T10:12:38.000Z</time>
      </trkpt>
      <trkpt lat="45.96655" lon="5.81033">
        <ele>393.20001220703</ele>
        <time>2025-08-08T10:12:45.000Z</time>
      </trkpt>
      <trkpt lat="45.9665" lon="5.81039">
        <ele>393</ele>
        <time>2025-08-08T10:12:46.000Z</time>
      </trkpt>
      <trkpt lat="45.96646" lon="5.81046">
        <ele>393</ele>
        <time>2025-08-08T10:12:47.000Z</time>
      </trkpt>
      <trkpt lat="45.96634" lon="5.81075">
        <ele>392.60000610352</ele>
        <time>2025-08-08T10:12:50.000Z</time>
      </trkpt>
      <trkpt lat="45.96625" lon="5.81102">
        <ele>391.79998779297</ele>
        <time>2025-08-08T10:12:53.000Z</time>
      </trkpt>
      <trkpt lat="45.96615" lon="5.81134">
        <ele>390.39999389648</ele>
        <time>2025-08-08T10:12:56.000Z</time>
      </trkpt>
      <trkpt lat="45.96603" lon="5.81177">
        <ele>389</ele>
        <time>2025-08-08T10:13:00.000Z</time>
      </trkpt>
      <trkpt lat="45.96594" lon="5.81199">
        <ele>388.20001220703</ele>
        <time>2025-08-08T10:13:02.000Z</time>
      </trkpt>
      <trkpt lat="45.9659" lon="5.81207">
        <ele>387.79998779297</ele>
        <time>2025-08-08T10:13:03.000Z</time>
      </trkpt>
      <trkpt lat="45.96584" lon="5.81216">
        <ele>387.60000610352</ele>
        <time>2025-08-08T10:13:04.000Z</time>
      </trkpt>
      <trkpt lat="45.96569" lon="5.81232">
        <ele>386.79998779297</ele>
        <time>2025-08-08T10:13:06.000Z</time>
      </trkpt>
      <trkpt lat="45.96561" lon="5.81238">
        <ele>386</ele>
        <time>2025-08-08T10:13:07.000Z</time>
      </trkpt>
      <trkpt lat="45.96547" lon="5.81248">
        <ele>384.60000610352</ele>
        <time>2025-08-08T10:13:09.000Z</time>
      </trkpt>
      <trkpt lat="45.96521" lon="5.81262">
        <ele>383.60000610352</ele>
        <time>2025-08-08T10:13:12.000Z</time>
      </trkpt>
      <trkpt lat="45.96498" lon="5.81277">
        <ele>383</ele>
        <time>2025-08-08T10:13:15.000Z</time>
      </trkpt>
      <trkpt lat="45.96483" lon="5.81295">
        <ele>382.20001220703</ele>
        <time>2025-08-08T10:13:17.000Z</time>
      </trkpt>
      <trkpt lat="45.96473" lon="5.81313">
        <ele>381</ele>
        <time>2025-08-08T10:13:19.000Z</time>
      </trkpt>
      <trkpt lat="45.96468" lon="5.81325">
        <ele>380.79998779297</ele>
        <time>2025-08-08T10:13:20.000Z</time>
      </trkpt>
      <trkpt lat="45.96457" lon="5.81364">
        <ele>379.60000610352</ele>
        <time>2025-08-08T10:13:23.000Z</time>
      </trkpt>
      <trkpt lat="45.96451" lon="5.81386">
        <ele>378.20001220703</ele>
        <time>2025-08-08T10:13:25.000Z</time>
      </trkpt>
      <trkpt lat="45.96444" lon="5.81413">
        <ele>377.20001220703</ele>
        <time>2025-08-08T10:13:27.000Z</time>
      </trkpt>
      <trkpt lat="45.96434" lon="5.81449">
        <ele>375.79998779297</ele>
        <time>2025-08-08T10:13:30.000Z</time>
      </trkpt>
      <trkpt lat="45.96424" lon="5.81489">
        <ele>374.79998779297</ele>
        <time>2025-08-08T10:13:33.000Z</time>
      </trkpt>
      <trkpt lat="45.96423" lon="5.81499">
        <ele>374.20001220703</ele>
        <time>2025-08-08T10:13:34.000Z</time>
      </trkpt>
      <trkpt lat="45.96423" lon="5.81512">
        <ele>373.79998779297</ele>
        <time>2025-08-08T10:13:35.000Z</time>
      </trkpt>
      <trkpt lat="45.96425" lon="5.81528">
        <ele>373.20001220703</ele>
        <time>2025-08-08T10:13:36.000Z</time>
      </trkpt>
      <trkpt lat="45.96429" lon="5.81542">
        <ele>372.60000610352</ele>
        <time>2025-08-08T10:13:37.000Z</time>
      </trkpt>
      <trkpt lat="45.9644" lon="5.81564">
        <ele>371.60000610352</ele>
        <time>2025-08-08T10:13:39.000Z</time>
      </trkpt>
      <trkpt lat="45.96447" lon="5.81572">
        <ele>371.39999389648</ele>
        <time>2025-08-08T10:13:40.000Z</time>
      </trkpt>
      <trkpt lat="45.96464" lon="5.81592">
        <ele>370.60000610352</ele>
        <time>2025-08-08T10:13:42.000Z</time>
      </trkpt>
      <trkpt lat="45.9648" lon="5.81611">
        <ele>369.20001220703</ele>
        <time>2025-08-08T10:13:44.000Z</time>
      </trkpt>
      <trkpt lat="45.96485" lon="5.81619">
        <ele>369</ele>
        <time>2025-08-08T10:13:45.000Z</time>
      </trkpt>
      <trkpt lat="45.96492" lon="5.8163">
        <ele>368.20001220703</ele>
        <time>2025-08-08T10:13:46.000Z</time>
      </trkpt>
      <trkpt lat="45.96503" lon="5.81655">
        <ele>367.20001220703</ele>
        <time>2025-08-08T10:13:48.000Z</time>
      </trkpt>
      <trkpt lat="45.96507" lon="5.81668">
        <ele>367</ele>
        <time>2025-08-08T10:13:49.000Z</time>
      </trkpt>
      <trkpt lat="45.96515" lon="5.81695">
        <ele>365.79998779297</ele>
        <time>2025-08-08T10:13:51.000Z</time>
      </trkpt>
      <trkpt lat="45.96524" lon="5.81721">
        <ele>364.39999389648</ele>
        <time>2025-08-08T10:13:53.000Z</time>
      </trkpt>
      <trkpt lat="45.96534" lon="5.81746">
        <ele>363.60000610352</ele>
        <time>2025-08-08T10:13:55.000Z</time>
      </trkpt>
      <trkpt lat="45.96539" lon="5.81758">
        <ele>363.39999389648</ele>
        <time>2025-08-08T10:13:56.000Z</time>
      </trkpt>
      <trkpt lat="45.96548" lon="5.81784">
        <ele>362.60000610352</ele>
        <time>2025-08-08T10:13:58.000Z</time>
      </trkpt>
      <trkpt lat="45.96552" lon="5.81798">
        <ele>362.20001220703</ele>
        <time>2025-08-08T10:13:59.000Z</time>
      </trkpt>
      <trkpt lat="45.96554" lon="5.81812">
        <ele>362</ele>
        <time>2025-08-08T10:14:00.000Z</time>
      </trkpt>
      <trkpt lat="45.96557" lon="5.81841">
        <ele>360.79998779297</ele>
        <time>2025-08-08T10:14:02.000Z</time>
      </trkpt>
      <trkpt lat="45.96556" lon="5.8187">
        <ele>360.20001220703</ele>
        <time>2025-08-08T10:14:04.000Z</time>
      </trkpt>
      <trkpt lat="45.96554" lon="5.81884">
        <ele>359.79998779297</ele>
        <time>2025-08-08T10:14:05.000Z</time>
      </trkpt>
      <trkpt lat="45.96551" lon="5.81913">
        <ele>358.39999389648</ele>
        <time>2025-08-08T10:14:07.000Z</time>
      </trkpt>
      <trkpt lat="45.96545" lon="5.8194">
        <ele>357.39999389648</ele>
        <time>2025-08-08T10:14:09.000Z</time>
      </trkpt>
      <trkpt lat="45.96541" lon="5.81952">
        <ele>357</ele>
        <time>2025-08-08T10:14:10.000Z</time>
      </trkpt>
      <trkpt lat="45.96537" lon="5.81964">
        <ele>356.60000610352</ele>
        <time>2025-08-08T10:14:11.000Z</time>
      </trkpt>
      <trkpt lat="45.96527" lon="5.81986">
        <ele>356.20001220703</ele>
        <time>2025-08-08T10:14:13.000Z</time>
      </trkpt>
      <trkpt lat="45.96521" lon="5.81995">
        <ele>356</ele>
        <time>2025-08-08T10:14:14.000Z</time>
      </trkpt>
      <trkpt lat="45.96509" lon="5.82011">
        <ele>355.20001220703</ele>
        <time>2025-08-08T10:14:16.000Z</time>
      </trkpt>
      <trkpt lat="45.9649" lon="5.8203">
        <ele>354</ele>
        <time>2025-08-08T10:14:19.000Z</time>
      </trkpt>
      <trkpt lat="45.96476" lon="5.82041">
        <ele>353.39999389648</ele>
        <time>2025-08-08T10:14:21.000Z</time>
      </trkpt>
      <trkpt lat="45.9646" lon="5.82049">
        <ele>353</ele>
        <time>2025-08-08T10:14:23.000Z</time>
      </trkpt>
      <trkpt lat="45.96427" lon="5.82057">
        <ele>352</ele>
        <time>2025-08-08T10:14:27.000Z</time>
      </trkpt>
      <trkpt lat="45.96419" lon="5.8206">
        <ele>351.79998779297</ele>
        <time>2025-08-08T10:14:28.000Z</time>
      </trkpt>
      <trkpt lat="45.96388" lon="5.82077">
        <ele>350.79998779297</ele>
        <time>2025-08-08T10:14:32.000Z</time>
      </trkpt>
      <trkpt lat="45.96381" lon="5.82084">
        <ele>350.39999389648</ele>
        <time>2025-08-08T10:14:33.000Z</time>
      </trkpt>
      <trkpt lat="45.96367" lon="5.82099">
        <ele>349.60000610352</ele>
        <time>2025-08-08T10:14:35.000Z</time>
      </trkpt>
      <trkpt lat="45.96354" lon="5.82116">
        <ele>349</ele>
        <time>2025-08-08T10:14:37.000Z</time>
      </trkpt>
      <trkpt lat="45.96346" lon="5.82121">
        <ele>348.79998779297</ele>
        <time>2025-08-08T10:14:38.000Z</time>
      </trkpt>
      <trkpt lat="45.96337" lon="5.82124">
        <ele>348.79998779297</ele>
        <time>2025-08-08T10:14:39.000Z</time>
      </trkpt>
      <trkpt lat="45.96328" lon="5.82126">
        <ele>348</ele>
        <time>2025-08-08T10:14:40.000Z</time>
      </trkpt>
      <trkpt lat="45.9631" lon="5.8213">
        <ele>347.20001220703</ele>
        <time>2025-08-08T10:14:42.000Z</time>
      </trkpt>
      <trkpt lat="45.96303" lon="5.82133">
        <ele>347.20001220703</ele>
        <time>2025-08-08T10:14:43.000Z</time>
      </trkpt>
      <trkpt lat="45.96289" lon="5.82142">
        <ele>345.79998779297</ele>
        <time>2025-08-08T10:14:45.000Z</time>
      </trkpt>
      <trkpt lat="45.9628" lon="5.82152">
        <ele>345.39999389648</ele>
        <time>2025-08-08T10:14:46.000Z</time>
      </trkpt>
      <trkpt lat="45.96275" lon="5.82161">
        <ele>344.60000610352</ele>
        <time>2025-08-08T10:14:47.000Z</time>
      </trkpt>
      <trkpt lat="45.96264" lon="5.82187">
        <ele>343.60000610352</ele>
        <time>2025-08-08T10:14:49.000Z</time>
      </trkpt>
      <trkpt lat="45.9626" lon="5.82202">
        <ele>343.39999389648</ele>
        <time>2025-08-08T10:14:50.000Z</time>
      </trkpt>
      <trkpt lat="45.96257" lon="5.82216">
        <ele>343.20001220703</ele>
        <time>2025-08-08T10:14:51.000Z</time>
      </trkpt>
      <trkpt lat="45.96252" lon="5.82246">
        <ele>342</ele>
        <time>2025-08-08T10:14:53.000Z</time>
      </trkpt>
      <trkpt lat="45.96249" lon="5.82263">
        <ele>341</ele>
        <time>2025-08-08T10:14:54.000Z</time>
      </trkpt>
      <trkpt lat="45.96242" lon="5.82295">
        <ele>339.60000610352</ele>
        <time>2025-08-08T10:14:56.000Z</time>
      </trkpt>
      <trkpt lat="45.96237" lon="5.82315">
        <ele>339.20001220703</ele>
        <time>2025-08-08T10:14:57.000Z</time>
      </trkpt>
      <trkpt lat="45.96234" lon="5.82328">
        <ele>338.39999389648</ele>
        <time>2025-08-08T10:14:58.000Z</time>
      </trkpt>
      <trkpt lat="45.96226" lon="5.82362">
        <ele>337.20001220703</ele>
        <time>2025-08-08T10:15:00.000Z</time>
      </trkpt>
      <trkpt lat="45.96223" lon="5.82382">
        <ele>335.79998779297</ele>
        <time>2025-08-08T10:15:01.000Z</time>
      </trkpt>
      <trkpt lat="45.96223" lon="5.82396">
        <ele>335.39999389648</ele>
        <time>2025-08-08T10:15:02.000Z</time>
      </trkpt>
      <trkpt lat="45.96223" lon="5.82413">
        <ele>334.20001220703</ele>
        <time>2025-08-08T10:15:03.000Z</time>
      </trkpt>
      <trkpt lat="45.96223" lon="5.82446">
        <ele>332.60000610352</ele>
        <time>2025-08-08T10:15:05.000Z</time>
      </trkpt>
      <trkpt lat="45.96223" lon="5.82463">
        <ele>332.20001220703</ele>
        <time>2025-08-08T10:15:06.000Z</time>
      </trkpt>
      <trkpt lat="45.96224" lon="5.8248">
        <ele>331.20001220703</ele>
        <time>2025-08-08T10:15:07.000Z</time>
      </trkpt>
      <trkpt lat="45.96224" lon="5.82497">
        <ele>330.60000610352</ele>
        <time>2025-08-08T10:15:08.000Z</time>
      </trkpt>
      <trkpt lat="45.96226" lon="5.82512">
        <ele>329.39999389648</ele>
        <time>2025-08-08T10:15:09.000Z</time>
      </trkpt>
      <trkpt lat="45.9623" lon="5.82526">
        <ele>328</ele>
        <time>2025-08-08T10:15:10.000Z</time>
      </trkpt>
      <trkpt lat="45.96243" lon="5.8255">
        <ele>326.39999389648</ele>
        <time>2025-08-08T10:15:12.000Z</time>
      </trkpt>
      <trkpt lat="45.96251" lon="5.82561">
        <ele>325.79998779297</ele>
        <time>2025-08-08T10:15:13.000Z</time>
      </trkpt>
      <trkpt lat="45.96259" lon="5.82571">
        <ele>323.79998779297</ele>
        <time>2025-08-08T10:15:14.000Z</time>
      </trkpt>
      <trkpt lat="45.96266" lon="5.82581">
        <ele>323.39999389648</ele>
        <time>2025-08-08T10:15:15.000Z</time>
      </trkpt>
      <trkpt lat="45.96271" lon="5.82592">
        <ele>322.20001220703</ele>
        <time>2025-08-08T10:15:16.000Z</time>
      </trkpt>
      <trkpt lat="45.96274" lon="5.82603">
        <ele>321.79998779297</ele>
        <time>2025-08-08T10:15:17.000Z</time>
      </trkpt>
      <trkpt lat="45.96274" lon="5.82615">
        <ele>320.60000610352</ele>
        <time>2025-08-08T10:15:18.000Z</time>
      </trkpt>
      <trkpt lat="45.96271" lon="5.82626">
        <ele>318.79998779297</ele>
        <time>2025-08-08T10:15:19.000Z</time>
      </trkpt>
      <trkpt lat="45.96261" lon="5.82646">
        <ele>317.60000610352</ele>
        <time>2025-08-08T10:15:21.000Z</time>
      </trkpt>
      <trkpt lat="45.96255" lon="5.82656">
        <ele>317</ele>
        <time>2025-08-08T10:15:22.000Z</time>
      </trkpt>
      <trkpt lat="45.9625" lon="5.82667">
        <ele>316</ele>
        <time>2025-08-08T10:15:23.000Z</time>
      </trkpt>
      <trkpt lat="45.96238" lon="5.82702">
        <ele>314</ele>
        <time>2025-08-08T10:15:26.000Z</time>
      </trkpt>
      <trkpt lat="45.96235" lon="5.82729">
        <ele>312.79998779297</ele>
        <time>2025-08-08T10:15:28.000Z</time>
      </trkpt>
      <trkpt lat="45.96232" lon="5.8276">
        <ele>311.79998779297</ele>
        <time>2025-08-08T10:15:30.000Z</time>
      </trkpt>
      <trkpt lat="45.96229" lon="5.82775">
        <ele>311.60000610352</ele>
        <time>2025-08-08T10:15:31.000Z</time>
      </trkpt>
      <trkpt lat="45.96223" lon="5.82788">
        <ele>311.39999389648</ele>
        <time>2025-08-08T10:15:32.000Z</time>
      </trkpt>
      <trkpt lat="45.96217" lon="5.82801">
        <ele>310.79998779297</ele>
        <time>2025-08-08T10:15:33.000Z</time>
      </trkpt>
      <trkpt lat="45.96206" lon="5.82828">
        <ele>308.79998779297</ele>
        <time>2025-08-08T10:15:35.000Z</time>
      </trkpt>
      <trkpt lat="45.96199" lon="5.82857">
        <ele>307.39999389648</ele>
        <time>2025-08-08T10:15:37.000Z</time>
      </trkpt>
      <trkpt lat="45.96198" lon="5.82887">
        <ele>306</ele>
        <time>2025-08-08T10:15:39.000Z</time>
      </trkpt>
      <trkpt lat="45.962" lon="5.82902">
        <ele>305.60000610352</ele>
        <time>2025-08-08T10:15:40.000Z</time>
      </trkpt>
      <trkpt lat="45.96201" lon="5.82914">
        <ele>304.39999389648</ele>
        <time>2025-08-08T10:15:41.000Z</time>
      </trkpt>
      <trkpt lat="45.96196" lon="5.82942">
        <ele>303.20001220703</ele>
        <time>2025-08-08T10:15:43.000Z</time>
      </trkpt>
      <trkpt lat="45.96191" lon="5.82969">
        <ele>302</ele>
        <time>2025-08-08T10:15:45.000Z</time>
      </trkpt>
      <trkpt lat="45.96191" lon="5.82982">
        <ele>301</ele>
        <time>2025-08-08T10:15:46.000Z</time>
      </trkpt>
      <trkpt lat="45.96192" lon="5.82994">
        <ele>300.60000610352</ele>
        <time>2025-08-08T10:15:47.000Z</time>
      </trkpt>
      <trkpt lat="45.96196" lon="5.83006">
        <ele>300</ele>
        <time>2025-08-08T10:15:48.000Z</time>
      </trkpt>
      <trkpt lat="45.96201" lon="5.83018">
        <ele>299.20001220703</ele>
        <time>2025-08-08T10:15:49.000Z</time>
      </trkpt>
      <trkpt lat="45.96213" lon="5.83041">
        <ele>297.79998779297</ele>
        <time>2025-08-08T10:15:51.000Z</time>
      </trkpt>
      <trkpt lat="45.96217" lon="5.8305">
        <ele>297.20001220703</ele>
        <time>2025-08-08T10:15:52.000Z</time>
      </trkpt>
      <trkpt lat="45.96221" lon="5.83061">
        <ele>296.39999389648</ele>
        <time>2025-08-08T10:15:53.000Z</time>
      </trkpt>
      <trkpt lat="45.96229" lon="5.83085">
        <ele>295.20001220703</ele>
        <time>2025-08-08T10:15:55.000Z</time>
      </trkpt>
      <trkpt lat="45.96234" lon="5.83109">
        <ele>294.39999389648</ele>
        <time>2025-08-08T10:15:57.000Z</time>
      </trkpt>
      <trkpt lat="45.96236" lon="5.83121">
        <ele>294.20001220703</ele>
        <time>2025-08-08T10:15:58.000Z</time>
      </trkpt>
      <trkpt lat="45.96237" lon="5.83133">
        <ele>293.60000610352</ele>
        <time>2025-08-08T10:15:59.000Z</time>
      </trkpt>
      <trkpt lat="45.96237" lon="5.83143">
        <ele>292</ele>
        <time>2025-08-08T10:16:00.000Z</time>
      </trkpt>
      <trkpt lat="45.96238" lon="5.83152">
        <ele>291.39999389648</ele>
        <time>2025-08-08T10:16:01.000Z</time>
      </trkpt>
      <trkpt lat="45.96237" lon="5.83161">
        <ele>290.60000610352</ele>
        <time>2025-08-08T10:16:02.000Z</time>
      </trkpt>
      <trkpt lat="45.96234" lon="5.83168">
        <ele>290</ele>
        <time>2025-08-08T10:16:03.000Z</time>
      </trkpt>
      <trkpt lat="45.9623" lon="5.83172">
        <ele>289.20001220703</ele>
        <time>2025-08-08T10:16:04.000Z</time>
      </trkpt>
      <trkpt lat="45.96228" lon="5.83173">
        <ele>289</ele>
        <time>2025-08-08T10:16:05.000Z</time>
      </trkpt>
      <trkpt lat="45.96223" lon="5.83173">
        <ele>288.60000610352</ele>
        <time>2025-08-08T10:16:07.000Z</time>
      </trkpt>
      <trkpt lat="45.96222" lon="5.83173">
        <ele>287.79998779297</ele>
        <time>2025-08-08T10:16:09.000Z</time>
      </trkpt>
      <trkpt lat="45.96212" lon="5.8317">
        <ele>286.60000610352</ele>
        <time>2025-08-08T10:20:35.000Z</time>
      </trkpt>
      <trkpt lat="45.96192" lon="5.83168">
        <ele>286.79998779297</ele>
        <time>2025-08-08T10:20:41.000Z</time>
      </trkpt>
      <trkpt lat="45.96172" lon="5.83166">
        <ele>286.79998779297</ele>
        <time>2025-08-08T10:20:46.000Z</time>
      </trkpt>
      <trkpt lat="45.9614" lon="5.83168">
        <ele>287</ele>
        <time>2025-08-08T10:20:53.000Z</time>
      </trkpt>
      <trkpt lat="45.96098" lon="5.83172">
        <ele>287.20001220703</ele>
        <time>2025-08-08T10:21:02.000Z</time>
      </trkpt>
      <trkpt lat="45.9607" lon="5.83178">
        <ele>287.20001220703</ele>
        <time>2025-08-08T10:21:08.000Z</time>
      </trkpt>
      <trkpt lat="45.96055" lon="5.8318">
        <ele>287.20001220703</ele>
        <time>2025-08-08T10:21:11.000Z</time>
      </trkpt>
      <trkpt lat="45.96014" lon="5.83187">
        <ele>287.20001220703</ele>
        <time>2025-08-08T10:21:20.000Z</time>
      </trkpt>
      <trkpt lat="45.95977" lon="5.83194">
        <ele>287.39999389648</ele>
        <time>2025-08-08T10:21:28.000Z</time>
      </trkpt>
      <trkpt lat="45.95952" lon="5.832">
        <ele>287.39999389648</ele>
        <time>2025-08-08T10:21:34.000Z</time>
      </trkpt>
      <trkpt lat="45.95926" lon="5.83203">
        <ele>287.39999389648</ele>
        <time>2025-08-08T10:21:40.000Z</time>
      </trkpt>
      <trkpt lat="45.95918" lon="5.83204">
        <ele>287.39999389648</ele>
        <time>2025-08-08T10:21:42.000Z</time>
      </trkpt>
      <trkpt lat="45.95893" lon="5.8321">
        <ele>287.39999389648</ele>
        <time>2025-08-08T10:21:49.000Z</time>
      </trkpt>
      <trkpt lat="45.95872" lon="5.83215">
        <ele>287.60000610352</ele>
        <time>2025-08-08T10:21:56.000Z</time>
      </trkpt>
      <trkpt lat="45.95862" lon="5.83217">
        <ele>288</ele>
        <time>2025-08-08T10:22:01.000Z</time>
      </trkpt>
      <trkpt lat="45.95861" lon="5.83221">
        <ele>288</ele>
        <time>2025-08-08T10:22:03.000Z</time>
      </trkpt>
      <trkpt lat="45.9586" lon="5.83228">
        <ele>288.20001220703</ele>
        <time>2025-08-08T10:22:05.000Z</time>
      </trkpt>
      <trkpt lat="45.95855" lon="5.83268">
        <ele>288.60000610352</ele>
        <time>2025-08-08T10:22:14.000Z</time>
      </trkpt>
      <trkpt lat="45.9585" lon="5.83305">
        <ele>289.20001220703</ele>
        <time>2025-08-08T10:22:22.000Z</time>
      </trkpt>
      <trkpt lat="45.95849" lon="5.8331">
        <ele>289.39999389648</ele>
        <time>2025-08-08T10:22:23.000Z</time>
      </trkpt>
      <trkpt lat="45.95846" lon="5.83341">
        <ele>289.60000610352</ele>
        <time>2025-08-08T10:22:29.000Z</time>
      </trkpt>
      <trkpt lat="45.95849" lon="5.83368">
        <ele>289.79998779297</ele>
        <time>2025-08-08T10:22:35.000Z</time>
      </trkpt>
      <trkpt lat="45.9585" lon="5.83386">
        <ele>290.60000610352</ele>
        <time>2025-08-08T10:22:40.000Z</time>
      </trkpt>
      <trkpt lat="45.95849" lon="5.83391">
        <ele>290.79998779297</ele>
        <time>2025-08-08T10:22:42.000Z</time>
      </trkpt>
      <trkpt lat="45.95849" lon="5.83396">
        <ele>291.39999389648</ele>
        <time>2025-08-08T10:22:44.000Z</time>
      </trkpt>
      <trkpt lat="45.9585" lon="5.83398">
        <ele>291.60000610352</ele>
        <time>2025-08-08T10:22:45.000Z</time>
      </trkpt>
      <trkpt lat="45.95853" lon="5.83402">
        <ele>292.20001220703</ele>
        <time>2025-08-08T10:22:47.000Z</time>
      </trkpt>
      <trkpt lat="45.95859" lon="5.83406">
        <ele>292.60000610352</ele>
        <time>2025-08-08T10:22:50.000Z</time>
      </trkpt>
      <trkpt lat="45.95865" lon="5.83412">
        <ele>292.79998779297</ele>
        <time>2025-08-08T10:22:52.000Z</time>
      </trkpt>
      <trkpt lat="45.95869" lon="5.8342">
        <ele>292.79998779297</ele>
        <time>2025-08-08T10:22:54.000Z</time>
      </trkpt>
      <trkpt lat="45.95877" lon="5.83449">
        <ele>293.79998779297</ele>
        <time>2025-08-08T10:23:01.000Z</time>
      </trkpt>
      <trkpt lat="45.95879" lon="5.83455">
        <ele>293.60000610352</ele>
        <time>2025-08-08T10:23:02.000Z</time>
      </trkpt>
      <trkpt lat="45.95881" lon="5.8346">
        <ele>293.79998779297</ele>
        <time>2025-08-08T10:23:03.000Z</time>
      </trkpt>
      <trkpt lat="45.95884" lon="5.83468">
        <ele>294.20001220703</ele>
        <time>2025-08-08T10:23:05.000Z</time>
      </trkpt>
      <trkpt lat="45.95896" lon="5.83487">
        <ele>294.79998779297</ele>
        <time>2025-08-08T10:23:11.000Z</time>
      </trkpt>
      <trkpt lat="45.95902" lon="5.83491">
        <ele>295</ele>
        <time>2025-08-08T10:23:13.000Z</time>
      </trkpt>
      <trkpt lat="45.95912" lon="5.83504">
        <ele>295.39999389648</ele>
        <time>2025-08-08T10:23:18.000Z</time>
      </trkpt>
      <trkpt lat="45.95919" lon="5.83514">
        <ele>295.60000610352</ele>
        <time>2025-08-08T10:23:23.000Z</time>
      </trkpt>
      <trkpt lat="45.95926" lon="5.83523">
        <ele>295.60000610352</ele>
        <time>2025-08-08T10:23:29.000Z</time>
      </trkpt>
      <trkpt lat="45.95927" lon="5.83526">
        <ele>295.60000610352</ele>
        <time>2025-08-08T10:23:33.000Z</time>
      </trkpt>
      <trkpt lat="45.9592" lon="5.8352">
        <ele>295.60000610352</ele>
        <time>2025-08-08T10:23:41.000Z</time>
      </trkpt>
      <trkpt lat="45.95919" lon="5.83518">
        <ele>295.60000610352</ele>
        <time>2025-08-08T10:23:42.000Z</time>
      </trkpt>
      <trkpt lat="45.95915" lon="5.83512">
        <ele>295.60000610352</ele>
        <time>2025-08-08T10:23:44.000Z</time>
      </trkpt>
      <trkpt lat="45.95909" lon="5.83512">
        <ele>295.60000610352</ele>
        <time>2025-08-08T10:23:46.000Z</time>
      </trkpt>
      <trkpt lat="45.95898" lon="5.83525">
        <ele>296</ele>
        <time>2025-08-08T10:23:51.000Z</time>
      </trkpt>
      <trkpt lat="45.95894" lon="5.83532">
        <ele>296.39999389648</ele>
        <time>2025-08-08T10:23:54.000Z</time>
      </trkpt>
      <trkpt lat="45.95894" lon="5.83534">
        <ele>296.79998779297</ele>
        <time>2025-08-08T10:23:55.000Z</time>
      </trkpt>
      <trkpt lat="45.95893" lon="5.83536">
        <ele>297.60000610352</ele>
        <time>2025-08-08T10:24:00.000Z</time>
      </trkpt>
      <trkpt lat="45.95891" lon="5.83541">
        <ele>297.60000610352</ele>
        <time>2025-08-08T10:24:04.000Z</time>
      </trkpt>
      <trkpt lat="45.95881" lon="5.83561">
        <ele>297.79998779297</ele>
        <time>2025-08-08T10:24:10.000Z</time>
      </trkpt>
      <trkpt lat="45.95872" lon="5.83573">
        <ele>297.79998779297</ele>
        <time>2025-08-08T10:24:15.000Z</time>
      </trkpt>
      <trkpt lat="45.9587" lon="5.83576">
        <ele>297.60000610352</ele>
        <time>2025-08-08T10:24:17.000Z</time>
      </trkpt>
      <trkpt lat="45.95868" lon="5.83576">
        <ele>297.39999389648</ele>
        <time>2025-08-08T10:24:18.000Z</time>
      </trkpt>
      <trkpt lat="45.95866" lon="5.83574">
        <ele>297.20001220703</ele>
        <time>2025-08-08T10:24:19.000Z</time>
      </trkpt>
      <trkpt lat="45.95856" lon="5.8356">
        <ele>296.60000610352</ele>
        <time>2025-08-08T10:24:23.000Z</time>
      </trkpt>
      <trkpt lat="45.95853" lon="5.83557">
        <ele>296.20001220703</ele>
        <time>2025-08-08T10:24:24.000Z</time>
      </trkpt>
      <trkpt lat="45.95843" lon="5.83548">
        <ele>295</ele>
        <time>2025-08-08T10:24:27.000Z</time>
      </trkpt>
      <trkpt lat="45.9584" lon="5.83547">
        <ele>295</ele>
        <time>2025-08-08T10:24:28.000Z</time>
      </trkpt>
      <trkpt lat="45.95834" lon="5.83551">
        <ele>294</ele>
        <time>2025-08-08T10:24:31.000Z</time>
      </trkpt>
      <trkpt lat="45.95831" lon="5.83555">
        <ele>293.20001220703</ele>
        <time>2025-08-08T10:24:32.000Z</time>
      </trkpt>
      <trkpt lat="45.95829" lon="5.83558">
        <ele>292.60000610352</ele>
        <time>2025-08-08T10:24:33.000Z</time>
      </trkpt>
      <trkpt lat="45.95818" lon="5.83572">
        <ele>291.60000610352</ele>
        <time>2025-08-08T10:24:37.000Z</time>
      </trkpt>
      <trkpt lat="45.95811" lon="5.83578">
        <ele>291.20001220703</ele>
        <time>2025-08-08T10:24:39.000Z</time>
      </trkpt>
      <trkpt lat="45.95805" lon="5.83585">
        <ele>290.60000610352</ele>
        <time>2025-08-08T10:24:41.000Z</time>
      </trkpt>
      <trkpt lat="45.95796" lon="5.83595">
        <ele>289.39999389648</ele>
        <time>2025-08-08T10:24:45.000Z</time>
      </trkpt>
      <trkpt lat="45.95795" lon="5.83597">
        <ele>288.79998779297</ele>
        <time>2025-08-08T10:24:46.000Z</time>
      </trkpt>
      <trkpt lat="45.95795" lon="5.83605">
        <ele>288</ele>
        <time>2025-08-08T10:24:48.000Z</time>
      </trkpt>
      <trkpt lat="45.95796" lon="5.83608">
        <ele>288</ele>
        <time>2025-08-08T10:24:49.000Z</time>
      </trkpt>
      <trkpt lat="45.95798" lon="5.83615">
        <ele>287.79998779297</ele>
        <time>2025-08-08T10:24:51.000Z</time>
      </trkpt>
      <trkpt lat="45.95796" lon="5.83621">
        <ele>287.60000610352</ele>
        <time>2025-08-08T10:24:53.000Z</time>
      </trkpt>
      <trkpt lat="45.95783" lon="5.83634">
        <ele>287.39999389648</ele>
        <time>2025-08-08T10:24:57.000Z</time>
      </trkpt>
      <trkpt lat="45.95775" lon="5.83638">
        <ele>287.39999389648</ele>
        <time>2025-08-08T10:24:59.000Z</time>
      </trkpt>
      <trkpt lat="45.95761" lon="5.8364">
        <ele>287.39999389648</ele>
        <time>2025-08-08T10:25:02.000Z</time>
      </trkpt>
      <trkpt lat="45.95719" lon="5.83651">
        <ele>287.39999389648</ele>
        <time>2025-08-08T10:25:10.000Z</time>
      </trkpt>
      <trkpt lat="45.95702" lon="5.83658">
        <ele>287.20001220703</ele>
        <time>2025-08-08T10:25:13.000Z</time>
      </trkpt>
      <trkpt lat="45.95667" lon="5.83673">
        <ele>287</ele>
        <time>2025-08-08T10:25:19.000Z</time>
      </trkpt>
      <trkpt lat="45.95613" lon="5.83697">
        <ele>286.79998779297</ele>
        <time>2025-08-08T10:25:28.000Z</time>
      </trkpt>
      <trkpt lat="45.95607" lon="5.83699">
        <ele>286.79998779297</ele>
        <time>2025-08-08T10:25:29.000Z</time>
      </trkpt>
      <trkpt lat="45.95552" lon="5.83722">
        <ele>286.20001220703</ele>
        <time>2025-08-08T10:25:38.000Z</time>
      </trkpt>
      <trkpt lat="45.95531" lon="5.83731">
        <ele>286</ele>
        <time>2025-08-08T10:25:41.000Z</time>
      </trkpt>
      <trkpt lat="45.95474" lon="5.83753">
        <ele>285.39999389648</ele>
        <time>2025-08-08T10:25:50.000Z</time>
      </trkpt>
      <trkpt lat="45.95466" lon="5.83756">
        <ele>285.60000610352</ele>
        <time>2025-08-08T10:25:51.000Z</time>
      </trkpt>
      <trkpt lat="45.95442" lon="5.83763">
        <ele>285.60000610352</ele>
        <time>2025-08-08T10:25:55.000Z</time>
      </trkpt>
      <trkpt lat="45.95434" lon="5.83761">
        <ele>285.39999389648</ele>
        <time>2025-08-08T10:25:56.000Z</time>
      </trkpt>
      <trkpt lat="45.95429" lon="5.83757">
        <ele>285.39999389648</ele>
        <time>2025-08-08T10:25:57.000Z</time>
      </trkpt>
      <trkpt lat="45.95426" lon="5.8375">
        <ele>285.39999389648</ele>
        <time>2025-08-08T10:25:58.000Z</time>
      </trkpt>
      <trkpt lat="45.9542" lon="5.83736">
        <ele>285.20001220703</ele>
        <time>2025-08-08T10:26:00.000Z</time>
      </trkpt>
      <trkpt lat="45.95409" lon="5.83726">
        <ele>285.39999389648</ele>
        <time>2025-08-08T10:26:02.000Z</time>
      </trkpt>
      <trkpt lat="45.95399" lon="5.83726">
        <ele>285.39999389648</ele>
        <time>2025-08-08T10:26:04.000Z</time>
      </trkpt>
      <trkpt lat="45.95393" lon="5.83729">
        <ele>285.39999389648</ele>
        <time>2025-08-08T10:26:05.000Z</time>
      </trkpt>
      <trkpt lat="45.95389" lon="5.83735">
        <ele>285.39999389648</ele>
        <time>2025-08-08T10:26:06.000Z</time>
      </trkpt>
      <trkpt lat="45.95381" lon="5.83748">
        <ele>285.39999389648</ele>
        <time>2025-08-08T10:26:08.000Z</time>
      </trkpt>
      <trkpt lat="45.9537" lon="5.83759">
        <ele>285.60000610352</ele>
        <time>2025-08-08T10:26:10.000Z</time>
      </trkpt>
      <trkpt lat="45.95357" lon="5.83769">
        <ele>285.60000610352</ele>
        <time>2025-08-08T10:26:12.000Z</time>
      </trkpt>
      <trkpt lat="45.95313" lon="5.83805">
        <ele>285.60000610352</ele>
        <time>2025-08-08T10:26:20.000Z</time>
      </trkpt>
      <trkpt lat="45.95263" lon="5.83843">
        <ele>285.79998779297</ele>
        <time>2025-08-08T10:26:29.000Z</time>
      </trkpt>
      <trkpt lat="45.95257" lon="5.83846">
        <ele>285.79998779297</ele>
        <time>2025-08-08T10:26:30.000Z</time>
      </trkpt>
      <trkpt lat="45.95204" lon="5.83867">
        <ele>286.20001220703</ele>
        <time>2025-08-08T10:26:39.000Z</time>
      </trkpt>
      <trkpt lat="45.95198" lon="5.83869">
        <ele>286.20001220703</ele>
        <time>2025-08-08T10:26:40.000Z</time>
      </trkpt>
      <trkpt lat="45.95143" lon="5.83891">
        <ele>286.20001220703</ele>
        <time>2025-08-08T10:26:49.000Z</time>
      </trkpt>
      <trkpt lat="45.95137" lon="5.83894">
        <ele>286.20001220703</ele>
        <time>2025-08-08T10:26:50.000Z</time>
      </trkpt>
      <trkpt lat="45.95082" lon="5.83917">
        <ele>286.39999389648</ele>
        <time>2025-08-08T10:26:59.000Z</time>
      </trkpt>
      <trkpt lat="45.95075" lon="5.83919">
        <ele>286.39999389648</ele>
        <time>2025-08-08T10:27:00.000Z</time>
      </trkpt>
      <trkpt lat="45.95018" lon="5.83943">
        <ele>286.20001220703</ele>
        <time>2025-08-08T10:27:09.000Z</time>
      </trkpt>
      <trkpt lat="45.94981" lon="5.83959">
        <ele>286</ele>
        <time>2025-08-08T10:27:15.000Z</time>
      </trkpt>
      <trkpt lat="45.94924" lon="5.83977">
        <ele>286</ele>
        <time>2025-08-08T10:27:24.000Z</time>
      </trkpt>
      <trkpt lat="45.94917" lon="5.83978">
        <ele>286</ele>
        <time>2025-08-08T10:27:25.000Z</time>
      </trkpt>
      <trkpt lat="45.94864" lon="5.83979">
        <ele>286.20001220703</ele>
        <time>2025-08-08T10:27:33.000Z</time>
      </trkpt>
      <trkpt lat="45.94822" lon="5.8397">
        <ele>286.39999389648</ele>
        <time>2025-08-08T10:27:39.000Z</time>
      </trkpt>
      <trkpt lat="45.94777" lon="5.83949">
        <ele>286.79998779297</ele>
        <time>2025-08-08T10:27:46.000Z</time>
      </trkpt>
      <trkpt lat="45.94771" lon="5.83946">
        <ele>286.79998779297</ele>
        <time>2025-08-08T10:27:47.000Z</time>
      </trkpt>
      <trkpt lat="45.94727" lon="5.83918">
        <ele>287.39999389648</ele>
        <time>2025-08-08T10:27:54.000Z</time>
      </trkpt>
      <trkpt lat="45.94673" lon="5.83881">
        <ele>287.60000610352</ele>
        <time>2025-08-08T10:28:03.000Z</time>
      </trkpt>
      <trkpt lat="45.94618" lon="5.83846">
        <ele>287.39999389648</ele>
        <time>2025-08-08T10:28:12.000Z</time>
      </trkpt>
      <trkpt lat="45.94612" lon="5.83842">
        <ele>287.39999389648</ele>
        <time>2025-08-08T10:28:13.000Z</time>
      </trkpt>
      <trkpt lat="45.9456" lon="5.83807">
        <ele>287.20001220703</ele>
        <time>2025-08-08T10:28:22.000Z</time>
      </trkpt>
      <trkpt lat="45.94541" lon="5.83794">
        <ele>287.20001220703</ele>
        <time>2025-08-08T10:28:25.000Z</time>
      </trkpt>
      <trkpt lat="45.94489" lon="5.83759">
        <ele>287.20001220703</ele>
        <time>2025-08-08T10:28:34.000Z</time>
      </trkpt>
      <trkpt lat="45.9446" lon="5.8374">
        <ele>287</ele>
        <time>2025-08-08T10:28:39.000Z</time>
      </trkpt>
      <trkpt lat="45.94438" lon="5.83726">
        <ele>286.79998779297</ele>
        <time>2025-08-08T10:28:43.000Z</time>
      </trkpt>
      <trkpt lat="45.94404" lon="5.83706">
        <ele>286.39999389648</ele>
        <time>2025-08-08T10:28:49.000Z</time>
      </trkpt>
      <trkpt lat="45.9435" lon="5.83679">
        <ele>286.39999389648</ele>
        <time>2025-08-08T10:28:58.000Z</time>
      </trkpt>
      <trkpt lat="45.94344" lon="5.83676">
        <ele>286.39999389648</ele>
        <time>2025-08-08T10:28:59.000Z</time>
      </trkpt>
      <trkpt lat="45.94287" lon="5.83654">
        <ele>286.39999389648</ele>
        <time>2025-08-08T10:29:08.000Z</time>
      </trkpt>
      <trkpt lat="45.94281" lon="5.83651">
        <ele>286.39999389648</ele>
        <time>2025-08-08T10:29:09.000Z</time>
      </trkpt>
      <trkpt lat="45.94236" lon="5.83639">
        <ele>286.39999389648</ele>
        <time>2025-08-08T10:29:16.000Z</time>
      </trkpt>
      <trkpt lat="45.94198" lon="5.83631">
        <ele>287</ele>
        <time>2025-08-08T10:29:22.000Z</time>
      </trkpt>
      <trkpt lat="45.94161" lon="5.83624">
        <ele>287.20001220703</ele>
        <time>2025-08-08T10:29:28.000Z</time>
      </trkpt>
      <trkpt lat="45.94106" lon="5.83617">
        <ele>286.60000610352</ele>
        <time>2025-08-08T10:29:37.000Z</time>
      </trkpt>
      <trkpt lat="45.94082" lon="5.83614">
        <ele>286.60000610352</ele>
        <time>2025-08-08T10:29:41.000Z</time>
      </trkpt>
      <trkpt lat="45.94025" lon="5.83607">
        <ele>286.20001220703</ele>
        <time>2025-08-08T10:29:50.000Z</time>
      </trkpt>
      <trkpt lat="45.94012" lon="5.83607">
        <ele>286.20001220703</ele>
        <time>2025-08-08T10:29:52.000Z</time>
      </trkpt>
      <trkpt lat="45.93956" lon="5.83611">
        <ele>286</ele>
        <time>2025-08-08T10:30:01.000Z</time>
      </trkpt>
      <trkpt lat="45.93949" lon="5.83612">
        <ele>286</ele>
        <time>2025-08-08T10:30:02.000Z</time>
      </trkpt>
      <trkpt lat="45.93905" lon="5.8362">
        <ele>285.79998779297</ele>
        <time>2025-08-08T10:30:09.000Z</time>
      </trkpt>
      <trkpt lat="45.93875" lon="5.83624">
        <ele>285.79998779297</ele>
        <time>2025-08-08T10:30:14.000Z</time>
      </trkpt>
      <trkpt lat="45.9382" lon="5.8363">
        <ele>285.60000610352</ele>
        <time>2025-08-08T10:30:23.000Z</time>
      </trkpt>
      <trkpt lat="45.93815" lon="5.83631">
        <ele>285.60000610352</ele>
        <time>2025-08-08T10:30:24.000Z</time>
      </trkpt>
      <trkpt lat="45.93761" lon="5.83637">
        <ele>285.79998779297</ele>
        <time>2025-08-08T10:30:33.000Z</time>
      </trkpt>
      <trkpt lat="45.93736" lon="5.83639">
        <ele>285.60000610352</ele>
        <time>2025-08-08T10:30:37.000Z</time>
      </trkpt>
      <trkpt lat="45.9368" lon="5.83645">
        <ele>286.20001220703</ele>
        <time>2025-08-08T10:30:46.000Z</time>
      </trkpt>
      <trkpt lat="45.93673" lon="5.83645">
        <ele>286.20001220703</ele>
        <time>2025-08-08T10:30:47.000Z</time>
      </trkpt>
      <trkpt lat="45.93613" lon="5.83651">
        <ele>286.20001220703</ele>
        <time>2025-08-08T10:30:57.000Z</time>
      </trkpt>
      <trkpt lat="45.93607" lon="5.83651">
        <ele>286.20001220703</ele>
        <time>2025-08-08T10:30:58.000Z</time>
      </trkpt>
      <trkpt lat="45.93546" lon="5.83657">
        <ele>286.39999389648</ele>
        <time>2025-08-08T10:31:08.000Z</time>
      </trkpt>
      <trkpt lat="45.93529" lon="5.83658">
        <ele>286.60000610352</ele>
        <time>2025-08-08T10:31:11.000Z</time>
      </trkpt>
      <trkpt lat="45.93473" lon="5.83664">
        <ele>286.79998779297</ele>
        <time>2025-08-08T10:31:20.000Z</time>
      </trkpt>
      <trkpt lat="45.93461" lon="5.83665">
        <ele>286.79998779297</ele>
        <time>2025-08-08T10:31:22.000Z</time>
      </trkpt>
      <trkpt lat="45.93401" lon="5.83671">
        <ele>286.79998779297</ele>
        <time>2025-08-08T10:31:32.000Z</time>
      </trkpt>
      <trkpt lat="45.93396" lon="5.83672">
        <ele>286.79998779297</ele>
        <time>2025-08-08T10:31:33.000Z</time>
      </trkpt>
      <trkpt lat="45.93374" lon="5.83676">
        <ele>287.20001220703</ele>
        <time>2025-08-08T10:31:37.000Z</time>
      </trkpt>
      <trkpt lat="45.93367" lon="5.83677">
        <ele>287.39999389648</ele>
        <time>2025-08-08T10:31:38.000Z</time>
      </trkpt>
      <trkpt lat="45.93362" lon="5.83678">
        <ele>287.60000610352</ele>
        <time>2025-08-08T10:31:39.000Z</time>
      </trkpt>
      <trkpt lat="45.93354" lon="5.83685">
        <ele>287.79998779297</ele>
        <time>2025-08-08T10:31:41.000Z</time>
      </trkpt>
      <trkpt lat="45.93351" lon="5.83691">
        <ele>288</ele>
        <time>2025-08-08T10:31:42.000Z</time>
      </trkpt>
      <trkpt lat="45.93349" lon="5.83699">
        <ele>288.20001220703</ele>
        <time>2025-08-08T10:31:43.000Z</time>
      </trkpt>
      <trkpt lat="45.93345" lon="5.83725">
        <ele>288.60000610352</ele>
        <time>2025-08-08T10:31:46.000Z</time>
      </trkpt>
      <trkpt lat="45.93329" lon="5.83786">
        <ele>288.60000610352</ele>
        <time>2025-08-08T10:31:53.000Z</time>
      </trkpt>
      <trkpt lat="45.93311" lon="5.83847">
        <ele>288.79998779297</ele>
        <time>2025-08-08T10:32:01.000Z</time>
      </trkpt>
      <trkpt lat="45.93291" lon="5.83916">
        <ele>289.60000610352</ele>
        <time>2025-08-08T10:32:10.000Z</time>
      </trkpt>
      <trkpt lat="45.9329" lon="5.83923">
        <ele>290</ele>
        <time>2025-08-08T10:32:11.000Z</time>
      </trkpt>
      <trkpt lat="45.93288" lon="5.83948">
        <ele>290.20001220703</ele>
        <time>2025-08-08T10:32:14.000Z</time>
      </trkpt>
      <trkpt lat="45.93289" lon="5.83962">
        <ele>290.20001220703</ele>
        <time>2025-08-08T10:32:16.000Z</time>
      </trkpt>
      <trkpt lat="45.9329" lon="5.83972">
        <ele>290.20001220703</ele>
        <time>2025-08-08T10:32:17.000Z</time>
      </trkpt>
      <trkpt lat="45.93296" lon="5.83994">
        <ele>290.39999389648</ele>
        <time>2025-08-08T10:32:20.000Z</time>
      </trkpt>
      <trkpt lat="45.93298" lon="5.84001">
        <ele>290.39999389648</ele>
        <time>2025-08-08T10:32:21.000Z</time>
      </trkpt>
      <trkpt lat="45.93301" lon="5.84009">
        <ele>290.39999389648</ele>
        <time>2025-08-08T10:32:22.000Z</time>
      </trkpt>
      <trkpt lat="45.93317" lon="5.84044">
        <ele>290.79998779297</ele>
        <time>2025-08-08T10:32:27.000Z</time>
      </trkpt>
      <trkpt lat="45.93338" lon="5.84087">
        <ele>290.79998779297</ele>
        <time>2025-08-08T10:32:34.000Z</time>
      </trkpt>
      <trkpt lat="45.93339" lon="5.84092">
        <ele>290.79998779297</ele>
        <time>2025-08-08T10:32:38.000Z</time>
      </trkpt>
      <trkpt lat="45.93339" lon="5.84092">
        <ele>290.79998779297</ele>
        <time>2025-08-08T10:32:39.000Z</time>
      </trkpt>
      <trkpt lat="45.93342" lon="5.84095">
        <ele>290</ele>
        <time>2025-08-08T10:34:20.000Z</time>
      </trkpt>
      <trkpt lat="45.93345" lon="5.841">
        <ele>290.20001220703</ele>
        <time>2025-08-08T10:34:22.000Z</time>
      </trkpt>
      <trkpt lat="45.93354" lon="5.84118">
        <ele>290.20001220703</ele>
        <time>2025-08-08T10:34:26.000Z</time>
      </trkpt>
      <trkpt lat="45.93372" lon="5.84151">
        <ele>290</ele>
        <time>2025-08-08T10:34:32.000Z</time>
      </trkpt>
      <trkpt lat="45.93378" lon="5.84162">
        <ele>290</ele>
        <time>2025-08-08T10:34:34.000Z</time>
      </trkpt>
      <trkpt lat="45.93391" lon="5.84186">
        <ele>290</ele>
        <time>2025-08-08T10:34:38.000Z</time>
      </trkpt>
      <trkpt lat="45.93414" lon="5.84234">
        <ele>290.20001220703</ele>
        <time>2025-08-08T10:34:46.000Z</time>
      </trkpt>
      <trkpt lat="45.93429" lon="5.84268">
        <ele>290.39999389648</ele>
        <time>2025-08-08T10:34:52.000Z</time>
      </trkpt>
      <trkpt lat="45.93435" lon="5.84284">
        <ele>290.39999389648</ele>
        <time>2025-08-08T10:34:55.000Z</time>
      </trkpt>
      <trkpt lat="45.93445" lon="5.84309">
        <ele>290.60000610352</ele>
        <time>2025-08-08T10:34:59.000Z</time>
      </trkpt>
      <trkpt lat="45.93452" lon="5.8433">
        <ele>291</ele>
        <time>2025-08-08T10:35:02.000Z</time>
      </trkpt>
      <trkpt lat="45.93467" lon="5.84368">
        <ele>291.20001220703</ele>
        <time>2025-08-08T10:35:08.000Z</time>
      </trkpt>
      <trkpt lat="45.93488" lon="5.84423">
        <ele>291.20001220703</ele>
        <time>2025-08-08T10:35:16.000Z</time>
      </trkpt>
      <trkpt lat="45.935" lon="5.84475">
        <ele>291.39999389648</ele>
        <time>2025-08-08T10:35:23.000Z</time>
      </trkpt>
      <trkpt lat="45.93502" lon="5.84503">
        <ele>291.79998779297</ele>
        <time>2025-08-08T10:35:27.000Z</time>
      </trkpt>
      <trkpt lat="45.93502" lon="5.84517">
        <ele>292</ele>
        <time>2025-08-08T10:35:29.000Z</time>
      </trkpt>
      <trkpt lat="45.93502" lon="5.84524">
        <ele>292.20001220703</ele>
        <time>2025-08-08T10:35:30.000Z</time>
      </trkpt>
      <trkpt lat="45.93498" lon="5.84599">
        <ele>292.60000610352</ele>
        <time>2025-08-08T10:35:40.000Z</time>
      </trkpt>
      <trkpt lat="45.93496" lon="5.84669">
        <ele>292.39999389648</ele>
        <time>2025-08-08T10:35:49.000Z</time>
      </trkpt>
      <trkpt lat="45.93495" lon="5.84676">
        <ele>292.60000610352</ele>
        <time>2025-08-08T10:35:50.000Z</time>
      </trkpt>
      <trkpt lat="45.93487" lon="5.84717">
        <ele>293</ele>
        <time>2025-08-08T10:35:56.000Z</time>
      </trkpt>
      <trkpt lat="45.93478" lon="5.84742">
        <ele>294.20001220703</ele>
        <time>2025-08-08T10:36:01.000Z</time>
      </trkpt>
      <trkpt lat="45.93468" lon="5.84769">
        <ele>294.60000610352</ele>
        <time>2025-08-08T10:36:07.000Z</time>
      </trkpt>
      <trkpt lat="45.93459" lon="5.84788">
        <ele>295.20001220703</ele>
        <time>2025-08-08T10:36:12.000Z</time>
      </trkpt>
      <trkpt lat="45.93458" lon="5.84792">
        <ele>295.39999389648</ele>
        <time>2025-08-08T10:36:13.000Z</time>
      </trkpt>
      <trkpt lat="45.93447" lon="5.84816">
        <ele>296.39999389648</ele>
        <time>2025-08-08T10:36:19.000Z</time>
      </trkpt>
      <trkpt lat="45.93446" lon="5.8482">
        <ele>296.39999389648</ele>
        <time>2025-08-08T10:36:20.000Z</time>
      </trkpt>
      <trkpt lat="45.93432" lon="5.84854">
        <ele>297.39999389648</ele>
        <time>2025-08-08T10:36:28.000Z</time>
      </trkpt>
      <trkpt lat="45.93421" lon="5.84877">
        <ele>298.20001220703</ele>
        <time>2025-08-08T10:36:34.000Z</time>
      </trkpt>
      <trkpt lat="45.93419" lon="5.84881">
        <ele>298.60000610352</ele>
        <time>2025-08-08T10:36:35.000Z</time>
      </trkpt>
      <trkpt lat="45.93411" lon="5.84895">
        <ele>299.60000610352</ele>
        <time>2025-08-08T10:36:39.000Z</time>
      </trkpt>
      <trkpt lat="45.93407" lon="5.84902">
        <ele>299.60000610352</ele>
        <time>2025-08-08T10:36:41.000Z</time>
      </trkpt>
      <trkpt lat="45.93397" lon="5.84916">
        <ele>300.20001220703</ele>
        <time>2025-08-08T10:36:46.000Z</time>
      </trkpt>
      <trkpt lat="45.93391" lon="5.84925">
        <ele>300.60000610352</ele>
        <time>2025-08-08T10:36:49.000Z</time>
      </trkpt>
      <trkpt lat="45.93385" lon="5.84932">
        <ele>301.20001220703</ele>
        <time>2025-08-08T10:36:52.000Z</time>
      </trkpt>
      <trkpt lat="45.93379" lon="5.8494">
        <ele>302</ele>
        <time>2025-08-08T10:36:55.000Z</time>
      </trkpt>
      <trkpt lat="45.9337" lon="5.84955">
        <ele>303</ele>
        <time>2025-08-08T10:37:00.000Z</time>
      </trkpt>
      <trkpt lat="45.93363" lon="5.84975">
        <ele>304</ele>
        <time>2025-08-08T10:37:06.000Z</time>
      </trkpt>
      <trkpt lat="45.93362" lon="5.84979">
        <ele>304.20001220703</ele>
        <time>2025-08-08T10:37:07.000Z</time>
      </trkpt>
      <trkpt lat="45.93364" lon="5.85005">
        <ele>305.60000610352</ele>
        <time>2025-08-08T10:37:13.000Z</time>
      </trkpt>
      <trkpt lat="45.93367" lon="5.85027">
        <ele>306.79998779297</ele>
        <time>2025-08-08T10:37:18.000Z</time>
      </trkpt>
      <trkpt lat="45.93369" lon="5.85035">
        <ele>307</ele>
        <time>2025-08-08T10:37:20.000Z</time>
      </trkpt>
      <trkpt lat="45.93372" lon="5.85054">
        <ele>307.79998779297</ele>
        <time>2025-08-08T10:37:25.000Z</time>
      </trkpt>
      <trkpt lat="45.93372" lon="5.85061">
        <ele>308</ele>
        <time>2025-08-08T10:37:27.000Z</time>
      </trkpt>
      <trkpt lat="45.93367" lon="5.85078">
        <ele>308.60000610352</ele>
        <time>2025-08-08T10:37:32.000Z</time>
      </trkpt>
      <trkpt lat="45.93364" lon="5.85085">
        <ele>308.79998779297</ele>
        <time>2025-08-08T10:37:34.000Z</time>
      </trkpt>
      <trkpt lat="45.93355" lon="5.85106">
        <ele>310.20001220703</ele>
        <time>2025-08-08T10:37:40.000Z</time>
      </trkpt>
      <trkpt lat="45.93344" lon="5.85122">
        <ele>311</ele>
        <time>2025-08-08T10:37:46.000Z</time>
      </trkpt>
      <trkpt lat="45.93343" lon="5.85124">
        <ele>311.20001220703</ele>
        <time>2025-08-08T10:37:47.000Z</time>
      </trkpt>
      <trkpt lat="45.93342" lon="5.85128">
        <ele>311.79998779297</ele>
        <time>2025-08-08T10:37:53.000Z</time>
      </trkpt>
      <trkpt lat="45.93345" lon="5.8513">
        <ele>312.39999389648</ele>
        <time>2025-08-08T10:37:56.000Z</time>
      </trkpt>
      <trkpt lat="45.93344" lon="5.85133">
        <ele>312.79998779297</ele>
        <time>2025-08-08T10:37:58.000Z</time>
      </trkpt>
      <trkpt lat="45.93345" lon="5.85352">
        <ele>319.79998779297</ele>
        <time>2025-08-08T10:38:34.000Z</time>
      </trkpt>
      <trkpt lat="45.93345" lon="5.85355">
        <ele>320.20001220703</ele>
        <time>2025-08-08T10:38:36.000Z</time>
      </trkpt>
      <trkpt lat="45.93355" lon="5.85379">
        <ele>321</ele>
        <time>2025-08-08T10:38:43.000Z</time>
      </trkpt>
      <trkpt lat="45.93364" lon="5.854">
        <ele>322</ele>
        <time>2025-08-08T10:38:49.000Z</time>
      </trkpt>
      <trkpt lat="45.93367" lon="5.85407">
        <ele>322.20001220703</ele>
        <time>2025-08-08T10:38:51.000Z</time>
      </trkpt>
      <trkpt lat="45.93368" lon="5.85433">
        <ele>323</ele>
        <time>2025-08-08T10:38:57.000Z</time>
      </trkpt>
      <trkpt lat="45.93368" lon="5.85437">
        <ele>323.20001220703</ele>
        <time>2025-08-08T10:38:58.000Z</time>
      </trkpt>
      <trkpt lat="45.93362" lon="5.85453">
        <ele>323.79998779297</ele>
        <time>2025-08-08T10:39:02.000Z</time>
      </trkpt>
      <trkpt lat="45.93361" lon="5.85456">
        <ele>324</ele>
        <time>2025-08-08T10:39:03.000Z</time>
      </trkpt>
      <trkpt lat="45.93352" lon="5.85477">
        <ele>325.20001220703</ele>
        <time>2025-08-08T10:39:09.000Z</time>
      </trkpt>
      <trkpt lat="45.93348" lon="5.85489">
        <ele>325.39999389648</ele>
        <time>2025-08-08T10:39:12.000Z</time>
      </trkpt>
      <trkpt lat="45.93348" lon="5.85492">
        <ele>325.60000610352</ele>
        <time>2025-08-08T10:39:13.000Z</time>
      </trkpt>
      <trkpt lat="45.93359" lon="5.85502">
        <ele>326.20001220703</ele>
        <time>2025-08-08T10:39:17.000Z</time>
      </trkpt>
      <trkpt lat="45.9336" lon="5.8551">
        <ele>327</ele>
        <time>2025-08-08T10:39:19.000Z</time>
      </trkpt>
      <trkpt lat="45.93361" lon="5.8551">
        <ele>327.39999389648</ele>
        <time>2025-08-08T10:39:20.000Z</time>
      </trkpt>
      <trkpt lat="45.93357" lon="5.85525">
        <ele>327.60000610352</ele>
        <time>2025-08-08T10:39:21.000Z</time>
      </trkpt>
      <trkpt lat="45.9336" lon="5.85535">
        <ele>328.20001220703</ele>
        <time>2025-08-08T10:39:24.000Z</time>
      </trkpt>
      <trkpt lat="45.93361" lon="5.8554">
        <ele>328.20001220703</ele>
        <time>2025-08-08T10:39:25.000Z</time>
      </trkpt>
      <trkpt lat="45.93361" lon="5.85545">
        <ele>328.39999389648</ele>
        <time>2025-08-08T10:39:26.000Z</time>
      </trkpt>
      <trkpt lat="45.9336" lon="5.85569">
        <ele>329</ele>
        <time>2025-08-08T10:39:31.000Z</time>
      </trkpt>
      <trkpt lat="45.93351" lon="5.85589">
        <ele>329.79998779297</ele>
        <time>2025-08-08T10:39:35.000Z</time>
      </trkpt>
      <trkpt lat="45.93347" lon="5.85596">
        <ele>330.20001220703</ele>
        <time>2025-08-08T10:39:37.000Z</time>
      </trkpt>
      <trkpt lat="45.93338" lon="5.85617">
        <ele>330.79998779297</ele>
        <time>2025-08-08T10:39:42.000Z</time>
      </trkpt>
      <trkpt lat="45.93336" lon="5.8563">
        <ele>331.39999389648</ele>
        <time>2025-08-08T10:39:45.000Z</time>
      </trkpt>
      <trkpt lat="45.93336" lon="5.85651">
        <ele>332</ele>
        <time>2025-08-08T10:39:49.000Z</time>
      </trkpt>
      <trkpt lat="45.93338" lon="5.85669">
        <ele>332.39999389648</ele>
        <time>2025-08-08T10:39:53.000Z</time>
      </trkpt>
      <trkpt lat="45.93336" lon="5.85682">
        <ele>332.79998779297</ele>
        <time>2025-08-08T10:39:56.000Z</time>
      </trkpt>
      <trkpt lat="45.93329" lon="5.85708">
        <ele>333.79998779297</ele>
        <time>2025-08-08T10:40:02.000Z</time>
      </trkpt>
      <trkpt lat="45.93327" lon="5.85713">
        <ele>334</ele>
        <time>2025-08-08T10:40:03.000Z</time>
      </trkpt>
      <trkpt lat="45.9332" lon="5.85737">
        <ele>335</ele>
        <time>2025-08-08T10:40:09.000Z</time>
      </trkpt>
      <trkpt lat="45.93319" lon="5.85745">
        <ele>335.39999389648</ele>
        <time>2025-08-08T10:40:11.000Z</time>
      </trkpt>
      <trkpt lat="45.93318" lon="5.85765">
        <ele>336.39999389648</ele>
        <time>2025-08-08T10:40:16.000Z</time>
      </trkpt>
      <trkpt lat="45.93318" lon="5.85771">
        <ele>336.39999389648</ele>
        <time>2025-08-08T10:40:18.000Z</time>
      </trkpt>
      <trkpt lat="45.93318" lon="5.85775">
        <ele>336.60000610352</ele>
        <time>2025-08-08T10:40:22.000Z</time>
      </trkpt>
      <trkpt lat="45.93319" lon="5.85781">
        <ele>336.39999389648</ele>
        <time>2025-08-08T10:42:02.000Z</time>
      </trkpt>
      <trkpt lat="45.93318" lon="5.85789">
        <ele>336.60000610352</ele>
        <time>2025-08-08T10:42:04.000Z</time>
      </trkpt>
      <trkpt lat="45.93309" lon="5.85818">
        <ele>336.60000610352</ele>
        <time>2025-08-08T10:42:10.000Z</time>
      </trkpt>
      <trkpt lat="45.93297" lon="5.85853">
        <ele>336.60000610352</ele>
        <time>2025-08-08T10:42:16.000Z</time>
      </trkpt>
      <trkpt lat="45.93296" lon="5.8586">
        <ele>336.60000610352</ele>
        <time>2025-08-08T10:42:17.000Z</time>
      </trkpt>
      <trkpt lat="45.93295" lon="5.85869">
        <ele>336.60000610352</ele>
        <time>2025-08-08T10:42:18.000Z</time>
      </trkpt>
      <trkpt lat="45.93293" lon="5.85893">
        <ele>336.20001220703</ele>
        <time>2025-08-08T10:42:21.000Z</time>
      </trkpt>
      <trkpt lat="45.93293" lon="5.85901">
        <ele>336.20001220703</ele>
        <time>2025-08-08T10:42:22.000Z</time>
      </trkpt>
      <trkpt lat="45.9329" lon="5.8596">
        <ele>336</ele>
        <time>2025-08-08T10:42:28.000Z</time>
      </trkpt>
      <trkpt lat="45.93288" lon="5.85967">
        <ele>336</ele>
        <time>2025-08-08T10:42:29.000Z</time>
      </trkpt>
      <trkpt lat="45.93282" lon="5.85984">
        <ele>335.79998779297</ele>
        <time>2025-08-08T10:42:31.000Z</time>
      </trkpt>
      <trkpt lat="45.9328" lon="5.85993">
        <ele>335.79998779297</ele>
        <time>2025-08-08T10:42:32.000Z</time>
      </trkpt>
      <trkpt lat="45.93277" lon="5.86008">
        <ele>335.79998779297</ele>
        <time>2025-08-08T10:42:34.000Z</time>
      </trkpt>
      <trkpt lat="45.93278" lon="5.86016">
        <ele>335.79998779297</ele>
        <time>2025-08-08T10:42:35.000Z</time>
      </trkpt>
      <trkpt lat="45.93281" lon="5.86039">
        <ele>336</ele>
        <time>2025-08-08T10:42:38.000Z</time>
      </trkpt>
      <trkpt lat="45.93281" lon="5.86045">
        <ele>336</ele>
        <time>2025-08-08T10:42:39.000Z</time>
      </trkpt>
      <trkpt lat="45.93281" lon="5.86062">
        <ele>336.79998779297</ele>
        <time>2025-08-08T10:42:42.000Z</time>
      </trkpt>
      <trkpt lat="45.93282" lon="5.86085">
        <ele>337.60000610352</ele>
        <time>2025-08-08T10:42:46.000Z</time>
      </trkpt>
      <trkpt lat="45.93282" lon="5.8609">
        <ele>337.60000610352</ele>
        <time>2025-08-08T10:42:47.000Z</time>
      </trkpt>
      <trkpt lat="45.93284" lon="5.86111">
        <ele>338.60000610352</ele>
        <time>2025-08-08T10:42:51.000Z</time>
      </trkpt>
      <trkpt lat="45.93284" lon="5.86125">
        <ele>339.39999389648</ele>
        <time>2025-08-08T10:42:54.000Z</time>
      </trkpt>
      <trkpt lat="45.93283" lon="5.86134">
        <ele>339.79998779297</ele>
        <time>2025-08-08T10:42:56.000Z</time>
      </trkpt>
      <trkpt lat="45.93283" lon="5.86158">
        <ele>340.79998779297</ele>
        <time>2025-08-08T10:43:01.000Z</time>
      </trkpt>
      <trkpt lat="45.93288" lon="5.86186">
        <ele>341.60000610352</ele>
        <time>2025-08-08T10:43:07.000Z</time>
      </trkpt>
      <trkpt lat="45.9329" lon="5.86191">
        <ele>341.79998779297</ele>
        <time>2025-08-08T10:43:08.000Z</time>
      </trkpt>
      <trkpt lat="45.93298" lon="5.86218">
        <ele>342.79998779297</ele>
        <time>2025-08-08T10:43:14.000Z</time>
      </trkpt>
      <trkpt lat="45.93299" lon="5.86228">
        <ele>343.20001220703</ele>
        <time>2025-08-08T10:43:16.000Z</time>
      </trkpt>
      <trkpt lat="45.933" lon="5.86232">
        <ele>343.20001220703</ele>
        <time>2025-08-08T10:43:17.000Z</time>
      </trkpt>
      <trkpt lat="45.93298" lon="5.86246">
        <ele>343.60000610352</ele>
        <time>2025-08-08T10:43:20.000Z</time>
      </trkpt>
      <trkpt lat="45.93296" lon="5.8625">
        <ele>343.79998779297</ele>
        <time>2025-08-08T10:43:21.000Z</time>
      </trkpt>
      <trkpt lat="45.93284" lon="5.86267">
        <ele>344.60000610352</ele>
        <time>2025-08-08T10:43:26.000Z</time>
      </trkpt>
      <trkpt lat="45.93282" lon="5.86271">
        <ele>344.79998779297</ele>
        <time>2025-08-08T10:43:27.000Z</time>
      </trkpt>
      <trkpt lat="45.93274" lon="5.86289">
        <ele>345.79998779297</ele>
        <time>2025-08-08T10:43:32.000Z</time>
      </trkpt>
      <trkpt lat="45.93273" lon="5.86293">
        <ele>346</ele>
        <time>2025-08-08T10:43:33.000Z</time>
      </trkpt>
      <trkpt lat="45.93265" lon="5.86312">
        <ele>347.20001220703</ele>
        <time>2025-08-08T10:43:38.000Z</time>
      </trkpt>
      <trkpt lat="45.9326" lon="5.8632">
        <ele>347.39999389648</ele>
        <time>2025-08-08T10:43:40.000Z</time>
      </trkpt>
      <trkpt lat="45.93252" lon="5.86345">
        <ele>348.39999389648</ele>
        <time>2025-08-08T10:43:46.000Z</time>
      </trkpt>
      <trkpt lat="45.93249" lon="5.86368">
        <ele>349.39999389648</ele>
        <time>2025-08-08T10:43:51.000Z</time>
      </trkpt>
      <trkpt lat="45.93249" lon="5.86375">
        <ele>349.79998779297</ele>
        <time>2025-08-08T10:43:53.000Z</time>
      </trkpt>
      <trkpt lat="45.93249" lon="5.86391">
        <ele>350.60000610352</ele>
        <time>2025-08-08T10:43:57.000Z</time>
      </trkpt>
      <trkpt lat="45.93249" lon="5.86398">
        <ele>351.20001220703</ele>
        <time>2025-08-08T10:43:59.000Z</time>
      </trkpt>
      <trkpt lat="45.93248" lon="5.86405">
        <ele>351.79998779297</ele>
        <time>2025-08-08T10:44:01.000Z</time>
      </trkpt>
      <trkpt lat="45.93248" lon="5.86413">
        <ele>352.20001220703</ele>
        <time>2025-08-08T10:44:03.000Z</time>
      </trkpt>
      <trkpt lat="45.93249" lon="5.86426">
        <ele>352.79998779297</ele>
        <time>2025-08-08T10:44:06.000Z</time>
      </trkpt>
      <trkpt lat="45.93252" lon="5.86441">
        <ele>353.39999389648</ele>
        <time>2025-08-08T10:44:10.000Z</time>
      </trkpt>
      <trkpt lat="45.93254" lon="5.8645">
        <ele>353.79998779297</ele>
        <time>2025-08-08T10:44:12.000Z</time>
      </trkpt>
      <trkpt lat="45.93257" lon="5.8647">
        <ele>354.60000610352</ele>
        <time>2025-08-08T10:44:16.000Z</time>
      </trkpt>
      <trkpt lat="45.93261" lon="5.86483">
        <ele>355</ele>
        <time>2025-08-08T10:44:19.000Z</time>
      </trkpt>
      <trkpt lat="45.93264" lon="5.865">
        <ele>356</ele>
        <time>2025-08-08T10:44:23.000Z</time>
      </trkpt>
      <trkpt lat="45.93267" lon="5.86509">
        <ele>356.20001220703</ele>
        <time>2025-08-08T10:44:25.000Z</time>
      </trkpt>
      <trkpt lat="45.93273" lon="5.86536">
        <ele>357</ele>
        <time>2025-08-08T10:44:31.000Z</time>
      </trkpt>
      <trkpt lat="45.93275" lon="5.86545">
        <ele>357.39999389648</ele>
        <time>2025-08-08T10:44:33.000Z</time>
      </trkpt>
      <trkpt lat="45.9328" lon="5.86566">
        <ele>358.20001220703</ele>
        <time>2025-08-08T10:44:38.000Z</time>
      </trkpt>
      <trkpt lat="45.93285" lon="5.86593">
        <ele>359</ele>
        <time>2025-08-08T10:44:44.000Z</time>
      </trkpt>
      <trkpt lat="45.93286" lon="5.86602">
        <ele>359.20001220703</ele>
        <time>2025-08-08T10:44:46.000Z</time>
      </trkpt>
      <trkpt lat="45.93287" lon="5.8663">
        <ele>360</ele>
        <time>2025-08-08T10:44:52.000Z</time>
      </trkpt>
      <trkpt lat="45.93288" lon="5.86639">
        <ele>360.20001220703</ele>
        <time>2025-08-08T10:44:54.000Z</time>
      </trkpt>
      <trkpt lat="45.93294" lon="5.86672">
        <ele>361.20001220703</ele>
        <time>2025-08-08T10:45:01.000Z</time>
      </trkpt>
      <trkpt lat="45.93297" lon="5.86682">
        <ele>361.39999389648</ele>
        <time>2025-08-08T10:45:03.000Z</time>
      </trkpt>
      <trkpt lat="45.93299" lon="5.86697">
        <ele>361.79998779297</ele>
        <time>2025-08-08T10:45:06.000Z</time>
      </trkpt>
      <trkpt lat="45.93299" lon="5.86703">
        <ele>361.79998779297</ele>
        <time>2025-08-08T10:45:07.000Z</time>
      </trkpt>
      <trkpt lat="45.93298" lon="5.86737">
        <ele>362.60000610352</ele>
        <time>2025-08-08T10:45:14.000Z</time>
      </trkpt>
      <trkpt lat="45.93299" lon="5.86747">
        <ele>362.60000610352</ele>
        <time>2025-08-08T10:45:16.000Z</time>
      </trkpt>
      <trkpt lat="45.933" lon="5.86776">
        <ele>363</ele>
        <time>2025-08-08T10:45:22.000Z</time>
      </trkpt>
      <trkpt lat="45.93299" lon="5.86796">
        <ele>363.60000610352</ele>
        <time>2025-08-08T10:45:26.000Z</time>
      </trkpt>
      <trkpt lat="45.93298" lon="5.86811">
        <ele>363.79998779297</ele>
        <time>2025-08-08T10:45:29.000Z</time>
      </trkpt>
      <trkpt lat="45.93294" lon="5.86834">
        <ele>364.60000610352</ele>
        <time>2025-08-08T10:45:34.000Z</time>
      </trkpt>
      <trkpt lat="45.93293" lon="5.86849">
        <ele>365</ele>
        <time>2025-08-08T10:45:37.000Z</time>
      </trkpt>
      <trkpt lat="45.93293" lon="5.86866">
        <ele>365.79998779297</ele>
        <time>2025-08-08T10:45:40.000Z</time>
      </trkpt>
      <trkpt lat="45.93296" lon="5.86893">
        <ele>366.20001220703</ele>
        <time>2025-08-08T10:45:45.000Z</time>
      </trkpt>
      <trkpt lat="45.93298" lon="5.86909">
        <ele>366.79998779297</ele>
        <time>2025-08-08T10:45:48.000Z</time>
      </trkpt>
      <trkpt lat="45.93303" lon="5.86936">
        <ele>367.60000610352</ele>
        <time>2025-08-08T10:45:53.000Z</time>
      </trkpt>
      <trkpt lat="45.93305" lon="5.86946">
        <ele>367.79998779297</ele>
        <time>2025-08-08T10:45:55.000Z</time>
      </trkpt>
      <trkpt lat="45.93315" lon="5.8698">
        <ele>368.39999389648</ele>
        <time>2025-08-08T10:46:02.000Z</time>
      </trkpt>
      <trkpt lat="45.93325" lon="5.87009">
        <ele>368.79998779297</ele>
        <time>2025-08-08T10:46:08.000Z</time>
      </trkpt>
      <trkpt lat="45.93327" lon="5.87015">
        <ele>369</ele>
        <time>2025-08-08T10:46:09.000Z</time>
      </trkpt>
      <trkpt lat="45.93342" lon="5.87045">
        <ele>370</ele>
        <time>2025-08-08T10:46:16.000Z</time>
      </trkpt>
      <trkpt lat="45.93351" lon="5.87078">
        <ele>370.79998779297</ele>
        <time>2025-08-08T10:46:23.000Z</time>
      </trkpt>
      <trkpt lat="45.93352" lon="5.87089">
        <ele>371</ele>
        <time>2025-08-08T10:46:25.000Z</time>
      </trkpt>
      <trkpt lat="45.93351" lon="5.87121">
        <ele>372</ele>
        <time>2025-08-08T10:46:31.000Z</time>
      </trkpt>
      <trkpt lat="45.93351" lon="5.87127">
        <ele>372.20001220703</ele>
        <time>2025-08-08T10:46:32.000Z</time>
      </trkpt>
      <trkpt lat="45.93352" lon="5.87171">
        <ele>373</ele>
        <time>2025-08-08T10:46:40.000Z</time>
      </trkpt>
      <trkpt lat="45.93353" lon="5.87177">
        <ele>373</ele>
        <time>2025-08-08T10:46:41.000Z</time>
      </trkpt>
      <trkpt lat="45.93355" lon="5.87199">
        <ele>373.79998779297</ele>
        <time>2025-08-08T10:46:45.000Z</time>
      </trkpt>
      <trkpt lat="45.93356" lon="5.8721">
        <ele>374.20001220703</ele>
        <time>2025-08-08T10:46:47.000Z</time>
      </trkpt>
      <trkpt lat="45.93356" lon="5.87221">
        <ele>374.39999389648</ele>
        <time>2025-08-08T10:46:49.000Z</time>
      </trkpt>
      <trkpt lat="45.93355" lon="5.87237">
        <ele>374.79998779297</ele>
        <time>2025-08-08T10:46:52.000Z</time>
      </trkpt>
      <trkpt lat="45.93355" lon="5.87248">
        <ele>375</ele>
        <time>2025-08-08T10:46:54.000Z</time>
      </trkpt>
      <trkpt lat="45.93354" lon="5.87298">
        <ele>375.39999389648</ele>
        <time>2025-08-08T10:47:02.000Z</time>
      </trkpt>
      <trkpt lat="45.93353" lon="5.87305">
        <ele>375.60000610352</ele>
        <time>2025-08-08T10:47:03.000Z</time>
      </trkpt>
      <trkpt lat="45.93353" lon="5.8731">
        <ele>375.60000610352</ele>
        <time>2025-08-08T10:47:04.000Z</time>
      </trkpt>
      <trkpt lat="45.93349" lon="5.87331">
        <ele>375.60000610352</ele>
        <time>2025-08-08T10:47:07.000Z</time>
      </trkpt>
      <trkpt lat="45.93348" lon="5.8734">
        <ele>375.79998779297</ele>
        <time>2025-08-08T10:47:08.000Z</time>
      </trkpt>
      <trkpt lat="45.93342" lon="5.87369">
        <ele>376</ele>
        <time>2025-08-08T10:47:12.000Z</time>
      </trkpt>
      <trkpt lat="45.93341" lon="5.87383">
        <ele>376</ele>
        <time>2025-08-08T10:47:14.000Z</time>
      </trkpt>
      <trkpt lat="45.93339" lon="5.87408">
        <ele>376.20001220703</ele>
        <time>2025-08-08T10:47:17.000Z</time>
      </trkpt>
      <trkpt lat="45.93334" lon="5.87448">
        <ele>376.20001220703</ele>
        <time>2025-08-08T10:47:22.000Z</time>
      </trkpt>
      <trkpt lat="45.93334" lon="5.87457">
        <ele>376.20001220703</ele>
        <time>2025-08-08T10:47:23.000Z</time>
      </trkpt>
      <trkpt lat="45.93332" lon="5.87505">
        <ele>376.39999389648</ele>
        <time>2025-08-08T10:47:29.000Z</time>
      </trkpt>
      <trkpt lat="45.93332" lon="5.87522">
        <ele>376.39999389648</ele>
        <time>2025-08-08T10:47:31.000Z</time>
      </trkpt>
      <trkpt lat="45.93332" lon="5.87531">
        <ele>376.60000610352</ele>
        <time>2025-08-08T10:47:32.000Z</time>
      </trkpt>
      <trkpt lat="45.93331" lon="5.87541">
        <ele>376.60000610352</ele>
        <time>2025-08-08T10:47:33.000Z</time>
      </trkpt>
      <trkpt lat="45.93331" lon="5.87584">
        <ele>376.79998779297</ele>
        <time>2025-08-08T10:47:38.000Z</time>
      </trkpt>
      <trkpt lat="45.93333" lon="5.87634">
        <ele>377</ele>
        <time>2025-08-08T10:47:44.000Z</time>
      </trkpt>
      <trkpt lat="45.93336" lon="5.87652">
        <ele>376.79998779297</ele>
        <time>2025-08-08T10:47:46.000Z</time>
      </trkpt>
      <trkpt lat="45.93344" lon="5.87702">
        <ele>377.20001220703</ele>
        <time>2025-08-08T10:47:52.000Z</time>
      </trkpt>
      <trkpt lat="45.93354" lon="5.87742">
        <ele>377.39999389648</ele>
        <time>2025-08-08T10:47:57.000Z</time>
      </trkpt>
      <trkpt lat="45.93363" lon="5.87786">
        <ele>377.60000610352</ele>
        <time>2025-08-08T10:48:03.000Z</time>
      </trkpt>
      <trkpt lat="45.93365" lon="5.87794">
        <ele>377.79998779297</ele>
        <time>2025-08-08T10:48:04.000Z</time>
      </trkpt>
      <trkpt lat="45.93369" lon="5.87809">
        <ele>377.79998779297</ele>
        <time>2025-08-08T10:48:06.000Z</time>
      </trkpt>
      <trkpt lat="45.9338" lon="5.87848">
        <ele>377.79998779297</ele>
        <time>2025-08-08T10:48:11.000Z</time>
      </trkpt>
      <trkpt lat="45.93393" lon="5.87905">
        <ele>377.60000610352</ele>
        <time>2025-08-08T10:48:18.000Z</time>
      </trkpt>
      <trkpt lat="45.93407" lon="5.8797">
        <ele>377.39999389648</ele>
        <time>2025-08-08T10:48:26.000Z</time>
      </trkpt>
      <trkpt lat="45.93413" lon="5.88011">
        <ele>377.20001220703</ele>
        <time>2025-08-08T10:48:31.000Z</time>
      </trkpt>
      <trkpt lat="45.93415" lon="5.88019">
        <ele>377.20001220703</ele>
        <time>2025-08-08T10:48:32.000Z</time>
      </trkpt>
      <trkpt lat="45.93428" lon="5.88065">
        <ele>377</ele>
        <time>2025-08-08T10:48:38.000Z</time>
      </trkpt>
      <trkpt lat="45.9343" lon="5.88071">
        <ele>377</ele>
        <time>2025-08-08T10:48:39.000Z</time>
      </trkpt>
      <trkpt lat="45.93439" lon="5.88095">
        <ele>376.79998779297</ele>
        <time>2025-08-08T10:48:42.000Z</time>
      </trkpt>
      <trkpt lat="45.93449" lon="5.88127">
        <ele>376.60000610352</ele>
        <time>2025-08-08T10:48:46.000Z</time>
      </trkpt>
      <trkpt lat="45.93448" lon="5.88148">
        <ele>376.39999389648</ele>
        <time>2025-08-08T10:48:48.000Z</time>
      </trkpt>
      <trkpt lat="45.93447" lon="5.88156">
        <ele>376.20001220703</ele>
        <time>2025-08-08T10:48:49.000Z</time>
      </trkpt>
      <trkpt lat="45.93442" lon="5.88176">
        <ele>375.79998779297</ele>
        <time>2025-08-08T10:48:51.000Z</time>
      </trkpt>
      <trkpt lat="45.93434" lon="5.88206">
        <ele>375.39999389648</ele>
        <time>2025-08-08T10:48:54.000Z</time>
      </trkpt>
      <trkpt lat="45.93432" lon="5.88217">
        <ele>374.60000610352</ele>
        <time>2025-08-08T10:48:55.000Z</time>
      </trkpt>
      <trkpt lat="45.93428" lon="5.88251">
        <ele>373.20001220703</ele>
        <time>2025-08-08T10:48:58.000Z</time>
      </trkpt>
      <trkpt lat="45.9342" lon="5.88273">
        <ele>372.39999389648</ele>
        <time>2025-08-08T10:49:00.000Z</time>
      </trkpt>
      <trkpt lat="45.93415" lon="5.88282">
        <ele>372.20001220703</ele>
        <time>2025-08-08T10:49:01.000Z</time>
      </trkpt>
      <trkpt lat="45.93398" lon="5.8831">
        <ele>370.79998779297</ele>
        <time>2025-08-08T10:49:04.000Z</time>
      </trkpt>
      <trkpt lat="45.93388" lon="5.88331">
        <ele>370.39999389648</ele>
        <time>2025-08-08T10:49:06.000Z</time>
      </trkpt>
      <trkpt lat="45.9338" lon="5.88354">
        <ele>369.79998779297</ele>
        <time>2025-08-08T10:49:08.000Z</time>
      </trkpt>
      <trkpt lat="45.93377" lon="5.88366">
        <ele>369.60000610352</ele>
        <time>2025-08-08T10:49:09.000Z</time>
      </trkpt>
      <trkpt lat="45.93372" lon="5.8839">
        <ele>369.20001220703</ele>
        <time>2025-08-08T10:49:11.000Z</time>
      </trkpt>
      <trkpt lat="45.93368" lon="5.88415">
        <ele>368.39999389648</ele>
        <time>2025-08-08T10:49:13.000Z</time>
      </trkpt>
      <trkpt lat="45.93355" lon="5.88476">
        <ele>367.60000610352</ele>
        <time>2025-08-08T10:49:18.000Z</time>
      </trkpt>
      <trkpt lat="45.93342" lon="5.88533">
        <ele>366.39999389648</ele>
        <time>2025-08-08T10:49:23.000Z</time>
      </trkpt>
      <trkpt lat="45.93338" lon="5.88542">
        <ele>366.39999389648</ele>
        <time>2025-08-08T10:49:24.000Z</time>
      </trkpt>
      <trkpt lat="45.93314" lon="5.88611">
        <ele>365.60000610352</ele>
        <time>2025-08-08T10:49:31.000Z</time>
      </trkpt>
      <trkpt lat="45.93311" lon="5.88621">
        <ele>365.39999389648</ele>
        <time>2025-08-08T10:49:32.000Z</time>
      </trkpt>
      <trkpt lat="45.93289" lon="5.88686">
        <ele>364.60000610352</ele>
        <time>2025-08-08T10:49:39.000Z</time>
      </trkpt>
      <trkpt lat="45.93258" lon="5.88753">
        <ele>364.79998779297</ele>
        <time>2025-08-08T10:49:47.000Z</time>
      </trkpt>
      <trkpt lat="45.93228" lon="5.88796">
        <ele>364.79998779297</ele>
        <time>2025-08-08T10:49:53.000Z</time>
      </trkpt>
      <trkpt lat="45.93202" lon="5.88826">
        <ele>364.60000610352</ele>
        <time>2025-08-08T10:49:58.000Z</time>
      </trkpt>
      <trkpt lat="45.93193" lon="5.88838">
        <ele>364.60000610352</ele>
        <time>2025-08-08T10:50:00.000Z</time>
      </trkpt>
      <trkpt lat="45.93188" lon="5.88847">
        <ele>364.39999389648</ele>
        <time>2025-08-08T10:50:01.000Z</time>
      </trkpt>
      <trkpt lat="45.9317" lon="5.88885">
        <ele>364.39999389648</ele>
        <time>2025-08-08T10:50:06.000Z</time>
      </trkpt>
      <trkpt lat="45.93153" lon="5.88923">
        <ele>364.39999389648</ele>
        <time>2025-08-08T10:50:11.000Z</time>
      </trkpt>
      <trkpt lat="45.93141" lon="5.88956">
        <ele>364.20001220703</ele>
        <time>2025-08-08T10:50:15.000Z</time>
      </trkpt>
      <trkpt lat="45.93125" lon="5.89011">
        <ele>364.20001220703</ele>
        <time>2025-08-08T10:50:21.000Z</time>
      </trkpt>
      <trkpt lat="45.93102" lon="5.89061">
        <ele>363.79998779297</ele>
        <time>2025-08-08T10:50:27.000Z</time>
      </trkpt>
      <trkpt lat="45.93085" lon="5.89091">
        <ele>363.60000610352</ele>
        <time>2025-08-08T10:50:31.000Z</time>
      </trkpt>
      <trkpt lat="45.93062" lon="5.89128">
        <ele>363</ele>
        <time>2025-08-08T10:50:36.000Z</time>
      </trkpt>
      <trkpt lat="45.9304" lon="5.89164">
        <ele>362.39999389648</ele>
        <time>2025-08-08T10:50:41.000Z</time>
      </trkpt>
      <trkpt lat="45.93031" lon="5.89178">
        <ele>362.20001220703</ele>
        <time>2025-08-08T10:50:43.000Z</time>
      </trkpt>
      <trkpt lat="45.93027" lon="5.89186">
        <ele>362</ele>
        <time>2025-08-08T10:50:44.000Z</time>
      </trkpt>
      <trkpt lat="45.93021" lon="5.89202">
        <ele>361.79998779297</ele>
        <time>2025-08-08T10:50:46.000Z</time>
      </trkpt>
      <trkpt lat="45.93018" lon="5.89211">
        <ele>361.79998779297</ele>
        <time>2025-08-08T10:50:47.000Z</time>
      </trkpt>
      <trkpt lat="45.93016" lon="5.8922">
        <ele>361.60000610352</ele>
        <time>2025-08-08T10:50:48.000Z</time>
      </trkpt>
      <trkpt lat="45.93015" lon="5.8925">
        <ele>361.39999389648</ele>
        <time>2025-08-08T10:50:51.000Z</time>
      </trkpt>
      <trkpt lat="45.93013" lon="5.89271">
        <ele>361.20001220703</ele>
        <time>2025-08-08T10:50:53.000Z</time>
      </trkpt>
      <trkpt lat="45.93009" lon="5.89292">
        <ele>360.79998779297</ele>
        <time>2025-08-08T10:50:55.000Z</time>
      </trkpt>
      <trkpt lat="45.93004" lon="5.89314">
        <ele>360.39999389648</ele>
        <time>2025-08-08T10:50:57.000Z</time>
      </trkpt>
      <trkpt lat="45.93" lon="5.89344">
        <ele>359.60000610352</ele>
        <time>2025-08-08T10:51:00.000Z</time>
      </trkpt>
      <trkpt lat="45.92999" lon="5.89351">
        <ele>359.39999389648</ele>
        <time>2025-08-08T10:51:01.000Z</time>
      </trkpt>
      <trkpt lat="45.92999" lon="5.89364">
        <ele>359</ele>
        <time>2025-08-08T10:51:03.000Z</time>
      </trkpt>
      <trkpt lat="45.92999" lon="5.89369">
        <ele>358.39999389648</ele>
        <time>2025-08-08T10:51:05.000Z</time>
      </trkpt>
      <trkpt lat="45.93" lon="5.89369">
        <ele>358.20001220703</ele>
        <time>2025-08-08T10:51:06.000Z</time>
      </trkpt>
      <trkpt lat="45.93" lon="5.89369">
        <ele>357.60000610352</ele>
        <time>2025-08-08T10:51:08.000Z</time>
      </trkpt>
      <trkpt lat="45.93" lon="5.89372">
        <ele>356.60000610352</ele>
        <time>2025-08-08T10:52:35.000Z</time>
      </trkpt>
      <trkpt lat="45.93002" lon="5.89376">
        <ele>356.60000610352</ele>
        <time>2025-08-08T10:52:36.000Z</time>
      </trkpt>
      <trkpt lat="45.93017" lon="5.89401">
        <ele>356.60000610352</ele>
        <time>2025-08-08T10:52:40.000Z</time>
      </trkpt>
      <trkpt lat="45.93029" lon="5.89428">
        <ele>356.39999389648</ele>
        <time>2025-08-08T10:52:43.000Z</time>
      </trkpt>
      <trkpt lat="45.93034" lon="5.89446">
        <ele>356</ele>
        <time>2025-08-08T10:52:45.000Z</time>
      </trkpt>
      <trkpt lat="45.93039" lon="5.89477">
        <ele>355.60000610352</ele>
        <time>2025-08-08T10:52:48.000Z</time>
      </trkpt>
      <trkpt lat="45.93043" lon="5.89509">
        <ele>354.79998779297</ele>
        <time>2025-08-08T10:52:51.000Z</time>
      </trkpt>
      <trkpt lat="45.93044" lon="5.89519">
        <ele>354.60000610352</ele>
        <time>2025-08-08T10:52:52.000Z</time>
      </trkpt>
      <trkpt lat="45.93051" lon="5.89571">
        <ele>353.60000610352</ele>
        <time>2025-08-08T10:52:57.000Z</time>
      </trkpt>
      <trkpt lat="45.93052" lon="5.89593">
        <ele>353</ele>
        <time>2025-08-08T10:52:59.000Z</time>
      </trkpt>
      <trkpt lat="45.93052" lon="5.89624">
        <ele>352.39999389648</ele>
        <time>2025-08-08T10:53:02.000Z</time>
      </trkpt>
      <trkpt lat="45.93052" lon="5.89655">
        <ele>351.60000610352</ele>
        <time>2025-08-08T10:53:05.000Z</time>
      </trkpt>
      <trkpt lat="45.93051" lon="5.89666">
        <ele>351</ele>
        <time>2025-08-08T10:53:06.000Z</time>
      </trkpt>
      <trkpt lat="45.93044" lon="5.89712">
        <ele>349.79998779297</ele>
        <time>2025-08-08T10:53:10.000Z</time>
      </trkpt>
      <trkpt lat="45.93029" lon="5.89766">
        <ele>348.60000610352</ele>
        <time>2025-08-08T10:53:15.000Z</time>
      </trkpt>
      <trkpt lat="45.93025" lon="5.89776">
        <ele>348.60000610352</ele>
        <time>2025-08-08T10:53:16.000Z</time>
      </trkpt>
      <trkpt lat="45.92999" lon="5.89831">
        <ele>347.79998779297</ele>
        <time>2025-08-08T10:53:22.000Z</time>
      </trkpt>
      <trkpt lat="45.92993" lon="5.89841">
        <ele>347.79998779297</ele>
        <time>2025-08-08T10:53:23.000Z</time>
      </trkpt>
      <trkpt lat="45.9296" lon="5.89895">
        <ele>347.39999389648</ele>
        <time>2025-08-08T10:53:30.000Z</time>
      </trkpt>
      <trkpt lat="45.92922" lon="5.8995">
        <ele>346.79998779297</ele>
        <time>2025-08-08T10:53:37.000Z</time>
      </trkpt>
      <trkpt lat="45.92918" lon="5.89955">
        <ele>346.79998779297</ele>
        <time>2025-08-08T10:53:38.000Z</time>
      </trkpt>
      <trkpt lat="45.92888" lon="5.89987">
        <ele>346.79998779297</ele>
        <time>2025-08-08T10:53:43.000Z</time>
      </trkpt>
      <trkpt lat="45.92875" lon="5.9">
        <ele>346.60000610352</ele>
        <time>2025-08-08T10:53:45.000Z</time>
      </trkpt>
      <trkpt lat="45.92827" lon="5.90047">
        <ele>346.20001220703</ele>
        <time>2025-08-08T10:53:53.000Z</time>
      </trkpt>
      <trkpt lat="45.9282" lon="5.90053">
        <ele>346.20001220703</ele>
        <time>2025-08-08T10:53:54.000Z</time>
      </trkpt>
      <trkpt lat="45.9277" lon="5.90099">
        <ele>346.20001220703</ele>
        <time>2025-08-08T10:54:02.000Z</time>
      </trkpt>
      <trkpt lat="45.92731" lon="5.90114">
        <ele>346</ele>
        <time>2025-08-08T10:54:08.000Z</time>
      </trkpt>
      <trkpt lat="45.92695" lon="5.90135">
        <ele>346.20001220703</ele>
        <time>2025-08-08T10:54:14.000Z</time>
      </trkpt>
      <trkpt lat="45.92674" lon="5.90156">
        <ele>346.39999389648</ele>
        <time>2025-08-08T10:54:18.000Z</time>
      </trkpt>
      <trkpt lat="45.92665" lon="5.9017">
        <ele>346.39999389648</ele>
        <time>2025-08-08T10:54:20.000Z</time>
      </trkpt>
      <trkpt lat="45.92628" lon="5.90233">
        <ele>346.39999389648</ele>
        <time>2025-08-08T10:54:29.000Z</time>
      </trkpt>
      <trkpt lat="45.92624" lon="5.9024">
        <ele>346.39999389648</ele>
        <time>2025-08-08T10:54:30.000Z</time>
      </trkpt>
      <trkpt lat="45.92598" lon="5.90287">
        <ele>346.79998779297</ele>
        <time>2025-08-08T10:54:38.000Z</time>
      </trkpt>
      <trkpt lat="45.92592" lon="5.90298">
        <ele>347</ele>
        <time>2025-08-08T10:54:40.000Z</time>
      </trkpt>
      <trkpt lat="45.92582" lon="5.90315">
        <ele>347.39999389648</ele>
        <time>2025-08-08T10:54:43.000Z</time>
      </trkpt>
      <trkpt lat="45.92555" lon="5.90361">
        <ele>348.39999389648</ele>
        <time>2025-08-08T10:54:51.000Z</time>
      </trkpt>
      <trkpt lat="45.92549" lon="5.90372">
        <ele>348.79998779297</ele>
        <time>2025-08-08T10:54:53.000Z</time>
      </trkpt>
      <trkpt lat="45.92536" lon="5.90395">
        <ele>349.20001220703</ele>
        <time>2025-08-08T10:54:57.000Z</time>
      </trkpt>
      <trkpt lat="45.9252" lon="5.90423">
        <ele>349.60000610352</ele>
        <time>2025-08-08T10:55:02.000Z</time>
      </trkpt>
      <trkpt lat="45.92517" lon="5.90428">
        <ele>349.79998779297</ele>
        <time>2025-08-08T10:55:03.000Z</time>
      </trkpt>
      <trkpt lat="45.92486" lon="5.90483">
        <ele>350.39999389648</ele>
        <time>2025-08-08T10:55:13.000Z</time>
      </trkpt>
      <trkpt lat="45.92483" lon="5.90489">
        <ele>350.60000610352</ele>
        <time>2025-08-08T10:55:14.000Z</time>
      </trkpt>
      <trkpt lat="45.92457" lon="5.90533">
        <ele>351.79998779297</ele>
        <time>2025-08-08T10:55:22.000Z</time>
      </trkpt>
      <trkpt lat="45.92447" lon="5.9055">
        <ele>352</ele>
        <time>2025-08-08T10:55:25.000Z</time>
      </trkpt>
      <trkpt lat="45.92424" lon="5.90592">
        <ele>352.39999389648</ele>
        <time>2025-08-08T10:55:32.000Z</time>
      </trkpt>
      <trkpt lat="45.92397" lon="5.9064">
        <ele>352.60000610352</ele>
        <time>2025-08-08T10:55:40.000Z</time>
      </trkpt>
      <trkpt lat="45.92365" lon="5.90694">
        <ele>353.20001220703</ele>
        <time>2025-08-08T10:55:49.000Z</time>
      </trkpt>
      <trkpt lat="45.92331" lon="5.90754">
        <ele>353.39999389648</ele>
        <time>2025-08-08T10:55:59.000Z</time>
      </trkpt>
      <trkpt lat="45.92296" lon="5.90816">
        <ele>354.20001220703</ele>
        <time>2025-08-08T10:56:09.000Z</time>
      </trkpt>
      <trkpt lat="45.92285" lon="5.90834">
        <ele>354.39999389648</ele>
        <time>2025-08-08T10:56:12.000Z</time>
      </trkpt>
      <trkpt lat="45.9226" lon="5.9088">
        <ele>354.60000610352</ele>
        <time>2025-08-08T10:56:19.000Z</time>
      </trkpt>
      <trkpt lat="45.92223" lon="5.90944">
        <ele>355</ele>
        <time>2025-08-08T10:56:29.000Z</time>
      </trkpt>
      <trkpt lat="45.92216" lon="5.90957">
        <ele>355</ele>
        <time>2025-08-08T10:56:31.000Z</time>
      </trkpt>
      <trkpt lat="45.92178" lon="5.91006">
        <ele>355.20001220703</ele>
        <time>2025-08-08T10:56:40.000Z</time>
      </trkpt>
      <trkpt lat="45.92171" lon="5.91014">
        <ele>355.20001220703</ele>
        <time>2025-08-08T10:56:42.000Z</time>
      </trkpt>
      <trkpt lat="45.92167" lon="5.91026">
        <ele>355.20001220703</ele>
        <time>2025-08-08T10:56:44.000Z</time>
      </trkpt>
      <trkpt lat="45.92168" lon="5.91039">
        <ele>355.39999389648</ele>
        <time>2025-08-08T10:56:46.000Z</time>
      </trkpt>
      <trkpt lat="45.9217" lon="5.91044">
        <ele>355.39999389648</ele>
        <time>2025-08-08T10:56:47.000Z</time>
      </trkpt>
      <trkpt lat="45.92172" lon="5.91049">
        <ele>355.60000610352</ele>
        <time>2025-08-08T10:56:48.000Z</time>
      </trkpt>
      <trkpt lat="45.92174" lon="5.91053">
        <ele>355.60000610352</ele>
        <time>2025-08-08T10:56:49.000Z</time>
      </trkpt>
      <trkpt lat="45.92181" lon="5.91064">
        <ele>356.20001220703</ele>
        <time>2025-08-08T10:56:52.000Z</time>
      </trkpt>
      <trkpt lat="45.92186" lon="5.91071">
        <ele>357</ele>
        <time>2025-08-08T10:56:54.000Z</time>
      </trkpt>
      <trkpt lat="45.92191" lon="5.9108">
        <ele>358.39999389648</ele>
        <time>2025-08-08T10:56:57.000Z</time>
      </trkpt>
      <trkpt lat="45.92192" lon="5.9108">
        <ele>359.39999389648</ele>
        <time>2025-08-08T10:57:00.000Z</time>
      </trkpt>
      <trkpt lat="45.92188" lon="5.91073">
        <ele>359.20001220703</ele>
        <time>2025-08-08T10:59:57.000Z</time>
      </trkpt>
      <trkpt lat="45.92177" lon="5.91052">
        <ele>359</ele>
        <time>2025-08-08T11:00:02.000Z</time>
      </trkpt>
      <trkpt lat="45.92171" lon="5.91042">
        <ele>358.60000610352</ele>
        <time>2025-08-08T11:00:05.000Z</time>
      </trkpt>
      <trkpt lat="45.92164" lon="5.91037">
        <ele>358.20001220703</ele>
        <time>2025-08-08T11:00:07.000Z</time>
      </trkpt>
      <trkpt lat="45.9216" lon="5.91038">
        <ele>357.79998779297</ele>
        <time>2025-08-08T11:00:08.000Z</time>
      </trkpt>
      <trkpt lat="45.92157" lon="5.91039">
        <ele>357.60000610352</ele>
        <time>2025-08-08T11:00:09.000Z</time>
      </trkpt>
      <trkpt lat="45.92153" lon="5.91043">
        <ele>357.20001220703</ele>
        <time>2025-08-08T11:00:10.000Z</time>
      </trkpt>
      <trkpt lat="45.92144" lon="5.91049">
        <ele>356.60000610352</ele>
        <time>2025-08-08T11:00:12.000Z</time>
      </trkpt>
      <trkpt lat="45.9213" lon="5.91059">
        <ele>356</ele>
        <time>2025-08-08T11:00:15.000Z</time>
      </trkpt>
      <trkpt lat="45.92115" lon="5.91067">
        <ele>355.79998779297</ele>
        <time>2025-08-08T11:00:18.000Z</time>
      </trkpt>
      <trkpt lat="45.92108" lon="5.9107">
        <ele>355.79998779297</ele>
        <time>2025-08-08T11:00:20.000Z</time>
      </trkpt>
      <trkpt lat="45.92097" lon="5.91079">
        <ele>356</ele>
        <time>2025-08-08T11:00:23.000Z</time>
      </trkpt>
      <trkpt lat="45.92072" lon="5.91101">
        <ele>356.20001220703</ele>
        <time>2025-08-08T11:00:30.000Z</time>
      </trkpt>
      <trkpt lat="45.92068" lon="5.91104">
        <ele>356.20001220703</ele>
        <time>2025-08-08T11:00:31.000Z</time>
      </trkpt>
      <trkpt lat="45.92044" lon="5.91125">
        <ele>356.20001220703</ele>
        <time>2025-08-08T11:00:37.000Z</time>
      </trkpt>
      <trkpt lat="45.92024" lon="5.91144">
        <ele>356.20001220703</ele>
        <time>2025-08-08T11:00:42.000Z</time>
      </trkpt>
      <trkpt lat="45.92016" lon="5.91152">
        <ele>356.39999389648</ele>
        <time>2025-08-08T11:00:44.000Z</time>
      </trkpt>
      <trkpt lat="45.92004" lon="5.91165">
        <ele>356.60000610352</ele>
        <time>2025-08-08T11:00:47.000Z</time>
      </trkpt>
      <trkpt lat="45.91993" lon="5.91179">
        <ele>356.79998779297</ele>
        <time>2025-08-08T11:00:50.000Z</time>
      </trkpt>
      <trkpt lat="45.9199" lon="5.91185">
        <ele>356.79998779297</ele>
        <time>2025-08-08T11:00:51.000Z</time>
      </trkpt>
      <trkpt lat="45.91975" lon="5.91214">
        <ele>357</ele>
        <time>2025-08-08T11:00:56.000Z</time>
      </trkpt>
      <trkpt lat="45.91948" lon="5.91267">
        <ele>357.20001220703</ele>
        <time>2025-08-08T11:01:05.000Z</time>
      </trkpt>
      <trkpt lat="45.91938" lon="5.91284">
        <ele>357.39999389648</ele>
        <time>2025-08-08T11:01:08.000Z</time>
      </trkpt>
      <trkpt lat="45.91926" lon="5.913">
        <ele>357.60000610352</ele>
        <time>2025-08-08T11:01:11.000Z</time>
      </trkpt>
      <trkpt lat="45.91895" lon="5.91329">
        <ele>358</ele>
        <time>2025-08-08T11:01:18.000Z</time>
      </trkpt>
      <trkpt lat="45.91846" lon="5.91371">
        <ele>358.39999389648</ele>
        <time>2025-08-08T11:01:28.000Z</time>
      </trkpt>
      <trkpt lat="45.91797" lon="5.91414">
        <ele>358.39999389648</ele>
        <time>2025-08-08T11:01:37.000Z</time>
      </trkpt>
      <trkpt lat="45.91754" lon="5.91451">
        <ele>358</ele>
        <time>2025-08-08T11:01:45.000Z</time>
      </trkpt>
      <trkpt lat="45.9171" lon="5.91491">
        <ele>357.60000610352</ele>
        <time>2025-08-08T11:01:53.000Z</time>
      </trkpt>
      <trkpt lat="45.91661" lon="5.91534">
        <ele>357.39999389648</ele>
        <time>2025-08-08T11:02:02.000Z</time>
      </trkpt>
      <trkpt lat="45.91655" lon="5.91539">
        <ele>357.39999389648</ele>
        <time>2025-08-08T11:02:03.000Z</time>
      </trkpt>
      <trkpt lat="45.91607" lon="5.91582">
        <ele>357.20001220703</ele>
        <time>2025-08-08T11:02:12.000Z</time>
      </trkpt>
      <trkpt lat="45.91591" lon="5.91596">
        <ele>357.20001220703</ele>
        <time>2025-08-08T11:02:15.000Z</time>
      </trkpt>
      <trkpt lat="45.91543" lon="5.91639">
        <ele>357.20001220703</ele>
        <time>2025-08-08T11:02:24.000Z</time>
      </trkpt>
      <trkpt lat="45.91537" lon="5.91643">
        <ele>357.20001220703</ele>
        <time>2025-08-08T11:02:25.000Z</time>
      </trkpt>
      <trkpt lat="45.91521" lon="5.91658">
        <ele>357</ele>
        <time>2025-08-08T11:02:28.000Z</time>
      </trkpt>
      <trkpt lat="45.91493" lon="5.91683">
        <ele>357.20001220703</ele>
        <time>2025-08-08T11:02:33.000Z</time>
      </trkpt>
      <trkpt lat="45.91443" lon="5.91726">
        <ele>357</ele>
        <time>2025-08-08T11:02:42.000Z</time>
      </trkpt>
      <trkpt lat="45.9142" lon="5.91746">
        <ele>357</ele>
        <time>2025-08-08T11:02:46.000Z</time>
      </trkpt>
      <trkpt lat="45.9137" lon="5.9179">
        <ele>357</ele>
        <time>2025-08-08T11:02:55.000Z</time>
      </trkpt>
      <trkpt lat="45.91325" lon="5.9183">
        <ele>356.79998779297</ele>
        <time>2025-08-08T11:03:03.000Z</time>
      </trkpt>
      <trkpt lat="45.91277" lon="5.91871">
        <ele>357.20001220703</ele>
        <time>2025-08-08T11:03:12.000Z</time>
      </trkpt>
      <trkpt lat="45.91272" lon="5.91876">
        <ele>357.20001220703</ele>
        <time>2025-08-08T11:03:13.000Z</time>
      </trkpt>
      <trkpt lat="45.9123" lon="5.91913">
        <ele>357.60000610352</ele>
        <time>2025-08-08T11:03:22.000Z</time>
      </trkpt>
      <trkpt lat="45.91183" lon="5.91954">
        <ele>358.39999389648</ele>
        <time>2025-08-08T11:03:32.000Z</time>
      </trkpt>
      <trkpt lat="45.91151" lon="5.91983">
        <ele>358.60000610352</ele>
        <time>2025-08-08T11:03:39.000Z</time>
      </trkpt>
      <trkpt lat="45.91142" lon="5.91991">
        <ele>358.60000610352</ele>
        <time>2025-08-08T11:03:41.000Z</time>
      </trkpt>
      <trkpt lat="45.91105" lon="5.92024">
        <ele>359.39999389648</ele>
        <time>2025-08-08T11:03:49.000Z</time>
      </trkpt>
      <trkpt lat="45.91078" lon="5.92048">
        <ele>359.79998779297</ele>
        <time>2025-08-08T11:03:55.000Z</time>
      </trkpt>
      <trkpt lat="45.91054" lon="5.92068">
        <ele>360.20001220703</ele>
        <time>2025-08-08T11:04:00.000Z</time>
      </trkpt>
      <trkpt lat="45.91007" lon="5.92106">
        <ele>360.79998779297</ele>
        <time>2025-08-08T11:04:10.000Z</time>
      </trkpt>
      <trkpt lat="45.91003" lon="5.9211">
        <ele>361</ele>
        <time>2025-08-08T11:04:11.000Z</time>
      </trkpt>
      <trkpt lat="45.90968" lon="5.92141">
        <ele>361.60000610352</ele>
        <time>2025-08-08T11:04:19.000Z</time>
      </trkpt>
      <trkpt lat="45.90937" lon="5.92171">
        <ele>362.20001220703</ele>
        <time>2025-08-08T11:04:26.000Z</time>
      </trkpt>
      <trkpt lat="45.90923" lon="5.92183">
        <ele>362.39999389648</ele>
        <time>2025-08-08T11:04:29.000Z</time>
      </trkpt>
      <trkpt lat="45.90876" lon="5.92225">
        <ele>363</ele>
        <time>2025-08-08T11:04:39.000Z</time>
      </trkpt>
      <trkpt lat="45.90866" lon="5.92233">
        <ele>363.20001220703</ele>
        <time>2025-08-08T11:04:41.000Z</time>
      </trkpt>
      <trkpt lat="45.90858" lon="5.92241">
        <ele>363.20001220703</ele>
        <time>2025-08-08T11:04:43.000Z</time>
      </trkpt>
      <trkpt lat="45.90832" lon="5.92264">
        <ele>363.39999389648</ele>
        <time>2025-08-08T11:04:49.000Z</time>
      </trkpt>
      <trkpt lat="45.90781" lon="5.92309">
        <ele>364.20001220703</ele>
        <time>2025-08-08T11:05:00.000Z</time>
      </trkpt>
      <trkpt lat="45.90767" lon="5.9232">
        <ele>364.60000610352</ele>
        <time>2025-08-08T11:05:03.000Z</time>
      </trkpt>
      <trkpt lat="45.90731" lon="5.92354">
        <ele>365.39999389648</ele>
        <time>2025-08-08T11:05:11.000Z</time>
      </trkpt>
      <trkpt lat="45.90696" lon="5.92398">
        <ele>365.60000610352</ele>
        <time>2025-08-08T11:05:19.000Z</time>
      </trkpt>
      <trkpt lat="45.90672" lon="5.9244">
        <ele>365.79998779297</ele>
        <time>2025-08-08T11:05:26.000Z</time>
      </trkpt>
      <trkpt lat="45.90653" lon="5.92474">
        <ele>365.79998779297</ele>
        <time>2025-08-08T11:05:31.000Z</time>
      </trkpt>
      <trkpt lat="45.90619" lon="5.9252">
        <ele>365.39999389648</ele>
        <time>2025-08-08T11:05:39.000Z</time>
      </trkpt>
      <trkpt lat="45.90573" lon="5.92566">
        <ele>365.60000610352</ele>
        <time>2025-08-08T11:05:49.000Z</time>
      </trkpt>
      <trkpt lat="45.90536" lon="5.92602">
        <ele>365.79998779297</ele>
        <time>2025-08-08T11:05:57.000Z</time>
      </trkpt>
      <trkpt lat="45.90497" lon="5.9264">
        <ele>366.20001220703</ele>
        <time>2025-08-08T11:06:06.000Z</time>
      </trkpt>
      <trkpt lat="45.90468" lon="5.9267">
        <ele>367</ele>
        <time>2025-08-08T11:06:13.000Z</time>
      </trkpt>
      <trkpt lat="45.90455" lon="5.92683">
        <ele>367.60000610352</ele>
        <time>2025-08-08T11:06:16.000Z</time>
      </trkpt>
      <trkpt lat="45.90451" lon="5.92687">
        <ele>367.79998779297</ele>
        <time>2025-08-08T11:06:17.000Z</time>
      </trkpt>
      <trkpt lat="45.90404" lon="5.92734">
        <ele>368.20001220703</ele>
        <time>2025-08-08T11:06:28.000Z</time>
      </trkpt>
      <trkpt lat="45.904" lon="5.92738">
        <ele>368.39999389648</ele>
        <time>2025-08-08T11:06:29.000Z</time>
      </trkpt>
      <trkpt lat="45.90357" lon="5.9278">
        <ele>369.60000610352</ele>
        <time>2025-08-08T11:06:39.000Z</time>
      </trkpt>
      <trkpt lat="45.90353" lon="5.92784">
        <ele>369.60000610352</ele>
        <time>2025-08-08T11:06:40.000Z</time>
      </trkpt>
      <trkpt lat="45.90311" lon="5.92826">
        <ele>370.39999389648</ele>
        <time>2025-08-08T11:06:50.000Z</time>
      </trkpt>
      <trkpt lat="45.90297" lon="5.9284">
        <ele>370.60000610352</ele>
        <time>2025-08-08T11:06:53.000Z</time>
      </trkpt>
      <trkpt lat="45.90266" lon="5.9287">
        <ele>371</ele>
        <time>2025-08-08T11:07:00.000Z</time>
      </trkpt>
      <trkpt lat="45.90235" lon="5.92901">
        <ele>371.60000610352</ele>
        <time>2025-08-08T11:07:07.000Z</time>
      </trkpt>
      <trkpt lat="45.90231" lon="5.92905">
        <ele>371.79998779297</ele>
        <time>2025-08-08T11:07:08.000Z</time>
      </trkpt>
      <trkpt lat="45.90194" lon="5.92948">
        <ele>372.39999389648</ele>
        <time>2025-08-08T11:07:17.000Z</time>
      </trkpt>
      <trkpt lat="45.90185" lon="5.92965">
        <ele>372.60000610352</ele>
        <time>2025-08-08T11:07:20.000Z</time>
      </trkpt>
      <trkpt lat="45.90175" lon="5.92988">
        <ele>373.20001220703</ele>
        <time>2025-08-08T11:07:24.000Z</time>
      </trkpt>
      <trkpt lat="45.9017" lon="5.93006">
        <ele>373.79998779297</ele>
        <time>2025-08-08T11:07:27.000Z</time>
      </trkpt>
      <trkpt lat="45.90167" lon="5.93031">
        <ele>374.39999389648</ele>
        <time>2025-08-08T11:07:31.000Z</time>
      </trkpt>
      <trkpt lat="45.90166" lon="5.9307">
        <ele>375</ele>
        <time>2025-08-08T11:07:37.000Z</time>
      </trkpt>
      <trkpt lat="45.90167" lon="5.93083">
        <ele>375</ele>
        <time>2025-08-08T11:07:39.000Z</time>
      </trkpt>
      <trkpt lat="45.90171" lon="5.93103">
        <ele>375.39999389648</ele>
        <time>2025-08-08T11:07:42.000Z</time>
      </trkpt>
      <trkpt lat="45.90178" lon="5.93126">
        <ele>375.79998779297</ele>
        <time>2025-08-08T11:07:46.000Z</time>
      </trkpt>
      <trkpt lat="45.90181" lon="5.93132">
        <ele>376</ele>
        <time>2025-08-08T11:07:47.000Z</time>
      </trkpt>
      <trkpt lat="45.90201" lon="5.93164">
        <ele>376.39999389648</ele>
        <time>2025-08-08T11:07:54.000Z</time>
      </trkpt>
      <trkpt lat="45.90215" lon="5.93179">
        <ele>377.20001220703</ele>
        <time>2025-08-08T11:07:58.000Z</time>
      </trkpt>
      <trkpt lat="45.90229" lon="5.93191">
        <ele>377.79998779297</ele>
        <time>2025-08-08T11:08:02.000Z</time>
      </trkpt>
      <trkpt lat="45.90243" lon="5.93204">
        <ele>378.20001220703</ele>
        <time>2025-08-08T11:08:06.000Z</time>
      </trkpt>
      <trkpt lat="45.90256" lon="5.93218">
        <ele>379.20001220703</ele>
        <time>2025-08-08T11:08:10.000Z</time>
      </trkpt>
      <trkpt lat="45.90262" lon="5.93226">
        <ele>379.39999389648</ele>
        <time>2025-08-08T11:08:12.000Z</time>
      </trkpt>
      <trkpt lat="45.90275" lon="5.93248">
        <ele>380.20001220703</ele>
        <time>2025-08-08T11:08:17.000Z</time>
      </trkpt>
      <trkpt lat="45.90278" lon="5.93259">
        <ele>380.39999389648</ele>
        <time>2025-08-08T11:08:19.000Z</time>
      </trkpt>
      <trkpt lat="45.9028" lon="5.93281">
        <ele>381</ele>
        <time>2025-08-08T11:08:23.000Z</time>
      </trkpt>
      <trkpt lat="45.90273" lon="5.93315">
        <ele>381.39999389648</ele>
        <time>2025-08-08T11:08:29.000Z</time>
      </trkpt>
      <trkpt lat="45.90271" lon="5.9332">
        <ele>381.60000610352</ele>
        <time>2025-08-08T11:08:30.000Z</time>
      </trkpt>
      <trkpt lat="45.90266" lon="5.93329">
        <ele>381.79998779297</ele>
        <time>2025-08-08T11:08:32.000Z</time>
      </trkpt>
      <trkpt lat="45.90257" lon="5.93341">
        <ele>382.20001220703</ele>
        <time>2025-08-08T11:08:35.000Z</time>
      </trkpt>
      <trkpt lat="45.90254" lon="5.93344">
        <ele>382.60000610352</ele>
        <time>2025-08-08T11:08:36.000Z</time>
      </trkpt>
      <trkpt lat="45.90239" lon="5.93359">
        <ele>383.39999389648</ele>
        <time>2025-08-08T11:08:41.000Z</time>
      </trkpt>
      <trkpt lat="45.90236" lon="5.93362">
        <ele>383.60000610352</ele>
        <time>2025-08-08T11:08:42.000Z</time>
      </trkpt>
      <trkpt lat="45.90212" lon="5.93382">
        <ele>384.39999389648</ele>
        <time>2025-08-08T11:08:49.000Z</time>
      </trkpt>
      <trkpt lat="45.90203" lon="5.9339">
        <ele>384.79998779297</ele>
        <time>2025-08-08T11:08:52.000Z</time>
      </trkpt>
      <trkpt lat="45.90183" lon="5.93408">
        <ele>385.60000610352</ele>
        <time>2025-08-08T11:08:58.000Z</time>
      </trkpt>
      <trkpt lat="45.90172" lon="5.93417">
        <ele>385.79998779297</ele>
        <time>2025-08-08T11:09:01.000Z</time>
      </trkpt>
      <trkpt lat="45.90151" lon="5.93434">
        <ele>386.39999389648</ele>
        <time>2025-08-08T11:09:07.000Z</time>
      </trkpt>
      <trkpt lat="45.90131" lon="5.93451">
        <ele>387</ele>
        <time>2025-08-08T11:09:13.000Z</time>
      </trkpt>
      <trkpt lat="45.90127" lon="5.93454">
        <ele>387.20001220703</ele>
        <time>2025-08-08T11:09:14.000Z</time>
      </trkpt>
      <trkpt lat="45.90097" lon="5.93469">
        <ele>387.39999389648</ele>
        <time>2025-08-08T11:09:22.000Z</time>
      </trkpt>
      <trkpt lat="45.90094" lon="5.93475">
        <ele>387.20001220703</ele>
        <time>2025-08-08T11:09:24.000Z</time>
      </trkpt>
      <trkpt lat="45.90094" lon="5.93477">
        <ele>387.20001220703</ele>
        <time>2025-08-08T11:09:25.000Z</time>
      </trkpt>
      <trkpt lat="45.90093" lon="5.93484">
        <ele>387.20001220703</ele>
        <time>2025-08-08T11:09:28.000Z</time>
      </trkpt>
      <trkpt lat="45.90091" lon="5.93487">
        <ele>387.20001220703</ele>
        <time>2025-08-08T11:09:30.000Z</time>
      </trkpt>
      <trkpt lat="45.90084" lon="5.93495">
        <ele>387</ele>
        <time>2025-08-08T11:09:34.000Z</time>
      </trkpt>
      <trkpt lat="45.90083" lon="5.93495">
        <ele>387.20001220703</ele>
        <time>2025-08-08T11:09:36.000Z</time>
      </trkpt>
      <trkpt lat="45.90083" lon="5.93496">
        <ele>387.20001220703</ele>
        <time>2025-08-08T11:09:38.000Z</time>
      </trkpt>
      <trkpt lat="45.90076" lon="5.9349">
        <ele>391.39999389648</ele>
        <time>2025-08-08T11:39:07.000Z</time>
      </trkpt>
      <trkpt lat="45.90077" lon="5.93488">
        <ele>391.39999389648</ele>
        <time>2025-08-08T11:39:08.000Z</time>
      </trkpt>
      <trkpt lat="45.90082" lon="5.93489">
        <ele>391.39999389648</ele>
        <time>2025-08-08T11:39:10.000Z</time>
      </trkpt>
      <trkpt lat="45.90087" lon="5.93488">
        <ele>391.20001220703</ele>
        <time>2025-08-08T11:39:12.000Z</time>
      </trkpt>
      <trkpt lat="45.90093" lon="5.93482">
        <ele>391.20001220703</ele>
        <time>2025-08-08T11:39:15.000Z</time>
      </trkpt>
      <trkpt lat="45.90094" lon="5.9348">
        <ele>391</ele>
        <time>2025-08-08T11:39:17.000Z</time>
      </trkpt>
      <trkpt lat="45.90094" lon="5.9348">
        <ele>390.79998779297</ele>
        <time>2025-08-08T11:39:19.000Z</time>
      </trkpt>
      <trkpt lat="45.90099" lon="5.93477">
        <ele>390.60000610352</ele>
        <time>2025-08-08T11:39:23.000Z</time>
      </trkpt>
      <trkpt lat="45.90099" lon="5.93477">
        <ele>390.60000610352</ele>
        <time>2025-08-08T11:39:24.000Z</time>
      </trkpt>
      <trkpt lat="45.90113" lon="5.93475">
        <ele>390.60000610352</ele>
        <time>2025-08-08T11:39:27.000Z</time>
      </trkpt>
      <trkpt lat="45.90138" lon="5.93474">
        <ele>390.39999389648</ele>
        <time>2025-08-08T11:39:32.000Z</time>
      </trkpt>
      <trkpt lat="45.90144" lon="5.93473">
        <ele>390.20001220703</ele>
        <time>2025-08-08T11:39:33.000Z</time>
      </trkpt>
      <trkpt lat="45.9018" lon="5.93471">
        <ele>389.79998779297</ele>
        <time>2025-08-08T11:39:40.000Z</time>
      </trkpt>
      <trkpt lat="45.90189" lon="5.93471">
        <ele>389.79998779297</ele>
        <time>2025-08-08T11:39:42.000Z</time>
      </trkpt>
      <trkpt lat="45.90197" lon="5.93478">
        <ele>389.60000610352</ele>
        <time>2025-08-08T11:39:44.000Z</time>
      </trkpt>
      <trkpt lat="45.90201" lon="5.9349">
        <ele>389.60000610352</ele>
        <time>2025-08-08T11:39:46.000Z</time>
      </trkpt>
      <trkpt lat="45.90202" lon="5.93497">
        <ele>389.60000610352</ele>
        <time>2025-08-08T11:39:47.000Z</time>
      </trkpt>
      <trkpt lat="45.90208" lon="5.93545">
        <ele>390.20001220703</ele>
        <time>2025-08-08T11:39:55.000Z</time>
      </trkpt>
      <trkpt lat="45.90214" lon="5.93598">
        <ele>390.20001220703</ele>
        <time>2025-08-08T11:40:04.000Z</time>
      </trkpt>
      <trkpt lat="45.90215" lon="5.9361">
        <ele>390.20001220703</ele>
        <time>2025-08-08T11:40:06.000Z</time>
      </trkpt>
      <trkpt lat="45.90218" lon="5.93628">
        <ele>390.20001220703</ele>
        <time>2025-08-08T11:40:09.000Z</time>
      </trkpt>
      <trkpt lat="45.90218" lon="5.93634">
        <ele>390.20001220703</ele>
        <time>2025-08-08T11:40:10.000Z</time>
      </trkpt>
      <trkpt lat="45.90225" lon="5.93686">
        <ele>390.60000610352</ele>
        <time>2025-08-08T11:40:19.000Z</time>
      </trkpt>
      <trkpt lat="45.90228" lon="5.93699">
        <ele>390.79998779297</ele>
        <time>2025-08-08T11:40:20.000Z</time>
      </trkpt>
      <trkpt lat="45.90236" lon="5.93716">
        <ele>390.79998779297</ele>
        <time>2025-08-08T11:40:23.000Z</time>
      </trkpt>
      <trkpt lat="45.90238" lon="5.9372">
        <ele>390.79998779297</ele>
        <time>2025-08-08T11:40:24.000Z</time>
      </trkpt>
      <trkpt lat="45.9025" lon="5.93734">
        <ele>390.60000610352</ele>
        <time>2025-08-08T11:40:27.000Z</time>
      </trkpt>
      <trkpt lat="45.90259" lon="5.93741">
        <ele>390.60000610352</ele>
        <time>2025-08-08T11:40:29.000Z</time>
      </trkpt>
      <trkpt lat="45.90263" lon="5.93743">
        <ele>390.60000610352</ele>
        <time>2025-08-08T11:40:30.000Z</time>
      </trkpt>
      <trkpt lat="45.90289" lon="5.9375">
        <ele>390.60000610352</ele>
        <time>2025-08-08T11:40:35.000Z</time>
      </trkpt>
      <trkpt lat="45.90328" lon="5.93763">
        <ele>391.20001220703</ele>
        <time>2025-08-08T11:40:43.000Z</time>
      </trkpt>
      <trkpt lat="45.90333" lon="5.93767">
        <ele>391.39999389648</ele>
        <time>2025-08-08T11:40:44.000Z</time>
      </trkpt>
      <trkpt lat="45.90341" lon="5.93774">
        <ele>391.60000610352</ele>
        <time>2025-08-08T11:40:46.000Z</time>
      </trkpt>
      <trkpt lat="45.90351" lon="5.93786">
        <ele>392.20001220703</ele>
        <time>2025-08-08T11:40:49.000Z</time>
      </trkpt>
      <trkpt lat="45.90366" lon="5.93807">
        <ele>392.79998779297</ele>
        <time>2025-08-08T11:40:55.000Z</time>
      </trkpt>
      <trkpt lat="45.90382" lon="5.93829">
        <ele>393.79998779297</ele>
        <time>2025-08-08T11:41:02.000Z</time>
      </trkpt>
      <trkpt lat="45.90394" lon="5.93846">
        <ele>395</ele>
        <time>2025-08-08T11:41:07.000Z</time>
      </trkpt>
      <trkpt lat="45.90402" lon="5.93857">
        <ele>395.39999389648</ele>
        <time>2025-08-08T11:41:11.000Z</time>
      </trkpt>
      <trkpt lat="45.90412" lon="5.93872">
        <ele>396.20001220703</ele>
        <time>2025-08-08T11:41:16.000Z</time>
      </trkpt>
      <trkpt lat="45.90421" lon="5.93884">
        <ele>396.79998779297</ele>
        <time>2025-08-08T11:41:20.000Z</time>
      </trkpt>
      <trkpt lat="45.90431" lon="5.93896">
        <ele>397.39999389648</ele>
        <time>2025-08-08T11:41:25.000Z</time>
      </trkpt>
      <trkpt lat="45.90435" lon="5.93901">
        <ele>398</ele>
        <time>2025-08-08T11:41:27.000Z</time>
      </trkpt>
      <trkpt lat="45.90442" lon="5.93911">
        <ele>398.39999389648</ele>
        <time>2025-08-08T11:41:30.000Z</time>
      </trkpt>
      <trkpt lat="45.90443" lon="5.93913">
        <ele>398.79998779297</ele>
        <time>2025-08-08T11:41:31.000Z</time>
      </trkpt>
      <trkpt lat="45.90451" lon="5.93924">
        <ele>399.60000610352</ele>
        <time>2025-08-08T11:41:35.000Z</time>
      </trkpt>
      <trkpt lat="45.90453" lon="5.93926">
        <ele>399.79998779297</ele>
        <time>2025-08-08T11:41:36.000Z</time>
      </trkpt>
      <trkpt lat="45.90462" lon="5.93937">
        <ele>400.60000610352</ele>
        <time>2025-08-08T11:41:40.000Z</time>
      </trkpt>
      <trkpt lat="45.90475" lon="5.93954">
        <ele>401.79998779297</ele>
        <time>2025-08-08T11:41:46.000Z</time>
      </trkpt>
      <trkpt lat="45.90484" lon="5.93968">
        <ele>403</ele>
        <time>2025-08-08T11:41:51.000Z</time>
      </trkpt>
      <trkpt lat="45.9049" lon="5.93976">
        <ele>403.79998779297</ele>
        <time>2025-08-08T11:41:54.000Z</time>
      </trkpt>
      <trkpt lat="45.90494" lon="5.93983">
        <ele>404.20001220703</ele>
        <time>2025-08-08T11:41:56.000Z</time>
      </trkpt>
      <trkpt lat="45.90505" lon="5.93995">
        <ele>405</ele>
        <time>2025-08-08T11:42:01.000Z</time>
      </trkpt>
      <trkpt lat="45.90507" lon="5.93998">
        <ele>405.39999389648</ele>
        <time>2025-08-08T11:42:02.000Z</time>
      </trkpt>
      <trkpt lat="45.90517" lon="5.94014">
        <ele>406.39999389648</ele>
        <time>2025-08-08T11:42:07.000Z</time>
      </trkpt>
      <trkpt lat="45.9052" lon="5.94021">
        <ele>406.60000610352</ele>
        <time>2025-08-08T11:42:09.000Z</time>
      </trkpt>
      <trkpt lat="45.90533" lon="5.94053">
        <ele>407.39999389648</ele>
        <time>2025-08-08T11:42:17.000Z</time>
      </trkpt>
      <trkpt lat="45.90535" lon="5.94057">
        <ele>407.60000610352</ele>
        <time>2025-08-08T11:42:18.000Z</time>
      </trkpt>
      <trkpt lat="45.90547" lon="5.94093">
        <ele>408.60000610352</ele>
        <time>2025-08-08T11:42:27.000Z</time>
      </trkpt>
      <trkpt lat="45.90549" lon="5.94097">
        <ele>408.79998779297</ele>
        <time>2025-08-08T11:42:28.000Z</time>
      </trkpt>
      <trkpt lat="45.90558" lon="5.94119">
        <ele>409.79998779297</ele>
        <time>2025-08-08T11:42:34.000Z</time>
      </trkpt>
      <trkpt lat="45.90569" lon="5.9415">
        <ele>410.79998779297</ele>
        <time>2025-08-08T11:42:42.000Z</time>
      </trkpt>
      <trkpt lat="45.90571" lon="5.94155">
        <ele>410.79998779297</ele>
        <time>2025-08-08T11:42:43.000Z</time>
      </trkpt>
      <trkpt lat="45.90582" lon="5.94177">
        <ele>412.20001220703</ele>
        <time>2025-08-08T11:42:49.000Z</time>
      </trkpt>
      <trkpt lat="45.9059" lon="5.9419">
        <ele>413</ele>
        <time>2025-08-08T11:42:53.000Z</time>
      </trkpt>
      <trkpt lat="45.90593" lon="5.94193">
        <ele>413.39999389648</ele>
        <time>2025-08-08T11:42:54.000Z</time>
      </trkpt>
      <trkpt lat="45.90622" lon="5.94224">
        <ele>414</ele>
        <time>2025-08-08T11:43:05.000Z</time>
      </trkpt>
      <trkpt lat="45.90629" lon="5.94233">
        <ele>414.39999389648</ele>
        <time>2025-08-08T11:43:08.000Z</time>
      </trkpt>
      <trkpt lat="45.90641" lon="5.94255">
        <ele>415.20001220703</ele>
        <time>2025-08-08T11:43:14.000Z</time>
      </trkpt>
      <trkpt lat="45.90649" lon="5.94275">
        <ele>415.60000610352</ele>
        <time>2025-08-08T11:43:19.000Z</time>
      </trkpt>
      <trkpt lat="45.90651" lon="5.94279">
        <ele>415.60000610352</ele>
        <time>2025-08-08T11:43:20.000Z</time>
      </trkpt>
      <trkpt lat="45.90654" lon="5.94288">
        <ele>416</ele>
        <time>2025-08-08T11:43:23.000Z</time>
      </trkpt>
      <trkpt lat="45.90671" lon="5.9433">
        <ele>415.79998779297</ele>
        <time>2025-08-08T11:43:32.000Z</time>
      </trkpt>
      <trkpt lat="45.90685" lon="5.94368">
        <ele>415.39999389648</ele>
        <time>2025-08-08T11:43:39.000Z</time>
      </trkpt>
      <trkpt lat="45.90688" lon="5.94373">
        <ele>415.20001220703</ele>
        <time>2025-08-08T11:43:40.000Z</time>
      </trkpt>
      <trkpt lat="45.90708" lon="5.944">
        <ele>414.79998779297</ele>
        <time>2025-08-08T11:43:46.000Z</time>
      </trkpt>
      <trkpt lat="45.90717" lon="5.94407">
        <ele>414.60000610352</ele>
        <time>2025-08-08T11:43:48.000Z</time>
      </trkpt>
      <trkpt lat="45.90733" lon="5.94413">
        <ele>414.60000610352</ele>
        <time>2025-08-08T11:43:51.000Z</time>
      </trkpt>
      <trkpt lat="45.90763" lon="5.9442">
        <ele>414.20001220703</ele>
        <time>2025-08-08T11:43:56.000Z</time>
      </trkpt>
      <trkpt lat="45.9077" lon="5.94423">
        <ele>414</ele>
        <time>2025-08-08T11:43:57.000Z</time>
      </trkpt>
      <trkpt lat="45.90783" lon="5.94434">
        <ele>413.79998779297</ele>
        <time>2025-08-08T11:43:59.000Z</time>
      </trkpt>
      <trkpt lat="45.90783" lon="5.94434">
        <ele>413.60000610352</ele>
        <time>2025-08-08T11:44:00.000Z</time>
      </trkpt>
      <trkpt lat="45.90791" lon="5.94449">
        <ele>413.60000610352</ele>
        <time>2025-08-08T11:44:01.000Z</time>
      </trkpt>
      <trkpt lat="45.90798" lon="5.9447">
        <ele>413.20001220703</ele>
        <time>2025-08-08T11:44:03.000Z</time>
      </trkpt>
      <trkpt lat="45.90807" lon="5.94515">
        <ele>412.39999389648</ele>
        <time>2025-08-08T11:44:07.000Z</time>
      </trkpt>
      <trkpt lat="45.90812" lon="5.94538">
        <ele>412</ele>
        <time>2025-08-08T11:44:09.000Z</time>
      </trkpt>
      <trkpt lat="45.90825" lon="5.94601">
        <ele>411.39999389648</ele>
        <time>2025-08-08T11:44:15.000Z</time>
      </trkpt>
      <trkpt lat="45.9083" lon="5.94621">
        <ele>411.20001220703</ele>
        <time>2025-08-08T11:44:18.000Z</time>
      </trkpt>
      <trkpt lat="45.90846" lon="5.94686">
        <ele>411.20001220703</ele>
        <time>2025-08-08T11:44:24.000Z</time>
      </trkpt>
      <trkpt lat="45.9085" lon="5.94694">
        <ele>411.20001220703</ele>
        <time>2025-08-08T11:44:25.000Z</time>
      </trkpt>
      <trkpt lat="45.90869" lon="5.94733">
        <ele>411.79998779297</ele>
        <time>2025-08-08T11:44:31.000Z</time>
      </trkpt>
      <trkpt lat="45.90885" lon="5.94768">
        <ele>412.39999389648</ele>
        <time>2025-08-08T11:44:36.000Z</time>
      </trkpt>
      <trkpt lat="45.90888" lon="5.94775">
        <ele>412.60000610352</ele>
        <time>2025-08-08T11:44:38.000Z</time>
      </trkpt>
      <trkpt lat="45.90915" lon="5.94842">
        <ele>413.20001220703</ele>
        <time>2025-08-08T11:44:48.000Z</time>
      </trkpt>
      <trkpt lat="45.90922" lon="5.94861">
        <ele>413.20001220703</ele>
        <time>2025-08-08T11:44:51.000Z</time>
      </trkpt>
      <trkpt lat="45.90932" lon="5.9489">
        <ele>414.20001220703</ele>
        <time>2025-08-08T11:44:56.000Z</time>
      </trkpt>
      <trkpt lat="45.90934" lon="5.94897">
        <ele>414.79998779297</ele>
        <time>2025-08-08T11:44:57.000Z</time>
      </trkpt>
      <trkpt lat="45.90939" lon="5.94916">
        <ele>415.20001220703</ele>
        <time>2025-08-08T11:45:00.000Z</time>
      </trkpt>
      <trkpt lat="45.90944" lon="5.94946">
        <ele>415.60000610352</ele>
        <time>2025-08-08T11:45:03.000Z</time>
      </trkpt>
      <trkpt lat="45.90948" lon="5.94969">
        <ele>416</ele>
        <time>2025-08-08T11:45:06.000Z</time>
      </trkpt>
      <trkpt lat="45.90949" lon="5.94984">
        <ele>416.20001220703</ele>
        <time>2025-08-08T11:45:08.000Z</time>
      </trkpt>
      <trkpt lat="45.90949" lon="5.94991">
        <ele>416.20001220703</ele>
        <time>2025-08-08T11:45:09.000Z</time>
      </trkpt>
      <trkpt lat="45.90948" lon="5.94998">
        <ele>416.39999389648</ele>
        <time>2025-08-08T11:45:10.000Z</time>
      </trkpt>
      <trkpt lat="45.90951" lon="5.95013">
        <ele>416.60000610352</ele>
        <time>2025-08-08T11:45:12.000Z</time>
      </trkpt>
      <trkpt lat="45.90951" lon="5.95021">
        <ele>416.60000610352</ele>
        <time>2025-08-08T11:45:13.000Z</time>
      </trkpt>
      <trkpt lat="45.9095" lon="5.95029">
        <ele>416.79998779297</ele>
        <time>2025-08-08T11:45:14.000Z</time>
      </trkpt>
      <trkpt lat="45.90953" lon="5.95043">
        <ele>417</ele>
        <time>2025-08-08T11:45:16.000Z</time>
      </trkpt>
      <trkpt lat="45.90955" lon="5.95051">
        <ele>417.20001220703</ele>
        <time>2025-08-08T11:45:18.000Z</time>
      </trkpt>
      <trkpt lat="45.90958" lon="5.95068">
        <ele>417.20001220703</ele>
        <time>2025-08-08T11:45:19.000Z</time>
      </trkpt>
      <trkpt lat="45.9096" lon="5.95091">
        <ele>417.39999389648</ele>
        <time>2025-08-08T11:45:22.000Z</time>
      </trkpt>
      <trkpt lat="45.90974" lon="5.95132">
        <ele>417.39999389648</ele>
        <time>2025-08-08T11:45:28.000Z</time>
      </trkpt>
      <trkpt lat="45.91006" lon="5.95192">
        <ele>416.79998779297</ele>
        <time>2025-08-08T11:45:38.000Z</time>
      </trkpt>
      <trkpt lat="45.91035" lon="5.95251">
        <ele>417.39999389648</ele>
        <time>2025-08-08T11:45:49.000Z</time>
      </trkpt>
      <trkpt lat="45.91046" lon="5.95271">
        <ele>417.79998779297</ele>
        <time>2025-08-08T11:45:53.000Z</time>
      </trkpt>
      <trkpt lat="45.91061" lon="5.95301">
        <ele>418.79998779297</ele>
        <time>2025-08-08T11:45:59.000Z</time>
      </trkpt>
      <trkpt lat="45.91063" lon="5.95306">
        <ele>419</ele>
        <time>2025-08-08T11:46:00.000Z</time>
      </trkpt>
      <trkpt lat="45.91067" lon="5.95317">
        <ele>419.39999389648</ele>
        <time>2025-08-08T11:46:02.000Z</time>
      </trkpt>
      <trkpt lat="45.91071" lon="5.95335">
        <ele>420</ele>
        <time>2025-08-08T11:46:05.000Z</time>
      </trkpt>
      <trkpt lat="45.91072" lon="5.95348">
        <ele>420</ele>
        <time>2025-08-08T11:46:07.000Z</time>
      </trkpt>
      <trkpt lat="45.91069" lon="5.95365">
        <ele>420.39999389648</ele>
        <time>2025-08-08T11:46:10.000Z</time>
      </trkpt>
      <trkpt lat="45.91057" lon="5.95409">
        <ele>421</ele>
        <time>2025-08-08T11:46:17.000Z</time>
      </trkpt>
      <trkpt lat="45.91055" lon="5.95415">
        <ele>421.20001220703</ele>
        <time>2025-08-08T11:46:18.000Z</time>
      </trkpt>
      <trkpt lat="45.91044" lon="5.95451">
        <ele>421.20001220703</ele>
        <time>2025-08-08T11:46:23.000Z</time>
      </trkpt>
      <trkpt lat="45.9102" lon="5.95529">
        <ele>420.79998779297</ele>
        <time>2025-08-08T11:46:33.000Z</time>
      </trkpt>
      <trkpt lat="45.90996" lon="5.95604">
        <ele>420.20001220703</ele>
        <time>2025-08-08T11:46:42.000Z</time>
      </trkpt>
      <trkpt lat="45.90989" lon="5.95629">
        <ele>420</ele>
        <time>2025-08-08T11:46:45.000Z</time>
      </trkpt>
      <trkpt lat="45.90976" lon="5.95671">
        <ele>419.60000610352</ele>
        <time>2025-08-08T11:46:50.000Z</time>
      </trkpt>
      <trkpt lat="45.90963" lon="5.95715">
        <ele>419</ele>
        <time>2025-08-08T11:46:55.000Z</time>
      </trkpt>
      <trkpt lat="45.90944" lon="5.95768">
        <ele>418.39999389648</ele>
        <time>2025-08-08T11:47:01.000Z</time>
      </trkpt>
      <trkpt lat="45.90934" lon="5.95785">
        <ele>418.20001220703</ele>
        <time>2025-08-08T11:47:03.000Z</time>
      </trkpt>
      <trkpt lat="45.90927" lon="5.95793">
        <ele>418</ele>
        <time>2025-08-08T11:47:04.000Z</time>
      </trkpt>
      <trkpt lat="45.90919" lon="5.95798">
        <ele>417.60000610352</ele>
        <time>2025-08-08T11:47:05.000Z</time>
      </trkpt>
      <trkpt lat="45.909" lon="5.95803">
        <ele>417</ele>
        <time>2025-08-08T11:47:07.000Z</time>
      </trkpt>
      <trkpt lat="45.9089" lon="5.95805">
        <ele>416.39999389648</ele>
        <time>2025-08-08T11:47:08.000Z</time>
      </trkpt>
      <trkpt lat="45.90859" lon="5.9581">
        <ele>415.20001220703</ele>
        <time>2025-08-08T11:47:11.000Z</time>
      </trkpt>
      <trkpt lat="45.90859" lon="5.9581">
        <ele>414.39999389648</ele>
        <time>2025-08-08T11:47:12.000Z</time>
      </trkpt>
      <trkpt lat="45.90838" lon="5.95813">
        <ele>414</ele>
        <time>2025-08-08T11:47:13.000Z</time>
      </trkpt>
      <trkpt lat="45.90817" lon="5.95813">
        <ele>413</ele>
        <time>2025-08-08T11:47:15.000Z</time>
      </trkpt>
      <trkpt lat="45.90797" lon="5.95811">
        <ele>411.60000610352</ele>
        <time>2025-08-08T11:47:17.000Z</time>
      </trkpt>
      <trkpt lat="45.90774" lon="5.95805">
        <ele>410.39999389648</ele>
        <time>2025-08-08T11:47:19.000Z</time>
      </trkpt>
      <trkpt lat="45.90754" lon="5.95801">
        <ele>409.39999389648</ele>
        <time>2025-08-08T11:47:21.000Z</time>
      </trkpt>
      <trkpt lat="45.90743" lon="5.95801">
        <ele>409</ele>
        <time>2025-08-08T11:47:22.000Z</time>
      </trkpt>
      <trkpt lat="45.90733" lon="5.95803">
        <ele>408.39999389648</ele>
        <time>2025-08-08T11:47:23.000Z</time>
      </trkpt>
      <trkpt lat="45.90702" lon="5.95809">
        <ele>406.39999389648</ele>
        <time>2025-08-08T11:47:26.000Z</time>
      </trkpt>
      <trkpt lat="45.90692" lon="5.95807">
        <ele>406</ele>
        <time>2025-08-08T11:47:27.000Z</time>
      </trkpt>
      <trkpt lat="45.90683" lon="5.95803">
        <ele>405</ele>
        <time>2025-08-08T11:47:28.000Z</time>
      </trkpt>
      <trkpt lat="45.90666" lon="5.95789">
        <ele>403.79998779297</ele>
        <time>2025-08-08T11:47:30.000Z</time>
      </trkpt>
      <trkpt lat="45.90657" lon="5.95781">
        <ele>403.20001220703</ele>
        <time>2025-08-08T11:47:31.000Z</time>
      </trkpt>
      <trkpt lat="45.90649" lon="5.95771">
        <ele>402.39999389648</ele>
        <time>2025-08-08T11:47:32.000Z</time>
      </trkpt>
      <trkpt lat="45.90634" lon="5.95751">
        <ele>400.79998779297</ele>
        <time>2025-08-08T11:47:34.000Z</time>
      </trkpt>
      <trkpt lat="45.9062" lon="5.95729">
        <ele>399</ele>
        <time>2025-08-08T11:47:36.000Z</time>
      </trkpt>
      <trkpt lat="45.90614" lon="5.9572">
        <ele>397.39999389648</ele>
        <time>2025-08-08T11:47:37.000Z</time>
      </trkpt>
      <trkpt lat="45.90608" lon="5.95712">
        <ele>396.79998779297</ele>
        <time>2025-08-08T11:47:38.000Z</time>
      </trkpt>
      <trkpt lat="45.90601" lon="5.95707">
        <ele>395.79998779297</ele>
        <time>2025-08-08T11:47:39.000Z</time>
      </trkpt>
      <trkpt lat="45.90595" lon="5.95704">
        <ele>395.20001220703</ele>
        <time>2025-08-08T11:47:40.000Z</time>
      </trkpt>
      <trkpt lat="45.90588" lon="5.95705">
        <ele>393.60000610352</ele>
        <time>2025-08-08T11:47:41.000Z</time>
      </trkpt>
      <trkpt lat="45.90582" lon="5.95709">
        <ele>393.20001220703</ele>
        <time>2025-08-08T11:47:42.000Z</time>
      </trkpt>
      <trkpt lat="45.90578" lon="5.95717">
        <ele>391.79998779297</ele>
        <time>2025-08-08T11:47:43.000Z</time>
      </trkpt>
      <trkpt lat="45.90577" lon="5.95726">
        <ele>391</ele>
        <time>2025-08-08T11:47:44.000Z</time>
      </trkpt>
      <trkpt lat="45.90578" lon="5.95737">
        <ele>390.39999389648</ele>
        <time>2025-08-08T11:47:45.000Z</time>
      </trkpt>
      <trkpt lat="45.90582" lon="5.95748">
        <ele>389.39999389648</ele>
        <time>2025-08-08T11:47:46.000Z</time>
      </trkpt>
      <trkpt lat="45.90587" lon="5.95758">
        <ele>389</ele>
        <time>2025-08-08T11:47:47.000Z</time>
      </trkpt>
      <trkpt lat="45.90601" lon="5.95778">
        <ele>387.79998779297</ele>
        <time>2025-08-08T11:47:49.000Z</time>
      </trkpt>
      <trkpt lat="45.90616" lon="5.95799">
        <ele>386.60000610352</ele>
        <time>2025-08-08T11:47:51.000Z</time>
      </trkpt>
      <trkpt lat="45.90642" lon="5.95833">
        <ele>384.79998779297</ele>
        <time>2025-08-08T11:47:54.000Z</time>
      </trkpt>
      <trkpt lat="45.9066" lon="5.95862">
        <ele>384.20001220703</ele>
        <time>2025-08-08T11:47:56.000Z</time>
      </trkpt>
      <trkpt lat="45.90665" lon="5.95874">
        <ele>383.60000610352</ele>
        <time>2025-08-08T11:47:57.000Z</time>
      </trkpt>
      <trkpt lat="45.9067" lon="5.95889">
        <ele>383</ele>
        <time>2025-08-08T11:47:58.000Z</time>
      </trkpt>
      <trkpt lat="45.90672" lon="5.95904">
        <ele>382</ele>
        <time>2025-08-08T11:47:59.000Z</time>
      </trkpt>
      <trkpt lat="45.90671" lon="5.95918">
        <ele>381.60000610352</ele>
        <time>2025-08-08T11:48:00.000Z</time>
      </trkpt>
      <trkpt lat="45.90668" lon="5.9593">
        <ele>380</ele>
        <time>2025-08-08T11:48:01.000Z</time>
      </trkpt>
      <trkpt lat="45.9066" lon="5.95966">
        <ele>378.79998779297</ele>
        <time>2025-08-08T11:48:04.000Z</time>
      </trkpt>
      <trkpt lat="45.90656" lon="5.95988">
        <ele>378.60000610352</ele>
        <time>2025-08-08T11:48:06.000Z</time>
      </trkpt>
      <trkpt lat="45.90646" lon="5.9603">
        <ele>378.79998779297</ele>
        <time>2025-08-08T11:48:11.000Z</time>
      </trkpt>
      <trkpt lat="45.90636" lon="5.96075">
        <ele>380</ele>
        <time>2025-08-08T11:48:17.000Z</time>
      </trkpt>
      <trkpt lat="45.90635" lon="5.96082">
        <ele>380</ele>
        <time>2025-08-08T11:48:18.000Z</time>
      </trkpt>
      <trkpt lat="45.90623" lon="5.96132">
        <ele>381</ele>
        <time>2025-08-08T11:48:25.000Z</time>
      </trkpt>
      <trkpt lat="45.90619" lon="5.96145">
        <ele>381.20001220703</ele>
        <time>2025-08-08T11:48:27.000Z</time>
      </trkpt>
      <trkpt lat="45.90599" lon="5.96214">
        <ele>381.20001220703</ele>
        <time>2025-08-08T11:48:37.000Z</time>
      </trkpt>
      <trkpt lat="45.90575" lon="5.9629">
        <ele>381.39999389648</ele>
        <time>2025-08-08T11:48:48.000Z</time>
      </trkpt>
      <trkpt lat="45.90574" lon="5.96295">
        <ele>381.39999389648</ele>
        <time>2025-08-08T11:48:49.000Z</time>
      </trkpt>
      <trkpt lat="45.90548" lon="5.96366">
        <ele>381.20001220703</ele>
        <time>2025-08-08T11:48:59.000Z</time>
      </trkpt>
      <trkpt lat="45.90516" lon="5.96433">
        <ele>381.39999389648</ele>
        <time>2025-08-08T11:49:09.000Z</time>
      </trkpt>
      <trkpt lat="45.90513" lon="5.9644">
        <ele>381.60000610352</ele>
        <time>2025-08-08T11:49:10.000Z</time>
      </trkpt>
      <trkpt lat="45.90487" lon="5.96496">
        <ele>382</ele>
        <time>2025-08-08T11:49:18.000Z</time>
      </trkpt>
      <trkpt lat="45.9047" lon="5.96546">
        <ele>382.20001220703</ele>
        <time>2025-08-08T11:49:25.000Z</time>
      </trkpt>
      <trkpt lat="45.90453" lon="5.966">
        <ele>382.20001220703</ele>
        <time>2025-08-08T11:49:32.000Z</time>
      </trkpt>
      <trkpt lat="45.90441" lon="5.96671">
        <ele>382.20001220703</ele>
        <time>2025-08-08T11:49:41.000Z</time>
      </trkpt>
      <trkpt lat="45.9043" lon="5.96742">
        <ele>382.39999389648</ele>
        <time>2025-08-08T11:49:50.000Z</time>
      </trkpt>
      <trkpt lat="45.90429" lon="5.96749">
        <ele>382.60000610352</ele>
        <time>2025-08-08T11:49:51.000Z</time>
      </trkpt>
      <trkpt lat="45.90418" lon="5.96815">
        <ele>383</ele>
        <time>2025-08-08T11:50:00.000Z</time>
      </trkpt>
      <trkpt lat="45.90409" lon="5.96884">
        <ele>383.20001220703</ele>
        <time>2025-08-08T11:50:09.000Z</time>
      </trkpt>
      <trkpt lat="45.90399" lon="5.96955">
        <ele>383.20001220703</ele>
        <time>2025-08-08T11:50:18.000Z</time>
      </trkpt>
      <trkpt lat="45.90393" lon="5.9701">
        <ele>383.39999389648</ele>
        <time>2025-08-08T11:50:25.000Z</time>
      </trkpt>
      <trkpt lat="45.90393" lon="5.97017">
        <ele>383.39999389648</ele>
        <time>2025-08-08T11:50:26.000Z</time>
      </trkpt>
      <trkpt lat="45.90395" lon="5.9704">
        <ele>383.60000610352</ele>
        <time>2025-08-08T11:50:29.000Z</time>
      </trkpt>
      <trkpt lat="45.90401" lon="5.97061">
        <ele>383.60000610352</ele>
        <time>2025-08-08T11:50:32.000Z</time>
      </trkpt>
      <trkpt lat="45.90413" lon="5.97111">
        <ele>384.20001220703</ele>
        <time>2025-08-08T11:50:39.000Z</time>
      </trkpt>
      <trkpt lat="45.90414" lon="5.97119">
        <ele>384.39999389648</ele>
        <time>2025-08-08T11:50:40.000Z</time>
      </trkpt>
      <trkpt lat="45.90414" lon="5.97148">
        <ele>384.79998779297</ele>
        <time>2025-08-08T11:50:44.000Z</time>
      </trkpt>
      <trkpt lat="45.90412" lon="5.97161">
        <ele>384.79998779297</ele>
        <time>2025-08-08T11:50:46.000Z</time>
      </trkpt>
      <trkpt lat="45.9041" lon="5.97167">
        <ele>385</ele>
        <time>2025-08-08T11:50:47.000Z</time>
      </trkpt>
      <trkpt lat="45.90407" lon="5.97178">
        <ele>385.39999389648</ele>
        <time>2025-08-08T11:50:49.000Z</time>
      </trkpt>
      <trkpt lat="45.90402" lon="5.97187">
        <ele>385.79998779297</ele>
        <time>2025-08-08T11:50:51.000Z</time>
      </trkpt>
      <trkpt lat="45.904" lon="5.97192">
        <ele>386</ele>
        <time>2025-08-08T11:50:52.000Z</time>
      </trkpt>
      <trkpt lat="45.90392" lon="5.97208">
        <ele>386.79998779297</ele>
        <time>2025-08-08T11:50:56.000Z</time>
      </trkpt>
      <trkpt lat="45.9039" lon="5.97212">
        <ele>387.20001220703</ele>
        <time>2025-08-08T11:50:57.000Z</time>
      </trkpt>
      <trkpt lat="45.90379" lon="5.97229">
        <ele>388.20001220703</ele>
        <time>2025-08-08T11:51:02.000Z</time>
      </trkpt>
      <trkpt lat="45.90377" lon="5.97233">
        <ele>388.60000610352</ele>
        <time>2025-08-08T11:51:03.000Z</time>
      </trkpt>
      <trkpt lat="45.90369" lon="5.97245">
        <ele>389.39999389648</ele>
        <time>2025-08-08T11:51:07.000Z</time>
      </trkpt>
      <trkpt lat="45.90366" lon="5.97247">
        <ele>389.79998779297</ele>
        <time>2025-08-08T11:51:08.000Z</time>
      </trkpt>
      <trkpt lat="45.9036" lon="5.97254">
        <ele>390.39999389648</ele>
        <time>2025-08-08T11:51:10.000Z</time>
      </trkpt>
      <trkpt lat="45.9036" lon="5.97259">
        <ele>390.79998779297</ele>
        <time>2025-08-08T11:51:11.000Z</time>
      </trkpt>
      <trkpt lat="45.90361" lon="5.97265">
        <ele>391.39999389648</ele>
        <time>2025-08-08T11:51:12.000Z</time>
      </trkpt>
      <trkpt lat="45.90365" lon="5.97273">
        <ele>392</ele>
        <time>2025-08-08T11:51:14.000Z</time>
      </trkpt>
      <trkpt lat="45.90366" lon="5.97278">
        <ele>392.20001220703</ele>
        <time>2025-08-08T11:51:15.000Z</time>
      </trkpt>
      <trkpt lat="45.90365" lon="5.97286">
        <ele>392.39999389648</ele>
        <time>2025-08-08T11:51:17.000Z</time>
      </trkpt>
      <trkpt lat="45.90365" lon="5.97289">
        <ele>392.60000610352</ele>
        <time>2025-08-08T11:51:18.000Z</time>
      </trkpt>
      <trkpt lat="45.9036" lon="5.97304">
        <ele>393.79998779297</ele>
        <time>2025-08-08T11:51:22.000Z</time>
      </trkpt>
      <trkpt lat="45.90359" lon="5.97307">
        <ele>394.39999389648</ele>
        <time>2025-08-08T11:51:23.000Z</time>
      </trkpt>
      <trkpt lat="45.90357" lon="5.97317">
        <ele>395</ele>
        <time>2025-08-08T11:51:26.000Z</time>
      </trkpt>
      <trkpt lat="45.90353" lon="5.97327">
        <ele>396</ele>
        <time>2025-08-08T11:51:29.000Z</time>
      </trkpt>
      <trkpt lat="45.90352" lon="5.9733">
        <ele>396.39999389648</ele>
        <time>2025-08-08T11:51:30.000Z</time>
      </trkpt>
      <trkpt lat="45.90345" lon="5.97349">
        <ele>397.20001220703</ele>
        <time>2025-08-08T11:51:36.000Z</time>
      </trkpt>
      <trkpt lat="45.90343" lon="5.97359">
        <ele>397.60000610352</ele>
        <time>2025-08-08T11:51:39.000Z</time>
      </trkpt>
      <trkpt lat="45.90341" lon="5.97373">
        <ele>398</ele>
        <time>2025-08-08T11:51:43.000Z</time>
      </trkpt>
      <trkpt lat="45.90341" lon="5.97376">
        <ele>398.20001220703</ele>
        <time>2025-08-08T11:51:44.000Z</time>
      </trkpt>
      <trkpt lat="45.9034" lon="5.97383">
        <ele>398.39999389648</ele>
        <time>2025-08-08T11:51:46.000Z</time>
      </trkpt>
      <trkpt lat="45.90341" lon="5.97397">
        <ele>399.20001220703</ele>
        <time>2025-08-08T11:51:50.000Z</time>
      </trkpt>
      <trkpt lat="45.90342" lon="5.97415">
        <ele>400</ele>
        <time>2025-08-08T11:51:55.000Z</time>
      </trkpt>
      <trkpt lat="45.90343" lon="5.97422">
        <ele>400.20001220703</ele>
        <time>2025-08-08T11:51:57.000Z</time>
      </trkpt>
      <trkpt lat="45.90346" lon="5.97443">
        <ele>401.39999389648</ele>
        <time>2025-08-08T11:52:03.000Z</time>
      </trkpt>
      <trkpt lat="45.90348" lon="5.9746">
        <ele>402</ele>
        <time>2025-08-08T11:52:08.000Z</time>
      </trkpt>
      <trkpt lat="45.90349" lon="5.97467">
        <ele>402.60000610352</ele>
        <time>2025-08-08T11:52:10.000Z</time>
      </trkpt>
      <trkpt lat="45.90351" lon="5.97484">
        <ele>403.39999389648</ele>
        <time>2025-08-08T11:52:15.000Z</time>
      </trkpt>
      <trkpt lat="45.90351" lon="5.97488">
        <ele>403.79998779297</ele>
        <time>2025-08-08T11:52:16.000Z</time>
      </trkpt>
      <trkpt lat="45.90353" lon="5.97515">
        <ele>405</ele>
        <time>2025-08-08T11:52:23.000Z</time>
      </trkpt>
      <trkpt lat="45.90354" lon="5.97523">
        <ele>405.39999389648</ele>
        <time>2025-08-08T11:52:25.000Z</time>
      </trkpt>
      <trkpt lat="45.90353" lon="5.9754">
        <ele>406</ele>
        <time>2025-08-08T11:52:29.000Z</time>
      </trkpt>
      <trkpt lat="45.90353" lon="5.9755">
        <ele>406.39999389648</ele>
        <time>2025-08-08T11:52:32.000Z</time>
      </trkpt>
      <trkpt lat="45.90354" lon="5.97557">
        <ele>406.39999389648</ele>
        <time>2025-08-08T11:52:34.000Z</time>
      </trkpt>
      <trkpt lat="45.90355" lon="5.97574">
        <ele>406.39999389648</ele>
        <time>2025-08-08T11:52:38.000Z</time>
      </trkpt>
      <trkpt lat="45.90356" lon="5.97597">
        <ele>406.39999389648</ele>
        <time>2025-08-08T11:52:42.000Z</time>
      </trkpt>
      <trkpt lat="45.90359" lon="5.97627">
        <ele>405.39999389648</ele>
        <time>2025-08-08T11:52:47.000Z</time>
      </trkpt>
      <trkpt lat="45.9036" lon="5.97632">
        <ele>405.39999389648</ele>
        <time>2025-08-08T11:52:48.000Z</time>
      </trkpt>
      <trkpt lat="45.90362" lon="5.97638">
        <ele>405</ele>
        <time>2025-08-08T11:52:49.000Z</time>
      </trkpt>
      <trkpt lat="45.90367" lon="5.97652">
        <ele>404.60000610352</ele>
        <time>2025-08-08T11:52:51.000Z</time>
      </trkpt>
      <trkpt lat="45.90374" lon="5.97666">
        <ele>404</ele>
        <time>2025-08-08T11:52:53.000Z</time>
      </trkpt>
      <trkpt lat="45.90391" lon="5.97696">
        <ele>402.79998779297</ele>
        <time>2025-08-08T11:52:57.000Z</time>
      </trkpt>
      <trkpt lat="45.90395" lon="5.97704">
        <ele>402.60000610352</ele>
        <time>2025-08-08T11:52:58.000Z</time>
      </trkpt>
      <trkpt lat="45.90405" lon="5.9772">
        <ele>401.79998779297</ele>
        <time>2025-08-08T11:53:00.000Z</time>
      </trkpt>
      <trkpt lat="45.90426" lon="5.97756">
        <ele>400.60000610352</ele>
        <time>2025-08-08T11:53:04.000Z</time>
      </trkpt>
      <trkpt lat="45.90431" lon="5.97766">
        <ele>400.20001220703</ele>
        <time>2025-08-08T11:53:05.000Z</time>
      </trkpt>
      <trkpt lat="45.90443" lon="5.9779">
        <ele>399.39999389648</ele>
        <time>2025-08-08T11:53:07.000Z</time>
      </trkpt>
      <trkpt lat="45.90451" lon="5.97812">
        <ele>399</ele>
        <time>2025-08-08T11:53:09.000Z</time>
      </trkpt>
      <trkpt lat="45.90458" lon="5.97837">
        <ele>398.39999389648</ele>
        <time>2025-08-08T11:53:11.000Z</time>
      </trkpt>
      <trkpt lat="45.90461" lon="5.97852">
        <ele>397.20001220703</ele>
        <time>2025-08-08T11:53:13.000Z</time>
      </trkpt>
      <trkpt lat="45.90471" lon="5.97925">
        <ele>396.39999389648</ele>
        <time>2025-08-08T11:53:18.000Z</time>
      </trkpt>
      <trkpt lat="45.90478" lon="5.97977">
        <ele>396.20001220703</ele>
        <time>2025-08-08T11:53:23.000Z</time>
      </trkpt>
      <trkpt lat="45.9048" lon="5.97993">
        <ele>396.20001220703</ele>
        <time>2025-08-08T11:53:25.000Z</time>
      </trkpt>
      <trkpt lat="45.90484" lon="5.98021">
        <ele>396.20001220703</ele>
        <time>2025-08-08T11:53:28.000Z</time>
      </trkpt>
      <trkpt lat="45.90486" lon="5.98036">
        <ele>396.20001220703</ele>
        <time>2025-08-08T11:53:30.000Z</time>
      </trkpt>
      <trkpt lat="45.90492" lon="5.98077">
        <ele>396.79998779297</ele>
        <time>2025-08-08T11:53:35.000Z</time>
      </trkpt>
      <trkpt lat="45.90493" lon="5.98085">
        <ele>397</ele>
        <time>2025-08-08T11:53:36.000Z</time>
      </trkpt>
      <trkpt lat="45.90495" lon="5.98102">
        <ele>397.20001220703</ele>
        <time>2025-08-08T11:53:38.000Z</time>
      </trkpt>
      <trkpt lat="45.90497" lon="5.98147">
        <ele>397.60000610352</ele>
        <time>2025-08-08T11:53:44.000Z</time>
      </trkpt>
      <trkpt lat="45.90497" lon="5.98184">
        <ele>398.39999389648</ele>
        <time>2025-08-08T11:53:50.000Z</time>
      </trkpt>
      <trkpt lat="45.90493" lon="5.98228">
        <ele>399.20001220703</ele>
        <time>2025-08-08T11:53:55.000Z</time>
      </trkpt>
      <trkpt lat="45.90492" lon="5.98234">
        <ele>399.39999389648</ele>
        <time>2025-08-08T11:53:56.000Z</time>
      </trkpt>
      <trkpt lat="45.90487" lon="5.98286">
        <ele>400.20001220703</ele>
        <time>2025-08-08T11:54:03.000Z</time>
      </trkpt>
      <trkpt lat="45.90487" lon="5.98329">
        <ele>400.20001220703</ele>
        <time>2025-08-08T11:54:08.000Z</time>
      </trkpt>
      <trkpt lat="45.90487" lon="5.98338">
        <ele>400.20001220703</ele>
        <time>2025-08-08T11:54:10.000Z</time>
      </trkpt>
      <trkpt lat="45.90481" lon="5.98409">
        <ele>399.79998779297</ele>
        <time>2025-08-08T11:54:17.000Z</time>
      </trkpt>
      <trkpt lat="45.90474" lon="5.98487">
        <ele>399.60000610352</ele>
        <time>2025-08-08T11:54:25.000Z</time>
      </trkpt>
      <trkpt lat="45.90473" lon="5.98496">
        <ele>399.39999389648</ele>
        <time>2025-08-08T11:54:27.000Z</time>
      </trkpt>
      <trkpt lat="45.90468" lon="5.98553">
        <ele>399.20001220703</ele>
        <time>2025-08-08T11:54:32.000Z</time>
      </trkpt>
      <trkpt lat="45.90466" lon="5.98591">
        <ele>399</ele>
        <time>2025-08-08T11:54:36.000Z</time>
      </trkpt>
      <trkpt lat="45.90459" lon="5.98669">
        <ele>399</ele>
        <time>2025-08-08T11:54:45.000Z</time>
      </trkpt>
      <trkpt lat="45.90453" lon="5.98746">
        <ele>399.39999389648</ele>
        <time>2025-08-08T11:54:54.000Z</time>
      </trkpt>
      <trkpt lat="45.90452" lon="5.98755">
        <ele>399.79998779297</ele>
        <time>2025-08-08T11:54:56.000Z</time>
      </trkpt>
      <trkpt lat="45.90448" lon="5.98816">
        <ele>400.20001220703</ele>
        <time>2025-08-08T11:55:03.000Z</time>
      </trkpt>
      <trkpt lat="45.9045" lon="5.9885">
        <ele>400.60000610352</ele>
        <time>2025-08-08T11:55:08.000Z</time>
      </trkpt>
      <trkpt lat="45.9045" lon="5.98855">
        <ele>400.79998779297</ele>
        <time>2025-08-08T11:55:09.000Z</time>
      </trkpt>
      <trkpt lat="45.90454" lon="5.98914">
        <ele>401.79998779297</ele>
        <time>2025-08-08T11:55:19.000Z</time>
      </trkpt>
      <trkpt lat="45.90455" lon="5.9892">
        <ele>401.79998779297</ele>
        <time>2025-08-08T11:55:21.000Z</time>
      </trkpt>
      <trkpt lat="45.90462" lon="5.98959">
        <ele>402.39999389648</ele>
        <time>2025-08-08T11:55:27.000Z</time>
      </trkpt>
      <trkpt lat="45.90465" lon="5.98971">
        <ele>402.60000610352</ele>
        <time>2025-08-08T11:55:29.000Z</time>
      </trkpt>
      <trkpt lat="45.90469" lon="5.98981">
        <ele>402.79998779297</ele>
        <time>2025-08-08T11:55:31.000Z</time>
      </trkpt>
      <trkpt lat="45.90471" lon="5.98987">
        <ele>402.79998779297</ele>
        <time>2025-08-08T11:55:32.000Z</time>
      </trkpt>
      <trkpt lat="45.90478" lon="5.99002">
        <ele>403.39999389648</ele>
        <time>2025-08-08T11:55:36.000Z</time>
      </trkpt>
      <trkpt lat="45.90483" lon="5.99012">
        <ele>403.39999389648</ele>
        <time>2025-08-08T11:55:37.000Z</time>
      </trkpt>
      <trkpt lat="45.90494" lon="5.9903">
        <ele>404</ele>
        <time>2025-08-08T11:55:41.000Z</time>
      </trkpt>
      <trkpt lat="45.90501" lon="5.99039">
        <ele>404.20001220703</ele>
        <time>2025-08-08T11:55:43.000Z</time>
      </trkpt>
      <trkpt lat="45.90513" lon="5.99055">
        <ele>405</ele>
        <time>2025-08-08T11:55:47.000Z</time>
      </trkpt>
      <trkpt lat="45.90522" lon="5.99068">
        <ele>405.39999389648</ele>
        <time>2025-08-08T11:55:50.000Z</time>
      </trkpt>
      <trkpt lat="45.90534" lon="5.99083">
        <ele>406</ele>
        <time>2025-08-08T11:55:55.000Z</time>
      </trkpt>
      <trkpt lat="45.90542" lon="5.99093">
        <ele>406.20001220703</ele>
        <time>2025-08-08T11:55:58.000Z</time>
      </trkpt>
      <trkpt lat="45.90565" lon="5.9912">
        <ele>407.20001220703</ele>
        <time>2025-08-08T11:56:05.000Z</time>
      </trkpt>
      <trkpt lat="45.90567" lon="5.99124">
        <ele>407.39999389648</ele>
        <time>2025-08-08T11:56:06.000Z</time>
      </trkpt>
      <trkpt lat="45.90585" lon="5.99149">
        <ele>408.39999389648</ele>
        <time>2025-08-08T11:56:13.000Z</time>
      </trkpt>
      <trkpt lat="45.90591" lon="5.99156">
        <ele>408.79998779297</ele>
        <time>2025-08-08T11:56:15.000Z</time>
      </trkpt>
      <trkpt lat="45.906" lon="5.9917">
        <ele>409.39999389648</ele>
        <time>2025-08-08T11:56:20.000Z</time>
      </trkpt>
      <trkpt lat="45.90615" lon="5.99193">
        <ele>409.79998779297</ele>
        <time>2025-08-08T11:56:25.000Z</time>
      </trkpt>
      <trkpt lat="45.90624" lon="5.99212">
        <ele>410.39999389648</ele>
        <time>2025-08-08T11:56:29.000Z</time>
      </trkpt>
      <trkpt lat="45.90626" lon="5.99222">
        <ele>411</ele>
        <time>2025-08-08T11:56:32.000Z</time>
      </trkpt>
      <trkpt lat="45.90628" lon="5.99252">
        <ele>411.39999389648</ele>
        <time>2025-08-08T11:56:37.000Z</time>
      </trkpt>
      <trkpt lat="45.90625" lon="5.99293">
        <ele>411.39999389648</ele>
        <time>2025-08-08T11:56:43.000Z</time>
      </trkpt>
      <trkpt lat="45.90623" lon="5.99323">
        <ele>411.60000610352</ele>
        <time>2025-08-08T11:56:46.000Z</time>
      </trkpt>
      <trkpt lat="45.90626" lon="5.99389">
        <ele>411.79998779297</ele>
        <time>2025-08-08T11:56:55.000Z</time>
      </trkpt>
      <trkpt lat="45.90637" lon="5.99466">
        <ele>412.20001220703</ele>
        <time>2025-08-08T11:57:05.000Z</time>
      </trkpt>
      <trkpt lat="45.90644" lon="5.99526">
        <ele>412.79998779297</ele>
        <time>2025-08-08T11:57:13.000Z</time>
      </trkpt>
      <trkpt lat="45.90647" lon="5.99548">
        <ele>413</ele>
        <time>2025-08-08T11:57:16.000Z</time>
      </trkpt>
      <trkpt lat="45.90657" lon="5.99609">
        <ele>413.79998779297</ele>
        <time>2025-08-08T11:57:25.000Z</time>
      </trkpt>
      <trkpt lat="45.90668" lon="5.99643">
        <ele>414.79998779297</ele>
        <time>2025-08-08T11:57:31.000Z</time>
      </trkpt>
      <trkpt lat="45.9067" lon="5.99648">
        <ele>415</ele>
        <time>2025-08-08T11:57:32.000Z</time>
      </trkpt>
      <trkpt lat="45.90685" lon="5.99684">
        <ele>416</ele>
        <time>2025-08-08T11:57:39.000Z</time>
      </trkpt>
      <trkpt lat="45.90691" lon="5.99699">
        <ele>416.60000610352</ele>
        <time>2025-08-08T11:57:42.000Z</time>
      </trkpt>
      <trkpt lat="45.90698" lon="5.99719">
        <ele>417.20001220703</ele>
        <time>2025-08-08T11:57:46.000Z</time>
      </trkpt>
      <trkpt lat="45.90703" lon="5.99733">
        <ele>418.20001220703</ele>
        <time>2025-08-08T11:57:49.000Z</time>
      </trkpt>
      <trkpt lat="45.90704" lon="5.99738">
        <ele>418.39999389648</ele>
        <time>2025-08-08T11:57:50.000Z</time>
      </trkpt>
      <trkpt lat="45.90711" lon="5.99763">
        <ele>419.20001220703</ele>
        <time>2025-08-08T11:57:55.000Z</time>
      </trkpt>
      <trkpt lat="45.90715" lon="5.99779">
        <ele>419.39999389648</ele>
        <time>2025-08-08T11:57:58.000Z</time>
      </trkpt>
      <trkpt lat="45.90722" lon="5.99811">
        <ele>420.20001220703</ele>
        <time>2025-08-08T11:58:04.000Z</time>
      </trkpt>
      <trkpt lat="45.90727" lon="5.99827">
        <ele>420.39999389648</ele>
        <time>2025-08-08T11:58:07.000Z</time>
      </trkpt>
      <trkpt lat="45.90736" lon="5.99854">
        <ele>421</ele>
        <time>2025-08-08T11:58:12.000Z</time>
      </trkpt>
      <trkpt lat="45.90744" lon="5.99881">
        <ele>421.60000610352</ele>
        <time>2025-08-08T11:58:17.000Z</time>
      </trkpt>
      <trkpt lat="45.90753" lon="5.99908">
        <ele>421.79998779297</ele>
        <time>2025-08-08T11:58:22.000Z</time>
      </trkpt>
      <trkpt lat="45.90766" lon="5.99945">
        <ele>422.39999389648</ele>
        <time>2025-08-08T11:58:29.000Z</time>
      </trkpt>
      <trkpt lat="45.90768" lon="5.99949">
        <ele>422.60000610352</ele>
        <time>2025-08-08T11:58:30.000Z</time>
      </trkpt>
      <trkpt lat="45.90771" lon="5.99954">
        <ele>422.79998779297</ele>
        <time>2025-08-08T11:58:31.000Z</time>
      </trkpt>
      <trkpt lat="45.90787" lon="5.99975">
        <ele>423.39999389648</ele>
        <time>2025-08-08T11:58:37.000Z</time>
      </trkpt>
      <trkpt lat="45.90801" lon="5.99989">
        <ele>424.39999389648</ele>
        <time>2025-08-08T11:58:42.000Z</time>
      </trkpt>
      <trkpt lat="45.90809" lon="5.99996">
        <ele>425.20001220703</ele>
        <time>2025-08-08T11:58:45.000Z</time>
      </trkpt>
      <trkpt lat="45.90811" lon="5.99999">
        <ele>425.60000610352</ele>
        <time>2025-08-08T11:58:46.000Z</time>
      </trkpt>
      <trkpt lat="45.90824" lon="6.00011">
        <ele>427.20001220703</ele>
        <time>2025-08-08T11:58:51.000Z</time>
      </trkpt>
      <trkpt lat="45.90829" lon="6.00016">
        <ele>427.79998779297</ele>
        <time>2025-08-08T11:58:53.000Z</time>
      </trkpt>
      <trkpt lat="45.90834" lon="6.00022">
        <ele>428.20001220703</ele>
        <time>2025-08-08T11:58:55.000Z</time>
      </trkpt>
      <trkpt lat="45.90841" lon="6.00038">
        <ele>428.60000610352</ele>
        <time>2025-08-08T11:58:59.000Z</time>
      </trkpt>
      <trkpt lat="45.90842" lon="6.00057">
        <ele>429.20001220703</ele>
        <time>2025-08-08T11:59:03.000Z</time>
      </trkpt>
      <trkpt lat="45.90842" lon="6.00061">
        <ele>429.20001220703</ele>
        <time>2025-08-08T11:59:04.000Z</time>
      </trkpt>
      <trkpt lat="45.90835" lon="6.00095">
        <ele>430</ele>
        <time>2025-08-08T11:59:11.000Z</time>
      </trkpt>
      <trkpt lat="45.90835" lon="6.001">
        <ele>430</ele>
        <time>2025-08-08T11:59:12.000Z</time>
      </trkpt>
      <trkpt lat="45.9084" lon="6.00129">
        <ele>430.39999389648</ele>
        <time>2025-08-08T11:59:18.000Z</time>
      </trkpt>
      <trkpt lat="45.90846" lon="6.00141">
        <ele>431</ele>
        <time>2025-08-08T11:59:22.000Z</time>
      </trkpt>
      <trkpt lat="45.90849" lon="6.00143">
        <ele>431.20001220703</ele>
        <time>2025-08-08T11:59:23.000Z</time>
      </trkpt>
      <trkpt lat="45.90857" lon="6.00147">
        <ele>432.39999389648</ele>
        <time>2025-08-08T11:59:26.000Z</time>
      </trkpt>
      <trkpt lat="45.90867" lon="6.00151">
        <ele>433.39999389648</ele>
        <time>2025-08-08T11:59:30.000Z</time>
      </trkpt>
      <trkpt lat="45.90869" lon="6.00151">
        <ele>433.60000610352</ele>
        <time>2025-08-08T11:59:31.000Z</time>
      </trkpt>
      <trkpt lat="45.90878" lon="6.00155">
        <ele>434.60000610352</ele>
        <time>2025-08-08T11:59:35.000Z</time>
      </trkpt>
      <trkpt lat="45.90882" lon="6.00156">
        <ele>434.79998779297</ele>
        <time>2025-08-08T11:59:37.000Z</time>
      </trkpt>
      <trkpt lat="45.90895" lon="6.00161">
        <ele>435.39999389648</ele>
        <time>2025-08-08T11:59:43.000Z</time>
      </trkpt>
      <trkpt lat="45.90906" lon="6.00162">
        <ele>436.60000610352</ele>
        <time>2025-08-08T11:59:47.000Z</time>
      </trkpt>
      <trkpt lat="45.90918" lon="6.00165">
        <ele>437.79998779297</ele>
        <time>2025-08-08T11:59:52.000Z</time>
      </trkpt>
      <trkpt lat="45.90932" lon="6.00166">
        <ele>438.79998779297</ele>
        <time>2025-08-08T11:59:58.000Z</time>
      </trkpt>
      <trkpt lat="45.90935" lon="6.00167">
        <ele>439</ele>
        <time>2025-08-08T11:59:59.000Z</time>
      </trkpt>
      <trkpt lat="45.9095" lon="6.00174">
        <ele>440</ele>
        <time>2025-08-08T12:00:06.000Z</time>
      </trkpt>
      <trkpt lat="45.90952" lon="6.00175">
        <ele>440</ele>
        <time>2025-08-08T12:00:07.000Z</time>
      </trkpt>
      <trkpt lat="45.90963" lon="6.00183">
        <ele>441</ele>
        <time>2025-08-08T12:00:12.000Z</time>
      </trkpt>
      <trkpt lat="45.90965" lon="6.00184">
        <ele>441.20001220703</ele>
        <time>2025-08-08T12:00:13.000Z</time>
      </trkpt>
      <trkpt lat="45.90973" lon="6.00192">
        <ele>441.79998779297</ele>
        <time>2025-08-08T12:00:17.000Z</time>
      </trkpt>
      <trkpt lat="45.90978" lon="6.002">
        <ele>442.39999389648</ele>
        <time>2025-08-08T12:00:20.000Z</time>
      </trkpt>
      <trkpt lat="45.90981" lon="6.00204">
        <ele>442.79998779297</ele>
        <time>2025-08-08T12:00:22.000Z</time>
      </trkpt>
      <trkpt lat="45.90988" lon="6.00211">
        <ele>444</ele>
        <time>2025-08-08T12:00:26.000Z</time>
      </trkpt>
      <trkpt lat="45.90996" lon="6.0022">
        <ele>445</ele>
        <time>2025-08-08T12:00:30.000Z</time>
      </trkpt>
      <trkpt lat="45.91" lon="6.00224">
        <ele>445.39999389648</ele>
        <time>2025-08-08T12:00:32.000Z</time>
      </trkpt>
      <trkpt lat="45.91006" lon="6.0023">
        <ele>446.20001220703</ele>
        <time>2025-08-08T12:00:35.000Z</time>
      </trkpt>
      <trkpt lat="45.91016" lon="6.00242">
        <ele>447.20001220703</ele>
        <time>2025-08-08T12:00:41.000Z</time>
      </trkpt>
      <trkpt lat="45.91018" lon="6.00245">
        <ele>447.20001220703</ele>
        <time>2025-08-08T12:00:42.000Z</time>
      </trkpt>
      <trkpt lat="45.91029" lon="6.00256">
        <ele>448.20001220703</ele>
        <time>2025-08-08T12:00:47.000Z</time>
      </trkpt>
      <trkpt lat="45.91031" lon="6.0026">
        <ele>448.60000610352</ele>
        <time>2025-08-08T12:00:48.000Z</time>
      </trkpt>
      <trkpt lat="45.91042" lon="6.00274">
        <ele>449.60000610352</ele>
        <time>2025-08-08T12:00:54.000Z</time>
      </trkpt>
      <trkpt lat="45.91044" lon="6.00277">
        <ele>449.79998779297</ele>
        <time>2025-08-08T12:00:55.000Z</time>
      </trkpt>
      <trkpt lat="45.9105" lon="6.00289">
        <ele>450.20001220703</ele>
        <time>2025-08-08T12:00:59.000Z</time>
      </trkpt>
      <trkpt lat="45.91052" lon="6.00295">
        <ele>450.39999389648</ele>
        <time>2025-08-08T12:01:01.000Z</time>
      </trkpt>
      <trkpt lat="45.91054" lon="6.00301">
        <ele>450.79998779297</ele>
        <time>2025-08-08T12:01:03.000Z</time>
      </trkpt>
      <trkpt lat="45.91062" lon="6.00324">
        <ele>451.79998779297</ele>
        <time>2025-08-08T12:01:10.000Z</time>
      </trkpt>
      <trkpt lat="45.91068" lon="6.00339">
        <ele>453</ele>
        <time>2025-08-08T12:01:15.000Z</time>
      </trkpt>
      <trkpt lat="45.9108" lon="6.00363">
        <ele>454</ele>
        <time>2025-08-08T12:01:23.000Z</time>
      </trkpt>
      <trkpt lat="45.91081" lon="6.00366">
        <ele>454.20001220703</ele>
        <time>2025-08-08T12:01:24.000Z</time>
      </trkpt>
      <trkpt lat="45.91086" lon="6.00387">
        <ele>455.20001220703</ele>
        <time>2025-08-08T12:01:30.000Z</time>
      </trkpt>
      <trkpt lat="45.91086" lon="6.0039">
        <ele>455.20001220703</ele>
        <time>2025-08-08T12:01:31.000Z</time>
      </trkpt>
      <trkpt lat="45.91083" lon="6.00397">
        <ele>456.20001220703</ele>
        <time>2025-08-08T12:01:34.000Z</time>
      </trkpt>
      <trkpt lat="45.91079" lon="6.00402">
        <ele>456.60000610352</ele>
        <time>2025-08-08T12:01:36.000Z</time>
      </trkpt>
      <trkpt lat="45.91072" lon="6.00403">
        <ele>457.39999389648</ele>
        <time>2025-08-08T12:01:39.000Z</time>
      </trkpt>
      <trkpt lat="45.9107" lon="6.00402">
        <ele>457.39999389648</ele>
        <time>2025-08-08T12:01:40.000Z</time>
      </trkpt>
      <trkpt lat="45.91063" lon="6.00396">
        <ele>458.60000610352</ele>
        <time>2025-08-08T12:01:43.000Z</time>
      </trkpt>
      <trkpt lat="45.91057" lon="6.00385">
        <ele>459.39999389648</ele>
        <time>2025-08-08T12:01:46.000Z</time>
      </trkpt>
      <trkpt lat="45.91056" lon="6.00381">
        <ele>459.60000610352</ele>
        <time>2025-08-08T12:01:47.000Z</time>
      </trkpt>
      <trkpt lat="45.91052" lon="6.00362">
        <ele>460.79998779297</ele>
        <time>2025-08-08T12:01:52.000Z</time>
      </trkpt>
      <trkpt lat="45.91051" lon="6.00358">
        <ele>461</ele>
        <time>2025-08-08T12:01:53.000Z</time>
      </trkpt>
      <trkpt lat="45.91044" lon="6.00335">
        <ele>462</ele>
        <time>2025-08-08T12:01:59.000Z</time>
      </trkpt>
      <trkpt lat="45.91041" lon="6.00332">
        <ele>462</ele>
        <time>2025-08-08T12:02:00.000Z</time>
      </trkpt>
      <trkpt lat="45.91027" lon="6.00324">
        <ele>462.60000610352</ele>
        <time>2025-08-08T12:02:05.000Z</time>
      </trkpt>
      <trkpt lat="45.9102" lon="6.00328">
        <ele>463</ele>
        <time>2025-08-08T12:02:08.000Z</time>
      </trkpt>
      <trkpt lat="45.91016" lon="6.00332">
        <ele>463.20001220703</ele>
        <time>2025-08-08T12:02:10.000Z</time>
      </trkpt>
      <trkpt lat="45.91011" lon="6.00349">
        <ele>464.20001220703</ele>
        <time>2025-08-08T12:02:15.000Z</time>
      </trkpt>
      <trkpt lat="45.91016" lon="6.00372">
        <ele>465.39999389648</ele>
        <time>2025-08-08T12:02:21.000Z</time>
      </trkpt>
      <trkpt lat="45.91017" lon="6.00376">
        <ele>465.60000610352</ele>
        <time>2025-08-08T12:02:22.000Z</time>
      </trkpt>
      <trkpt lat="45.91029" lon="6.00402">
        <ele>466.20001220703</ele>
        <time>2025-08-08T12:02:29.000Z</time>
      </trkpt>
      <trkpt lat="45.91034" lon="6.00413">
        <ele>466.39999389648</ele>
        <time>2025-08-08T12:02:32.000Z</time>
      </trkpt>
      <trkpt lat="45.91042" lon="6.00427">
        <ele>467.20001220703</ele>
        <time>2025-08-08T12:02:36.000Z</time>
      </trkpt>
      <trkpt lat="45.91043" lon="6.0043">
        <ele>467.60000610352</ele>
        <time>2025-08-08T12:02:37.000Z</time>
      </trkpt>
      <trkpt lat="45.91054" lon="6.00454">
        <ele>468.20001220703</ele>
        <time>2025-08-08T12:02:44.000Z</time>
      </trkpt>
      <trkpt lat="45.91058" lon="6.00461">
        <ele>468.39999389648</ele>
        <time>2025-08-08T12:02:46.000Z</time>
      </trkpt>
      <trkpt lat="45.91061" lon="6.00467">
        <ele>468.79998779297</ele>
        <time>2025-08-08T12:02:48.000Z</time>
      </trkpt>
      <trkpt lat="45.91068" lon="6.00478">
        <ele>470.20001220703</ele>
        <time>2025-08-08T12:02:52.000Z</time>
      </trkpt>
      <trkpt lat="45.91074" lon="6.00485">
        <ele>471</ele>
        <time>2025-08-08T12:02:55.000Z</time>
      </trkpt>
      <trkpt lat="45.9108" lon="6.00487">
        <ele>471.60000610352</ele>
        <time>2025-08-08T12:02:57.000Z</time>
      </trkpt>
      <trkpt lat="45.91088" lon="6.00487">
        <ele>472.20001220703</ele>
        <time>2025-08-08T12:03:00.000Z</time>
      </trkpt>
      <trkpt lat="45.91091" lon="6.00486">
        <ele>472.79998779297</ele>
        <time>2025-08-08T12:03:01.000Z</time>
      </trkpt>
      <trkpt lat="45.91103" lon="6.00476">
        <ele>474</ele>
        <time>2025-08-08T12:03:06.000Z</time>
      </trkpt>
      <trkpt lat="45.91105" lon="6.00473">
        <ele>474.20001220703</ele>
        <time>2025-08-08T12:03:07.000Z</time>
      </trkpt>
      <trkpt lat="45.91121" lon="6.00455">
        <ele>475</ele>
        <time>2025-08-08T12:03:14.000Z</time>
      </trkpt>
      <trkpt lat="45.91136" lon="6.00454">
        <ele>476</ele>
        <time>2025-08-08T12:03:19.000Z</time>
      </trkpt>
      <trkpt lat="45.91139" lon="6.00456">
        <ele>476.20001220703</ele>
        <time>2025-08-08T12:03:20.000Z</time>
      </trkpt>
      <trkpt lat="45.91148" lon="6.00464">
        <ele>477.39999389648</ele>
        <time>2025-08-08T12:03:24.000Z</time>
      </trkpt>
      <trkpt lat="45.9115" lon="6.00467">
        <ele>477.60000610352</ele>
        <time>2025-08-08T12:03:25.000Z</time>
      </trkpt>
      <trkpt lat="45.91157" lon="6.00479">
        <ele>478.60000610352</ele>
        <time>2025-08-08T12:03:29.000Z</time>
      </trkpt>
      <trkpt lat="45.91165" lon="6.00491">
        <ele>479.39999389648</ele>
        <time>2025-08-08T12:03:33.000Z</time>
      </trkpt>
      <trkpt lat="45.91167" lon="6.00493">
        <ele>479.60000610352</ele>
        <time>2025-08-08T12:03:34.000Z</time>
      </trkpt>
      <trkpt lat="45.91179" lon="6.00509">
        <ele>480.60000610352</ele>
        <time>2025-08-08T12:03:40.000Z</time>
      </trkpt>
      <trkpt lat="45.91184" lon="6.00519">
        <ele>481.39999389648</ele>
        <time>2025-08-08T12:03:43.000Z</time>
      </trkpt>
      <trkpt lat="45.91187" lon="6.00525">
        <ele>481.79998779297</ele>
        <time>2025-08-08T12:03:45.000Z</time>
      </trkpt>
      <trkpt lat="45.91195" lon="6.00542">
        <ele>482.79998779297</ele>
        <time>2025-08-08T12:03:50.000Z</time>
      </trkpt>
      <trkpt lat="45.91197" lon="6.00546">
        <ele>483</ele>
        <time>2025-08-08T12:03:51.000Z</time>
      </trkpt>
      <trkpt lat="45.91205" lon="6.00572">
        <ele>484</ele>
        <time>2025-08-08T12:03:58.000Z</time>
      </trkpt>
      <trkpt lat="45.91206" lon="6.00576">
        <ele>484.20001220703</ele>
        <time>2025-08-08T12:03:59.000Z</time>
      </trkpt>
      <trkpt lat="45.91212" lon="6.00599">
        <ele>485.20001220703</ele>
        <time>2025-08-08T12:04:05.000Z</time>
      </trkpt>
      <trkpt lat="45.91218" lon="6.00624">
        <ele>486.39999389648</ele>
        <time>2025-08-08T12:04:11.000Z</time>
      </trkpt>
      <trkpt lat="45.91228" lon="6.00664">
        <ele>487.39999389648</ele>
        <time>2025-08-08T12:04:20.000Z</time>
      </trkpt>
      <trkpt lat="45.91229" lon="6.00669">
        <ele>487.39999389648</ele>
        <time>2025-08-08T12:04:21.000Z</time>
      </trkpt>
      <trkpt lat="45.9124" lon="6.00713">
        <ele>488.60000610352</ele>
        <time>2025-08-08T12:04:31.000Z</time>
      </trkpt>
      <trkpt lat="45.91242" lon="6.00721">
        <ele>488.79998779297</ele>
        <time>2025-08-08T12:04:33.000Z</time>
      </trkpt>
      <trkpt lat="45.91249" lon="6.00737">
        <ele>489.60000610352</ele>
        <time>2025-08-08T12:04:37.000Z</time>
      </trkpt>
      <trkpt lat="45.91252" lon="6.00744">
        <ele>490</ele>
        <time>2025-08-08T12:04:39.000Z</time>
      </trkpt>
      <trkpt lat="45.91258" lon="6.00755">
        <ele>490.60000610352</ele>
        <time>2025-08-08T12:04:42.000Z</time>
      </trkpt>
      <trkpt lat="45.91261" lon="6.00758">
        <ele>490.79998779297</ele>
        <time>2025-08-08T12:04:43.000Z</time>
      </trkpt>
      <trkpt lat="45.91271" lon="6.00771">
        <ele>491.79998779297</ele>
        <time>2025-08-08T12:04:48.000Z</time>
      </trkpt>
      <trkpt lat="45.91275" lon="6.00777">
        <ele>492.39999389648</ele>
        <time>2025-08-08T12:04:50.000Z</time>
      </trkpt>
      <trkpt lat="45.91282" lon="6.00786">
        <ele>493.20001220703</ele>
        <time>2025-08-08T12:04:53.000Z</time>
      </trkpt>
      <trkpt lat="45.91291" lon="6.00796">
        <ele>494.39999389648</ele>
        <time>2025-08-08T12:04:57.000Z</time>
      </trkpt>
      <trkpt lat="45.91295" lon="6.008">
        <ele>494.79998779297</ele>
        <time>2025-08-08T12:04:59.000Z</time>
      </trkpt>
      <trkpt lat="45.91302" lon="6.00807">
        <ele>495.39999389648</ele>
        <time>2025-08-08T12:05:02.000Z</time>
      </trkpt>
      <trkpt lat="45.91313" lon="6.00823">
        <ele>496.39999389648</ele>
        <time>2025-08-08T12:05:07.000Z</time>
      </trkpt>
      <trkpt lat="45.91315" lon="6.00826">
        <ele>497</ele>
        <time>2025-08-08T12:05:08.000Z</time>
      </trkpt>
      <trkpt lat="45.9132" lon="6.00831">
        <ele>497.60000610352</ele>
        <time>2025-08-08T12:05:10.000Z</time>
      </trkpt>
      <trkpt lat="45.91333" lon="6.00844">
        <ele>498.79998779297</ele>
        <time>2025-08-08T12:05:15.000Z</time>
      </trkpt>
      <trkpt lat="45.91341" lon="6.00851">
        <ele>499.39999389648</ele>
        <time>2025-08-08T12:05:18.000Z</time>
      </trkpt>
      <trkpt lat="45.91345" lon="6.00858">
        <ele>500</ele>
        <time>2025-08-08T12:05:20.000Z</time>
      </trkpt>
      <trkpt lat="45.91359" lon="6.00872">
        <ele>501.20001220703</ele>
        <time>2025-08-08T12:05:25.000Z</time>
      </trkpt>
      <trkpt lat="45.91361" lon="6.00875">
        <ele>501.39999389648</ele>
        <time>2025-08-08T12:05:26.000Z</time>
      </trkpt>
      <trkpt lat="45.91368" lon="6.00883">
        <ele>502</ele>
        <time>2025-08-08T12:05:29.000Z</time>
      </trkpt>
      <trkpt lat="45.91379" lon="6.00897">
        <ele>503.20001220703</ele>
        <time>2025-08-08T12:05:34.000Z</time>
      </trkpt>
      <trkpt lat="45.91384" lon="6.00902">
        <ele>503.39999389648</ele>
        <time>2025-08-08T12:05:36.000Z</time>
      </trkpt>
      <trkpt lat="45.91399" lon="6.00919">
        <ele>504.20001220703</ele>
        <time>2025-08-08T12:05:42.000Z</time>
      </trkpt>
      <trkpt lat="45.91414" lon="6.00935">
        <ele>505</ele>
        <time>2025-08-08T12:05:48.000Z</time>
      </trkpt>
      <trkpt lat="45.91417" lon="6.00938">
        <ele>505</ele>
        <time>2025-08-08T12:05:49.000Z</time>
      </trkpt>
      <trkpt lat="45.91435" lon="6.00953">
        <ele>506</ele>
        <time>2025-08-08T12:05:55.000Z</time>
      </trkpt>
      <trkpt lat="45.9145" lon="6.00964">
        <ele>506.60000610352</ele>
        <time>2025-08-08T12:06:00.000Z</time>
      </trkpt>
      <trkpt lat="45.9146" lon="6.00968">
        <ele>507.20001220703</ele>
        <time>2025-08-08T12:06:03.000Z</time>
      </trkpt>
      <trkpt lat="45.9147" lon="6.00972">
        <ele>507.39999389648</ele>
        <time>2025-08-08T12:06:06.000Z</time>
      </trkpt>
      <trkpt lat="45.91491" lon="6.00979">
        <ele>508.20001220703</ele>
        <time>2025-08-08T12:06:12.000Z</time>
      </trkpt>
      <trkpt lat="45.91505" lon="6.00984">
        <ele>508.20001220703</ele>
        <time>2025-08-08T12:06:16.000Z</time>
      </trkpt>
      <trkpt lat="45.91535" lon="6.00993">
        <ele>508.20001220703</ele>
        <time>2025-08-08T12:06:24.000Z</time>
      </trkpt>
      <trkpt lat="45.91567" lon="6.01001">
        <ele>508.39999389648</ele>
        <time>2025-08-08T12:06:33.000Z</time>
      </trkpt>
      <trkpt lat="45.91598" lon="6.0101">
        <ele>509</ele>
        <time>2025-08-08T12:06:41.000Z</time>
      </trkpt>
      <trkpt lat="45.91626" lon="6.01018">
        <ele>509.20001220703</ele>
        <time>2025-08-08T12:06:48.000Z</time>
      </trkpt>
      <trkpt lat="45.91655" lon="6.01022">
        <ele>508.79998779297</ele>
        <time>2025-08-08T12:06:54.000Z</time>
      </trkpt>
      <trkpt lat="45.91693" lon="6.01012">
        <ele>508</ele>
        <time>2025-08-08T12:07:01.000Z</time>
      </trkpt>
      <trkpt lat="45.91717" lon="6.00997">
        <ele>507</ele>
        <time>2025-08-08T12:07:05.000Z</time>
      </trkpt>
      <trkpt lat="45.91723" lon="6.00993">
        <ele>506.60000610352</ele>
        <time>2025-08-08T12:07:06.000Z</time>
      </trkpt>
      <trkpt lat="45.91735" lon="6.00983">
        <ele>506</ele>
        <time>2025-08-08T12:07:08.000Z</time>
      </trkpt>
      <trkpt lat="45.91756" lon="6.0097">
        <ele>505</ele>
        <time>2025-08-08T12:07:11.000Z</time>
      </trkpt>
      <trkpt lat="45.91764" lon="6.00967">
        <ele>504.60000610352</ele>
        <time>2025-08-08T12:07:12.000Z</time>
      </trkpt>
      <trkpt lat="45.91788" lon="6.00962">
        <ele>503.60000610352</ele>
        <time>2025-08-08T12:07:15.000Z</time>
      </trkpt>
      <trkpt lat="45.91796" lon="6.00962">
        <ele>503.39999389648</ele>
        <time>2025-08-08T12:07:16.000Z</time>
      </trkpt>
      <trkpt lat="45.91814" lon="6.00961">
        <ele>502.39999389648</ele>
        <time>2025-08-08T12:07:18.000Z</time>
      </trkpt>
      <trkpt lat="45.9184" lon="6.0096">
        <ele>501</ele>
        <time>2025-08-08T12:07:21.000Z</time>
      </trkpt>
      <trkpt lat="45.91867" lon="6.00959">
        <ele>500</ele>
        <time>2025-08-08T12:07:24.000Z</time>
      </trkpt>
      <trkpt lat="45.91876" lon="6.00959">
        <ele>499.60000610352</ele>
        <time>2025-08-08T12:07:25.000Z</time>
      </trkpt>
      <trkpt lat="45.91885" lon="6.00961">
        <ele>499.20001220703</ele>
        <time>2025-08-08T12:07:26.000Z</time>
      </trkpt>
      <trkpt lat="45.91894" lon="6.00964">
        <ele>499</ele>
        <time>2025-08-08T12:07:27.000Z</time>
      </trkpt>
      <trkpt lat="45.9191" lon="6.00976">
        <ele>498.20001220703</ele>
        <time>2025-08-08T12:07:29.000Z</time>
      </trkpt>
      <trkpt lat="45.91924" lon="6.00991">
        <ele>497.79998779297</ele>
        <time>2025-08-08T12:07:31.000Z</time>
      </trkpt>
      <trkpt lat="45.91929" lon="6.01">
        <ele>497.39999389648</ele>
        <time>2025-08-08T12:07:32.000Z</time>
      </trkpt>
      <trkpt lat="45.91933" lon="6.01008">
        <ele>497.20001220703</ele>
        <time>2025-08-08T12:07:33.000Z</time>
      </trkpt>
      <trkpt lat="45.91939" lon="6.01026">
        <ele>497</ele>
        <time>2025-08-08T12:07:35.000Z</time>
      </trkpt>
      <trkpt lat="45.91942" lon="6.01034">
        <ele>496.79998779297</ele>
        <time>2025-08-08T12:07:36.000Z</time>
      </trkpt>
      <trkpt lat="45.91945" lon="6.0106">
        <ele>496.79998779297</ele>
        <time>2025-08-08T12:07:39.000Z</time>
      </trkpt>
      <trkpt lat="45.91947" lon="6.01085">
        <ele>496.79998779297</ele>
        <time>2025-08-08T12:07:42.000Z</time>
      </trkpt>
      <trkpt lat="45.91953" lon="6.01161">
        <ele>496.79998779297</ele>
        <time>2025-08-08T12:07:51.000Z</time>
      </trkpt>
      <trkpt lat="45.91956" lon="6.01178">
        <ele>496.79998779297</ele>
        <time>2025-08-08T12:07:53.000Z</time>
      </trkpt>
      <trkpt lat="45.91958" lon="6.01186">
        <ele>496.79998779297</ele>
        <time>2025-08-08T12:07:54.000Z</time>
      </trkpt>
      <trkpt lat="45.91963" lon="6.01201">
        <ele>496.79998779297</ele>
        <time>2025-08-08T12:07:56.000Z</time>
      </trkpt>
      <trkpt lat="45.91966" lon="6.01208">
        <ele>496.79998779297</ele>
        <time>2025-08-08T12:07:57.000Z</time>
      </trkpt>
      <trkpt lat="45.91975" lon="6.0122">
        <ele>496.79998779297</ele>
        <time>2025-08-08T12:07:59.000Z</time>
      </trkpt>
      <trkpt lat="45.91979" lon="6.01225">
        <ele>496.79998779297</ele>
        <time>2025-08-08T12:08:00.000Z</time>
      </trkpt>
      <trkpt lat="45.92001" lon="6.01245">
        <ele>497</ele>
        <time>2025-08-08T12:08:04.000Z</time>
      </trkpt>
      <trkpt lat="45.9201" lon="6.01257">
        <ele>497</ele>
        <time>2025-08-08T12:08:06.000Z</time>
      </trkpt>
      <trkpt lat="45.92017" lon="6.01272">
        <ele>497</ele>
        <time>2025-08-08T12:08:08.000Z</time>
      </trkpt>
      <trkpt lat="45.92018" lon="6.01281">
        <ele>497</ele>
        <time>2025-08-08T12:08:09.000Z</time>
      </trkpt>
      <trkpt lat="45.92018" lon="6.0129">
        <ele>497.20001220703</ele>
        <time>2025-08-08T12:08:10.000Z</time>
      </trkpt>
      <trkpt lat="45.92014" lon="6.01307">
        <ele>497.20001220703</ele>
        <time>2025-08-08T12:08:12.000Z</time>
      </trkpt>
      <trkpt lat="45.92007" lon="6.01319">
        <ele>497.20001220703</ele>
        <time>2025-08-08T12:08:14.000Z</time>
      </trkpt>
      <trkpt lat="45.92003" lon="6.01324">
        <ele>497.39999389648</ele>
        <time>2025-08-08T12:08:15.000Z</time>
      </trkpt>
      <trkpt lat="45.91986" lon="6.01344">
        <ele>498</ele>
        <time>2025-08-08T12:08:20.000Z</time>
      </trkpt>
      <trkpt lat="45.9198" lon="6.0135">
        <ele>498.60000610352</ele>
        <time>2025-08-08T12:08:22.000Z</time>
      </trkpt>
      <trkpt lat="45.91974" lon="6.01356">
        <ele>499.20001220703</ele>
        <time>2025-08-08T12:08:24.000Z</time>
      </trkpt>
      <trkpt lat="45.91957" lon="6.01374">
        <ele>500.20001220703</ele>
        <time>2025-08-08T12:08:30.000Z</time>
      </trkpt>
      <trkpt lat="45.91954" lon="6.01377">
        <ele>500.20001220703</ele>
        <time>2025-08-08T12:08:31.000Z</time>
      </trkpt>
      <trkpt lat="45.91939" lon="6.01393">
        <ele>501.39999389648</ele>
        <time>2025-08-08T12:08:37.000Z</time>
      </trkpt>
      <trkpt lat="45.91937" lon="6.01395">
        <ele>501.60000610352</ele>
        <time>2025-08-08T12:08:38.000Z</time>
      </trkpt>
      <trkpt lat="45.91928" lon="6.01405">
        <ele>502.39999389648</ele>
        <time>2025-08-08T12:08:42.000Z</time>
      </trkpt>
      <trkpt lat="45.91921" lon="6.01415">
        <ele>503.39999389648</ele>
        <time>2025-08-08T12:08:46.000Z</time>
      </trkpt>
      <trkpt lat="45.91919" lon="6.01417">
        <ele>503.60000610352</ele>
        <time>2025-08-08T12:08:47.000Z</time>
      </trkpt>
      <trkpt lat="45.91906" lon="6.0143">
        <ele>504.79998779297</ele>
        <time>2025-08-08T12:08:53.000Z</time>
      </trkpt>
      <trkpt lat="45.919" lon="6.01437">
        <ele>504.79998779297</ele>
        <time>2025-08-08T12:08:56.000Z</time>
      </trkpt>
      <trkpt lat="45.91888" lon="6.01451">
        <ele>505.60000610352</ele>
        <time>2025-08-08T12:09:02.000Z</time>
      </trkpt>
      <trkpt lat="45.91881" lon="6.01459">
        <ele>506</ele>
        <time>2025-08-08T12:09:05.000Z</time>
      </trkpt>
      <trkpt lat="45.91871" lon="6.0147">
        <ele>506.60000610352</ele>
        <time>2025-08-08T12:09:10.000Z</time>
      </trkpt>
      <trkpt lat="45.91859" lon="6.01487">
        <ele>507.60000610352</ele>
        <time>2025-08-08T12:09:16.000Z</time>
      </trkpt>
      <trkpt lat="45.91852" lon="6.01499">
        <ele>508.60000610352</ele>
        <time>2025-08-08T12:09:20.000Z</time>
      </trkpt>
      <trkpt lat="45.91845" lon="6.01512">
        <ele>509.79998779297</ele>
        <time>2025-08-08T12:09:24.000Z</time>
      </trkpt>
      <trkpt lat="45.91844" lon="6.01515">
        <ele>509.79998779297</ele>
        <time>2025-08-08T12:09:25.000Z</time>
      </trkpt>
      <trkpt lat="45.91835" lon="6.01537">
        <ele>511</ele>
        <time>2025-08-08T12:09:31.000Z</time>
      </trkpt>
      <trkpt lat="45.91831" lon="6.01547">
        <ele>511.60000610352</ele>
        <time>2025-08-08T12:09:34.000Z</time>
      </trkpt>
      <trkpt lat="45.91829" lon="6.01551">
        <ele>512</ele>
        <time>2025-08-08T12:09:35.000Z</time>
      </trkpt>
      <trkpt lat="45.91816" lon="6.01586">
        <ele>512.79998779297</ele>
        <time>2025-08-08T12:09:45.000Z</time>
      </trkpt>
      <trkpt lat="45.91812" lon="6.01596">
        <ele>513</ele>
        <time>2025-08-08T12:09:48.000Z</time>
      </trkpt>
      <trkpt lat="45.91804" lon="6.01613">
        <ele>513.79998779297</ele>
        <time>2025-08-08T12:09:53.000Z</time>
      </trkpt>
      <trkpt lat="45.91801" lon="6.01619">
        <ele>514.20001220703</ele>
        <time>2025-08-08T12:09:55.000Z</time>
      </trkpt>
      <trkpt lat="45.9179" lon="6.01638">
        <ele>515.40002441406</ele>
        <time>2025-08-08T12:10:01.000Z</time>
      </trkpt>
      <trkpt lat="45.91787" lon="6.0164">
        <ele>515.40002441406</ele>
        <time>2025-08-08T12:10:02.000Z</time>
      </trkpt>
      <trkpt lat="45.91773" lon="6.01656">
        <ele>516.40002441406</ele>
        <time>2025-08-08T12:10:08.000Z</time>
      </trkpt>
      <trkpt lat="45.91766" lon="6.01662">
        <ele>517</ele>
        <time>2025-08-08T12:10:11.000Z</time>
      </trkpt>
      <trkpt lat="45.91761" lon="6.01666">
        <ele>517.59997558594</ele>
        <time>2025-08-08T12:10:13.000Z</time>
      </trkpt>
      <trkpt lat="45.91747" lon="6.01673">
        <ele>518.40002441406</ele>
        <time>2025-08-08T12:10:18.000Z</time>
      </trkpt>
      <trkpt lat="45.91741" lon="6.01676">
        <ele>518.59997558594</ele>
        <time>2025-08-08T12:10:20.000Z</time>
      </trkpt>
      <trkpt lat="45.91724" lon="6.01684">
        <ele>519.59997558594</ele>
        <time>2025-08-08T12:10:26.000Z</time>
      </trkpt>
      <trkpt lat="45.91721" lon="6.01685">
        <ele>519.79998779297</ele>
        <time>2025-08-08T12:10:27.000Z</time>
      </trkpt>
      <trkpt lat="45.91719" lon="6.01687">
        <ele>520</ele>
        <time>2025-08-08T12:10:28.000Z</time>
      </trkpt>
      <trkpt lat="45.9171" lon="6.01692">
        <ele>520.79998779297</ele>
        <time>2025-08-08T12:10:31.000Z</time>
      </trkpt>
      <trkpt lat="45.91698" lon="6.01703">
        <ele>521.79998779297</ele>
        <time>2025-08-08T12:10:36.000Z</time>
      </trkpt>
      <trkpt lat="45.91696" lon="6.01705">
        <ele>522</ele>
        <time>2025-08-08T12:10:37.000Z</time>
      </trkpt>
      <trkpt lat="45.91677" lon="6.0173">
        <ele>522.79998779297</ele>
        <time>2025-08-08T12:10:45.000Z</time>
      </trkpt>
      <trkpt lat="45.91673" lon="6.01737">
        <ele>523</ele>
        <time>2025-08-08T12:10:47.000Z</time>
      </trkpt>
      <trkpt lat="45.91664" lon="6.0176">
        <ele>524</ele>
        <time>2025-08-08T12:10:53.000Z</time>
      </trkpt>
      <trkpt lat="45.91663" lon="6.01764">
        <ele>524.20001220703</ele>
        <time>2025-08-08T12:10:54.000Z</time>
      </trkpt>
      <trkpt lat="45.91656" lon="6.01789">
        <ele>525</ele>
        <time>2025-08-08T12:11:00.000Z</time>
      </trkpt>
      <trkpt lat="45.91654" lon="6.01802">
        <ele>525.59997558594</ele>
        <time>2025-08-08T12:11:03.000Z</time>
      </trkpt>
      <trkpt lat="45.91653" lon="6.01816">
        <ele>526.20001220703</ele>
        <time>2025-08-08T12:11:06.000Z</time>
      </trkpt>
      <trkpt lat="45.91654" lon="6.01838">
        <ele>526.79998779297</ele>
        <time>2025-08-08T12:11:11.000Z</time>
      </trkpt>
      <trkpt lat="45.91655" lon="6.01847">
        <ele>527.20001220703</ele>
        <time>2025-08-08T12:11:13.000Z</time>
      </trkpt>
      <trkpt lat="45.91662" lon="6.01885">
        <ele>528.40002441406</ele>
        <time>2025-08-08T12:11:22.000Z</time>
      </trkpt>
      <trkpt lat="45.91663" lon="6.01889">
        <ele>528.59997558594</ele>
        <time>2025-08-08T12:11:23.000Z</time>
      </trkpt>
      <trkpt lat="45.91665" lon="6.01915">
        <ele>529.59997558594</ele>
        <time>2025-08-08T12:11:29.000Z</time>
      </trkpt>
      <trkpt lat="45.91666" lon="6.01932">
        <ele>530</ele>
        <time>2025-08-08T12:11:33.000Z</time>
      </trkpt>
      <trkpt lat="45.91667" lon="6.01949">
        <ele>530.59997558594</ele>
        <time>2025-08-08T12:11:37.000Z</time>
      </trkpt>
      <trkpt lat="45.91667" lon="6.01954">
        <ele>530.79998779297</ele>
        <time>2025-08-08T12:11:38.000Z</time>
      </trkpt>
      <trkpt lat="45.91667" lon="6.01971">
        <ele>531.79998779297</ele>
        <time>2025-08-08T12:11:42.000Z</time>
      </trkpt>
      <trkpt lat="45.91671" lon="6.01995">
        <ele>532.79998779297</ele>
        <time>2025-08-08T12:11:48.000Z</time>
      </trkpt>
      <trkpt lat="45.91674" lon="6.02003">
        <ele>533.40002441406</ele>
        <time>2025-08-08T12:11:50.000Z</time>
      </trkpt>
      <trkpt lat="45.91682" lon="6.0202">
        <ele>534</ele>
        <time>2025-08-08T12:11:54.000Z</time>
      </trkpt>
      <trkpt lat="45.91688" lon="6.02033">
        <ele>534.20001220703</ele>
        <time>2025-08-08T12:11:57.000Z</time>
      </trkpt>
      <trkpt lat="45.91704" lon="6.02064">
        <ele>534.20001220703</ele>
        <time>2025-08-08T12:12:03.000Z</time>
      </trkpt>
      <trkpt lat="45.91719" lon="6.02098">
        <ele>534.20001220703</ele>
        <time>2025-08-08T12:12:08.000Z</time>
      </trkpt>
      <trkpt lat="45.91723" lon="6.02104">
        <ele>533.79998779297</ele>
        <time>2025-08-08T12:12:09.000Z</time>
      </trkpt>
      <trkpt lat="45.91745" lon="6.02143">
        <ele>533.79998779297</ele>
        <time>2025-08-08T12:12:15.000Z</time>
      </trkpt>
      <trkpt lat="45.91766" lon="6.02184">
        <ele>533.59997558594</ele>
        <time>2025-08-08T12:12:21.000Z</time>
      </trkpt>
      <trkpt lat="45.9178" lon="6.02211">
        <ele>533.40002441406</ele>
        <time>2025-08-08T12:12:25.000Z</time>
      </trkpt>
      <trkpt lat="45.91801" lon="6.02254">
        <ele>533.20001220703</ele>
        <time>2025-08-08T12:12:31.000Z</time>
      </trkpt>
      <trkpt lat="45.91803" lon="6.02262">
        <ele>533.20001220703</ele>
        <time>2025-08-08T12:12:32.000Z</time>
      </trkpt>
      <trkpt lat="45.91804" lon="6.02309">
        <ele>533.40002441406</ele>
        <time>2025-08-08T12:12:37.000Z</time>
      </trkpt>
      <trkpt lat="45.91799" lon="6.02374">
        <ele>532.79998779297</ele>
        <time>2025-08-08T12:12:44.000Z</time>
      </trkpt>
      <trkpt lat="45.91794" lon="6.02433">
        <ele>532.20001220703</ele>
        <time>2025-08-08T12:12:51.000Z</time>
      </trkpt>
      <trkpt lat="45.91791" lon="6.02468">
        <ele>532</ele>
        <time>2025-08-08T12:12:55.000Z</time>
      </trkpt>
      <trkpt lat="45.9179" lon="6.02477">
        <ele>532</ele>
        <time>2025-08-08T12:12:56.000Z</time>
      </trkpt>
      <trkpt lat="45.91787" lon="6.02486">
        <ele>532</ele>
        <time>2025-08-08T12:12:57.000Z</time>
      </trkpt>
      <trkpt lat="45.9178" lon="6.02504">
        <ele>531.79998779297</ele>
        <time>2025-08-08T12:12:59.000Z</time>
      </trkpt>
      <trkpt lat="45.91775" lon="6.02512">
        <ele>531.59997558594</ele>
        <time>2025-08-08T12:13:00.000Z</time>
      </trkpt>
      <trkpt lat="45.91769" lon="6.02519">
        <ele>531.59997558594</ele>
        <time>2025-08-08T12:13:01.000Z</time>
      </trkpt>
      <trkpt lat="45.91754" lon="6.02527">
        <ele>530.79998779297</ele>
        <time>2025-08-08T12:13:03.000Z</time>
      </trkpt>
      <trkpt lat="45.91747" lon="6.02529">
        <ele>530.40002441406</ele>
        <time>2025-08-08T12:13:04.000Z</time>
      </trkpt>
      <trkpt lat="45.91739" lon="6.02529">
        <ele>530.20001220703</ele>
        <time>2025-08-08T12:13:05.000Z</time>
      </trkpt>
      <trkpt lat="45.91732" lon="6.02526">
        <ele>530</ele>
        <time>2025-08-08T12:13:06.000Z</time>
      </trkpt>
      <trkpt lat="45.91726" lon="6.02522">
        <ele>530</ele>
        <time>2025-08-08T12:13:07.000Z</time>
      </trkpt>
      <trkpt lat="45.9171" lon="6.02509">
        <ele>529.79998779297</ele>
        <time>2025-08-08T12:13:10.000Z</time>
      </trkpt>
      <trkpt lat="45.91686" lon="6.0249">
        <ele>530.20001220703</ele>
        <time>2025-08-08T12:13:15.000Z</time>
      </trkpt>
      <trkpt lat="45.91678" lon="6.02484">
        <ele>530.59997558594</ele>
        <time>2025-08-08T12:13:17.000Z</time>
      </trkpt>
      <trkpt lat="45.91665" lon="6.02475">
        <ele>531.40002441406</ele>
        <time>2025-08-08T12:13:20.000Z</time>
      </trkpt>
      <trkpt lat="45.91661" lon="6.02473">
        <ele>531.59997558594</ele>
        <time>2025-08-08T12:13:21.000Z</time>
      </trkpt>
      <trkpt lat="45.91652" lon="6.0247">
        <ele>532.20001220703</ele>
        <time>2025-08-08T12:13:23.000Z</time>
      </trkpt>
      <trkpt lat="45.91647" lon="6.02468">
        <ele>532.59997558594</ele>
        <time>2025-08-08T12:13:24.000Z</time>
      </trkpt>
      <trkpt lat="45.91643" lon="6.02467">
        <ele>532.59997558594</ele>
        <time>2025-08-08T12:13:25.000Z</time>
      </trkpt>
      <trkpt lat="45.9163" lon="6.02468">
        <ele>533</ele>
        <time>2025-08-08T12:13:28.000Z</time>
      </trkpt>
      <trkpt lat="45.91626" lon="6.02469">
        <ele>533.59997558594</ele>
        <time>2025-08-08T12:13:29.000Z</time>
      </trkpt>
      <trkpt lat="45.91622" lon="6.02471">
        <ele>533.79998779297</ele>
        <time>2025-08-08T12:13:30.000Z</time>
      </trkpt>
      <trkpt lat="45.91611" lon="6.02479">
        <ele>534.40002441406</ele>
        <time>2025-08-08T12:13:33.000Z</time>
      </trkpt>
      <trkpt lat="45.91604" lon="6.02486">
        <ele>534.59997558594</ele>
        <time>2025-08-08T12:13:35.000Z</time>
      </trkpt>
      <trkpt lat="45.91581" lon="6.02513">
        <ele>535.40002441406</ele>
        <time>2025-08-08T12:13:42.000Z</time>
      </trkpt>
      <trkpt lat="45.91569" lon="6.02528">
        <ele>535.79998779297</ele>
        <time>2025-08-08T12:13:46.000Z</time>
      </trkpt>
      <trkpt lat="45.91556" lon="6.02543">
        <ele>536.59997558594</ele>
        <time>2025-08-08T12:13:50.000Z</time>
      </trkpt>
      <trkpt lat="45.91552" lon="6.02546">
        <ele>536.79998779297</ele>
        <time>2025-08-08T12:13:51.000Z</time>
      </trkpt>
      <trkpt lat="45.91527" lon="6.02566">
        <ele>537.79998779297</ele>
        <time>2025-08-08T12:13:58.000Z</time>
      </trkpt>
      <trkpt lat="45.91523" lon="6.02568">
        <ele>537.79998779297</ele>
        <time>2025-08-08T12:13:59.000Z</time>
      </trkpt>
      <trkpt lat="45.91499" lon="6.02574">
        <ele>538.79998779297</ele>
        <time>2025-08-08T12:14:05.000Z</time>
      </trkpt>
      <trkpt lat="45.91491" lon="6.02576">
        <ele>539</ele>
        <time>2025-08-08T12:14:07.000Z</time>
      </trkpt>
      <trkpt lat="45.91471" lon="6.0258">
        <ele>540</ele>
        <time>2025-08-08T12:14:12.000Z</time>
      </trkpt>
      <trkpt lat="45.91459" lon="6.02583">
        <ele>540.20001220703</ele>
        <time>2025-08-08T12:14:15.000Z</time>
      </trkpt>
      <trkpt lat="45.91414" lon="6.02592">
        <ele>541</ele>
        <time>2025-08-08T12:14:26.000Z</time>
      </trkpt>
      <trkpt lat="45.9137" lon="6.02602">
        <ele>541.59997558594</ele>
        <time>2025-08-08T12:14:36.000Z</time>
      </trkpt>
      <trkpt lat="45.91319" lon="6.02612">
        <ele>541.79998779297</ele>
        <time>2025-08-08T12:14:46.000Z</time>
      </trkpt>
      <trkpt lat="45.91277" lon="6.0262">
        <ele>541.59997558594</ele>
        <time>2025-08-08T12:14:53.000Z</time>
      </trkpt>
      <trkpt lat="45.91226" lon="6.0263">
        <ele>541</ele>
        <time>2025-08-08T12:15:01.000Z</time>
      </trkpt>
      <trkpt lat="45.91183" lon="6.0264">
        <ele>540</ele>
        <time>2025-08-08T12:15:08.000Z</time>
      </trkpt>
      <trkpt lat="45.91159" lon="6.02645">
        <ele>539.40002441406</ele>
        <time>2025-08-08T12:15:12.000Z</time>
      </trkpt>
      <trkpt lat="45.91126" lon="6.02657">
        <ele>539</ele>
        <time>2025-08-08T12:15:17.000Z</time>
      </trkpt>
      <trkpt lat="45.91114" lon="6.02663">
        <ele>539</ele>
        <time>2025-08-08T12:15:19.000Z</time>
      </trkpt>
      <trkpt lat="45.91057" lon="6.02693">
        <ele>538.59997558594</ele>
        <time>2025-08-08T12:15:28.000Z</time>
      </trkpt>
      <trkpt lat="45.91045" lon="6.02699">
        <ele>538.59997558594</ele>
        <time>2025-08-08T12:15:30.000Z</time>
      </trkpt>
      <trkpt lat="45.90997" lon="6.02716">
        <ele>538.59997558594</ele>
        <time>2025-08-08T12:15:37.000Z</time>
      </trkpt>
      <trkpt lat="45.90956" lon="6.02715">
        <ele>538.59997558594</ele>
        <time>2025-08-08T12:15:43.000Z</time>
      </trkpt>
      <trkpt lat="45.9091" lon="6.02701">
        <ele>538.59997558594</ele>
        <time>2025-08-08T12:15:50.000Z</time>
      </trkpt>
      <trkpt lat="45.90853" lon="6.02684">
        <ele>538.40002441406</ele>
        <time>2025-08-08T12:15:59.000Z</time>
      </trkpt>
      <trkpt lat="45.90799" lon="6.02684">
        <ele>538.59997558594</ele>
        <time>2025-08-08T12:16:08.000Z</time>
      </trkpt>
      <trkpt lat="45.90741" lon="6.02687">
        <ele>539.79998779297</ele>
        <time>2025-08-08T12:16:18.000Z</time>
      </trkpt>
      <trkpt lat="45.90729" lon="6.02687">
        <ele>540</ele>
        <time>2025-08-08T12:16:20.000Z</time>
      </trkpt>
      <trkpt lat="45.90694" lon="6.02683">
        <ele>540.40002441406</ele>
        <time>2025-08-08T12:16:26.000Z</time>
      </trkpt>
      <trkpt lat="45.90659" lon="6.02676">
        <ele>540.59997558594</ele>
        <time>2025-08-08T12:16:32.000Z</time>
      </trkpt>
      <trkpt lat="45.90637" lon="6.02672">
        <ele>541</ele>
        <time>2025-08-08T12:16:36.000Z</time>
      </trkpt>
      <trkpt lat="45.90609" lon="6.02667">
        <ele>541.20001220703</ele>
        <time>2025-08-08T12:16:41.000Z</time>
      </trkpt>
      <trkpt lat="45.90591" lon="6.02663">
        <ele>541.20001220703</ele>
        <time>2025-08-08T12:16:44.000Z</time>
      </trkpt>
      <trkpt lat="45.90575" lon="6.02661">
        <ele>541.40002441406</ele>
        <time>2025-08-08T12:16:47.000Z</time>
      </trkpt>
      <trkpt lat="45.90544" lon="6.0266">
        <ele>541.59997558594</ele>
        <time>2025-08-08T12:16:53.000Z</time>
      </trkpt>
      <trkpt lat="45.90512" lon="6.02668">
        <ele>541.79998779297</ele>
        <time>2025-08-08T12:16:59.000Z</time>
      </trkpt>
      <trkpt lat="45.90497" lon="6.02672">
        <ele>542</ele>
        <time>2025-08-08T12:17:02.000Z</time>
      </trkpt>
      <trkpt lat="45.90452" lon="6.02685">
        <ele>542</ele>
        <time>2025-08-08T12:17:11.000Z</time>
      </trkpt>
      <trkpt lat="45.90418" lon="6.02695">
        <ele>542.79998779297</ele>
        <time>2025-08-08T12:17:19.000Z</time>
      </trkpt>
      <trkpt lat="45.90414" lon="6.02696">
        <ele>543</ele>
        <time>2025-08-08T12:17:20.000Z</time>
      </trkpt>
      <trkpt lat="45.90391" lon="6.02702">
        <ele>543.79998779297</ele>
        <time>2025-08-08T12:17:26.000Z</time>
      </trkpt>
      <trkpt lat="45.90383" lon="6.02704">
        <ele>544.20001220703</ele>
        <time>2025-08-08T12:17:28.000Z</time>
      </trkpt>
      <trkpt lat="45.90367" lon="6.0271">
        <ele>545.20001220703</ele>
        <time>2025-08-08T12:17:33.000Z</time>
      </trkpt>
      <trkpt lat="45.90341" lon="6.0273">
        <ele>546.20001220703</ele>
        <time>2025-08-08T12:17:41.000Z</time>
      </trkpt>
      <trkpt lat="45.90338" lon="6.02733">
        <ele>546.40002441406</ele>
        <time>2025-08-08T12:17:42.000Z</time>
      </trkpt>
      <trkpt lat="45.90319" lon="6.0276">
        <ele>547</ele>
        <time>2025-08-08T12:17:49.000Z</time>
      </trkpt>
      <trkpt lat="45.90316" lon="6.02769">
        <ele>547.40002441406</ele>
        <time>2025-08-08T12:17:51.000Z</time>
      </trkpt>
      <trkpt lat="45.90314" lon="6.02774">
        <ele>547.59997558594</ele>
        <time>2025-08-08T12:17:52.000Z</time>
      </trkpt>
      <trkpt lat="45.90311" lon="6.02789">
        <ele>548</ele>
        <time>2025-08-08T12:17:55.000Z</time>
      </trkpt>
      <trkpt lat="45.90312" lon="6.02813">
        <ele>548.59997558594</ele>
        <time>2025-08-08T12:17:59.000Z</time>
      </trkpt>
      <trkpt lat="45.90313" lon="6.02819">
        <ele>548.59997558594</ele>
        <time>2025-08-08T12:18:00.000Z</time>
      </trkpt>
      <trkpt lat="45.90331" lon="6.02856">
        <ele>549</ele>
        <time>2025-08-08T12:18:06.000Z</time>
      </trkpt>
      <trkpt lat="45.90345" lon="6.02901">
        <ele>549.20001220703</ele>
        <time>2025-08-08T12:18:12.000Z</time>
      </trkpt>
      <trkpt lat="45.90354" lon="6.02959">
        <ele>549.20001220703</ele>
        <time>2025-08-08T12:18:19.000Z</time>
      </trkpt>
      <trkpt lat="45.90357" lon="6.03005">
        <ele>549.20001220703</ele>
        <time>2025-08-08T12:18:25.000Z</time>
      </trkpt>
      <trkpt lat="45.90357" lon="6.03013">
        <ele>549.20001220703</ele>
        <time>2025-08-08T12:18:26.000Z</time>
      </trkpt>
      <trkpt lat="45.90359" lon="6.0305">
        <ele>549.59997558594</ele>
        <time>2025-08-08T12:18:31.000Z</time>
      </trkpt>
      <trkpt lat="45.90359" lon="6.03064">
        <ele>549.59997558594</ele>
        <time>2025-08-08T12:18:33.000Z</time>
      </trkpt>
      <trkpt lat="45.90362" lon="6.03094">
        <ele>550</ele>
        <time>2025-08-08T12:18:37.000Z</time>
      </trkpt>
      <trkpt lat="45.90366" lon="6.03113">
        <ele>550.20001220703</ele>
        <time>2025-08-08T12:18:40.000Z</time>
      </trkpt>
      <trkpt lat="45.9037" lon="6.03133">
        <ele>550.79998779297</ele>
        <time>2025-08-08T12:18:43.000Z</time>
      </trkpt>
      <trkpt lat="45.90376" lon="6.03166">
        <ele>551</ele>
        <time>2025-08-08T12:18:47.000Z</time>
      </trkpt>
      <trkpt lat="45.9038" lon="6.03208">
        <ele>551</ele>
        <time>2025-08-08T12:18:52.000Z</time>
      </trkpt>
      <trkpt lat="45.90381" lon="6.03215">
        <ele>551</ele>
        <time>2025-08-08T12:18:53.000Z</time>
      </trkpt>
      <trkpt lat="45.90385" lon="6.03224">
        <ele>551</ele>
        <time>2025-08-08T12:18:54.000Z</time>
      </trkpt>
      <trkpt lat="45.90398" lon="6.03258">
        <ele>550.79998779297</ele>
        <time>2025-08-08T12:18:59.000Z</time>
      </trkpt>
      <trkpt lat="45.90403" lon="6.03271">
        <ele>550.79998779297</ele>
        <time>2025-08-08T12:19:01.000Z</time>
      </trkpt>
      <trkpt lat="45.90409" lon="6.03288">
        <ele>551</ele>
        <time>2025-08-08T12:19:04.000Z</time>
      </trkpt>
      <trkpt lat="45.90411" lon="6.03293">
        <ele>551.20001220703</ele>
        <time>2025-08-08T12:19:05.000Z</time>
      </trkpt>
      <trkpt lat="45.90418" lon="6.03311">
        <ele>551.79998779297</ele>
        <time>2025-08-08T12:19:08.000Z</time>
      </trkpt>
      <trkpt lat="45.9042" lon="6.03316">
        <ele>552.40002441406</ele>
        <time>2025-08-08T12:19:09.000Z</time>
      </trkpt>
      <trkpt lat="45.90421" lon="6.03321">
        <ele>552.79998779297</ele>
        <time>2025-08-08T12:19:10.000Z</time>
      </trkpt>
      <trkpt lat="45.90422" lon="6.03327">
        <ele>553.20001220703</ele>
        <time>2025-08-08T12:19:11.000Z</time>
      </trkpt>
      <trkpt lat="45.90426" lon="6.03352">
        <ele>554.40002441406</ele>
        <time>2025-08-08T12:19:15.000Z</time>
      </trkpt>
      <trkpt lat="45.90426" lon="6.03359">
        <ele>554.40002441406</ele>
        <time>2025-08-08T12:19:16.000Z</time>
      </trkpt>
      <trkpt lat="45.90433" lon="6.03401">
        <ele>554.79998779297</ele>
        <time>2025-08-08T12:19:21.000Z</time>
      </trkpt>
      <trkpt lat="45.90441" lon="6.03461">
        <ele>554.20001220703</ele>
        <time>2025-08-08T12:19:27.000Z</time>
      </trkpt>
      <trkpt lat="45.90449" lon="6.03546">
        <ele>553.59997558594</ele>
        <time>2025-08-08T12:19:36.000Z</time>
      </trkpt>
      <trkpt lat="45.90451" lon="6.03576">
        <ele>553.79998779297</ele>
        <time>2025-08-08T12:19:39.000Z</time>
      </trkpt>
      <trkpt lat="45.90456" lon="6.03624">
        <ele>554.20001220703</ele>
        <time>2025-08-08T12:19:45.000Z</time>
      </trkpt>
      <trkpt lat="45.90455" lon="6.03671">
        <ele>555</ele>
        <time>2025-08-08T12:19:51.000Z</time>
      </trkpt>
      <trkpt lat="45.90455" lon="6.03684">
        <ele>555.59997558594</ele>
        <time>2025-08-08T12:19:53.000Z</time>
      </trkpt>
      <trkpt lat="45.90452" lon="6.0372">
        <ele>556.59997558594</ele>
        <time>2025-08-08T12:19:58.000Z</time>
      </trkpt>
      <trkpt lat="45.90448" lon="6.03763">
        <ele>557.79998779297</ele>
        <time>2025-08-08T12:20:04.000Z</time>
      </trkpt>
      <trkpt lat="45.90447" lon="6.0377">
        <ele>557.79998779297</ele>
        <time>2025-08-08T12:20:05.000Z</time>
      </trkpt>
      <trkpt lat="45.90441" lon="6.03831">
        <ele>558.59997558594</ele>
        <time>2025-08-08T12:20:13.000Z</time>
      </trkpt>
      <trkpt lat="45.90433" lon="6.03903">
        <ele>558.20001220703</ele>
        <time>2025-08-08T12:20:21.000Z</time>
      </trkpt>
      <trkpt lat="45.90426" lon="6.03986">
        <ele>557.79998779297</ele>
        <time>2025-08-08T12:20:30.000Z</time>
      </trkpt>
      <trkpt lat="45.90426" lon="6.03995">
        <ele>557.79998779297</ele>
        <time>2025-08-08T12:20:31.000Z</time>
      </trkpt>
      <trkpt lat="45.90427" lon="6.04065">
        <ele>557.59997558594</ele>
        <time>2025-08-08T12:20:38.000Z</time>
      </trkpt>
      <trkpt lat="45.90432" lon="6.041">
        <ele>557.40002441406</ele>
        <time>2025-08-08T12:20:42.000Z</time>
      </trkpt>
      <trkpt lat="45.90432" lon="6.04105">
        <ele>557.40002441406</ele>
        <time>2025-08-08T12:20:43.000Z</time>
      </trkpt>
      <trkpt lat="45.90435" lon="6.04126">
        <ele>557.20001220703</ele>
        <time>2025-08-08T12:20:47.000Z</time>
      </trkpt>
      <trkpt lat="45.90444" lon="6.04163">
        <ele>557.20001220703</ele>
        <time>2025-08-08T12:20:52.000Z</time>
      </trkpt>
      <trkpt lat="45.90453" lon="6.04195">
        <ele>557.40002441406</ele>
        <time>2025-08-08T12:20:56.000Z</time>
      </trkpt>
      <trkpt lat="45.90453" lon="6.04195">
        <ele>557.40002441406</ele>
        <time>2025-08-08T12:20:57.000Z</time>
      </trkpt>
      <trkpt lat="45.9046" lon="6.04213">
        <ele>557.40002441406</ele>
        <time>2025-08-08T12:20:58.000Z</time>
      </trkpt>
      <trkpt lat="45.90468" lon="6.04226">
        <ele>557.40002441406</ele>
        <time>2025-08-08T12:21:00.000Z</time>
      </trkpt>
      <trkpt lat="45.90472" lon="6.04232">
        <ele>557.40002441406</ele>
        <time>2025-08-08T12:21:01.000Z</time>
      </trkpt>
      <trkpt lat="45.90483" lon="6.04243">
        <ele>557.40002441406</ele>
        <time>2025-08-08T12:21:03.000Z</time>
      </trkpt>
      <trkpt lat="45.90497" lon="6.04255">
        <ele>557.20001220703</ele>
        <time>2025-08-08T12:21:06.000Z</time>
      </trkpt>
      <trkpt lat="45.90502" lon="6.04258">
        <ele>557.20001220703</ele>
        <time>2025-08-08T12:21:07.000Z</time>
      </trkpt>
      <trkpt lat="45.90546" lon="6.04273">
        <ele>557</ele>
        <time>2025-08-08T12:21:14.000Z</time>
      </trkpt>
      <trkpt lat="45.90552" lon="6.04277">
        <ele>556.79998779297</ele>
        <time>2025-08-08T12:21:15.000Z</time>
      </trkpt>
      <trkpt lat="45.90564" lon="6.04285">
        <ele>556.59997558594</ele>
        <time>2025-08-08T12:21:17.000Z</time>
      </trkpt>
      <trkpt lat="45.9057" lon="6.04291">
        <ele>556.59997558594</ele>
        <time>2025-08-08T12:21:18.000Z</time>
      </trkpt>
      <trkpt lat="45.90575" lon="6.04298">
        <ele>556.40002441406</ele>
        <time>2025-08-08T12:21:19.000Z</time>
      </trkpt>
      <trkpt lat="45.90593" lon="6.04331">
        <ele>555.79998779297</ele>
        <time>2025-08-08T12:21:23.000Z</time>
      </trkpt>
      <trkpt lat="45.90602" lon="6.04348">
        <ele>555.40002441406</ele>
        <time>2025-08-08T12:21:25.000Z</time>
      </trkpt>
      <trkpt lat="45.90637" lon="6.04414">
        <ele>554.79998779297</ele>
        <time>2025-08-08T12:21:33.000Z</time>
      </trkpt>
      <trkpt lat="45.90659" lon="6.04455">
        <ele>554.40002441406</ele>
        <time>2025-08-08T12:21:38.000Z</time>
      </trkpt>
      <trkpt lat="45.90687" lon="6.04505">
        <ele>553.40002441406</ele>
        <time>2025-08-08T12:21:44.000Z</time>
      </trkpt>
      <trkpt lat="45.90697" lon="6.04521">
        <ele>553</ele>
        <time>2025-08-08T12:21:46.000Z</time>
      </trkpt>
      <trkpt lat="45.90727" lon="6.0456">
        <ele>552.40002441406</ele>
        <time>2025-08-08T12:21:51.000Z</time>
      </trkpt>
      <trkpt lat="45.9074" lon="6.04575">
        <ele>551.59997558594</ele>
        <time>2025-08-08T12:21:53.000Z</time>
      </trkpt>
      <trkpt lat="45.90754" lon="6.0459">
        <ele>551</ele>
        <time>2025-08-08T12:21:55.000Z</time>
      </trkpt>
      <trkpt lat="45.90794" lon="6.04628">
        <ele>549.79998779297</ele>
        <time>2025-08-08T12:22:01.000Z</time>
      </trkpt>
      <trkpt lat="45.90801" lon="6.04633">
        <ele>549.79998779297</ele>
        <time>2025-08-08T12:22:02.000Z</time>
      </trkpt>
      <trkpt lat="45.90845" lon="6.04655">
        <ele>548.79998779297</ele>
        <time>2025-08-08T12:22:08.000Z</time>
      </trkpt>
      <trkpt lat="45.90898" lon="6.04677">
        <ele>548.40002441406</ele>
        <time>2025-08-08T12:22:15.000Z</time>
      </trkpt>
      <trkpt lat="45.90913" lon="6.04683">
        <ele>548.59997558594</ele>
        <time>2025-08-08T12:22:17.000Z</time>
      </trkpt>
      <trkpt lat="45.90956" lon="6.04705">
        <ele>548.79998779297</ele>
        <time>2025-08-08T12:22:23.000Z</time>
      </trkpt>
      <trkpt lat="45.90962" lon="6.04711">
        <ele>548.79998779297</ele>
        <time>2025-08-08T12:22:24.000Z</time>
      </trkpt>
      <trkpt lat="45.90979" lon="6.04734">
        <ele>548.59997558594</ele>
        <time>2025-08-08T12:22:27.000Z</time>
      </trkpt>
      <trkpt lat="45.91007" lon="6.04786">
        <ele>547.40002441406</ele>
        <time>2025-08-08T12:22:33.000Z</time>
      </trkpt>
      <trkpt lat="45.91011" lon="6.04795">
        <ele>547.40002441406</ele>
        <time>2025-08-08T12:22:34.000Z</time>
      </trkpt>
      <trkpt lat="45.9104" lon="6.04848">
        <ele>546.40002441406</ele>
        <time>2025-08-08T12:22:40.000Z</time>
      </trkpt>
      <trkpt lat="45.91051" lon="6.04865">
        <ele>546</ele>
        <time>2025-08-08T12:22:42.000Z</time>
      </trkpt>
      <trkpt lat="45.91078" lon="6.04909">
        <ele>545.59997558594</ele>
        <time>2025-08-08T12:22:47.000Z</time>
      </trkpt>
      <trkpt lat="45.91089" lon="6.04927">
        <ele>545.40002441406</ele>
        <time>2025-08-08T12:22:49.000Z</time>
      </trkpt>
      <trkpt lat="45.91094" lon="6.04933">
        <ele>545.20001220703</ele>
        <time>2025-08-08T12:22:50.000Z</time>
      </trkpt>
      <trkpt lat="45.91134" lon="6.04983">
        <ele>544.20001220703</ele>
        <time>2025-08-08T12:22:56.000Z</time>
      </trkpt>
      <trkpt lat="45.91171" lon="6.05032">
        <ele>543.79998779297</ele>
        <time>2025-08-08T12:23:02.000Z</time>
      </trkpt>
      <trkpt lat="45.91187" lon="6.05059">
        <ele>543.79998779297</ele>
        <time>2025-08-08T12:23:05.000Z</time>
      </trkpt>
      <trkpt lat="45.91197" lon="6.05076">
        <ele>543.79998779297</ele>
        <time>2025-08-08T12:23:07.000Z</time>
      </trkpt>
      <trkpt lat="45.91226" lon="6.05114">
        <ele>543.59997558594</ele>
        <time>2025-08-08T12:23:12.000Z</time>
      </trkpt>
      <trkpt lat="45.91258" lon="6.05153">
        <ele>543.20001220703</ele>
        <time>2025-08-08T12:23:17.000Z</time>
      </trkpt>
      <trkpt lat="45.91282" lon="6.05186">
        <ele>542.79998779297</ele>
        <time>2025-08-08T12:23:21.000Z</time>
      </trkpt>
      <trkpt lat="45.91313" lon="6.05228">
        <ele>542.20001220703</ele>
        <time>2025-08-08T12:23:26.000Z</time>
      </trkpt>
      <trkpt lat="45.9134" lon="6.05269">
        <ele>541.59997558594</ele>
        <time>2025-08-08T12:23:31.000Z</time>
      </trkpt>
      <trkpt lat="45.91352" lon="6.05285">
        <ele>541.20001220703</ele>
        <time>2025-08-08T12:23:33.000Z</time>
      </trkpt>
      <trkpt lat="45.91359" lon="6.05292">
        <ele>541</ele>
        <time>2025-08-08T12:23:34.000Z</time>
      </trkpt>
      <trkpt lat="45.91371" lon="6.05303">
        <ele>540.79998779297</ele>
        <time>2025-08-08T12:23:36.000Z</time>
      </trkpt>
      <trkpt lat="45.91424" lon="6.05341">
        <ele>540.40002441406</ele>
        <time>2025-08-08T12:23:43.000Z</time>
      </trkpt>
      <trkpt lat="45.91432" lon="6.05346">
        <ele>540.20001220703</ele>
        <time>2025-08-08T12:23:44.000Z</time>
      </trkpt>
      <trkpt lat="45.91477" lon="6.05382">
        <ele>539</ele>
        <time>2025-08-08T12:23:50.000Z</time>
      </trkpt>
      <trkpt lat="45.91492" lon="6.05396">
        <ele>539</ele>
        <time>2025-08-08T12:23:52.000Z</time>
      </trkpt>
      <trkpt lat="45.91537" lon="6.0544">
        <ele>538</ele>
        <time>2025-08-08T12:23:58.000Z</time>
      </trkpt>
      <trkpt lat="45.91544" lon="6.05447">
        <ele>537.79998779297</ele>
        <time>2025-08-08T12:23:59.000Z</time>
      </trkpt>
      <trkpt lat="45.9158" lon="6.05481">
        <ele>536.59997558594</ele>
        <time>2025-08-08T12:24:04.000Z</time>
      </trkpt>
      <trkpt lat="45.91601" lon="6.05504">
        <ele>536.20001220703</ele>
        <time>2025-08-08T12:24:07.000Z</time>
      </trkpt>
      <trkpt lat="45.91637" lon="6.05541">
        <ele>535.40002441406</ele>
        <time>2025-08-08T12:24:12.000Z</time>
      </trkpt>
      <trkpt lat="45.91652" lon="6.05555">
        <ele>535</ele>
        <time>2025-08-08T12:24:14.000Z</time>
      </trkpt>
      <trkpt lat="45.91674" lon="6.05576">
        <ele>534.40002441406</ele>
        <time>2025-08-08T12:24:17.000Z</time>
      </trkpt>
      <trkpt lat="45.91712" lon="6.05609">
        <ele>533.59997558594</ele>
        <time>2025-08-08T12:24:22.000Z</time>
      </trkpt>
      <trkpt lat="45.91719" lon="6.05616">
        <ele>533.40002441406</ele>
        <time>2025-08-08T12:24:23.000Z</time>
      </trkpt>
      <trkpt lat="45.91726" lon="6.05622">
        <ele>533.20001220703</ele>
        <time>2025-08-08T12:24:24.000Z</time>
      </trkpt>
      <trkpt lat="45.91778" lon="6.0567">
        <ele>532.20001220703</ele>
        <time>2025-08-08T12:24:31.000Z</time>
      </trkpt>
      <trkpt lat="45.91807" lon="6.05696">
        <ele>531.59997558594</ele>
        <time>2025-08-08T12:24:35.000Z</time>
      </trkpt>
      <trkpt lat="45.91834" lon="6.05722">
        <ele>531.20001220703</ele>
        <time>2025-08-08T12:24:39.000Z</time>
      </trkpt>
      <trkpt lat="45.91866" lon="6.05751">
        <ele>531</ele>
        <time>2025-08-08T12:24:44.000Z</time>
      </trkpt>
      <trkpt lat="45.91915" lon="6.05794">
        <ele>531.20001220703</ele>
        <time>2025-08-08T12:24:52.000Z</time>
      </trkpt>
      <trkpt lat="45.9192" lon="6.05799">
        <ele>531.20001220703</ele>
        <time>2025-08-08T12:24:53.000Z</time>
      </trkpt>
      <trkpt lat="45.91958" lon="6.05837">
        <ele>531</ele>
        <time>2025-08-08T12:25:00.000Z</time>
      </trkpt>
      <trkpt lat="45.91974" lon="6.05853">
        <ele>531.20001220703</ele>
        <time>2025-08-08T12:25:03.000Z</time>
      </trkpt>
      <trkpt lat="45.91981" lon="6.05867">
        <ele>531.20001220703</ele>
        <time>2025-08-08T12:25:05.000Z</time>
      </trkpt>
      <trkpt lat="45.91995" lon="6.05903">
        <ele>531.40002441406</ele>
        <time>2025-08-08T12:25:10.000Z</time>
      </trkpt>
      <trkpt lat="45.91999" lon="6.05917">
        <ele>531.20001220703</ele>
        <time>2025-08-08T12:25:12.000Z</time>
      </trkpt>
      <trkpt lat="45.92" lon="6.05932">
        <ele>531.20001220703</ele>
        <time>2025-08-08T12:25:14.000Z</time>
      </trkpt>
      <trkpt lat="45.92001" lon="6.0594">
        <ele>531.20001220703</ele>
        <time>2025-08-08T12:25:15.000Z</time>
      </trkpt>
      <trkpt lat="45.92005" lon="6.06003">
        <ele>531.79998779297</ele>
        <time>2025-08-08T12:25:23.000Z</time>
      </trkpt>
      <trkpt lat="45.92005" lon="6.06015">
        <ele>531.79998779297</ele>
        <time>2025-08-08T12:25:25.000Z</time>
      </trkpt>
      <trkpt lat="45.92006" lon="6.06028">
        <ele>531.79998779297</ele>
        <time>2025-08-08T12:25:28.000Z</time>
      </trkpt>
      <trkpt lat="45.92006" lon="6.06048">
        <ele>531.20001220703</ele>
        <time>2025-08-08T12:25:35.000Z</time>
      </trkpt>
      <trkpt lat="45.92007" lon="6.06045">
        <ele>531</ele>
        <time>2025-08-08T12:25:40.000Z</time>
      </trkpt>
      <trkpt lat="45.92005" lon="6.06047">
        <ele>531</ele>
        <time>2025-08-08T12:25:45.000Z</time>
      </trkpt>
      <trkpt lat="45.92005" lon="6.06047">
        <ele>530.79998779297</ele>
        <time>2025-08-08T12:25:46.000Z</time>
      </trkpt>
      <trkpt lat="45.92006" lon="6.06044">
        <ele>530.79998779297</ele>
        <time>2025-08-08T12:26:18.000Z</time>
      </trkpt>
      <trkpt lat="45.92006" lon="6.06036">
        <ele>531</ele>
        <time>2025-08-08T12:26:20.000Z</time>
      </trkpt>
      <trkpt lat="45.92006" lon="6.06">
        <ele>531.20001220703</ele>
        <time>2025-08-08T12:26:27.000Z</time>
      </trkpt>
      <trkpt lat="45.92004" lon="6.05987">
        <ele>531.20001220703</ele>
        <time>2025-08-08T12:26:29.000Z</time>
      </trkpt>
      <trkpt lat="45.92002" lon="6.05957">
        <ele>531</ele>
        <time>2025-08-08T12:26:34.000Z</time>
      </trkpt>
      <trkpt lat="45.91998" lon="6.0593">
        <ele>530.59997558594</ele>
        <time>2025-08-08T12:26:40.000Z</time>
      </trkpt>
      <trkpt lat="45.91998" lon="6.05927">
        <ele>530.59997558594</ele>
        <time>2025-08-08T12:26:43.000Z</time>
      </trkpt>
      <trkpt lat="45.92002" lon="6.05932">
        <ele>530.40002441406</ele>
        <time>2025-08-08T12:26:52.000Z</time>
      </trkpt>
      <trkpt lat="45.92003" lon="6.0594">
        <ele>530.59997558594</ele>
        <time>2025-08-08T12:26:54.000Z</time>
      </trkpt>
      <trkpt lat="45.9201" lon="6.05971">
        <ele>530.59997558594</ele>
        <time>2025-08-08T12:26:59.000Z</time>
      </trkpt>
      <trkpt lat="45.92012" lon="6.05987">
        <ele>530.59997558594</ele>
        <time>2025-08-08T12:27:01.000Z</time>
      </trkpt>
      <trkpt lat="45.92014" lon="6.06027">
        <ele>531.20001220703</ele>
        <time>2025-08-08T12:27:06.000Z</time>
      </trkpt>
      <trkpt lat="45.92008" lon="6.0609">
        <ele>531.40002441406</ele>
        <time>2025-08-08T12:27:14.000Z</time>
      </trkpt>
      <trkpt lat="45.91998" lon="6.06169">
        <ele>531.79998779297</ele>
        <time>2025-08-08T12:27:24.000Z</time>
      </trkpt>
      <trkpt lat="45.91997" lon="6.06176">
        <ele>531.79998779297</ele>
        <time>2025-08-08T12:27:25.000Z</time>
      </trkpt>
      <trkpt lat="45.91993" lon="6.06208">
        <ele>532</ele>
        <time>2025-08-08T12:27:29.000Z</time>
      </trkpt>
      <trkpt lat="45.91988" lon="6.06247">
        <ele>532.20001220703</ele>
        <time>2025-08-08T12:27:34.000Z</time>
      </trkpt>
      <trkpt lat="45.91986" lon="6.06262">
        <ele>532.40002441406</ele>
        <time>2025-08-08T12:27:36.000Z</time>
      </trkpt>
      <trkpt lat="45.91981" lon="6.06299">
        <ele>532.79998779297</ele>
        <time>2025-08-08T12:27:41.000Z</time>
      </trkpt>
      <trkpt lat="45.91969" lon="6.06381">
        <ele>533.40002441406</ele>
        <time>2025-08-08T12:27:52.000Z</time>
      </trkpt>
      <trkpt lat="45.91968" lon="6.06388">
        <ele>533.59997558594</ele>
        <time>2025-08-08T12:27:53.000Z</time>
      </trkpt>
      <trkpt lat="45.91961" lon="6.06447">
        <ele>534</ele>
        <time>2025-08-08T12:28:01.000Z</time>
      </trkpt>
      <trkpt lat="45.91956" lon="6.06459">
        <ele>534.20001220703</ele>
        <time>2025-08-08T12:28:03.000Z</time>
      </trkpt>
      <trkpt lat="45.9195" lon="6.06473">
        <ele>534.59997558594</ele>
        <time>2025-08-08T12:28:05.000Z</time>
      </trkpt>
      <trkpt lat="45.91947" lon="6.0649">
        <ele>534.79998779297</ele>
        <time>2025-08-08T12:28:07.000Z</time>
      </trkpt>
      <trkpt lat="45.91948" lon="6.06498">
        <ele>534.79998779297</ele>
        <time>2025-08-08T12:28:08.000Z</time>
      </trkpt>
      <trkpt lat="45.9195" lon="6.06524">
        <ele>535</ele>
        <time>2025-08-08T12:28:11.000Z</time>
      </trkpt>
      <trkpt lat="45.9195" lon="6.06532">
        <ele>535.20001220703</ele>
        <time>2025-08-08T12:28:12.000Z</time>
      </trkpt>
      <trkpt lat="45.9195" lon="6.06541">
        <ele>535.40002441406</ele>
        <time>2025-08-08T12:28:13.000Z</time>
      </trkpt>
      <trkpt lat="45.91948" lon="6.06558">
        <ele>535.59997558594</ele>
        <time>2025-08-08T12:28:15.000Z</time>
      </trkpt>
      <trkpt lat="45.91948" lon="6.06566">
        <ele>535.59997558594</ele>
        <time>2025-08-08T12:28:16.000Z</time>
      </trkpt>
      <trkpt lat="45.91946" lon="6.06592">
        <ele>535.59997558594</ele>
        <time>2025-08-08T12:28:19.000Z</time>
      </trkpt>
      <trkpt lat="45.91937" lon="6.06676">
        <ele>535.79998779297</ele>
        <time>2025-08-08T12:28:29.000Z</time>
      </trkpt>
      <trkpt lat="45.91936" lon="6.06684">
        <ele>535.79998779297</ele>
        <time>2025-08-08T12:28:30.000Z</time>
      </trkpt>
      <trkpt lat="45.91929" lon="6.06762">
        <ele>536.59997558594</ele>
        <time>2025-08-08T12:28:40.000Z</time>
      </trkpt>
      <trkpt lat="45.91928" lon="6.06769">
        <ele>536.59997558594</ele>
        <time>2025-08-08T12:28:41.000Z</time>
      </trkpt>
      <trkpt lat="45.91919" lon="6.06825">
        <ele>537.79998779297</ele>
        <time>2025-08-08T12:28:49.000Z</time>
      </trkpt>
      <trkpt lat="45.91906" lon="6.06871">
        <ele>539</ele>
        <time>2025-08-08T12:28:56.000Z</time>
      </trkpt>
      <trkpt lat="45.91904" lon="6.06877">
        <ele>539.20001220703</ele>
        <time>2025-08-08T12:28:57.000Z</time>
      </trkpt>
      <trkpt lat="45.91903" lon="6.06884">
        <ele>539.59997558594</ele>
        <time>2025-08-08T12:28:58.000Z</time>
      </trkpt>
      <trkpt lat="45.91903" lon="6.06891">
        <ele>539.59997558594</ele>
        <time>2025-08-08T12:28:59.000Z</time>
      </trkpt>
      <trkpt lat="45.91902" lon="6.06906">
        <ele>540</ele>
        <time>2025-08-08T12:29:01.000Z</time>
      </trkpt>
      <trkpt lat="45.919" lon="6.06912">
        <ele>540</ele>
        <time>2025-08-08T12:29:02.000Z</time>
      </trkpt>
      <trkpt lat="45.91898" lon="6.06919">
        <ele>540</ele>
        <time>2025-08-08T12:29:03.000Z</time>
      </trkpt>
      <trkpt lat="45.91894" lon="6.06933">
        <ele>540.40002441406</ele>
        <time>2025-08-08T12:29:05.000Z</time>
      </trkpt>
      <trkpt lat="45.91893" lon="6.06948">
        <ele>540.40002441406</ele>
        <time>2025-08-08T12:29:07.000Z</time>
      </trkpt>
      <trkpt lat="45.91896" lon="6.06962">
        <ele>540.40002441406</ele>
        <time>2025-08-08T12:29:09.000Z</time>
      </trkpt>
      <trkpt lat="45.91903" lon="6.06974">
        <ele>540.40002441406</ele>
        <time>2025-08-08T12:29:11.000Z</time>
      </trkpt>
      <trkpt lat="45.91906" lon="6.0698">
        <ele>540.59997558594</ele>
        <time>2025-08-08T12:29:12.000Z</time>
      </trkpt>
      <trkpt lat="45.9191" lon="6.06994">
        <ele>540.79998779297</ele>
        <time>2025-08-08T12:29:14.000Z</time>
      </trkpt>
      <trkpt lat="45.91909" lon="6.07002">
        <ele>541</ele>
        <time>2025-08-08T12:29:15.000Z</time>
      </trkpt>
      <trkpt lat="45.91908" lon="6.07009">
        <ele>541.20001220703</ele>
        <time>2025-08-08T12:29:16.000Z</time>
      </trkpt>
      <trkpt lat="45.91903" lon="6.07038">
        <ele>541.40002441406</ele>
        <time>2025-08-08T12:29:20.000Z</time>
      </trkpt>
      <trkpt lat="45.91898" lon="6.07091">
        <ele>541</ele>
        <time>2025-08-08T12:29:26.000Z</time>
      </trkpt>
      <trkpt lat="45.91897" lon="6.07147">
        <ele>540</ele>
        <time>2025-08-08T12:29:32.000Z</time>
      </trkpt>
      <trkpt lat="45.91898" lon="6.07155">
        <ele>539.79998779297</ele>
        <time>2025-08-08T12:29:33.000Z</time>
      </trkpt>
      <trkpt lat="45.919" lon="6.07171">
        <ele>539.40002441406</ele>
        <time>2025-08-08T12:29:35.000Z</time>
      </trkpt>
      <trkpt lat="45.919" lon="6.07187">
        <ele>539.20001220703</ele>
        <time>2025-08-08T12:29:37.000Z</time>
      </trkpt>
      <trkpt lat="45.919" lon="6.07202">
        <ele>538.79998779297</ele>
        <time>2025-08-08T12:29:39.000Z</time>
      </trkpt>
      <trkpt lat="45.91899" lon="6.07215">
        <ele>538.20001220703</ele>
        <time>2025-08-08T12:29:41.000Z</time>
      </trkpt>
      <trkpt lat="45.91897" lon="6.07221">
        <ele>538</ele>
        <time>2025-08-08T12:29:42.000Z</time>
      </trkpt>
      <trkpt lat="45.91896" lon="6.07227">
        <ele>537.79998779297</ele>
        <time>2025-08-08T12:29:43.000Z</time>
      </trkpt>
      <trkpt lat="45.91893" lon="6.07251">
        <ele>536.79998779297</ele>
        <time>2025-08-08T12:29:47.000Z</time>
      </trkpt>
      <trkpt lat="45.9189" lon="6.07266">
        <ele>536.79998779297</ele>
        <time>2025-08-08T12:29:49.000Z</time>
      </trkpt>
      <trkpt lat="45.9189" lon="6.07273">
        <ele>536.40002441406</ele>
        <time>2025-08-08T12:29:50.000Z</time>
      </trkpt>
      <trkpt lat="45.91891" lon="6.07281">
        <ele>536</ele>
        <time>2025-08-08T12:29:51.000Z</time>
      </trkpt>
      <trkpt lat="45.91898" lon="6.07295">
        <ele>535.59997558594</ele>
        <time>2025-08-08T12:29:53.000Z</time>
      </trkpt>
      <trkpt lat="45.91904" lon="6.073">
        <ele>535.40002441406</ele>
        <time>2025-08-08T12:29:54.000Z</time>
      </trkpt>
      <trkpt lat="45.9191" lon="6.07303">
        <ele>535.20001220703</ele>
        <time>2025-08-08T12:29:55.000Z</time>
      </trkpt>
      <trkpt lat="45.91933" lon="6.07313">
        <ele>534.59997558594</ele>
        <time>2025-08-08T12:29:58.000Z</time>
      </trkpt>
      <trkpt lat="45.91947" lon="6.07322">
        <ele>534.40002441406</ele>
        <time>2025-08-08T12:30:00.000Z</time>
      </trkpt>
      <trkpt lat="45.91952" lon="6.07328">
        <ele>534.20001220703</ele>
        <time>2025-08-08T12:30:01.000Z</time>
      </trkpt>
      <trkpt lat="45.91956" lon="6.07336">
        <ele>534</ele>
        <time>2025-08-08T12:30:02.000Z</time>
      </trkpt>
      <trkpt lat="45.91956" lon="6.07365">
        <ele>533</ele>
        <time>2025-08-08T12:30:05.000Z</time>
      </trkpt>
      <trkpt lat="45.91949" lon="6.074">
        <ele>531.79998779297</ele>
        <time>2025-08-08T12:30:08.000Z</time>
      </trkpt>
      <trkpt lat="45.91944" lon="6.07424">
        <ele>530.79998779297</ele>
        <time>2025-08-08T12:30:10.000Z</time>
      </trkpt>
      <trkpt lat="45.9194" lon="6.07435">
        <ele>530</ele>
        <time>2025-08-08T12:30:11.000Z</time>
      </trkpt>
      <trkpt lat="45.91935" lon="6.07446">
        <ele>529.40002441406</ele>
        <time>2025-08-08T12:30:12.000Z</time>
      </trkpt>
      <trkpt lat="45.91926" lon="6.07467">
        <ele>528.20001220703</ele>
        <time>2025-08-08T12:30:14.000Z</time>
      </trkpt>
      <trkpt lat="45.91917" lon="6.07486">
        <ele>527.20001220703</ele>
        <time>2025-08-08T12:30:16.000Z</time>
      </trkpt>
      <trkpt lat="45.91914" lon="6.07495">
        <ele>526.79998779297</ele>
        <time>2025-08-08T12:30:17.000Z</time>
      </trkpt>
      <trkpt lat="45.91911" lon="6.07514">
        <ele>526</ele>
        <time>2025-08-08T12:30:19.000Z</time>
      </trkpt>
      <trkpt lat="45.91912" lon="6.07524">
        <ele>525.59997558594</ele>
        <time>2025-08-08T12:30:20.000Z</time>
      </trkpt>
      <trkpt lat="45.91915" lon="6.07534">
        <ele>525</ele>
        <time>2025-08-08T12:30:21.000Z</time>
      </trkpt>
      <trkpt lat="45.91919" lon="6.07543">
        <ele>524.59997558594</ele>
        <time>2025-08-08T12:30:22.000Z</time>
      </trkpt>
      <trkpt lat="45.91924" lon="6.07551">
        <ele>524</ele>
        <time>2025-08-08T12:30:23.000Z</time>
      </trkpt>
      <trkpt lat="45.91936" lon="6.07562">
        <ele>523</ele>
        <time>2025-08-08T12:30:25.000Z</time>
      </trkpt>
      <trkpt lat="45.91961" lon="6.07577">
        <ele>521.79998779297</ele>
        <time>2025-08-08T12:30:29.000Z</time>
      </trkpt>
      <trkpt lat="45.91966" lon="6.07581">
        <ele>521.40002441406</ele>
        <time>2025-08-08T12:30:30.000Z</time>
      </trkpt>
      <trkpt lat="45.91971" lon="6.07585">
        <ele>521</ele>
        <time>2025-08-08T12:30:31.000Z</time>
      </trkpt>
      <trkpt lat="45.91976" lon="6.07589">
        <ele>520.40002441406</ele>
        <time>2025-08-08T12:30:32.000Z</time>
      </trkpt>
      <trkpt lat="45.91992" lon="6.07605">
        <ele>519.20001220703</ele>
        <time>2025-08-08T12:30:35.000Z</time>
      </trkpt>
      <trkpt lat="45.92002" lon="6.0762">
        <ele>518.20001220703</ele>
        <time>2025-08-08T12:30:37.000Z</time>
      </trkpt>
      <trkpt lat="45.92007" lon="6.07628">
        <ele>518</ele>
        <time>2025-08-08T12:30:38.000Z</time>
      </trkpt>
      <trkpt lat="45.92021" lon="6.07658">
        <ele>517.40002441406</ele>
        <time>2025-08-08T12:30:41.000Z</time>
      </trkpt>
      <trkpt lat="45.92024" lon="6.0767">
        <ele>517.40002441406</ele>
        <time>2025-08-08T12:30:42.000Z</time>
      </trkpt>
      <trkpt lat="45.92027" lon="6.07682">
        <ele>516.79998779297</ele>
        <time>2025-08-08T12:30:43.000Z</time>
      </trkpt>
      <trkpt lat="45.92033" lon="6.07721">
        <ele>515.40002441406</ele>
        <time>2025-08-08T12:30:46.000Z</time>
      </trkpt>
      <trkpt lat="45.92035" lon="6.07734">
        <ele>515</ele>
        <time>2025-08-08T12:30:47.000Z</time>
      </trkpt>
      <trkpt lat="45.92036" lon="6.07763">
        <ele>514.20001220703</ele>
        <time>2025-08-08T12:30:49.000Z</time>
      </trkpt>
      <trkpt lat="45.92039" lon="6.07806">
        <ele>513</ele>
        <time>2025-08-08T12:30:52.000Z</time>
      </trkpt>
      <trkpt lat="45.9204" lon="6.07821">
        <ele>512.40002441406</ele>
        <time>2025-08-08T12:30:53.000Z</time>
      </trkpt>
      <trkpt lat="45.92041" lon="6.07836">
        <ele>511.60000610352</ele>
        <time>2025-08-08T12:30:54.000Z</time>
      </trkpt>
      <trkpt lat="45.92043" lon="6.07878">
        <ele>510.20001220703</ele>
        <time>2025-08-08T12:30:57.000Z</time>
      </trkpt>
      <trkpt lat="45.92044" lon="6.07892">
        <ele>509.39999389648</ele>
        <time>2025-08-08T12:30:58.000Z</time>
      </trkpt>
      <trkpt lat="45.92047" lon="6.07905">
        <ele>508.79998779297</ele>
        <time>2025-08-08T12:30:59.000Z</time>
      </trkpt>
      <trkpt lat="45.9205" lon="6.07917">
        <ele>508.20001220703</ele>
        <time>2025-08-08T12:31:00.000Z</time>
      </trkpt>
      <trkpt lat="45.92055" lon="6.07929">
        <ele>507.60000610352</ele>
        <time>2025-08-08T12:31:01.000Z</time>
      </trkpt>
      <trkpt lat="45.92062" lon="6.0794">
        <ele>507</ele>
        <time>2025-08-08T12:31:02.000Z</time>
      </trkpt>
      <trkpt lat="45.92069" lon="6.07949">
        <ele>506</ele>
        <time>2025-08-08T12:31:03.000Z</time>
      </trkpt>
      <trkpt lat="45.92077" lon="6.07956">
        <ele>505.79998779297</ele>
        <time>2025-08-08T12:31:04.000Z</time>
      </trkpt>
      <trkpt lat="45.92092" lon="6.07969">
        <ele>504.79998779297</ele>
        <time>2025-08-08T12:31:06.000Z</time>
      </trkpt>
      <trkpt lat="45.921" lon="6.07976">
        <ele>504</ele>
        <time>2025-08-08T12:31:07.000Z</time>
      </trkpt>
      <trkpt lat="45.92108" lon="6.07984">
        <ele>503.79998779297</ele>
        <time>2025-08-08T12:31:08.000Z</time>
      </trkpt>
      <trkpt lat="45.92121" lon="6.07998">
        <ele>502.79998779297</ele>
        <time>2025-08-08T12:31:10.000Z</time>
      </trkpt>
      <trkpt lat="45.92126" lon="6.08006">
        <ele>502.20001220703</ele>
        <time>2025-08-08T12:31:11.000Z</time>
      </trkpt>
      <trkpt lat="45.92132" lon="6.08013">
        <ele>501.20001220703</ele>
        <time>2025-08-08T12:31:12.000Z</time>
      </trkpt>
      <trkpt lat="45.92137" lon="6.08022">
        <ele>500.79998779297</ele>
        <time>2025-08-08T12:31:13.000Z</time>
      </trkpt>
      <trkpt lat="45.92142" lon="6.08032">
        <ele>500.20001220703</ele>
        <time>2025-08-08T12:31:14.000Z</time>
      </trkpt>
      <trkpt lat="45.92144" lon="6.08042">
        <ele>500</ele>
        <time>2025-08-08T12:31:15.000Z</time>
      </trkpt>
      <trkpt lat="45.92143" lon="6.08065">
        <ele>499.39999389648</ele>
        <time>2025-08-08T12:31:17.000Z</time>
      </trkpt>
      <trkpt lat="45.92139" lon="6.08076">
        <ele>498.79998779297</ele>
        <time>2025-08-08T12:31:18.000Z</time>
      </trkpt>
      <trkpt lat="45.92133" lon="6.08085">
        <ele>498.39999389648</ele>
        <time>2025-08-08T12:31:19.000Z</time>
      </trkpt>
      <trkpt lat="45.92126" lon="6.08092">
        <ele>497.60000610352</ele>
        <time>2025-08-08T12:31:20.000Z</time>
      </trkpt>
      <trkpt lat="45.92119" lon="6.08097">
        <ele>497.39999389648</ele>
        <time>2025-08-08T12:31:21.000Z</time>
      </trkpt>
      <trkpt lat="45.9211" lon="6.08099">
        <ele>496.20001220703</ele>
        <time>2025-08-08T12:31:22.000Z</time>
      </trkpt>
      <trkpt lat="45.92102" lon="6.08099">
        <ele>495.60000610352</ele>
        <time>2025-08-08T12:31:23.000Z</time>
      </trkpt>
      <trkpt lat="45.92093" lon="6.08097">
        <ele>495.20001220703</ele>
        <time>2025-08-08T12:31:24.000Z</time>
      </trkpt>
      <trkpt lat="45.92076" lon="6.08094">
        <ele>493.79998779297</ele>
        <time>2025-08-08T12:31:26.000Z</time>
      </trkpt>
      <trkpt lat="45.9206" lon="6.08091">
        <ele>492.79998779297</ele>
        <time>2025-08-08T12:31:28.000Z</time>
      </trkpt>
      <trkpt lat="45.92053" lon="6.08091">
        <ele>492.39999389648</ele>
        <time>2025-08-08T12:31:29.000Z</time>
      </trkpt>
      <trkpt lat="45.92045" lon="6.08094">
        <ele>492</ele>
        <time>2025-08-08T12:31:30.000Z</time>
      </trkpt>
      <trkpt lat="45.92038" lon="6.081">
        <ele>491.20001220703</ele>
        <time>2025-08-08T12:31:31.000Z</time>
      </trkpt>
      <trkpt lat="45.92033" lon="6.08108">
        <ele>490.79998779297</ele>
        <time>2025-08-08T12:31:32.000Z</time>
      </trkpt>
      <trkpt lat="45.92027" lon="6.08127">
        <ele>489.79998779297</ele>
        <time>2025-08-08T12:31:34.000Z</time>
      </trkpt>
      <trkpt lat="45.92026" lon="6.08136">
        <ele>489.39999389648</ele>
        <time>2025-08-08T12:31:35.000Z</time>
      </trkpt>
      <trkpt lat="45.92026" lon="6.08145">
        <ele>488.39999389648</ele>
        <time>2025-08-08T12:31:36.000Z</time>
      </trkpt>
      <trkpt lat="45.92025" lon="6.08154">
        <ele>488</ele>
        <time>2025-08-08T12:31:37.000Z</time>
      </trkpt>
      <trkpt lat="45.92024" lon="6.08163">
        <ele>487.20001220703</ele>
        <time>2025-08-08T12:31:38.000Z</time>
      </trkpt>
      <trkpt lat="45.92021" lon="6.08171">
        <ele>486.79998779297</ele>
        <time>2025-08-08T12:31:39.000Z</time>
      </trkpt>
      <trkpt lat="45.92019" lon="6.08179">
        <ele>486.60000610352</ele>
        <time>2025-08-08T12:31:40.000Z</time>
      </trkpt>
      <trkpt lat="45.92018" lon="6.08197">
        <ele>486.20001220703</ele>
        <time>2025-08-08T12:31:42.000Z</time>
      </trkpt>
      <trkpt lat="45.92019" lon="6.08207">
        <ele>486</ele>
        <time>2025-08-08T12:31:43.000Z</time>
      </trkpt>
      <trkpt lat="45.92019" lon="6.08217">
        <ele>485.79998779297</ele>
        <time>2025-08-08T12:31:44.000Z</time>
      </trkpt>
      <trkpt lat="45.92016" lon="6.08238">
        <ele>485.20001220703</ele>
        <time>2025-08-08T12:31:46.000Z</time>
      </trkpt>
      <trkpt lat="45.92012" lon="6.08248">
        <ele>484.79998779297</ele>
        <time>2025-08-08T12:31:47.000Z</time>
      </trkpt>
      <trkpt lat="45.92004" lon="6.08266">
        <ele>484.20001220703</ele>
        <time>2025-08-08T12:31:49.000Z</time>
      </trkpt>
      <trkpt lat="45.91998" lon="6.08274">
        <ele>484</ele>
        <time>2025-08-08T12:31:50.000Z</time>
      </trkpt>
      <trkpt lat="45.91987" lon="6.08288">
        <ele>483.60000610352</ele>
        <time>2025-08-08T12:31:52.000Z</time>
      </trkpt>
      <trkpt lat="45.91981" lon="6.08294">
        <ele>483.39999389648</ele>
        <time>2025-08-08T12:31:53.000Z</time>
      </trkpt>
      <trkpt lat="45.91974" lon="6.08297">
        <ele>483.20001220703</ele>
        <time>2025-08-08T12:31:54.000Z</time>
      </trkpt>
      <trkpt lat="45.91961" lon="6.08303">
        <ele>482.60000610352</ele>
        <time>2025-08-08T12:31:56.000Z</time>
      </trkpt>
      <trkpt lat="45.9195" lon="6.08315">
        <ele>482.20001220703</ele>
        <time>2025-08-08T12:31:58.000Z</time>
      </trkpt>
      <trkpt lat="45.91944" lon="6.08322">
        <ele>482</ele>
        <time>2025-08-08T12:31:59.000Z</time>
      </trkpt>
      <trkpt lat="45.91931" lon="6.08329">
        <ele>481.79998779297</ele>
        <time>2025-08-08T12:32:01.000Z</time>
      </trkpt>
      <trkpt lat="45.91924" lon="6.08329">
        <ele>481.60000610352</ele>
        <time>2025-08-08T12:32:02.000Z</time>
      </trkpt>
      <trkpt lat="45.91917" lon="6.08327">
        <ele>481.20001220703</ele>
        <time>2025-08-08T12:32:03.000Z</time>
      </trkpt>
      <trkpt lat="45.91911" lon="6.08323">
        <ele>481</ele>
        <time>2025-08-08T12:32:04.000Z</time>
      </trkpt>
      <trkpt lat="45.91885" lon="6.08301">
        <ele>480.39999389648</ele>
        <time>2025-08-08T12:32:08.000Z</time>
      </trkpt>
      <trkpt lat="45.91878" lon="6.08296">
        <ele>480.20001220703</ele>
        <time>2025-08-08T12:32:09.000Z</time>
      </trkpt>
      <trkpt lat="45.91864" lon="6.08289">
        <ele>480</ele>
        <time>2025-08-08T12:32:11.000Z</time>
      </trkpt>
      <trkpt lat="45.9185" lon="6.08288">
        <ele>480</ele>
        <time>2025-08-08T12:32:13.000Z</time>
      </trkpt>
      <trkpt lat="45.91836" lon="6.0829">
        <ele>479.79998779297</ele>
        <time>2025-08-08T12:32:15.000Z</time>
      </trkpt>
      <trkpt lat="45.91823" lon="6.08299">
        <ele>479.79998779297</ele>
        <time>2025-08-08T12:32:17.000Z</time>
      </trkpt>
      <trkpt lat="45.91812" lon="6.08311">
        <ele>479.39999389648</ele>
        <time>2025-08-08T12:32:19.000Z</time>
      </trkpt>
      <trkpt lat="45.91783" lon="6.08343">
        <ele>478.60000610352</ele>
        <time>2025-08-08T12:32:24.000Z</time>
      </trkpt>
      <trkpt lat="45.91777" lon="6.08349">
        <ele>478.39999389648</ele>
        <time>2025-08-08T12:32:25.000Z</time>
      </trkpt>
      <trkpt lat="45.91752" lon="6.08373">
        <ele>477.39999389648</ele>
        <time>2025-08-08T12:32:30.000Z</time>
      </trkpt>
      <trkpt lat="45.91747" lon="6.08378">
        <ele>477.20001220703</ele>
        <time>2025-08-08T12:32:31.000Z</time>
      </trkpt>
      <trkpt lat="45.91743" lon="6.08386">
        <ele>477</ele>
        <time>2025-08-08T12:32:33.000Z</time>
      </trkpt>
      <trkpt lat="45.91741" lon="6.08393">
        <ele>476.60000610352</ele>
        <time>2025-08-08T12:32:34.000Z</time>
      </trkpt>
      <trkpt lat="45.91743" lon="6.0841">
        <ele>476.39999389648</ele>
        <time>2025-08-08T12:32:35.000Z</time>
      </trkpt>
      <trkpt lat="45.91746" lon="6.08421">
        <ele>476.20001220703</ele>
        <time>2025-08-08T12:32:36.000Z</time>
      </trkpt>
      <trkpt lat="45.91747" lon="6.08431">
        <ele>476.20001220703</ele>
        <time>2025-08-08T12:32:37.000Z</time>
      </trkpt>
      <trkpt lat="45.91747" lon="6.08431">
        <ele>475.79998779297</ele>
        <time>2025-08-08T12:32:38.000Z</time>
      </trkpt>
      <trkpt lat="45.91747" lon="6.08442">
        <ele>475.60000610352</ele>
        <time>2025-08-08T12:32:39.000Z</time>
      </trkpt>
      <trkpt lat="45.91745" lon="6.08461">
        <ele>475.39999389648</ele>
        <time>2025-08-08T12:32:40.000Z</time>
      </trkpt>
      <trkpt lat="45.91742" lon="6.08486">
        <ele>474.79998779297</ele>
        <time>2025-08-08T12:32:43.000Z</time>
      </trkpt>
      <trkpt lat="45.91737" lon="6.08532">
        <ele>474.60000610352</ele>
        <time>2025-08-08T12:32:46.000Z</time>
      </trkpt>
      <trkpt lat="45.91728" lon="6.08614">
        <ele>474.20001220703</ele>
        <time>2025-08-08T12:32:54.000Z</time>
      </trkpt>
      <trkpt lat="45.91725" lon="6.08654">
        <ele>474.39999389648</ele>
        <time>2025-08-08T12:32:57.000Z</time>
      </trkpt>
      <trkpt lat="45.91719" lon="6.08697">
        <ele>476.20001220703</ele>
        <time>2025-08-08T12:33:03.000Z</time>
      </trkpt>
      <trkpt lat="45.91717" lon="6.08712">
        <ele>476.79998779297</ele>
        <time>2025-08-08T12:33:05.000Z</time>
      </trkpt>
      <trkpt lat="45.91715" lon="6.08734">
        <ele>477.20001220703</ele>
        <time>2025-08-08T12:33:09.000Z</time>
      </trkpt>
      <trkpt lat="45.9171" lon="6.08764">
        <ele>477.39999389648</ele>
        <time>2025-08-08T12:33:15.000Z</time>
      </trkpt>
      <trkpt lat="45.91707" lon="6.08792">
        <ele>478</ele>
        <time>2025-08-08T12:33:22.000Z</time>
      </trkpt>
      <trkpt lat="45.91704" lon="6.08809">
        <ele>478.20001220703</ele>
        <time>2025-08-08T12:33:25.000Z</time>
      </trkpt>
      <trkpt lat="45.917" lon="6.08821">
        <ele>478.20001220703</ele>
        <time>2025-08-08T12:33:27.000Z</time>
      </trkpt>
      <trkpt lat="45.91692" lon="6.0884">
        <ele>478.39999389648</ele>
        <time>2025-08-08T12:33:30.000Z</time>
      </trkpt>
      <trkpt lat="45.91691" lon="6.08847">
        <ele>478.39999389648</ele>
        <time>2025-08-08T12:33:31.000Z</time>
      </trkpt>
      <trkpt lat="45.91686" lon="6.08869">
        <ele>478.39999389648</ele>
        <time>2025-08-08T12:33:33.000Z</time>
      </trkpt>
      <trkpt lat="45.91681" lon="6.08882">
        <ele>478.79998779297</ele>
        <time>2025-08-08T12:33:36.000Z</time>
      </trkpt>
      <trkpt lat="45.91658" lon="6.08923">
        <ele>479</ele>
        <time>2025-08-08T12:33:43.000Z</time>
      </trkpt>
      <trkpt lat="45.91651" lon="6.08934">
        <ele>479</ele>
        <time>2025-08-08T12:33:45.000Z</time>
      </trkpt>
      <trkpt lat="45.91636" lon="6.08956">
        <ele>479</ele>
        <time>2025-08-08T12:33:49.000Z</time>
      </trkpt>
      <trkpt lat="45.91615" lon="6.08993">
        <ele>479.20001220703</ele>
        <time>2025-08-08T12:33:56.000Z</time>
      </trkpt>
      <trkpt lat="45.91612" lon="6.08999">
        <ele>479.20001220703</ele>
        <time>2025-08-08T12:33:57.000Z</time>
      </trkpt>
      <trkpt lat="45.9161" lon="6.09005">
        <ele>479.20001220703</ele>
        <time>2025-08-08T12:33:58.000Z</time>
      </trkpt>
      <trkpt lat="45.916" lon="6.0903">
        <ele>479.20001220703</ele>
        <time>2025-08-08T12:34:02.000Z</time>
      </trkpt>
      <trkpt lat="45.91582" lon="6.09069">
        <ele>479.39999389648</ele>
        <time>2025-08-08T12:34:09.000Z</time>
      </trkpt>
      <trkpt lat="45.91574" lon="6.09078">
        <ele>479.60000610352</ele>
        <time>2025-08-08T12:34:11.000Z</time>
      </trkpt>
      <trkpt lat="45.91559" lon="6.09089">
        <ele>479.79998779297</ele>
        <time>2025-08-08T12:34:14.000Z</time>
      </trkpt>
      <trkpt lat="45.91543" lon="6.09097">
        <ele>480</ele>
        <time>2025-08-08T12:34:17.000Z</time>
      </trkpt>
      <trkpt lat="45.91532" lon="6.09106">
        <ele>479.79998779297</ele>
        <time>2025-08-08T12:34:19.000Z</time>
      </trkpt>
      <trkpt lat="45.91508" lon="6.09129">
        <ele>479.60000610352</ele>
        <time>2025-08-08T12:34:25.000Z</time>
      </trkpt>
      <trkpt lat="45.91501" lon="6.09136">
        <ele>479.39999389648</ele>
        <time>2025-08-08T12:34:27.000Z</time>
      </trkpt>
      <trkpt lat="45.91485" lon="6.09152">
        <ele>479.60000610352</ele>
        <time>2025-08-08T12:34:31.000Z</time>
      </trkpt>
      <trkpt lat="45.9146" lon="6.09185">
        <ele>480.20001220703</ele>
        <time>2025-08-08T12:34:36.000Z</time>
      </trkpt>
      <trkpt lat="45.91449" lon="6.09206">
        <ele>480.20001220703</ele>
        <time>2025-08-08T12:34:39.000Z</time>
      </trkpt>
      <trkpt lat="45.91423" lon="6.09257">
        <ele>480.39999389648</ele>
        <time>2025-08-08T12:34:46.000Z</time>
      </trkpt>
      <trkpt lat="45.91387" lon="6.09321">
        <ele>480.39999389648</ele>
        <time>2025-08-08T12:34:56.000Z</time>
      </trkpt>
      <trkpt lat="45.91357" lon="6.09368">
        <ele>480.79998779297</ele>
        <time>2025-08-08T12:35:03.000Z</time>
      </trkpt>
      <trkpt lat="45.91318" lon="6.09436">
        <ele>480.20001220703</ele>
        <time>2025-08-08T12:35:12.000Z</time>
      </trkpt>
      <trkpt lat="45.91303" lon="6.09463">
        <ele>480.20001220703</ele>
        <time>2025-08-08T12:35:16.000Z</time>
      </trkpt>
      <trkpt lat="45.91299" lon="6.09469">
        <ele>480.20001220703</ele>
        <time>2025-08-08T12:35:18.000Z</time>
      </trkpt>
      <trkpt lat="45.91272" lon="6.09492">
        <ele>480.20001220703</ele>
        <time>2025-08-08T12:35:23.000Z</time>
      </trkpt>
      <trkpt lat="45.91248" lon="6.09506">
        <ele>480.20001220703</ele>
        <time>2025-08-08T12:35:26.000Z</time>
      </trkpt>
      <trkpt lat="45.91233" lon="6.09511">
        <ele>480</ele>
        <time>2025-08-08T12:35:29.000Z</time>
      </trkpt>
      <trkpt lat="45.912" lon="6.09519">
        <ele>479</ele>
        <time>2025-08-08T12:35:34.000Z</time>
      </trkpt>
      <trkpt lat="45.91189" lon="6.09522">
        <ele>478.60000610352</ele>
        <time>2025-08-08T12:35:36.000Z</time>
      </trkpt>
      <trkpt lat="45.91183" lon="6.09523">
        <ele>477.60000610352</ele>
        <time>2025-08-08T12:35:38.000Z</time>
      </trkpt>
      <trkpt lat="45.91181" lon="6.09524">
        <ele>477.39999389648</ele>
        <time>2025-08-08T12:35:39.000Z</time>
      </trkpt>
      <trkpt lat="45.91181" lon="6.09524">
        <ele>476.79998779297</ele>
        <time>2025-08-08T12:35:40.000Z</time>
      </trkpt>
      <trkpt lat="45.91175" lon="6.09525">
        <ele>475.60000610352</ele>
        <time>2025-08-08T12:35:46.000Z</time>
      </trkpt>
      <trkpt lat="45.91167" lon="6.09527">
        <ele>475.39999389648</ele>
        <time>2025-08-08T12:35:48.000Z</time>
      </trkpt>
      <trkpt lat="45.91141" lon="6.09532">
        <ele>475</ele>
        <time>2025-08-08T12:35:53.000Z</time>
      </trkpt>
      <trkpt lat="45.91113" lon="6.09538">
        <ele>474.60000610352</ele>
        <time>2025-08-08T12:35:57.000Z</time>
      </trkpt>
      <trkpt lat="45.91097" lon="6.09541">
        <ele>474.20001220703</ele>
        <time>2025-08-08T12:35:59.000Z</time>
      </trkpt>
      <trkpt lat="45.91081" lon="6.09545">
        <ele>473.60000610352</ele>
        <time>2025-08-08T12:36:01.000Z</time>
      </trkpt>
      <trkpt lat="45.91047" lon="6.09553">
        <ele>472</ele>
        <time>2025-08-08T12:36:05.000Z</time>
      </trkpt>
      <trkpt lat="45.91038" lon="6.09555">
        <ele>471.60000610352</ele>
        <time>2025-08-08T12:36:06.000Z</time>
      </trkpt>
      <trkpt lat="45.91012" lon="6.0956">
        <ele>470.60000610352</ele>
        <time>2025-08-08T12:36:09.000Z</time>
      </trkpt>
      <trkpt lat="45.90997" lon="6.09562">
        <ele>469.79998779297</ele>
        <time>2025-08-08T12:36:11.000Z</time>
      </trkpt>
      <trkpt lat="45.9098" lon="6.0957">
        <ele>469.39999389648</ele>
        <time>2025-08-08T12:36:13.000Z</time>
      </trkpt>
      <trkpt lat="45.90964" lon="6.0958">
        <ele>468.39999389648</ele>
        <time>2025-08-08T12:36:15.000Z</time>
      </trkpt>
      <trkpt lat="45.90957" lon="6.09587">
        <ele>468</ele>
        <time>2025-08-08T12:36:16.000Z</time>
      </trkpt>
      <trkpt lat="45.90939" lon="6.09606">
        <ele>466.79998779297</ele>
        <time>2025-08-08T12:36:19.000Z</time>
      </trkpt>
      <trkpt lat="45.90934" lon="6.09613">
        <ele>466.39999389648</ele>
        <time>2025-08-08T12:36:20.000Z</time>
      </trkpt>
      <trkpt lat="45.9093" lon="6.09619">
        <ele>466.20001220703</ele>
        <time>2025-08-08T12:36:21.000Z</time>
      </trkpt>
      <trkpt lat="45.90927" lon="6.09626">
        <ele>465.60000610352</ele>
        <time>2025-08-08T12:36:22.000Z</time>
      </trkpt>
      <trkpt lat="45.90924" lon="6.09631">
        <ele>464.60000610352</ele>
        <time>2025-08-08T12:36:24.000Z</time>
      </trkpt>
      <trkpt lat="45.90919" lon="6.0964">
        <ele>464</ele>
        <time>2025-08-08T12:36:25.000Z</time>
      </trkpt>
      <trkpt lat="45.90913" lon="6.09653">
        <ele>463</ele>
        <time>2025-08-08T12:36:28.000Z</time>
      </trkpt>
      <trkpt lat="45.90912" lon="6.09656">
        <ele>462.60000610352</ele>
        <time>2025-08-08T12:36:29.000Z</time>
      </trkpt>
      <trkpt lat="45.90902" lon="6.09678">
        <ele>461.60000610352</ele>
        <time>2025-08-08T12:36:33.000Z</time>
      </trkpt>
      <trkpt lat="45.90897" lon="6.09695">
        <ele>461.20001220703</ele>
        <time>2025-08-08T12:36:35.000Z</time>
      </trkpt>
      <trkpt lat="45.90891" lon="6.09708">
        <ele>460.60000610352</ele>
        <time>2025-08-08T12:36:37.000Z</time>
      </trkpt>
      <trkpt lat="45.90889" lon="6.09713">
        <ele>460.20001220703</ele>
        <time>2025-08-08T12:36:38.000Z</time>
      </trkpt>
      <trkpt lat="45.90884" lon="6.09723">
        <ele>459.79998779297</ele>
        <time>2025-08-08T12:36:40.000Z</time>
      </trkpt>
      <trkpt lat="45.9088" lon="6.09735">
        <ele>459.39999389648</ele>
        <time>2025-08-08T12:36:42.000Z</time>
      </trkpt>
      <trkpt lat="45.90877" lon="6.09741">
        <ele>459.20001220703</ele>
        <time>2025-08-08T12:36:43.000Z</time>
      </trkpt>
      <trkpt lat="45.90858" lon="6.09787">
        <ele>458.79998779297</ele>
        <time>2025-08-08T12:36:50.000Z</time>
      </trkpt>
      <trkpt lat="45.90841" lon="6.09834">
        <ele>460.39999389648</ele>
        <time>2025-08-08T12:36:58.000Z</time>
      </trkpt>
      <trkpt lat="45.9083" lon="6.09864">
        <ele>461.60000610352</ele>
        <time>2025-08-08T12:37:04.000Z</time>
      </trkpt>
      <trkpt lat="45.90828" lon="6.09869">
        <ele>461.79998779297</ele>
        <time>2025-08-08T12:37:05.000Z</time>
      </trkpt>
      <trkpt lat="45.90818" lon="6.099">
        <ele>462.79998779297</ele>
        <time>2025-08-08T12:37:11.000Z</time>
      </trkpt>
      <trkpt lat="45.90814" lon="6.09915">
        <ele>463.20001220703</ele>
        <time>2025-08-08T12:37:14.000Z</time>
      </trkpt>
      <trkpt lat="45.90808" lon="6.09941">
        <ele>463.79998779297</ele>
        <time>2025-08-08T12:37:19.000Z</time>
      </trkpt>
      <trkpt lat="45.90804" lon="6.09962">
        <ele>464.39999389648</ele>
        <time>2025-08-08T12:37:23.000Z</time>
      </trkpt>
      <trkpt lat="45.90801" lon="6.09979">
        <ele>465</ele>
        <time>2025-08-08T12:37:27.000Z</time>
      </trkpt>
      <trkpt lat="45.90794" lon="6.10034">
        <ele>465.79998779297</ele>
        <time>2025-08-08T12:37:35.000Z</time>
      </trkpt>
      <trkpt lat="45.90792" lon="6.10075">
        <ele>465.79998779297</ele>
        <time>2025-08-08T12:37:41.000Z</time>
      </trkpt>
      <trkpt lat="45.90794" lon="6.1013">
        <ele>466</ele>
        <time>2025-08-08T12:37:48.000Z</time>
      </trkpt>
      <trkpt lat="45.90798" lon="6.10144">
        <ele>466</ele>
        <time>2025-08-08T12:37:50.000Z</time>
      </trkpt>
      <trkpt lat="45.90804" lon="6.10166">
        <ele>466.39999389648</ele>
        <time>2025-08-08T12:37:53.000Z</time>
      </trkpt>
      <trkpt lat="45.90813" lon="6.1022">
        <ele>467.20001220703</ele>
        <time>2025-08-08T12:38:01.000Z</time>
      </trkpt>
      <trkpt lat="45.90814" lon="6.10227">
        <ele>467.39999389648</ele>
        <time>2025-08-08T12:38:02.000Z</time>
      </trkpt>
      <trkpt lat="45.90815" lon="6.10234">
        <ele>467.60000610352</ele>
        <time>2025-08-08T12:38:03.000Z</time>
      </trkpt>
      <trkpt lat="45.90815" lon="6.10247">
        <ele>468.20001220703</ele>
        <time>2025-08-08T12:38:05.000Z</time>
      </trkpt>
      <trkpt lat="45.90815" lon="6.10261">
        <ele>468.60000610352</ele>
        <time>2025-08-08T12:38:07.000Z</time>
      </trkpt>
      <trkpt lat="45.90814" lon="6.10275">
        <ele>468.79998779297</ele>
        <time>2025-08-08T12:38:09.000Z</time>
      </trkpt>
      <trkpt lat="45.90811" lon="6.10302">
        <ele>469.39999389648</ele>
        <time>2025-08-08T12:38:13.000Z</time>
      </trkpt>
      <trkpt lat="45.90809" lon="6.10314">
        <ele>469.60000610352</ele>
        <time>2025-08-08T12:38:15.000Z</time>
      </trkpt>
      <trkpt lat="45.90804" lon="6.10342">
        <ele>470</ele>
        <time>2025-08-08T12:38:20.000Z</time>
      </trkpt>
      <trkpt lat="45.90798" lon="6.10378">
        <ele>470.60000610352</ele>
        <time>2025-08-08T12:38:28.000Z</time>
      </trkpt>
      <trkpt lat="45.90795" lon="6.10394">
        <ele>470.60000610352</ele>
        <time>2025-08-08T12:38:31.000Z</time>
      </trkpt>
      <trkpt lat="45.90792" lon="6.10411">
        <ele>471.20001220703</ele>
        <time>2025-08-08T12:38:34.000Z</time>
      </trkpt>
      <trkpt lat="45.90791" lon="6.10422">
        <ele>471.39999389648</ele>
        <time>2025-08-08T12:38:36.000Z</time>
      </trkpt>
      <trkpt lat="45.90787" lon="6.10446">
        <ele>471.79998779297</ele>
        <time>2025-08-08T12:38:40.000Z</time>
      </trkpt>
      <trkpt lat="45.90784" lon="6.10481">
        <ele>472.39999389648</ele>
        <time>2025-08-08T12:38:46.000Z</time>
      </trkpt>
      <trkpt lat="45.9078" lon="6.10509">
        <ele>473</ele>
        <time>2025-08-08T12:38:51.000Z</time>
      </trkpt>
      <trkpt lat="45.90772" lon="6.10527">
        <ele>473.60000610352</ele>
        <time>2025-08-08T12:38:55.000Z</time>
      </trkpt>
      <trkpt lat="45.90768" lon="6.10545">
        <ele>474</ele>
        <time>2025-08-08T12:38:58.000Z</time>
      </trkpt>
      <trkpt lat="45.90768" lon="6.1055">
        <ele>474.20001220703</ele>
        <time>2025-08-08T12:38:59.000Z</time>
      </trkpt>
      <trkpt lat="45.90772" lon="6.10569">
        <ele>474.20001220703</ele>
        <time>2025-08-08T12:39:02.000Z</time>
      </trkpt>
      <trkpt lat="45.90773" lon="6.10574">
        <ele>474.39999389648</ele>
        <time>2025-08-08T12:39:03.000Z</time>
      </trkpt>
      <trkpt lat="45.90773" lon="6.10579">
        <ele>474.60000610352</ele>
        <time>2025-08-08T12:39:04.000Z</time>
      </trkpt>
      <trkpt lat="45.90771" lon="6.10598">
        <ele>474.79998779297</ele>
        <time>2025-08-08T12:39:07.000Z</time>
      </trkpt>
      <trkpt lat="45.90769" lon="6.10608">
        <ele>475.20001220703</ele>
        <time>2025-08-08T12:39:09.000Z</time>
      </trkpt>
      <trkpt lat="45.90763" lon="6.10648">
        <ele>476.20001220703</ele>
        <time>2025-08-08T12:39:16.000Z</time>
      </trkpt>
      <trkpt lat="45.90755" lon="6.10696">
        <ele>477.39999389648</ele>
        <time>2025-08-08T12:39:25.000Z</time>
      </trkpt>
      <trkpt lat="45.90753" lon="6.10709">
        <ele>477.39999389648</ele>
        <time>2025-08-08T12:39:26.000Z</time>
      </trkpt>
      <trkpt lat="45.90745" lon="6.10758">
        <ele>477.60000610352</ele>
        <time>2025-08-08T12:39:33.000Z</time>
      </trkpt>
      <trkpt lat="45.90741" lon="6.1077">
        <ele>477.60000610352</ele>
        <time>2025-08-08T12:39:35.000Z</time>
      </trkpt>
      <trkpt lat="45.90734" lon="6.10791">
        <ele>477.60000610352</ele>
        <time>2025-08-08T12:39:38.000Z</time>
      </trkpt>
      <trkpt lat="45.90725" lon="6.10857">
        <ele>478.20001220703</ele>
        <time>2025-08-08T12:39:47.000Z</time>
      </trkpt>
      <trkpt lat="45.90723" lon="6.10872">
        <ele>478.39999389648</ele>
        <time>2025-08-08T12:39:49.000Z</time>
      </trkpt>
      <trkpt lat="45.90715" lon="6.10917">
        <ele>478.79998779297</ele>
        <time>2025-08-08T12:39:56.000Z</time>
      </trkpt>
      <trkpt lat="45.90713" lon="6.10929">
        <ele>478.79998779297</ele>
        <time>2025-08-08T12:39:57.000Z</time>
      </trkpt>
      <trkpt lat="45.90709" lon="6.10957">
        <ele>479</ele>
        <time>2025-08-08T12:40:01.000Z</time>
      </trkpt>
      <trkpt lat="45.90706" lon="6.1098">
        <ele>479.39999389648</ele>
        <time>2025-08-08T12:40:04.000Z</time>
      </trkpt>
      <trkpt lat="45.90705" lon="6.10986">
        <ele>479.39999389648</ele>
        <time>2025-08-08T12:40:05.000Z</time>
      </trkpt>
      <trkpt lat="45.90704" lon="6.10993">
        <ele>479.60000610352</ele>
        <time>2025-08-08T12:40:06.000Z</time>
      </trkpt>
      <trkpt lat="45.90704" lon="6.10999">
        <ele>479.60000610352</ele>
        <time>2025-08-08T12:40:07.000Z</time>
      </trkpt>
      <trkpt lat="45.90699" lon="6.11014">
        <ele>479.60000610352</ele>
        <time>2025-08-08T12:40:09.000Z</time>
      </trkpt>
      <trkpt lat="45.90696" lon="6.1103">
        <ele>479.60000610352</ele>
        <time>2025-08-08T12:40:11.000Z</time>
      </trkpt>
      <trkpt lat="45.90686" lon="6.1109">
        <ele>480</ele>
        <time>2025-08-08T12:40:19.000Z</time>
      </trkpt>
      <trkpt lat="45.90681" lon="6.11128">
        <ele>480.39999389648</ele>
        <time>2025-08-08T12:40:24.000Z</time>
      </trkpt>
      <trkpt lat="45.90677" lon="6.11152">
        <ele>480.60000610352</ele>
        <time>2025-08-08T12:40:27.000Z</time>
      </trkpt>
      <trkpt lat="45.90676" lon="6.11158">
        <ele>480.60000610352</ele>
        <time>2025-08-08T12:40:28.000Z</time>
      </trkpt>
      <trkpt lat="45.90665" lon="6.11232">
        <ele>480.79998779297</ele>
        <time>2025-08-08T12:40:37.000Z</time>
      </trkpt>
      <trkpt lat="45.90652" lon="6.11311">
        <ele>480.79998779297</ele>
        <time>2025-08-08T12:40:47.000Z</time>
      </trkpt>
      <trkpt lat="45.90647" lon="6.11339">
        <ele>480.79998779297</ele>
        <time>2025-08-08T12:40:51.000Z</time>
      </trkpt>
      <trkpt lat="45.90642" lon="6.11354">
        <ele>480.79998779297</ele>
        <time>2025-08-08T12:40:53.000Z</time>
      </trkpt>
      <trkpt lat="45.9064" lon="6.11359">
        <ele>481</ele>
        <time>2025-08-08T12:40:54.000Z</time>
      </trkpt>
      <trkpt lat="45.90636" lon="6.11382">
        <ele>480.79998779297</ele>
        <time>2025-08-08T12:40:57.000Z</time>
      </trkpt>
      <trkpt lat="45.90631" lon="6.11414">
        <ele>481.20001220703</ele>
        <time>2025-08-08T12:41:02.000Z</time>
      </trkpt>
      <trkpt lat="45.90624" lon="6.11438">
        <ele>481</ele>
        <time>2025-08-08T12:41:07.000Z</time>
      </trkpt>
      <trkpt lat="45.90621" lon="6.11442">
        <ele>481</ele>
        <time>2025-08-08T12:41:08.000Z</time>
      </trkpt>
      <trkpt lat="45.90618" lon="6.11449">
        <ele>481</ele>
        <time>2025-08-08T12:41:10.000Z</time>
      </trkpt>
      <trkpt lat="45.90618" lon="6.11455">
        <ele>481</ele>
        <time>2025-08-08T12:41:11.000Z</time>
      </trkpt>
      <trkpt lat="45.90619" lon="6.11481">
        <ele>480.79998779297</ele>
        <time>2025-08-08T12:41:13.000Z</time>
      </trkpt>
      <trkpt lat="45.90618" lon="6.11533">
        <ele>480.79998779297</ele>
        <time>2025-08-08T12:41:19.000Z</time>
      </trkpt>
      <trkpt lat="45.90612" lon="6.11576">
        <ele>481.60000610352</ele>
        <time>2025-08-08T12:41:25.000Z</time>
      </trkpt>
      <trkpt lat="45.9061" lon="6.11583">
        <ele>481.60000610352</ele>
        <time>2025-08-08T12:41:26.000Z</time>
      </trkpt>
      <trkpt lat="45.90603" lon="6.11613">
        <ele>481.60000610352</ele>
        <time>2025-08-08T12:41:29.000Z</time>
      </trkpt>
      <trkpt lat="45.90602" lon="6.11621">
        <ele>481.60000610352</ele>
        <time>2025-08-08T12:41:31.000Z</time>
      </trkpt>
      <trkpt lat="45.90601" lon="6.11631">
        <ele>481.60000610352</ele>
        <time>2025-08-08T12:41:33.000Z</time>
      </trkpt>
      <trkpt lat="45.90599" lon="6.11638">
        <ele>481.60000610352</ele>
        <time>2025-08-08T12:41:35.000Z</time>
      </trkpt>
      <trkpt lat="45.90598" lon="6.1164">
        <ele>481.79998779297</ele>
        <time>2025-08-08T12:41:36.000Z</time>
      </trkpt>
      <trkpt lat="45.90597" lon="6.11641">
        <ele>481.79998779297</ele>
        <time>2025-08-08T12:41:38.000Z</time>
      </trkpt>
      <trkpt lat="45.90597" lon="6.11641">
        <ele>481.79998779297</ele>
        <time>2025-08-08T12:41:39.000Z</time>
      </trkpt>
      <trkpt lat="45.90592" lon="6.1168">
        <ele>481.39999389648</ele>
        <time>2025-08-08T12:42:26.000Z</time>
      </trkpt>
      <trkpt lat="45.90591" lon="6.11692">
        <ele>481.20001220703</ele>
        <time>2025-08-08T12:42:28.000Z</time>
      </trkpt>
      <trkpt lat="45.90584" lon="6.1173">
        <ele>480.60000610352</ele>
        <time>2025-08-08T12:42:34.000Z</time>
      </trkpt>
      <trkpt lat="45.90575" lon="6.1179">
        <ele>480.79998779297</ele>
        <time>2025-08-08T12:42:42.000Z</time>
      </trkpt>
      <trkpt lat="45.90562" lon="6.11868">
        <ele>481.60000610352</ele>
        <time>2025-08-08T12:42:52.000Z</time>
      </trkpt>
      <trkpt lat="45.9055" lon="6.11946">
        <ele>481.39999389648</ele>
        <time>2025-08-08T12:43:02.000Z</time>
      </trkpt>
      <trkpt lat="45.90547" lon="6.11963">
        <ele>481.60000610352</ele>
        <time>2025-08-08T12:43:04.000Z</time>
      </trkpt>
      <trkpt lat="45.90545" lon="6.11971">
        <ele>481.79998779297</ele>
        <time>2025-08-08T12:43:05.000Z</time>
      </trkpt>
      <trkpt lat="45.90537" lon="6.12017">
        <ele>482.20001220703</ele>
        <time>2025-08-08T12:43:12.000Z</time>
      </trkpt>
      <trkpt lat="45.90524" lon="6.12095">
        <ele>482.39999389648</ele>
        <time>2025-08-08T12:43:21.000Z</time>
      </trkpt>
      <trkpt lat="45.90522" lon="6.12109">
        <ele>482.39999389648</ele>
        <time>2025-08-08T12:43:23.000Z</time>
      </trkpt>
      <trkpt lat="45.90519" lon="6.12127">
        <ele>482.60000610352</ele>
        <time>2025-08-08T12:43:27.000Z</time>
      </trkpt>
      <trkpt lat="45.9052" lon="6.12134">
        <ele>482.60000610352</ele>
        <time>2025-08-08T12:43:28.000Z</time>
      </trkpt>
      <trkpt lat="45.90523" lon="6.12148">
        <ele>482.60000610352</ele>
        <time>2025-08-08T12:43:29.000Z</time>
      </trkpt>
      <trkpt lat="45.90527" lon="6.12164">
        <ele>482.39999389648</ele>
        <time>2025-08-08T12:43:31.000Z</time>
      </trkpt>
      <trkpt lat="45.90527" lon="6.12164">
        <ele>482.20001220703</ele>
        <time>2025-08-08T12:43:32.000Z</time>
      </trkpt>
      <trkpt lat="45.90535" lon="6.12229">
        <ele>482.20001220703</ele>
        <time>2025-08-08T12:43:40.000Z</time>
      </trkpt>
      <trkpt lat="45.90538" lon="6.12249">
        <ele>482.39999389648</ele>
        <time>2025-08-08T12:43:44.000Z</time>
      </trkpt>
      <trkpt lat="45.90541" lon="6.12271">
        <ele>482.39999389648</ele>
        <time>2025-08-08T12:43:47.000Z</time>
      </trkpt>
      <trkpt lat="45.90543" lon="6.123">
        <ele>482.39999389648</ele>
        <time>2025-08-08T12:43:52.000Z</time>
      </trkpt>
      <trkpt lat="45.90545" lon="6.12338">
        <ele>482.60000610352</ele>
        <time>2025-08-08T12:43:58.000Z</time>
      </trkpt>
      <trkpt lat="45.90547" lon="6.12357">
        <ele>482.60000610352</ele>
        <time>2025-08-08T12:44:03.000Z</time>
      </trkpt>
      <trkpt lat="45.90547" lon="6.12359">
        <ele>482.60000610352</ele>
        <time>2025-08-08T12:44:06.000Z</time>
      </trkpt>
      <trkpt lat="45.90547" lon="6.12367">
        <ele>482.60000610352</ele>
        <time>2025-08-08T12:44:13.000Z</time>
      </trkpt>
      <trkpt lat="45.9055" lon="6.12393">
        <ele>482.60000610352</ele>
        <time>2025-08-08T12:44:18.000Z</time>
      </trkpt>
      <trkpt lat="45.90553" lon="6.12426">
        <ele>482.60000610352</ele>
        <time>2025-08-08T12:44:23.000Z</time>
      </trkpt>
      <trkpt lat="45.90557" lon="6.12449">
        <ele>482.60000610352</ele>
        <time>2025-08-08T12:44:26.000Z</time>
      </trkpt>
      <trkpt lat="45.90559" lon="6.12474">
        <ele>482.60000610352</ele>
        <time>2025-08-08T12:44:29.000Z</time>
      </trkpt>
      <trkpt lat="45.90563" lon="6.12505">
        <ele>482.39999389648</ele>
        <time>2025-08-08T12:44:33.000Z</time>
      </trkpt>
      <trkpt lat="45.90565" lon="6.12527">
        <ele>482.20001220703</ele>
        <time>2025-08-08T12:44:36.000Z</time>
      </trkpt>
      <trkpt lat="45.90567" lon="6.1255">
        <ele>482</ele>
        <time>2025-08-08T12:44:39.000Z</time>
      </trkpt>
      <trkpt lat="45.90567" lon="6.12561">
        <ele>482</ele>
        <time>2025-08-08T12:44:41.000Z</time>
      </trkpt>
      <trkpt lat="45.90566" lon="6.12567">
        <ele>482</ele>
        <time>2025-08-08T12:44:44.000Z</time>
      </trkpt>
      <trkpt lat="45.90566" lon="6.12567">
        <ele>482</ele>
        <time>2025-08-08T12:44:45.000Z</time>
      </trkpt>
      <trkpt lat="45.90562" lon="6.12576">
        <ele>482.20001220703</ele>
        <time>2025-08-08T12:44:53.000Z</time>
      </trkpt>
      <trkpt lat="45.90561" lon="6.12582">
        <ele>482.20001220703</ele>
        <time>2025-08-08T12:44:54.000Z</time>
      </trkpt>
      <trkpt lat="45.90561" lon="6.12593">
        <ele>482.20001220703</ele>
        <time>2025-08-08T12:44:56.000Z</time>
      </trkpt>
      <trkpt lat="45.90565" lon="6.12605">
        <ele>482</ele>
        <time>2025-08-08T12:44:58.000Z</time>
      </trkpt>
      <trkpt lat="45.90568" lon="6.12612">
        <ele>482</ele>
        <time>2025-08-08T12:44:59.000Z</time>
      </trkpt>
      <trkpt lat="45.90575" lon="6.12623">
        <ele>482</ele>
        <time>2025-08-08T12:45:01.000Z</time>
      </trkpt>
      <trkpt lat="45.90578" lon="6.12631">
        <ele>482</ele>
        <time>2025-08-08T12:45:02.000Z</time>
      </trkpt>
      <trkpt lat="45.90579" lon="6.1264">
        <ele>482</ele>
        <time>2025-08-08T12:45:03.000Z</time>
      </trkpt>
      <trkpt lat="45.90581" lon="6.12666">
        <ele>482</ele>
        <time>2025-08-08T12:45:06.000Z</time>
      </trkpt>
      <trkpt lat="45.90583" lon="6.12702">
        <ele>481.79998779297</ele>
        <time>2025-08-08T12:45:11.000Z</time>
      </trkpt>
      <trkpt lat="45.90586" lon="6.12743">
        <ele>481.60000610352</ele>
        <time>2025-08-08T12:45:17.000Z</time>
      </trkpt>
      <trkpt lat="45.90586" lon="6.1275">
        <ele>481.39999389648</ele>
        <time>2025-08-08T12:45:18.000Z</time>
      </trkpt>
      <trkpt lat="45.90589" lon="6.12789">
        <ele>481.60000610352</ele>
        <time>2025-08-08T12:45:23.000Z</time>
      </trkpt>
      <trkpt lat="45.90594" lon="6.12846">
        <ele>481.60000610352</ele>
        <time>2025-08-08T12:45:30.000Z</time>
      </trkpt>
      <trkpt lat="45.90595" lon="6.12884">
        <ele>481.20001220703</ele>
        <time>2025-08-08T12:45:35.000Z</time>
      </trkpt>
      <trkpt lat="45.90595" lon="6.12891">
        <ele>481.20001220703</ele>
        <time>2025-08-08T12:45:36.000Z</time>
      </trkpt>
      <trkpt lat="45.90594" lon="6.12898">
        <ele>481.20001220703</ele>
        <time>2025-08-08T12:45:37.000Z</time>
      </trkpt>
      <trkpt lat="45.90595" lon="6.12913">
        <ele>481.20001220703</ele>
        <time>2025-08-08T12:45:39.000Z</time>
      </trkpt>
      <trkpt lat="45.90597" lon="6.12921">
        <ele>481.20001220703</ele>
        <time>2025-08-08T12:45:40.000Z</time>
      </trkpt>
      <trkpt lat="45.90601" lon="6.12936">
        <ele>481</ele>
        <time>2025-08-08T12:45:42.000Z</time>
      </trkpt>
      <trkpt lat="45.90605" lon="6.1297">
        <ele>481</ele>
        <time>2025-08-08T12:45:46.000Z</time>
      </trkpt>
      <trkpt lat="45.9061" lon="6.13027">
        <ele>481.20001220703</ele>
        <time>2025-08-08T12:45:53.000Z</time>
      </trkpt>
      <trkpt lat="45.9061" lon="6.13034">
        <ele>481.20001220703</ele>
        <time>2025-08-08T12:45:54.000Z</time>
      </trkpt>
      <trkpt lat="45.90611" lon="6.13041">
        <ele>481.39999389648</ele>
        <time>2025-08-08T12:45:55.000Z</time>
      </trkpt>
      <trkpt lat="45.90612" lon="6.13056">
        <ele>481.20001220703</ele>
        <time>2025-08-08T12:45:57.000Z</time>
      </trkpt>
      <trkpt lat="45.90611" lon="6.13063">
        <ele>481.20001220703</ele>
        <time>2025-08-08T12:45:58.000Z</time>
      </trkpt>
      <trkpt lat="45.9061" lon="6.1307">
        <ele>481.20001220703</ele>
        <time>2025-08-08T12:45:59.000Z</time>
      </trkpt>
      <trkpt lat="45.90604" lon="6.13082">
        <ele>481.20001220703</ele>
        <time>2025-08-08T12:46:01.000Z</time>
      </trkpt>
      <trkpt lat="45.90598" lon="6.13095">
        <ele>481.20001220703</ele>
        <time>2025-08-08T12:46:05.000Z</time>
      </trkpt>
      <trkpt lat="45.90598" lon="6.13096">
        <ele>481</ele>
        <time>2025-08-08T12:46:07.000Z</time>
      </trkpt>
      <trkpt lat="45.90596" lon="6.13103">
        <ele>480.79998779297</ele>
        <time>2025-08-08T12:46:13.000Z</time>
      </trkpt>
      <trkpt lat="45.90595" lon="6.13106">
        <ele>480.79998779297</ele>
        <time>2025-08-08T12:46:14.000Z</time>
      </trkpt>
      <trkpt lat="45.90588" lon="6.13117">
        <ele>480.79998779297</ele>
        <time>2025-08-08T12:46:16.000Z</time>
      </trkpt>
      <trkpt lat="45.90586" lon="6.13123">
        <ele>480.79998779297</ele>
        <time>2025-08-08T12:46:17.000Z</time>
      </trkpt>
      <trkpt lat="45.90582" lon="6.13129">
        <ele>480.79998779297</ele>
        <time>2025-08-08T12:46:18.000Z</time>
      </trkpt>
      <trkpt lat="45.9057" lon="6.13155">
        <ele>480.60000610352</ele>
        <time>2025-08-08T12:46:22.000Z</time>
      </trkpt>
      <trkpt lat="45.90564" lon="6.13167">
        <ele>480.39999389648</ele>
        <time>2025-08-08T12:46:24.000Z</time>
      </trkpt>
      <trkpt lat="45.9055" lon="6.13199">
        <ele>480.20001220703</ele>
        <time>2025-08-08T12:46:30.000Z</time>
      </trkpt>
      <trkpt lat="45.90546" lon="6.13203">
        <ele>480.20001220703</ele>
        <time>2025-08-08T12:46:31.000Z</time>
      </trkpt>
      <trkpt lat="45.90542" lon="6.13208">
        <ele>480.20001220703</ele>
        <time>2025-08-08T12:46:32.000Z</time>
      </trkpt>
      <trkpt lat="45.90533" lon="6.13213">
        <ele>480.20001220703</ele>
        <time>2025-08-08T12:46:34.000Z</time>
      </trkpt>
      <trkpt lat="45.90529" lon="6.13217">
        <ele>480.20001220703</ele>
        <time>2025-08-08T12:46:35.000Z</time>
      </trkpt>
      <trkpt lat="45.90524" lon="6.13228">
        <ele>480.20001220703</ele>
        <time>2025-08-08T12:46:37.000Z</time>
      </trkpt>
      <trkpt lat="45.90522" lon="6.13242">
        <ele>480.20001220703</ele>
        <time>2025-08-08T12:46:39.000Z</time>
      </trkpt>
      <trkpt lat="45.90521" lon="6.13261">
        <ele>480.20001220703</ele>
        <time>2025-08-08T12:46:41.000Z</time>
      </trkpt>
      <trkpt lat="45.90508" lon="6.13299">
        <ele>480</ele>
        <time>2025-08-08T12:46:46.000Z</time>
      </trkpt>
      <trkpt lat="45.90482" lon="6.13363">
        <ele>479.79998779297</ele>
        <time>2025-08-08T12:46:55.000Z</time>
      </trkpt>
      <trkpt lat="45.90479" lon="6.1337">
        <ele>479.79998779297</ele>
        <time>2025-08-08T12:46:56.000Z</time>
      </trkpt>
      <trkpt lat="45.90472" lon="6.13382">
        <ele>479.79998779297</ele>
        <time>2025-08-08T12:46:58.000Z</time>
      </trkpt>
      <trkpt lat="45.90466" lon="6.13396">
        <ele>480</ele>
        <time>2025-08-08T12:47:00.000Z</time>
      </trkpt>
      <trkpt lat="45.90461" lon="6.1341">
        <ele>480</ele>
        <time>2025-08-08T12:47:02.000Z</time>
      </trkpt>
      <trkpt lat="45.90451" lon="6.13438">
        <ele>480</ele>
        <time>2025-08-08T12:47:06.000Z</time>
      </trkpt>
      <trkpt lat="45.90425" lon="6.13499">
        <ele>480.20001220703</ele>
        <time>2025-08-08T12:47:15.000Z</time>
      </trkpt>
      <trkpt lat="45.90414" lon="6.13527">
        <ele>480.20001220703</ele>
        <time>2025-08-08T12:47:20.000Z</time>
      </trkpt>
      <trkpt lat="45.90401" lon="6.13543">
        <ele>479.79998779297</ele>
        <time>2025-08-08T12:47:25.000Z</time>
      </trkpt>
      <trkpt lat="45.90397" lon="6.13545">
        <ele>479.79998779297</ele>
        <time>2025-08-08T12:47:26.000Z</time>
      </trkpt>
      <trkpt lat="45.90387" lon="6.13551">
        <ele>479.60000610352</ele>
        <time>2025-08-08T12:47:30.000Z</time>
      </trkpt>
      <trkpt lat="45.90368" lon="6.1356">
        <ele>479.79998779297</ele>
        <time>2025-08-08T12:47:36.000Z</time>
      </trkpt>
      <trkpt lat="45.90345" lon="6.13572">
        <ele>480</ele>
        <time>2025-08-08T12:47:42.000Z</time>
      </trkpt>
      <trkpt lat="45.90335" lon="6.13577">
        <ele>480.20001220703</ele>
        <time>2025-08-08T12:47:47.000Z</time>
      </trkpt>
      <trkpt lat="45.90331" lon="6.13583">
        <ele>480.20001220703</ele>
        <time>2025-08-08T12:47:53.000Z</time>
      </trkpt>
      <trkpt lat="45.9033" lon="6.1359">
        <ele>480.20001220703</ele>
        <time>2025-08-08T12:47:55.000Z</time>
      </trkpt>
      <trkpt lat="45.90331" lon="6.13594">
        <ele>480.20001220703</ele>
        <time>2025-08-08T12:47:57.000Z</time>
      </trkpt>
      <trkpt lat="45.90331" lon="6.13598">
        <ele>480.20001220703</ele>
        <time>2025-08-08T12:47:58.000Z</time>
      </trkpt>
      <trkpt lat="45.90334" lon="6.13616">
        <ele>480</ele>
        <time>2025-08-08T12:48:03.000Z</time>
      </trkpt>
      <trkpt lat="45.90334" lon="6.13618">
        <ele>480.20001220703</ele>
        <time>2025-08-08T12:48:07.000Z</time>
      </trkpt>
      <trkpt lat="45.90339" lon="6.13624">
        <ele>480.39999389648</ele>
        <time>2025-08-08T12:48:16.000Z</time>
      </trkpt>
      <trkpt lat="45.90342" lon="6.13629">
        <ele>480.20001220703</ele>
        <time>2025-08-08T12:48:18.000Z</time>
      </trkpt>
      <trkpt lat="45.90355" lon="6.13661">
        <ele>480.39999389648</ele>
        <time>2025-08-08T12:48:25.000Z</time>
      </trkpt>
      <trkpt lat="45.90368" lon="6.13699">
        <ele>480.60000610352</ele>
        <time>2025-08-08T12:48:32.000Z</time>
      </trkpt>
      <trkpt lat="45.90373" lon="6.13719">
        <ele>480.79998779297</ele>
        <time>2025-08-08T12:48:36.000Z</time>
      </trkpt>
      <trkpt lat="45.90381" lon="6.13758">
        <ele>481</ele>
        <time>2025-08-08T12:48:40.000Z</time>
      </trkpt>
      <trkpt lat="45.90394" lon="6.13802">
        <ele>481.20001220703</ele>
        <time>2025-08-08T12:48:46.000Z</time>
      </trkpt>
      <trkpt lat="45.90399" lon="6.13815">
        <ele>481.20001220703</ele>
        <time>2025-08-08T12:48:49.000Z</time>
      </trkpt>
      <trkpt lat="45.90393" lon="6.13833">
        <ele>481.20001220703</ele>
        <time>2025-08-08T12:48:51.000Z</time>
      </trkpt>
      <trkpt lat="45.90395" lon="6.13855">
        <ele>481</ele>
        <time>2025-08-08T12:48:55.000Z</time>
      </trkpt>
      <trkpt lat="45.90405" lon="6.13885">
        <ele>481</ele>
        <time>2025-08-08T12:48:59.000Z</time>
      </trkpt>
      <trkpt lat="45.90407" lon="6.13891">
        <ele>481</ele>
        <time>2025-08-08T12:49:00.000Z</time>
      </trkpt>
      <trkpt lat="45.9041" lon="6.13897">
        <ele>480.79998779297</ele>
        <time>2025-08-08T12:49:01.000Z</time>
      </trkpt>
      <trkpt lat="45.90417" lon="6.13909">
        <ele>481</ele>
        <time>2025-08-08T12:49:04.000Z</time>
      </trkpt>
      <trkpt lat="45.90426" lon="6.13928">
        <ele>481.20001220703</ele>
        <time>2025-08-08T12:49:07.000Z</time>
      </trkpt>
      <trkpt lat="45.9043" lon="6.13943">
        <ele>481.20001220703</ele>
        <time>2025-08-08T12:49:09.000Z</time>
      </trkpt>
      <trkpt lat="45.90449" lon="6.1401">
        <ele>480.79998779297</ele>
        <time>2025-08-08T12:49:17.000Z</time>
      </trkpt>
      <trkpt lat="45.90461" lon="6.14062">
        <ele>480.79998779297</ele>
        <time>2025-08-08T12:49:24.000Z</time>
      </trkpt>
      <trkpt lat="45.90461" lon="6.14068">
        <ele>480.79998779297</ele>
        <time>2025-08-08T12:49:25.000Z</time>
      </trkpt>
      <trkpt lat="45.90459" lon="6.14084">
        <ele>480.79998779297</ele>
        <time>2025-08-08T12:49:27.000Z</time>
      </trkpt>
      <trkpt lat="45.90462" lon="6.14097">
        <ele>480.60000610352</ele>
        <time>2025-08-08T12:49:29.000Z</time>
      </trkpt>
      <trkpt lat="45.9047" lon="6.14134">
        <ele>480.60000610352</ele>
        <time>2025-08-08T12:49:33.000Z</time>
      </trkpt>
      <trkpt lat="45.90484" lon="6.14183">
        <ele>480.39999389648</ele>
        <time>2025-08-08T12:49:40.000Z</time>
      </trkpt>
      <trkpt lat="45.90489" lon="6.14203">
        <ele>480.39999389648</ele>
        <time>2025-08-08T12:49:43.000Z</time>
      </trkpt>
      <trkpt lat="45.90493" lon="6.14217">
        <ele>480.20001220703</ele>
        <time>2025-08-08T12:49:45.000Z</time>
      </trkpt>
      <trkpt lat="45.90495" lon="6.14224">
        <ele>480.20001220703</ele>
        <time>2025-08-08T12:49:46.000Z</time>
      </trkpt>
      <trkpt lat="45.90504" lon="6.1427">
        <ele>480</ele>
        <time>2025-08-08T12:49:52.000Z</time>
      </trkpt>
      <trkpt lat="45.90506" lon="6.14283">
        <ele>480</ele>
        <time>2025-08-08T12:49:54.000Z</time>
      </trkpt>
      <trkpt lat="45.90507" lon="6.1429">
        <ele>480</ele>
        <time>2025-08-08T12:49:55.000Z</time>
      </trkpt>
      <trkpt lat="45.90507" lon="6.14314">
        <ele>480</ele>
        <time>2025-08-08T12:49:58.000Z</time>
      </trkpt>
      <trkpt lat="45.90508" lon="6.14326">
        <ele>480.20001220703</ele>
        <time>2025-08-08T12:50:00.000Z</time>
      </trkpt>
      <trkpt lat="45.90507" lon="6.14348">
        <ele>480.20001220703</ele>
        <time>2025-08-08T12:50:03.000Z</time>
      </trkpt>
      <trkpt lat="45.90507" lon="6.14354">
        <ele>480.20001220703</ele>
        <time>2025-08-08T12:50:04.000Z</time>
      </trkpt>
      <trkpt lat="45.90493" lon="6.14421">
        <ele>480.20001220703</ele>
        <time>2025-08-08T12:50:13.000Z</time>
      </trkpt>
      <trkpt lat="45.90482" lon="6.14459">
        <ele>480</ele>
        <time>2025-08-08T12:50:19.000Z</time>
      </trkpt>
      <trkpt lat="45.90476" lon="6.14481">
        <ele>480</ele>
        <time>2025-08-08T12:50:23.000Z</time>
      </trkpt>
      <trkpt lat="45.90473" lon="6.14492">
        <ele>479.60000610352</ele>
        <time>2025-08-08T12:50:25.000Z</time>
      </trkpt>
      <trkpt lat="45.90472" lon="6.14499">
        <ele>479.39999389648</ele>
        <time>2025-08-08T12:50:26.000Z</time>
      </trkpt>
      <trkpt lat="45.90466" lon="6.1454">
        <ele>479.39999389648</ele>
        <time>2025-08-08T12:50:32.000Z</time>
      </trkpt>
      <trkpt lat="45.90461" lon="6.14596">
        <ele>479.60000610352</ele>
        <time>2025-08-08T12:50:40.000Z</time>
      </trkpt>
      <trkpt lat="45.90461" lon="6.14662">
        <ele>480</ele>
        <time>2025-08-08T12:50:49.000Z</time>
      </trkpt>
      <trkpt lat="45.90468" lon="6.14717">
        <ele>480.20001220703</ele>
        <time>2025-08-08T12:50:57.000Z</time>
      </trkpt>
      <trkpt lat="45.9047" lon="6.1474">
        <ele>480.39999389648</ele>
        <time>2025-08-08T12:51:02.000Z</time>
      </trkpt>
      <trkpt lat="45.90477" lon="6.14779">
        <ele>480.39999389648</ele>
        <time>2025-08-08T12:51:08.000Z</time>
      </trkpt>
      <trkpt lat="45.90478" lon="6.14784">
        <ele>480.39999389648</ele>
        <time>2025-08-08T12:51:09.000Z</time>
      </trkpt>
      <trkpt lat="45.90479" lon="6.1479">
        <ele>480.60000610352</ele>
        <time>2025-08-08T12:51:10.000Z</time>
      </trkpt>
      <trkpt lat="45.90481" lon="6.14805">
        <ele>480.60000610352</ele>
        <time>2025-08-08T12:51:12.000Z</time>
      </trkpt>
      <trkpt lat="45.90482" lon="6.14817">
        <ele>480.60000610352</ele>
        <time>2025-08-08T12:51:14.000Z</time>
      </trkpt>
      <trkpt lat="45.90493" lon="6.14887">
        <ele>480.79998779297</ele>
        <time>2025-08-08T12:51:23.000Z</time>
      </trkpt>
      <trkpt lat="45.90495" lon="6.14901">
        <ele>480.79998779297</ele>
        <time>2025-08-08T12:51:25.000Z</time>
      </trkpt>
      <trkpt lat="45.90501" lon="6.14941">
        <ele>480.79998779297</ele>
        <time>2025-08-08T12:51:30.000Z</time>
      </trkpt>
      <trkpt lat="45.90509" lon="6.15">
        <ele>481</ele>
        <time>2025-08-08T12:51:37.000Z</time>
      </trkpt>
      <trkpt lat="45.90514" lon="6.15029">
        <ele>481</ele>
        <time>2025-08-08T12:51:42.000Z</time>
      </trkpt>
      <trkpt lat="45.90515" lon="6.15038">
        <ele>480.79998779297</ele>
        <time>2025-08-08T12:51:47.000Z</time>
      </trkpt>
      <trkpt lat="45.90519" lon="6.15064">
        <ele>480.79998779297</ele>
        <time>2025-08-08T12:51:53.000Z</time>
      </trkpt>
      <trkpt lat="45.90523" lon="6.15087">
        <ele>480.79998779297</ele>
        <time>2025-08-08T12:51:59.000Z</time>
      </trkpt>
      <trkpt lat="45.90525" lon="6.15105">
        <ele>480.60000610352</ele>
        <time>2025-08-08T12:52:06.000Z</time>
      </trkpt>
      <trkpt lat="45.90526" lon="6.15122">
        <ele>480.79998779297</ele>
        <time>2025-08-08T12:52:10.000Z</time>
      </trkpt>
      <trkpt lat="45.90531" lon="6.15152">
        <ele>481</ele>
        <time>2025-08-08T12:52:16.000Z</time>
      </trkpt>
      <trkpt lat="45.90532" lon="6.15159">
        <ele>481</ele>
        <time>2025-08-08T12:52:17.000Z</time>
      </trkpt>
      <trkpt lat="45.90537" lon="6.15183">
        <ele>481</ele>
        <time>2025-08-08T12:52:20.000Z</time>
      </trkpt>
      <trkpt lat="45.90541" lon="6.1522">
        <ele>481</ele>
        <time>2025-08-08T12:52:24.000Z</time>
      </trkpt>
      <trkpt lat="45.90542" lon="6.15227">
        <ele>481.20001220703</ele>
        <time>2025-08-08T12:52:26.000Z</time>
      </trkpt>
      <trkpt lat="45.90552" lon="6.15285">
        <ele>481.20001220703</ele>
        <time>2025-08-08T12:52:32.000Z</time>
      </trkpt>
      <trkpt lat="45.9056" lon="6.15342">
        <ele>481.39999389648</ele>
        <time>2025-08-08T12:52:39.000Z</time>
      </trkpt>
      <trkpt lat="45.90569" lon="6.15396">
        <ele>481.60000610352</ele>
        <time>2025-08-08T12:52:46.000Z</time>
      </trkpt>
      <trkpt lat="45.9057" lon="6.15403">
        <ele>481.60000610352</ele>
        <time>2025-08-08T12:52:47.000Z</time>
      </trkpt>
      <trkpt lat="45.90577" lon="6.15446">
        <ele>481.39999389648</ele>
        <time>2025-08-08T12:52:53.000Z</time>
      </trkpt>
      <trkpt lat="45.90578" lon="6.15452">
        <ele>481.39999389648</ele>
        <time>2025-08-08T12:52:54.000Z</time>
      </trkpt>
      <trkpt lat="45.90582" lon="6.15479">
        <ele>481</ele>
        <time>2025-08-08T12:52:59.000Z</time>
      </trkpt>
      <trkpt lat="45.90584" lon="6.15491">
        <ele>481</ele>
        <time>2025-08-08T12:53:01.000Z</time>
      </trkpt>
      <trkpt lat="45.90585" lon="6.15506">
        <ele>481</ele>
        <time>2025-08-08T12:53:03.000Z</time>
      </trkpt>
      <trkpt lat="45.90584" lon="6.15521">
        <ele>481</ele>
        <time>2025-08-08T12:53:05.000Z</time>
      </trkpt>
      <trkpt lat="45.90585" lon="6.15535">
        <ele>481.20001220703</ele>
        <time>2025-08-08T12:53:07.000Z</time>
      </trkpt>
      <trkpt lat="45.90588" lon="6.15564">
        <ele>481</ele>
        <time>2025-08-08T12:53:12.000Z</time>
      </trkpt>
      <trkpt lat="45.90593" lon="6.15599">
        <ele>480.79998779297</ele>
        <time>2025-08-08T12:53:18.000Z</time>
      </trkpt>
      <trkpt lat="45.90595" lon="6.1563">
        <ele>480.79998779297</ele>
        <time>2025-08-08T12:53:23.000Z</time>
      </trkpt>
      <trkpt lat="45.90593" lon="6.15646">
        <ele>480.79998779297</ele>
        <time>2025-08-08T12:53:26.000Z</time>
      </trkpt>
      <trkpt lat="45.90586" lon="6.15685">
        <ele>480.60000610352</ele>
        <time>2025-08-08T12:53:32.000Z</time>
      </trkpt>
      <trkpt lat="45.90583" lon="6.15703">
        <ele>480.60000610352</ele>
        <time>2025-08-08T12:53:35.000Z</time>
      </trkpt>
      <trkpt lat="45.9058" lon="6.15724">
        <ele>480.60000610352</ele>
        <time>2025-08-08T12:53:38.000Z</time>
      </trkpt>
      <trkpt lat="45.90577" lon="6.15739">
        <ele>480.60000610352</ele>
        <time>2025-08-08T12:53:40.000Z</time>
      </trkpt>
      <trkpt lat="45.90573" lon="6.15753">
        <ele>480.39999389648</ele>
        <time>2025-08-08T12:53:42.000Z</time>
      </trkpt>
      <trkpt lat="45.90571" lon="6.15758">
        <ele>480.39999389648</ele>
        <time>2025-08-08T12:53:43.000Z</time>
      </trkpt>
      <trkpt lat="45.90563" lon="6.15783">
        <ele>480.39999389648</ele>
        <time>2025-08-08T12:53:48.000Z</time>
      </trkpt>
      <trkpt lat="45.9056" lon="6.15791">
        <ele>480.39999389648</ele>
        <time>2025-08-08T12:53:49.000Z</time>
      </trkpt>
      <trkpt lat="45.90548" lon="6.15818">
        <ele>480.39999389648</ele>
        <time>2025-08-08T12:53:53.000Z</time>
      </trkpt>
      <trkpt lat="45.90521" lon="6.15862">
        <ele>480.39999389648</ele>
        <time>2025-08-08T12:54:00.000Z</time>
      </trkpt>
      <trkpt lat="45.90485" lon="6.15909">
        <ele>480.39999389648</ele>
        <time>2025-08-08T12:54:08.000Z</time>
      </trkpt>
      <trkpt lat="45.90473" lon="6.15923">
        <ele>480.39999389648</ele>
        <time>2025-08-08T12:54:12.000Z</time>
      </trkpt>
      <trkpt lat="45.90448" lon="6.15944">
        <ele>480.39999389648</ele>
        <time>2025-08-08T12:54:16.000Z</time>
      </trkpt>
      <trkpt lat="45.90413" lon="6.15964">
        <ele>480.39999389648</ele>
        <time>2025-08-08T12:54:23.000Z</time>
      </trkpt>
      <trkpt lat="45.90372" lon="6.15981">
        <ele>480.20001220703</ele>
        <time>2025-08-08T12:54:30.000Z</time>
      </trkpt>
      <trkpt lat="45.90333" lon="6.15998">
        <ele>479.79998779297</ele>
        <time>2025-08-08T12:54:37.000Z</time>
      </trkpt>
      <trkpt lat="45.90321" lon="6.16002">
        <ele>479.79998779297</ele>
        <time>2025-08-08T12:54:39.000Z</time>
      </trkpt>
      <trkpt lat="45.90267" lon="6.16024">
        <ele>480</ele>
        <time>2025-08-08T12:54:48.000Z</time>
      </trkpt>
      <trkpt lat="45.90218" lon="6.16046">
        <ele>479.79998779297</ele>
        <time>2025-08-08T12:54:56.000Z</time>
      </trkpt>
      <trkpt lat="45.9017" lon="6.16071">
        <ele>479.79998779297</ele>
        <time>2025-08-08T12:55:04.000Z</time>
      </trkpt>
      <trkpt lat="45.90116" lon="6.16106">
        <ele>479.79998779297</ele>
        <time>2025-08-08T12:55:13.000Z</time>
      </trkpt>
      <trkpt lat="45.90059" lon="6.16129">
        <ele>480</ele>
        <time>2025-08-08T12:55:22.000Z</time>
      </trkpt>
      <trkpt lat="45.90012" lon="6.16145">
        <ele>480.20001220703</ele>
        <time>2025-08-08T12:55:30.000Z</time>
      </trkpt>
      <trkpt lat="45.89967" lon="6.16162">
        <ele>480.60000610352</ele>
        <time>2025-08-08T12:55:38.000Z</time>
      </trkpt>
      <trkpt lat="45.89956" lon="6.16166">
        <ele>480.79998779297</ele>
        <time>2025-08-08T12:55:40.000Z</time>
      </trkpt>
      <trkpt lat="45.89923" lon="6.16185">
        <ele>481.20001220703</ele>
        <time>2025-08-08T12:55:46.000Z</time>
      </trkpt>
      <trkpt lat="45.89917" lon="6.16189">
        <ele>481.20001220703</ele>
        <time>2025-08-08T12:55:47.000Z</time>
      </trkpt>
      <trkpt lat="45.89894" lon="6.16206">
        <ele>481.20001220703</ele>
        <time>2025-08-08T12:55:51.000Z</time>
      </trkpt>
      <trkpt lat="45.89867" lon="6.16228">
        <ele>481.20001220703</ele>
        <time>2025-08-08T12:55:56.000Z</time>
      </trkpt>
      <trkpt lat="45.89841" lon="6.16254">
        <ele>481.20001220703</ele>
        <time>2025-08-08T12:56:01.000Z</time>
      </trkpt>
      <trkpt lat="45.89826" lon="6.16272">
        <ele>481.20001220703</ele>
        <time>2025-08-08T12:56:04.000Z</time>
      </trkpt>
      <trkpt lat="45.89817" lon="6.16284">
        <ele>481.20001220703</ele>
        <time>2025-08-08T12:56:06.000Z</time>
      </trkpt>
      <trkpt lat="45.89805" lon="6.16302">
        <ele>481.20001220703</ele>
        <time>2025-08-08T12:56:09.000Z</time>
      </trkpt>
      <trkpt lat="45.89797" lon="6.1631">
        <ele>481.20001220703</ele>
        <time>2025-08-08T12:56:11.000Z</time>
      </trkpt>
      <trkpt lat="45.89786" lon="6.16318">
        <ele>481.20001220703</ele>
        <time>2025-08-08T12:56:13.000Z</time>
      </trkpt>
      <trkpt lat="45.89779" lon="6.16329">
        <ele>481.20001220703</ele>
        <time>2025-08-08T12:56:15.000Z</time>
      </trkpt>
      <trkpt lat="45.89777" lon="6.16335">
        <ele>481.20001220703</ele>
        <time>2025-08-08T12:56:16.000Z</time>
      </trkpt>
      <trkpt lat="45.89773" lon="6.16348">
        <ele>481.20001220703</ele>
        <time>2025-08-08T12:56:19.000Z</time>
      </trkpt>
      <trkpt lat="45.89771" lon="6.16352">
        <ele>481.39999389648</ele>
        <time>2025-08-08T12:56:20.000Z</time>
      </trkpt>
      <trkpt lat="45.89765" lon="6.16359">
        <ele>481.20001220703</ele>
        <time>2025-08-08T12:56:22.000Z</time>
      </trkpt>
      <trkpt lat="45.89753" lon="6.16376">
        <ele>481.60000610352</ele>
        <time>2025-08-08T12:56:26.000Z</time>
      </trkpt>
      <trkpt lat="45.89747" lon="6.16383">
        <ele>481.79998779297</ele>
        <time>2025-08-08T12:56:28.000Z</time>
      </trkpt>
      <trkpt lat="45.89725" lon="6.1641">
        <ele>482.39999389648</ele>
        <time>2025-08-08T12:56:35.000Z</time>
      </trkpt>
      <trkpt lat="45.89716" lon="6.16422">
        <ele>482.79998779297</ele>
        <time>2025-08-08T12:56:38.000Z</time>
      </trkpt>
      <trkpt lat="45.89706" lon="6.16435">
        <ele>483.20001220703</ele>
        <time>2025-08-08T12:56:41.000Z</time>
      </trkpt>
      <trkpt lat="45.89696" lon="6.16447">
        <ele>483.60000610352</ele>
        <time>2025-08-08T12:56:44.000Z</time>
      </trkpt>
      <trkpt lat="45.89694" lon="6.1645">
        <ele>483.79998779297</ele>
        <time>2025-08-08T12:56:45.000Z</time>
      </trkpt>
      <trkpt lat="45.89685" lon="6.16461">
        <ele>484.39999389648</ele>
        <time>2025-08-08T12:56:48.000Z</time>
      </trkpt>
      <trkpt lat="45.89673" lon="6.16474">
        <ele>484.79998779297</ele>
        <time>2025-08-08T12:56:52.000Z</time>
      </trkpt>
      <trkpt lat="45.89653" lon="6.165">
        <ele>485.79998779297</ele>
        <time>2025-08-08T12:56:59.000Z</time>
      </trkpt>
      <trkpt lat="45.89647" lon="6.16507">
        <ele>486</ele>
        <time>2025-08-08T12:57:01.000Z</time>
      </trkpt>
      <trkpt lat="45.89623" lon="6.16536">
        <ele>486.79998779297</ele>
        <time>2025-08-08T12:57:09.000Z</time>
      </trkpt>
      <trkpt lat="45.89618" lon="6.16543">
        <ele>487.20001220703</ele>
        <time>2025-08-08T12:57:11.000Z</time>
      </trkpt>
      <trkpt lat="45.89609" lon="6.16555">
        <ele>488</ele>
        <time>2025-08-08T12:57:14.000Z</time>
      </trkpt>
      <trkpt lat="45.89597" lon="6.16568">
        <ele>488.60000610352</ele>
        <time>2025-08-08T12:57:18.000Z</time>
      </trkpt>
      <trkpt lat="45.89589" lon="6.1658">
        <ele>489</ele>
        <time>2025-08-08T12:57:21.000Z</time>
      </trkpt>
      <trkpt lat="45.89573" lon="6.16597">
        <ele>489.79998779297</ele>
        <time>2025-08-08T12:57:26.000Z</time>
      </trkpt>
      <trkpt lat="45.89567" lon="6.16604">
        <ele>490.20001220703</ele>
        <time>2025-08-08T12:57:28.000Z</time>
      </trkpt>
      <trkpt lat="45.89549" lon="6.16625">
        <ele>491</ele>
        <time>2025-08-08T12:57:34.000Z</time>
      </trkpt>
      <trkpt lat="45.89543" lon="6.16631">
        <ele>491.20001220703</ele>
        <time>2025-08-08T12:57:36.000Z</time>
      </trkpt>
      <trkpt lat="45.89539" lon="6.16635">
        <ele>491.60000610352</ele>
        <time>2025-08-08T12:57:37.000Z</time>
      </trkpt>
      <trkpt lat="45.89526" lon="6.16649">
        <ele>492</ele>
        <time>2025-08-08T12:57:41.000Z</time>
      </trkpt>
      <trkpt lat="45.89519" lon="6.16657">
        <ele>492.39999389648</ele>
        <time>2025-08-08T12:57:43.000Z</time>
      </trkpt>
      <trkpt lat="45.89511" lon="6.16664">
        <ele>492.60000610352</ele>
        <time>2025-08-08T12:57:45.000Z</time>
      </trkpt>
      <trkpt lat="45.89504" lon="6.16672">
        <ele>493</ele>
        <time>2025-08-08T12:57:47.000Z</time>
      </trkpt>
      <trkpt lat="45.89481" lon="6.16699">
        <ele>493.20001220703</ele>
        <time>2025-08-08T12:57:52.000Z</time>
      </trkpt>
      <trkpt lat="45.89459" lon="6.1673">
        <ele>491.60000610352</ele>
        <time>2025-08-08T12:57:56.000Z</time>
      </trkpt>
      <trkpt lat="45.89453" lon="6.16737">
        <ele>491</ele>
        <time>2025-08-08T12:57:57.000Z</time>
      </trkpt>
      <trkpt lat="45.89434" lon="6.1676">
        <ele>490</ele>
        <time>2025-08-08T12:58:00.000Z</time>
      </trkpt>
      <trkpt lat="45.89428" lon="6.16767">
        <ele>489.20001220703</ele>
        <time>2025-08-08T12:58:01.000Z</time>
      </trkpt>
      <trkpt lat="45.89418" lon="6.16777">
        <ele>489</ele>
        <time>2025-08-08T12:58:03.000Z</time>
      </trkpt>
      <trkpt lat="45.89414" lon="6.1678">
        <ele>488.79998779297</ele>
        <time>2025-08-08T12:58:04.000Z</time>
      </trkpt>
      <trkpt lat="45.89385" lon="6.16806">
        <ele>489.60000610352</ele>
        <time>2025-08-08T12:58:11.000Z</time>
      </trkpt>
      <trkpt lat="45.89382" lon="6.16808">
        <ele>490</ele>
        <time>2025-08-08T12:58:12.000Z</time>
      </trkpt>
      <trkpt lat="45.8937" lon="6.16817">
        <ele>491</ele>
        <time>2025-08-08T12:58:16.000Z</time>
      </trkpt>
      <trkpt lat="45.89367" lon="6.16819">
        <ele>491.20001220703</ele>
        <time>2025-08-08T12:58:17.000Z</time>
      </trkpt>
      <trkpt lat="45.89352" lon="6.16828">
        <ele>492.20001220703</ele>
        <time>2025-08-08T12:58:22.000Z</time>
      </trkpt>
      <trkpt lat="45.89347" lon="6.16831">
        <ele>492.79998779297</ele>
        <time>2025-08-08T12:58:24.000Z</time>
      </trkpt>
      <trkpt lat="45.89341" lon="6.16836">
        <ele>493.39999389648</ele>
        <time>2025-08-08T12:58:26.000Z</time>
      </trkpt>
      <trkpt lat="45.89322" lon="6.16846">
        <ele>494.39999389648</ele>
        <time>2025-08-08T12:58:32.000Z</time>
      </trkpt>
      <trkpt lat="45.89319" lon="6.16848">
        <ele>494.79998779297</ele>
        <time>2025-08-08T12:58:33.000Z</time>
      </trkpt>
      <trkpt lat="45.89302" lon="6.16852">
        <ele>495.60000610352</ele>
        <time>2025-08-08T12:58:39.000Z</time>
      </trkpt>
      <trkpt lat="45.89299" lon="6.16853">
        <ele>495.79998779297</ele>
        <time>2025-08-08T12:58:40.000Z</time>
      </trkpt>
      <trkpt lat="45.89288" lon="6.16856">
        <ele>497</ele>
        <time>2025-08-08T12:58:44.000Z</time>
      </trkpt>
      <trkpt lat="45.8928" lon="6.16861">
        <ele>497.39999389648</ele>
        <time>2025-08-08T12:58:47.000Z</time>
      </trkpt>
      <trkpt lat="45.89264" lon="6.16872">
        <ele>497.79998779297</ele>
        <time>2025-08-08T12:58:52.000Z</time>
      </trkpt>
      <trkpt lat="45.89246" lon="6.16887">
        <ele>497.79998779297</ele>
        <time>2025-08-08T12:58:57.000Z</time>
      </trkpt>
      <trkpt lat="45.89239" lon="6.16892">
        <ele>497.79998779297</ele>
        <time>2025-08-08T12:58:59.000Z</time>
      </trkpt>
      <trkpt lat="45.89228" lon="6.16901">
        <ele>498</ele>
        <time>2025-08-08T12:59:02.000Z</time>
      </trkpt>
      <trkpt lat="45.89204" lon="6.16921">
        <ele>498.20001220703</ele>
        <time>2025-08-08T12:59:08.000Z</time>
      </trkpt>
      <trkpt lat="45.89192" lon="6.16936">
        <ele>498</ele>
        <time>2025-08-08T12:59:11.000Z</time>
      </trkpt>
      <trkpt lat="45.89184" lon="6.16948">
        <ele>498</ele>
        <time>2025-08-08T12:59:13.000Z</time>
      </trkpt>
      <trkpt lat="45.89162" lon="6.16998">
        <ele>498.20001220703</ele>
        <time>2025-08-08T12:59:20.000Z</time>
      </trkpt>
      <trkpt lat="45.89142" lon="6.1705">
        <ele>498.60000610352</ele>
        <time>2025-08-08T12:59:27.000Z</time>
      </trkpt>
      <trkpt lat="45.89131" lon="6.17072">
        <ele>498.79998779297</ele>
        <time>2025-08-08T12:59:30.000Z</time>
      </trkpt>
      <trkpt lat="45.89116" lon="6.17092">
        <ele>498.60000610352</ele>
        <time>2025-08-08T12:59:33.000Z</time>
      </trkpt>
      <trkpt lat="45.89102" lon="6.17111">
        <ele>498.60000610352</ele>
        <time>2025-08-08T12:59:36.000Z</time>
      </trkpt>
      <trkpt lat="45.89074" lon="6.17148">
        <ele>498.60000610352</ele>
        <time>2025-08-08T12:59:42.000Z</time>
      </trkpt>
      <trkpt lat="45.89055" lon="6.17174">
        <ele>498.79998779297</ele>
        <time>2025-08-08T12:59:47.000Z</time>
      </trkpt>
      <trkpt lat="45.89037" lon="6.17195">
        <ele>499.20001220703</ele>
        <time>2025-08-08T12:59:51.000Z</time>
      </trkpt>
      <trkpt lat="45.89019" lon="6.17217">
        <ele>499.60000610352</ele>
        <time>2025-08-08T12:59:55.000Z</time>
      </trkpt>
      <trkpt lat="45.88987" lon="6.17258">
        <ele>500.20001220703</ele>
        <time>2025-08-08T13:00:03.000Z</time>
      </trkpt>
      <trkpt lat="45.88979" lon="6.17268">
        <ele>500.39999389648</ele>
        <time>2025-08-08T13:00:05.000Z</time>
      </trkpt>
      <trkpt lat="45.8895" lon="6.17299">
        <ele>501.39999389648</ele>
        <time>2025-08-08T13:00:12.000Z</time>
      </trkpt>
      <trkpt lat="45.88928" lon="6.17313">
        <ele>502.20001220703</ele>
        <time>2025-08-08T13:00:17.000Z</time>
      </trkpt>
      <trkpt lat="45.88915" lon="6.17321">
        <ele>502.60000610352</ele>
        <time>2025-08-08T13:00:20.000Z</time>
      </trkpt>
      <trkpt lat="45.88897" lon="6.17333">
        <ele>502.79998779297</ele>
        <time>2025-08-08T13:00:24.000Z</time>
      </trkpt>
      <trkpt lat="45.8887" lon="6.17355">
        <ele>503</ele>
        <time>2025-08-08T13:00:30.000Z</time>
      </trkpt>
      <trkpt lat="45.88856" lon="6.17367">
        <ele>503.20001220703</ele>
        <time>2025-08-08T13:00:33.000Z</time>
      </trkpt>
      <trkpt lat="45.88814" lon="6.17392">
        <ele>503.39999389648</ele>
        <time>2025-08-08T13:00:41.000Z</time>
      </trkpt>
      <trkpt lat="45.88782" lon="6.174">
        <ele>503.20001220703</ele>
        <time>2025-08-08T13:00:47.000Z</time>
      </trkpt>
      <trkpt lat="45.88777" lon="6.174">
        <ele>503.20001220703</ele>
        <time>2025-08-08T13:00:48.000Z</time>
      </trkpt>
      <trkpt lat="45.88773" lon="6.17399">
        <ele>503.20001220703</ele>
        <time>2025-08-08T13:00:49.000Z</time>
      </trkpt>
      <trkpt lat="45.88763" lon="6.17398">
        <ele>503.20001220703</ele>
        <time>2025-08-08T13:00:51.000Z</time>
      </trkpt>
      <trkpt lat="45.88758" lon="6.17399">
        <ele>503.20001220703</ele>
        <time>2025-08-08T13:00:52.000Z</time>
      </trkpt>
      <trkpt lat="45.88753" lon="6.174">
        <ele>503.20001220703</ele>
        <time>2025-08-08T13:00:53.000Z</time>
      </trkpt>
      <trkpt lat="45.88744" lon="6.17407">
        <ele>503.20001220703</ele>
        <time>2025-08-08T13:00:55.000Z</time>
      </trkpt>
      <trkpt lat="45.8874" lon="6.17411">
        <ele>503.20001220703</ele>
        <time>2025-08-08T13:00:56.000Z</time>
      </trkpt>
      <trkpt lat="45.88736" lon="6.17414">
        <ele>503.20001220703</ele>
        <time>2025-08-08T13:00:57.000Z</time>
      </trkpt>
      <trkpt lat="45.88732" lon="6.17417">
        <ele>503.20001220703</ele>
        <time>2025-08-08T13:00:58.000Z</time>
      </trkpt>
      <trkpt lat="45.8872" lon="6.17421">
        <ele>503.39999389648</ele>
        <time>2025-08-08T13:01:01.000Z</time>
      </trkpt>
      <trkpt lat="45.88702" lon="6.17426">
        <ele>503.60000610352</ele>
        <time>2025-08-08T13:01:05.000Z</time>
      </trkpt>
      <trkpt lat="45.88688" lon="6.1743">
        <ele>504</ele>
        <time>2025-08-08T13:01:08.000Z</time>
      </trkpt>
      <trkpt lat="45.88654" lon="6.17451">
        <ele>504.39999389648</ele>
        <time>2025-08-08T13:01:15.000Z</time>
      </trkpt>
      <trkpt lat="45.88627" lon="6.17476">
        <ele>504.60000610352</ele>
        <time>2025-08-08T13:01:21.000Z</time>
      </trkpt>
      <trkpt lat="45.88618" lon="6.17485">
        <ele>504.79998779297</ele>
        <time>2025-08-08T13:01:23.000Z</time>
      </trkpt>
      <trkpt lat="45.88577" lon="6.17526">
        <ele>505.39999389648</ele>
        <time>2025-08-08T13:01:32.000Z</time>
      </trkpt>
      <trkpt lat="45.88566" lon="6.17539">
        <ele>505.60000610352</ele>
        <time>2025-08-08T13:01:35.000Z</time>
      </trkpt>
      <trkpt lat="45.88553" lon="6.17553">
        <ele>506</ele>
        <time>2025-08-08T13:01:38.000Z</time>
      </trkpt>
      <trkpt lat="45.88535" lon="6.1757">
        <ele>506.39999389648</ele>
        <time>2025-08-08T13:01:42.000Z</time>
      </trkpt>
      <trkpt lat="45.88515" lon="6.17588">
        <ele>506.79998779297</ele>
        <time>2025-08-08T13:01:47.000Z</time>
      </trkpt>
      <trkpt lat="45.88508" lon="6.17595">
        <ele>507.20001220703</ele>
        <time>2025-08-08T13:01:49.000Z</time>
      </trkpt>
      <trkpt lat="45.88501" lon="6.17602">
        <ele>507.39999389648</ele>
        <time>2025-08-08T13:01:51.000Z</time>
      </trkpt>
      <trkpt lat="45.88494" lon="6.17607">
        <ele>508.20001220703</ele>
        <time>2025-08-08T13:01:53.000Z</time>
      </trkpt>
      <trkpt lat="45.8849" lon="6.1761">
        <ele>508.60000610352</ele>
        <time>2025-08-08T13:01:54.000Z</time>
      </trkpt>
      <trkpt lat="45.88482" lon="6.17621">
        <ele>509.20001220703</ele>
        <time>2025-08-08T13:01:57.000Z</time>
      </trkpt>
      <trkpt lat="45.88462" lon="6.17644">
        <ele>510.20001220703</ele>
        <time>2025-08-08T13:02:04.000Z</time>
      </trkpt>
      <trkpt lat="45.8845" lon="6.17659">
        <ele>511.60000610352</ele>
        <time>2025-08-08T13:02:08.000Z</time>
      </trkpt>
      <trkpt lat="45.88442" lon="6.17671">
        <ele>512</ele>
        <time>2025-08-08T13:02:11.000Z</time>
      </trkpt>
      <trkpt lat="45.88428" lon="6.17687">
        <ele>512.79998779297</ele>
        <time>2025-08-08T13:02:16.000Z</time>
      </trkpt>
      <trkpt lat="45.88419" lon="6.17696">
        <ele>514</ele>
        <time>2025-08-08T13:02:19.000Z</time>
      </trkpt>
      <trkpt lat="45.88414" lon="6.17702">
        <ele>514.20001220703</ele>
        <time>2025-08-08T13:02:21.000Z</time>
      </trkpt>
      <trkpt lat="45.88404" lon="6.17713">
        <ele>514.79998779297</ele>
        <time>2025-08-08T13:02:24.000Z</time>
      </trkpt>
      <trkpt lat="45.88401" lon="6.17716">
        <ele>515</ele>
        <time>2025-08-08T13:02:25.000Z</time>
      </trkpt>
      <trkpt lat="45.88392" lon="6.17729">
        <ele>515.40002441406</ele>
        <time>2025-08-08T13:02:28.000Z</time>
      </trkpt>
      <trkpt lat="45.88363" lon="6.17755">
        <ele>516</ele>
        <time>2025-08-08T13:02:36.000Z</time>
      </trkpt>
      <trkpt lat="45.88327" lon="6.1778">
        <ele>516.79998779297</ele>
        <time>2025-08-08T13:02:45.000Z</time>
      </trkpt>
      <trkpt lat="45.88315" lon="6.17789">
        <ele>517.20001220703</ele>
        <time>2025-08-08T13:02:48.000Z</time>
      </trkpt>
      <trkpt lat="45.88299" lon="6.178">
        <ele>517.40002441406</ele>
        <time>2025-08-08T13:02:52.000Z</time>
      </trkpt>
      <trkpt lat="45.88286" lon="6.17806">
        <ele>517.79998779297</ele>
        <time>2025-08-08T13:02:55.000Z</time>
      </trkpt>
      <trkpt lat="45.88269" lon="6.1781">
        <ele>518.20001220703</ele>
        <time>2025-08-08T13:02:59.000Z</time>
      </trkpt>
      <trkpt lat="45.88231" lon="6.17825">
        <ele>519.20001220703</ele>
        <time>2025-08-08T13:03:08.000Z</time>
      </trkpt>
      <trkpt lat="45.88226" lon="6.17827">
        <ele>519.20001220703</ele>
        <time>2025-08-08T13:03:09.000Z</time>
      </trkpt>
      <trkpt lat="45.88223" lon="6.17828">
        <ele>519.59997558594</ele>
        <time>2025-08-08T13:03:10.000Z</time>
      </trkpt>
      <trkpt lat="45.88214" lon="6.17826">
        <ele>519.79998779297</ele>
        <time>2025-08-08T13:03:12.000Z</time>
      </trkpt>
      <trkpt lat="45.88209" lon="6.17824">
        <ele>519.79998779297</ele>
        <time>2025-08-08T13:03:13.000Z</time>
      </trkpt>
      <trkpt lat="45.88205" lon="6.17824">
        <ele>520</ele>
        <time>2025-08-08T13:03:14.000Z</time>
      </trkpt>
      <trkpt lat="45.88196" lon="6.17826">
        <ele>520.20001220703</ele>
        <time>2025-08-08T13:03:16.000Z</time>
      </trkpt>
      <trkpt lat="45.88191" lon="6.17827">
        <ele>520.40002441406</ele>
        <time>2025-08-08T13:03:17.000Z</time>
      </trkpt>
      <trkpt lat="45.88155" lon="6.17846">
        <ele>520.59997558594</ele>
        <time>2025-08-08T13:03:25.000Z</time>
      </trkpt>
      <trkpt lat="45.88138" lon="6.17864">
        <ele>520.79998779297</ele>
        <time>2025-08-08T13:03:29.000Z</time>
      </trkpt>
      <trkpt lat="45.88127" lon="6.17878">
        <ele>521</ele>
        <time>2025-08-08T13:03:32.000Z</time>
      </trkpt>
      <trkpt lat="45.88115" lon="6.17892">
        <ele>521.40002441406</ele>
        <time>2025-08-08T13:03:35.000Z</time>
      </trkpt>
      <trkpt lat="45.88112" lon="6.17897">
        <ele>521.40002441406</ele>
        <time>2025-08-08T13:03:36.000Z</time>
      </trkpt>
      <trkpt lat="45.88095" lon="6.17914">
        <ele>521.79998779297</ele>
        <time>2025-08-08T13:03:40.000Z</time>
      </trkpt>
      <trkpt lat="45.88069" lon="6.17943">
        <ele>522.40002441406</ele>
        <time>2025-08-08T13:03:46.000Z</time>
      </trkpt>
      <trkpt lat="45.88051" lon="6.17961">
        <ele>522.59997558594</ele>
        <time>2025-08-08T13:03:50.000Z</time>
      </trkpt>
      <trkpt lat="45.88024" lon="6.17985">
        <ele>522.40002441406</ele>
        <time>2025-08-08T13:03:56.000Z</time>
      </trkpt>
      <trkpt lat="45.8802" lon="6.17989">
        <ele>522.20001220703</ele>
        <time>2025-08-08T13:03:57.000Z</time>
      </trkpt>
      <trkpt lat="45.88012" lon="6.17996">
        <ele>522</ele>
        <time>2025-08-08T13:03:59.000Z</time>
      </trkpt>
      <trkpt lat="45.88006" lon="6.18008">
        <ele>521.79998779297</ele>
        <time>2025-08-08T13:04:01.000Z</time>
      </trkpt>
      <trkpt lat="45.87989" lon="6.18028">
        <ele>521.79998779297</ele>
        <time>2025-08-08T13:04:05.000Z</time>
      </trkpt>
      <trkpt lat="45.87949" lon="6.18067">
        <ele>522.79998779297</ele>
        <time>2025-08-08T13:04:15.000Z</time>
      </trkpt>
      <trkpt lat="45.87933" lon="6.18079">
        <ele>523.40002441406</ele>
        <time>2025-08-08T13:04:19.000Z</time>
      </trkpt>
      <trkpt lat="45.87912" lon="6.18094">
        <ele>524</ele>
        <time>2025-08-08T13:04:24.000Z</time>
      </trkpt>
      <trkpt lat="45.87904" lon="6.181">
        <ele>524.59997558594</ele>
        <time>2025-08-08T13:04:26.000Z</time>
      </trkpt>
      <trkpt lat="45.87883" lon="6.1812">
        <ele>525.40002441406</ele>
        <time>2025-08-08T13:04:32.000Z</time>
      </trkpt>
      <trkpt lat="45.87875" lon="6.18127">
        <ele>525.59997558594</ele>
        <time>2025-08-08T13:04:34.000Z</time>
      </trkpt>
      <trkpt lat="45.87844" lon="6.1815">
        <ele>526.59997558594</ele>
        <time>2025-08-08T13:04:42.000Z</time>
      </trkpt>
      <trkpt lat="45.8784" lon="6.18152">
        <ele>526.79998779297</ele>
        <time>2025-08-08T13:04:43.000Z</time>
      </trkpt>
      <trkpt lat="45.87812" lon="6.18167">
        <ele>527.79998779297</ele>
        <time>2025-08-08T13:04:50.000Z</time>
      </trkpt>
      <trkpt lat="45.87801" lon="6.18175">
        <ele>528</ele>
        <time>2025-08-08T13:04:53.000Z</time>
      </trkpt>
      <trkpt lat="45.87778" lon="6.18189">
        <ele>528.79998779297</ele>
        <time>2025-08-08T13:04:59.000Z</time>
      </trkpt>
      <trkpt lat="45.87763" lon="6.18198">
        <ele>529.20001220703</ele>
        <time>2025-08-08T13:05:03.000Z</time>
      </trkpt>
      <trkpt lat="45.87758" lon="6.18201">
        <ele>529.40002441406</ele>
        <time>2025-08-08T13:05:04.000Z</time>
      </trkpt>
      <trkpt lat="45.87743" lon="6.18208">
        <ele>529.79998779297</ele>
        <time>2025-08-08T13:05:08.000Z</time>
      </trkpt>
      <trkpt lat="45.87724" lon="6.18219">
        <ele>530.40002441406</ele>
        <time>2025-08-08T13:05:13.000Z</time>
      </trkpt>
      <trkpt lat="45.87717" lon="6.18225">
        <ele>531</ele>
        <time>2025-08-08T13:05:15.000Z</time>
      </trkpt>
      <trkpt lat="45.87696" lon="6.18241">
        <ele>531.59997558594</ele>
        <time>2025-08-08T13:05:21.000Z</time>
      </trkpt>
      <trkpt lat="45.87686" lon="6.1825">
        <ele>532.20001220703</ele>
        <time>2025-08-08T13:05:24.000Z</time>
      </trkpt>
      <trkpt lat="45.87667" lon="6.18269">
        <ele>533.20001220703</ele>
        <time>2025-08-08T13:05:30.000Z</time>
      </trkpt>
      <trkpt lat="45.87664" lon="6.18273">
        <ele>533.40002441406</ele>
        <time>2025-08-08T13:05:31.000Z</time>
      </trkpt>
      <trkpt lat="45.87641" lon="6.18299">
        <ele>534.59997558594</ele>
        <time>2025-08-08T13:05:39.000Z</time>
      </trkpt>
      <trkpt lat="45.87615" lon="6.18322">
        <ele>535.59997558594</ele>
        <time>2025-08-08T13:05:47.000Z</time>
      </trkpt>
      <trkpt lat="45.87612" lon="6.18324">
        <ele>535.79998779297</ele>
        <time>2025-08-08T13:05:48.000Z</time>
      </trkpt>
      <trkpt lat="45.87594" lon="6.18337">
        <ele>536.40002441406</ele>
        <time>2025-08-08T13:05:53.000Z</time>
      </trkpt>
      <trkpt lat="45.87582" lon="6.18346">
        <ele>537</ele>
        <time>2025-08-08T13:05:57.000Z</time>
      </trkpt>
      <trkpt lat="45.87571" lon="6.18353">
        <ele>537.59997558594</ele>
        <time>2025-08-08T13:06:00.000Z</time>
      </trkpt>
      <trkpt lat="45.87545" lon="6.18369">
        <ele>538.59997558594</ele>
        <time>2025-08-08T13:06:07.000Z</time>
      </trkpt>
      <trkpt lat="45.87516" lon="6.18383">
        <ele>539.79998779297</ele>
        <time>2025-08-08T13:06:15.000Z</time>
      </trkpt>
      <trkpt lat="45.87512" lon="6.18385">
        <ele>540</ele>
        <time>2025-08-08T13:06:16.000Z</time>
      </trkpt>
      <trkpt lat="45.87499" lon="6.18392">
        <ele>540.79998779297</ele>
        <time>2025-08-08T13:06:20.000Z</time>
      </trkpt>
      <trkpt lat="45.87485" lon="6.184">
        <ele>541.79998779297</ele>
        <time>2025-08-08T13:06:24.000Z</time>
      </trkpt>
      <trkpt lat="45.87481" lon="6.18403">
        <ele>542</ele>
        <time>2025-08-08T13:06:25.000Z</time>
      </trkpt>
      <trkpt lat="45.87463" lon="6.18412">
        <ele>543</ele>
        <time>2025-08-08T13:06:30.000Z</time>
      </trkpt>
      <trkpt lat="45.87457" lon="6.18416">
        <ele>543.20001220703</ele>
        <time>2025-08-08T13:06:32.000Z</time>
      </trkpt>
      <trkpt lat="45.87433" lon="6.1843">
        <ele>544.20001220703</ele>
        <time>2025-08-08T13:06:39.000Z</time>
      </trkpt>
      <trkpt lat="45.87418" lon="6.1844">
        <ele>545.40002441406</ele>
        <time>2025-08-08T13:06:43.000Z</time>
      </trkpt>
      <trkpt lat="45.87397" lon="6.18454">
        <ele>546.20001220703</ele>
        <time>2025-08-08T13:06:49.000Z</time>
      </trkpt>
      <trkpt lat="45.87386" lon="6.1846">
        <ele>546.59997558594</ele>
        <time>2025-08-08T13:06:52.000Z</time>
      </trkpt>
      <trkpt lat="45.87366" lon="6.18468">
        <ele>547.20001220703</ele>
        <time>2025-08-08T13:06:58.000Z</time>
      </trkpt>
      <trkpt lat="45.87358" lon="6.18471">
        <ele>547.59997558594</ele>
        <time>2025-08-08T13:07:00.000Z</time>
      </trkpt>
      <trkpt lat="45.87344" lon="6.18477">
        <ele>548.20001220703</ele>
        <time>2025-08-08T13:07:04.000Z</time>
      </trkpt>
      <trkpt lat="45.87322" lon="6.18485">
        <ele>548.79998779297</ele>
        <time>2025-08-08T13:07:10.000Z</time>
      </trkpt>
      <trkpt lat="45.87318" lon="6.18487">
        <ele>548.79998779297</ele>
        <time>2025-08-08T13:07:11.000Z</time>
      </trkpt>
      <trkpt lat="45.87307" lon="6.18494">
        <ele>549.79998779297</ele>
        <time>2025-08-08T13:07:14.000Z</time>
      </trkpt>
      <trkpt lat="45.87293" lon="6.18505">
        <ele>550.40002441406</ele>
        <time>2025-08-08T13:07:18.000Z</time>
      </trkpt>
      <trkpt lat="45.87283" lon="6.18515">
        <ele>551</ele>
        <time>2025-08-08T13:07:21.000Z</time>
      </trkpt>
      <trkpt lat="45.87254" lon="6.18542">
        <ele>552</ele>
        <time>2025-08-08T13:07:30.000Z</time>
      </trkpt>
      <trkpt lat="45.87251" lon="6.18545">
        <ele>552.20001220703</ele>
        <time>2025-08-08T13:07:31.000Z</time>
      </trkpt>
      <trkpt lat="45.87233" lon="6.18566">
        <ele>553.20001220703</ele>
        <time>2025-08-08T13:07:37.000Z</time>
      </trkpt>
      <trkpt lat="45.87228" lon="6.18574">
        <ele>553.59997558594</ele>
        <time>2025-08-08T13:07:39.000Z</time>
      </trkpt>
      <trkpt lat="45.87221" lon="6.18586">
        <ele>554.40002441406</ele>
        <time>2025-08-08T13:07:42.000Z</time>
      </trkpt>
      <trkpt lat="45.87208" lon="6.18608">
        <ele>555.59997558594</ele>
        <time>2025-08-08T13:07:47.000Z</time>
      </trkpt>
      <trkpt lat="45.87205" lon="6.18612">
        <ele>556</ele>
        <time>2025-08-08T13:07:48.000Z</time>
      </trkpt>
      <trkpt lat="45.87197" lon="6.18625">
        <ele>556.40002441406</ele>
        <time>2025-08-08T13:07:51.000Z</time>
      </trkpt>
      <trkpt lat="45.87184" lon="6.18641">
        <ele>557.40002441406</ele>
        <time>2025-08-08T13:07:55.000Z</time>
      </trkpt>
      <trkpt lat="45.87181" lon="6.18644">
        <ele>557.59997558594</ele>
        <time>2025-08-08T13:07:56.000Z</time>
      </trkpt>
      <trkpt lat="45.8716" lon="6.1867">
        <ele>558.59997558594</ele>
        <time>2025-08-08T13:08:03.000Z</time>
      </trkpt>
      <trkpt lat="45.87133" lon="6.18698">
        <ele>559.59997558594</ele>
        <time>2025-08-08T13:08:11.000Z</time>
      </trkpt>
      <trkpt lat="45.87129" lon="6.18701">
        <ele>560</ele>
        <time>2025-08-08T13:08:12.000Z</time>
      </trkpt>
      <trkpt lat="45.87123" lon="6.18709">
        <ele>560.40002441406</ele>
        <time>2025-08-08T13:08:14.000Z</time>
      </trkpt>
      <trkpt lat="45.87112" lon="6.18718">
        <ele>560.79998779297</ele>
        <time>2025-08-08T13:08:17.000Z</time>
      </trkpt>
      <trkpt lat="45.87108" lon="6.18721">
        <ele>561</ele>
        <time>2025-08-08T13:08:18.000Z</time>
      </trkpt>
      <trkpt lat="45.87101" lon="6.18727">
        <ele>561.20001220703</ele>
        <time>2025-08-08T13:08:20.000Z</time>
      </trkpt>
      <trkpt lat="45.87091" lon="6.18737">
        <ele>562</ele>
        <time>2025-08-08T13:08:23.000Z</time>
      </trkpt>
      <trkpt lat="45.87088" lon="6.18741">
        <ele>562.20001220703</ele>
        <time>2025-08-08T13:08:24.000Z</time>
      </trkpt>
      <trkpt lat="45.87073" lon="6.18755">
        <ele>563</ele>
        <time>2025-08-08T13:08:29.000Z</time>
      </trkpt>
      <trkpt lat="45.87063" lon="6.18765">
        <ele>563.40002441406</ele>
        <time>2025-08-08T13:08:32.000Z</time>
      </trkpt>
      <trkpt lat="45.87048" lon="6.18783">
        <ele>564.20001220703</ele>
        <time>2025-08-08T13:08:37.000Z</time>
      </trkpt>
      <trkpt lat="45.87043" lon="6.1879">
        <ele>564.59997558594</ele>
        <time>2025-08-08T13:08:39.000Z</time>
      </trkpt>
      <trkpt lat="45.87036" lon="6.18802">
        <ele>565.59997558594</ele>
        <time>2025-08-08T13:08:42.000Z</time>
      </trkpt>
      <trkpt lat="45.8703" lon="6.1881">
        <ele>566.20001220703</ele>
        <time>2025-08-08T13:08:44.000Z</time>
      </trkpt>
      <trkpt lat="45.87024" lon="6.18817">
        <ele>566.59997558594</ele>
        <time>2025-08-08T13:08:46.000Z</time>
      </trkpt>
      <trkpt lat="45.87018" lon="6.18824">
        <ele>567</ele>
        <time>2025-08-08T13:08:48.000Z</time>
      </trkpt>
      <trkpt lat="45.87012" lon="6.18828">
        <ele>567.40002441406</ele>
        <time>2025-08-08T13:08:50.000Z</time>
      </trkpt>
      <trkpt lat="45.87008" lon="6.18831">
        <ele>567.40002441406</ele>
        <time>2025-08-08T13:08:51.000Z</time>
      </trkpt>
      <trkpt lat="45.87005" lon="6.18834">
        <ele>567.79998779297</ele>
        <time>2025-08-08T13:08:52.000Z</time>
      </trkpt>
      <trkpt lat="45.86999" lon="6.18842">
        <ele>568.20001220703</ele>
        <time>2025-08-08T13:08:54.000Z</time>
      </trkpt>
      <trkpt lat="45.86988" lon="6.18857">
        <ele>569</ele>
        <time>2025-08-08T13:08:58.000Z</time>
      </trkpt>
      <trkpt lat="45.86969" lon="6.18882">
        <ele>570</ele>
        <time>2025-08-08T13:09:04.000Z</time>
      </trkpt>
      <trkpt lat="45.86967" lon="6.18886">
        <ele>570.20001220703</ele>
        <time>2025-08-08T13:09:05.000Z</time>
      </trkpt>
      <trkpt lat="45.86954" lon="6.18902">
        <ele>571</ele>
        <time>2025-08-08T13:09:09.000Z</time>
      </trkpt>
      <trkpt lat="45.86952" lon="6.18907">
        <ele>571.20001220703</ele>
        <time>2025-08-08T13:09:10.000Z</time>
      </trkpt>
      <trkpt lat="45.86937" lon="6.18926">
        <ele>572</ele>
        <time>2025-08-08T13:09:15.000Z</time>
      </trkpt>
      <trkpt lat="45.86913" lon="6.18955">
        <ele>573</ele>
        <time>2025-08-08T13:09:23.000Z</time>
      </trkpt>
      <trkpt lat="45.86911" lon="6.18959">
        <ele>573.20001220703</ele>
        <time>2025-08-08T13:09:24.000Z</time>
      </trkpt>
      <trkpt lat="45.86897" lon="6.18979">
        <ele>574</ele>
        <time>2025-08-08T13:09:29.000Z</time>
      </trkpt>
      <trkpt lat="45.86894" lon="6.18984">
        <ele>574.20001220703</ele>
        <time>2025-08-08T13:09:30.000Z</time>
      </trkpt>
      <trkpt lat="45.8688" lon="6.19005">
        <ele>575</ele>
        <time>2025-08-08T13:09:35.000Z</time>
      </trkpt>
      <trkpt lat="45.86868" lon="6.19019">
        <ele>575.40002441406</ele>
        <time>2025-08-08T13:09:39.000Z</time>
      </trkpt>
      <trkpt lat="45.86859" lon="6.19032">
        <ele>575.40002441406</ele>
        <time>2025-08-08T13:09:42.000Z</time>
      </trkpt>
      <trkpt lat="45.86848" lon="6.19054">
        <ele>576.20001220703</ele>
        <time>2025-08-08T13:09:47.000Z</time>
      </trkpt>
      <trkpt lat="45.8683" lon="6.19092">
        <ele>577.40002441406</ele>
        <time>2025-08-08T13:09:55.000Z</time>
      </trkpt>
      <trkpt lat="45.86828" lon="6.19096">
        <ele>577.40002441406</ele>
        <time>2025-08-08T13:09:56.000Z</time>
      </trkpt>
      <trkpt lat="45.86809" lon="6.1913">
        <ele>578.40002441406</ele>
        <time>2025-08-08T13:10:04.000Z</time>
      </trkpt>
      <trkpt lat="45.8679" lon="6.19146">
        <ele>579.40002441406</ele>
        <time>2025-08-08T13:10:10.000Z</time>
      </trkpt>
      <trkpt lat="45.86787" lon="6.19148">
        <ele>579.79998779297</ele>
        <time>2025-08-08T13:10:11.000Z</time>
      </trkpt>
      <trkpt lat="45.86783" lon="6.19154">
        <ele>580.40002441406</ele>
        <time>2025-08-08T13:10:13.000Z</time>
      </trkpt>
      <trkpt lat="45.86777" lon="6.19163">
        <ele>581</ele>
        <time>2025-08-08T13:10:15.000Z</time>
      </trkpt>
      <trkpt lat="45.8677" lon="6.19177">
        <ele>581.59997558594</ele>
        <time>2025-08-08T13:10:18.000Z</time>
      </trkpt>
      <trkpt lat="45.86766" lon="6.19187">
        <ele>582.40002441406</ele>
        <time>2025-08-08T13:10:20.000Z</time>
      </trkpt>
      <trkpt lat="45.86764" lon="6.19191">
        <ele>582.79998779297</ele>
        <time>2025-08-08T13:10:21.000Z</time>
      </trkpt>
      <trkpt lat="45.86755" lon="6.19213">
        <ele>583.59997558594</ele>
        <time>2025-08-08T13:10:26.000Z</time>
      </trkpt>
      <trkpt lat="45.86752" lon="6.19217">
        <ele>583.79998779297</ele>
        <time>2025-08-08T13:10:27.000Z</time>
      </trkpt>
      <trkpt lat="45.86736" lon="6.1925">
        <ele>584.79998779297</ele>
        <time>2025-08-08T13:10:34.000Z</time>
      </trkpt>
      <trkpt lat="45.86719" lon="6.19279">
        <ele>585.59997558594</ele>
        <time>2025-08-08T13:10:41.000Z</time>
      </trkpt>
      <trkpt lat="45.86716" lon="6.19286">
        <ele>585.79998779297</ele>
        <time>2025-08-08T13:10:43.000Z</time>
      </trkpt>
      <trkpt lat="45.86706" lon="6.19305">
        <ele>587</ele>
        <time>2025-08-08T13:10:48.000Z</time>
      </trkpt>
      <trkpt lat="45.86701" lon="6.19313">
        <ele>587.40002441406</ele>
        <time>2025-08-08T13:10:50.000Z</time>
      </trkpt>
      <trkpt lat="45.86695" lon="6.19326">
        <ele>588.20001220703</ele>
        <time>2025-08-08T13:10:53.000Z</time>
      </trkpt>
      <trkpt lat="45.86686" lon="6.1935">
        <ele>589.20001220703</ele>
        <time>2025-08-08T13:10:58.000Z</time>
      </trkpt>
      <trkpt lat="45.86674" lon="6.19378">
        <ele>590.40002441406</ele>
        <time>2025-08-08T13:11:04.000Z</time>
      </trkpt>
      <trkpt lat="45.86668" lon="6.19386">
        <ele>590.59997558594</ele>
        <time>2025-08-08T13:11:06.000Z</time>
      </trkpt>
      <trkpt lat="45.86653" lon="6.19415">
        <ele>591.40002441406</ele>
        <time>2025-08-08T13:11:13.000Z</time>
      </trkpt>
      <trkpt lat="45.86648" lon="6.19428">
        <ele>591.79998779297</ele>
        <time>2025-08-08T13:11:16.000Z</time>
      </trkpt>
      <trkpt lat="45.86643" lon="6.19442">
        <ele>592.40002441406</ele>
        <time>2025-08-08T13:11:19.000Z</time>
      </trkpt>
      <trkpt lat="45.86633" lon="6.1947">
        <ele>593.20001220703</ele>
        <time>2025-08-08T13:11:25.000Z</time>
      </trkpt>
      <trkpt lat="45.86629" lon="6.19479">
        <ele>593.59997558594</ele>
        <time>2025-08-08T13:11:27.000Z</time>
      </trkpt>
      <trkpt lat="45.86621" lon="6.19503">
        <ele>594.59997558594</ele>
        <time>2025-08-08T13:11:32.000Z</time>
      </trkpt>
      <trkpt lat="45.86616" lon="6.19523">
        <ele>595.40002441406</ele>
        <time>2025-08-08T13:11:36.000Z</time>
      </trkpt>
      <trkpt lat="45.86616" lon="6.19528">
        <ele>595.79998779297</ele>
        <time>2025-08-08T13:11:37.000Z</time>
      </trkpt>
      <trkpt lat="45.86613" lon="6.19549">
        <ele>596.59997558594</ele>
        <time>2025-08-08T13:11:41.000Z</time>
      </trkpt>
      <trkpt lat="45.8661" lon="6.1957">
        <ele>597.59997558594</ele>
        <time>2025-08-08T13:11:45.000Z</time>
      </trkpt>
      <trkpt lat="45.86609" lon="6.19576">
        <ele>598</ele>
        <time>2025-08-08T13:11:46.000Z</time>
      </trkpt>
      <trkpt lat="45.86603" lon="6.19604">
        <ele>598.79998779297</ele>
        <time>2025-08-08T13:11:51.000Z</time>
      </trkpt>
      <trkpt lat="45.86602" lon="6.1962">
        <ele>599.40002441406</ele>
        <time>2025-08-08T13:11:54.000Z</time>
      </trkpt>
      <trkpt lat="45.866" lon="6.19636">
        <ele>600</ele>
        <time>2025-08-08T13:11:57.000Z</time>
      </trkpt>
      <trkpt lat="45.86598" lon="6.19659">
        <ele>601</ele>
        <time>2025-08-08T13:12:01.000Z</time>
      </trkpt>
      <trkpt lat="45.86598" lon="6.19709">
        <ele>602.20001220703</ele>
        <time>2025-08-08T13:12:10.000Z</time>
      </trkpt>
      <trkpt lat="45.86599" lon="6.19742">
        <ele>603.20001220703</ele>
        <time>2025-08-08T13:12:16.000Z</time>
      </trkpt>
      <trkpt lat="45.86599" lon="6.19747">
        <ele>603.40002441406</ele>
        <time>2025-08-08T13:12:17.000Z</time>
      </trkpt>
      <trkpt lat="45.86601" lon="6.19784">
        <ele>604.40002441406</ele>
        <time>2025-08-08T13:12:24.000Z</time>
      </trkpt>
      <trkpt lat="45.86602" lon="6.19807">
        <ele>605.59997558594</ele>
        <time>2025-08-08T13:12:29.000Z</time>
      </trkpt>
      <trkpt lat="45.86604" lon="6.19838">
        <ele>606.79998779297</ele>
        <time>2025-08-08T13:12:35.000Z</time>
      </trkpt>
      <trkpt lat="45.86603" lon="6.19843">
        <ele>607</ele>
        <time>2025-08-08T13:12:36.000Z</time>
      </trkpt>
      <trkpt lat="45.86601" lon="6.19864">
        <ele>607.79998779297</ele>
        <time>2025-08-08T13:12:40.000Z</time>
      </trkpt>
      <trkpt lat="45.866" lon="6.19869">
        <ele>608</ele>
        <time>2025-08-08T13:12:41.000Z</time>
      </trkpt>
      <trkpt lat="45.86596" lon="6.1989">
        <ele>608.79998779297</ele>
        <time>2025-08-08T13:12:45.000Z</time>
      </trkpt>
      <trkpt lat="45.86596" lon="6.19897">
        <ele>609.20001220703</ele>
        <time>2025-08-08T13:12:46.000Z</time>
      </trkpt>
      <trkpt lat="45.86594" lon="6.19933">
        <ele>610</ele>
        <time>2025-08-08T13:12:52.000Z</time>
      </trkpt>
      <trkpt lat="45.86594" lon="6.19939">
        <ele>610.20001220703</ele>
        <time>2025-08-08T13:12:53.000Z</time>
      </trkpt>
      <trkpt lat="45.86601" lon="6.19972">
        <ele>611.20001220703</ele>
        <time>2025-08-08T13:12:59.000Z</time>
      </trkpt>
      <trkpt lat="45.86602" lon="6.19977">
        <ele>611.40002441406</ele>
        <time>2025-08-08T13:13:00.000Z</time>
      </trkpt>
      <trkpt lat="45.86614" lon="6.20015">
        <ele>612.59997558594</ele>
        <time>2025-08-08T13:13:08.000Z</time>
      </trkpt>
      <trkpt lat="45.86617" lon="6.20025">
        <ele>613</ele>
        <time>2025-08-08T13:13:10.000Z</time>
      </trkpt>
      <trkpt lat="45.8662" lon="6.20034">
        <ele>613.59997558594</ele>
        <time>2025-08-08T13:13:12.000Z</time>
      </trkpt>
      <trkpt lat="45.86622" lon="6.20042">
        <ele>614</ele>
        <time>2025-08-08T13:13:14.000Z</time>
      </trkpt>
      <trkpt lat="45.86626" lon="6.20053">
        <ele>614.59997558594</ele>
        <time>2025-08-08T13:13:17.000Z</time>
      </trkpt>
      <trkpt lat="45.86628" lon="6.20057">
        <ele>614.79998779297</ele>
        <time>2025-08-08T13:13:18.000Z</time>
      </trkpt>
      <trkpt lat="45.86635" lon="6.20075">
        <ele>615.59997558594</ele>
        <time>2025-08-08T13:13:22.000Z</time>
      </trkpt>
      <trkpt lat="45.86636" lon="6.2008">
        <ele>615.79998779297</ele>
        <time>2025-08-08T13:13:23.000Z</time>
      </trkpt>
      <trkpt lat="45.86638" lon="6.20085">
        <ele>616.20001220703</ele>
        <time>2025-08-08T13:13:24.000Z</time>
      </trkpt>
      <trkpt lat="45.86643" lon="6.20094">
        <ele>616.79998779297</ele>
        <time>2025-08-08T13:13:26.000Z</time>
      </trkpt>
      <trkpt lat="45.86645" lon="6.20098">
        <ele>616.79998779297</ele>
        <time>2025-08-08T13:13:27.000Z</time>
      </trkpt>
      <trkpt lat="45.86653" lon="6.2012">
        <ele>617.59997558594</ele>
        <time>2025-08-08T13:13:31.000Z</time>
      </trkpt>
      <trkpt lat="45.86657" lon="6.20131">
        <ele>617.79998779297</ele>
        <time>2025-08-08T13:13:33.000Z</time>
      </trkpt>
      <trkpt lat="45.86663" lon="6.20153">
        <ele>618.59997558594</ele>
        <time>2025-08-08T13:13:37.000Z</time>
      </trkpt>
      <trkpt lat="45.86667" lon="6.20165">
        <ele>619</ele>
        <time>2025-08-08T13:13:39.000Z</time>
      </trkpt>
      <trkpt lat="45.86676" lon="6.20195">
        <ele>620</ele>
        <time>2025-08-08T13:13:46.000Z</time>
      </trkpt>
      <trkpt lat="45.86682" lon="6.20217">
        <ele>620.79998779297</ele>
        <time>2025-08-08T13:13:50.000Z</time>
      </trkpt>
      <trkpt lat="45.86685" lon="6.2023">
        <ele>621.40002441406</ele>
        <time>2025-08-08T13:13:53.000Z</time>
      </trkpt>
      <trkpt lat="45.8669" lon="6.20243">
        <ele>621.79998779297</ele>
        <time>2025-08-08T13:13:56.000Z</time>
      </trkpt>
      <trkpt lat="45.86697" lon="6.20262">
        <ele>623</ele>
        <time>2025-08-08T13:14:00.000Z</time>
      </trkpt>
      <trkpt lat="45.86699" lon="6.20266">
        <ele>623.20001220703</ele>
        <time>2025-08-08T13:14:01.000Z</time>
      </trkpt>
      <trkpt lat="45.86716" lon="6.20289">
        <ele>624.20001220703</ele>
        <time>2025-08-08T13:14:07.000Z</time>
      </trkpt>
      <trkpt lat="45.86719" lon="6.20292">
        <ele>624.40002441406</ele>
        <time>2025-08-08T13:14:08.000Z</time>
      </trkpt>
      <trkpt lat="45.86733" lon="6.20308">
        <ele>625.40002441406</ele>
        <time>2025-08-08T13:14:13.000Z</time>
      </trkpt>
      <trkpt lat="45.86743" lon="6.20322">
        <ele>625.79998779297</ele>
        <time>2025-08-08T13:14:17.000Z</time>
      </trkpt>
      <trkpt lat="45.86756" lon="6.20344">
        <ele>626.40002441406</ele>
        <time>2025-08-08T13:14:23.000Z</time>
      </trkpt>
      <trkpt lat="45.86765" lon="6.20366">
        <ele>627.40002441406</ele>
        <time>2025-08-08T13:14:29.000Z</time>
      </trkpt>
      <trkpt lat="45.86766" lon="6.2037">
        <ele>627.40002441406</ele>
        <time>2025-08-08T13:14:30.000Z</time>
      </trkpt>
      <trkpt lat="45.86774" lon="6.20384">
        <ele>628.40002441406</ele>
        <time>2025-08-08T13:14:35.000Z</time>
      </trkpt>
      <trkpt lat="45.86778" lon="6.20391">
        <ele>628.40002441406</ele>
        <time>2025-08-08T13:14:36.000Z</time>
      </trkpt>
      <trkpt lat="45.86789" lon="6.20406">
        <ele>629.59997558594</ele>
        <time>2025-08-08T13:14:40.000Z</time>
      </trkpt>
      <trkpt lat="45.86804" lon="6.20427">
        <ele>630.59997558594</ele>
        <time>2025-08-08T13:14:46.000Z</time>
      </trkpt>
      <trkpt lat="45.86814" lon="6.20436">
        <ele>631.20001220703</ele>
        <time>2025-08-08T13:14:49.000Z</time>
      </trkpt>
      <trkpt lat="45.86825" lon="6.20451">
        <ele>631.79998779297</ele>
        <time>2025-08-08T13:14:53.000Z</time>
      </trkpt>
      <trkpt lat="45.86835" lon="6.20466">
        <ele>632.20001220703</ele>
        <time>2025-08-08T13:14:57.000Z</time>
      </trkpt>
      <trkpt lat="45.86842" lon="6.2048">
        <ele>632.79998779297</ele>
        <time>2025-08-08T13:15:00.000Z</time>
      </trkpt>
      <trkpt lat="45.86847" lon="6.20494">
        <ele>633.20001220703</ele>
        <time>2025-08-08T13:15:03.000Z</time>
      </trkpt>
      <trkpt lat="45.86852" lon="6.20509">
        <ele>633.79998779297</ele>
        <time>2025-08-08T13:15:06.000Z</time>
      </trkpt>
      <trkpt lat="45.86854" lon="6.20528">
        <ele>634.20001220703</ele>
        <time>2025-08-08T13:15:10.000Z</time>
      </trkpt>
      <trkpt lat="45.86857" lon="6.20563">
        <ele>634.59997558594</ele>
        <time>2025-08-08T13:15:17.000Z</time>
      </trkpt>
      <trkpt lat="45.86858" lon="6.20573">
        <ele>634.79998779297</ele>
        <time>2025-08-08T13:15:19.000Z</time>
      </trkpt>
      <trkpt lat="45.86864" lon="6.20614">
        <ele>635.79998779297</ele>
        <time>2025-08-08T13:15:27.000Z</time>
      </trkpt>
      <trkpt lat="45.86866" lon="6.20624">
        <ele>636.20001220703</ele>
        <time>2025-08-08T13:15:29.000Z</time>
      </trkpt>
      <trkpt lat="45.86875" lon="6.20653">
        <ele>637</ele>
        <time>2025-08-08T13:15:35.000Z</time>
      </trkpt>
      <trkpt lat="45.86884" lon="6.20677">
        <ele>638.20001220703</ele>
        <time>2025-08-08T13:15:40.000Z</time>
      </trkpt>
      <trkpt lat="45.86886" lon="6.20682">
        <ele>638.40002441406</ele>
        <time>2025-08-08T13:15:41.000Z</time>
      </trkpt>
      <trkpt lat="45.86897" lon="6.20703">
        <ele>639.40002441406</ele>
        <time>2025-08-08T13:15:46.000Z</time>
      </trkpt>
      <trkpt lat="45.869" lon="6.20707">
        <ele>639.40002441406</ele>
        <time>2025-08-08T13:15:47.000Z</time>
      </trkpt>
      <trkpt lat="45.86905" lon="6.20714">
        <ele>639.79998779297</ele>
        <time>2025-08-08T13:15:49.000Z</time>
      </trkpt>
      <trkpt lat="45.86917" lon="6.20731">
        <ele>640.59997558594</ele>
        <time>2025-08-08T13:15:53.000Z</time>
      </trkpt>
      <trkpt lat="45.86928" lon="6.20745">
        <ele>641.59997558594</ele>
        <time>2025-08-08T13:15:57.000Z</time>
      </trkpt>
      <trkpt lat="45.86931" lon="6.20748">
        <ele>641.79998779297</ele>
        <time>2025-08-08T13:15:58.000Z</time>
      </trkpt>
      <trkpt lat="45.86953" lon="6.2077">
        <ele>643</ele>
        <time>2025-08-08T13:16:05.000Z</time>
      </trkpt>
      <trkpt lat="45.86962" lon="6.2078">
        <ele>643.40002441406</ele>
        <time>2025-08-08T13:16:08.000Z</time>
      </trkpt>
      <trkpt lat="45.86978" lon="6.20795">
        <ele>644</ele>
        <time>2025-08-08T13:16:13.000Z</time>
      </trkpt>
      <trkpt lat="45.86987" lon="6.20803">
        <ele>644.59997558594</ele>
        <time>2025-08-08T13:16:16.000Z</time>
      </trkpt>
      <trkpt lat="45.86999" lon="6.20815">
        <ele>645.20001220703</ele>
        <time>2025-08-08T13:16:20.000Z</time>
      </trkpt>
      <trkpt lat="45.87013" lon="6.20823">
        <ele>646</ele>
        <time>2025-08-08T13:16:24.000Z</time>
      </trkpt>
      <trkpt lat="45.87016" lon="6.20825">
        <ele>646.20001220703</ele>
        <time>2025-08-08T13:16:25.000Z</time>
      </trkpt>
      <trkpt lat="45.87041" lon="6.20836">
        <ele>646.79998779297</ele>
        <time>2025-08-08T13:16:32.000Z</time>
      </trkpt>
      <trkpt lat="45.87059" lon="6.20844">
        <ele>647.40002441406</ele>
        <time>2025-08-08T13:16:37.000Z</time>
      </trkpt>
      <trkpt lat="45.87069" lon="6.20851">
        <ele>647.59997558594</ele>
        <time>2025-08-08T13:16:40.000Z</time>
      </trkpt>
      <trkpt lat="45.87092" lon="6.20874">
        <ele>648.40002441406</ele>
        <time>2025-08-08T13:16:47.000Z</time>
      </trkpt>
      <trkpt lat="45.87094" lon="6.20877">
        <ele>648.59997558594</ele>
        <time>2025-08-08T13:16:48.000Z</time>
      </trkpt>
      <trkpt lat="45.87109" lon="6.20897">
        <ele>649.40002441406</ele>
        <time>2025-08-08T13:16:53.000Z</time>
      </trkpt>
      <trkpt lat="45.87126" lon="6.2092">
        <ele>650</ele>
        <time>2025-08-08T13:16:59.000Z</time>
      </trkpt>
      <trkpt lat="45.87139" lon="6.20937">
        <ele>650.59997558594</ele>
        <time>2025-08-08T13:17:03.000Z</time>
      </trkpt>
      <trkpt lat="45.87154" lon="6.20959">
        <ele>651.20001220703</ele>
        <time>2025-08-08T13:17:08.000Z</time>
      </trkpt>
      <trkpt lat="45.87166" lon="6.20975">
        <ele>651.59997558594</ele>
        <time>2025-08-08T13:17:12.000Z</time>
      </trkpt>
      <trkpt lat="45.87185" lon="6.21001">
        <ele>652.40002441406</ele>
        <time>2025-08-08T13:17:18.000Z</time>
      </trkpt>
      <trkpt lat="45.87196" lon="6.21015">
        <ele>652.59997558594</ele>
        <time>2025-08-08T13:17:21.000Z</time>
      </trkpt>
      <trkpt lat="45.8722" lon="6.21048">
        <ele>652.79998779297</ele>
        <time>2025-08-08T13:17:28.000Z</time>
      </trkpt>
      <trkpt lat="45.87249" lon="6.21097">
        <ele>653.20001220703</ele>
        <time>2025-08-08T13:17:37.000Z</time>
      </trkpt>
      <trkpt lat="45.87281" lon="6.21153">
        <ele>653.40002441406</ele>
        <time>2025-08-08T13:17:47.000Z</time>
      </trkpt>
      <trkpt lat="45.87289" lon="6.21167">
        <ele>653.59997558594</ele>
        <time>2025-08-08T13:17:50.000Z</time>
      </trkpt>
      <trkpt lat="45.87295" lon="6.21177">
        <ele>653.79998779297</ele>
        <time>2025-08-08T13:17:52.000Z</time>
      </trkpt>
      <trkpt lat="45.8731" lon="6.21202">
        <ele>654</ele>
        <time>2025-08-08T13:17:58.000Z</time>
      </trkpt>
      <trkpt lat="45.8732" lon="6.21221">
        <ele>654</ele>
        <time>2025-08-08T13:18:02.000Z</time>
      </trkpt>
      <trkpt lat="45.87325" lon="6.21229">
        <ele>654.20001220703</ele>
        <time>2025-08-08T13:18:04.000Z</time>
      </trkpt>
      <trkpt lat="45.87339" lon="6.21255">
        <ele>654.40002441406</ele>
        <time>2025-08-08T13:18:10.000Z</time>
      </trkpt>
      <trkpt lat="45.87353" lon="6.21281">
        <ele>654.40002441406</ele>
        <time>2025-08-08T13:18:15.000Z</time>
      </trkpt>
      <trkpt lat="45.87362" lon="6.21295">
        <ele>654.59997558594</ele>
        <time>2025-08-08T13:18:18.000Z</time>
      </trkpt>
      <trkpt lat="45.87371" lon="6.2131">
        <ele>655.20001220703</ele>
        <time>2025-08-08T13:18:21.000Z</time>
      </trkpt>
      <trkpt lat="45.87378" lon="6.21318">
        <ele>655.40002441406</ele>
        <time>2025-08-08T13:18:23.000Z</time>
      </trkpt>
      <trkpt lat="45.87386" lon="6.21328">
        <ele>655.59997558594</ele>
        <time>2025-08-08T13:18:25.000Z</time>
      </trkpt>
      <trkpt lat="45.87408" lon="6.21353">
        <ele>656.20001220703</ele>
        <time>2025-08-08T13:18:31.000Z</time>
      </trkpt>
      <trkpt lat="45.8742" lon="6.21363">
        <ele>656.79998779297</ele>
        <time>2025-08-08T13:18:34.000Z</time>
      </trkpt>
      <trkpt lat="45.87446" lon="6.21387">
        <ele>657</ele>
        <time>2025-08-08T13:18:40.000Z</time>
      </trkpt>
      <trkpt lat="45.87455" lon="6.21395">
        <ele>657.20001220703</ele>
        <time>2025-08-08T13:18:42.000Z</time>
      </trkpt>
      <trkpt lat="45.87459" lon="6.21399">
        <ele>657.40002441406</ele>
        <time>2025-08-08T13:18:43.000Z</time>
      </trkpt>
      <trkpt lat="45.87471" lon="6.21416">
        <ele>657.59997558594</ele>
        <time>2025-08-08T13:18:46.000Z</time>
      </trkpt>
      <trkpt lat="45.87508" lon="6.21458">
        <ele>657.40002441406</ele>
        <time>2025-08-08T13:18:54.000Z</time>
      </trkpt>
      <trkpt lat="45.87539" lon="6.21495">
        <ele>657.40002441406</ele>
        <time>2025-08-08T13:19:00.000Z</time>
      </trkpt>
      <trkpt lat="45.87571" lon="6.21538">
        <ele>656.40002441406</ele>
        <time>2025-08-08T13:19:06.000Z</time>
      </trkpt>
      <trkpt lat="45.87601" lon="6.21592">
        <ele>655.79998779297</ele>
        <time>2025-08-08T13:19:13.000Z</time>
      </trkpt>
      <trkpt lat="45.8761" lon="6.21607">
        <ele>655.59997558594</ele>
        <time>2025-08-08T13:19:15.000Z</time>
      </trkpt>
      <trkpt lat="45.87646" lon="6.21665">
        <ele>654.79998779297</ele>
        <time>2025-08-08T13:19:23.000Z</time>
      </trkpt>
      <trkpt lat="45.87687" lon="6.21719">
        <ele>654.59997558594</ele>
        <time>2025-08-08T13:19:31.000Z</time>
      </trkpt>
      <trkpt lat="45.87692" lon="6.21725">
        <ele>654.59997558594</ele>
        <time>2025-08-08T13:19:32.000Z</time>
      </trkpt>
      <trkpt lat="45.87713" lon="6.21747">
        <ele>654.40002441406</ele>
        <time>2025-08-08T13:19:36.000Z</time>
      </trkpt>
      <trkpt lat="45.87736" lon="6.2177">
        <ele>654.40002441406</ele>
        <time>2025-08-08T13:19:40.000Z</time>
      </trkpt>
      <trkpt lat="45.87778" lon="6.21804">
        <ele>654.40002441406</ele>
        <time>2025-08-08T13:19:47.000Z</time>
      </trkpt>
      <trkpt lat="45.8779" lon="6.21813">
        <ele>654.20001220703</ele>
        <time>2025-08-08T13:19:49.000Z</time>
      </trkpt>
      <trkpt lat="45.87815" lon="6.21831">
        <ele>654</ele>
        <time>2025-08-08T13:19:53.000Z</time>
      </trkpt>
      <trkpt lat="45.87864" lon="6.2187">
        <ele>653.79998779297</ele>
        <time>2025-08-08T13:20:01.000Z</time>
      </trkpt>
      <trkpt lat="45.87913" lon="6.21906">
        <ele>653.59997558594</ele>
        <time>2025-08-08T13:20:09.000Z</time>
      </trkpt>
      <trkpt lat="45.87944" lon="6.21929">
        <ele>653</ele>
        <time>2025-08-08T13:20:14.000Z</time>
      </trkpt>
      <trkpt lat="45.87994" lon="6.21967">
        <ele>652.40002441406</ele>
        <time>2025-08-08T13:20:22.000Z</time>
      </trkpt>
      <trkpt lat="45.88012" lon="6.2198">
        <ele>652.20001220703</ele>
        <time>2025-08-08T13:20:25.000Z</time>
      </trkpt>
      <trkpt lat="45.88065" lon="6.2202">
        <ele>652.20001220703</ele>
        <time>2025-08-08T13:20:33.000Z</time>
      </trkpt>
      <trkpt lat="45.88097" lon="6.22044">
        <ele>651.79998779297</ele>
        <time>2025-08-08T13:20:38.000Z</time>
      </trkpt>
      <trkpt lat="45.88148" lon="6.22084">
        <ele>650.40002441406</ele>
        <time>2025-08-08T13:20:45.000Z</time>
      </trkpt>
      <trkpt lat="45.88179" lon="6.22109">
        <ele>649.40002441406</ele>
        <time>2025-08-08T13:20:49.000Z</time>
      </trkpt>
      <trkpt lat="45.88198" lon="6.22124">
        <ele>648.79998779297</ele>
        <time>2025-08-08T13:20:51.000Z</time>
      </trkpt>
      <trkpt lat="45.88207" lon="6.22131">
        <ele>648.20001220703</ele>
        <time>2025-08-08T13:20:52.000Z</time>
      </trkpt>
      <trkpt lat="45.88242" lon="6.2216">
        <ele>647</ele>
        <time>2025-08-08T13:20:56.000Z</time>
      </trkpt>
      <trkpt lat="45.88259" lon="6.22177">
        <ele>646</ele>
        <time>2025-08-08T13:20:58.000Z</time>
      </trkpt>
      <trkpt lat="45.88266" lon="6.22184">
        <ele>645.59997558594</ele>
        <time>2025-08-08T13:20:59.000Z</time>
      </trkpt>
      <trkpt lat="45.88281" lon="6.22201">
        <ele>644</ele>
        <time>2025-08-08T13:21:01.000Z</time>
      </trkpt>
      <trkpt lat="45.88306" lon="6.22229">
        <ele>643</ele>
        <time>2025-08-08T13:21:04.000Z</time>
      </trkpt>
      <trkpt lat="45.88323" lon="6.22249">
        <ele>642</ele>
        <time>2025-08-08T13:21:06.000Z</time>
      </trkpt>
      <trkpt lat="45.88332" lon="6.22258">
        <ele>641.20001220703</ele>
        <time>2025-08-08T13:21:07.000Z</time>
      </trkpt>
      <trkpt lat="45.88347" lon="6.22274">
        <ele>640.59997558594</ele>
        <time>2025-08-08T13:21:09.000Z</time>
      </trkpt>
      <trkpt lat="45.88365" lon="6.22293">
        <ele>639.40002441406</ele>
        <time>2025-08-08T13:21:11.000Z</time>
      </trkpt>
      <trkpt lat="45.88382" lon="6.2231">
        <ele>638.20001220703</ele>
        <time>2025-08-08T13:21:13.000Z</time>
      </trkpt>
      <trkpt lat="45.88398" lon="6.22326">
        <ele>637</ele>
        <time>2025-08-08T13:21:15.000Z</time>
      </trkpt>
      <trkpt lat="45.88417" lon="6.22345">
        <ele>636</ele>
        <time>2025-08-08T13:21:17.000Z</time>
      </trkpt>
      <trkpt lat="45.88433" lon="6.22361">
        <ele>635</ele>
        <time>2025-08-08T13:21:19.000Z</time>
      </trkpt>
      <trkpt lat="45.88458" lon="6.22384">
        <ele>633.79998779297</ele>
        <time>2025-08-08T13:21:22.000Z</time>
      </trkpt>
      <trkpt lat="45.88466" lon="6.22392">
        <ele>633.20001220703</ele>
        <time>2025-08-08T13:21:23.000Z</time>
      </trkpt>
      <trkpt lat="45.88482" lon="6.22407">
        <ele>632.59997558594</ele>
        <time>2025-08-08T13:21:25.000Z</time>
      </trkpt>
      <trkpt lat="45.88513" lon="6.22438">
        <ele>632</ele>
        <time>2025-08-08T13:21:29.000Z</time>
      </trkpt>
      <trkpt lat="45.88535" lon="6.22459">
        <ele>631.40002441406</ele>
        <time>2025-08-08T13:21:32.000Z</time>
      </trkpt>
      <trkpt lat="45.88551" lon="6.22473">
        <ele>631.20001220703</ele>
        <time>2025-08-08T13:21:34.000Z</time>
      </trkpt>
      <trkpt lat="45.88569" lon="6.22487">
        <ele>630.79998779297</ele>
        <time>2025-08-08T13:21:36.000Z</time>
      </trkpt>
      <trkpt lat="45.88592" lon="6.22502">
        <ele>630.59997558594</ele>
        <time>2025-08-08T13:21:39.000Z</time>
      </trkpt>
      <trkpt lat="45.8861" lon="6.22515">
        <ele>630.20001220703</ele>
        <time>2025-08-08T13:21:41.000Z</time>
      </trkpt>
      <trkpt lat="45.88644" lon="6.2253">
        <ele>629.20001220703</ele>
        <time>2025-08-08T13:21:45.000Z</time>
      </trkpt>
      <trkpt lat="45.88654" lon="6.22533">
        <ele>628.79998779297</ele>
        <time>2025-08-08T13:21:46.000Z</time>
      </trkpt>
      <trkpt lat="45.88672" lon="6.22538">
        <ele>628.40002441406</ele>
        <time>2025-08-08T13:21:48.000Z</time>
      </trkpt>
      <trkpt lat="45.88723" lon="6.22553">
        <ele>628</ele>
        <time>2025-08-08T13:21:54.000Z</time>
      </trkpt>
      <trkpt lat="45.88733" lon="6.22557">
        <ele>627.79998779297</ele>
        <time>2025-08-08T13:21:55.000Z</time>
      </trkpt>
      <trkpt lat="45.88784" lon="6.22582">
        <ele>626.59997558594</ele>
        <time>2025-08-08T13:22:01.000Z</time>
      </trkpt>
      <trkpt lat="45.88837" lon="6.22612">
        <ele>625.59997558594</ele>
        <time>2025-08-08T13:22:07.000Z</time>
      </trkpt>
      <trkpt lat="45.88855" lon="6.22622">
        <ele>625</ele>
        <time>2025-08-08T13:22:09.000Z</time>
      </trkpt>
      <trkpt lat="45.88872" lon="6.22632">
        <ele>624.40002441406</ele>
        <time>2025-08-08T13:22:11.000Z</time>
      </trkpt>
      <trkpt lat="45.88924" lon="6.22662">
        <ele>623.20001220703</ele>
        <time>2025-08-08T13:22:17.000Z</time>
      </trkpt>
      <trkpt lat="45.88942" lon="6.22673">
        <ele>622.79998779297</ele>
        <time>2025-08-08T13:22:19.000Z</time>
      </trkpt>
      <trkpt lat="45.8897" lon="6.22688">
        <ele>622</ele>
        <time>2025-08-08T13:22:22.000Z</time>
      </trkpt>
      <trkpt lat="45.88995" lon="6.22701">
        <ele>621</ele>
        <time>2025-08-08T13:22:25.000Z</time>
      </trkpt>
      <trkpt lat="45.89023" lon="6.22715">
        <ele>619.79998779297</ele>
        <time>2025-08-08T13:22:28.000Z</time>
      </trkpt>
      <trkpt lat="45.89072" lon="6.2274">
        <ele>618.59997558594</ele>
        <time>2025-08-08T13:22:34.000Z</time>
      </trkpt>
      <trkpt lat="45.89082" lon="6.22744">
        <ele>618.59997558594</ele>
        <time>2025-08-08T13:22:35.000Z</time>
      </trkpt>
      <trkpt lat="45.89104" lon="6.22761">
        <ele>618.20001220703</ele>
        <time>2025-08-08T13:22:38.000Z</time>
      </trkpt>
      <trkpt lat="45.89111" lon="6.22769">
        <ele>618</ele>
        <time>2025-08-08T13:22:39.000Z</time>
      </trkpt>
      <trkpt lat="45.89118" lon="6.22777">
        <ele>618</ele>
        <time>2025-08-08T13:22:40.000Z</time>
      </trkpt>
      <trkpt lat="45.8913" lon="6.22798">
        <ele>617.79998779297</ele>
        <time>2025-08-08T13:22:42.000Z</time>
      </trkpt>
      <trkpt lat="45.89138" lon="6.22822">
        <ele>617.59997558594</ele>
        <time>2025-08-08T13:22:44.000Z</time>
      </trkpt>
      <trkpt lat="45.8914" lon="6.22835">
        <ele>617.59997558594</ele>
        <time>2025-08-08T13:22:45.000Z</time>
      </trkpt>
      <trkpt lat="45.89141" lon="6.22848">
        <ele>617.20001220703</ele>
        <time>2025-08-08T13:22:46.000Z</time>
      </trkpt>
      <trkpt lat="45.89142" lon="6.22862">
        <ele>616.79998779297</ele>
        <time>2025-08-08T13:22:47.000Z</time>
      </trkpt>
      <trkpt lat="45.89142" lon="6.22875">
        <ele>616.59997558594</ele>
        <time>2025-08-08T13:22:48.000Z</time>
      </trkpt>
      <trkpt lat="45.89141" lon="6.22889">
        <ele>616.20001220703</ele>
        <time>2025-08-08T13:22:49.000Z</time>
      </trkpt>
      <trkpt lat="45.89139" lon="6.22903">
        <ele>616</ele>
        <time>2025-08-08T13:22:50.000Z</time>
      </trkpt>
      <trkpt lat="45.89135" lon="6.22916">
        <ele>615.59997558594</ele>
        <time>2025-08-08T13:22:51.000Z</time>
      </trkpt>
      <trkpt lat="45.89132" lon="6.22929">
        <ele>615.59997558594</ele>
        <time>2025-08-08T13:22:52.000Z</time>
      </trkpt>
      <trkpt lat="45.89123" lon="6.22955">
        <ele>615</ele>
        <time>2025-08-08T13:22:54.000Z</time>
      </trkpt>
      <trkpt lat="45.89109" lon="6.22994">
        <ele>614.40002441406</ele>
        <time>2025-08-08T13:22:57.000Z</time>
      </trkpt>
      <trkpt lat="45.89096" lon="6.23032">
        <ele>613.40002441406</ele>
        <time>2025-08-08T13:23:00.000Z</time>
      </trkpt>
      <trkpt lat="45.89092" lon="6.23045">
        <ele>613.20001220703</ele>
        <time>2025-08-08T13:23:01.000Z</time>
      </trkpt>
      <trkpt lat="45.8908" lon="6.23084">
        <ele>612.20001220703</ele>
        <time>2025-08-08T13:23:04.000Z</time>
      </trkpt>
      <trkpt lat="45.8907" lon="6.23123">
        <ele>611.40002441406</ele>
        <time>2025-08-08T13:23:07.000Z</time>
      </trkpt>
      <trkpt lat="45.89064" lon="6.23149">
        <ele>611</ele>
        <time>2025-08-08T13:23:09.000Z</time>
      </trkpt>
      <trkpt lat="45.89053" lon="6.23213">
        <ele>610.20001220703</ele>
        <time>2025-08-08T13:23:14.000Z</time>
      </trkpt>
      <trkpt lat="45.89051" lon="6.23226">
        <ele>609.79998779297</ele>
        <time>2025-08-08T13:23:15.000Z</time>
      </trkpt>
      <trkpt lat="45.89048" lon="6.23264">
        <ele>608.59997558594</ele>
        <time>2025-08-08T13:23:18.000Z</time>
      </trkpt>
      <trkpt lat="45.89046" lon="6.23302">
        <ele>607.59997558594</ele>
        <time>2025-08-08T13:23:21.000Z</time>
      </trkpt>
      <trkpt lat="45.89047" lon="6.23387">
        <ele>606.40002441406</ele>
        <time>2025-08-08T13:23:28.000Z</time>
      </trkpt>
      <trkpt lat="45.89048" lon="6.23399">
        <ele>606</ele>
        <time>2025-08-08T13:23:29.000Z</time>
      </trkpt>
      <trkpt lat="45.89049" lon="6.23422">
        <ele>605.59997558594</ele>
        <time>2025-08-08T13:23:31.000Z</time>
      </trkpt>
      <trkpt lat="45.89055" lon="6.23457">
        <ele>605.20001220703</ele>
        <time>2025-08-08T13:23:34.000Z</time>
      </trkpt>
      <trkpt lat="45.89063" lon="6.23515">
        <ele>604.59997558594</ele>
        <time>2025-08-08T13:23:39.000Z</time>
      </trkpt>
      <trkpt lat="45.89074" lon="6.23597">
        <ele>604.40002441406</ele>
        <time>2025-08-08T13:23:46.000Z</time>
      </trkpt>
      <trkpt lat="45.89085" lon="6.23677">
        <ele>604.40002441406</ele>
        <time>2025-08-08T13:23:53.000Z</time>
      </trkpt>
      <trkpt lat="45.89095" lon="6.23743">
        <ele>604.20001220703</ele>
        <time>2025-08-08T13:23:59.000Z</time>
      </trkpt>
      <trkpt lat="45.89101" lon="6.23787">
        <ele>604.20001220703</ele>
        <time>2025-08-08T13:24:03.000Z</time>
      </trkpt>
      <trkpt lat="45.89108" lon="6.23842">
        <ele>604.20001220703</ele>
        <time>2025-08-08T13:24:08.000Z</time>
      </trkpt>
      <trkpt lat="45.8912" lon="6.23921">
        <ele>604.20001220703</ele>
        <time>2025-08-08T13:24:16.000Z</time>
      </trkpt>
      <trkpt lat="45.89126" lon="6.23962">
        <ele>604</ele>
        <time>2025-08-08T13:24:20.000Z</time>
      </trkpt>
      <trkpt lat="45.89138" lon="6.24041">
        <ele>604</ele>
        <time>2025-08-08T13:24:28.000Z</time>
      </trkpt>
      <trkpt lat="45.89139" lon="6.24051">
        <ele>604</ele>
        <time>2025-08-08T13:24:29.000Z</time>
      </trkpt>
      <trkpt lat="45.89149" lon="6.24137">
        <ele>604</ele>
        <time>2025-08-08T13:24:37.000Z</time>
      </trkpt>
      <trkpt lat="45.89151" lon="6.24174">
        <ele>603.59997558594</ele>
        <time>2025-08-08T13:24:40.000Z</time>
      </trkpt>
      <trkpt lat="45.8915" lon="6.24222">
        <ele>603</ele>
        <time>2025-08-08T13:24:44.000Z</time>
      </trkpt>
      <trkpt lat="45.89147" lon="6.24248">
        <ele>602.20001220703</ele>
        <time>2025-08-08T13:24:46.000Z</time>
      </trkpt>
      <trkpt lat="45.89145" lon="6.24262">
        <ele>601.79998779297</ele>
        <time>2025-08-08T13:24:47.000Z</time>
      </trkpt>
      <trkpt lat="45.89135" lon="6.24314">
        <ele>600.40002441406</ele>
        <time>2025-08-08T13:24:51.000Z</time>
      </trkpt>
      <trkpt lat="45.89122" lon="6.24364">
        <ele>599.20001220703</ele>
        <time>2025-08-08T13:24:55.000Z</time>
      </trkpt>
      <trkpt lat="45.89117" lon="6.2439">
        <ele>598</ele>
        <time>2025-08-08T13:24:57.000Z</time>
      </trkpt>
      <trkpt lat="45.8911" lon="6.24429">
        <ele>597</ele>
        <time>2025-08-08T13:25:00.000Z</time>
      </trkpt>
      <trkpt lat="45.89108" lon="6.24443">
        <ele>596.79998779297</ele>
        <time>2025-08-08T13:25:01.000Z</time>
      </trkpt>
      <trkpt lat="45.89103" lon="6.24483">
        <ele>595.40002441406</ele>
        <time>2025-08-08T13:25:04.000Z</time>
      </trkpt>
      <trkpt lat="45.89102" lon="6.24525">
        <ele>594.20001220703</ele>
        <time>2025-08-08T13:25:07.000Z</time>
      </trkpt>
      <trkpt lat="45.89102" lon="6.24586">
        <ele>593.20001220703</ele>
        <time>2025-08-08T13:25:12.000Z</time>
      </trkpt>
      <trkpt lat="45.89109" lon="6.24655">
        <ele>593</ele>
        <time>2025-08-08T13:25:18.000Z</time>
      </trkpt>
      <trkpt lat="45.89125" lon="6.24737">
        <ele>592.59997558594</ele>
        <time>2025-08-08T13:25:25.000Z</time>
      </trkpt>
      <trkpt lat="45.8913" lon="6.2476">
        <ele>592.40002441406</ele>
        <time>2025-08-08T13:25:27.000Z</time>
      </trkpt>
      <trkpt lat="45.89137" lon="6.24793">
        <ele>592.20001220703</ele>
        <time>2025-08-08T13:25:30.000Z</time>
      </trkpt>
      <trkpt lat="45.89152" lon="6.24874">
        <ele>591.20001220703</ele>
        <time>2025-08-08T13:25:37.000Z</time>
      </trkpt>
      <trkpt lat="45.89154" lon="6.24887">
        <ele>591.20001220703</ele>
        <time>2025-08-08T13:25:38.000Z</time>
      </trkpt>
      <trkpt lat="45.89154" lon="6.24938">
        <ele>590.59997558594</ele>
        <time>2025-08-08T13:25:42.000Z</time>
      </trkpt>
      <trkpt lat="45.8915" lon="6.24977">
        <ele>589.79998779297</ele>
        <time>2025-08-08T13:25:45.000Z</time>
      </trkpt>
      <trkpt lat="45.89146" lon="6.25003">
        <ele>589</ele>
        <time>2025-08-08T13:25:47.000Z</time>
      </trkpt>
      <trkpt lat="45.89141" lon="6.25029">
        <ele>588.20001220703</ele>
        <time>2025-08-08T13:25:49.000Z</time>
      </trkpt>
      <trkpt lat="45.89135" lon="6.25063">
        <ele>586.79998779297</ele>
        <time>2025-08-08T13:25:52.000Z</time>
      </trkpt>
      <trkpt lat="45.89133" lon="6.25088">
        <ele>585.40002441406</ele>
        <time>2025-08-08T13:25:54.000Z</time>
      </trkpt>
      <trkpt lat="45.89134" lon="6.25099">
        <ele>585</ele>
        <time>2025-08-08T13:25:55.000Z</time>
      </trkpt>
      <trkpt lat="45.89136" lon="6.25106">
        <ele>584.59997558594</ele>
        <time>2025-08-08T13:25:56.000Z</time>
      </trkpt>
      <trkpt lat="45.89143" lon="6.25124">
        <ele>584.20001220703</ele>
        <time>2025-08-08T13:25:58.000Z</time>
      </trkpt>
      <trkpt lat="45.89158" lon="6.25171">
        <ele>583.59997558594</ele>
        <time>2025-08-08T13:26:03.000Z</time>
      </trkpt>
      <trkpt lat="45.8916" lon="6.25182">
        <ele>583.59997558594</ele>
        <time>2025-08-08T13:26:04.000Z</time>
      </trkpt>
      <trkpt lat="45.8916" lon="6.25193">
        <ele>583.59997558594</ele>
        <time>2025-08-08T13:26:05.000Z</time>
      </trkpt>
      <trkpt lat="45.89159" lon="6.25252">
        <ele>583.20001220703</ele>
        <time>2025-08-08T13:26:10.000Z</time>
      </trkpt>
      <trkpt lat="45.89159" lon="6.25265">
        <ele>583</ele>
        <time>2025-08-08T13:26:11.000Z</time>
      </trkpt>
      <trkpt lat="45.89159" lon="6.25339">
        <ele>582.40002441406</ele>
        <time>2025-08-08T13:26:18.000Z</time>
      </trkpt>
      <trkpt lat="45.89161" lon="6.25381">
        <ele>582</ele>
        <time>2025-08-08T13:26:22.000Z</time>
      </trkpt>
      <trkpt lat="45.89165" lon="6.25455">
        <ele>582</ele>
        <time>2025-08-08T13:26:29.000Z</time>
      </trkpt>
      <trkpt lat="45.89172" lon="6.25537">
        <ele>582</ele>
        <time>2025-08-08T13:26:38.000Z</time>
      </trkpt>
      <trkpt lat="45.89183" lon="6.25608">
        <ele>582.59997558594</ele>
        <time>2025-08-08T13:26:46.000Z</time>
      </trkpt>
      <trkpt lat="45.89197" lon="6.25683">
        <ele>583.20001220703</ele>
        <time>2025-08-08T13:26:55.000Z</time>
      </trkpt>
      <trkpt lat="45.89217" lon="6.25764">
        <ele>584</ele>
        <time>2025-08-08T13:27:05.000Z</time>
      </trkpt>
      <trkpt lat="45.89219" lon="6.2577">
        <ele>584</ele>
        <time>2025-08-08T13:27:06.000Z</time>
      </trkpt>
      <trkpt lat="45.89224" lon="6.25786">
        <ele>584.20001220703</ele>
        <time>2025-08-08T13:27:08.000Z</time>
      </trkpt>
      <trkpt lat="45.89241" lon="6.25836">
        <ele>584.79998779297</ele>
        <time>2025-08-08T13:27:14.000Z</time>
      </trkpt>
      <trkpt lat="45.89268" lon="6.25907">
        <ele>585.20001220703</ele>
        <time>2025-08-08T13:27:23.000Z</time>
      </trkpt>
      <trkpt lat="45.89272" lon="6.25916">
        <ele>585.20001220703</ele>
        <time>2025-08-08T13:27:24.000Z</time>
      </trkpt>
      <trkpt lat="45.89295" lon="6.25972">
        <ele>585.20001220703</ele>
        <time>2025-08-08T13:27:31.000Z</time>
      </trkpt>
      <trkpt lat="45.89312" lon="6.26013">
        <ele>585.20001220703</ele>
        <time>2025-08-08T13:27:36.000Z</time>
      </trkpt>
      <trkpt lat="45.89332" lon="6.26061">
        <ele>585.40002441406</ele>
        <time>2025-08-08T13:27:42.000Z</time>
      </trkpt>
      <trkpt lat="45.8935" lon="6.26119">
        <ele>586.20001220703</ele>
        <time>2025-08-08T13:27:50.000Z</time>
      </trkpt>
      <trkpt lat="45.89352" lon="6.26126">
        <ele>586.20001220703</ele>
        <time>2025-08-08T13:27:51.000Z</time>
      </trkpt>
      <trkpt lat="45.8936" lon="6.26165">
        <ele>587.20001220703</ele>
        <time>2025-08-08T13:27:57.000Z</time>
      </trkpt>
      <trkpt lat="45.89362" lon="6.26169">
        <ele>587.59997558594</ele>
        <time>2025-08-08T13:27:58.000Z</time>
      </trkpt>
      <trkpt lat="45.89363" lon="6.26176">
        <ele>587.59997558594</ele>
        <time>2025-08-08T13:27:59.000Z</time>
      </trkpt>
      <trkpt lat="45.89367" lon="6.26192">
        <ele>588.20001220703</ele>
        <time>2025-08-08T13:28:02.000Z</time>
      </trkpt>
      <trkpt lat="45.89368" lon="6.26197">
        <ele>588.59997558594</ele>
        <time>2025-08-08T13:28:03.000Z</time>
      </trkpt>
      <trkpt lat="45.89369" lon="6.26201">
        <ele>588.79998779297</ele>
        <time>2025-08-08T13:28:04.000Z</time>
      </trkpt>
      <trkpt lat="45.89373" lon="6.26229">
        <ele>589.79998779297</ele>
        <time>2025-08-08T13:28:09.000Z</time>
      </trkpt>
      <trkpt lat="45.89375" lon="6.26256">
        <ele>590.79998779297</ele>
        <time>2025-08-08T13:28:14.000Z</time>
      </trkpt>
      <trkpt lat="45.89376" lon="6.26266">
        <ele>591</ele>
        <time>2025-08-08T13:28:16.000Z</time>
      </trkpt>
      <trkpt lat="45.89378" lon="6.26301">
        <ele>591.79998779297</ele>
        <time>2025-08-08T13:28:22.000Z</time>
      </trkpt>
      <trkpt lat="45.89379" lon="6.26307">
        <ele>592</ele>
        <time>2025-08-08T13:28:23.000Z</time>
      </trkpt>
      <trkpt lat="45.89377" lon="6.26372">
        <ele>592.59997558594</ele>
        <time>2025-08-08T13:28:33.000Z</time>
      </trkpt>
      <trkpt lat="45.89376" lon="6.26397">
        <ele>592.59997558594</ele>
        <time>2025-08-08T13:28:36.000Z</time>
      </trkpt>
      <trkpt lat="45.89375" lon="6.26415">
        <ele>592.59997558594</ele>
        <time>2025-08-08T13:28:38.000Z</time>
      </trkpt>
      <trkpt lat="45.89371" lon="6.2648">
        <ele>591.79998779297</ele>
        <time>2025-08-08T13:28:45.000Z</time>
      </trkpt>
      <trkpt lat="45.89368" lon="6.26546">
        <ele>590.79998779297</ele>
        <time>2025-08-08T13:28:51.000Z</time>
      </trkpt>
      <trkpt lat="45.89368" lon="6.26558">
        <ele>590.59997558594</ele>
        <time>2025-08-08T13:28:52.000Z</time>
      </trkpt>
      <trkpt lat="45.89372" lon="6.26606">
        <ele>590.20001220703</ele>
        <time>2025-08-08T13:28:57.000Z</time>
      </trkpt>
      <trkpt lat="45.89381" lon="6.26668">
        <ele>590</ele>
        <time>2025-08-08T13:29:04.000Z</time>
      </trkpt>
      <trkpt lat="45.89395" lon="6.26748">
        <ele>590.79998779297</ele>
        <time>2025-08-08T13:29:13.000Z</time>
      </trkpt>
      <trkpt lat="45.89397" lon="6.26765">
        <ele>591</ele>
        <time>2025-08-08T13:29:15.000Z</time>
      </trkpt>
      <trkpt lat="45.89405" lon="6.26807">
        <ele>591.79998779297</ele>
        <time>2025-08-08T13:29:20.000Z</time>
      </trkpt>
      <trkpt lat="45.89411" lon="6.26839">
        <ele>592.20001220703</ele>
        <time>2025-08-08T13:29:24.000Z</time>
      </trkpt>
      <trkpt lat="45.89418" lon="6.26871">
        <ele>592.79998779297</ele>
        <time>2025-08-08T13:29:28.000Z</time>
      </trkpt>
      <trkpt lat="45.89421" lon="6.26879">
        <ele>592.79998779297</ele>
        <time>2025-08-08T13:29:29.000Z</time>
      </trkpt>
      <trkpt lat="45.89428" lon="6.26903">
        <ele>593.20001220703</ele>
        <time>2025-08-08T13:29:32.000Z</time>
      </trkpt>
      <trkpt lat="45.89439" lon="6.26932">
        <ele>593.79998779297</ele>
        <time>2025-08-08T13:29:36.000Z</time>
      </trkpt>
      <trkpt lat="45.89443" lon="6.26948">
        <ele>594</ele>
        <time>2025-08-08T13:29:38.000Z</time>
      </trkpt>
      <trkpt lat="45.89445" lon="6.26956">
        <ele>594</ele>
        <time>2025-08-08T13:29:39.000Z</time>
      </trkpt>
      <trkpt lat="45.89461" lon="6.27013">
        <ele>594.59997558594</ele>
        <time>2025-08-08T13:29:46.000Z</time>
      </trkpt>
      <trkpt lat="45.89486" lon="6.27084">
        <ele>594.40002441406</ele>
        <time>2025-08-08T13:29:55.000Z</time>
      </trkpt>
      <trkpt lat="45.89488" lon="6.27091">
        <ele>594.40002441406</ele>
        <time>2025-08-08T13:29:56.000Z</time>
      </trkpt>
      <trkpt lat="45.89504" lon="6.2714">
        <ele>594.59997558594</ele>
        <time>2025-08-08T13:30:02.000Z</time>
      </trkpt>
      <trkpt lat="45.89513" lon="6.27166">
        <ele>594.59997558594</ele>
        <time>2025-08-08T13:30:05.000Z</time>
      </trkpt>
      <trkpt lat="45.89517" lon="6.2718">
        <ele>594.59997558594</ele>
        <time>2025-08-08T13:30:07.000Z</time>
      </trkpt>
      <trkpt lat="45.8954" lon="6.27255">
        <ele>595.40002441406</ele>
        <time>2025-08-08T13:30:16.000Z</time>
      </trkpt>
      <trkpt lat="45.89544" lon="6.2727">
        <ele>595.59997558594</ele>
        <time>2025-08-08T13:30:18.000Z</time>
      </trkpt>
      <trkpt lat="45.8956" lon="6.27327">
        <ele>596.20001220703</ele>
        <time>2025-08-08T13:30:25.000Z</time>
      </trkpt>
      <trkpt lat="45.89571" lon="6.27367">
        <ele>596.59997558594</ele>
        <time>2025-08-08T13:30:30.000Z</time>
      </trkpt>
      <trkpt lat="45.89577" lon="6.27392">
        <ele>596.79998779297</ele>
        <time>2025-08-08T13:30:33.000Z</time>
      </trkpt>
      <trkpt lat="45.89596" lon="6.27458">
        <ele>597</ele>
        <time>2025-08-08T13:30:41.000Z</time>
      </trkpt>
      <trkpt lat="45.89616" lon="6.27535">
        <ele>597.59997558594</ele>
        <time>2025-08-08T13:30:50.000Z</time>
      </trkpt>
      <trkpt lat="45.89618" lon="6.27541">
        <ele>597.59997558594</ele>
        <time>2025-08-08T13:30:51.000Z</time>
      </trkpt>
      <trkpt lat="45.8962" lon="6.27551">
        <ele>597.79998779297</ele>
        <time>2025-08-08T13:30:52.000Z</time>
      </trkpt>
      <trkpt lat="45.89628" lon="6.27581">
        <ele>598</ele>
        <time>2025-08-08T13:30:56.000Z</time>
      </trkpt>
      <trkpt lat="45.89643" lon="6.27638">
        <ele>598.59997558594</ele>
        <time>2025-08-08T13:31:03.000Z</time>
      </trkpt>
      <trkpt lat="45.89648" lon="6.27658">
        <ele>598.79998779297</ele>
        <time>2025-08-08T13:31:06.000Z</time>
      </trkpt>
      <trkpt lat="45.89657" lon="6.27688">
        <ele>599.40002441406</ele>
        <time>2025-08-08T13:31:10.000Z</time>
      </trkpt>
      <trkpt lat="45.89662" lon="6.27703">
        <ele>599.79998779297</ele>
        <time>2025-08-08T13:31:12.000Z</time>
      </trkpt>
      <trkpt lat="45.89674" lon="6.27745">
        <ele>600.79998779297</ele>
        <time>2025-08-08T13:31:18.000Z</time>
      </trkpt>
      <trkpt lat="45.89676" lon="6.27752">
        <ele>601</ele>
        <time>2025-08-08T13:31:19.000Z</time>
      </trkpt>
      <trkpt lat="45.89682" lon="6.27774">
        <ele>601</ele>
        <time>2025-08-08T13:31:22.000Z</time>
      </trkpt>
      <trkpt lat="45.89685" lon="6.27787">
        <ele>601.40002441406</ele>
        <time>2025-08-08T13:31:24.000Z</time>
      </trkpt>
      <trkpt lat="45.89687" lon="6.27792">
        <ele>601.59997558594</ele>
        <time>2025-08-08T13:31:25.000Z</time>
      </trkpt>
      <trkpt lat="45.89689" lon="6.27799">
        <ele>601.79998779297</ele>
        <time>2025-08-08T13:31:26.000Z</time>
      </trkpt>
      <trkpt lat="45.89697" lon="6.27832">
        <ele>602.79998779297</ele>
        <time>2025-08-08T13:31:31.000Z</time>
      </trkpt>
      <trkpt lat="45.897" lon="6.2784">
        <ele>603</ele>
        <time>2025-08-08T13:31:32.000Z</time>
      </trkpt>
      <trkpt lat="45.89706" lon="6.27865">
        <ele>603.59997558594</ele>
        <time>2025-08-08T13:31:36.000Z</time>
      </trkpt>
      <trkpt lat="45.89714" lon="6.27893">
        <ele>604</ele>
        <time>2025-08-08T13:31:40.000Z</time>
      </trkpt>
      <trkpt lat="45.89716" lon="6.279">
        <ele>604.20001220703</ele>
        <time>2025-08-08T13:31:41.000Z</time>
      </trkpt>
      <trkpt lat="45.89727" lon="6.27938">
        <ele>605.20001220703</ele>
        <time>2025-08-08T13:31:47.000Z</time>
      </trkpt>
      <trkpt lat="45.8973" lon="6.27945">
        <ele>605.20001220703</ele>
        <time>2025-08-08T13:31:48.000Z</time>
      </trkpt>
      <trkpt lat="45.89739" lon="6.27972">
        <ele>606.20001220703</ele>
        <time>2025-08-08T13:31:52.000Z</time>
      </trkpt>
      <trkpt lat="45.89741" lon="6.27979">
        <ele>606.20001220703</ele>
        <time>2025-08-08T13:31:53.000Z</time>
      </trkpt>
      <trkpt lat="45.89748" lon="6.28">
        <ele>606.59997558594</ele>
        <time>2025-08-08T13:31:56.000Z</time>
      </trkpt>
      <trkpt lat="45.89765" lon="6.28049">
        <ele>606.59997558594</ele>
        <time>2025-08-08T13:32:03.000Z</time>
      </trkpt>
      <trkpt lat="45.89792" lon="6.28121">
        <ele>606.40002441406</ele>
        <time>2025-08-08T13:32:13.000Z</time>
      </trkpt>
      <trkpt lat="45.89813" lon="6.28183">
        <ele>606.59997558594</ele>
        <time>2025-08-08T13:32:21.000Z</time>
      </trkpt>
      <trkpt lat="45.89833" lon="6.28252">
        <ele>606.59997558594</ele>
        <time>2025-08-08T13:32:29.000Z</time>
      </trkpt>
      <trkpt lat="45.89847" lon="6.2833">
        <ele>606.40002441406</ele>
        <time>2025-08-08T13:32:37.000Z</time>
      </trkpt>
      <trkpt lat="45.89852" lon="6.28359">
        <ele>606.40002441406</ele>
        <time>2025-08-08T13:32:40.000Z</time>
      </trkpt>
      <trkpt lat="45.89851" lon="6.28369">
        <ele>606.40002441406</ele>
        <time>2025-08-08T13:32:41.000Z</time>
      </trkpt>
      <trkpt lat="45.89851" lon="6.28379">
        <ele>606.40002441406</ele>
        <time>2025-08-08T13:32:42.000Z</time>
      </trkpt>
      <trkpt lat="45.89852" lon="6.28396">
        <ele>606.40002441406</ele>
        <time>2025-08-08T13:32:44.000Z</time>
      </trkpt>
      <trkpt lat="45.89853" lon="6.28408">
        <ele>606.40002441406</ele>
        <time>2025-08-08T13:32:45.000Z</time>
      </trkpt>
      <trkpt lat="45.89855" lon="6.28416">
        <ele>606.40002441406</ele>
        <time>2025-08-08T13:32:46.000Z</time>
      </trkpt>
      <trkpt lat="45.89858" lon="6.28446">
        <ele>606.40002441406</ele>
        <time>2025-08-08T13:32:49.000Z</time>
      </trkpt>
      <trkpt lat="45.8986" lon="6.28507">
        <ele>606</ele>
        <time>2025-08-08T13:32:55.000Z</time>
      </trkpt>
      <trkpt lat="45.89865" lon="6.2859">
        <ele>606</ele>
        <time>2025-08-08T13:33:04.000Z</time>
      </trkpt>
      <trkpt lat="45.89866" lon="6.28601">
        <ele>606</ele>
        <time>2025-08-08T13:33:05.000Z</time>
      </trkpt>
      <trkpt lat="45.89872" lon="6.28675">
        <ele>606</ele>
        <time>2025-08-08T13:33:14.000Z</time>
      </trkpt>
      <trkpt lat="45.89878" lon="6.28749">
        <ele>606.40002441406</ele>
        <time>2025-08-08T13:33:23.000Z</time>
      </trkpt>
      <trkpt lat="45.89881" lon="6.28781">
        <ele>606.59997558594</ele>
        <time>2025-08-08T13:33:27.000Z</time>
      </trkpt>
      <trkpt lat="45.89884" lon="6.28827">
        <ele>607</ele>
        <time>2025-08-08T13:33:33.000Z</time>
      </trkpt>
      <trkpt lat="45.89889" lon="6.28887">
        <ele>607</ele>
        <time>2025-08-08T13:33:41.000Z</time>
      </trkpt>
      <trkpt lat="45.89899" lon="6.28955">
        <ele>607.59997558594</ele>
        <time>2025-08-08T13:33:50.000Z</time>
      </trkpt>
      <trkpt lat="45.89901" lon="6.28963">
        <ele>607.79998779297</ele>
        <time>2025-08-08T13:33:51.000Z</time>
      </trkpt>
      <trkpt lat="45.89915" lon="6.29038">
        <ele>608.59997558594</ele>
        <time>2025-08-08T13:34:01.000Z</time>
      </trkpt>
      <trkpt lat="45.89928" lon="6.291">
        <ele>609.40002441406</ele>
        <time>2025-08-08T13:34:09.000Z</time>
      </trkpt>
      <trkpt lat="45.89929" lon="6.29108">
        <ele>609.59997558594</ele>
        <time>2025-08-08T13:34:10.000Z</time>
      </trkpt>
      <trkpt lat="45.89937" lon="6.29165">
        <ele>610.40002441406</ele>
        <time>2025-08-08T13:34:17.000Z</time>
      </trkpt>
      <trkpt lat="45.89935" lon="6.29227">
        <ele>610.59997558594</ele>
        <time>2025-08-08T13:34:24.000Z</time>
      </trkpt>
      <trkpt lat="45.89924" lon="6.293">
        <ele>610.59997558594</ele>
        <time>2025-08-08T13:34:33.000Z</time>
      </trkpt>
      <trkpt lat="45.89913" lon="6.2934">
        <ele>610.40002441406</ele>
        <time>2025-08-08T13:34:38.000Z</time>
      </trkpt>
      <trkpt lat="45.89903" lon="6.29369">
        <ele>610.40002441406</ele>
        <time>2025-08-08T13:34:42.000Z</time>
      </trkpt>
      <trkpt lat="45.89873" lon="6.29433">
        <ele>610.20001220703</ele>
        <time>2025-08-08T13:34:51.000Z</time>
      </trkpt>
      <trkpt lat="45.89837" lon="6.29494">
        <ele>610.59997558594</ele>
        <time>2025-08-08T13:35:00.000Z</time>
      </trkpt>
      <trkpt lat="45.89833" lon="6.29499">
        <ele>610.59997558594</ele>
        <time>2025-08-08T13:35:01.000Z</time>
      </trkpt>
      <trkpt lat="45.89815" lon="6.29533">
        <ele>610.79998779297</ele>
        <time>2025-08-08T13:35:06.000Z</time>
      </trkpt>
      <trkpt lat="45.89801" lon="6.2956">
        <ele>611</ele>
        <time>2025-08-08T13:35:10.000Z</time>
      </trkpt>
      <trkpt lat="45.89797" lon="6.29566">
        <ele>611</ele>
        <time>2025-08-08T13:35:11.000Z</time>
      </trkpt>
      <trkpt lat="45.89775" lon="6.2961">
        <ele>611.40002441406</ele>
        <time>2025-08-08T13:35:18.000Z</time>
      </trkpt>
      <trkpt lat="45.89764" lon="6.29635">
        <ele>611.79998779297</ele>
        <time>2025-08-08T13:35:22.000Z</time>
      </trkpt>
      <trkpt lat="45.89752" lon="6.29666">
        <ele>612.79998779297</ele>
        <time>2025-08-08T13:35:27.000Z</time>
      </trkpt>
      <trkpt lat="45.89746" lon="6.29679">
        <ele>613</ele>
        <time>2025-08-08T13:35:29.000Z</time>
      </trkpt>
      <trkpt lat="45.89724" lon="6.29727">
        <ele>614</ele>
        <time>2025-08-08T13:35:38.000Z</time>
      </trkpt>
      <trkpt lat="45.89707" lon="6.29764">
        <ele>615.20001220703</ele>
        <time>2025-08-08T13:35:45.000Z</time>
      </trkpt>
      <trkpt lat="45.89698" lon="6.29784">
        <ele>615.79998779297</ele>
        <time>2025-08-08T13:35:49.000Z</time>
      </trkpt>
      <trkpt lat="45.89692" lon="6.29799">
        <ele>616.20001220703</ele>
        <time>2025-08-08T13:35:52.000Z</time>
      </trkpt>
      <trkpt lat="45.89676" lon="6.29835">
        <ele>617.40002441406</ele>
        <time>2025-08-08T13:35:59.000Z</time>
      </trkpt>
      <trkpt lat="45.89674" lon="6.2984">
        <ele>617.59997558594</ele>
        <time>2025-08-08T13:36:00.000Z</time>
      </trkpt>
      <trkpt lat="45.89672" lon="6.29846">
        <ele>617.79998779297</ele>
        <time>2025-08-08T13:36:01.000Z</time>
      </trkpt>
      <trkpt lat="45.89662" lon="6.2987">
        <ele>618.59997558594</ele>
        <time>2025-08-08T13:36:06.000Z</time>
      </trkpt>
      <trkpt lat="45.89655" lon="6.29884">
        <ele>619</ele>
        <time>2025-08-08T13:36:09.000Z</time>
      </trkpt>
      <trkpt lat="45.89649" lon="6.29899">
        <ele>619.59997558594</ele>
        <time>2025-08-08T13:36:12.000Z</time>
      </trkpt>
      <trkpt lat="45.89636" lon="6.2993">
        <ele>620.20001220703</ele>
        <time>2025-08-08T13:36:18.000Z</time>
      </trkpt>
      <trkpt lat="45.89627" lon="6.29949">
        <ele>620.59997558594</ele>
        <time>2025-08-08T13:36:22.000Z</time>
      </trkpt>
      <trkpt lat="45.8962" lon="6.29964">
        <ele>620.59997558594</ele>
        <time>2025-08-08T13:36:25.000Z</time>
      </trkpt>
      <trkpt lat="45.89611" lon="6.29984">
        <ele>621.20001220703</ele>
        <time>2025-08-08T13:36:29.000Z</time>
      </trkpt>
      <trkpt lat="45.89605" lon="6.3">
        <ele>621.59997558594</ele>
        <time>2025-08-08T13:36:32.000Z</time>
      </trkpt>
      <trkpt lat="45.89585" lon="6.30043">
        <ele>622.40002441406</ele>
        <time>2025-08-08T13:36:40.000Z</time>
      </trkpt>
      <trkpt lat="45.89575" lon="6.30068">
        <ele>622.59997558594</ele>
        <time>2025-08-08T13:36:44.000Z</time>
      </trkpt>
      <trkpt lat="45.8957" lon="6.30079">
        <ele>622.79998779297</ele>
        <time>2025-08-08T13:36:46.000Z</time>
      </trkpt>
      <trkpt lat="45.89542" lon="6.30142">
        <ele>623.40002441406</ele>
        <time>2025-08-08T13:36:55.000Z</time>
      </trkpt>
      <trkpt lat="45.89516" lon="6.302">
        <ele>623.40002441406</ele>
        <time>2025-08-08T13:37:04.000Z</time>
      </trkpt>
      <trkpt lat="45.89511" lon="6.30212">
        <ele>623</ele>
        <time>2025-08-08T13:37:08.000Z</time>
      </trkpt>
      <trkpt lat="45.89511" lon="6.30212">
        <ele>622.59997558594</ele>
        <time>2025-08-08T13:37:11.000Z</time>
      </trkpt>
      <trkpt lat="45.89511" lon="6.30212">
        <ele>622.59997558594</ele>
        <time>2025-08-08T13:37:13.000Z</time>
      </trkpt>
      <trkpt lat="45.89507" lon="6.30224">
        <ele>622.59997558594</ele>
        <time>2025-08-08T13:41:46.000Z</time>
      </trkpt>
      <trkpt lat="45.89503" lon="6.30231">
        <ele>622.59997558594</ele>
        <time>2025-08-08T13:41:48.000Z</time>
      </trkpt>
      <trkpt lat="45.89489" lon="6.30265">
        <ele>622</ele>
        <time>2025-08-08T13:41:55.000Z</time>
      </trkpt>
      <trkpt lat="45.89486" lon="6.3027">
        <ele>622</ele>
        <time>2025-08-08T13:41:56.000Z</time>
      </trkpt>
      <trkpt lat="45.89474" lon="6.30296">
        <ele>621.79998779297</ele>
        <time>2025-08-08T13:42:00.000Z</time>
      </trkpt>
      <trkpt lat="45.89454" lon="6.30344">
        <ele>621.79998779297</ele>
        <time>2025-08-08T13:42:07.000Z</time>
      </trkpt>
      <trkpt lat="45.89427" lon="6.30405">
        <ele>622.20001220703</ele>
        <time>2025-08-08T13:42:16.000Z</time>
      </trkpt>
      <trkpt lat="45.89416" lon="6.30432">
        <ele>622.59997558594</ele>
        <time>2025-08-08T13:42:20.000Z</time>
      </trkpt>
      <trkpt lat="45.89402" lon="6.30465">
        <ele>623</ele>
        <time>2025-08-08T13:42:25.000Z</time>
      </trkpt>
      <trkpt lat="45.894" lon="6.30471">
        <ele>623</ele>
        <time>2025-08-08T13:42:26.000Z</time>
      </trkpt>
      <trkpt lat="45.89397" lon="6.30477">
        <ele>623.20001220703</ele>
        <time>2025-08-08T13:42:27.000Z</time>
      </trkpt>
      <trkpt lat="45.89392" lon="6.30488">
        <ele>623.40002441406</ele>
        <time>2025-08-08T13:42:29.000Z</time>
      </trkpt>
      <trkpt lat="45.89389" lon="6.30493">
        <ele>623.40002441406</ele>
        <time>2025-08-08T13:42:30.000Z</time>
      </trkpt>
      <trkpt lat="45.89378" lon="6.30502">
        <ele>623.79998779297</ele>
        <time>2025-08-08T13:42:34.000Z</time>
      </trkpt>
      <trkpt lat="45.89372" lon="6.30509">
        <ele>624</ele>
        <time>2025-08-08T13:42:39.000Z</time>
      </trkpt>
      <trkpt lat="45.89368" lon="6.30525">
        <ele>624</ele>
        <time>2025-08-08T13:42:45.000Z</time>
      </trkpt>
      <trkpt lat="45.89367" lon="6.30546">
        <ele>624.20001220703</ele>
        <time>2025-08-08T13:42:51.000Z</time>
      </trkpt>
      <trkpt lat="45.89365" lon="6.3055">
        <ele>624.40002441406</ele>
        <time>2025-08-08T13:42:52.000Z</time>
      </trkpt>
      <trkpt lat="45.89352" lon="6.30581">
        <ele>625</ele>
        <time>2025-08-08T13:42:58.000Z</time>
      </trkpt>
      <trkpt lat="45.89338" lon="6.30612">
        <ele>625.20001220703</ele>
        <time>2025-08-08T13:43:03.000Z</time>
      </trkpt>
      <trkpt lat="45.89332" lon="6.30625">
        <ele>625.40002441406</ele>
        <time>2025-08-08T13:43:05.000Z</time>
      </trkpt>
      <trkpt lat="45.89315" lon="6.30664">
        <ele>625.79998779297</ele>
        <time>2025-08-08T13:43:11.000Z</time>
      </trkpt>
      <trkpt lat="45.89309" lon="6.30678">
        <ele>626</ele>
        <time>2025-08-08T13:43:13.000Z</time>
      </trkpt>
      <trkpt lat="45.89304" lon="6.3069">
        <ele>626.40002441406</ele>
        <time>2025-08-08T13:43:15.000Z</time>
      </trkpt>
      <trkpt lat="45.89283" lon="6.30735">
        <ele>627.40002441406</ele>
        <time>2025-08-08T13:43:22.000Z</time>
      </trkpt>
      <trkpt lat="45.8928" lon="6.30742">
        <ele>627.40002441406</ele>
        <time>2025-08-08T13:43:23.000Z</time>
      </trkpt>
      <trkpt lat="45.89251" lon="6.30802">
        <ele>628</ele>
        <time>2025-08-08T13:43:33.000Z</time>
      </trkpt>
      <trkpt lat="45.89238" lon="6.30826">
        <ele>628.20001220703</ele>
        <time>2025-08-08T13:43:38.000Z</time>
      </trkpt>
      <trkpt lat="45.89228" lon="6.30846">
        <ele>628.40002441406</ele>
        <time>2025-08-08T13:43:41.000Z</time>
      </trkpt>
      <trkpt lat="45.89206" lon="6.30882">
        <ele>628.40002441406</ele>
        <time>2025-08-08T13:43:47.000Z</time>
      </trkpt>
      <trkpt lat="45.89166" lon="6.30941">
        <ele>628.79998779297</ele>
        <time>2025-08-08T13:43:57.000Z</time>
      </trkpt>
      <trkpt lat="45.89162" lon="6.30946">
        <ele>628.79998779297</ele>
        <time>2025-08-08T13:43:58.000Z</time>
      </trkpt>
      <trkpt lat="45.89119" lon="6.30999">
        <ele>629.20001220703</ele>
        <time>2025-08-08T13:44:08.000Z</time>
      </trkpt>
      <trkpt lat="45.89095" lon="6.31026">
        <ele>629.40002441406</ele>
        <time>2025-08-08T13:44:13.000Z</time>
      </trkpt>
      <trkpt lat="45.89073" lon="6.3105">
        <ele>629.59997558594</ele>
        <time>2025-08-08T13:44:18.000Z</time>
      </trkpt>
      <trkpt lat="45.89026" lon="6.31103">
        <ele>629.79998779297</ele>
        <time>2025-08-08T13:44:28.000Z</time>
      </trkpt>
      <trkpt lat="45.88981" lon="6.31154">
        <ele>630.20001220703</ele>
        <time>2025-08-08T13:44:38.000Z</time>
      </trkpt>
      <trkpt lat="45.88971" lon="6.31165">
        <ele>630.40002441406</ele>
        <time>2025-08-08T13:44:40.000Z</time>
      </trkpt>
      <trkpt lat="45.88966" lon="6.3117">
        <ele>630.40002441406</ele>
        <time>2025-08-08T13:44:41.000Z</time>
      </trkpt>
      <trkpt lat="45.8893" lon="6.31211">
        <ele>631.40002441406</ele>
        <time>2025-08-08T13:44:49.000Z</time>
      </trkpt>
      <trkpt lat="45.88926" lon="6.31216">
        <ele>631.40002441406</ele>
        <time>2025-08-08T13:44:50.000Z</time>
      </trkpt>
      <trkpt lat="45.88922" lon="6.31221">
        <ele>631.40002441406</ele>
        <time>2025-08-08T13:44:51.000Z</time>
      </trkpt>
      <trkpt lat="45.88879" lon="6.3127">
        <ele>632</ele>
        <time>2025-08-08T13:45:00.000Z</time>
      </trkpt>
      <trkpt lat="45.88865" lon="6.31286">
        <ele>632.20001220703</ele>
        <time>2025-08-08T13:45:03.000Z</time>
      </trkpt>
      <trkpt lat="45.88856" lon="6.31296">
        <ele>632.40002441406</ele>
        <time>2025-08-08T13:45:05.000Z</time>
      </trkpt>
      <trkpt lat="45.8881" lon="6.31348">
        <ele>633.40002441406</ele>
        <time>2025-08-08T13:45:15.000Z</time>
      </trkpt>
      <trkpt lat="45.88805" lon="6.31353">
        <ele>633.59997558594</ele>
        <time>2025-08-08T13:45:16.000Z</time>
      </trkpt>
      <trkpt lat="45.88766" lon="6.31398">
        <ele>634.59997558594</ele>
        <time>2025-08-08T13:45:25.000Z</time>
      </trkpt>
      <trkpt lat="45.88761" lon="6.31403">
        <ele>634.59997558594</ele>
        <time>2025-08-08T13:45:26.000Z</time>
      </trkpt>
      <trkpt lat="45.88725" lon="6.31442">
        <ele>635.40002441406</ele>
        <time>2025-08-08T13:45:34.000Z</time>
      </trkpt>
      <trkpt lat="45.88716" lon="6.31453">
        <ele>635.59997558594</ele>
        <time>2025-08-08T13:45:36.000Z</time>
      </trkpt>
      <trkpt lat="45.88674" lon="6.315">
        <ele>636.40002441406</ele>
        <time>2025-08-08T13:45:46.000Z</time>
      </trkpt>
      <trkpt lat="45.88666" lon="6.31509">
        <ele>637</ele>
        <time>2025-08-08T13:45:48.000Z</time>
      </trkpt>
      <trkpt lat="45.88658" lon="6.31518">
        <ele>637.20001220703</ele>
        <time>2025-08-08T13:45:50.000Z</time>
      </trkpt>
      <trkpt lat="45.88651" lon="6.31529">
        <ele>637.59997558594</ele>
        <time>2025-08-08T13:45:52.000Z</time>
      </trkpt>
      <trkpt lat="45.88626" lon="6.31575">
        <ele>638.59997558594</ele>
        <time>2025-08-08T13:46:00.000Z</time>
      </trkpt>
      <trkpt lat="45.88609" lon="6.31614">
        <ele>639.40002441406</ele>
        <time>2025-08-08T13:46:06.000Z</time>
      </trkpt>
      <trkpt lat="45.88606" lon="6.3162">
        <ele>639.59997558594</ele>
        <time>2025-08-08T13:46:07.000Z</time>
      </trkpt>
      <trkpt lat="45.88583" lon="6.31677">
        <ele>640.20001220703</ele>
        <time>2025-08-08T13:46:16.000Z</time>
      </trkpt>
      <trkpt lat="45.88579" lon="6.31691">
        <ele>640.40002441406</ele>
        <time>2025-08-08T13:46:18.000Z</time>
      </trkpt>
      <trkpt lat="45.88576" lon="6.31704">
        <ele>640.59997558594</ele>
        <time>2025-08-08T13:46:20.000Z</time>
      </trkpt>
      <trkpt lat="45.88571" lon="6.31714">
        <ele>640.79998779297</ele>
        <time>2025-08-08T13:46:22.000Z</time>
      </trkpt>
      <trkpt lat="45.88558" lon="6.31727">
        <ele>640.79998779297</ele>
        <time>2025-08-08T13:46:25.000Z</time>
      </trkpt>
      <trkpt lat="45.88555" lon="6.31732">
        <ele>641</ele>
        <time>2025-08-08T13:46:26.000Z</time>
      </trkpt>
      <trkpt lat="45.88551" lon="6.31739">
        <ele>641</ele>
        <time>2025-08-08T13:46:27.000Z</time>
      </trkpt>
      <trkpt lat="45.88545" lon="6.31752">
        <ele>641.20001220703</ele>
        <time>2025-08-08T13:46:29.000Z</time>
      </trkpt>
      <trkpt lat="45.88543" lon="6.31759">
        <ele>641.40002441406</ele>
        <time>2025-08-08T13:46:30.000Z</time>
      </trkpt>
      <trkpt lat="45.88542" lon="6.31767">
        <ele>641.59997558594</ele>
        <time>2025-08-08T13:46:31.000Z</time>
      </trkpt>
      <trkpt lat="45.88541" lon="6.31775">
        <ele>641.59997558594</ele>
        <time>2025-08-08T13:46:32.000Z</time>
      </trkpt>
      <trkpt lat="45.88538" lon="6.3179">
        <ele>641.59997558594</ele>
        <time>2025-08-08T13:46:34.000Z</time>
      </trkpt>
      <trkpt lat="45.88535" lon="6.31798">
        <ele>641.79998779297</ele>
        <time>2025-08-08T13:46:35.000Z</time>
      </trkpt>
      <trkpt lat="45.8851" lon="6.31852">
        <ele>642.40002441406</ele>
        <time>2025-08-08T13:46:43.000Z</time>
      </trkpt>
      <trkpt lat="45.88485" lon="6.31904">
        <ele>642.79998779297</ele>
        <time>2025-08-08T13:46:50.000Z</time>
      </trkpt>
      <trkpt lat="45.88476" lon="6.3192">
        <ele>643</ele>
        <time>2025-08-08T13:46:53.000Z</time>
      </trkpt>
      <trkpt lat="45.88473" lon="6.31924">
        <ele>643.20001220703</ele>
        <time>2025-08-08T13:46:54.000Z</time>
      </trkpt>
      <trkpt lat="45.88468" lon="6.3193">
        <ele>643.40002441406</ele>
        <time>2025-08-08T13:46:56.000Z</time>
      </trkpt>
      <trkpt lat="45.8846" lon="6.31941">
        <ele>643.59997558594</ele>
        <time>2025-08-08T13:46:59.000Z</time>
      </trkpt>
      <trkpt lat="45.88445" lon="6.31968">
        <ele>644</ele>
        <time>2025-08-08T13:47:04.000Z</time>
      </trkpt>
      <trkpt lat="45.88414" lon="6.32013">
        <ele>644.40002441406</ele>
        <time>2025-08-08T13:47:12.000Z</time>
      </trkpt>
      <trkpt lat="45.8841" lon="6.32019">
        <ele>644.40002441406</ele>
        <time>2025-08-08T13:47:13.000Z</time>
      </trkpt>
      <trkpt lat="45.88392" lon="6.32045">
        <ele>644.79998779297</ele>
        <time>2025-08-08T13:47:18.000Z</time>
      </trkpt>
      <trkpt lat="45.88373" lon="6.32072">
        <ele>645.20001220703</ele>
        <time>2025-08-08T13:47:23.000Z</time>
      </trkpt>
      <trkpt lat="45.88368" lon="6.32077">
        <ele>645.40002441406</ele>
        <time>2025-08-08T13:47:24.000Z</time>
      </trkpt>
      <trkpt lat="45.88362" lon="6.32087">
        <ele>645.40002441406</ele>
        <time>2025-08-08T13:47:26.000Z</time>
      </trkpt>
      <trkpt lat="45.88358" lon="6.32094">
        <ele>645.59997558594</ele>
        <time>2025-08-08T13:47:27.000Z</time>
      </trkpt>
      <trkpt lat="45.88354" lon="6.32101">
        <ele>645.59997558594</ele>
        <time>2025-08-08T13:47:28.000Z</time>
      </trkpt>
      <trkpt lat="45.88331" lon="6.32141">
        <ele>646.59997558594</ele>
        <time>2025-08-08T13:47:35.000Z</time>
      </trkpt>
      <trkpt lat="45.88327" lon="6.32148">
        <ele>646.59997558594</ele>
        <time>2025-08-08T13:47:36.000Z</time>
      </trkpt>
      <trkpt lat="45.883" lon="6.32195">
        <ele>647.20001220703</ele>
        <time>2025-08-08T13:47:44.000Z</time>
      </trkpt>
      <trkpt lat="45.88267" lon="6.32243">
        <ele>647.59997558594</ele>
        <time>2025-08-08T13:47:53.000Z</time>
      </trkpt>
      <trkpt lat="45.88258" lon="6.32267">
        <ele>648</ele>
        <time>2025-08-08T13:47:57.000Z</time>
      </trkpt>
      <trkpt lat="45.88252" lon="6.32276">
        <ele>648.20001220703</ele>
        <time>2025-08-08T13:47:59.000Z</time>
      </trkpt>
      <trkpt lat="45.88224" lon="6.32323">
        <ele>648.40002441406</ele>
        <time>2025-08-08T13:48:08.000Z</time>
      </trkpt>
      <trkpt lat="45.88208" lon="6.32347">
        <ele>648.40002441406</ele>
        <time>2025-08-08T13:48:14.000Z</time>
      </trkpt>
      <trkpt lat="45.88202" lon="6.32357">
        <ele>648</ele>
        <time>2025-08-08T13:48:18.000Z</time>
      </trkpt>
      <trkpt lat="45.88198" lon="6.3236">
        <ele>647.59997558594</ele>
        <time>2025-08-08T13:48:22.000Z</time>
      </trkpt>
      <trkpt lat="45.88194" lon="6.32359">
        <ele>647.40002441406</ele>
        <time>2025-08-08T13:48:24.000Z</time>
      </trkpt>
      <trkpt lat="45.88189" lon="6.32351">
        <ele>647.20001220703</ele>
        <time>2025-08-08T13:48:28.000Z</time>
      </trkpt>
      <trkpt lat="45.88188" lon="6.32344">
        <ele>647.20001220703</ele>
        <time>2025-08-08T13:48:30.000Z</time>
      </trkpt>
      <trkpt lat="45.88187" lon="6.32341">
        <ele>647.20001220703</ele>
        <time>2025-08-08T13:48:31.000Z</time>
      </trkpt>
      <trkpt lat="45.88181" lon="6.32336">
        <ele>647</ele>
        <time>2025-08-08T13:48:34.000Z</time>
      </trkpt>
      <trkpt lat="45.8818" lon="6.32337">
        <ele>647</ele>
        <time>2025-08-08T13:48:37.000Z</time>
      </trkpt>
      <trkpt lat="45.88184" lon="6.32367">
        <ele>647</ele>
        <time>2025-08-08T14:03:22.000Z</time>
      </trkpt>
      <trkpt lat="45.88186" lon="6.3237">
        <ele>647</ele>
        <time>2025-08-08T14:03:24.000Z</time>
      </trkpt>
      <trkpt lat="45.88188" lon="6.32377">
        <ele>647</ele>
        <time>2025-08-08T14:03:26.000Z</time>
      </trkpt>
      <trkpt lat="45.88187" lon="6.3239">
        <ele>647</ele>
        <time>2025-08-08T14:03:29.000Z</time>
      </trkpt>
      <trkpt lat="45.88184" lon="6.324">
        <ele>647</ele>
        <time>2025-08-08T14:03:32.000Z</time>
      </trkpt>
      <trkpt lat="45.88182" lon="6.32405">
        <ele>647.20001220703</ele>
        <time>2025-08-08T14:03:33.000Z</time>
      </trkpt>
      <trkpt lat="45.8818" lon="6.32427">
        <ele>647.20001220703</ele>
        <time>2025-08-08T14:03:36.000Z</time>
      </trkpt>
      <trkpt lat="45.88188" lon="6.32444">
        <ele>647.40002441406</ele>
        <time>2025-08-08T14:03:40.000Z</time>
      </trkpt>
      <trkpt lat="45.88197" lon="6.32455">
        <ele>647.59997558594</ele>
        <time>2025-08-08T14:03:43.000Z</time>
      </trkpt>
      <trkpt lat="45.88203" lon="6.32459">
        <ele>647.59997558594</ele>
        <time>2025-08-08T14:03:45.000Z</time>
      </trkpt>
      <trkpt lat="45.88216" lon="6.32468">
        <ele>648</ele>
        <time>2025-08-08T14:03:50.000Z</time>
      </trkpt>
      <trkpt lat="45.88226" lon="6.32478">
        <ele>648</ele>
        <time>2025-08-08T14:03:57.000Z</time>
      </trkpt>
      <trkpt lat="45.88239" lon="6.325">
        <ele>648</ele>
        <time>2025-08-08T14:04:02.000Z</time>
      </trkpt>
      <trkpt lat="45.88254" lon="6.32532">
        <ele>648.20001220703</ele>
        <time>2025-08-08T14:04:10.000Z</time>
      </trkpt>
      <trkpt lat="45.8827" lon="6.32573">
        <ele>648.40002441406</ele>
        <time>2025-08-08T14:04:17.000Z</time>
      </trkpt>
      <trkpt lat="45.88284" lon="6.32615">
        <ele>649</ele>
        <time>2025-08-08T14:04:26.000Z</time>
      </trkpt>
      <trkpt lat="45.88285" lon="6.32643">
        <ele>649.20001220703</ele>
        <time>2025-08-08T14:04:30.000Z</time>
      </trkpt>
      <trkpt lat="45.88281" lon="6.32649">
        <ele>649.20001220703</ele>
        <time>2025-08-08T14:04:31.000Z</time>
      </trkpt>
      <trkpt lat="45.88265" lon="6.32661">
        <ele>649.59997558594</ele>
        <time>2025-08-08T14:04:35.000Z</time>
      </trkpt>
      <trkpt lat="45.88247" lon="6.32666">
        <ele>649.79998779297</ele>
        <time>2025-08-08T14:04:39.000Z</time>
      </trkpt>
      <trkpt lat="45.88236" lon="6.32668">
        <ele>649.79998779297</ele>
        <time>2025-08-08T14:04:41.000Z</time>
      </trkpt>
      <trkpt lat="45.88228" lon="6.32661">
        <ele>650</ele>
        <time>2025-08-08T14:04:43.000Z</time>
      </trkpt>
      <trkpt lat="45.88201" lon="6.32647">
        <ele>649.79998779297</ele>
        <time>2025-08-08T14:04:49.000Z</time>
      </trkpt>
      <trkpt lat="45.88192" lon="6.32645">
        <ele>649.79998779297</ele>
        <time>2025-08-08T14:04:51.000Z</time>
      </trkpt>
      <trkpt lat="45.88158" lon="6.32631">
        <ele>649.79998779297</ele>
        <time>2025-08-08T14:04:58.000Z</time>
      </trkpt>
      <trkpt lat="45.88112" lon="6.32615">
        <ele>649.59997558594</ele>
        <time>2025-08-08T14:05:07.000Z</time>
      </trkpt>
      <trkpt lat="45.88107" lon="6.32614">
        <ele>649.59997558594</ele>
        <time>2025-08-08T14:05:08.000Z</time>
      </trkpt>
      <trkpt lat="45.88081" lon="6.32606">
        <ele>649.79998779297</ele>
        <time>2025-08-08T14:05:13.000Z</time>
      </trkpt>
      <trkpt lat="45.88071" lon="6.32603">
        <ele>650</ele>
        <time>2025-08-08T14:05:15.000Z</time>
      </trkpt>
      <trkpt lat="45.88056" lon="6.32598">
        <ele>650.20001220703</ele>
        <time>2025-08-08T14:05:18.000Z</time>
      </trkpt>
      <trkpt lat="45.88044" lon="6.32594">
        <ele>650.40002441406</ele>
        <time>2025-08-08T14:05:21.000Z</time>
      </trkpt>
      <trkpt lat="45.88031" lon="6.32588">
        <ele>651.20001220703</ele>
        <time>2025-08-08T14:05:24.000Z</time>
      </trkpt>
      <trkpt lat="45.88014" lon="6.32582">
        <ele>651.79998779297</ele>
        <time>2025-08-08T14:05:28.000Z</time>
      </trkpt>
      <trkpt lat="45.87991" lon="6.32572">
        <ele>652.20001220703</ele>
        <time>2025-08-08T14:05:34.000Z</time>
      </trkpt>
      <trkpt lat="45.87981" lon="6.32566">
        <ele>652.59997558594</ele>
        <time>2025-08-08T14:05:37.000Z</time>
      </trkpt>
      <trkpt lat="45.87958" lon="6.32544">
        <ele>653.20001220703</ele>
        <time>2025-08-08T14:05:43.000Z</time>
      </trkpt>
      <trkpt lat="45.87944" lon="6.32524">
        <ele>653.20001220703</ele>
        <time>2025-08-08T14:05:47.000Z</time>
      </trkpt>
      <trkpt lat="45.87938" lon="6.32514">
        <ele>653.20001220703</ele>
        <time>2025-08-08T14:05:49.000Z</time>
      </trkpt>
      <trkpt lat="45.87935" lon="6.32509">
        <ele>653.20001220703</ele>
        <time>2025-08-08T14:05:50.000Z</time>
      </trkpt>
      <trkpt lat="45.87929" lon="6.32497">
        <ele>653</ele>
        <time>2025-08-08T14:05:52.000Z</time>
      </trkpt>
      <trkpt lat="45.87926" lon="6.32491">
        <ele>652.79998779297</ele>
        <time>2025-08-08T14:05:54.000Z</time>
      </trkpt>
      <trkpt lat="45.87919" lon="6.32481">
        <ele>652.79998779297</ele>
        <time>2025-08-08T14:05:55.000Z</time>
      </trkpt>
      <trkpt lat="45.87911" lon="6.32474">
        <ele>652.79998779297</ele>
        <time>2025-08-08T14:05:57.000Z</time>
      </trkpt>
      <trkpt lat="45.87906" lon="6.32471">
        <ele>652.79998779297</ele>
        <time>2025-08-08T14:05:58.000Z</time>
      </trkpt>
      <trkpt lat="45.87892" lon="6.32466">
        <ele>652.79998779297</ele>
        <time>2025-08-08T14:06:01.000Z</time>
      </trkpt>
      <trkpt lat="45.87883" lon="6.32464">
        <ele>653</ele>
        <time>2025-08-08T14:06:03.000Z</time>
      </trkpt>
      <trkpt lat="45.87845" lon="6.32452">
        <ele>654.20001220703</ele>
        <time>2025-08-08T14:06:12.000Z</time>
      </trkpt>
      <trkpt lat="45.87821" lon="6.32445">
        <ele>654.79998779297</ele>
        <time>2025-08-08T14:06:18.000Z</time>
      </trkpt>
      <trkpt lat="45.87809" lon="6.32441">
        <ele>655</ele>
        <time>2025-08-08T14:06:21.000Z</time>
      </trkpt>
      <trkpt lat="45.87792" lon="6.32436">
        <ele>655.40002441406</ele>
        <time>2025-08-08T14:06:25.000Z</time>
      </trkpt>
      <trkpt lat="45.87777" lon="6.32432">
        <ele>656</ele>
        <time>2025-08-08T14:06:29.000Z</time>
      </trkpt>
      <trkpt lat="45.87773" lon="6.32431">
        <ele>656.40002441406</ele>
        <time>2025-08-08T14:06:31.000Z</time>
      </trkpt>
      <trkpt lat="45.87742" lon="6.32423">
        <ele>657.20001220703</ele>
        <time>2025-08-08T14:06:38.000Z</time>
      </trkpt>
      <trkpt lat="45.87727" lon="6.32418">
        <ele>657.40002441406</ele>
        <time>2025-08-08T14:06:42.000Z</time>
      </trkpt>
      <trkpt lat="45.87723" lon="6.32417">
        <ele>657.59997558594</ele>
        <time>2025-08-08T14:06:43.000Z</time>
      </trkpt>
      <trkpt lat="45.87708" lon="6.32413">
        <ele>658</ele>
        <time>2025-08-08T14:06:47.000Z</time>
      </trkpt>
      <trkpt lat="45.87697" lon="6.32411">
        <ele>658.40002441406</ele>
        <time>2025-08-08T14:06:50.000Z</time>
      </trkpt>
      <trkpt lat="45.87674" lon="6.32404">
        <ele>659.20001220703</ele>
        <time>2025-08-08T14:06:57.000Z</time>
      </trkpt>
      <trkpt lat="45.87656" lon="6.32399">
        <ele>659.59997558594</ele>
        <time>2025-08-08T14:07:01.000Z</time>
      </trkpt>
      <trkpt lat="45.87631" lon="6.32392">
        <ele>660</ele>
        <time>2025-08-08T14:07:07.000Z</time>
      </trkpt>
      <trkpt lat="45.8761" lon="6.32386">
        <ele>660.59997558594</ele>
        <time>2025-08-08T14:07:12.000Z</time>
      </trkpt>
      <trkpt lat="45.87591" lon="6.32379">
        <ele>661</ele>
        <time>2025-08-08T14:07:16.000Z</time>
      </trkpt>
      <trkpt lat="45.87576" lon="6.32374">
        <ele>661.20001220703</ele>
        <time>2025-08-08T14:07:19.000Z</time>
      </trkpt>
      <trkpt lat="45.87542" lon="6.32363">
        <ele>661.59997558594</ele>
        <time>2025-08-08T14:07:26.000Z</time>
      </trkpt>
      <trkpt lat="45.87538" lon="6.32362">
        <ele>661.59997558594</ele>
        <time>2025-08-08T14:07:27.000Z</time>
      </trkpt>
      <trkpt lat="45.87491" lon="6.32347">
        <ele>662.40002441406</ele>
        <time>2025-08-08T14:07:36.000Z</time>
      </trkpt>
      <trkpt lat="45.87472" lon="6.32339">
        <ele>662.59997558594</ele>
        <time>2025-08-08T14:07:40.000Z</time>
      </trkpt>
      <trkpt lat="45.87452" lon="6.32334">
        <ele>663</ele>
        <time>2025-08-08T14:07:44.000Z</time>
      </trkpt>
      <trkpt lat="45.87402" lon="6.32317">
        <ele>663.59997558594</ele>
        <time>2025-08-08T14:07:54.000Z</time>
      </trkpt>
      <trkpt lat="45.8737" lon="6.32307">
        <ele>664.59997558594</ele>
        <time>2025-08-08T14:08:01.000Z</time>
      </trkpt>
      <trkpt lat="45.87365" lon="6.32305">
        <ele>664.79998779297</ele>
        <time>2025-08-08T14:08:02.000Z</time>
      </trkpt>
      <trkpt lat="45.8736" lon="6.32304">
        <ele>665</ele>
        <time>2025-08-08T14:08:03.000Z</time>
      </trkpt>
      <trkpt lat="45.87328" lon="6.32295">
        <ele>665.79998779297</ele>
        <time>2025-08-08T14:08:10.000Z</time>
      </trkpt>
      <trkpt lat="45.87328" lon="6.32295">
        <ele>666</ele>
        <time>2025-08-08T14:08:11.000Z</time>
      </trkpt>
      <trkpt lat="45.87318" lon="6.32294">
        <ele>666</ele>
        <time>2025-08-08T14:08:12.000Z</time>
      </trkpt>
      <trkpt lat="45.87295" lon="6.32296">
        <ele>666.59997558594</ele>
        <time>2025-08-08T14:08:17.000Z</time>
      </trkpt>
      <trkpt lat="45.87275" lon="6.32299">
        <ele>667</ele>
        <time>2025-08-08T14:08:22.000Z</time>
      </trkpt>
      <trkpt lat="45.8724" lon="6.32306">
        <ele>667.20001220703</ele>
        <time>2025-08-08T14:08:28.000Z</time>
      </trkpt>
      <trkpt lat="45.87196" lon="6.32314">
        <ele>668</ele>
        <time>2025-08-08T14:08:37.000Z</time>
      </trkpt>
      <trkpt lat="45.87186" lon="6.32316">
        <ele>668</ele>
        <time>2025-08-08T14:08:39.000Z</time>
      </trkpt>
      <trkpt lat="45.87146" lon="6.32325">
        <ele>669</ele>
        <time>2025-08-08T14:08:47.000Z</time>
      </trkpt>
      <trkpt lat="45.87104" lon="6.3234">
        <ele>669.79998779297</ele>
        <time>2025-08-08T14:08:56.000Z</time>
      </trkpt>
      <trkpt lat="45.87099" lon="6.32342">
        <ele>669.79998779297</ele>
        <time>2025-08-08T14:08:57.000Z</time>
      </trkpt>
      <trkpt lat="45.87089" lon="6.32346">
        <ele>670.20001220703</ele>
        <time>2025-08-08T14:08:59.000Z</time>
      </trkpt>
      <trkpt lat="45.87059" lon="6.32359">
        <ele>671.20001220703</ele>
        <time>2025-08-08T14:09:05.000Z</time>
      </trkpt>
      <trkpt lat="45.87055" lon="6.32361">
        <ele>671.20001220703</ele>
        <time>2025-08-08T14:09:06.000Z</time>
      </trkpt>
      <trkpt lat="45.8705" lon="6.32363">
        <ele>671.40002441406</ele>
        <time>2025-08-08T14:09:07.000Z</time>
      </trkpt>
      <trkpt lat="45.86996" lon="6.32387">
        <ele>671.79998779297</ele>
        <time>2025-08-08T14:09:18.000Z</time>
      </trkpt>
      <trkpt lat="45.86991" lon="6.32389">
        <ele>672</ele>
        <time>2025-08-08T14:09:19.000Z</time>
      </trkpt>
      <trkpt lat="45.86966" lon="6.324">
        <ele>672.20001220703</ele>
        <time>2025-08-08T14:09:24.000Z</time>
      </trkpt>
      <trkpt lat="45.86939" lon="6.32407">
        <ele>672.40002441406</ele>
        <time>2025-08-08T14:09:29.000Z</time>
      </trkpt>
      <trkpt lat="45.86903" lon="6.32412">
        <ele>673.40002441406</ele>
        <time>2025-08-08T14:09:36.000Z</time>
      </trkpt>
      <trkpt lat="45.86898" lon="6.32413">
        <ele>673.59997558594</ele>
        <time>2025-08-08T14:09:37.000Z</time>
      </trkpt>
      <trkpt lat="45.86878" lon="6.32416">
        <ele>674.40002441406</ele>
        <time>2025-08-08T14:09:41.000Z</time>
      </trkpt>
      <trkpt lat="45.86873" lon="6.32417">
        <ele>674.40002441406</ele>
        <time>2025-08-08T14:09:42.000Z</time>
      </trkpt>
      <trkpt lat="45.86839" lon="6.32421">
        <ele>675.20001220703</ele>
        <time>2025-08-08T14:09:49.000Z</time>
      </trkpt>
      <trkpt lat="45.86823" lon="6.32424">
        <ele>675.79998779297</ele>
        <time>2025-08-08T14:09:52.000Z</time>
      </trkpt>
      <trkpt lat="45.8679" lon="6.32427">
        <ele>676.40002441406</ele>
        <time>2025-08-08T14:09:59.000Z</time>
      </trkpt>
      <trkpt lat="45.86766" lon="6.3243">
        <ele>676.79998779297</ele>
        <time>2025-08-08T14:10:04.000Z</time>
      </trkpt>
      <trkpt lat="45.86731" lon="6.32436">
        <ele>677.59997558594</ele>
        <time>2025-08-08T14:10:11.000Z</time>
      </trkpt>
      <trkpt lat="45.86726" lon="6.32436">
        <ele>677.79998779297</ele>
        <time>2025-08-08T14:10:12.000Z</time>
      </trkpt>
      <trkpt lat="45.86684" lon="6.3245">
        <ele>678.40002441406</ele>
        <time>2025-08-08T14:10:20.000Z</time>
      </trkpt>
      <trkpt lat="45.8666" lon="6.32475">
        <ele>678.59997558594</ele>
        <time>2025-08-08T14:10:26.000Z</time>
      </trkpt>
      <trkpt lat="45.86647" lon="6.32488">
        <ele>678.79998779297</ele>
        <time>2025-08-08T14:10:29.000Z</time>
      </trkpt>
      <trkpt lat="45.86639" lon="6.32495">
        <ele>678.79998779297</ele>
        <time>2025-08-08T14:10:31.000Z</time>
      </trkpt>
      <trkpt lat="45.86627" lon="6.32505">
        <ele>679.20001220703</ele>
        <time>2025-08-08T14:10:34.000Z</time>
      </trkpt>
      <trkpt lat="45.86618" lon="6.3251">
        <ele>679.40002441406</ele>
        <time>2025-08-08T14:10:36.000Z</time>
      </trkpt>
      <trkpt lat="45.8661" lon="6.32513">
        <ele>679.79998779297</ele>
        <time>2025-08-08T14:10:38.000Z</time>
      </trkpt>
      <trkpt lat="45.86606" lon="6.32514">
        <ele>680</ele>
        <time>2025-08-08T14:10:39.000Z</time>
      </trkpt>
      <trkpt lat="45.86601" lon="6.32514">
        <ele>680.20001220703</ele>
        <time>2025-08-08T14:10:40.000Z</time>
      </trkpt>
      <trkpt lat="45.86592" lon="6.32515">
        <ele>680.20001220703</ele>
        <time>2025-08-08T14:10:42.000Z</time>
      </trkpt>
      <trkpt lat="45.86577" lon="6.32512">
        <ele>680.79998779297</ele>
        <time>2025-08-08T14:10:46.000Z</time>
      </trkpt>
      <trkpt lat="45.86568" lon="6.3251">
        <ele>681.40002441406</ele>
        <time>2025-08-08T14:10:48.000Z</time>
      </trkpt>
      <trkpt lat="45.86549" lon="6.32508">
        <ele>682.40002441406</ele>
        <time>2025-08-08T14:10:53.000Z</time>
      </trkpt>
      <trkpt lat="45.86546" lon="6.32509">
        <ele>682.40002441406</ele>
        <time>2025-08-08T14:10:54.000Z</time>
      </trkpt>
      <trkpt lat="45.86533" lon="6.32513">
        <ele>683.59997558594</ele>
        <time>2025-08-08T14:10:58.000Z</time>
      </trkpt>
      <trkpt lat="45.86531" lon="6.32515">
        <ele>683.79998779297</ele>
        <time>2025-08-08T14:10:59.000Z</time>
      </trkpt>
      <trkpt lat="45.86519" lon="6.32533">
        <ele>684.20001220703</ele>
        <time>2025-08-08T14:11:04.000Z</time>
      </trkpt>
      <trkpt lat="45.86515" lon="6.32546">
        <ele>684.79998779297</ele>
        <time>2025-08-08T14:11:07.000Z</time>
      </trkpt>
      <trkpt lat="45.86511" lon="6.32563">
        <ele>685</ele>
        <time>2025-08-08T14:11:10.000Z</time>
      </trkpt>
      <trkpt lat="45.86502" lon="6.32594">
        <ele>685.40002441406</ele>
        <time>2025-08-08T14:11:16.000Z</time>
      </trkpt>
      <trkpt lat="45.86488" lon="6.32617">
        <ele>685.79998779297</ele>
        <time>2025-08-08T14:11:21.000Z</time>
      </trkpt>
      <trkpt lat="45.86485" lon="6.3262">
        <ele>685.79998779297</ele>
        <time>2025-08-08T14:11:22.000Z</time>
      </trkpt>
      <trkpt lat="45.86468" lon="6.32633">
        <ele>686.20001220703</ele>
        <time>2025-08-08T14:11:27.000Z</time>
      </trkpt>
      <trkpt lat="45.86451" lon="6.32641">
        <ele>686.59997558594</ele>
        <time>2025-08-08T14:11:31.000Z</time>
      </trkpt>
      <trkpt lat="45.86436" lon="6.32647">
        <ele>687</ele>
        <time>2025-08-08T14:11:35.000Z</time>
      </trkpt>
      <trkpt lat="45.86414" lon="6.32655">
        <ele>687.79998779297</ele>
        <time>2025-08-08T14:11:41.000Z</time>
      </trkpt>
      <trkpt lat="45.86403" lon="6.32659">
        <ele>688.40002441406</ele>
        <time>2025-08-08T14:11:44.000Z</time>
      </trkpt>
      <trkpt lat="45.86392" lon="6.32663">
        <ele>688.79998779297</ele>
        <time>2025-08-08T14:11:47.000Z</time>
      </trkpt>
      <trkpt lat="45.86368" lon="6.32671">
        <ele>690</ele>
        <time>2025-08-08T14:11:54.000Z</time>
      </trkpt>
      <trkpt lat="45.8636" lon="6.32675">
        <ele>690.20001220703</ele>
        <time>2025-08-08T14:11:56.000Z</time>
      </trkpt>
      <trkpt lat="45.86332" lon="6.32686">
        <ele>690.79998779297</ele>
        <time>2025-08-08T14:12:03.000Z</time>
      </trkpt>
      <trkpt lat="45.86323" lon="6.32687">
        <ele>691</ele>
        <time>2025-08-08T14:12:05.000Z</time>
      </trkpt>
      <trkpt lat="45.86309" lon="6.32688">
        <ele>691.40002441406</ele>
        <time>2025-08-08T14:12:08.000Z</time>
      </trkpt>
      <trkpt lat="45.8629" lon="6.32685">
        <ele>691.79998779297</ele>
        <time>2025-08-08T14:12:12.000Z</time>
      </trkpt>
      <trkpt lat="45.86285" lon="6.32684">
        <ele>692</ele>
        <time>2025-08-08T14:12:13.000Z</time>
      </trkpt>
      <trkpt lat="45.86276" lon="6.32683">
        <ele>692.20001220703</ele>
        <time>2025-08-08T14:12:15.000Z</time>
      </trkpt>
      <trkpt lat="45.86252" lon="6.32683">
        <ele>692.20001220703</ele>
        <time>2025-08-08T14:12:20.000Z</time>
      </trkpt>
      <trkpt lat="45.86243" lon="6.32684">
        <ele>692.20001220703</ele>
        <time>2025-08-08T14:12:22.000Z</time>
      </trkpt>
      <trkpt lat="45.8622" lon="6.32693">
        <ele>692.40002441406</ele>
        <time>2025-08-08T14:12:27.000Z</time>
      </trkpt>
      <trkpt lat="45.86203" lon="6.32702">
        <ele>692.79998779297</ele>
        <time>2025-08-08T14:12:31.000Z</time>
      </trkpt>
      <trkpt lat="45.86196" lon="6.32706">
        <ele>693.40002441406</ele>
        <time>2025-08-08T14:12:33.000Z</time>
      </trkpt>
      <trkpt lat="45.86187" lon="6.3271">
        <ele>693.40002441406</ele>
        <time>2025-08-08T14:12:35.000Z</time>
      </trkpt>
      <trkpt lat="45.86178" lon="6.32715">
        <ele>693.59997558594</ele>
        <time>2025-08-08T14:12:37.000Z</time>
      </trkpt>
      <trkpt lat="45.86174" lon="6.32718">
        <ele>693.79998779297</ele>
        <time>2025-08-08T14:12:38.000Z</time>
      </trkpt>
      <trkpt lat="45.86157" lon="6.32727">
        <ele>694.40002441406</ele>
        <time>2025-08-08T14:12:42.000Z</time>
      </trkpt>
      <trkpt lat="45.86144" lon="6.32733">
        <ele>694.79998779297</ele>
        <time>2025-08-08T14:12:45.000Z</time>
      </trkpt>
      <trkpt lat="45.86121" lon="6.32742">
        <ele>694.79998779297</ele>
        <time>2025-08-08T14:12:50.000Z</time>
      </trkpt>
      <trkpt lat="45.86112" lon="6.32744">
        <ele>695</ele>
        <time>2025-08-08T14:12:52.000Z</time>
      </trkpt>
      <trkpt lat="45.86094" lon="6.32744">
        <ele>695.20001220703</ele>
        <time>2025-08-08T14:12:56.000Z</time>
      </trkpt>
      <trkpt lat="45.86075" lon="6.3274">
        <ele>695.59997558594</ele>
        <time>2025-08-08T14:13:01.000Z</time>
      </trkpt>
      <trkpt lat="45.86071" lon="6.32739">
        <ele>695.59997558594</ele>
        <time>2025-08-08T14:13:02.000Z</time>
      </trkpt>
      <trkpt lat="45.86042" lon="6.32739">
        <ele>696.40002441406</ele>
        <time>2025-08-08T14:13:10.000Z</time>
      </trkpt>
      <trkpt lat="45.86038" lon="6.3274">
        <ele>696.40002441406</ele>
        <time>2025-08-08T14:13:11.000Z</time>
      </trkpt>
      <trkpt lat="45.86023" lon="6.32751">
        <ele>697.20001220703</ele>
        <time>2025-08-08T14:13:16.000Z</time>
      </trkpt>
      <trkpt lat="45.86017" lon="6.32763">
        <ele>697.79998779297</ele>
        <time>2025-08-08T14:13:19.000Z</time>
      </trkpt>
      <trkpt lat="45.86014" lon="6.32773">
        <ele>698.20001220703</ele>
        <time>2025-08-08T14:13:21.000Z</time>
      </trkpt>
      <trkpt lat="45.86011" lon="6.32784">
        <ele>698.59997558594</ele>
        <time>2025-08-08T14:13:23.000Z</time>
      </trkpt>
      <trkpt lat="45.86006" lon="6.3281">
        <ele>699.79998779297</ele>
        <time>2025-08-08T14:13:28.000Z</time>
      </trkpt>
      <trkpt lat="45.85993" lon="6.32853">
        <ele>700.40002441406</ele>
        <time>2025-08-08T14:13:37.000Z</time>
      </trkpt>
      <trkpt lat="45.85987" lon="6.32858">
        <ele>700.59997558594</ele>
        <time>2025-08-08T14:13:39.000Z</time>
      </trkpt>
      <trkpt lat="45.8598" lon="6.32861">
        <ele>700.79998779297</ele>
        <time>2025-08-08T14:13:41.000Z</time>
      </trkpt>
      <trkpt lat="45.85953" lon="6.32859">
        <ele>701.79998779297</ele>
        <time>2025-08-08T14:13:48.000Z</time>
      </trkpt>
      <trkpt lat="45.85926" lon="6.32859">
        <ele>702.79998779297</ele>
        <time>2025-08-08T14:13:55.000Z</time>
      </trkpt>
      <trkpt lat="45.85923" lon="6.32859">
        <ele>702.79998779297</ele>
        <time>2025-08-08T14:13:56.000Z</time>
      </trkpt>
      <trkpt lat="45.85906" lon="6.32869">
        <ele>703.40002441406</ele>
        <time>2025-08-08T14:14:01.000Z</time>
      </trkpt>
      <trkpt lat="45.85891" lon="6.32885">
        <ele>703.79998779297</ele>
        <time>2025-08-08T14:14:06.000Z</time>
      </trkpt>
      <trkpt lat="45.85882" lon="6.32892">
        <ele>704.20001220703</ele>
        <time>2025-08-08T14:14:09.000Z</time>
      </trkpt>
      <trkpt lat="45.85865" lon="6.32904">
        <ele>704.79998779297</ele>
        <time>2025-08-08T14:14:14.000Z</time>
      </trkpt>
      <trkpt lat="45.85857" lon="6.32905">
        <ele>705</ele>
        <time>2025-08-08T14:14:16.000Z</time>
      </trkpt>
      <trkpt lat="45.8584" lon="6.32901">
        <ele>705.79998779297</ele>
        <time>2025-08-08T14:14:21.000Z</time>
      </trkpt>
      <trkpt lat="45.85833" lon="6.329">
        <ele>706</ele>
        <time>2025-08-08T14:14:23.000Z</time>
      </trkpt>
      <trkpt lat="45.85826" lon="6.32902">
        <ele>706.79998779297</ele>
        <time>2025-08-08T14:14:25.000Z</time>
      </trkpt>
      <trkpt lat="45.85812" lon="6.32906">
        <ele>707.40002441406</ele>
        <time>2025-08-08T14:14:29.000Z</time>
      </trkpt>
      <trkpt lat="45.85797" lon="6.32911">
        <ele>707.79998779297</ele>
        <time>2025-08-08T14:14:33.000Z</time>
      </trkpt>
      <trkpt lat="45.85777" lon="6.32916">
        <ele>708.79998779297</ele>
        <time>2025-08-08T14:14:38.000Z</time>
      </trkpt>
      <trkpt lat="45.85774" lon="6.32917">
        <ele>708.79998779297</ele>
        <time>2025-08-08T14:14:39.000Z</time>
      </trkpt>
      <trkpt lat="45.8574" lon="6.32925">
        <ele>709.79998779297</ele>
        <time>2025-08-08T14:14:48.000Z</time>
      </trkpt>
      <trkpt lat="45.85737" lon="6.32925">
        <ele>710.20001220703</ele>
        <time>2025-08-08T14:14:49.000Z</time>
      </trkpt>
      <trkpt lat="45.85725" lon="6.32927">
        <ele>710.59997558594</ele>
        <time>2025-08-08T14:14:53.000Z</time>
      </trkpt>
      <trkpt lat="45.85719" lon="6.32927">
        <ele>711.20001220703</ele>
        <time>2025-08-08T14:14:55.000Z</time>
      </trkpt>
      <trkpt lat="45.8571" lon="6.32928">
        <ele>711.79998779297</ele>
        <time>2025-08-08T14:14:58.000Z</time>
      </trkpt>
      <trkpt lat="45.85692" lon="6.32928">
        <ele>712.40002441406</ele>
        <time>2025-08-08T14:15:04.000Z</time>
      </trkpt>
      <trkpt lat="45.85684" lon="6.32927">
        <ele>712.79998779297</ele>
        <time>2025-08-08T14:15:07.000Z</time>
      </trkpt>
      <trkpt lat="45.85675" lon="6.32925">
        <ele>713.59997558594</ele>
        <time>2025-08-08T14:15:11.000Z</time>
      </trkpt>
      <trkpt lat="45.85672" lon="6.32924">
        <ele>713.79998779297</ele>
        <time>2025-08-08T14:15:12.000Z</time>
      </trkpt>
      <trkpt lat="45.8567" lon="6.32924">
        <ele>714</ele>
        <time>2025-08-08T14:15:13.000Z</time>
      </trkpt>
      <trkpt lat="45.85664" lon="6.32923">
        <ele>714.79998779297</ele>
        <time>2025-08-08T14:15:16.000Z</time>
      </trkpt>
      <trkpt lat="45.85662" lon="6.32922">
        <ele>715</ele>
        <time>2025-08-08T14:15:17.000Z</time>
      </trkpt>
      <trkpt lat="45.85654" lon="6.32919">
        <ele>716</ele>
        <time>2025-08-08T14:15:20.000Z</time>
      </trkpt>
      <trkpt lat="45.85647" lon="6.32915">
        <ele>716.59997558594</ele>
        <time>2025-08-08T14:15:23.000Z</time>
      </trkpt>
      <trkpt lat="45.85642" lon="6.32913">
        <ele>717</ele>
        <time>2025-08-08T14:15:25.000Z</time>
      </trkpt>
      <trkpt lat="45.8564" lon="6.32911">
        <ele>717.20001220703</ele>
        <time>2025-08-08T14:15:26.000Z</time>
      </trkpt>
      <trkpt lat="45.85632" lon="6.32905">
        <ele>718.20001220703</ele>
        <time>2025-08-08T14:15:30.000Z</time>
      </trkpt>
      <trkpt lat="45.8562" lon="6.32896">
        <ele>719.20001220703</ele>
        <time>2025-08-08T14:15:36.000Z</time>
      </trkpt>
      <trkpt lat="45.85618" lon="6.32894">
        <ele>719.20001220703</ele>
        <time>2025-08-08T14:15:37.000Z</time>
      </trkpt>
      <trkpt lat="45.85609" lon="6.32886">
        <ele>720.20001220703</ele>
        <time>2025-08-08T14:15:42.000Z</time>
      </trkpt>
      <trkpt lat="45.85606" lon="6.32882">
        <ele>720.59997558594</ele>
        <time>2025-08-08T14:15:44.000Z</time>
      </trkpt>
      <trkpt lat="45.85597" lon="6.32871">
        <ele>721.20001220703</ele>
        <time>2025-08-08T14:15:49.000Z</time>
      </trkpt>
      <trkpt lat="45.85588" lon="6.32862">
        <ele>721.79998779297</ele>
        <time>2025-08-08T14:15:54.000Z</time>
      </trkpt>
      <trkpt lat="45.85581" lon="6.32856">
        <ele>722.40002441406</ele>
        <time>2025-08-08T14:15:58.000Z</time>
      </trkpt>
      <trkpt lat="45.85568" lon="6.32846">
        <ele>723.40002441406</ele>
        <time>2025-08-08T14:16:04.000Z</time>
      </trkpt>
      <trkpt lat="45.85567" lon="6.32845">
        <ele>723.79998779297</ele>
        <time>2025-08-08T14:16:05.000Z</time>
      </trkpt>
      <trkpt lat="45.85554" lon="6.32838">
        <ele>724.79998779297</ele>
        <time>2025-08-08T14:16:11.000Z</time>
      </trkpt>
      <trkpt lat="45.85552" lon="6.32837">
        <ele>725</ele>
        <time>2025-08-08T14:16:12.000Z</time>
      </trkpt>
      <trkpt lat="45.85536" lon="6.32834">
        <ele>725.59997558594</ele>
        <time>2025-08-08T14:16:19.000Z</time>
      </trkpt>
      <trkpt lat="45.85534" lon="6.32834">
        <ele>725.79998779297</ele>
        <time>2025-08-08T14:16:20.000Z</time>
      </trkpt>
      <trkpt lat="45.85524" lon="6.32834">
        <ele>726.59997558594</ele>
        <time>2025-08-08T14:16:24.000Z</time>
      </trkpt>
      <trkpt lat="45.85515" lon="6.32836">
        <ele>727.79998779297</ele>
        <time>2025-08-08T14:16:28.000Z</time>
      </trkpt>
      <trkpt lat="45.85511" lon="6.32837">
        <ele>728.79998779297</ele>
        <time>2025-08-08T14:16:30.000Z</time>
      </trkpt>
      <trkpt lat="45.85508" lon="6.32838">
        <ele>728.79998779297</ele>
        <time>2025-08-08T14:16:31.000Z</time>
      </trkpt>
      <trkpt lat="45.85501" lon="6.32842">
        <ele>729.40002441406</ele>
        <time>2025-08-08T14:16:34.000Z</time>
      </trkpt>
      <trkpt lat="45.85496" lon="6.32844">
        <ele>729.79998779297</ele>
        <time>2025-08-08T14:16:36.000Z</time>
      </trkpt>
      <trkpt lat="45.85494" lon="6.32844">
        <ele>730</ele>
        <time>2025-08-08T14:16:37.000Z</time>
      </trkpt>
      <trkpt lat="45.8549" lon="6.32846">
        <ele>730.40002441406</ele>
        <time>2025-08-08T14:16:39.000Z</time>
      </trkpt>
      <trkpt lat="45.85483" lon="6.3285">
        <ele>731</ele>
        <time>2025-08-08T14:16:42.000Z</time>
      </trkpt>
      <trkpt lat="45.85475" lon="6.32853">
        <ele>731.40002441406</ele>
        <time>2025-08-08T14:16:45.000Z</time>
      </trkpt>
      <trkpt lat="45.85468" lon="6.32857">
        <ele>732</ele>
        <time>2025-08-08T14:16:48.000Z</time>
      </trkpt>
      <trkpt lat="45.85463" lon="6.32857">
        <ele>732.40002441406</ele>
        <time>2025-08-08T14:16:50.000Z</time>
      </trkpt>
      <trkpt lat="45.85452" lon="6.32857">
        <ele>733</ele>
        <time>2025-08-08T14:16:54.000Z</time>
      </trkpt>
      <trkpt lat="45.85447" lon="6.32858">
        <ele>733.40002441406</ele>
        <time>2025-08-08T14:16:56.000Z</time>
      </trkpt>
      <trkpt lat="45.8544" lon="6.32857">
        <ele>734</ele>
        <time>2025-08-08T14:16:59.000Z</time>
      </trkpt>
      <trkpt lat="45.85423" lon="6.32858">
        <ele>735</ele>
        <time>2025-08-08T14:17:06.000Z</time>
      </trkpt>
      <trkpt lat="45.8542" lon="6.32858">
        <ele>735</ele>
        <time>2025-08-08T14:17:07.000Z</time>
      </trkpt>
      <trkpt lat="45.85408" lon="6.32858">
        <ele>735.40002441406</ele>
        <time>2025-08-08T14:17:12.000Z</time>
      </trkpt>
      <trkpt lat="45.85395" lon="6.32857">
        <ele>736.20001220703</ele>
        <time>2025-08-08T14:17:17.000Z</time>
      </trkpt>
      <trkpt lat="45.85388" lon="6.32857">
        <ele>736.59997558594</ele>
        <time>2025-08-08T14:17:20.000Z</time>
      </trkpt>
      <trkpt lat="45.85376" lon="6.32857">
        <ele>737.20001220703</ele>
        <time>2025-08-08T14:17:25.000Z</time>
      </trkpt>
      <trkpt lat="45.85374" lon="6.32857">
        <ele>737.40002441406</ele>
        <time>2025-08-08T14:17:26.000Z</time>
      </trkpt>
      <trkpt lat="45.85365" lon="6.32858">
        <ele>738</ele>
        <time>2025-08-08T14:17:29.000Z</time>
      </trkpt>
      <trkpt lat="45.85363" lon="6.32859">
        <ele>738.20001220703</ele>
        <time>2025-08-08T14:17:30.000Z</time>
      </trkpt>
      <trkpt lat="45.8535" lon="6.32862">
        <ele>739.40002441406</ele>
        <time>2025-08-08T14:17:35.000Z</time>
      </trkpt>
      <trkpt lat="45.85345" lon="6.32863">
        <ele>739.79998779297</ele>
        <time>2025-08-08T14:17:37.000Z</time>
      </trkpt>
      <trkpt lat="45.85333" lon="6.32866">
        <ele>740.40002441406</ele>
        <time>2025-08-08T14:17:42.000Z</time>
      </trkpt>
      <trkpt lat="45.85323" lon="6.32869">
        <ele>741</ele>
        <time>2025-08-08T14:17:46.000Z</time>
      </trkpt>
      <trkpt lat="45.8531" lon="6.32872">
        <ele>741.59997558594</ele>
        <time>2025-08-08T14:17:51.000Z</time>
      </trkpt>
      <trkpt lat="45.85297" lon="6.32876">
        <ele>742.20001220703</ele>
        <time>2025-08-08T14:17:56.000Z</time>
      </trkpt>
      <trkpt lat="45.85292" lon="6.32877">
        <ele>742.59997558594</ele>
        <time>2025-08-08T14:17:58.000Z</time>
      </trkpt>
      <trkpt lat="45.85275" lon="6.32881">
        <ele>743.59997558594</ele>
        <time>2025-08-08T14:18:05.000Z</time>
      </trkpt>
      <trkpt lat="45.85255" lon="6.32886">
        <ele>744.79998779297</ele>
        <time>2025-08-08T14:18:13.000Z</time>
      </trkpt>
      <trkpt lat="45.85252" lon="6.32886">
        <ele>745</ele>
        <time>2025-08-08T14:18:14.000Z</time>
      </trkpt>
      <trkpt lat="45.85237" lon="6.32889">
        <ele>746</ele>
        <time>2025-08-08T14:18:20.000Z</time>
      </trkpt>
      <trkpt lat="45.85225" lon="6.32889">
        <ele>747</ele>
        <time>2025-08-08T14:18:25.000Z</time>
      </trkpt>
      <trkpt lat="45.8522" lon="6.32888">
        <ele>747.40002441406</ele>
        <time>2025-08-08T14:18:27.000Z</time>
      </trkpt>
      <trkpt lat="45.85209" lon="6.32886">
        <ele>748</ele>
        <time>2025-08-08T14:18:31.000Z</time>
      </trkpt>
      <trkpt lat="45.85197" lon="6.32882">
        <ele>748.59997558594</ele>
        <time>2025-08-08T14:18:36.000Z</time>
      </trkpt>
      <trkpt lat="45.85192" lon="6.32879">
        <ele>749.40002441406</ele>
        <time>2025-08-08T14:18:38.000Z</time>
      </trkpt>
      <trkpt lat="45.85178" lon="6.32868">
        <ele>750</ele>
        <time>2025-08-08T14:18:44.000Z</time>
      </trkpt>
      <trkpt lat="45.85171" lon="6.32864">
        <ele>750.40002441406</ele>
        <time>2025-08-08T14:18:47.000Z</time>
      </trkpt>
      <trkpt lat="45.85154" lon="6.32859">
        <ele>751.20001220703</ele>
        <time>2025-08-08T14:18:53.000Z</time>
      </trkpt>
      <trkpt lat="45.85146" lon="6.32861">
        <ele>751.59997558594</ele>
        <time>2025-08-08T14:18:56.000Z</time>
      </trkpt>
      <trkpt lat="45.85132" lon="6.32868">
        <ele>752</ele>
        <time>2025-08-08T14:19:01.000Z</time>
      </trkpt>
      <trkpt lat="45.85122" lon="6.32874">
        <ele>752.59997558594</ele>
        <time>2025-08-08T14:19:05.000Z</time>
      </trkpt>
      <trkpt lat="45.85111" lon="6.32876">
        <ele>753.40002441406</ele>
        <time>2025-08-08T14:19:09.000Z</time>
      </trkpt>
      <trkpt lat="45.85108" lon="6.32877">
        <ele>753.59997558594</ele>
        <time>2025-08-08T14:19:10.000Z</time>
      </trkpt>
      <trkpt lat="45.85095" lon="6.32872">
        <ele>755</ele>
        <time>2025-08-08T14:19:16.000Z</time>
      </trkpt>
      <trkpt lat="45.85083" lon="6.32866">
        <ele>756</ele>
        <time>2025-08-08T14:19:21.000Z</time>
      </trkpt>
      <trkpt lat="45.85073" lon="6.32862">
        <ele>756.40002441406</ele>
        <time>2025-08-08T14:19:25.000Z</time>
      </trkpt>
      <trkpt lat="45.85063" lon="6.32859">
        <ele>757</ele>
        <time>2025-08-08T14:19:29.000Z</time>
      </trkpt>
      <trkpt lat="45.85051" lon="6.32856">
        <ele>758.20001220703</ele>
        <time>2025-08-08T14:19:34.000Z</time>
      </trkpt>
      <trkpt lat="45.85044" lon="6.32854">
        <ele>758.59997558594</ele>
        <time>2025-08-08T14:19:37.000Z</time>
      </trkpt>
      <trkpt lat="45.85031" lon="6.32855">
        <ele>759.40002441406</ele>
        <time>2025-08-08T14:19:42.000Z</time>
      </trkpt>
      <trkpt lat="45.85029" lon="6.32855">
        <ele>759.79998779297</ele>
        <time>2025-08-08T14:19:43.000Z</time>
      </trkpt>
      <trkpt lat="45.85016" lon="6.32857">
        <ele>760.40002441406</ele>
        <time>2025-08-08T14:19:48.000Z</time>
      </trkpt>
      <trkpt lat="45.85014" lon="6.32857">
        <ele>760.59997558594</ele>
        <time>2025-08-08T14:19:49.000Z</time>
      </trkpt>
      <trkpt lat="45.85001" lon="6.3286">
        <ele>761.59997558594</ele>
        <time>2025-08-08T14:19:54.000Z</time>
      </trkpt>
      <trkpt lat="45.84993" lon="6.32862">
        <ele>761.79998779297</ele>
        <time>2025-08-08T14:19:57.000Z</time>
      </trkpt>
      <trkpt lat="45.84978" lon="6.32867">
        <ele>762.79998779297</ele>
        <time>2025-08-08T14:20:03.000Z</time>
      </trkpt>
      <trkpt lat="45.84973" lon="6.32868">
        <ele>763.20001220703</ele>
        <time>2025-08-08T14:20:05.000Z</time>
      </trkpt>
      <trkpt lat="45.84966" lon="6.32871">
        <ele>763.79998779297</ele>
        <time>2025-08-08T14:20:08.000Z</time>
      </trkpt>
      <trkpt lat="45.84955" lon="6.32878">
        <ele>764.59997558594</ele>
        <time>2025-08-08T14:20:13.000Z</time>
      </trkpt>
      <trkpt lat="45.84948" lon="6.32883">
        <ele>764.79998779297</ele>
        <time>2025-08-08T14:20:16.000Z</time>
      </trkpt>
      <trkpt lat="45.84934" lon="6.32898">
        <ele>765.79998779297</ele>
        <time>2025-08-08T14:20:23.000Z</time>
      </trkpt>
      <trkpt lat="45.8493" lon="6.32903">
        <ele>766</ele>
        <time>2025-08-08T14:20:25.000Z</time>
      </trkpt>
      <trkpt lat="45.8492" lon="6.32916">
        <ele>767.20001220703</ele>
        <time>2025-08-08T14:20:30.000Z</time>
      </trkpt>
      <trkpt lat="45.84918" lon="6.32918">
        <ele>767</ele>
        <time>2025-08-08T14:20:31.000Z</time>
      </trkpt>
      <trkpt lat="45.84913" lon="6.32921">
        <ele>767.20001220703</ele>
        <time>2025-08-08T14:20:33.000Z</time>
      </trkpt>
      <trkpt lat="45.84902" lon="6.3293">
        <ele>768</ele>
        <time>2025-08-08T14:20:38.000Z</time>
      </trkpt>
      <trkpt lat="45.849" lon="6.32931">
        <ele>768.20001220703</ele>
        <time>2025-08-08T14:20:39.000Z</time>
      </trkpt>
      <trkpt lat="45.84891" lon="6.32935">
        <ele>769.40002441406</ele>
        <time>2025-08-08T14:20:43.000Z</time>
      </trkpt>
      <trkpt lat="45.84878" lon="6.32939">
        <ele>770.40002441406</ele>
        <time>2025-08-08T14:20:48.000Z</time>
      </trkpt>
      <trkpt lat="45.84875" lon="6.3294">
        <ele>770.40002441406</ele>
        <time>2025-08-08T14:20:49.000Z</time>
      </trkpt>
      <trkpt lat="45.84861" lon="6.32943">
        <ele>771.40002441406</ele>
        <time>2025-08-08T14:20:55.000Z</time>
      </trkpt>
      <trkpt lat="45.84854" lon="6.32946">
        <ele>772</ele>
        <time>2025-08-08T14:20:58.000Z</time>
      </trkpt>
      <trkpt lat="45.84846" lon="6.32948">
        <ele>772.59997558594</ele>
        <time>2025-08-08T14:21:01.000Z</time>
      </trkpt>
      <trkpt lat="45.84829" lon="6.32953">
        <ele>773.59997558594</ele>
        <time>2025-08-08T14:21:08.000Z</time>
      </trkpt>
      <trkpt lat="45.84822" lon="6.32954">
        <ele>774.20001220703</ele>
        <time>2025-08-08T14:21:11.000Z</time>
      </trkpt>
      <trkpt lat="45.84811" lon="6.32954">
        <ele>775</ele>
        <time>2025-08-08T14:21:15.000Z</time>
      </trkpt>
      <trkpt lat="45.84801" lon="6.32952">
        <ele>775.40002441406</ele>
        <time>2025-08-08T14:21:19.000Z</time>
      </trkpt>
      <trkpt lat="45.84794" lon="6.32949">
        <ele>776</ele>
        <time>2025-08-08T14:21:22.000Z</time>
      </trkpt>
      <trkpt lat="45.84779" lon="6.32943">
        <ele>777</ele>
        <time>2025-08-08T14:21:28.000Z</time>
      </trkpt>
      <trkpt lat="45.84757" lon="6.32942">
        <ele>778.20001220703</ele>
        <time>2025-08-08T14:21:35.000Z</time>
      </trkpt>
      <trkpt lat="45.84743" lon="6.32944">
        <ele>778.40002441406</ele>
        <time>2025-08-08T14:21:39.000Z</time>
      </trkpt>
      <trkpt lat="45.84714" lon="6.32944">
        <ele>779.20001220703</ele>
        <time>2025-08-08T14:21:47.000Z</time>
      </trkpt>
      <trkpt lat="45.8471" lon="6.32944">
        <ele>779.20001220703</ele>
        <time>2025-08-08T14:21:48.000Z</time>
      </trkpt>
      <trkpt lat="45.84674" lon="6.32944">
        <ele>779.79998779297</ele>
        <time>2025-08-08T14:21:58.000Z</time>
      </trkpt>
      <trkpt lat="45.84645" lon="6.32957">
        <ele>780.20001220703</ele>
        <time>2025-08-08T14:22:05.000Z</time>
      </trkpt>
      <trkpt lat="45.8464" lon="6.3296">
        <ele>780.20001220703</ele>
        <time>2025-08-08T14:22:06.000Z</time>
      </trkpt>
      <trkpt lat="45.84616" lon="6.32977">
        <ele>780.40002441406</ele>
        <time>2025-08-08T14:22:12.000Z</time>
      </trkpt>
      <trkpt lat="45.84586" lon="6.32998">
        <ele>781.40002441406</ele>
        <time>2025-08-08T14:22:20.000Z</time>
      </trkpt>
      <trkpt lat="45.84583" lon="6.33">
        <ele>781.59997558594</ele>
        <time>2025-08-08T14:22:21.000Z</time>
      </trkpt>
      <trkpt lat="45.84558" lon="6.33018">
        <ele>782.59997558594</ele>
        <time>2025-08-08T14:22:28.000Z</time>
      </trkpt>
      <trkpt lat="45.84548" lon="6.33024">
        <ele>782.79998779297</ele>
        <time>2025-08-08T14:22:31.000Z</time>
      </trkpt>
      <trkpt lat="45.84519" lon="6.33044">
        <ele>783.59997558594</ele>
        <time>2025-08-08T14:22:39.000Z</time>
      </trkpt>
      <trkpt lat="45.84508" lon="6.33051">
        <ele>784</ele>
        <time>2025-08-08T14:22:42.000Z</time>
      </trkpt>
      <trkpt lat="45.8449" lon="6.33062">
        <ele>784.79998779297</ele>
        <time>2025-08-08T14:22:47.000Z</time>
      </trkpt>
      <trkpt lat="45.84475" lon="6.33072">
        <ele>785.59997558594</ele>
        <time>2025-08-08T14:22:51.000Z</time>
      </trkpt>
      <trkpt lat="45.84468" lon="6.33076">
        <ele>786</ele>
        <time>2025-08-08T14:22:53.000Z</time>
      </trkpt>
      <trkpt lat="45.84437" lon="6.33095">
        <ele>786.40002441406</ele>
        <time>2025-08-08T14:23:01.000Z</time>
      </trkpt>
      <trkpt lat="45.84406" lon="6.33112">
        <ele>787</ele>
        <time>2025-08-08T14:23:09.000Z</time>
      </trkpt>
      <trkpt lat="45.84388" lon="6.33125">
        <ele>787.59997558594</ele>
        <time>2025-08-08T14:23:14.000Z</time>
      </trkpt>
      <trkpt lat="45.84378" lon="6.33135">
        <ele>788.20001220703</ele>
        <time>2025-08-08T14:23:17.000Z</time>
      </trkpt>
      <trkpt lat="45.84363" lon="6.33151">
        <ele>789</ele>
        <time>2025-08-08T14:23:22.000Z</time>
      </trkpt>
      <trkpt lat="45.84355" lon="6.33162">
        <ele>789.20001220703</ele>
        <time>2025-08-08T14:23:25.000Z</time>
      </trkpt>
      <trkpt lat="45.8435" lon="6.33169">
        <ele>789.40002441406</ele>
        <time>2025-08-08T14:23:27.000Z</time>
      </trkpt>
      <trkpt lat="45.84335" lon="6.33179">
        <ele>789.79998779297</ele>
        <time>2025-08-08T14:23:32.000Z</time>
      </trkpt>
      <trkpt lat="45.84333" lon="6.3318">
        <ele>790.20001220703</ele>
        <time>2025-08-08T14:23:33.000Z</time>
      </trkpt>
      <trkpt lat="45.84321" lon="6.33186">
        <ele>791.20001220703</ele>
        <time>2025-08-08T14:23:37.000Z</time>
      </trkpt>
      <trkpt lat="45.84316" lon="6.3319">
        <ele>791.59997558594</ele>
        <time>2025-08-08T14:23:39.000Z</time>
      </trkpt>
      <trkpt lat="45.84302" lon="6.332">
        <ele>792.59997558594</ele>
        <time>2025-08-08T14:23:44.000Z</time>
      </trkpt>
      <trkpt lat="45.8429" lon="6.33205">
        <ele>793.59997558594</ele>
        <time>2025-08-08T14:23:48.000Z</time>
      </trkpt>
      <trkpt lat="45.84275" lon="6.33212">
        <ele>794.79998779297</ele>
        <time>2025-08-08T14:23:53.000Z</time>
      </trkpt>
      <trkpt lat="45.84261" lon="6.33216">
        <ele>795.20001220703</ele>
        <time>2025-08-08T14:23:57.000Z</time>
      </trkpt>
      <trkpt lat="45.84228" lon="6.33225">
        <ele>795.79998779297</ele>
        <time>2025-08-08T14:24:05.000Z</time>
      </trkpt>
      <trkpt lat="45.84179" lon="6.33236">
        <ele>796.40002441406</ele>
        <time>2025-08-08T14:24:16.000Z</time>
      </trkpt>
      <trkpt lat="45.84141" lon="6.33241">
        <ele>797</ele>
        <time>2025-08-08T14:24:24.000Z</time>
      </trkpt>
      <trkpt lat="45.84123" lon="6.33236">
        <ele>797.40002441406</ele>
        <time>2025-08-08T14:24:29.000Z</time>
      </trkpt>
      <trkpt lat="45.84105" lon="6.33229">
        <ele>798</ele>
        <time>2025-08-08T14:24:33.000Z</time>
      </trkpt>
      <trkpt lat="45.84081" lon="6.33222">
        <ele>798.40002441406</ele>
        <time>2025-08-08T14:24:38.000Z</time>
      </trkpt>
      <trkpt lat="45.84053" lon="6.33221">
        <ele>798.40002441406</ele>
        <time>2025-08-08T14:24:43.000Z</time>
      </trkpt>
      <trkpt lat="45.84009" lon="6.33229">
        <ele>798</ele>
        <time>2025-08-08T14:24:50.000Z</time>
      </trkpt>
      <trkpt lat="45.83963" lon="6.33223">
        <ele>797.79998779297</ele>
        <time>2025-08-08T14:24:58.000Z</time>
      </trkpt>
      <trkpt lat="45.83939" lon="6.33215">
        <ele>798.40002441406</ele>
        <time>2025-08-08T14:25:03.000Z</time>
      </trkpt>
      <trkpt lat="45.83927" lon="6.33211">
        <ele>798.79998779297</ele>
        <time>2025-08-08T14:25:06.000Z</time>
      </trkpt>
      <trkpt lat="45.83913" lon="6.33207">
        <ele>799.59997558594</ele>
        <time>2025-08-08T14:25:10.000Z</time>
      </trkpt>
      <trkpt lat="45.83906" lon="6.33204">
        <ele>800</ele>
        <time>2025-08-08T14:25:12.000Z</time>
      </trkpt>
      <trkpt lat="45.8389" lon="6.33199">
        <ele>801</ele>
        <time>2025-08-08T14:25:17.000Z</time>
      </trkpt>
      <trkpt lat="45.83883" lon="6.33197">
        <ele>801.40002441406</ele>
        <time>2025-08-08T14:25:19.000Z</time>
      </trkpt>
      <trkpt lat="45.83869" lon="6.33193">
        <ele>802</ele>
        <time>2025-08-08T14:25:24.000Z</time>
      </trkpt>
      <trkpt lat="45.83863" lon="6.3319">
        <ele>802.20001220703</ele>
        <time>2025-08-08T14:25:26.000Z</time>
      </trkpt>
      <trkpt lat="45.83847" lon="6.33184">
        <ele>803.20001220703</ele>
        <time>2025-08-08T14:25:32.000Z</time>
      </trkpt>
      <trkpt lat="45.8383" lon="6.33178">
        <ele>804.20001220703</ele>
        <time>2025-08-08T14:25:38.000Z</time>
      </trkpt>
      <trkpt lat="45.83827" lon="6.33177">
        <ele>804.20001220703</ele>
        <time>2025-08-08T14:25:40.000Z</time>
      </trkpt>
      <trkpt lat="45.83799" lon="6.33167">
        <ele>805.20001220703</ele>
        <time>2025-08-08T14:25:49.000Z</time>
      </trkpt>
      <trkpt lat="45.8378" lon="6.33161">
        <ele>806.20001220703</ele>
        <time>2025-08-08T14:25:55.000Z</time>
      </trkpt>
      <trkpt lat="45.83776" lon="6.3316">
        <ele>806.59997558594</ele>
        <time>2025-08-08T14:25:56.000Z</time>
      </trkpt>
      <trkpt lat="45.83756" lon="6.33154">
        <ele>807.20001220703</ele>
        <time>2025-08-08T14:26:02.000Z</time>
      </trkpt>
      <trkpt lat="45.83752" lon="6.33154">
        <ele>807.59997558594</ele>
        <time>2025-08-08T14:26:03.000Z</time>
      </trkpt>
      <trkpt lat="45.8373" lon="6.33151">
        <ele>808.59997558594</ele>
        <time>2025-08-08T14:26:09.000Z</time>
      </trkpt>
      <trkpt lat="45.83719" lon="6.33154">
        <ele>809.20001220703</ele>
        <time>2025-08-08T14:26:12.000Z</time>
      </trkpt>
      <trkpt lat="45.83707" lon="6.33157">
        <ele>809.40002441406</ele>
        <time>2025-08-08T14:26:15.000Z</time>
      </trkpt>
      <trkpt lat="45.83678" lon="6.33168">
        <ele>810.40002441406</ele>
        <time>2025-08-08T14:26:23.000Z</time>
      </trkpt>
      <trkpt lat="45.8367" lon="6.3317">
        <ele>810.59997558594</ele>
        <time>2025-08-08T14:26:25.000Z</time>
      </trkpt>
      <trkpt lat="45.83643" lon="6.33182">
        <ele>810.79998779297</ele>
        <time>2025-08-08T14:26:33.000Z</time>
      </trkpt>
      <trkpt lat="45.83633" lon="6.33186">
        <ele>811.79998779297</ele>
        <time>2025-08-08T14:26:36.000Z</time>
      </trkpt>
      <trkpt lat="45.83615" lon="6.3319">
        <ele>812</ele>
        <time>2025-08-08T14:26:41.000Z</time>
      </trkpt>
      <trkpt lat="45.83584" lon="6.33192">
        <ele>812.20001220703</ele>
        <time>2025-08-08T14:26:50.000Z</time>
      </trkpt>
      <trkpt lat="45.83573" lon="6.33192">
        <ele>812.59997558594</ele>
        <time>2025-08-08T14:26:53.000Z</time>
      </trkpt>
      <trkpt lat="45.83548" lon="6.33191">
        <ele>813.40002441406</ele>
        <time>2025-08-08T14:27:00.000Z</time>
      </trkpt>
      <trkpt lat="45.83544" lon="6.33191">
        <ele>813.59997558594</ele>
        <time>2025-08-08T14:27:01.000Z</time>
      </trkpt>
      <trkpt lat="45.83519" lon="6.33191">
        <ele>814.59997558594</ele>
        <time>2025-08-08T14:27:08.000Z</time>
      </trkpt>
      <trkpt lat="45.83516" lon="6.33191">
        <ele>814.79998779297</ele>
        <time>2025-08-08T14:27:09.000Z</time>
      </trkpt>
      <trkpt lat="45.83501" lon="6.3319">
        <ele>815.59997558594</ele>
        <time>2025-08-08T14:27:13.000Z</time>
      </trkpt>
      <trkpt lat="45.83498" lon="6.3319">
        <ele>815.79998779297</ele>
        <time>2025-08-08T14:27:14.000Z</time>
      </trkpt>
      <trkpt lat="45.83486" lon="6.3319">
        <ele>816.20001220703</ele>
        <time>2025-08-08T14:27:17.000Z</time>
      </trkpt>
      <trkpt lat="45.83451" lon="6.33188">
        <ele>816.59997558594</ele>
        <time>2025-08-08T14:27:26.000Z</time>
      </trkpt>
      <trkpt lat="45.83444" lon="6.33188">
        <ele>816.79998779297</ele>
        <time>2025-08-08T14:27:28.000Z</time>
      </trkpt>
      <trkpt lat="45.83416" lon="6.33189">
        <ele>817.40002441406</ele>
        <time>2025-08-08T14:27:35.000Z</time>
      </trkpt>
      <trkpt lat="45.83401" lon="6.33191">
        <ele>818</ele>
        <time>2025-08-08T14:27:39.000Z</time>
      </trkpt>
      <trkpt lat="45.83386" lon="6.33191">
        <ele>818.59997558594</ele>
        <time>2025-08-08T14:27:43.000Z</time>
      </trkpt>
      <trkpt lat="45.83382" lon="6.33191">
        <ele>818.79998779297</ele>
        <time>2025-08-08T14:27:44.000Z</time>
      </trkpt>
      <trkpt lat="45.83364" lon="6.33191">
        <ele>819.20001220703</ele>
        <time>2025-08-08T14:27:49.000Z</time>
      </trkpt>
      <trkpt lat="45.8335" lon="6.33192">
        <ele>819.79998779297</ele>
        <time>2025-08-08T14:27:53.000Z</time>
      </trkpt>
      <trkpt lat="45.83332" lon="6.33194">
        <ele>820.59997558594</ele>
        <time>2025-08-08T14:27:58.000Z</time>
      </trkpt>
      <trkpt lat="45.83316" lon="6.33194">
        <ele>821</ele>
        <time>2025-08-08T14:28:03.000Z</time>
      </trkpt>
      <trkpt lat="45.83301" lon="6.33194">
        <ele>821.20001220703</ele>
        <time>2025-08-08T14:28:07.000Z</time>
      </trkpt>
      <trkpt lat="45.83281" lon="6.33193">
        <ele>822</ele>
        <time>2025-08-08T14:28:13.000Z</time>
      </trkpt>
      <trkpt lat="45.83278" lon="6.33192">
        <ele>822.20001220703</ele>
        <time>2025-08-08T14:28:14.000Z</time>
      </trkpt>
      <trkpt lat="45.83258" lon="6.33189">
        <ele>822.40002441406</ele>
        <time>2025-08-08T14:28:20.000Z</time>
      </trkpt>
      <trkpt lat="45.83245" lon="6.33188">
        <ele>823</ele>
        <time>2025-08-08T14:28:24.000Z</time>
      </trkpt>
      <trkpt lat="45.83232" lon="6.33185">
        <ele>823.79998779297</ele>
        <time>2025-08-08T14:28:28.000Z</time>
      </trkpt>
      <trkpt lat="45.83226" lon="6.33184">
        <ele>824</ele>
        <time>2025-08-08T14:28:30.000Z</time>
      </trkpt>
      <trkpt lat="45.83205" lon="6.33183">
        <ele>825</ele>
        <time>2025-08-08T14:28:36.000Z</time>
      </trkpt>
      <trkpt lat="45.83202" lon="6.33183">
        <ele>825.20001220703</ele>
        <time>2025-08-08T14:28:37.000Z</time>
      </trkpt>
      <trkpt lat="45.83175" lon="6.33184">
        <ele>826.20001220703</ele>
        <time>2025-08-08T14:28:45.000Z</time>
      </trkpt>
      <trkpt lat="45.83154" lon="6.33189">
        <ele>827.40002441406</ele>
        <time>2025-08-08T14:28:51.000Z</time>
      </trkpt>
      <trkpt lat="45.83144" lon="6.33192">
        <ele>827.79998779297</ele>
        <time>2025-08-08T14:28:54.000Z</time>
      </trkpt>
      <trkpt lat="45.83127" lon="6.33196">
        <ele>828.40002441406</ele>
        <time>2025-08-08T14:28:59.000Z</time>
      </trkpt>
      <trkpt lat="45.83121" lon="6.33197">
        <ele>828.59997558594</ele>
        <time>2025-08-08T14:29:01.000Z</time>
      </trkpt>
      <trkpt lat="45.83106" lon="6.33201">
        <ele>829.59997558594</ele>
        <time>2025-08-08T14:29:06.000Z</time>
      </trkpt>
      <trkpt lat="45.83093" lon="6.33204">
        <ele>830.40002441406</ele>
        <time>2025-08-08T14:29:10.000Z</time>
      </trkpt>
      <trkpt lat="45.8309" lon="6.33205">
        <ele>830.79998779297</ele>
        <time>2025-08-08T14:29:11.000Z</time>
      </trkpt>
      <trkpt lat="45.83074" lon="6.33207">
        <ele>831.79998779297</ele>
        <time>2025-08-08T14:29:16.000Z</time>
      </trkpt>
      <trkpt lat="45.83071" lon="6.33208">
        <ele>832.20001220703</ele>
        <time>2025-08-08T14:29:17.000Z</time>
      </trkpt>
      <trkpt lat="45.83055" lon="6.33211">
        <ele>833</ele>
        <time>2025-08-08T14:29:22.000Z</time>
      </trkpt>
      <trkpt lat="45.83045" lon="6.33214">
        <ele>833.59997558594</ele>
        <time>2025-08-08T14:29:26.000Z</time>
      </trkpt>
      <trkpt lat="45.83036" lon="6.33216">
        <ele>834.20001220703</ele>
        <time>2025-08-08T14:29:29.000Z</time>
      </trkpt>
      <trkpt lat="45.83019" lon="6.33221">
        <ele>835.20001220703</ele>
        <time>2025-08-08T14:29:35.000Z</time>
      </trkpt>
      <trkpt lat="45.82999" lon="6.33229">
        <ele>836.20001220703</ele>
        <time>2025-08-08T14:29:42.000Z</time>
      </trkpt>
      <trkpt lat="45.82996" lon="6.3323">
        <ele>836.40002441406</ele>
        <time>2025-08-08T14:29:43.000Z</time>
      </trkpt>
      <trkpt lat="45.82977" lon="6.33243">
        <ele>837.20001220703</ele>
        <time>2025-08-08T14:29:50.000Z</time>
      </trkpt>
      <trkpt lat="45.82957" lon="6.33258">
        <ele>838.20001220703</ele>
        <time>2025-08-08T14:29:58.000Z</time>
      </trkpt>
      <trkpt lat="45.82952" lon="6.33261">
        <ele>838.40002441406</ele>
        <time>2025-08-08T14:30:00.000Z</time>
      </trkpt>
      <trkpt lat="45.82934" lon="6.33273">
        <ele>839.59997558594</ele>
        <time>2025-08-08T14:30:07.000Z</time>
      </trkpt>
      <trkpt lat="45.82913" lon="6.33287">
        <ele>840.40002441406</ele>
        <time>2025-08-08T14:30:15.000Z</time>
      </trkpt>
      <trkpt lat="45.8291" lon="6.33288">
        <ele>840.40002441406</ele>
        <time>2025-08-08T14:30:16.000Z</time>
      </trkpt>
      <trkpt lat="45.82899" lon="6.33292">
        <ele>842</ele>
        <time>2025-08-08T14:30:20.000Z</time>
      </trkpt>
      <trkpt lat="45.82892" lon="6.33295">
        <ele>843</ele>
        <time>2025-08-08T14:30:23.000Z</time>
      </trkpt>
      <trkpt lat="45.82884" lon="6.33299">
        <ele>843.20001220703</ele>
        <time>2025-08-08T14:30:26.000Z</time>
      </trkpt>
      <trkpt lat="45.82871" lon="6.33304">
        <ele>843.59997558594</ele>
        <time>2025-08-08T14:30:31.000Z</time>
      </trkpt>
      <trkpt lat="45.8286" lon="6.3331">
        <ele>844.20001220703</ele>
        <time>2025-08-08T14:30:35.000Z</time>
      </trkpt>
      <trkpt lat="45.82841" lon="6.3332">
        <ele>844.79998779297</ele>
        <time>2025-08-08T14:30:41.000Z</time>
      </trkpt>
      <trkpt lat="45.82827" lon="6.33329">
        <ele>845</ele>
        <time>2025-08-08T14:30:45.000Z</time>
      </trkpt>
      <trkpt lat="45.82807" lon="6.3334">
        <ele>845.40002441406</ele>
        <time>2025-08-08T14:30:50.000Z</time>
      </trkpt>
      <trkpt lat="45.82774" lon="6.33358">
        <ele>846.20001220703</ele>
        <time>2025-08-08T14:30:58.000Z</time>
      </trkpt>
      <trkpt lat="45.8277" lon="6.3336">
        <ele>846.20001220703</ele>
        <time>2025-08-08T14:30:59.000Z</time>
      </trkpt>
      <trkpt lat="45.82722" lon="6.33384">
        <ele>847</ele>
        <time>2025-08-08T14:31:10.000Z</time>
      </trkpt>
      <trkpt lat="45.82697" lon="6.33399">
        <ele>847.20001220703</ele>
        <time>2025-08-08T14:31:16.000Z</time>
      </trkpt>
      <trkpt lat="45.82682" lon="6.33406">
        <ele>847.59997558594</ele>
        <time>2025-08-08T14:31:20.000Z</time>
      </trkpt>
      <trkpt lat="45.82662" lon="6.33411">
        <ele>848.40002441406</ele>
        <time>2025-08-08T14:31:25.000Z</time>
      </trkpt>
      <trkpt lat="45.82643" lon="6.33415">
        <ele>849</ele>
        <time>2025-08-08T14:31:30.000Z</time>
      </trkpt>
      <trkpt lat="45.82628" lon="6.33418">
        <ele>849.40002441406</ele>
        <time>2025-08-08T14:31:34.000Z</time>
      </trkpt>
      <trkpt lat="45.8261" lon="6.3342">
        <ele>850</ele>
        <time>2025-08-08T14:31:39.000Z</time>
      </trkpt>
      <trkpt lat="45.82596" lon="6.33422">
        <ele>850.20001220703</ele>
        <time>2025-08-08T14:31:43.000Z</time>
      </trkpt>
      <trkpt lat="45.82581" lon="6.33425">
        <ele>851</ele>
        <time>2025-08-08T14:31:47.000Z</time>
      </trkpt>
      <trkpt lat="45.8257" lon="6.33425">
        <ele>851.40002441406</ele>
        <time>2025-08-08T14:31:50.000Z</time>
      </trkpt>
      <trkpt lat="45.82545" lon="6.33428">
        <ele>852.40002441406</ele>
        <time>2025-08-08T14:31:57.000Z</time>
      </trkpt>
      <trkpt lat="45.82514" lon="6.33427">
        <ele>853.40002441406</ele>
        <time>2025-08-08T14:32:05.000Z</time>
      </trkpt>
      <trkpt lat="45.82506" lon="6.33428">
        <ele>853.79998779297</ele>
        <time>2025-08-08T14:32:07.000Z</time>
      </trkpt>
      <trkpt lat="45.82483" lon="6.33428">
        <ele>854.59997558594</ele>
        <time>2025-08-08T14:32:13.000Z</time>
      </trkpt>
      <trkpt lat="45.82461" lon="6.33426">
        <ele>855.40002441406</ele>
        <time>2025-08-08T14:32:19.000Z</time>
      </trkpt>
      <trkpt lat="45.8244" lon="6.33424">
        <ele>855.79998779297</ele>
        <time>2025-08-08T14:32:25.000Z</time>
      </trkpt>
      <trkpt lat="45.8243" lon="6.33423">
        <ele>855.79998779297</ele>
        <time>2025-08-08T14:32:28.000Z</time>
      </trkpt>
      <trkpt lat="45.82423" lon="6.33421">
        <ele>855.79998779297</ele>
        <time>2025-08-08T14:32:31.000Z</time>
      </trkpt>
      <trkpt lat="45.82422" lon="6.3342">
        <ele>855.79998779297</ele>
        <time>2025-08-08T14:32:32.000Z</time>
      </trkpt>
      <trkpt lat="45.82421" lon="6.33418">
        <ele>855.79998779297</ele>
        <time>2025-08-08T14:32:33.000Z</time>
      </trkpt>
      <trkpt lat="45.82422" lon="6.33417">
        <ele>855.79998779297</ele>
        <time>2025-08-08T14:32:35.000Z</time>
      </trkpt>
      <trkpt lat="45.82422" lon="6.33417">
        <ele>855.79998779297</ele>
        <time>2025-08-08T14:32:38.000Z</time>
      </trkpt>
      <trkpt lat="45.82417" lon="6.33417">
        <ele>855.40002441406</ele>
        <time>2025-08-08T14:37:55.000Z</time>
      </trkpt>
      <trkpt lat="45.82415" lon="6.33418">
        <ele>855.20001220703</ele>
        <time>2025-08-08T14:37:56.000Z</time>
      </trkpt>
      <trkpt lat="45.82402" lon="6.33419">
        <ele>854.79998779297</ele>
        <time>2025-08-08T14:38:00.000Z</time>
      </trkpt>
      <trkpt lat="45.82375" lon="6.33417">
        <ele>854.40002441406</ele>
        <time>2025-08-08T14:38:06.000Z</time>
      </trkpt>
      <trkpt lat="45.82335" lon="6.33413">
        <ele>853.20001220703</ele>
        <time>2025-08-08T14:38:13.000Z</time>
      </trkpt>
      <trkpt lat="45.82303" lon="6.3341">
        <ele>852.59997558594</ele>
        <time>2025-08-08T14:38:18.000Z</time>
      </trkpt>
      <trkpt lat="45.82295" lon="6.33409">
        <ele>852.20001220703</ele>
        <time>2025-08-08T14:38:19.000Z</time>
      </trkpt>
      <trkpt lat="45.82288" lon="6.33411">
        <ele>852.20001220703</ele>
        <time>2025-08-08T14:38:20.000Z</time>
      </trkpt>
      <trkpt lat="45.82265" lon="6.33421">
        <ele>851.79998779297</ele>
        <time>2025-08-08T14:38:23.000Z</time>
      </trkpt>
      <trkpt lat="45.8225" lon="6.3343">
        <ele>851</ele>
        <time>2025-08-08T14:38:25.000Z</time>
      </trkpt>
      <trkpt lat="45.82228" lon="6.33445">
        <ele>849.79998779297</ele>
        <time>2025-08-08T14:38:28.000Z</time>
      </trkpt>
      <trkpt lat="45.82213" lon="6.33456">
        <ele>849</ele>
        <time>2025-08-08T14:38:30.000Z</time>
      </trkpt>
      <trkpt lat="45.82205" lon="6.33462">
        <ele>848.59997558594</ele>
        <time>2025-08-08T14:38:31.000Z</time>
      </trkpt>
      <trkpt lat="45.82172" lon="6.33484">
        <ele>847.40002441406</ele>
        <time>2025-08-08T14:38:35.000Z</time>
      </trkpt>
      <trkpt lat="45.82156" lon="6.33496">
        <ele>847</ele>
        <time>2025-08-08T14:38:37.000Z</time>
      </trkpt>
      <trkpt lat="45.8214" lon="6.33506">
        <ele>846.40002441406</ele>
        <time>2025-08-08T14:38:39.000Z</time>
      </trkpt>
      <trkpt lat="45.82113" lon="6.33516">
        <ele>845.20001220703</ele>
        <time>2025-08-08T14:38:42.000Z</time>
      </trkpt>
      <trkpt lat="45.82104" lon="6.33517">
        <ele>845</ele>
        <time>2025-08-08T14:38:43.000Z</time>
      </trkpt>
      <trkpt lat="45.82074" lon="6.33514">
        <ele>843.79998779297</ele>
        <time>2025-08-08T14:38:46.000Z</time>
      </trkpt>
      <trkpt lat="45.82054" lon="6.33508">
        <ele>842.79998779297</ele>
        <time>2025-08-08T14:38:48.000Z</time>
      </trkpt>
      <trkpt lat="45.82033" lon="6.33503">
        <ele>841.59997558594</ele>
        <time>2025-08-08T14:38:50.000Z</time>
      </trkpt>
      <trkpt lat="45.82001" lon="6.33495">
        <ele>840</ele>
        <time>2025-08-08T14:38:53.000Z</time>
      </trkpt>
      <trkpt lat="45.81979" lon="6.33489">
        <ele>838.79998779297</ele>
        <time>2025-08-08T14:38:55.000Z</time>
      </trkpt>
      <trkpt lat="45.81958" lon="6.33484">
        <ele>837.79998779297</ele>
        <time>2025-08-08T14:38:57.000Z</time>
      </trkpt>
      <trkpt lat="45.81938" lon="6.3348">
        <ele>836.59997558594</ele>
        <time>2025-08-08T14:38:59.000Z</time>
      </trkpt>
      <trkpt lat="45.81918" lon="6.33475">
        <ele>835.40002441406</ele>
        <time>2025-08-08T14:39:01.000Z</time>
      </trkpt>
      <trkpt lat="45.81908" lon="6.33472">
        <ele>834.79998779297</ele>
        <time>2025-08-08T14:39:02.000Z</time>
      </trkpt>
      <trkpt lat="45.81889" lon="6.33467">
        <ele>834.20001220703</ele>
        <time>2025-08-08T14:39:04.000Z</time>
      </trkpt>
      <trkpt lat="45.8186" lon="6.3346">
        <ele>833</ele>
        <time>2025-08-08T14:39:07.000Z</time>
      </trkpt>
      <trkpt lat="45.81841" lon="6.33458">
        <ele>832.59997558594</ele>
        <time>2025-08-08T14:39:09.000Z</time>
      </trkpt>
      <trkpt lat="45.81805" lon="6.3346">
        <ele>831.79998779297</ele>
        <time>2025-08-08T14:39:13.000Z</time>
      </trkpt>
      <trkpt lat="45.81788" lon="6.33464">
        <ele>831.59997558594</ele>
        <time>2025-08-08T14:39:15.000Z</time>
      </trkpt>
      <trkpt lat="45.81747" lon="6.33476">
        <ele>830.79998779297</ele>
        <time>2025-08-08T14:39:20.000Z</time>
      </trkpt>
      <trkpt lat="45.81723" lon="6.33483">
        <ele>830.59997558594</ele>
        <time>2025-08-08T14:39:23.000Z</time>
      </trkpt>
      <trkpt lat="45.81663" lon="6.33501">
        <ele>830.20001220703</ele>
        <time>2025-08-08T14:39:31.000Z</time>
      </trkpt>
      <trkpt lat="45.81656" lon="6.33504">
        <ele>830</ele>
        <time>2025-08-08T14:39:32.000Z</time>
      </trkpt>
      <trkpt lat="45.81629" lon="6.33512">
        <ele>829.59997558594</ele>
        <time>2025-08-08T14:39:36.000Z</time>
      </trkpt>
      <trkpt lat="45.81595" lon="6.33523">
        <ele>829</ele>
        <time>2025-08-08T14:39:41.000Z</time>
      </trkpt>
      <trkpt lat="45.81553" lon="6.33537">
        <ele>828.59997558594</ele>
        <time>2025-08-08T14:39:47.000Z</time>
      </trkpt>
      <trkpt lat="45.81525" lon="6.33543">
        <ele>828.20001220703</ele>
        <time>2025-08-08T14:39:51.000Z</time>
      </trkpt>
      <trkpt lat="45.81482" lon="6.33544">
        <ele>827.59997558594</ele>
        <time>2025-08-08T14:39:57.000Z</time>
      </trkpt>
      <trkpt lat="45.81475" lon="6.33544">
        <ele>827.59997558594</ele>
        <time>2025-08-08T14:39:58.000Z</time>
      </trkpt>
      <trkpt lat="45.81428" lon="6.33543">
        <ele>827.20001220703</ele>
        <time>2025-08-08T14:40:05.000Z</time>
      </trkpt>
      <trkpt lat="45.8138" lon="6.33554">
        <ele>826.79998779297</ele>
        <time>2025-08-08T14:40:12.000Z</time>
      </trkpt>
      <trkpt lat="45.81365" lon="6.33559">
        <ele>826.40002441406</ele>
        <time>2025-08-08T14:40:14.000Z</time>
      </trkpt>
      <trkpt lat="45.81331" lon="6.33569">
        <ele>825.40002441406</ele>
        <time>2025-08-08T14:40:18.000Z</time>
      </trkpt>
      <trkpt lat="45.81304" lon="6.33577">
        <ele>823.79998779297</ele>
        <time>2025-08-08T14:40:21.000Z</time>
      </trkpt>
      <trkpt lat="45.81276" lon="6.33586">
        <ele>822.40002441406</ele>
        <time>2025-08-08T14:40:24.000Z</time>
      </trkpt>
      <trkpt lat="45.81266" lon="6.33589">
        <ele>821.59997558594</ele>
        <time>2025-08-08T14:40:25.000Z</time>
      </trkpt>
      <trkpt lat="45.81256" lon="6.33592">
        <ele>821</ele>
        <time>2025-08-08T14:40:26.000Z</time>
      </trkpt>
      <trkpt lat="45.81227" lon="6.336">
        <ele>819.79998779297</ele>
        <time>2025-08-08T14:40:29.000Z</time>
      </trkpt>
      <trkpt lat="45.81197" lon="6.33609">
        <ele>818</ele>
        <time>2025-08-08T14:40:32.000Z</time>
      </trkpt>
      <trkpt lat="45.81176" lon="6.33616">
        <ele>816.79998779297</ele>
        <time>2025-08-08T14:40:34.000Z</time>
      </trkpt>
      <trkpt lat="45.81155" lon="6.33622">
        <ele>815.59997558594</ele>
        <time>2025-08-08T14:40:36.000Z</time>
      </trkpt>
      <trkpt lat="45.81124" lon="6.33633">
        <ele>813.59997558594</ele>
        <time>2025-08-08T14:40:39.000Z</time>
      </trkpt>
      <trkpt lat="45.81114" lon="6.33638">
        <ele>813.40002441406</ele>
        <time>2025-08-08T14:40:40.000Z</time>
      </trkpt>
      <trkpt lat="45.81105" lon="6.33645">
        <ele>812.59997558594</ele>
        <time>2025-08-08T14:40:41.000Z</time>
      </trkpt>
      <trkpt lat="45.81096" lon="6.33654">
        <ele>812.40002441406</ele>
        <time>2025-08-08T14:40:42.000Z</time>
      </trkpt>
      <trkpt lat="45.81088" lon="6.33664">
        <ele>811.20001220703</ele>
        <time>2025-08-08T14:40:43.000Z</time>
      </trkpt>
      <trkpt lat="45.81071" lon="6.33685">
        <ele>810</ele>
        <time>2025-08-08T14:40:45.000Z</time>
      </trkpt>
      <trkpt lat="45.81055" lon="6.33707">
        <ele>809</ele>
        <time>2025-08-08T14:40:47.000Z</time>
      </trkpt>
      <trkpt lat="45.81038" lon="6.33727">
        <ele>807.79998779297</ele>
        <time>2025-08-08T14:40:49.000Z</time>
      </trkpt>
      <trkpt lat="45.81022" lon="6.33747">
        <ele>806.79998779297</ele>
        <time>2025-08-08T14:40:51.000Z</time>
      </trkpt>
      <trkpt lat="45.81007" lon="6.33767">
        <ele>805.40002441406</ele>
        <time>2025-08-08T14:40:53.000Z</time>
      </trkpt>
      <trkpt lat="45.80999" lon="6.33777">
        <ele>805</ele>
        <time>2025-08-08T14:40:54.000Z</time>
      </trkpt>
      <trkpt lat="45.80989" lon="6.33785">
        <ele>804.40002441406</ele>
        <time>2025-08-08T14:40:55.000Z</time>
      </trkpt>
      <trkpt lat="45.8097" lon="6.33797">
        <ele>803.59997558594</ele>
        <time>2025-08-08T14:40:57.000Z</time>
      </trkpt>
      <trkpt lat="45.8096" lon="6.33801">
        <ele>803</ele>
        <time>2025-08-08T14:40:58.000Z</time>
      </trkpt>
      <trkpt lat="45.8094" lon="6.33809">
        <ele>801.79998779297</ele>
        <time>2025-08-08T14:41:00.000Z</time>
      </trkpt>
      <trkpt lat="45.80921" lon="6.33817">
        <ele>800.59997558594</ele>
        <time>2025-08-08T14:41:02.000Z</time>
      </trkpt>
      <trkpt lat="45.80902" lon="6.33825">
        <ele>799.79998779297</ele>
        <time>2025-08-08T14:41:04.000Z</time>
      </trkpt>
      <trkpt lat="45.80893" lon="6.33829">
        <ele>799.59997558594</ele>
        <time>2025-08-08T14:41:05.000Z</time>
      </trkpt>
      <trkpt lat="45.80858" lon="6.33844">
        <ele>798.59997558594</ele>
        <time>2025-08-08T14:41:09.000Z</time>
      </trkpt>
      <trkpt lat="45.80841" lon="6.3385">
        <ele>797.79998779297</ele>
        <time>2025-08-08T14:41:11.000Z</time>
      </trkpt>
      <trkpt lat="45.80832" lon="6.33854">
        <ele>797.59997558594</ele>
        <time>2025-08-08T14:41:12.000Z</time>
      </trkpt>
      <trkpt lat="45.80798" lon="6.33868">
        <ele>796.40002441406</ele>
        <time>2025-08-08T14:41:16.000Z</time>
      </trkpt>
      <trkpt lat="45.80761" lon="6.33879">
        <ele>795</ele>
        <time>2025-08-08T14:41:20.000Z</time>
      </trkpt>
      <trkpt lat="45.80751" lon="6.33881">
        <ele>794.59997558594</ele>
        <time>2025-08-08T14:41:21.000Z</time>
      </trkpt>
      <trkpt lat="45.80742" lon="6.33884">
        <ele>794</ele>
        <time>2025-08-08T14:41:22.000Z</time>
      </trkpt>
      <trkpt lat="45.80704" lon="6.33897">
        <ele>792.40002441406</ele>
        <time>2025-08-08T14:41:26.000Z</time>
      </trkpt>
      <trkpt lat="45.80696" lon="6.33903">
        <ele>792</ele>
        <time>2025-08-08T14:41:27.000Z</time>
      </trkpt>
      <trkpt lat="45.80686" lon="6.33913">
        <ele>791.79998779297</ele>
        <time>2025-08-08T14:41:28.000Z</time>
      </trkpt>
      <trkpt lat="45.80679" lon="6.3392">
        <ele>791.20001220703</ele>
        <time>2025-08-08T14:41:29.000Z</time>
      </trkpt>
      <trkpt lat="45.80664" lon="6.3394">
        <ele>790.59997558594</ele>
        <time>2025-08-08T14:41:31.000Z</time>
      </trkpt>
      <trkpt lat="45.80649" lon="6.33961">
        <ele>789.79998779297</ele>
        <time>2025-08-08T14:41:33.000Z</time>
      </trkpt>
      <trkpt lat="45.80632" lon="6.3398">
        <ele>788.59997558594</ele>
        <time>2025-08-08T14:41:35.000Z</time>
      </trkpt>
      <trkpt lat="45.80622" lon="6.33988">
        <ele>788</ele>
        <time>2025-08-08T14:41:36.000Z</time>
      </trkpt>
      <trkpt lat="45.80612" lon="6.33994">
        <ele>787.59997558594</ele>
        <time>2025-08-08T14:41:37.000Z</time>
      </trkpt>
      <trkpt lat="45.80601" lon="6.33997">
        <ele>786.79998779297</ele>
        <time>2025-08-08T14:41:38.000Z</time>
      </trkpt>
      <trkpt lat="45.8059" lon="6.33999">
        <ele>786.59997558594</ele>
        <time>2025-08-08T14:41:39.000Z</time>
      </trkpt>
      <trkpt lat="45.80579" lon="6.34">
        <ele>785.59997558594</ele>
        <time>2025-08-08T14:41:40.000Z</time>
      </trkpt>
      <trkpt lat="45.80557" lon="6.34002">
        <ele>784.20001220703</ele>
        <time>2025-08-08T14:41:42.000Z</time>
      </trkpt>
      <trkpt lat="45.80535" lon="6.34004">
        <ele>783</ele>
        <time>2025-08-08T14:41:44.000Z</time>
      </trkpt>
      <trkpt lat="45.80515" lon="6.34006">
        <ele>782</ele>
        <time>2025-08-08T14:41:46.000Z</time>
      </trkpt>
      <trkpt lat="45.80495" lon="6.34008">
        <ele>780.59997558594</ele>
        <time>2025-08-08T14:41:48.000Z</time>
      </trkpt>
      <trkpt lat="45.80467" lon="6.3401">
        <ele>779.40002441406</ele>
        <time>2025-08-08T14:41:51.000Z</time>
      </trkpt>
      <trkpt lat="45.80431" lon="6.34013">
        <ele>778.59997558594</ele>
        <time>2025-08-08T14:41:55.000Z</time>
      </trkpt>
      <trkpt lat="45.80417" lon="6.34015">
        <ele>778.40002441406</ele>
        <time>2025-08-08T14:41:57.000Z</time>
      </trkpt>
      <trkpt lat="45.80403" lon="6.34024">
        <ele>778</ele>
        <time>2025-08-08T14:41:59.000Z</time>
      </trkpt>
      <trkpt lat="45.80394" lon="6.34041">
        <ele>777.79998779297</ele>
        <time>2025-08-08T14:42:01.000Z</time>
      </trkpt>
      <trkpt lat="45.80392" lon="6.34052">
        <ele>777.79998779297</ele>
        <time>2025-08-08T14:42:02.000Z</time>
      </trkpt>
      <trkpt lat="45.80392" lon="6.34063">
        <ele>777.59997558594</ele>
        <time>2025-08-08T14:42:03.000Z</time>
      </trkpt>
      <trkpt lat="45.80395" lon="6.34084">
        <ele>777.59997558594</ele>
        <time>2025-08-08T14:42:05.000Z</time>
      </trkpt>
      <trkpt lat="45.80404" lon="6.34115">
        <ele>777.59997558594</ele>
        <time>2025-08-08T14:42:08.000Z</time>
      </trkpt>
      <trkpt lat="45.80405" lon="6.34125">
        <ele>777.59997558594</ele>
        <time>2025-08-08T14:42:09.000Z</time>
      </trkpt>
      <trkpt lat="45.80404" lon="6.34138">
        <ele>777.59997558594</ele>
        <time>2025-08-08T14:42:10.000Z</time>
      </trkpt>
      <trkpt lat="45.80399" lon="6.34154">
        <ele>777.79998779297</ele>
        <time>2025-08-08T14:42:12.000Z</time>
      </trkpt>
      <trkpt lat="45.80389" lon="6.34163">
        <ele>777.79998779297</ele>
        <time>2025-08-08T14:42:14.000Z</time>
      </trkpt>
      <trkpt lat="45.80376" lon="6.34164">
        <ele>777.79998779297</ele>
        <time>2025-08-08T14:42:16.000Z</time>
      </trkpt>
      <trkpt lat="45.8037" lon="6.34163">
        <ele>777.79998779297</ele>
        <time>2025-08-08T14:42:17.000Z</time>
      </trkpt>
      <trkpt lat="45.80365" lon="6.34159">
        <ele>777.79998779297</ele>
        <time>2025-08-08T14:42:18.000Z</time>
      </trkpt>
      <trkpt lat="45.80355" lon="6.34149">
        <ele>778.20001220703</ele>
        <time>2025-08-08T14:42:20.000Z</time>
      </trkpt>
      <trkpt lat="45.80319" lon="6.34114">
        <ele>778.59997558594</ele>
        <time>2025-08-08T14:42:27.000Z</time>
      </trkpt>
      <trkpt lat="45.80298" lon="6.34092">
        <ele>778.59997558594</ele>
        <time>2025-08-08T14:42:31.000Z</time>
      </trkpt>
      <trkpt lat="45.80294" lon="6.34085">
        <ele>778.59997558594</ele>
        <time>2025-08-08T14:42:32.000Z</time>
      </trkpt>
      <trkpt lat="45.80292" lon="6.34076">
        <ele>778.59997558594</ele>
        <time>2025-08-08T14:42:33.000Z</time>
      </trkpt>
      <trkpt lat="45.8029" lon="6.34059">
        <ele>778.40002441406</ele>
        <time>2025-08-08T14:42:35.000Z</time>
      </trkpt>
      <trkpt lat="45.80289" lon="6.3405">
        <ele>778.20001220703</ele>
        <time>2025-08-08T14:42:36.000Z</time>
      </trkpt>
      <trkpt lat="45.80285" lon="6.34037">
        <ele>778.20001220703</ele>
        <time>2025-08-08T14:42:38.000Z</time>
      </trkpt>
      <trkpt lat="45.80278" lon="6.34027">
        <ele>778</ele>
        <time>2025-08-08T14:42:40.000Z</time>
      </trkpt>
      <trkpt lat="45.80274" lon="6.34025">
        <ele>778</ele>
        <time>2025-08-08T14:42:41.000Z</time>
      </trkpt>
      <trkpt lat="45.80261" lon="6.34023">
        <ele>777.79998779297</ele>
        <time>2025-08-08T14:42:46.000Z</time>
      </trkpt>
      <trkpt lat="45.80261" lon="6.34023">
        <ele>777.40002441406</ele>
        <time>2025-08-08T14:42:48.000Z</time>
      </trkpt>
      <trkpt lat="45.80252" lon="6.34027">
        <ele>776.59997558594</ele>
        <time>2025-08-08T14:47:24.000Z</time>
      </trkpt>
      <trkpt lat="45.80248" lon="6.34029">
        <ele>776.40002441406</ele>
        <time>2025-08-08T14:47:25.000Z</time>
      </trkpt>
      <trkpt lat="45.80223" lon="6.34046">
        <ele>776.20001220703</ele>
        <time>2025-08-08T14:47:30.000Z</time>
      </trkpt>
      <trkpt lat="45.802" lon="6.34049">
        <ele>776.20001220703</ele>
        <time>2025-08-08T14:47:33.000Z</time>
      </trkpt>
      <trkpt lat="45.80195" lon="6.34048">
        <ele>776</ele>
        <time>2025-08-08T14:47:34.000Z</time>
      </trkpt>
      <trkpt lat="45.80189" lon="6.34045">
        <ele>775.79998779297</ele>
        <time>2025-08-08T14:47:35.000Z</time>
      </trkpt>
      <trkpt lat="45.80182" lon="6.34043">
        <ele>775.40002441406</ele>
        <time>2025-08-08T14:47:36.000Z</time>
      </trkpt>
      <trkpt lat="45.80162" lon="6.34035">
        <ele>774.40002441406</ele>
        <time>2025-08-08T14:47:39.000Z</time>
      </trkpt>
      <trkpt lat="45.80155" lon="6.34033">
        <ele>773.79998779297</ele>
        <time>2025-08-08T14:47:40.000Z</time>
      </trkpt>
      <trkpt lat="45.80117" lon="6.34019">
        <ele>772.59997558594</ele>
        <time>2025-08-08T14:47:45.000Z</time>
      </trkpt>
      <trkpt lat="45.80109" lon="6.34016">
        <ele>772.40002441406</ele>
        <time>2025-08-08T14:47:46.000Z</time>
      </trkpt>
      <trkpt lat="45.80086" lon="6.34007">
        <ele>771.59997558594</ele>
        <time>2025-08-08T14:47:49.000Z</time>
      </trkpt>
      <trkpt lat="45.80055" lon="6.3399">
        <ele>770.20001220703</ele>
        <time>2025-08-08T14:47:53.000Z</time>
      </trkpt>
      <trkpt lat="45.8003" lon="6.33975">
        <ele>768.79998779297</ele>
        <time>2025-08-08T14:47:56.000Z</time>
      </trkpt>
      <trkpt lat="45.80012" lon="6.33963">
        <ele>768</ele>
        <time>2025-08-08T14:47:58.000Z</time>
      </trkpt>
      <trkpt lat="45.80005" lon="6.3396">
        <ele>768</ele>
        <time>2025-08-08T14:47:59.000Z</time>
      </trkpt>
      <trkpt lat="45.79996" lon="6.33959">
        <ele>767.59997558594</ele>
        <time>2025-08-08T14:48:00.000Z</time>
      </trkpt>
      <trkpt lat="45.79968" lon="6.33961">
        <ele>766.59997558594</ele>
        <time>2025-08-08T14:48:03.000Z</time>
      </trkpt>
      <trkpt lat="45.7996" lon="6.33963">
        <ele>766.40002441406</ele>
        <time>2025-08-08T14:48:04.000Z</time>
      </trkpt>
      <trkpt lat="45.79944" lon="6.33976">
        <ele>765.59997558594</ele>
        <time>2025-08-08T14:48:06.000Z</time>
      </trkpt>
      <trkpt lat="45.79938" lon="6.33985">
        <ele>765</ele>
        <time>2025-08-08T14:48:07.000Z</time>
      </trkpt>
      <trkpt lat="45.79932" lon="6.3399">
        <ele>764.79998779297</ele>
        <time>2025-08-08T14:48:08.000Z</time>
      </trkpt>
      <trkpt lat="45.79923" lon="6.33994">
        <ele>764.20001220703</ele>
        <time>2025-08-08T14:48:09.000Z</time>
      </trkpt>
      <trkpt lat="45.79914" lon="6.33994">
        <ele>763.79998779297</ele>
        <time>2025-08-08T14:48:10.000Z</time>
      </trkpt>
      <trkpt lat="45.79896" lon="6.3399">
        <ele>762.59997558594</ele>
        <time>2025-08-08T14:48:12.000Z</time>
      </trkpt>
      <trkpt lat="45.79887" lon="6.33989">
        <ele>762.40002441406</ele>
        <time>2025-08-08T14:48:13.000Z</time>
      </trkpt>
      <trkpt lat="45.79872" lon="6.33986">
        <ele>761.40002441406</ele>
        <time>2025-08-08T14:48:15.000Z</time>
      </trkpt>
      <trkpt lat="45.79863" lon="6.33971">
        <ele>760.40002441406</ele>
        <time>2025-08-08T14:48:17.000Z</time>
      </trkpt>
      <trkpt lat="45.79866" lon="6.33952">
        <ele>759.59997558594</ele>
        <time>2025-08-08T14:48:19.000Z</time>
      </trkpt>
      <trkpt lat="45.79871" lon="6.33945">
        <ele>758.79998779297</ele>
        <time>2025-08-08T14:48:20.000Z</time>
      </trkpt>
      <trkpt lat="45.79878" lon="6.33941">
        <ele>758.20001220703</ele>
        <time>2025-08-08T14:48:21.000Z</time>
      </trkpt>
      <trkpt lat="45.79895" lon="6.33943">
        <ele>757.59997558594</ele>
        <time>2025-08-08T14:48:23.000Z</time>
      </trkpt>
      <trkpt lat="45.79914" lon="6.33948">
        <ele>756.40002441406</ele>
        <time>2025-08-08T14:48:25.000Z</time>
      </trkpt>
      <trkpt lat="45.79935" lon="6.33944">
        <ele>755.40002441406</ele>
        <time>2025-08-08T14:48:27.000Z</time>
      </trkpt>
      <trkpt lat="45.79952" lon="6.33937">
        <ele>754.40002441406</ele>
        <time>2025-08-08T14:48:29.000Z</time>
      </trkpt>
      <trkpt lat="45.79981" lon="6.33921">
        <ele>753</ele>
        <time>2025-08-08T14:48:32.000Z</time>
      </trkpt>
      <trkpt lat="45.79991" lon="6.33917">
        <ele>752.59997558594</ele>
        <time>2025-08-08T14:48:33.000Z</time>
      </trkpt>
      <trkpt lat="45.80012" lon="6.33917">
        <ele>751.59997558594</ele>
        <time>2025-08-08T14:48:35.000Z</time>
      </trkpt>
      <trkpt lat="45.80033" lon="6.33917">
        <ele>750.40002441406</ele>
        <time>2025-08-08T14:48:37.000Z</time>
      </trkpt>
      <trkpt lat="45.80044" lon="6.33916">
        <ele>749.20001220703</ele>
        <time>2025-08-08T14:48:38.000Z</time>
      </trkpt>
      <trkpt lat="45.80055" lon="6.33912">
        <ele>748.40002441406</ele>
        <time>2025-08-08T14:48:39.000Z</time>
      </trkpt>
      <trkpt lat="45.80077" lon="6.33905">
        <ele>747.59997558594</ele>
        <time>2025-08-08T14:48:41.000Z</time>
      </trkpt>
      <trkpt lat="45.80099" lon="6.33893">
        <ele>746.59997558594</ele>
        <time>2025-08-08T14:48:43.000Z</time>
      </trkpt>
      <trkpt lat="45.80116" lon="6.33871">
        <ele>745.59997558594</ele>
        <time>2025-08-08T14:48:45.000Z</time>
      </trkpt>
      <trkpt lat="45.80123" lon="6.3386">
        <ele>745.40002441406</ele>
        <time>2025-08-08T14:48:46.000Z</time>
      </trkpt>
      <trkpt lat="45.80131" lon="6.33849">
        <ele>744.79998779297</ele>
        <time>2025-08-08T14:48:47.000Z</time>
      </trkpt>
      <trkpt lat="45.8014" lon="6.33839">
        <ele>744.20001220703</ele>
        <time>2025-08-08T14:48:48.000Z</time>
      </trkpt>
      <trkpt lat="45.80149" lon="6.33834">
        <ele>743.79998779297</ele>
        <time>2025-08-08T14:48:49.000Z</time>
      </trkpt>
      <trkpt lat="45.80159" lon="6.33832">
        <ele>743</ele>
        <time>2025-08-08T14:48:50.000Z</time>
      </trkpt>
      <trkpt lat="45.8017" lon="6.33831">
        <ele>742.40002441406</ele>
        <time>2025-08-08T14:48:51.000Z</time>
      </trkpt>
      <trkpt lat="45.80181" lon="6.33831">
        <ele>741.20001220703</ele>
        <time>2025-08-08T14:48:52.000Z</time>
      </trkpt>
      <trkpt lat="45.80191" lon="6.33828">
        <ele>740.79998779297</ele>
        <time>2025-08-08T14:48:53.000Z</time>
      </trkpt>
      <trkpt lat="45.80201" lon="6.33823">
        <ele>740</ele>
        <time>2025-08-08T14:48:54.000Z</time>
      </trkpt>
      <trkpt lat="45.80209" lon="6.33814">
        <ele>739.59997558594</ele>
        <time>2025-08-08T14:48:55.000Z</time>
      </trkpt>
      <trkpt lat="45.80214" lon="6.33802">
        <ele>739</ele>
        <time>2025-08-08T14:48:56.000Z</time>
      </trkpt>
      <trkpt lat="45.80216" lon="6.33788">
        <ele>737.59997558594</ele>
        <time>2025-08-08T14:48:57.000Z</time>
      </trkpt>
      <trkpt lat="45.80211" lon="6.3376">
        <ele>735.79998779297</ele>
        <time>2025-08-08T14:48:59.000Z</time>
      </trkpt>
      <trkpt lat="45.80197" lon="6.3374">
        <ele>734.79998779297</ele>
        <time>2025-08-08T14:49:01.000Z</time>
      </trkpt>
      <trkpt lat="45.8018" lon="6.33732">
        <ele>733.59997558594</ele>
        <time>2025-08-08T14:49:03.000Z</time>
      </trkpt>
      <trkpt lat="45.80171" lon="6.3373">
        <ele>733.40002441406</ele>
        <time>2025-08-08T14:49:04.000Z</time>
      </trkpt>
      <trkpt lat="45.80149" lon="6.33724">
        <ele>733.40002441406</ele>
        <time>2025-08-08T14:49:07.000Z</time>
      </trkpt>
      <trkpt lat="45.80139" lon="6.33721">
        <ele>733.40002441406</ele>
        <time>2025-08-08T14:49:09.000Z</time>
      </trkpt>
      <trkpt lat="45.80129" lon="6.33718">
        <ele>733.79998779297</ele>
        <time>2025-08-08T14:49:11.000Z</time>
      </trkpt>
      <trkpt lat="45.80119" lon="6.33716">
        <ele>734.20001220703</ele>
        <time>2025-08-08T14:49:13.000Z</time>
      </trkpt>
      <trkpt lat="45.80114" lon="6.33715">
        <ele>734.79998779297</ele>
        <time>2025-08-08T14:49:14.000Z</time>
      </trkpt>
      <trkpt lat="45.80109" lon="6.33715">
        <ele>735</ele>
        <time>2025-08-08T14:49:15.000Z</time>
      </trkpt>
      <trkpt lat="45.80104" lon="6.33714">
        <ele>735.20001220703</ele>
        <time>2025-08-08T14:49:16.000Z</time>
      </trkpt>
      <trkpt lat="45.80095" lon="6.33712">
        <ele>735.40002441406</ele>
        <time>2025-08-08T14:49:18.000Z</time>
      </trkpt>
      <trkpt lat="45.80084" lon="6.3371">
        <ele>735.59997558594</ele>
        <time>2025-08-08T14:49:20.000Z</time>
      </trkpt>
      <trkpt lat="45.8008" lon="6.3371">
        <ele>735.79998779297</ele>
        <time>2025-08-08T14:49:21.000Z</time>
      </trkpt>
      <trkpt lat="45.80075" lon="6.3371">
        <ele>735.79998779297</ele>
        <time>2025-08-08T14:49:22.000Z</time>
      </trkpt>
      <trkpt lat="45.80058" lon="6.33714">
        <ele>736.20001220703</ele>
        <time>2025-08-08T14:49:25.000Z</time>
      </trkpt>
      <trkpt lat="45.80054" lon="6.33714">
        <ele>736.59997558594</ele>
        <time>2025-08-08T14:49:26.000Z</time>
      </trkpt>
      <trkpt lat="45.80045" lon="6.33714">
        <ele>736.79998779297</ele>
        <time>2025-08-08T14:49:28.000Z</time>
      </trkpt>
      <trkpt lat="45.80032" lon="6.33716">
        <ele>737</ele>
        <time>2025-08-08T14:49:31.000Z</time>
      </trkpt>
      <trkpt lat="45.79995" lon="6.3371">
        <ele>737</ele>
        <time>2025-08-08T14:49:38.000Z</time>
      </trkpt>
      <trkpt lat="45.79962" lon="6.33705">
        <ele>737</ele>
        <time>2025-08-08T14:49:44.000Z</time>
      </trkpt>
      <trkpt lat="45.79954" lon="6.33706">
        <ele>737</ele>
        <time>2025-08-08T14:49:46.000Z</time>
      </trkpt>
      <trkpt lat="45.79942" lon="6.33711">
        <ele>737.40002441406</ele>
        <time>2025-08-08T14:49:49.000Z</time>
      </trkpt>
      <trkpt lat="45.79935" lon="6.33715">
        <ele>738</ele>
        <time>2025-08-08T14:49:51.000Z</time>
      </trkpt>
      <trkpt lat="45.79921" lon="6.33723">
        <ele>739</ele>
        <time>2025-08-08T14:49:55.000Z</time>
      </trkpt>
      <trkpt lat="45.79914" lon="6.33726">
        <ele>739.20001220703</ele>
        <time>2025-08-08T14:49:57.000Z</time>
      </trkpt>
      <trkpt lat="45.79904" lon="6.33727">
        <ele>739.59997558594</ele>
        <time>2025-08-08T14:50:00.000Z</time>
      </trkpt>
      <trkpt lat="45.799" lon="6.33729">
        <ele>739.59997558594</ele>
        <time>2025-08-08T14:50:01.000Z</time>
      </trkpt>
      <trkpt lat="45.79888" lon="6.33732">
        <ele>740.40002441406</ele>
        <time>2025-08-08T14:50:04.000Z</time>
      </trkpt>
      <trkpt lat="45.7987" lon="6.3373">
        <ele>741.40002441406</ele>
        <time>2025-08-08T14:50:10.000Z</time>
      </trkpt>
      <trkpt lat="45.79867" lon="6.3373">
        <ele>741.59997558594</ele>
        <time>2025-08-08T14:50:11.000Z</time>
      </trkpt>
      <trkpt lat="45.79842" lon="6.33726">
        <ele>742.20001220703</ele>
        <time>2025-08-08T14:50:19.000Z</time>
      </trkpt>
      <trkpt lat="45.79829" lon="6.33723">
        <ele>742.79998779297</ele>
        <time>2025-08-08T14:50:23.000Z</time>
      </trkpt>
      <trkpt lat="45.79819" lon="6.33717">
        <ele>743.20001220703</ele>
        <time>2025-08-08T14:50:27.000Z</time>
      </trkpt>
      <trkpt lat="45.79809" lon="6.33708">
        <ele>743.79998779297</ele>
        <time>2025-08-08T14:50:31.000Z</time>
      </trkpt>
      <trkpt lat="45.79804" lon="6.33702">
        <ele>744.20001220703</ele>
        <time>2025-08-08T14:50:33.000Z</time>
      </trkpt>
      <trkpt lat="45.79798" lon="6.33691">
        <ele>744.79998779297</ele>
        <time>2025-08-08T14:50:36.000Z</time>
      </trkpt>
      <trkpt lat="45.79787" lon="6.33667">
        <ele>745.79998779297</ele>
        <time>2025-08-08T14:50:42.000Z</time>
      </trkpt>
      <trkpt lat="45.79786" lon="6.33664">
        <ele>746</ele>
        <time>2025-08-08T14:50:43.000Z</time>
      </trkpt>
      <trkpt lat="45.79774" lon="6.3365">
        <ele>747.20001220703</ele>
        <time>2025-08-08T14:50:49.000Z</time>
      </trkpt>
      <trkpt lat="45.79772" lon="6.33649">
        <ele>747.40002441406</ele>
        <time>2025-08-08T14:50:50.000Z</time>
      </trkpt>
      <trkpt lat="45.79762" lon="6.33645">
        <ele>748.20001220703</ele>
        <time>2025-08-08T14:50:54.000Z</time>
      </trkpt>
      <trkpt lat="45.79756" lon="6.33645">
        <ele>748.59997558594</ele>
        <time>2025-08-08T14:50:56.000Z</time>
      </trkpt>
      <trkpt lat="45.79745" lon="6.33647">
        <ele>749.59997558594</ele>
        <time>2025-08-08T14:51:00.000Z</time>
      </trkpt>
      <trkpt lat="45.79736" lon="6.3365">
        <ele>750.20001220703</ele>
        <time>2025-08-08T14:51:03.000Z</time>
      </trkpt>
      <trkpt lat="45.79724" lon="6.3365">
        <ele>750.59997558594</ele>
        <time>2025-08-08T14:51:07.000Z</time>
      </trkpt>
      <trkpt lat="45.79715" lon="6.3365">
        <ele>750.79998779297</ele>
        <time>2025-08-08T14:51:10.000Z</time>
      </trkpt>
      <trkpt lat="45.79697" lon="6.33641">
        <ele>751.59997558594</ele>
        <time>2025-08-08T14:51:17.000Z</time>
      </trkpt>
      <trkpt lat="45.79694" lon="6.3364">
        <ele>751.59997558594</ele>
        <time>2025-08-08T14:51:18.000Z</time>
      </trkpt>
      <trkpt lat="45.79678" lon="6.33623">
        <ele>752.59997558594</ele>
        <time>2025-08-08T14:51:25.000Z</time>
      </trkpt>
      <trkpt lat="45.79666" lon="6.33609">
        <ele>754</ele>
        <time>2025-08-08T14:51:31.000Z</time>
      </trkpt>
      <trkpt lat="45.79662" lon="6.33603">
        <ele>754.20001220703</ele>
        <time>2025-08-08T14:51:33.000Z</time>
      </trkpt>
      <trkpt lat="45.79648" lon="6.33592">
        <ele>755</ele>
        <time>2025-08-08T14:51:39.000Z</time>
      </trkpt>
      <trkpt lat="45.79631" lon="6.33585">
        <ele>756.20001220703</ele>
        <time>2025-08-08T14:51:45.000Z</time>
      </trkpt>
      <trkpt lat="45.79623" lon="6.3358">
        <ele>756.79998779297</ele>
        <time>2025-08-08T14:51:48.000Z</time>
      </trkpt>
      <trkpt lat="45.79614" lon="6.33576">
        <ele>757.20001220703</ele>
        <time>2025-08-08T14:51:51.000Z</time>
      </trkpt>
      <trkpt lat="45.79593" lon="6.33564">
        <ele>758.59997558594</ele>
        <time>2025-08-08T14:51:59.000Z</time>
      </trkpt>
      <trkpt lat="45.7959" lon="6.33563">
        <ele>758.59997558594</ele>
        <time>2025-08-08T14:52:00.000Z</time>
      </trkpt>
      <trkpt lat="45.79569" lon="6.33561">
        <ele>759.59997558594</ele>
        <time>2025-08-08T14:52:07.000Z</time>
      </trkpt>
      <trkpt lat="45.79537" lon="6.33564">
        <ele>760.59997558594</ele>
        <time>2025-08-08T14:52:17.000Z</time>
      </trkpt>
      <trkpt lat="45.79534" lon="6.33565">
        <ele>760.59997558594</ele>
        <time>2025-08-08T14:52:18.000Z</time>
      </trkpt>
      <trkpt lat="45.79519" lon="6.33566">
        <ele>760.79998779297</ele>
        <time>2025-08-08T14:52:23.000Z</time>
      </trkpt>
      <trkpt lat="45.7951" lon="6.33563">
        <ele>761.40002441406</ele>
        <time>2025-08-08T14:52:26.000Z</time>
      </trkpt>
      <trkpt lat="45.79497" lon="6.33556">
        <ele>762.40002441406</ele>
        <time>2025-08-08T14:52:31.000Z</time>
      </trkpt>
      <trkpt lat="45.79491" lon="6.33553">
        <ele>762.79998779297</ele>
        <time>2025-08-08T14:52:33.000Z</time>
      </trkpt>
      <trkpt lat="45.79474" lon="6.33543">
        <ele>763.59997558594</ele>
        <time>2025-08-08T14:52:39.000Z</time>
      </trkpt>
      <trkpt lat="45.79466" lon="6.33536">
        <ele>763.79998779297</ele>
        <time>2025-08-08T14:52:42.000Z</time>
      </trkpt>
      <trkpt lat="45.79454" lon="6.33523">
        <ele>764.79998779297</ele>
        <time>2025-08-08T14:52:47.000Z</time>
      </trkpt>
      <trkpt lat="45.79446" lon="6.33514">
        <ele>765.40002441406</ele>
        <time>2025-08-08T14:52:50.000Z</time>
      </trkpt>
      <trkpt lat="45.79431" lon="6.33491">
        <ele>766</ele>
        <time>2025-08-08T14:52:56.000Z</time>
      </trkpt>
      <trkpt lat="45.79419" lon="6.33471">
        <ele>766.40002441406</ele>
        <time>2025-08-08T14:53:01.000Z</time>
      </trkpt>
      <trkpt lat="45.79405" lon="6.33446">
        <ele>767</ele>
        <time>2025-08-08T14:53:07.000Z</time>
      </trkpt>
      <trkpt lat="45.79393" lon="6.33429">
        <ele>768</ele>
        <time>2025-08-08T14:53:12.000Z</time>
      </trkpt>
      <trkpt lat="45.79374" lon="6.33412">
        <ele>769.20001220703</ele>
        <time>2025-08-08T14:53:18.000Z</time>
      </trkpt>
      <trkpt lat="45.79367" lon="6.33406">
        <ele>769.59997558594</ele>
        <time>2025-08-08T14:53:20.000Z</time>
      </trkpt>
      <trkpt lat="45.79354" lon="6.33395">
        <ele>770.40002441406</ele>
        <time>2025-08-08T14:53:24.000Z</time>
      </trkpt>
      <trkpt lat="45.79332" lon="6.33379">
        <ele>771.40002441406</ele>
        <time>2025-08-08T14:53:30.000Z</time>
      </trkpt>
      <trkpt lat="45.79329" lon="6.33376">
        <ele>771.59997558594</ele>
        <time>2025-08-08T14:53:31.000Z</time>
      </trkpt>
      <trkpt lat="45.7931" lon="6.33357">
        <ele>772</ele>
        <time>2025-08-08T14:53:37.000Z</time>
      </trkpt>
      <trkpt lat="45.793" lon="6.33349">
        <ele>772.59997558594</ele>
        <time>2025-08-08T14:53:40.000Z</time>
      </trkpt>
      <trkpt lat="45.79289" lon="6.33344">
        <ele>773.20001220703</ele>
        <time>2025-08-08T14:53:43.000Z</time>
      </trkpt>
      <trkpt lat="45.79278" lon="6.33339">
        <ele>773.59997558594</ele>
        <time>2025-08-08T14:53:46.000Z</time>
      </trkpt>
      <trkpt lat="45.79255" lon="6.33328">
        <ele>774.59997558594</ele>
        <time>2025-08-08T14:53:52.000Z</time>
      </trkpt>
      <trkpt lat="45.79251" lon="6.33326">
        <ele>774.79998779297</ele>
        <time>2025-08-08T14:53:53.000Z</time>
      </trkpt>
      <trkpt lat="45.79238" lon="6.33312">
        <ele>775.20001220703</ele>
        <time>2025-08-08T14:53:57.000Z</time>
      </trkpt>
      <trkpt lat="45.79224" lon="6.33296">
        <ele>775.59997558594</ele>
        <time>2025-08-08T14:54:01.000Z</time>
      </trkpt>
      <trkpt lat="45.79216" lon="6.3328">
        <ele>775.79998779297</ele>
        <time>2025-08-08T14:54:04.000Z</time>
      </trkpt>
      <trkpt lat="45.79213" lon="6.33275">
        <ele>775.79998779297</ele>
        <time>2025-08-08T14:54:05.000Z</time>
      </trkpt>
      <trkpt lat="45.79211" lon="6.33269">
        <ele>775.79998779297</ele>
        <time>2025-08-08T14:54:06.000Z</time>
      </trkpt>
      <trkpt lat="45.79208" lon="6.33256">
        <ele>775.79998779297</ele>
        <time>2025-08-08T14:54:08.000Z</time>
      </trkpt>
      <trkpt lat="45.79205" lon="6.33243">
        <ele>775.79998779297</ele>
        <time>2025-08-08T14:54:10.000Z</time>
      </trkpt>
      <trkpt lat="45.79197" lon="6.33218">
        <ele>776</ele>
        <time>2025-08-08T14:54:14.000Z</time>
      </trkpt>
      <trkpt lat="45.79183" lon="6.33189">
        <ele>776.20001220703</ele>
        <time>2025-08-08T14:54:19.000Z</time>
      </trkpt>
      <trkpt lat="45.79178" lon="6.33176">
        <ele>776.40002441406</ele>
        <time>2025-08-08T14:54:21.000Z</time>
      </trkpt>
      <trkpt lat="45.79176" lon="6.33169">
        <ele>776.59997558594</ele>
        <time>2025-08-08T14:54:22.000Z</time>
      </trkpt>
      <trkpt lat="45.79172" lon="6.33156">
        <ele>776.79998779297</ele>
        <time>2025-08-08T14:54:24.000Z</time>
      </trkpt>
      <trkpt lat="45.7917" lon="6.33142">
        <ele>777</ele>
        <time>2025-08-08T14:54:26.000Z</time>
      </trkpt>
      <trkpt lat="45.79167" lon="6.33128">
        <ele>777</ele>
        <time>2025-08-08T14:54:28.000Z</time>
      </trkpt>
      <trkpt lat="45.79164" lon="6.33116">
        <ele>777.20001220703</ele>
        <time>2025-08-08T14:54:30.000Z</time>
      </trkpt>
      <trkpt lat="45.79161" lon="6.3311">
        <ele>777.20001220703</ele>
        <time>2025-08-08T14:54:31.000Z</time>
      </trkpt>
      <trkpt lat="45.79158" lon="6.33105">
        <ele>777.20001220703</ele>
        <time>2025-08-08T14:54:32.000Z</time>
      </trkpt>
      <trkpt lat="45.79151" lon="6.33096">
        <ele>777.40002441406</ele>
        <time>2025-08-08T14:54:34.000Z</time>
      </trkpt>
      <trkpt lat="45.79146" lon="6.33092">
        <ele>777.59997558594</ele>
        <time>2025-08-08T14:54:35.000Z</time>
      </trkpt>
      <trkpt lat="45.79141" lon="6.33089">
        <ele>777.79998779297</ele>
        <time>2025-08-08T14:54:36.000Z</time>
      </trkpt>
      <trkpt lat="45.79135" lon="6.33086">
        <ele>778</ele>
        <time>2025-08-08T14:54:37.000Z</time>
      </trkpt>
      <trkpt lat="45.79124" lon="6.3308">
        <ele>778</ele>
        <time>2025-08-08T14:54:39.000Z</time>
      </trkpt>
      <trkpt lat="45.79084" lon="6.33064">
        <ele>778.20001220703</ele>
        <time>2025-08-08T14:54:45.000Z</time>
      </trkpt>
      <trkpt lat="45.79043" lon="6.33044">
        <ele>777.79998779297</ele>
        <time>2025-08-08T14:54:51.000Z</time>
      </trkpt>
      <trkpt lat="45.78998" lon="6.33021">
        <ele>777.40002441406</ele>
        <time>2025-08-08T14:54:57.000Z</time>
      </trkpt>
      <trkpt lat="45.78991" lon="6.33015">
        <ele>777.20001220703</ele>
        <time>2025-08-08T14:54:58.000Z</time>
      </trkpt>
      <trkpt lat="45.78971" lon="6.32994">
        <ele>776.79998779297</ele>
        <time>2025-08-08T14:55:01.000Z</time>
      </trkpt>
      <trkpt lat="45.78964" lon="6.32986">
        <ele>776.59997558594</ele>
        <time>2025-08-08T14:55:02.000Z</time>
      </trkpt>
      <trkpt lat="45.78929" lon="6.32935">
        <ele>776.20001220703</ele>
        <time>2025-08-08T14:55:08.000Z</time>
      </trkpt>
      <trkpt lat="45.78913" lon="6.32907">
        <ele>775.79998779297</ele>
        <time>2025-08-08T14:55:11.000Z</time>
      </trkpt>
      <trkpt lat="45.78902" lon="6.32889">
        <ele>775.40002441406</ele>
        <time>2025-08-08T14:55:13.000Z</time>
      </trkpt>
      <trkpt lat="45.78892" lon="6.3287">
        <ele>775</ele>
        <time>2025-08-08T14:55:15.000Z</time>
      </trkpt>
      <trkpt lat="45.78872" lon="6.32823">
        <ele>774.40002441406</ele>
        <time>2025-08-08T14:55:20.000Z</time>
      </trkpt>
      <trkpt lat="45.78865" lon="6.32804">
        <ele>774.20001220703</ele>
        <time>2025-08-08T14:55:22.000Z</time>
      </trkpt>
      <trkpt lat="45.78864" lon="6.32783">
        <ele>774</ele>
        <time>2025-08-08T14:55:24.000Z</time>
      </trkpt>
      <trkpt lat="45.78865" lon="6.32774">
        <ele>773.79998779297</ele>
        <time>2025-08-08T14:55:25.000Z</time>
      </trkpt>
      <trkpt lat="45.7887" lon="6.32764">
        <ele>773.59997558594</ele>
        <time>2025-08-08T14:55:26.000Z</time>
      </trkpt>
      <trkpt lat="45.7888" lon="6.32752">
        <ele>773.40002441406</ele>
        <time>2025-08-08T14:55:28.000Z</time>
      </trkpt>
      <trkpt lat="45.78887" lon="6.32746">
        <ele>773.20001220703</ele>
        <time>2025-08-08T14:55:29.000Z</time>
      </trkpt>
      <trkpt lat="45.78894" lon="6.3274">
        <ele>773.20001220703</ele>
        <time>2025-08-08T14:55:30.000Z</time>
      </trkpt>
      <trkpt lat="45.78911" lon="6.32729">
        <ele>772.40002441406</ele>
        <time>2025-08-08T14:55:32.000Z</time>
      </trkpt>
      <trkpt lat="45.78919" lon="6.32725">
        <ele>771.79998779297</ele>
        <time>2025-08-08T14:55:33.000Z</time>
      </trkpt>
      <trkpt lat="45.78945" lon="6.32716">
        <ele>771</ele>
        <time>2025-08-08T14:55:36.000Z</time>
      </trkpt>
      <trkpt lat="45.78954" lon="6.32711">
        <ele>770.59997558594</ele>
        <time>2025-08-08T14:55:37.000Z</time>
      </trkpt>
      <trkpt lat="45.78976" lon="6.32693">
        <ele>769.79998779297</ele>
        <time>2025-08-08T14:55:40.000Z</time>
      </trkpt>
      <trkpt lat="45.78996" lon="6.32674">
        <ele>769.59997558594</ele>
        <time>2025-08-08T14:55:43.000Z</time>
      </trkpt>
      <trkpt lat="45.79023" lon="6.32646">
        <ele>769.20001220703</ele>
        <time>2025-08-08T14:55:47.000Z</time>
      </trkpt>
      <trkpt lat="45.79051" lon="6.32598">
        <ele>768.79998779297</ele>
        <time>2025-08-08T14:55:52.000Z</time>
      </trkpt>
      <trkpt lat="45.79083" lon="6.32536">
        <ele>768.40002441406</ele>
        <time>2025-08-08T14:55:58.000Z</time>
      </trkpt>
      <trkpt lat="45.79093" lon="6.32513">
        <ele>767.79998779297</ele>
        <time>2025-08-08T14:56:00.000Z</time>
      </trkpt>
      <trkpt lat="45.79096" lon="6.32487">
        <ele>767.59997558594</ele>
        <time>2025-08-08T14:56:02.000Z</time>
      </trkpt>
      <trkpt lat="45.79095" lon="6.32471">
        <ele>767.40002441406</ele>
        <time>2025-08-08T14:56:03.000Z</time>
      </trkpt>
      <trkpt lat="45.79094" lon="6.32461">
        <ele>767.40002441406</ele>
        <time>2025-08-08T14:56:04.000Z</time>
      </trkpt>
      <trkpt lat="45.79086" lon="6.32439">
        <ele>767.20001220703</ele>
        <time>2025-08-08T14:56:06.000Z</time>
      </trkpt>
      <trkpt lat="45.79071" lon="6.32422">
        <ele>767.20001220703</ele>
        <time>2025-08-08T14:56:08.000Z</time>
      </trkpt>
      <trkpt lat="45.79063" lon="6.32417">
        <ele>767.20001220703</ele>
        <time>2025-08-08T14:56:09.000Z</time>
      </trkpt>
      <trkpt lat="45.79014" lon="6.32386">
        <ele>767.20001220703</ele>
        <time>2025-08-08T14:56:15.000Z</time>
      </trkpt>
      <trkpt lat="45.78971" lon="6.32367">
        <ele>767.40002441406</ele>
        <time>2025-08-08T14:56:20.000Z</time>
      </trkpt>
      <trkpt lat="45.78963" lon="6.32361">
        <ele>767.20001220703</ele>
        <time>2025-08-08T14:56:21.000Z</time>
      </trkpt>
      <trkpt lat="45.78947" lon="6.32351">
        <ele>767.40002441406</ele>
        <time>2025-08-08T14:56:23.000Z</time>
      </trkpt>
      <trkpt lat="45.78903" lon="6.32346">
        <ele>766.59997558594</ele>
        <time>2025-08-08T14:56:28.000Z</time>
      </trkpt>
      <trkpt lat="45.78884" lon="6.32341">
        <ele>766.59997558594</ele>
        <time>2025-08-08T14:56:30.000Z</time>
      </trkpt>
      <trkpt lat="45.78866" lon="6.32333">
        <ele>766.59997558594</ele>
        <time>2025-08-08T14:56:32.000Z</time>
      </trkpt>
      <trkpt lat="45.78847" lon="6.32321">
        <ele>766.20001220703</ele>
        <time>2025-08-08T14:56:34.000Z</time>
      </trkpt>
      <trkpt lat="45.78829" lon="6.32306">
        <ele>765.59997558594</ele>
        <time>2025-08-08T14:56:36.000Z</time>
      </trkpt>
      <trkpt lat="45.78821" lon="6.32297">
        <ele>765.20001220703</ele>
        <time>2025-08-08T14:56:37.000Z</time>
      </trkpt>
      <trkpt lat="45.78814" lon="6.32286">
        <ele>764.79998779297</ele>
        <time>2025-08-08T14:56:38.000Z</time>
      </trkpt>
      <trkpt lat="45.7881" lon="6.32275">
        <ele>764</ele>
        <time>2025-08-08T14:56:39.000Z</time>
      </trkpt>
      <trkpt lat="45.78808" lon="6.32266">
        <ele>763.79998779297</ele>
        <time>2025-08-08T14:56:40.000Z</time>
      </trkpt>
      <trkpt lat="45.78808" lon="6.32254">
        <ele>763.20001220703</ele>
        <time>2025-08-08T14:56:41.000Z</time>
      </trkpt>
      <trkpt lat="45.78812" lon="6.32242">
        <ele>762.79998779297</ele>
        <time>2025-08-08T14:56:42.000Z</time>
      </trkpt>
      <trkpt lat="45.78817" lon="6.32236">
        <ele>762</ele>
        <time>2025-08-08T14:56:43.000Z</time>
      </trkpt>
      <trkpt lat="45.78826" lon="6.32229">
        <ele>761</ele>
        <time>2025-08-08T14:56:44.000Z</time>
      </trkpt>
      <trkpt lat="45.78834" lon="6.32225">
        <ele>760.59997558594</ele>
        <time>2025-08-08T14:56:45.000Z</time>
      </trkpt>
      <trkpt lat="45.78844" lon="6.32221">
        <ele>759.20001220703</ele>
        <time>2025-08-08T14:56:46.000Z</time>
      </trkpt>
      <trkpt lat="45.78854" lon="6.32215">
        <ele>758.59997558594</ele>
        <time>2025-08-08T14:56:47.000Z</time>
      </trkpt>
      <trkpt lat="45.78864" lon="6.32207">
        <ele>757.59997558594</ele>
        <time>2025-08-08T14:56:48.000Z</time>
      </trkpt>
      <trkpt lat="45.78875" lon="6.32195">
        <ele>757.20001220703</ele>
        <time>2025-08-08T14:56:49.000Z</time>
      </trkpt>
      <trkpt lat="45.78882" lon="6.32185">
        <ele>756</ele>
        <time>2025-08-08T14:56:50.000Z</time>
      </trkpt>
      <trkpt lat="45.7889" lon="6.32172">
        <ele>754.79998779297</ele>
        <time>2025-08-08T14:56:51.000Z</time>
      </trkpt>
      <trkpt lat="45.78905" lon="6.32147">
        <ele>752.79998779297</ele>
        <time>2025-08-08T14:56:53.000Z</time>
      </trkpt>
      <trkpt lat="45.78921" lon="6.32123">
        <ele>750.79998779297</ele>
        <time>2025-08-08T14:56:55.000Z</time>
      </trkpt>
      <trkpt lat="45.78936" lon="6.32098">
        <ele>749.20001220703</ele>
        <time>2025-08-08T14:56:57.000Z</time>
      </trkpt>
      <trkpt lat="45.78941" lon="6.32087">
        <ele>749</ele>
        <time>2025-08-08T14:56:58.000Z</time>
      </trkpt>
      <trkpt lat="45.78944" lon="6.32073">
        <ele>748</ele>
        <time>2025-08-08T14:56:59.000Z</time>
      </trkpt>
      <trkpt lat="45.78946" lon="6.32062">
        <ele>746.59997558594</ele>
        <time>2025-08-08T14:57:00.000Z</time>
      </trkpt>
      <trkpt lat="45.78947" lon="6.32049">
        <ele>745.79998779297</ele>
        <time>2025-08-08T14:57:01.000Z</time>
      </trkpt>
      <trkpt lat="45.78946" lon="6.32039">
        <ele>744.59997558594</ele>
        <time>2025-08-08T14:57:02.000Z</time>
      </trkpt>
      <trkpt lat="45.78942" lon="6.32029">
        <ele>744</ele>
        <time>2025-08-08T14:57:03.000Z</time>
      </trkpt>
      <trkpt lat="45.78933" lon="6.32017">
        <ele>743</ele>
        <time>2025-08-08T14:57:04.000Z</time>
      </trkpt>
      <trkpt lat="45.78924" lon="6.32011">
        <ele>742.40002441406</ele>
        <time>2025-08-08T14:57:05.000Z</time>
      </trkpt>
      <trkpt lat="45.78914" lon="6.32003">
        <ele>741.59997558594</ele>
        <time>2025-08-08T14:57:06.000Z</time>
      </trkpt>
      <trkpt lat="45.78887" lon="6.31976">
        <ele>739.79998779297</ele>
        <time>2025-08-08T14:57:09.000Z</time>
      </trkpt>
      <trkpt lat="45.7888" lon="6.31955">
        <ele>738.79998779297</ele>
        <time>2025-08-08T14:57:11.000Z</time>
      </trkpt>
      <trkpt lat="45.78883" lon="6.31932">
        <ele>737.59997558594</ele>
        <time>2025-08-08T14:57:13.000Z</time>
      </trkpt>
      <trkpt lat="45.78889" lon="6.31925">
        <ele>737.20001220703</ele>
        <time>2025-08-08T14:57:14.000Z</time>
      </trkpt>
      <trkpt lat="45.78897" lon="6.31918">
        <ele>735.79998779297</ele>
        <time>2025-08-08T14:57:15.000Z</time>
      </trkpt>
      <trkpt lat="45.78911" lon="6.31902">
        <ele>734.20001220703</ele>
        <time>2025-08-08T14:57:17.000Z</time>
      </trkpt>
      <trkpt lat="45.78916" lon="6.31894">
        <ele>733.40002441406</ele>
        <time>2025-08-08T14:57:18.000Z</time>
      </trkpt>
      <trkpt lat="45.78918" lon="6.31883">
        <ele>733</ele>
        <time>2025-08-08T14:57:19.000Z</time>
      </trkpt>
      <trkpt lat="45.78917" lon="6.31869">
        <ele>731.59997558594</ele>
        <time>2025-08-08T14:57:20.000Z</time>
      </trkpt>
      <trkpt lat="45.78915" lon="6.31856">
        <ele>731.20001220703</ele>
        <time>2025-08-08T14:57:21.000Z</time>
      </trkpt>
      <trkpt lat="45.78913" lon="6.31841">
        <ele>730.40002441406</ele>
        <time>2025-08-08T14:57:22.000Z</time>
      </trkpt>
      <trkpt lat="45.78911" lon="6.31828">
        <ele>730</ele>
        <time>2025-08-08T14:57:23.000Z</time>
      </trkpt>
      <trkpt lat="45.78907" lon="6.31815">
        <ele>729.20001220703</ele>
        <time>2025-08-08T14:57:24.000Z</time>
      </trkpt>
      <trkpt lat="45.78902" lon="6.31803">
        <ele>729</ele>
        <time>2025-08-08T14:57:25.000Z</time>
      </trkpt>
      <trkpt lat="45.78898" lon="6.31792">
        <ele>728.59997558594</ele>
        <time>2025-08-08T14:57:26.000Z</time>
      </trkpt>
      <trkpt lat="45.78896" lon="6.31781">
        <ele>727.20001220703</ele>
        <time>2025-08-08T14:57:27.000Z</time>
      </trkpt>
      <trkpt lat="45.78897" lon="6.3177">
        <ele>727</ele>
        <time>2025-08-08T14:57:28.000Z</time>
      </trkpt>
      <trkpt lat="45.789" lon="6.3176">
        <ele>726</ele>
        <time>2025-08-08T14:57:29.000Z</time>
      </trkpt>
      <trkpt lat="45.78905" lon="6.31752">
        <ele>725.40002441406</ele>
        <time>2025-08-08T14:57:30.000Z</time>
      </trkpt>
      <trkpt lat="45.78912" lon="6.31746">
        <ele>724</ele>
        <time>2025-08-08T14:57:31.000Z</time>
      </trkpt>
      <trkpt lat="45.78928" lon="6.31732">
        <ele>722.40002441406</ele>
        <time>2025-08-08T14:57:33.000Z</time>
      </trkpt>
      <trkpt lat="45.78936" lon="6.31724">
        <ele>721.59997558594</ele>
        <time>2025-08-08T14:57:34.000Z</time>
      </trkpt>
      <trkpt lat="45.78944" lon="6.31718">
        <ele>721</ele>
        <time>2025-08-08T14:57:35.000Z</time>
      </trkpt>
      <trkpt lat="45.78962" lon="6.31704">
        <ele>720.20001220703</ele>
        <time>2025-08-08T14:57:37.000Z</time>
      </trkpt>
      <trkpt lat="45.78971" lon="6.31695">
        <ele>719.40002441406</ele>
        <time>2025-08-08T14:57:38.000Z</time>
      </trkpt>
      <trkpt lat="45.78991" lon="6.31682">
        <ele>718</ele>
        <time>2025-08-08T14:57:40.000Z</time>
      </trkpt>
      <trkpt lat="45.79" lon="6.31676">
        <ele>717.59997558594</ele>
        <time>2025-08-08T14:57:41.000Z</time>
      </trkpt>
      <trkpt lat="45.79009" lon="6.31669">
        <ele>717.20001220703</ele>
        <time>2025-08-08T14:57:42.000Z</time>
      </trkpt>
      <trkpt lat="45.79016" lon="6.31663">
        <ele>716.40002441406</ele>
        <time>2025-08-08T14:57:43.000Z</time>
      </trkpt>
      <trkpt lat="45.79024" lon="6.31653">
        <ele>715.79998779297</ele>
        <time>2025-08-08T14:57:44.000Z</time>
      </trkpt>
      <trkpt lat="45.79027" lon="6.31644">
        <ele>714.79998779297</ele>
        <time>2025-08-08T14:57:45.000Z</time>
      </trkpt>
      <trkpt lat="45.7903" lon="6.31633">
        <ele>714.20001220703</ele>
        <time>2025-08-08T14:57:46.000Z</time>
      </trkpt>
      <trkpt lat="45.79031" lon="6.31618">
        <ele>713.20001220703</ele>
        <time>2025-08-08T14:57:47.000Z</time>
      </trkpt>
      <trkpt lat="45.7903" lon="6.31608">
        <ele>712.59997558594</ele>
        <time>2025-08-08T14:57:48.000Z</time>
      </trkpt>
      <trkpt lat="45.7903" lon="6.31594">
        <ele>711.79998779297</ele>
        <time>2025-08-08T14:57:49.000Z</time>
      </trkpt>
      <trkpt lat="45.79028" lon="6.31586">
        <ele>711.40002441406</ele>
        <time>2025-08-08T14:57:50.000Z</time>
      </trkpt>
      <trkpt lat="45.79025" lon="6.31577">
        <ele>710.59997558594</ele>
        <time>2025-08-08T14:57:51.000Z</time>
      </trkpt>
      <trkpt lat="45.79019" lon="6.31568">
        <ele>709.59997558594</ele>
        <time>2025-08-08T14:57:52.000Z</time>
      </trkpt>
      <trkpt lat="45.79006" lon="6.31564">
        <ele>708.59997558594</ele>
        <time>2025-08-08T14:57:54.000Z</time>
      </trkpt>
      <trkpt lat="45.7899" lon="6.31565">
        <ele>707.40002441406</ele>
        <time>2025-08-08T14:57:56.000Z</time>
      </trkpt>
      <trkpt lat="45.78961" lon="6.31571">
        <ele>706.79998779297</ele>
        <time>2025-08-08T14:57:59.000Z</time>
      </trkpt>
      <trkpt lat="45.78943" lon="6.3158">
        <ele>706.20001220703</ele>
        <time>2025-08-08T14:58:01.000Z</time>
      </trkpt>
      <trkpt lat="45.78921" lon="6.31592">
        <ele>705</ele>
        <time>2025-08-08T14:58:03.000Z</time>
      </trkpt>
      <trkpt lat="45.78899" lon="6.31594">
        <ele>703.79998779297</ele>
        <time>2025-08-08T14:58:05.000Z</time>
      </trkpt>
      <trkpt lat="45.78891" lon="6.31594">
        <ele>703.40002441406</ele>
        <time>2025-08-08T14:58:06.000Z</time>
      </trkpt>
      <trkpt lat="45.78865" lon="6.31599">
        <ele>702.40002441406</ele>
        <time>2025-08-08T14:58:08.000Z</time>
      </trkpt>
      <trkpt lat="45.78841" lon="6.31604">
        <ele>701.20001220703</ele>
        <time>2025-08-08T14:58:10.000Z</time>
      </trkpt>
      <trkpt lat="45.78829" lon="6.31606">
        <ele>700.79998779297</ele>
        <time>2025-08-08T14:58:11.000Z</time>
      </trkpt>
      <trkpt lat="45.78817" lon="6.31608">
        <ele>699.59997558594</ele>
        <time>2025-08-08T14:58:12.000Z</time>
      </trkpt>
      <trkpt lat="45.78794" lon="6.31611">
        <ele>698.20001220703</ele>
        <time>2025-08-08T14:58:14.000Z</time>
      </trkpt>
      <trkpt lat="45.78772" lon="6.31612">
        <ele>696.79998779297</ele>
        <time>2025-08-08T14:58:16.000Z</time>
      </trkpt>
      <trkpt lat="45.78761" lon="6.31614">
        <ele>696.40002441406</ele>
        <time>2025-08-08T14:58:17.000Z</time>
      </trkpt>
      <trkpt lat="45.78751" lon="6.31618">
        <ele>695.79998779297</ele>
        <time>2025-08-08T14:58:18.000Z</time>
      </trkpt>
      <trkpt lat="45.78743" lon="6.31625">
        <ele>695</ele>
        <time>2025-08-08T14:58:19.000Z</time>
      </trkpt>
      <trkpt lat="45.78735" lon="6.31636">
        <ele>694.40002441406</ele>
        <time>2025-08-08T14:58:20.000Z</time>
      </trkpt>
      <trkpt lat="45.78729" lon="6.31647">
        <ele>693.59997558594</ele>
        <time>2025-08-08T14:58:21.000Z</time>
      </trkpt>
      <trkpt lat="45.78724" lon="6.31658">
        <ele>693.20001220703</ele>
        <time>2025-08-08T14:58:22.000Z</time>
      </trkpt>
      <trkpt lat="45.78719" lon="6.31669">
        <ele>692.59997558594</ele>
        <time>2025-08-08T14:58:23.000Z</time>
      </trkpt>
      <trkpt lat="45.78713" lon="6.31678">
        <ele>692.20001220703</ele>
        <time>2025-08-08T14:58:24.000Z</time>
      </trkpt>
      <trkpt lat="45.78706" lon="6.31684">
        <ele>691.79998779297</ele>
        <time>2025-08-08T14:58:25.000Z</time>
      </trkpt>
      <trkpt lat="45.78697" lon="6.31687">
        <ele>691.20001220703</ele>
        <time>2025-08-08T14:58:26.000Z</time>
      </trkpt>
      <trkpt lat="45.78687" lon="6.31687">
        <ele>690.79998779297</ele>
        <time>2025-08-08T14:58:27.000Z</time>
      </trkpt>
      <trkpt lat="45.78676" lon="6.31685">
        <ele>690</ele>
        <time>2025-08-08T14:58:28.000Z</time>
      </trkpt>
      <trkpt lat="45.78658" lon="6.31679">
        <ele>689</ele>
        <time>2025-08-08T14:58:30.000Z</time>
      </trkpt>
      <trkpt lat="45.78648" lon="6.31676">
        <ele>688.79998779297</ele>
        <time>2025-08-08T14:58:31.000Z</time>
      </trkpt>
      <trkpt lat="45.78625" lon="6.31675">
        <ele>687.59997558594</ele>
        <time>2025-08-08T14:58:33.000Z</time>
      </trkpt>
      <trkpt lat="45.78614" lon="6.31678">
        <ele>687</ele>
        <time>2025-08-08T14:58:34.000Z</time>
      </trkpt>
      <trkpt lat="45.78604" lon="6.31681">
        <ele>686.40002441406</ele>
        <time>2025-08-08T14:58:35.000Z</time>
      </trkpt>
      <trkpt lat="45.78569" lon="6.31686">
        <ele>685.20001220703</ele>
        <time>2025-08-08T14:58:38.000Z</time>
      </trkpt>
      <trkpt lat="45.78549" lon="6.31681">
        <ele>684.20001220703</ele>
        <time>2025-08-08T14:58:40.000Z</time>
      </trkpt>
      <trkpt lat="45.78538" lon="6.31676">
        <ele>683.20001220703</ele>
        <time>2025-08-08T14:58:41.000Z</time>
      </trkpt>
      <trkpt lat="45.78514" lon="6.31664">
        <ele>681.79998779297</ele>
        <time>2025-08-08T14:58:43.000Z</time>
      </trkpt>
      <trkpt lat="45.78503" lon="6.3166">
        <ele>681</ele>
        <time>2025-08-08T14:58:44.000Z</time>
      </trkpt>
      <trkpt lat="45.78491" lon="6.31657">
        <ele>680.59997558594</ele>
        <time>2025-08-08T14:58:45.000Z</time>
      </trkpt>
      <trkpt lat="45.78481" lon="6.31655">
        <ele>679.40002441406</ele>
        <time>2025-08-08T14:58:46.000Z</time>
      </trkpt>
      <trkpt lat="45.7846" lon="6.31651">
        <ele>678</ele>
        <time>2025-08-08T14:58:48.000Z</time>
      </trkpt>
      <trkpt lat="45.78451" lon="6.31646">
        <ele>677.59997558594</ele>
        <time>2025-08-08T14:58:49.000Z</time>
      </trkpt>
      <trkpt lat="45.78445" lon="6.31638">
        <ele>676.40002441406</ele>
        <time>2025-08-08T14:58:50.000Z</time>
      </trkpt>
      <trkpt lat="45.78438" lon="6.31626">
        <ele>675.79998779297</ele>
        <time>2025-08-08T14:58:51.000Z</time>
      </trkpt>
      <trkpt lat="45.78434" lon="6.3161">
        <ele>674.79998779297</ele>
        <time>2025-08-08T14:58:52.000Z</time>
      </trkpt>
      <trkpt lat="45.78431" lon="6.31596">
        <ele>673.59997558594</ele>
        <time>2025-08-08T14:58:53.000Z</time>
      </trkpt>
      <trkpt lat="45.78426" lon="6.31583">
        <ele>673</ele>
        <time>2025-08-08T14:58:54.000Z</time>
      </trkpt>
      <trkpt lat="45.7842" lon="6.31575">
        <ele>672</ele>
        <time>2025-08-08T14:58:55.000Z</time>
      </trkpt>
      <trkpt lat="45.78411" lon="6.31566">
        <ele>671.59997558594</ele>
        <time>2025-08-08T14:58:56.000Z</time>
      </trkpt>
      <trkpt lat="45.784" lon="6.31558">
        <ele>670.59997558594</ele>
        <time>2025-08-08T14:58:57.000Z</time>
      </trkpt>
      <trkpt lat="45.78391" lon="6.31555">
        <ele>670.20001220703</ele>
        <time>2025-08-08T14:58:58.000Z</time>
      </trkpt>
      <trkpt lat="45.78378" lon="6.31551">
        <ele>669.20001220703</ele>
        <time>2025-08-08T14:58:59.000Z</time>
      </trkpt>
      <trkpt lat="45.78359" lon="6.31548">
        <ele>668.20001220703</ele>
        <time>2025-08-08T14:59:01.000Z</time>
      </trkpt>
      <trkpt lat="45.78346" lon="6.31545">
        <ele>667.79998779297</ele>
        <time>2025-08-08T14:59:02.000Z</time>
      </trkpt>
      <trkpt lat="45.78335" lon="6.31542">
        <ele>667.79998779297</ele>
        <time>2025-08-08T14:59:03.000Z</time>
      </trkpt>
      <trkpt lat="45.78324" lon="6.31536">
        <ele>666.79998779297</ele>
        <time>2025-08-08T14:59:04.000Z</time>
      </trkpt>
      <trkpt lat="45.78314" lon="6.31529">
        <ele>666.59997558594</ele>
        <time>2025-08-08T14:59:05.000Z</time>
      </trkpt>
      <trkpt lat="45.78294" lon="6.31514">
        <ele>665.59997558594</ele>
        <time>2025-08-08T14:59:07.000Z</time>
      </trkpt>
      <trkpt lat="45.78276" lon="6.31498">
        <ele>663.79998779297</ele>
        <time>2025-08-08T14:59:09.000Z</time>
      </trkpt>
      <trkpt lat="45.78261" lon="6.31483">
        <ele>663</ele>
        <time>2025-08-08T14:59:11.000Z</time>
      </trkpt>
      <trkpt lat="45.78253" lon="6.3147">
        <ele>662.79998779297</ele>
        <time>2025-08-08T14:59:12.000Z</time>
      </trkpt>
      <trkpt lat="45.78249" lon="6.31458">
        <ele>662.20001220703</ele>
        <time>2025-08-08T14:59:13.000Z</time>
      </trkpt>
      <trkpt lat="45.7824" lon="6.31435">
        <ele>661</ele>
        <time>2025-08-08T14:59:15.000Z</time>
      </trkpt>
      <trkpt lat="45.78223" lon="6.3142">
        <ele>659.40002441406</ele>
        <time>2025-08-08T14:59:17.000Z</time>
      </trkpt>
      <trkpt lat="45.78205" lon="6.31407">
        <ele>658.20001220703</ele>
        <time>2025-08-08T14:59:19.000Z</time>
      </trkpt>
      <trkpt lat="45.78198" lon="6.31401">
        <ele>657.20001220703</ele>
        <time>2025-08-08T14:59:20.000Z</time>
      </trkpt>
      <trkpt lat="45.78187" lon="6.31392">
        <ele>657</ele>
        <time>2025-08-08T14:59:21.000Z</time>
      </trkpt>
      <trkpt lat="45.78179" lon="6.31382">
        <ele>656.40002441406</ele>
        <time>2025-08-08T14:59:22.000Z</time>
      </trkpt>
      <trkpt lat="45.78171" lon="6.3137">
        <ele>656.20001220703</ele>
        <time>2025-08-08T14:59:23.000Z</time>
      </trkpt>
      <trkpt lat="45.7816" lon="6.31347">
        <ele>655.20001220703</ele>
        <time>2025-08-08T14:59:25.000Z</time>
      </trkpt>
      <trkpt lat="45.78153" lon="6.31315">
        <ele>654</ele>
        <time>2025-08-08T14:59:27.000Z</time>
      </trkpt>
      <trkpt lat="45.78152" lon="6.313">
        <ele>653.59997558594</ele>
        <time>2025-08-08T14:59:28.000Z</time>
      </trkpt>
      <trkpt lat="45.78152" lon="6.31286">
        <ele>652.79998779297</ele>
        <time>2025-08-08T14:59:29.000Z</time>
      </trkpt>
      <trkpt lat="45.78154" lon="6.31259">
        <ele>651.79998779297</ele>
        <time>2025-08-08T14:59:31.000Z</time>
      </trkpt>
      <trkpt lat="45.78152" lon="6.31246">
        <ele>651.40002441406</ele>
        <time>2025-08-08T14:59:32.000Z</time>
      </trkpt>
      <trkpt lat="45.78147" lon="6.31236">
        <ele>650.79998779297</ele>
        <time>2025-08-08T14:59:33.000Z</time>
      </trkpt>
      <trkpt lat="45.7814" lon="6.31231">
        <ele>650</ele>
        <time>2025-08-08T14:59:34.000Z</time>
      </trkpt>
      <trkpt lat="45.78131" lon="6.31225">
        <ele>649.79998779297</ele>
        <time>2025-08-08T14:59:35.000Z</time>
      </trkpt>
      <trkpt lat="45.78112" lon="6.31223">
        <ele>648.79998779297</ele>
        <time>2025-08-08T14:59:37.000Z</time>
      </trkpt>
      <trkpt lat="45.78071" lon="6.31228">
        <ele>647.79998779297</ele>
        <time>2025-08-08T14:59:41.000Z</time>
      </trkpt>
      <trkpt lat="45.7805" lon="6.31234">
        <ele>646.20001220703</ele>
        <time>2025-08-08T14:59:43.000Z</time>
      </trkpt>
      <trkpt lat="45.78022" lon="6.31244">
        <ele>645.20001220703</ele>
        <time>2025-08-08T14:59:46.000Z</time>
      </trkpt>
      <trkpt lat="45.78013" lon="6.31242">
        <ele>644.59997558594</ele>
        <time>2025-08-08T14:59:47.000Z</time>
      </trkpt>
      <trkpt lat="45.78005" lon="6.31236">
        <ele>644.40002441406</ele>
        <time>2025-08-08T14:59:48.000Z</time>
      </trkpt>
      <trkpt lat="45.77998" lon="6.31228">
        <ele>643.59997558594</ele>
        <time>2025-08-08T14:59:49.000Z</time>
      </trkpt>
      <trkpt lat="45.77994" lon="6.31219">
        <ele>643</ele>
        <time>2025-08-08T14:59:50.000Z</time>
      </trkpt>
      <trkpt lat="45.77988" lon="6.31204">
        <ele>642.20001220703</ele>
        <time>2025-08-08T14:59:51.000Z</time>
      </trkpt>
      <trkpt lat="45.77976" lon="6.3118">
        <ele>640.79998779297</ele>
        <time>2025-08-08T14:59:53.000Z</time>
      </trkpt>
      <trkpt lat="45.77969" lon="6.31168">
        <ele>639.59997558594</ele>
        <time>2025-08-08T14:59:54.000Z</time>
      </trkpt>
      <trkpt lat="45.77956" lon="6.3115">
        <ele>638</ele>
        <time>2025-08-08T14:59:56.000Z</time>
      </trkpt>
      <trkpt lat="45.77948" lon="6.31139">
        <ele>637.59997558594</ele>
        <time>2025-08-08T14:59:57.000Z</time>
      </trkpt>
      <trkpt lat="45.77942" lon="6.31129">
        <ele>636.79998779297</ele>
        <time>2025-08-08T14:59:58.000Z</time>
      </trkpt>
      <trkpt lat="45.77934" lon="6.31119">
        <ele>636.20001220703</ele>
        <time>2025-08-08T14:59:59.000Z</time>
      </trkpt>
      <trkpt lat="45.77925" lon="6.31113">
        <ele>636</ele>
        <time>2025-08-08T15:00:00.000Z</time>
      </trkpt>
      <trkpt lat="45.77914" lon="6.3111">
        <ele>635.20001220703</ele>
        <time>2025-08-08T15:00:01.000Z</time>
      </trkpt>
      <trkpt lat="45.77892" lon="6.31112">
        <ele>634.40002441406</ele>
        <time>2025-08-08T15:00:03.000Z</time>
      </trkpt>
      <trkpt lat="45.77871" lon="6.3112">
        <ele>633.59997558594</ele>
        <time>2025-08-08T15:00:05.000Z</time>
      </trkpt>
      <trkpt lat="45.77846" lon="6.31128">
        <ele>632.40002441406</ele>
        <time>2025-08-08T15:00:07.000Z</time>
      </trkpt>
      <trkpt lat="45.77835" lon="6.31131">
        <ele>631.40002441406</ele>
        <time>2025-08-08T15:00:08.000Z</time>
      </trkpt>
      <trkpt lat="45.77825" lon="6.31133">
        <ele>630.79998779297</ele>
        <time>2025-08-08T15:00:09.000Z</time>
      </trkpt>
      <trkpt lat="45.77813" lon="6.31134">
        <ele>630</ele>
        <time>2025-08-08T15:00:10.000Z</time>
      </trkpt>
      <trkpt lat="45.77789" lon="6.31132">
        <ele>629</ele>
        <time>2025-08-08T15:00:12.000Z</time>
      </trkpt>
      <trkpt lat="45.77778" lon="6.31129">
        <ele>628.40002441406</ele>
        <time>2025-08-08T15:00:13.000Z</time>
      </trkpt>
      <trkpt lat="45.77758" lon="6.31122">
        <ele>627.40002441406</ele>
        <time>2025-08-08T15:00:15.000Z</time>
      </trkpt>
      <trkpt lat="45.77734" lon="6.3111">
        <ele>626.40002441406</ele>
        <time>2025-08-08T15:00:17.000Z</time>
      </trkpt>
      <trkpt lat="45.77703" lon="6.31099">
        <ele>625.40002441406</ele>
        <time>2025-08-08T15:00:20.000Z</time>
      </trkpt>
      <trkpt lat="45.77692" lon="6.31099">
        <ele>624.59997558594</ele>
        <time>2025-08-08T15:00:21.000Z</time>
      </trkpt>
      <trkpt lat="45.77681" lon="6.31102">
        <ele>624.20001220703</ele>
        <time>2025-08-08T15:00:22.000Z</time>
      </trkpt>
      <trkpt lat="45.77668" lon="6.31107">
        <ele>623</ele>
        <time>2025-08-08T15:00:23.000Z</time>
      </trkpt>
      <trkpt lat="45.77659" lon="6.31111">
        <ele>622.59997558594</ele>
        <time>2025-08-08T15:00:24.000Z</time>
      </trkpt>
      <trkpt lat="45.77647" lon="6.31115">
        <ele>621.20001220703</ele>
        <time>2025-08-08T15:00:25.000Z</time>
      </trkpt>
      <trkpt lat="45.77611" lon="6.31121">
        <ele>619.79998779297</ele>
        <time>2025-08-08T15:00:28.000Z</time>
      </trkpt>
      <trkpt lat="45.77591" lon="6.31122">
        <ele>618.20001220703</ele>
        <time>2025-08-08T15:00:30.000Z</time>
      </trkpt>
      <trkpt lat="45.7757" lon="6.3112">
        <ele>616.59997558594</ele>
        <time>2025-08-08T15:00:32.000Z</time>
      </trkpt>
      <trkpt lat="45.77558" lon="6.31117">
        <ele>615.79998779297</ele>
        <time>2025-08-08T15:00:33.000Z</time>
      </trkpt>
      <trkpt lat="45.7755" lon="6.31114">
        <ele>615.59997558594</ele>
        <time>2025-08-08T15:00:34.000Z</time>
      </trkpt>
      <trkpt lat="45.77537" lon="6.31107">
        <ele>614.79998779297</ele>
        <time>2025-08-08T15:00:35.000Z</time>
      </trkpt>
      <trkpt lat="45.77528" lon="6.311">
        <ele>614.79998779297</ele>
        <time>2025-08-08T15:00:36.000Z</time>
      </trkpt>
      <trkpt lat="45.77509" lon="6.31082">
        <ele>613.40002441406</ele>
        <time>2025-08-08T15:00:38.000Z</time>
      </trkpt>
      <trkpt lat="45.77483" lon="6.31056">
        <ele>611.79998779297</ele>
        <time>2025-08-08T15:00:41.000Z</time>
      </trkpt>
      <trkpt lat="45.77463" lon="6.31037">
        <ele>610.40002441406</ele>
        <time>2025-08-08T15:00:43.000Z</time>
      </trkpt>
      <trkpt lat="45.77446" lon="6.31021">
        <ele>608.79998779297</ele>
        <time>2025-08-08T15:00:45.000Z</time>
      </trkpt>
      <trkpt lat="45.77428" lon="6.31003">
        <ele>607.40002441406</ele>
        <time>2025-08-08T15:00:47.000Z</time>
      </trkpt>
      <trkpt lat="45.77416" lon="6.30992">
        <ele>607</ele>
        <time>2025-08-08T15:00:48.000Z</time>
      </trkpt>
      <trkpt lat="45.77408" lon="6.30986">
        <ele>606.40002441406</ele>
        <time>2025-08-08T15:00:49.000Z</time>
      </trkpt>
      <trkpt lat="45.77397" lon="6.3098">
        <ele>605.20001220703</ele>
        <time>2025-08-08T15:00:50.000Z</time>
      </trkpt>
      <trkpt lat="45.77387" lon="6.30975">
        <ele>604.59997558594</ele>
        <time>2025-08-08T15:00:51.000Z</time>
      </trkpt>
      <trkpt lat="45.77366" lon="6.30973">
        <ele>603.40002441406</ele>
        <time>2025-08-08T15:00:53.000Z</time>
      </trkpt>
      <trkpt lat="45.77354" lon="6.30973">
        <ele>603</ele>
        <time>2025-08-08T15:00:54.000Z</time>
      </trkpt>
      <trkpt lat="45.77345" lon="6.30973">
        <ele>602.40002441406</ele>
        <time>2025-08-08T15:00:55.000Z</time>
      </trkpt>
      <trkpt lat="45.77334" lon="6.30971">
        <ele>602</ele>
        <time>2025-08-08T15:00:56.000Z</time>
      </trkpt>
      <trkpt lat="45.77322" lon="6.30966">
        <ele>601</ele>
        <time>2025-08-08T15:00:57.000Z</time>
      </trkpt>
      <trkpt lat="45.77311" lon="6.3096">
        <ele>600.20001220703</ele>
        <time>2025-08-08T15:00:58.000Z</time>
      </trkpt>
      <trkpt lat="45.77301" lon="6.30953">
        <ele>600</ele>
        <time>2025-08-08T15:00:59.000Z</time>
      </trkpt>
      <trkpt lat="45.77284" lon="6.30936">
        <ele>599.20001220703</ele>
        <time>2025-08-08T15:01:01.000Z</time>
      </trkpt>
      <trkpt lat="45.77276" lon="6.30925">
        <ele>598.79998779297</ele>
        <time>2025-08-08T15:01:02.000Z</time>
      </trkpt>
      <trkpt lat="45.7726" lon="6.30904">
        <ele>597.40002441406</ele>
        <time>2025-08-08T15:01:04.000Z</time>
      </trkpt>
      <trkpt lat="45.7725" lon="6.30896">
        <ele>597</ele>
        <time>2025-08-08T15:01:05.000Z</time>
      </trkpt>
      <trkpt lat="45.77241" lon="6.30889">
        <ele>596.20001220703</ele>
        <time>2025-08-08T15:01:06.000Z</time>
      </trkpt>
      <trkpt lat="45.77219" lon="6.30875">
        <ele>595</ele>
        <time>2025-08-08T15:01:08.000Z</time>
      </trkpt>
      <trkpt lat="45.77193" lon="6.30858">
        <ele>593.40002441406</ele>
        <time>2025-08-08T15:01:11.000Z</time>
      </trkpt>
      <trkpt lat="45.77183" lon="6.30853">
        <ele>592.79998779297</ele>
        <time>2025-08-08T15:01:12.000Z</time>
      </trkpt>
      <trkpt lat="45.77171" lon="6.30847">
        <ele>592</ele>
        <time>2025-08-08T15:01:13.000Z</time>
      </trkpt>
      <trkpt lat="45.77154" lon="6.30839">
        <ele>590.40002441406</ele>
        <time>2025-08-08T15:01:15.000Z</time>
      </trkpt>
      <trkpt lat="45.77143" lon="6.30834">
        <ele>589.79998779297</ele>
        <time>2025-08-08T15:01:16.000Z</time>
      </trkpt>
      <trkpt lat="45.77134" lon="6.30827">
        <ele>589.40002441406</ele>
        <time>2025-08-08T15:01:17.000Z</time>
      </trkpt>
      <trkpt lat="45.77128" lon="6.3082">
        <ele>588.79998779297</ele>
        <time>2025-08-08T15:01:18.000Z</time>
      </trkpt>
      <trkpt lat="45.77105" lon="6.30793">
        <ele>587.59997558594</ele>
        <time>2025-08-08T15:01:21.000Z</time>
      </trkpt>
      <trkpt lat="45.77086" lon="6.30781">
        <ele>586.40002441406</ele>
        <time>2025-08-08T15:01:23.000Z</time>
      </trkpt>
      <trkpt lat="45.77076" lon="6.30777">
        <ele>586</ele>
        <time>2025-08-08T15:01:24.000Z</time>
      </trkpt>
      <trkpt lat="45.77066" lon="6.30774">
        <ele>585.40002441406</ele>
        <time>2025-08-08T15:01:25.000Z</time>
      </trkpt>
      <trkpt lat="45.77044" lon="6.30771">
        <ele>584.20001220703</ele>
        <time>2025-08-08T15:01:27.000Z</time>
      </trkpt>
      <trkpt lat="45.77024" lon="6.30768">
        <ele>583</ele>
        <time>2025-08-08T15:01:29.000Z</time>
      </trkpt>
      <trkpt lat="45.77004" lon="6.30765">
        <ele>582</ele>
        <time>2025-08-08T15:01:31.000Z</time>
      </trkpt>
      <trkpt lat="45.76994" lon="6.30763">
        <ele>581.20001220703</ele>
        <time>2025-08-08T15:01:32.000Z</time>
      </trkpt>
      <trkpt lat="45.76983" lon="6.30757">
        <ele>581</ele>
        <time>2025-08-08T15:01:33.000Z</time>
      </trkpt>
      <trkpt lat="45.76976" lon="6.30753">
        <ele>580.20001220703</ele>
        <time>2025-08-08T15:01:34.000Z</time>
      </trkpt>
      <trkpt lat="45.76956" lon="6.30739">
        <ele>579.20001220703</ele>
        <time>2025-08-08T15:01:36.000Z</time>
      </trkpt>
      <trkpt lat="45.76946" lon="6.30735">
        <ele>578.79998779297</ele>
        <time>2025-08-08T15:01:37.000Z</time>
      </trkpt>
      <trkpt lat="45.76929" lon="6.3073">
        <ele>578</ele>
        <time>2025-08-08T15:01:39.000Z</time>
      </trkpt>
      <trkpt lat="45.76909" lon="6.30722">
        <ele>576.59997558594</ele>
        <time>2025-08-08T15:01:41.000Z</time>
      </trkpt>
      <trkpt lat="45.76899" lon="6.30717">
        <ele>576.40002441406</ele>
        <time>2025-08-08T15:01:42.000Z</time>
      </trkpt>
      <trkpt lat="45.7688" lon="6.30704">
        <ele>575.59997558594</ele>
        <time>2025-08-08T15:01:44.000Z</time>
      </trkpt>
      <trkpt lat="45.76861" lon="6.30691">
        <ele>574.20001220703</ele>
        <time>2025-08-08T15:01:46.000Z</time>
      </trkpt>
      <trkpt lat="45.76843" lon="6.30679">
        <ele>572.59997558594</ele>
        <time>2025-08-08T15:01:48.000Z</time>
      </trkpt>
      <trkpt lat="45.76826" lon="6.30667">
        <ele>571.40002441406</ele>
        <time>2025-08-08T15:01:50.000Z</time>
      </trkpt>
      <trkpt lat="45.76809" lon="6.30656">
        <ele>570.40002441406</ele>
        <time>2025-08-08T15:01:52.000Z</time>
      </trkpt>
      <trkpt lat="45.768" lon="6.30651">
        <ele>569.79998779297</ele>
        <time>2025-08-08T15:01:53.000Z</time>
      </trkpt>
      <trkpt lat="45.76791" lon="6.30649">
        <ele>569</ele>
        <time>2025-08-08T15:01:54.000Z</time>
      </trkpt>
      <trkpt lat="45.76783" lon="6.30648">
        <ele>568.40002441406</ele>
        <time>2025-08-08T15:01:55.000Z</time>
      </trkpt>
      <trkpt lat="45.76774" lon="6.30649">
        <ele>567.79998779297</ele>
        <time>2025-08-08T15:01:56.000Z</time>
      </trkpt>
      <trkpt lat="45.76764" lon="6.30648">
        <ele>567.40002441406</ele>
        <time>2025-08-08T15:01:57.000Z</time>
      </trkpt>
      <trkpt lat="45.76755" lon="6.30646">
        <ele>567</ele>
        <time>2025-08-08T15:01:58.000Z</time>
      </trkpt>
      <trkpt lat="45.76746" lon="6.30643">
        <ele>566.59997558594</ele>
        <time>2025-08-08T15:01:59.000Z</time>
      </trkpt>
      <trkpt lat="45.76728" lon="6.30636">
        <ele>565.40002441406</ele>
        <time>2025-08-08T15:02:01.000Z</time>
      </trkpt>
      <trkpt lat="45.7672" lon="6.30634">
        <ele>565</ele>
        <time>2025-08-08T15:02:02.000Z</time>
      </trkpt>
      <trkpt lat="45.76711" lon="6.30633">
        <ele>564.20001220703</ele>
        <time>2025-08-08T15:02:03.000Z</time>
      </trkpt>
      <trkpt lat="45.76702" lon="6.30633">
        <ele>564</ele>
        <time>2025-08-08T15:02:04.000Z</time>
      </trkpt>
      <trkpt lat="45.76685" lon="6.30635">
        <ele>562.59997558594</ele>
        <time>2025-08-08T15:02:06.000Z</time>
      </trkpt>
      <trkpt lat="45.76677" lon="6.30635">
        <ele>562.20001220703</ele>
        <time>2025-08-08T15:02:07.000Z</time>
      </trkpt>
      <trkpt lat="45.76669" lon="6.30634">
        <ele>561.40002441406</ele>
        <time>2025-08-08T15:02:08.000Z</time>
      </trkpt>
      <trkpt lat="45.76649" lon="6.3063">
        <ele>560.20001220703</ele>
        <time>2025-08-08T15:02:11.000Z</time>
      </trkpt>
      <trkpt lat="45.76643" lon="6.30629">
        <ele>559.40002441406</ele>
        <time>2025-08-08T15:02:12.000Z</time>
      </trkpt>
      <trkpt lat="45.76632" lon="6.30626">
        <ele>558.40002441406</ele>
        <time>2025-08-08T15:02:14.000Z</time>
      </trkpt>
      <trkpt lat="45.76626" lon="6.30624">
        <ele>557.79998779297</ele>
        <time>2025-08-08T15:02:15.000Z</time>
      </trkpt>
      <trkpt lat="45.76613" lon="6.30622">
        <ele>557.40002441406</ele>
        <time>2025-08-08T15:02:17.000Z</time>
      </trkpt>
      <trkpt lat="45.76599" lon="6.30627">
        <ele>557</ele>
        <time>2025-08-08T15:02:19.000Z</time>
      </trkpt>
      <trkpt lat="45.76584" lon="6.30635">
        <ele>556.40002441406</ele>
        <time>2025-08-08T15:02:21.000Z</time>
      </trkpt>
      <trkpt lat="45.76562" lon="6.30654">
        <ele>555</ele>
        <time>2025-08-08T15:02:24.000Z</time>
      </trkpt>
      <trkpt lat="45.76553" lon="6.30657">
        <ele>554.40002441406</ele>
        <time>2025-08-08T15:02:25.000Z</time>
      </trkpt>
      <trkpt lat="45.76545" lon="6.30661">
        <ele>553.79998779297</ele>
        <time>2025-08-08T15:02:26.000Z</time>
      </trkpt>
      <trkpt lat="45.76528" lon="6.30667">
        <ele>552.79998779297</ele>
        <time>2025-08-08T15:02:28.000Z</time>
      </trkpt>
      <trkpt lat="45.76506" lon="6.30675">
        <ele>551.79998779297</ele>
        <time>2025-08-08T15:02:31.000Z</time>
      </trkpt>
      <trkpt lat="45.76498" lon="6.30677">
        <ele>551.40002441406</ele>
        <time>2025-08-08T15:02:32.000Z</time>
      </trkpt>
      <trkpt lat="45.76491" lon="6.3068">
        <ele>550.79998779297</ele>
        <time>2025-08-08T15:02:33.000Z</time>
      </trkpt>
      <trkpt lat="45.76485" lon="6.30683">
        <ele>551</ele>
        <time>2025-08-08T15:02:34.000Z</time>
      </trkpt>
      <trkpt lat="45.76478" lon="6.30686">
        <ele>550.59997558594</ele>
        <time>2025-08-08T15:02:35.000Z</time>
      </trkpt>
      <trkpt lat="45.76471" lon="6.30686">
        <ele>550.59997558594</ele>
        <time>2025-08-08T15:02:36.000Z</time>
      </trkpt>
      <trkpt lat="45.76465" lon="6.30687">
        <ele>550.40002441406</ele>
        <time>2025-08-08T15:02:37.000Z</time>
      </trkpt>
      <trkpt lat="45.7646" lon="6.3069">
        <ele>550.20001220703</ele>
        <time>2025-08-08T15:02:38.000Z</time>
      </trkpt>
      <trkpt lat="45.76458" lon="6.30697">
        <ele>550</ele>
        <time>2025-08-08T15:02:39.000Z</time>
      </trkpt>
      <trkpt lat="45.76458" lon="6.30704">
        <ele>549.79998779297</ele>
        <time>2025-08-08T15:02:40.000Z</time>
      </trkpt>
      <trkpt lat="45.7646" lon="6.30711">
        <ele>549.79998779297</ele>
        <time>2025-08-08T15:02:41.000Z</time>
      </trkpt>
      <trkpt lat="45.76468" lon="6.30722">
        <ele>549.59997558594</ele>
        <time>2025-08-08T15:02:43.000Z</time>
      </trkpt>
      <trkpt lat="45.76472" lon="6.30728">
        <ele>549.59997558594</ele>
        <time>2025-08-08T15:02:44.000Z</time>
      </trkpt>
      <trkpt lat="45.76479" lon="6.30741">
        <ele>549.59997558594</ele>
        <time>2025-08-08T15:02:46.000Z</time>
      </trkpt>
      <trkpt lat="45.76482" lon="6.30749">
        <ele>549.59997558594</ele>
        <time>2025-08-08T15:02:47.000Z</time>
      </trkpt>
      <trkpt lat="45.765" lon="6.30801">
        <ele>550</ele>
        <time>2025-08-08T15:02:54.000Z</time>
      </trkpt>
      <trkpt lat="45.76503" lon="6.30817">
        <ele>550.20001220703</ele>
        <time>2025-08-08T15:02:56.000Z</time>
      </trkpt>
      <trkpt lat="45.76504" lon="6.30842">
        <ele>550.40002441406</ele>
        <time>2025-08-08T15:02:59.000Z</time>
      </trkpt>
      <trkpt lat="45.76499" lon="6.30882">
        <ele>550.59997558594</ele>
        <time>2025-08-08T15:03:04.000Z</time>
      </trkpt>
      <trkpt lat="45.76496" lon="6.3089">
        <ele>550.79998779297</ele>
        <time>2025-08-08T15:03:05.000Z</time>
      </trkpt>
      <trkpt lat="45.76479" lon="6.30927">
        <ele>550.79998779297</ele>
        <time>2025-08-08T15:03:10.000Z</time>
      </trkpt>
      <trkpt lat="45.76475" lon="6.30933">
        <ele>550.79998779297</ele>
        <time>2025-08-08T15:03:11.000Z</time>
      </trkpt>
      <trkpt lat="45.76453" lon="6.30956">
        <ele>550.40002441406</ele>
        <time>2025-08-08T15:03:15.000Z</time>
      </trkpt>
      <trkpt lat="45.76412" lon="6.30991">
        <ele>549.40002441406</ele>
        <time>2025-08-08T15:03:22.000Z</time>
      </trkpt>
      <trkpt lat="45.76406" lon="6.30997">
        <ele>549.20001220703</ele>
        <time>2025-08-08T15:03:23.000Z</time>
      </trkpt>
      <trkpt lat="45.76381" lon="6.31021">
        <ele>548.79998779297</ele>
        <time>2025-08-08T15:03:27.000Z</time>
      </trkpt>
      <trkpt lat="45.76354" lon="6.31044">
        <ele>547.79998779297</ele>
        <time>2025-08-08T15:03:31.000Z</time>
      </trkpt>
      <trkpt lat="45.76328" lon="6.31072">
        <ele>546.79998779297</ele>
        <time>2025-08-08T15:03:35.000Z</time>
      </trkpt>
      <trkpt lat="45.763" lon="6.31114">
        <ele>546.20001220703</ele>
        <time>2025-08-08T15:03:40.000Z</time>
      </trkpt>
      <trkpt lat="45.76289" lon="6.31132">
        <ele>546</ele>
        <time>2025-08-08T15:03:42.000Z</time>
      </trkpt>
      <trkpt lat="45.76255" lon="6.31197">
        <ele>544.59997558594</ele>
        <time>2025-08-08T15:03:49.000Z</time>
      </trkpt>
      <trkpt lat="45.76251" lon="6.31206">
        <ele>544.40002441406</ele>
        <time>2025-08-08T15:03:50.000Z</time>
      </trkpt>
      <trkpt lat="45.76223" lon="6.31259">
        <ele>543.59997558594</ele>
        <time>2025-08-08T15:03:56.000Z</time>
      </trkpt>
      <trkpt lat="45.76209" lon="6.31287">
        <ele>543.40002441406</ele>
        <time>2025-08-08T15:03:59.000Z</time>
      </trkpt>
      <trkpt lat="45.762" lon="6.31304">
        <ele>542.79998779297</ele>
        <time>2025-08-08T15:04:01.000Z</time>
      </trkpt>
      <trkpt lat="45.76168" lon="6.31365">
        <ele>541.79998779297</ele>
        <time>2025-08-08T15:04:08.000Z</time>
      </trkpt>
      <trkpt lat="45.76158" lon="6.31382">
        <ele>541.59997558594</ele>
        <time>2025-08-08T15:04:10.000Z</time>
      </trkpt>
      <trkpt lat="45.76135" lon="6.31427">
        <ele>540.79998779297</ele>
        <time>2025-08-08T15:04:15.000Z</time>
      </trkpt>
      <trkpt lat="45.76111" lon="6.3147">
        <ele>540.20001220703</ele>
        <time>2025-08-08T15:04:20.000Z</time>
      </trkpt>
      <trkpt lat="45.76091" lon="6.31507">
        <ele>539.59997558594</ele>
        <time>2025-08-08T15:04:24.000Z</time>
      </trkpt>
      <trkpt lat="45.76078" lon="6.31537">
        <ele>539.20001220703</ele>
        <time>2025-08-08T15:04:27.000Z</time>
      </trkpt>
      <trkpt lat="45.76053" lon="6.31585">
        <ele>538.40002441406</ele>
        <time>2025-08-08T15:04:32.000Z</time>
      </trkpt>
      <trkpt lat="45.76043" lon="6.31604">
        <ele>538</ele>
        <time>2025-08-08T15:04:34.000Z</time>
      </trkpt>
      <trkpt lat="45.76017" lon="6.31652">
        <ele>537</ele>
        <time>2025-08-08T15:04:39.000Z</time>
      </trkpt>
      <trkpt lat="45.75995" lon="6.31689">
        <ele>536.59997558594</ele>
        <time>2025-08-08T15:04:43.000Z</time>
      </trkpt>
      <trkpt lat="45.75973" lon="6.31734">
        <ele>536.20001220703</ele>
        <time>2025-08-08T15:04:48.000Z</time>
      </trkpt>
      <trkpt lat="45.75965" lon="6.3175">
        <ele>536</ele>
        <time>2025-08-08T15:04:50.000Z</time>
      </trkpt>
      <trkpt lat="45.7596" lon="6.31758">
        <ele>535.79998779297</ele>
        <time>2025-08-08T15:04:51.000Z</time>
      </trkpt>
      <trkpt lat="45.7595" lon="6.3177">
        <ele>535.79998779297</ele>
        <time>2025-08-08T15:04:53.000Z</time>
      </trkpt>
      <trkpt lat="45.75944" lon="6.31773">
        <ele>535.59997558594</ele>
        <time>2025-08-08T15:04:54.000Z</time>
      </trkpt>
      <trkpt lat="45.75931" lon="6.31777">
        <ele>535.79998779297</ele>
        <time>2025-08-08T15:04:56.000Z</time>
      </trkpt>
      <trkpt lat="45.75922" lon="6.31786">
        <ele>535.79998779297</ele>
        <time>2025-08-08T15:04:58.000Z</time>
      </trkpt>
      <trkpt lat="45.75919" lon="6.31803">
        <ele>535.79998779297</ele>
        <time>2025-08-08T15:05:00.000Z</time>
      </trkpt>
      <trkpt lat="45.75925" lon="6.31816">
        <ele>535.59997558594</ele>
        <time>2025-08-08T15:05:02.000Z</time>
      </trkpt>
      <trkpt lat="45.7593" lon="6.31821">
        <ele>535.59997558594</ele>
        <time>2025-08-08T15:05:03.000Z</time>
      </trkpt>
      <trkpt lat="45.75933" lon="6.31826">
        <ele>535.40002441406</ele>
        <time>2025-08-08T15:05:04.000Z</time>
      </trkpt>
      <trkpt lat="45.75934" lon="6.31835">
        <ele>535.40002441406</ele>
        <time>2025-08-08T15:05:06.000Z</time>
      </trkpt>
      <trkpt lat="45.75932" lon="6.31841">
        <ele>535.20001220703</ele>
        <time>2025-08-08T15:05:08.000Z</time>
      </trkpt>
      <trkpt lat="45.75932" lon="6.31846">
        <ele>535.20001220703</ele>
        <time>2025-08-08T15:05:09.000Z</time>
      </trkpt>
      <trkpt lat="45.75934" lon="6.31858">
        <ele>535</ele>
        <time>2025-08-08T15:05:11.000Z</time>
      </trkpt>
      <trkpt lat="45.75934" lon="6.31873">
        <ele>534.79998779297</ele>
        <time>2025-08-08T15:05:13.000Z</time>
      </trkpt>
      <trkpt lat="45.75927" lon="6.31887">
        <ele>534.79998779297</ele>
        <time>2025-08-08T15:05:15.000Z</time>
      </trkpt>
      <trkpt lat="45.75923" lon="6.31893">
        <ele>534.59997558594</ele>
        <time>2025-08-08T15:05:16.000Z</time>
      </trkpt>
      <trkpt lat="45.75912" lon="6.31905">
        <ele>534.40002441406</ele>
        <time>2025-08-08T15:05:18.000Z</time>
      </trkpt>
      <trkpt lat="45.75892" lon="6.31931">
        <ele>533.59997558594</ele>
        <time>2025-08-08T15:05:22.000Z</time>
      </trkpt>
      <trkpt lat="45.75887" lon="6.31938">
        <ele>533.40002441406</ele>
        <time>2025-08-08T15:05:23.000Z</time>
      </trkpt>
      <trkpt lat="45.75871" lon="6.31968">
        <ele>532.59997558594</ele>
        <time>2025-08-08T15:05:27.000Z</time>
      </trkpt>
      <trkpt lat="45.7586" lon="6.3198">
        <ele>532.20001220703</ele>
        <time>2025-08-08T15:05:29.000Z</time>
      </trkpt>
      <trkpt lat="45.7585" lon="6.3199">
        <ele>532</ele>
        <time>2025-08-08T15:05:31.000Z</time>
      </trkpt>
      <trkpt lat="45.75846" lon="6.31995">
        <ele>532</ele>
        <time>2025-08-08T15:05:32.000Z</time>
      </trkpt>
      <trkpt lat="45.75827" lon="6.32017">
        <ele>532.20001220703</ele>
        <time>2025-08-08T15:05:37.000Z</time>
      </trkpt>
      <trkpt lat="45.75827" lon="6.32026">
        <ele>532.20001220703</ele>
        <time>2025-08-08T15:05:39.000Z</time>
      </trkpt>
      <trkpt lat="45.75828" lon="6.32031">
        <ele>532.40002441406</ele>
        <time>2025-08-08T15:05:40.000Z</time>
      </trkpt>
      <trkpt lat="45.75843" lon="6.32065">
        <ele>533</ele>
        <time>2025-08-08T15:05:46.000Z</time>
      </trkpt>
      <trkpt lat="45.75863" lon="6.32107">
        <ele>533.40002441406</ele>
        <time>2025-08-08T15:05:52.000Z</time>
      </trkpt>
      <trkpt lat="45.75893" lon="6.32168">
        <ele>533.20001220703</ele>
        <time>2025-08-08T15:06:00.000Z</time>
      </trkpt>
      <trkpt lat="45.75912" lon="6.3222">
        <ele>533</ele>
        <time>2025-08-08T15:06:06.000Z</time>
      </trkpt>
      <trkpt lat="45.75938" lon="6.32296">
        <ele>532</ele>
        <time>2025-08-08T15:06:14.000Z</time>
      </trkpt>
      <trkpt lat="45.75941" lon="6.32306">
        <ele>531.79998779297</ele>
        <time>2025-08-08T15:06:15.000Z</time>
      </trkpt>
      <trkpt lat="45.75962" lon="6.32378">
        <ele>530.79998779297</ele>
        <time>2025-08-08T15:06:22.000Z</time>
      </trkpt>
      <trkpt lat="45.75964" lon="6.32389">
        <ele>530.79998779297</ele>
        <time>2025-08-08T15:06:23.000Z</time>
      </trkpt>
      <trkpt lat="45.75969" lon="6.3241">
        <ele>530.59997558594</ele>
        <time>2025-08-08T15:06:25.000Z</time>
      </trkpt>
      <trkpt lat="45.75983" lon="6.32475">
        <ele>529.40002441406</ele>
        <time>2025-08-08T15:06:31.000Z</time>
      </trkpt>
      <trkpt lat="45.75987" lon="6.32497">
        <ele>529</ele>
        <time>2025-08-08T15:06:33.000Z</time>
      </trkpt>
      <trkpt lat="45.75991" lon="6.32515">
        <ele>528.79998779297</ele>
        <time>2025-08-08T15:06:35.000Z</time>
      </trkpt>
      <trkpt lat="45.75993" lon="6.32523">
        <ele>528.59997558594</ele>
        <time>2025-08-08T15:06:36.000Z</time>
      </trkpt>
      <trkpt lat="45.75995" lon="6.3253">
        <ele>528.40002441406</ele>
        <time>2025-08-08T15:06:37.000Z</time>
      </trkpt>
      <trkpt lat="45.76" lon="6.32559">
        <ele>527.79998779297</ele>
        <time>2025-08-08T15:06:41.000Z</time>
      </trkpt>
      <trkpt lat="45.76003" lon="6.32575">
        <ele>527.59997558594</ele>
        <time>2025-08-08T15:06:43.000Z</time>
      </trkpt>
      <trkpt lat="45.76008" lon="6.32604">
        <ele>527.20001220703</ele>
        <time>2025-08-08T15:06:46.000Z</time>
      </trkpt>
      <trkpt lat="45.76022" lon="6.32677">
        <ele>526.59997558594</ele>
        <time>2025-08-08T15:06:53.000Z</time>
      </trkpt>
      <trkpt lat="45.76024" lon="6.32688">
        <ele>526.40002441406</ele>
        <time>2025-08-08T15:06:54.000Z</time>
      </trkpt>
      <trkpt lat="45.76033" lon="6.32734">
        <ele>525.59997558594</ele>
        <time>2025-08-08T15:06:58.000Z</time>
      </trkpt>
      <trkpt lat="45.76042" lon="6.3278">
        <ele>525</ele>
        <time>2025-08-08T15:07:02.000Z</time>
      </trkpt>
      <trkpt lat="45.76051" lon="6.32827">
        <ele>524.40002441406</ele>
        <time>2025-08-08T15:07:06.000Z</time>
      </trkpt>
      <trkpt lat="45.76064" lon="6.32898">
        <ele>523.59997558594</ele>
        <time>2025-08-08T15:07:12.000Z</time>
      </trkpt>
      <trkpt lat="45.76073" lon="6.32946">
        <ele>522.79998779297</ele>
        <time>2025-08-08T15:07:16.000Z</time>
      </trkpt>
      <trkpt lat="45.7608" lon="6.32981">
        <ele>522.40002441406</ele>
        <time>2025-08-08T15:07:19.000Z</time>
      </trkpt>
      <trkpt lat="45.76092" lon="6.33041">
        <ele>521.40002441406</ele>
        <time>2025-08-08T15:07:24.000Z</time>
      </trkpt>
      <trkpt lat="45.76107" lon="6.33125">
        <ele>520.79998779297</ele>
        <time>2025-08-08T15:07:31.000Z</time>
      </trkpt>
      <trkpt lat="45.76112" lon="6.33151">
        <ele>520.20001220703</ele>
        <time>2025-08-08T15:07:33.000Z</time>
      </trkpt>
      <trkpt lat="45.76115" lon="6.33164">
        <ele>520.20001220703</ele>
        <time>2025-08-08T15:07:34.000Z</time>
      </trkpt>
      <trkpt lat="45.76129" lon="6.33239">
        <ele>519</ele>
        <time>2025-08-08T15:07:40.000Z</time>
      </trkpt>
      <trkpt lat="45.76141" lon="6.33302">
        <ele>518.20001220703</ele>
        <time>2025-08-08T15:07:45.000Z</time>
      </trkpt>
      <trkpt lat="45.76156" lon="6.33379">
        <ele>517</ele>
        <time>2025-08-08T15:07:51.000Z</time>
      </trkpt>
      <trkpt lat="45.76168" lon="6.33445">
        <ele>515.79998779297</ele>
        <time>2025-08-08T15:07:56.000Z</time>
      </trkpt>
      <trkpt lat="45.76171" lon="6.33458">
        <ele>515.59997558594</ele>
        <time>2025-08-08T15:07:57.000Z</time>
      </trkpt>
      <trkpt lat="45.76183" lon="6.33524">
        <ele>514.59997558594</ele>
        <time>2025-08-08T15:08:02.000Z</time>
      </trkpt>
      <trkpt lat="45.76193" lon="6.3357">
        <ele>513.79998779297</ele>
        <time>2025-08-08T15:08:06.000Z</time>
      </trkpt>
      <trkpt lat="45.76195" lon="6.33579">
        <ele>513.59997558594</ele>
        <time>2025-08-08T15:08:07.000Z</time>
      </trkpt>
      <trkpt lat="45.76198" lon="6.33596">
        <ele>512.79998779297</ele>
        <time>2025-08-08T15:08:09.000Z</time>
      </trkpt>
      <trkpt lat="45.76199" lon="6.33603">
        <ele>512.79998779297</ele>
        <time>2025-08-08T15:08:10.000Z</time>
      </trkpt>
      <trkpt lat="45.76201" lon="6.33617">
        <ele>512.40002441406</ele>
        <time>2025-08-08T15:08:12.000Z</time>
      </trkpt>
      <trkpt lat="45.76208" lon="6.33654">
        <ele>511.79998779297</ele>
        <time>2025-08-08T15:08:16.000Z</time>
      </trkpt>
      <trkpt lat="45.76217" lon="6.337">
        <ele>511.39999389648</ele>
        <time>2025-08-08T15:08:20.000Z</time>
      </trkpt>
      <trkpt lat="45.76219" lon="6.33712">
        <ele>511.39999389648</ele>
        <time>2025-08-08T15:08:21.000Z</time>
      </trkpt>
      <trkpt lat="45.7623" lon="6.33773">
        <ele>510.39999389648</ele>
        <time>2025-08-08T15:08:26.000Z</time>
      </trkpt>
      <trkpt lat="45.76235" lon="6.33797">
        <ele>510</ele>
        <time>2025-08-08T15:08:28.000Z</time>
      </trkpt>
      <trkpt lat="45.76244" lon="6.33845">
        <ele>509.20001220703</ele>
        <time>2025-08-08T15:08:32.000Z</time>
      </trkpt>
      <trkpt lat="45.76255" lon="6.33903">
        <ele>508.20001220703</ele>
        <time>2025-08-08T15:08:37.000Z</time>
      </trkpt>
      <trkpt lat="45.76257" lon="6.33914">
        <ele>508.20001220703</ele>
        <time>2025-08-08T15:08:38.000Z</time>
      </trkpt>
      <trkpt lat="45.76272" lon="6.33992">
        <ele>507</ele>
        <time>2025-08-08T15:08:45.000Z</time>
      </trkpt>
      <trkpt lat="45.76279" lon="6.34028">
        <ele>506.20001220703</ele>
        <time>2025-08-08T15:08:48.000Z</time>
      </trkpt>
      <trkpt lat="45.76283" lon="6.34049">
        <ele>505.79998779297</ele>
        <time>2025-08-08T15:08:50.000Z</time>
      </trkpt>
      <trkpt lat="45.76294" lon="6.34106">
        <ele>505.20001220703</ele>
        <time>2025-08-08T15:08:55.000Z</time>
      </trkpt>
      <trkpt lat="45.76295" lon="6.34121">
        <ele>505</ele>
        <time>2025-08-08T15:08:56.000Z</time>
      </trkpt>
      <trkpt lat="45.76295" lon="6.3413">
        <ele>504.79998779297</ele>
        <time>2025-08-08T15:08:57.000Z</time>
      </trkpt>
      <trkpt lat="45.76296" lon="6.34142">
        <ele>504.60000610352</ele>
        <time>2025-08-08T15:08:58.000Z</time>
      </trkpt>
      <trkpt lat="45.76298" lon="6.34154">
        <ele>504.20001220703</ele>
        <time>2025-08-08T15:08:59.000Z</time>
      </trkpt>
      <trkpt lat="45.76302" lon="6.3418">
        <ele>503.79998779297</ele>
        <time>2025-08-08T15:09:01.000Z</time>
      </trkpt>
      <trkpt lat="45.76311" lon="6.34225">
        <ele>502.79998779297</ele>
        <time>2025-08-08T15:09:06.000Z</time>
      </trkpt>
      <trkpt lat="45.76312" lon="6.34231">
        <ele>502.60000610352</ele>
        <time>2025-08-08T15:09:07.000Z</time>
      </trkpt>
      <trkpt lat="45.76314" lon="6.34251">
        <ele>502</ele>
        <time>2025-08-08T15:09:10.000Z</time>
      </trkpt>
      <trkpt lat="45.76313" lon="6.3426">
        <ele>501.79998779297</ele>
        <time>2025-08-08T15:09:11.000Z</time>
      </trkpt>
      <trkpt lat="45.76312" lon="6.34267">
        <ele>501.60000610352</ele>
        <time>2025-08-08T15:09:12.000Z</time>
      </trkpt>
      <trkpt lat="45.76309" lon="6.34281">
        <ele>501.60000610352</ele>
        <time>2025-08-08T15:09:14.000Z</time>
      </trkpt>
      <trkpt lat="45.7631" lon="6.34289">
        <ele>501.39999389648</ele>
        <time>2025-08-08T15:09:15.000Z</time>
      </trkpt>
      <trkpt lat="45.76317" lon="6.34325">
        <ele>501</ele>
        <time>2025-08-08T15:09:19.000Z</time>
      </trkpt>
      <trkpt lat="45.76321" lon="6.34337">
        <ele>501</ele>
        <time>2025-08-08T15:09:20.000Z</time>
      </trkpt>
      <trkpt lat="45.76326" lon="6.34345">
        <ele>501</ele>
        <time>2025-08-08T15:09:21.000Z</time>
      </trkpt>
      <trkpt lat="45.7634" lon="6.34368">
        <ele>500.79998779297</ele>
        <time>2025-08-08T15:09:24.000Z</time>
      </trkpt>
      <trkpt lat="45.76346" lon="6.34391">
        <ele>500.79998779297</ele>
        <time>2025-08-08T15:09:26.000Z</time>
      </trkpt>
      <trkpt lat="45.76348" lon="6.34401">
        <ele>500.79998779297</ele>
        <time>2025-08-08T15:09:27.000Z</time>
      </trkpt>
      <trkpt lat="45.76354" lon="6.34434">
        <ele>500.60000610352</ele>
        <time>2025-08-08T15:09:30.000Z</time>
      </trkpt>
      <trkpt lat="45.76368" lon="6.34508">
        <ele>500.39999389648</ele>
        <time>2025-08-08T15:09:37.000Z</time>
      </trkpt>
      <trkpt lat="45.76384" lon="6.34592">
        <ele>500</ele>
        <time>2025-08-08T15:09:45.000Z</time>
      </trkpt>
      <trkpt lat="45.76389" lon="6.34613">
        <ele>499.79998779297</ele>
        <time>2025-08-08T15:09:47.000Z</time>
      </trkpt>
      <trkpt lat="45.76395" lon="6.34647">
        <ele>499.60000610352</ele>
        <time>2025-08-08T15:09:50.000Z</time>
      </trkpt>
      <trkpt lat="45.76411" lon="6.34731">
        <ele>499.20001220703</ele>
        <time>2025-08-08T15:09:58.000Z</time>
      </trkpt>
      <trkpt lat="45.76415" lon="6.34754">
        <ele>499</ele>
        <time>2025-08-08T15:10:00.000Z</time>
      </trkpt>
      <trkpt lat="45.76422" lon="6.34787">
        <ele>498.79998779297</ele>
        <time>2025-08-08T15:10:03.000Z</time>
      </trkpt>
      <trkpt lat="45.76436" lon="6.34857">
        <ele>498</ele>
        <time>2025-08-08T15:10:10.000Z</time>
      </trkpt>
      <trkpt lat="45.76439" lon="6.34867">
        <ele>497.79998779297</ele>
        <time>2025-08-08T15:10:11.000Z</time>
      </trkpt>
      <trkpt lat="45.76447" lon="6.34915">
        <ele>497.20001220703</ele>
        <time>2025-08-08T15:10:16.000Z</time>
      </trkpt>
      <trkpt lat="45.7645" lon="6.34936">
        <ele>497.20001220703</ele>
        <time>2025-08-08T15:10:18.000Z</time>
      </trkpt>
      <trkpt lat="45.76458" lon="6.3498">
        <ele>496.60000610352</ele>
        <time>2025-08-08T15:10:22.000Z</time>
      </trkpt>
      <trkpt lat="45.76467" lon="6.35025">
        <ele>496</ele>
        <time>2025-08-08T15:10:26.000Z</time>
      </trkpt>
      <trkpt lat="45.76476" lon="6.3507">
        <ele>495.60000610352</ele>
        <time>2025-08-08T15:10:30.000Z</time>
      </trkpt>
      <trkpt lat="45.76486" lon="6.35125">
        <ele>495.20001220703</ele>
        <time>2025-08-08T15:10:35.000Z</time>
      </trkpt>
      <trkpt lat="45.76491" lon="6.35147">
        <ele>494.79998779297</ele>
        <time>2025-08-08T15:10:37.000Z</time>
      </trkpt>
      <trkpt lat="45.76506" lon="6.3523">
        <ele>494.79998779297</ele>
        <time>2025-08-08T15:10:45.000Z</time>
      </trkpt>
      <trkpt lat="45.7651" lon="6.35251">
        <ele>494.60000610352</ele>
        <time>2025-08-08T15:10:47.000Z</time>
      </trkpt>
      <trkpt lat="45.76523" lon="6.35321">
        <ele>494.60000610352</ele>
        <time>2025-08-08T15:10:54.000Z</time>
      </trkpt>
      <trkpt lat="45.76527" lon="6.35362">
        <ele>494.39999389648</ele>
        <time>2025-08-08T15:10:58.000Z</time>
      </trkpt>
      <trkpt lat="45.76529" lon="6.35382">
        <ele>494.39999389648</ele>
        <time>2025-08-08T15:11:00.000Z</time>
      </trkpt>
      <trkpt lat="45.76531" lon="6.35462">
        <ele>494.20001220703</ele>
        <time>2025-08-08T15:11:08.000Z</time>
      </trkpt>
      <trkpt lat="45.76529" lon="6.35546">
        <ele>493.79998779297</ele>
        <time>2025-08-08T15:11:16.000Z</time>
      </trkpt>
      <trkpt lat="45.76529" lon="6.35577">
        <ele>493.79998779297</ele>
        <time>2025-08-08T15:11:19.000Z</time>
      </trkpt>
      <trkpt lat="45.76528" lon="6.35599">
        <ele>493.60000610352</ele>
        <time>2025-08-08T15:11:21.000Z</time>
      </trkpt>
      <trkpt lat="45.76527" lon="6.35682">
        <ele>493.20001220703</ele>
        <time>2025-08-08T15:11:29.000Z</time>
      </trkpt>
      <trkpt lat="45.76526" lon="6.35715">
        <ele>493.20001220703</ele>
        <time>2025-08-08T15:11:32.000Z</time>
      </trkpt>
      <trkpt lat="45.76523" lon="6.35796">
        <ele>493</ele>
        <time>2025-08-08T15:11:40.000Z</time>
      </trkpt>
      <trkpt lat="45.76523" lon="6.35806">
        <ele>493</ele>
        <time>2025-08-08T15:11:41.000Z</time>
      </trkpt>
      <trkpt lat="45.76524" lon="6.3589">
        <ele>492.79998779297</ele>
        <time>2025-08-08T15:11:49.000Z</time>
      </trkpt>
      <trkpt lat="45.76525" lon="6.35903">
        <ele>492.79998779297</ele>
        <time>2025-08-08T15:11:50.000Z</time>
      </trkpt>
      <trkpt lat="45.76526" lon="6.35981">
        <ele>492.20001220703</ele>
        <time>2025-08-08T15:11:57.000Z</time>
      </trkpt>
      <trkpt lat="45.76526" lon="6.3599">
        <ele>492.20001220703</ele>
        <time>2025-08-08T15:11:58.000Z</time>
      </trkpt>
      <trkpt lat="45.76526" lon="6.36071">
        <ele>492</ele>
        <time>2025-08-08T15:12:05.000Z</time>
      </trkpt>
      <trkpt lat="45.76526" lon="6.36082">
        <ele>491.79998779297</ele>
        <time>2025-08-08T15:12:06.000Z</time>
      </trkpt>
      <trkpt lat="45.76528" lon="6.36162">
        <ele>490.79998779297</ele>
        <time>2025-08-08T15:12:13.000Z</time>
      </trkpt>
      <trkpt lat="45.76529" lon="6.36173">
        <ele>490.79998779297</ele>
        <time>2025-08-08T15:12:14.000Z</time>
      </trkpt>
      <trkpt lat="45.7653" lon="6.36185">
        <ele>490.60000610352</ele>
        <time>2025-08-08T15:12:15.000Z</time>
      </trkpt>
      <trkpt lat="45.7654" lon="6.36265">
        <ele>489.79998779297</ele>
        <time>2025-08-08T15:12:22.000Z</time>
      </trkpt>
      <trkpt lat="45.76542" lon="6.36277">
        <ele>489.79998779297</ele>
        <time>2025-08-08T15:12:23.000Z</time>
      </trkpt>
      <trkpt lat="45.76553" lon="6.36321">
        <ele>489.39999389648</ele>
        <time>2025-08-08T15:12:27.000Z</time>
      </trkpt>
      <trkpt lat="45.76559" lon="6.36343">
        <ele>489</ele>
        <time>2025-08-08T15:12:29.000Z</time>
      </trkpt>
      <trkpt lat="45.7658" lon="6.3641">
        <ele>488.39999389648</ele>
        <time>2025-08-08T15:12:35.000Z</time>
      </trkpt>
      <trkpt lat="45.76583" lon="6.36418">
        <ele>488.39999389648</ele>
        <time>2025-08-08T15:12:36.000Z</time>
      </trkpt>
      <trkpt lat="45.7661" lon="6.36493">
        <ele>487.79998779297</ele>
        <time>2025-08-08T15:12:43.000Z</time>
      </trkpt>
      <trkpt lat="45.76622" lon="6.36525">
        <ele>487.39999389648</ele>
        <time>2025-08-08T15:12:46.000Z</time>
      </trkpt>
      <trkpt lat="45.76646" lon="6.366">
        <ele>487.20001220703</ele>
        <time>2025-08-08T15:12:53.000Z</time>
      </trkpt>
      <trkpt lat="45.76666" lon="6.3668">
        <ele>486.79998779297</ele>
        <time>2025-08-08T15:13:00.000Z</time>
      </trkpt>
      <trkpt lat="45.76671" lon="6.36702">
        <ele>486.79998779297</ele>
        <time>2025-08-08T15:13:02.000Z</time>
      </trkpt>
      <trkpt lat="45.76673" lon="6.36711">
        <ele>486.39999389648</ele>
        <time>2025-08-08T15:13:03.000Z</time>
      </trkpt>
      <trkpt lat="45.76685" lon="6.3679">
        <ele>485.60000610352</ele>
        <time>2025-08-08T15:13:10.000Z</time>
      </trkpt>
      <trkpt lat="45.76689" lon="6.36873">
        <ele>485</ele>
        <time>2025-08-08T15:13:17.000Z</time>
      </trkpt>
      <trkpt lat="45.7669" lon="6.36897">
        <ele>484.39999389648</ele>
        <time>2025-08-08T15:13:19.000Z</time>
      </trkpt>
      <trkpt lat="45.76689" lon="6.36958">
        <ele>484.20001220703</ele>
        <time>2025-08-08T15:13:24.000Z</time>
      </trkpt>
      <trkpt lat="45.76688" lon="6.37044">
        <ele>483.39999389648</ele>
        <time>2025-08-08T15:13:31.000Z</time>
      </trkpt>
      <trkpt lat="45.76688" lon="6.37056">
        <ele>483.39999389648</ele>
        <time>2025-08-08T15:13:32.000Z</time>
      </trkpt>
      <trkpt lat="45.76686" lon="6.37143">
        <ele>483</ele>
        <time>2025-08-08T15:13:39.000Z</time>
      </trkpt>
      <trkpt lat="45.76685" lon="6.37155">
        <ele>482.79998779297</ele>
        <time>2025-08-08T15:13:40.000Z</time>
      </trkpt>
      <trkpt lat="45.76684" lon="6.37192">
        <ele>482.60000610352</ele>
        <time>2025-08-08T15:13:43.000Z</time>
      </trkpt>
      <trkpt lat="45.76682" lon="6.3728">
        <ele>481.79998779297</ele>
        <time>2025-08-08T15:13:50.000Z</time>
      </trkpt>
      <trkpt lat="45.76681" lon="6.3733">
        <ele>481.60000610352</ele>
        <time>2025-08-08T15:13:54.000Z</time>
      </trkpt>
      <trkpt lat="45.7668" lon="6.37401">
        <ele>481</ele>
        <time>2025-08-08T15:14:00.000Z</time>
      </trkpt>
      <trkpt lat="45.7668" lon="6.37437">
        <ele>480.60000610352</ele>
        <time>2025-08-08T15:14:03.000Z</time>
      </trkpt>
      <trkpt lat="45.76679" lon="6.37484">
        <ele>480.39999389648</ele>
        <time>2025-08-08T15:14:07.000Z</time>
      </trkpt>
      <trkpt lat="45.76677" lon="6.37565">
        <ele>480.39999389648</ele>
        <time>2025-08-08T15:14:14.000Z</time>
      </trkpt>
      <trkpt lat="45.76676" lon="6.37591">
        <ele>480.20001220703</ele>
        <time>2025-08-08T15:14:16.000Z</time>
      </trkpt>
      <trkpt lat="45.76673" lon="6.37672">
        <ele>480.20001220703</ele>
        <time>2025-08-08T15:14:23.000Z</time>
      </trkpt>
      <trkpt lat="45.76672" lon="6.37695">
        <ele>480.20001220703</ele>
        <time>2025-08-08T15:14:25.000Z</time>
      </trkpt>
      <trkpt lat="45.76667" lon="6.37776">
        <ele>480</ele>
        <time>2025-08-08T15:14:32.000Z</time>
      </trkpt>
      <trkpt lat="45.76666" lon="6.37787">
        <ele>480</ele>
        <time>2025-08-08T15:14:33.000Z</time>
      </trkpt>
      <trkpt lat="45.76662" lon="6.37821">
        <ele>479.79998779297</ele>
        <time>2025-08-08T15:14:36.000Z</time>
      </trkpt>
      <trkpt lat="45.7665" lon="6.37898">
        <ele>479.60000610352</ele>
        <time>2025-08-08T15:14:43.000Z</time>
      </trkpt>
      <trkpt lat="45.76633" lon="6.37974">
        <ele>479.39999389648</ele>
        <time>2025-08-08T15:14:50.000Z</time>
      </trkpt>
      <trkpt lat="45.76622" lon="6.38016">
        <ele>479.20001220703</ele>
        <time>2025-08-08T15:14:54.000Z</time>
      </trkpt>
      <trkpt lat="45.76616" lon="6.38036">
        <ele>479</ele>
        <time>2025-08-08T15:14:56.000Z</time>
      </trkpt>
      <trkpt lat="45.76592" lon="6.38108">
        <ele>478.60000610352</ele>
        <time>2025-08-08T15:15:03.000Z</time>
      </trkpt>
      <trkpt lat="45.76565" lon="6.38177">
        <ele>478.60000610352</ele>
        <time>2025-08-08T15:15:10.000Z</time>
      </trkpt>
      <trkpt lat="45.76557" lon="6.38196">
        <ele>478.39999389648</ele>
        <time>2025-08-08T15:15:12.000Z</time>
      </trkpt>
      <trkpt lat="45.76529" lon="6.38251">
        <ele>478</ele>
        <time>2025-08-08T15:15:18.000Z</time>
      </trkpt>
      <trkpt lat="45.76515" lon="6.38278">
        <ele>477.79998779297</ele>
        <time>2025-08-08T15:15:21.000Z</time>
      </trkpt>
      <trkpt lat="45.76479" lon="6.38338">
        <ele>477.60000610352</ele>
        <time>2025-08-08T15:15:28.000Z</time>
      </trkpt>
      <trkpt lat="45.76474" lon="6.38346">
        <ele>477.60000610352</ele>
        <time>2025-08-08T15:15:29.000Z</time>
      </trkpt>
      <trkpt lat="45.76433" lon="6.384">
        <ele>477.20001220703</ele>
        <time>2025-08-08T15:15:36.000Z</time>
      </trkpt>
      <trkpt lat="45.76415" lon="6.38421">
        <ele>477</ele>
        <time>2025-08-08T15:15:39.000Z</time>
      </trkpt>
      <trkpt lat="45.76372" lon="6.38471">
        <ele>477</ele>
        <time>2025-08-08T15:15:46.000Z</time>
      </trkpt>
      <trkpt lat="45.76359" lon="6.38485">
        <ele>477</ele>
        <time>2025-08-08T15:15:48.000Z</time>
      </trkpt>
      <trkpt lat="45.76316" lon="6.38535">
        <ele>476.79998779297</ele>
        <time>2025-08-08T15:15:55.000Z</time>
      </trkpt>
      <trkpt lat="45.76292" lon="6.38563">
        <ele>476.60000610352</ele>
        <time>2025-08-08T15:15:59.000Z</time>
      </trkpt>
      <trkpt lat="45.76279" lon="6.38577">
        <ele>476.39999389648</ele>
        <time>2025-08-08T15:16:01.000Z</time>
      </trkpt>
      <trkpt lat="45.76238" lon="6.38629">
        <ele>476</ele>
        <time>2025-08-08T15:16:08.000Z</time>
      </trkpt>
      <trkpt lat="45.76227" lon="6.38645">
        <ele>475.79998779297</ele>
        <time>2025-08-08T15:16:10.000Z</time>
      </trkpt>
      <trkpt lat="45.76205" lon="6.38677">
        <ele>475.39999389648</ele>
        <time>2025-08-08T15:16:14.000Z</time>
      </trkpt>
      <trkpt lat="45.76179" lon="6.3872">
        <ele>475.20001220703</ele>
        <time>2025-08-08T15:16:19.000Z</time>
      </trkpt>
      <trkpt lat="45.76144" lon="6.38782">
        <ele>475</ele>
        <time>2025-08-08T15:16:26.000Z</time>
      </trkpt>
      <trkpt lat="45.76135" lon="6.38801">
        <ele>475</ele>
        <time>2025-08-08T15:16:28.000Z</time>
      </trkpt>
      <trkpt lat="45.76103" lon="6.38867">
        <ele>475.20001220703</ele>
        <time>2025-08-08T15:16:35.000Z</time>
      </trkpt>
      <trkpt lat="45.7609" lon="6.38896">
        <ele>475</ele>
        <time>2025-08-08T15:16:38.000Z</time>
      </trkpt>
      <trkpt lat="45.7606" lon="6.38962">
        <ele>474.60000610352</ele>
        <time>2025-08-08T15:16:45.000Z</time>
      </trkpt>
      <trkpt lat="45.7604" lon="6.39005">
        <ele>474.39999389648</ele>
        <time>2025-08-08T15:16:50.000Z</time>
      </trkpt>
      <trkpt lat="45.76022" lon="6.39045">
        <ele>474.20001220703</ele>
        <time>2025-08-08T15:16:55.000Z</time>
      </trkpt>
      <trkpt lat="45.75997" lon="6.39099">
        <ele>474</ele>
        <time>2025-08-08T15:17:01.000Z</time>
      </trkpt>
      <trkpt lat="45.75969" lon="6.39157">
        <ele>473.79998779297</ele>
        <time>2025-08-08T15:17:07.000Z</time>
      </trkpt>
      <trkpt lat="45.7596" lon="6.39177">
        <ele>473.39999389648</ele>
        <time>2025-08-08T15:17:09.000Z</time>
      </trkpt>
      <trkpt lat="45.75928" lon="6.39246">
        <ele>473</ele>
        <time>2025-08-08T15:17:16.000Z</time>
      </trkpt>
      <trkpt lat="45.75924" lon="6.39256">
        <ele>472.79998779297</ele>
        <time>2025-08-08T15:17:17.000Z</time>
      </trkpt>
      <trkpt lat="45.75902" lon="6.39305">
        <ele>472.20001220703</ele>
        <time>2025-08-08T15:17:22.000Z</time>
      </trkpt>
      <trkpt lat="45.7587" lon="6.39372">
        <ele>472</ele>
        <time>2025-08-08T15:17:29.000Z</time>
      </trkpt>
      <trkpt lat="45.75865" lon="6.39382">
        <ele>471.79998779297</ele>
        <time>2025-08-08T15:17:30.000Z</time>
      </trkpt>
      <trkpt lat="45.75861" lon="6.39391">
        <ele>471.79998779297</ele>
        <time>2025-08-08T15:17:31.000Z</time>
      </trkpt>
      <trkpt lat="45.7583" lon="6.39459">
        <ele>471.20001220703</ele>
        <time>2025-08-08T15:17:38.000Z</time>
      </trkpt>
      <trkpt lat="45.75821" lon="6.39478">
        <ele>471</ele>
        <time>2025-08-08T15:17:40.000Z</time>
      </trkpt>
      <trkpt lat="45.75803" lon="6.39517">
        <ele>471</ele>
        <time>2025-08-08T15:17:44.000Z</time>
      </trkpt>
      <trkpt lat="45.75781" lon="6.39565">
        <ele>470.79998779297</ele>
        <time>2025-08-08T15:17:49.000Z</time>
      </trkpt>
      <trkpt lat="45.75749" lon="6.39634">
        <ele>470.39999389648</ele>
        <time>2025-08-08T15:17:56.000Z</time>
      </trkpt>
      <trkpt lat="45.75735" lon="6.39665">
        <ele>470.20001220703</ele>
        <time>2025-08-08T15:17:59.000Z</time>
      </trkpt>
      <trkpt lat="45.75731" lon="6.39675">
        <ele>470</ele>
        <time>2025-08-08T15:18:00.000Z</time>
      </trkpt>
      <trkpt lat="45.75698" lon="6.39746">
        <ele>469</ele>
        <time>2025-08-08T15:18:07.000Z</time>
      </trkpt>
      <trkpt lat="45.75666" lon="6.39816">
        <ele>468.60000610352</ele>
        <time>2025-08-08T15:18:14.000Z</time>
      </trkpt>
      <trkpt lat="45.75658" lon="6.39834">
        <ele>468.39999389648</ele>
        <time>2025-08-08T15:18:16.000Z</time>
      </trkpt>
      <trkpt lat="45.75646" lon="6.39859">
        <ele>468.20001220703</ele>
        <time>2025-08-08T15:18:19.000Z</time>
      </trkpt>
      <trkpt lat="45.75642" lon="6.39866">
        <ele>468</ele>
        <time>2025-08-08T15:18:20.000Z</time>
      </trkpt>
      <trkpt lat="45.75637" lon="6.39873">
        <ele>468</ele>
        <time>2025-08-08T15:18:21.000Z</time>
      </trkpt>
      <trkpt lat="45.75598" lon="6.39939">
        <ele>467.60000610352</ele>
        <time>2025-08-08T15:18:29.000Z</time>
      </trkpt>
      <trkpt lat="45.75558" lon="6.39997">
        <ele>467.39999389648</ele>
        <time>2025-08-08T15:18:36.000Z</time>
      </trkpt>
      <trkpt lat="45.75552" lon="6.40005">
        <ele>467.39999389648</ele>
        <time>2025-08-08T15:18:37.000Z</time>
      </trkpt>
      <trkpt lat="45.75526" lon="6.40037">
        <ele>467.20001220703</ele>
        <time>2025-08-08T15:18:41.000Z</time>
      </trkpt>
      <trkpt lat="45.75506" lon="6.4006">
        <ele>467.20001220703</ele>
        <time>2025-08-08T15:18:44.000Z</time>
      </trkpt>
      <trkpt lat="45.75469" lon="6.40101">
        <ele>467</ele>
        <time>2025-08-08T15:18:50.000Z</time>
      </trkpt>
      <trkpt lat="45.75431" lon="6.40135">
        <ele>467</ele>
        <time>2025-08-08T15:18:56.000Z</time>
      </trkpt>
      <trkpt lat="45.75384" lon="6.40173">
        <ele>466.60000610352</ele>
        <time>2025-08-08T15:19:03.000Z</time>
      </trkpt>
      <trkpt lat="45.75331" lon="6.40215">
        <ele>466.79998779297</ele>
        <time>2025-08-08T15:19:11.000Z</time>
      </trkpt>
      <trkpt lat="45.75312" lon="6.40231">
        <ele>466.60000610352</ele>
        <time>2025-08-08T15:19:14.000Z</time>
      </trkpt>
      <trkpt lat="45.75305" lon="6.40236">
        <ele>466.60000610352</ele>
        <time>2025-08-08T15:19:15.000Z</time>
      </trkpt>
      <trkpt lat="45.75254" lon="6.40281">
        <ele>465.79998779297</ele>
        <time>2025-08-08T15:19:23.000Z</time>
      </trkpt>
      <trkpt lat="45.75238" lon="6.40299">
        <ele>465.39999389648</ele>
        <time>2025-08-08T15:19:26.000Z</time>
      </trkpt>
      <trkpt lat="45.75228" lon="6.4031">
        <ele>465.20001220703</ele>
        <time>2025-08-08T15:19:28.000Z</time>
      </trkpt>
      <trkpt lat="45.75223" lon="6.40316">
        <ele>465</ele>
        <time>2025-08-08T15:19:29.000Z</time>
      </trkpt>
      <trkpt lat="45.75202" lon="6.40343">
        <ele>465</ele>
        <time>2025-08-08T15:19:33.000Z</time>
      </trkpt>
      <trkpt lat="45.75174" lon="6.40384">
        <ele>464.60000610352</ele>
        <time>2025-08-08T15:19:38.000Z</time>
      </trkpt>
      <trkpt lat="45.75164" lon="6.40402">
        <ele>464.39999389648</ele>
        <time>2025-08-08T15:19:40.000Z</time>
      </trkpt>
      <trkpt lat="45.75133" lon="6.40465">
        <ele>463.60000610352</ele>
        <time>2025-08-08T15:19:47.000Z</time>
      </trkpt>
      <trkpt lat="45.75125" lon="6.40484">
        <ele>463.60000610352</ele>
        <time>2025-08-08T15:19:49.000Z</time>
      </trkpt>
      <trkpt lat="45.751" lon="6.40556">
        <ele>463</ele>
        <time>2025-08-08T15:19:56.000Z</time>
      </trkpt>
      <trkpt lat="45.75093" lon="6.40577">
        <ele>462.79998779297</ele>
        <time>2025-08-08T15:19:58.000Z</time>
      </trkpt>
      <trkpt lat="45.75087" lon="6.40598">
        <ele>462.60000610352</ele>
        <time>2025-08-08T15:20:00.000Z</time>
      </trkpt>
      <trkpt lat="45.75065" lon="6.4067">
        <ele>461.79998779297</ele>
        <time>2025-08-08T15:20:07.000Z</time>
      </trkpt>
      <trkpt lat="45.75062" lon="6.4068">
        <ele>461.79998779297</ele>
        <time>2025-08-08T15:20:08.000Z</time>
      </trkpt>
      <trkpt lat="45.75058" lon="6.4069">
        <ele>461.60000610352</ele>
        <time>2025-08-08T15:20:09.000Z</time>
      </trkpt>
      <trkpt lat="45.75037" lon="6.40761">
        <ele>461.20001220703</ele>
        <time>2025-08-08T15:20:16.000Z</time>
      </trkpt>
      <trkpt lat="45.75021" lon="6.40809">
        <ele>460.79998779297</ele>
        <time>2025-08-08T15:20:21.000Z</time>
      </trkpt>
      <trkpt lat="45.75003" lon="6.40862">
        <ele>460.20001220703</ele>
        <time>2025-08-08T15:20:27.000Z</time>
      </trkpt>
      <trkpt lat="45.74991" lon="6.409">
        <ele>459.79998779297</ele>
        <time>2025-08-08T15:20:31.000Z</time>
      </trkpt>
      <trkpt lat="45.74979" lon="6.40939">
        <ele>459.39999389648</ele>
        <time>2025-08-08T15:20:35.000Z</time>
      </trkpt>
      <trkpt lat="45.74957" lon="6.41004">
        <ele>459</ele>
        <time>2025-08-08T15:20:42.000Z</time>
      </trkpt>
      <trkpt lat="45.74946" lon="6.41033">
        <ele>458.39999389648</ele>
        <time>2025-08-08T15:20:45.000Z</time>
      </trkpt>
      <trkpt lat="45.74926" lon="6.41079">
        <ele>457.79998779297</ele>
        <time>2025-08-08T15:20:50.000Z</time>
      </trkpt>
      <trkpt lat="45.74912" lon="6.41105">
        <ele>457.60000610352</ele>
        <time>2025-08-08T15:20:53.000Z</time>
      </trkpt>
      <trkpt lat="45.74907" lon="6.41113">
        <ele>457.39999389648</ele>
        <time>2025-08-08T15:20:54.000Z</time>
      </trkpt>
      <trkpt lat="45.74895" lon="6.41128">
        <ele>457.39999389648</ele>
        <time>2025-08-08T15:20:56.000Z</time>
      </trkpt>
      <trkpt lat="45.7489" lon="6.41136">
        <ele>457.39999389648</ele>
        <time>2025-08-08T15:20:57.000Z</time>
      </trkpt>
      <trkpt lat="45.74863" lon="6.41187">
        <ele>457.20001220703</ele>
        <time>2025-08-08T15:21:03.000Z</time>
      </trkpt>
      <trkpt lat="45.74859" lon="6.41194">
        <ele>457.20001220703</ele>
        <time>2025-08-08T15:21:04.000Z</time>
      </trkpt>
      <trkpt lat="45.7483" lon="6.4124">
        <ele>457.20001220703</ele>
        <time>2025-08-08T15:21:10.000Z</time>
      </trkpt>
      <trkpt lat="45.74824" lon="6.41246">
        <ele>457.20001220703</ele>
        <time>2025-08-08T15:21:11.000Z</time>
      </trkpt>
      <trkpt lat="45.74812" lon="6.41258">
        <ele>457</ele>
        <time>2025-08-08T15:21:13.000Z</time>
      </trkpt>
      <trkpt lat="45.74796" lon="6.4128">
        <ele>456.79998779297</ele>
        <time>2025-08-08T15:21:16.000Z</time>
      </trkpt>
      <trkpt lat="45.74791" lon="6.41286">
        <ele>456.60000610352</ele>
        <time>2025-08-08T15:21:17.000Z</time>
      </trkpt>
      <trkpt lat="45.74779" lon="6.41292">
        <ele>456.60000610352</ele>
        <time>2025-08-08T15:21:19.000Z</time>
      </trkpt>
      <trkpt lat="45.74756" lon="6.41293">
        <ele>456.20001220703</ele>
        <time>2025-08-08T15:21:22.000Z</time>
      </trkpt>
      <trkpt lat="45.74734" lon="6.41302">
        <ele>456</ele>
        <time>2025-08-08T15:21:25.000Z</time>
      </trkpt>
      <trkpt lat="45.74705" lon="6.41315">
        <ele>455.60000610352</ele>
        <time>2025-08-08T15:21:29.000Z</time>
      </trkpt>
      <trkpt lat="45.74684" lon="6.41322">
        <ele>455</ele>
        <time>2025-08-08T15:21:32.000Z</time>
      </trkpt>
      <trkpt lat="45.7467" lon="6.41328">
        <ele>454.79998779297</ele>
        <time>2025-08-08T15:21:34.000Z</time>
      </trkpt>
      <trkpt lat="45.74657" lon="6.41336">
        <ele>454.60000610352</ele>
        <time>2025-08-08T15:21:36.000Z</time>
      </trkpt>
      <trkpt lat="45.74651" lon="6.41341">
        <ele>454.60000610352</ele>
        <time>2025-08-08T15:21:37.000Z</time>
      </trkpt>
      <trkpt lat="45.74631" lon="6.4135">
        <ele>454.39999389648</ele>
        <time>2025-08-08T15:21:40.000Z</time>
      </trkpt>
      <trkpt lat="45.74609" lon="6.41375">
        <ele>454.20001220703</ele>
        <time>2025-08-08T15:21:44.000Z</time>
      </trkpt>
      <trkpt lat="45.74587" lon="6.41405">
        <ele>453.79998779297</ele>
        <time>2025-08-08T15:21:48.000Z</time>
      </trkpt>
      <trkpt lat="45.74578" lon="6.41419">
        <ele>453.39999389648</ele>
        <time>2025-08-08T15:21:50.000Z</time>
      </trkpt>
      <trkpt lat="45.74574" lon="6.41427">
        <ele>453.39999389648</ele>
        <time>2025-08-08T15:21:51.000Z</time>
      </trkpt>
      <trkpt lat="45.7457" lon="6.41436">
        <ele>453.20001220703</ele>
        <time>2025-08-08T15:21:52.000Z</time>
      </trkpt>
      <trkpt lat="45.74562" lon="6.41462">
        <ele>453.20001220703</ele>
        <time>2025-08-08T15:21:55.000Z</time>
      </trkpt>
      <trkpt lat="45.74559" lon="6.41473">
        <ele>453.20001220703</ele>
        <time>2025-08-08T15:21:56.000Z</time>
      </trkpt>
      <trkpt lat="45.74556" lon="6.41492">
        <ele>453.20001220703</ele>
        <time>2025-08-08T15:21:58.000Z</time>
      </trkpt>
      <trkpt lat="45.74556" lon="6.415">
        <ele>453</ele>
        <time>2025-08-08T15:21:59.000Z</time>
      </trkpt>
      <trkpt lat="45.74557" lon="6.41512">
        <ele>452.79998779297</ele>
        <time>2025-08-08T15:22:00.000Z</time>
      </trkpt>
      <trkpt lat="45.74561" lon="6.41531">
        <ele>452.60000610352</ele>
        <time>2025-08-08T15:22:02.000Z</time>
      </trkpt>
      <trkpt lat="45.74569" lon="6.41547">
        <ele>452.60000610352</ele>
        <time>2025-08-08T15:22:04.000Z</time>
      </trkpt>
      <trkpt lat="45.74575" lon="6.41554">
        <ele>452.60000610352</ele>
        <time>2025-08-08T15:22:05.000Z</time>
      </trkpt>
      <trkpt lat="45.74581" lon="6.41559">
        <ele>452.60000610352</ele>
        <time>2025-08-08T15:22:06.000Z</time>
      </trkpt>
      <trkpt lat="45.746" lon="6.41572">
        <ele>452.39999389648</ele>
        <time>2025-08-08T15:22:09.000Z</time>
      </trkpt>
      <trkpt lat="45.74607" lon="6.41578">
        <ele>452.39999389648</ele>
        <time>2025-08-08T15:22:10.000Z</time>
      </trkpt>
      <trkpt lat="45.74624" lon="6.41599">
        <ele>452.39999389648</ele>
        <time>2025-08-08T15:22:13.000Z</time>
      </trkpt>
      <trkpt lat="45.74627" lon="6.41605">
        <ele>452.39999389648</ele>
        <time>2025-08-08T15:22:14.000Z</time>
      </trkpt>
      <trkpt lat="45.74635" lon="6.41623">
        <ele>452.20001220703</ele>
        <time>2025-08-08T15:22:16.000Z</time>
      </trkpt>
      <trkpt lat="45.74637" lon="6.41632">
        <ele>452.20001220703</ele>
        <time>2025-08-08T15:22:17.000Z</time>
      </trkpt>
      <trkpt lat="45.74637" lon="6.4164">
        <ele>452.20001220703</ele>
        <time>2025-08-08T15:22:18.000Z</time>
      </trkpt>
      <trkpt lat="45.74638" lon="6.41661">
        <ele>452.20001220703</ele>
        <time>2025-08-08T15:22:20.000Z</time>
      </trkpt>
      <trkpt lat="45.74637" lon="6.41669">
        <ele>452.20001220703</ele>
        <time>2025-08-08T15:22:21.000Z</time>
      </trkpt>
      <trkpt lat="45.74636" lon="6.41678">
        <ele>452.20001220703</ele>
        <time>2025-08-08T15:22:22.000Z</time>
      </trkpt>
      <trkpt lat="45.7463" lon="6.41695">
        <ele>452.20001220703</ele>
        <time>2025-08-08T15:22:24.000Z</time>
      </trkpt>
      <trkpt lat="45.74605" lon="6.41742">
        <ele>452.20001220703</ele>
        <time>2025-08-08T15:22:30.000Z</time>
      </trkpt>
      <trkpt lat="45.74601" lon="6.4175">
        <ele>452</ele>
        <time>2025-08-08T15:22:31.000Z</time>
      </trkpt>
      <trkpt lat="45.74585" lon="6.41784">
        <ele>451.39999389648</ele>
        <time>2025-08-08T15:22:35.000Z</time>
      </trkpt>
      <trkpt lat="45.74582" lon="6.41794">
        <ele>451.39999389648</ele>
        <time>2025-08-08T15:22:36.000Z</time>
      </trkpt>
      <trkpt lat="45.74571" lon="6.41834">
        <ele>451</ele>
        <time>2025-08-08T15:22:40.000Z</time>
      </trkpt>
      <trkpt lat="45.74567" lon="6.41845">
        <ele>450.79998779297</ele>
        <time>2025-08-08T15:22:41.000Z</time>
      </trkpt>
      <trkpt lat="45.7454" lon="6.41895">
        <ele>450.39999389648</ele>
        <time>2025-08-08T15:22:47.000Z</time>
      </trkpt>
      <trkpt lat="45.74517" lon="6.41928">
        <ele>450.60000610352</ele>
        <time>2025-08-08T15:22:52.000Z</time>
      </trkpt>
      <trkpt lat="45.74514" lon="6.41935">
        <ele>450.60000610352</ele>
        <time>2025-08-08T15:22:53.000Z</time>
      </trkpt>
      <trkpt lat="45.74512" lon="6.41942">
        <ele>450.79998779297</ele>
        <time>2025-08-08T15:22:54.000Z</time>
      </trkpt>
      <trkpt lat="45.74509" lon="6.41964">
        <ele>450.60000610352</ele>
        <time>2025-08-08T15:22:57.000Z</time>
      </trkpt>
      <trkpt lat="45.74505" lon="6.41973">
        <ele>450.39999389648</ele>
        <time>2025-08-08T15:22:59.000Z</time>
      </trkpt>
      <trkpt lat="45.74502" lon="6.41977">
        <ele>450.20001220703</ele>
        <time>2025-08-08T15:23:00.000Z</time>
      </trkpt>
      <trkpt lat="45.74482" lon="6.42002">
        <ele>450.79998779297</ele>
        <time>2025-08-08T15:23:05.000Z</time>
      </trkpt>
      <trkpt lat="45.74479" lon="6.42009">
        <ele>450.79998779297</ele>
        <time>2025-08-08T15:23:06.000Z</time>
      </trkpt>
      <trkpt lat="45.74471" lon="6.42041">
        <ele>450.79998779297</ele>
        <time>2025-08-08T15:23:10.000Z</time>
      </trkpt>
      <trkpt lat="45.74465" lon="6.42057">
        <ele>450.79998779297</ele>
        <time>2025-08-08T15:23:12.000Z</time>
      </trkpt>
      <trkpt lat="45.74459" lon="6.42067">
        <ele>450.60000610352</ele>
        <time>2025-08-08T15:23:14.000Z</time>
      </trkpt>
      <trkpt lat="45.74455" lon="6.4207">
        <ele>450.60000610352</ele>
        <time>2025-08-08T15:23:15.000Z</time>
      </trkpt>
      <trkpt lat="45.7445" lon="6.42073">
        <ele>450.39999389648</ele>
        <time>2025-08-08T15:23:16.000Z</time>
      </trkpt>
      <trkpt lat="45.74429" lon="6.42085">
        <ele>450.39999389648</ele>
        <time>2025-08-08T15:23:20.000Z</time>
      </trkpt>
      <trkpt lat="45.7441" lon="6.42099">
        <ele>450</ele>
        <time>2025-08-08T15:23:23.000Z</time>
      </trkpt>
      <trkpt lat="45.74397" lon="6.4211">
        <ele>450</ele>
        <time>2025-08-08T15:23:25.000Z</time>
      </trkpt>
      <trkpt lat="45.74352" lon="6.42134">
        <ele>449.39999389648</ele>
        <time>2025-08-08T15:23:32.000Z</time>
      </trkpt>
      <trkpt lat="45.7434" lon="6.42141">
        <ele>449.20001220703</ele>
        <time>2025-08-08T15:23:34.000Z</time>
      </trkpt>
      <trkpt lat="45.74328" lon="6.42149">
        <ele>449</ele>
        <time>2025-08-08T15:23:36.000Z</time>
      </trkpt>
      <trkpt lat="45.74321" lon="6.42152">
        <ele>449</ele>
        <time>2025-08-08T15:23:37.000Z</time>
      </trkpt>
      <trkpt lat="45.74282" lon="6.42175">
        <ele>448.39999389648</ele>
        <time>2025-08-08T15:23:43.000Z</time>
      </trkpt>
      <trkpt lat="45.74231" lon="6.42201">
        <ele>448.20001220703</ele>
        <time>2025-08-08T15:23:51.000Z</time>
      </trkpt>
      <trkpt lat="45.74218" lon="6.42208">
        <ele>448</ele>
        <time>2025-08-08T15:23:53.000Z</time>
      </trkpt>
      <trkpt lat="45.74177" lon="6.42228">
        <ele>447.60000610352</ele>
        <time>2025-08-08T15:23:59.000Z</time>
      </trkpt>
      <trkpt lat="45.74164" lon="6.42232">
        <ele>447.60000610352</ele>
        <time>2025-08-08T15:24:01.000Z</time>
      </trkpt>
      <trkpt lat="45.74151" lon="6.42233">
        <ele>447.60000610352</ele>
        <time>2025-08-08T15:24:03.000Z</time>
      </trkpt>
      <trkpt lat="45.74145" lon="6.42233">
        <ele>447.39999389648</ele>
        <time>2025-08-08T15:24:04.000Z</time>
      </trkpt>
      <trkpt lat="45.74133" lon="6.42241">
        <ele>447.60000610352</ele>
        <time>2025-08-08T15:24:06.000Z</time>
      </trkpt>
      <trkpt lat="45.74124" lon="6.42255">
        <ele>447.60000610352</ele>
        <time>2025-08-08T15:24:08.000Z</time>
      </trkpt>
      <trkpt lat="45.74112" lon="6.42266">
        <ele>447.60000610352</ele>
        <time>2025-08-08T15:24:10.000Z</time>
      </trkpt>
      <trkpt lat="45.74065" lon="6.4229">
        <ele>447.60000610352</ele>
        <time>2025-08-08T15:24:17.000Z</time>
      </trkpt>
      <trkpt lat="45.74023" lon="6.42308">
        <ele>447.20001220703</ele>
        <time>2025-08-08T15:24:23.000Z</time>
      </trkpt>
      <trkpt lat="45.74016" lon="6.42312">
        <ele>447.20001220703</ele>
        <time>2025-08-08T15:24:24.000Z</time>
      </trkpt>
      <trkpt lat="45.74001" lon="6.42318">
        <ele>447.20001220703</ele>
        <time>2025-08-08T15:24:26.000Z</time>
      </trkpt>
      <trkpt lat="45.73968" lon="6.42327">
        <ele>447</ele>
        <time>2025-08-08T15:24:31.000Z</time>
      </trkpt>
      <trkpt lat="45.73962" lon="6.42328">
        <ele>446.79998779297</ele>
        <time>2025-08-08T15:24:32.000Z</time>
      </trkpt>
      <trkpt lat="45.73951" lon="6.42331">
        <ele>446.79998779297</ele>
        <time>2025-08-08T15:24:34.000Z</time>
      </trkpt>
      <trkpt lat="45.73941" lon="6.42338">
        <ele>446.79998779297</ele>
        <time>2025-08-08T15:24:36.000Z</time>
      </trkpt>
      <trkpt lat="45.7393" lon="6.42338">
        <ele>446.79998779297</ele>
        <time>2025-08-08T15:24:38.000Z</time>
      </trkpt>
      <trkpt lat="45.73895" lon="6.42339">
        <ele>446.39999389648</ele>
        <time>2025-08-08T15:24:43.000Z</time>
      </trkpt>
      <trkpt lat="45.7388" lon="6.42339">
        <ele>446.20001220703</ele>
        <time>2025-08-08T15:24:45.000Z</time>
      </trkpt>
      <trkpt lat="45.7386" lon="6.42339">
        <ele>445.79998779297</ele>
        <time>2025-08-08T15:24:48.000Z</time>
      </trkpt>
      <trkpt lat="45.738" lon="6.42332">
        <ele>445.20001220703</ele>
        <time>2025-08-08T15:24:56.000Z</time>
      </trkpt>
      <trkpt lat="45.73748" lon="6.42322">
        <ele>444</ele>
        <time>2025-08-08T15:25:03.000Z</time>
      </trkpt>
      <trkpt lat="45.73741" lon="6.4232">
        <ele>444</ele>
        <time>2025-08-08T15:25:04.000Z</time>
      </trkpt>
      <trkpt lat="45.73684" lon="6.42304">
        <ele>443.39999389648</ele>
        <time>2025-08-08T15:25:12.000Z</time>
      </trkpt>
      <trkpt lat="45.73646" lon="6.42294">
        <ele>443.20001220703</ele>
        <time>2025-08-08T15:25:17.000Z</time>
      </trkpt>
      <trkpt lat="45.73631" lon="6.42289">
        <ele>443</ele>
        <time>2025-08-08T15:25:19.000Z</time>
      </trkpt>
      <trkpt lat="45.73609" lon="6.42279">
        <ele>443</ele>
        <time>2025-08-08T15:25:22.000Z</time>
      </trkpt>
      <trkpt lat="45.73594" lon="6.42271">
        <ele>443</ele>
        <time>2025-08-08T15:25:24.000Z</time>
      </trkpt>
      <trkpt lat="45.73552" lon="6.42249">
        <ele>442.20001220703</ele>
        <time>2025-08-08T15:25:30.000Z</time>
      </trkpt>
      <trkpt lat="45.73545" lon="6.42247">
        <ele>442</ele>
        <time>2025-08-08T15:25:31.000Z</time>
      </trkpt>
      <trkpt lat="45.73514" lon="6.42241">
        <ele>441.79998779297</ele>
        <time>2025-08-08T15:25:35.000Z</time>
      </trkpt>
      <trkpt lat="45.73506" lon="6.42238">
        <ele>441.79998779297</ele>
        <time>2025-08-08T15:25:36.000Z</time>
      </trkpt>
      <trkpt lat="45.73493" lon="6.42228">
        <ele>441.79998779297</ele>
        <time>2025-08-08T15:25:38.000Z</time>
      </trkpt>
      <trkpt lat="45.73459" lon="6.422">
        <ele>441.20001220703</ele>
        <time>2025-08-08T15:25:43.000Z</time>
      </trkpt>
      <trkpt lat="45.73433" lon="6.42179">
        <ele>440.79998779297</ele>
        <time>2025-08-08T15:25:47.000Z</time>
      </trkpt>
      <trkpt lat="45.73389" lon="6.42141">
        <ele>440.20001220703</ele>
        <time>2025-08-08T15:25:54.000Z</time>
      </trkpt>
      <trkpt lat="45.73363" lon="6.42119">
        <ele>439.79998779297</ele>
        <time>2025-08-08T15:25:58.000Z</time>
      </trkpt>
      <trkpt lat="45.73318" lon="6.42081">
        <ele>439.20001220703</ele>
        <time>2025-08-08T15:26:05.000Z</time>
      </trkpt>
      <trkpt lat="45.73298" lon="6.42064">
        <ele>438.79998779297</ele>
        <time>2025-08-08T15:26:08.000Z</time>
      </trkpt>
      <trkpt lat="45.7326" lon="6.42032">
        <ele>438.20001220703</ele>
        <time>2025-08-08T15:26:14.000Z</time>
      </trkpt>
      <trkpt lat="45.73241" lon="6.42017">
        <ele>438</ele>
        <time>2025-08-08T15:26:18.000Z</time>
      </trkpt>
      <trkpt lat="45.73221" lon="6.42">
        <ele>437.79998779297</ele>
        <time>2025-08-08T15:26:20.000Z</time>
      </trkpt>
      <trkpt lat="45.73181" lon="6.4196">
        <ele>437.20001220703</ele>
        <time>2025-08-08T15:26:27.000Z</time>
      </trkpt>
      <trkpt lat="45.73156" lon="6.41935">
        <ele>437.60000610352</ele>
        <time>2025-08-08T15:26:32.000Z</time>
      </trkpt>
      <trkpt lat="45.73132" lon="6.41914">
        <ele>438.20001220703</ele>
        <time>2025-08-08T15:26:37.000Z</time>
      </trkpt>
      <trkpt lat="45.73128" lon="6.4191">
        <ele>438.39999389648</ele>
        <time>2025-08-08T15:26:38.000Z</time>
      </trkpt>
      <trkpt lat="45.73114" lon="6.41898">
        <ele>438.79998779297</ele>
        <time>2025-08-08T15:26:41.000Z</time>
      </trkpt>
      <trkpt lat="45.73088" lon="6.41878">
        <ele>439.60000610352</ele>
        <time>2025-08-08T15:26:46.000Z</time>
      </trkpt>
      <trkpt lat="45.73045" lon="6.41849">
        <ele>439</ele>
        <time>2025-08-08T15:26:52.000Z</time>
      </trkpt>
      <trkpt lat="45.73017" lon="6.41829">
        <ele>437.20001220703</ele>
        <time>2025-08-08T15:26:56.000Z</time>
      </trkpt>
      <trkpt lat="45.73001" lon="6.41815">
        <ele>436.60000610352</ele>
        <time>2025-08-08T15:26:58.000Z</time>
      </trkpt>
      <trkpt lat="45.72989" lon="6.41804">
        <ele>435.79998779297</ele>
        <time>2025-08-08T15:27:00.000Z</time>
      </trkpt>
      <trkpt lat="45.72967" lon="6.41785">
        <ele>435.20001220703</ele>
        <time>2025-08-08T15:27:03.000Z</time>
      </trkpt>
      <trkpt lat="45.72954" lon="6.41774">
        <ele>434.79998779297</ele>
        <time>2025-08-08T15:27:05.000Z</time>
      </trkpt>
      <trkpt lat="45.72943" lon="6.41765">
        <ele>434.60000610352</ele>
        <time>2025-08-08T15:27:07.000Z</time>
      </trkpt>
      <trkpt lat="45.72899" lon="6.41728">
        <ele>433.79998779297</ele>
        <time>2025-08-08T15:27:14.000Z</time>
      </trkpt>
      <trkpt lat="45.72848" lon="6.41687">
        <ele>433</ele>
        <time>2025-08-08T15:27:23.000Z</time>
      </trkpt>
      <trkpt lat="45.72842" lon="6.41682">
        <ele>432.79998779297</ele>
        <time>2025-08-08T15:27:24.000Z</time>
      </trkpt>
      <trkpt lat="45.7283" lon="6.41671">
        <ele>432.60000610352</ele>
        <time>2025-08-08T15:27:26.000Z</time>
      </trkpt>
      <trkpt lat="45.72791" lon="6.41638">
        <ele>432.39999389648</ele>
        <time>2025-08-08T15:27:33.000Z</time>
      </trkpt>
      <trkpt lat="45.72768" lon="6.41619">
        <ele>432</ele>
        <time>2025-08-08T15:27:37.000Z</time>
      </trkpt>
      <trkpt lat="45.7274" lon="6.41596">
        <ele>431.60000610352</ele>
        <time>2025-08-08T15:27:42.000Z</time>
      </trkpt>
      <trkpt lat="45.727" lon="6.41561">
        <ele>431</ele>
        <time>2025-08-08T15:27:49.000Z</time>
      </trkpt>
      <trkpt lat="45.72689" lon="6.41549">
        <ele>431</ele>
        <time>2025-08-08T15:27:51.000Z</time>
      </trkpt>
      <trkpt lat="45.72679" lon="6.41535">
        <ele>431</ele>
        <time>2025-08-08T15:27:53.000Z</time>
      </trkpt>
      <trkpt lat="45.72666" lon="6.41514">
        <ele>430.79998779297</ele>
        <time>2025-08-08T15:27:56.000Z</time>
      </trkpt>
      <trkpt lat="45.72662" lon="6.41506">
        <ele>430.79998779297</ele>
        <time>2025-08-08T15:27:57.000Z</time>
      </trkpt>
      <trkpt lat="45.72659" lon="6.41499">
        <ele>430.79998779297</ele>
        <time>2025-08-08T15:27:58.000Z</time>
      </trkpt>
      <trkpt lat="45.72647" lon="6.41487">
        <ele>430.79998779297</ele>
        <time>2025-08-08T15:28:00.000Z</time>
      </trkpt>
      <trkpt lat="45.72612" lon="6.41471">
        <ele>429.79998779297</ele>
        <time>2025-08-08T15:28:05.000Z</time>
      </trkpt>
      <trkpt lat="45.72569" lon="6.41448">
        <ele>429.20001220703</ele>
        <time>2025-08-08T15:28:12.000Z</time>
      </trkpt>
      <trkpt lat="45.72549" lon="6.41432">
        <ele>429.39999389648</ele>
        <time>2025-08-08T15:28:16.000Z</time>
      </trkpt>
      <trkpt lat="45.72537" lon="6.41423">
        <ele>429.39999389648</ele>
        <time>2025-08-08T15:28:18.000Z</time>
      </trkpt>
      <trkpt lat="45.72494" lon="6.41386">
        <ele>429.39999389648</ele>
        <time>2025-08-08T15:28:26.000Z</time>
      </trkpt>
      <trkpt lat="45.72459" lon="6.41357">
        <ele>429</ele>
        <time>2025-08-08T15:28:32.000Z</time>
      </trkpt>
      <trkpt lat="45.72441" lon="6.41342">
        <ele>428.79998779297</ele>
        <time>2025-08-08T15:28:35.000Z</time>
      </trkpt>
      <trkpt lat="45.72389" lon="6.41299">
        <ele>428.60000610352</ele>
        <time>2025-08-08T15:28:44.000Z</time>
      </trkpt>
      <trkpt lat="45.7237" lon="6.41285">
        <ele>428.60000610352</ele>
        <time>2025-08-08T15:28:47.000Z</time>
      </trkpt>
      <trkpt lat="45.72341" lon="6.41261">
        <ele>428.20001220703</ele>
        <time>2025-08-08T15:28:52.000Z</time>
      </trkpt>
      <trkpt lat="45.72323" lon="6.41245">
        <ele>428</ele>
        <time>2025-08-08T15:28:55.000Z</time>
      </trkpt>
      <trkpt lat="45.72275" lon="6.41205">
        <ele>427.60000610352</ele>
        <time>2025-08-08T15:29:03.000Z</time>
      </trkpt>
      <trkpt lat="45.72245" lon="6.4118">
        <ele>427.39999389648</ele>
        <time>2025-08-08T15:29:08.000Z</time>
      </trkpt>
      <trkpt lat="45.7221" lon="6.41149">
        <ele>427</ele>
        <time>2025-08-08T15:29:14.000Z</time>
      </trkpt>
      <trkpt lat="45.72158" lon="6.41107">
        <ele>426.60000610352</ele>
        <time>2025-08-08T15:29:23.000Z</time>
      </trkpt>
      <trkpt lat="45.7214" lon="6.41091">
        <ele>426.60000610352</ele>
        <time>2025-08-08T15:29:26.000Z</time>
      </trkpt>
      <trkpt lat="45.72114" lon="6.4107">
        <ele>426.39999389648</ele>
        <time>2025-08-08T15:29:30.000Z</time>
      </trkpt>
      <trkpt lat="45.72097" lon="6.41057">
        <ele>426.20001220703</ele>
        <time>2025-08-08T15:29:33.000Z</time>
      </trkpt>
      <trkpt lat="45.72046" lon="6.41019">
        <ele>425.60000610352</ele>
        <time>2025-08-08T15:29:41.000Z</time>
      </trkpt>
      <trkpt lat="45.72029" lon="6.41008">
        <ele>425.60000610352</ele>
        <time>2025-08-08T15:29:44.000Z</time>
      </trkpt>
      <trkpt lat="45.7198" lon="6.40977">
        <ele>425.79998779297</ele>
        <time>2025-08-08T15:29:52.000Z</time>
      </trkpt>
      <trkpt lat="45.7198" lon="6.40977">
        <ele>425.79998779297</ele>
        <time>2025-08-08T15:29:53.000Z</time>
      </trkpt>
      <trkpt lat="45.71956" lon="6.40961">
        <ele>425.60000610352</ele>
        <time>2025-08-08T15:29:56.000Z</time>
      </trkpt>
      <trkpt lat="45.7193" lon="6.40947">
        <ele>425.60000610352</ele>
        <time>2025-08-08T15:30:00.000Z</time>
      </trkpt>
      <trkpt lat="45.71878" lon="6.40918">
        <ele>425</ele>
        <time>2025-08-08T15:30:08.000Z</time>
      </trkpt>
      <trkpt lat="45.71837" lon="6.40897">
        <ele>424.60000610352</ele>
        <time>2025-08-08T15:30:14.000Z</time>
      </trkpt>
      <trkpt lat="45.71816" lon="6.40888">
        <ele>424.20001220703</ele>
        <time>2025-08-08T15:30:17.000Z</time>
      </trkpt>
      <trkpt lat="45.71782" lon="6.40873">
        <ele>423.79998779297</ele>
        <time>2025-08-08T15:30:22.000Z</time>
      </trkpt>
      <trkpt lat="45.71735" lon="6.40853">
        <ele>423</ele>
        <time>2025-08-08T15:30:29.000Z</time>
      </trkpt>
      <trkpt lat="45.71695" lon="6.40835">
        <ele>422.79998779297</ele>
        <time>2025-08-08T15:30:35.000Z</time>
      </trkpt>
      <trkpt lat="45.71654" lon="6.40818">
        <ele>422.60000610352</ele>
        <time>2025-08-08T15:30:41.000Z</time>
      </trkpt>
      <trkpt lat="45.71601" lon="6.40792">
        <ele>422.20001220703</ele>
        <time>2025-08-08T15:30:49.000Z</time>
      </trkpt>
      <trkpt lat="45.71559" lon="6.40772">
        <ele>422</ele>
        <time>2025-08-08T15:30:55.000Z</time>
      </trkpt>
      <trkpt lat="45.71552" lon="6.40769">
        <ele>422</ele>
        <time>2025-08-08T15:30:56.000Z</time>
      </trkpt>
      <trkpt lat="45.71525" lon="6.40756">
        <ele>421.79998779297</ele>
        <time>2025-08-08T15:31:00.000Z</time>
      </trkpt>
      <trkpt lat="45.71473" lon="6.40732">
        <ele>421.20001220703</ele>
        <time>2025-08-08T15:31:08.000Z</time>
      </trkpt>
      <trkpt lat="45.7146" lon="6.40726">
        <ele>421.20001220703</ele>
        <time>2025-08-08T15:31:10.000Z</time>
      </trkpt>
      <trkpt lat="45.71453" lon="6.40723">
        <ele>421</ele>
        <time>2025-08-08T15:31:11.000Z</time>
      </trkpt>
      <trkpt lat="45.714" lon="6.40698">
        <ele>420.39999389648</ele>
        <time>2025-08-08T15:31:19.000Z</time>
      </trkpt>
      <trkpt lat="45.71393" lon="6.40695">
        <ele>420.39999389648</ele>
        <time>2025-08-08T15:31:20.000Z</time>
      </trkpt>
      <trkpt lat="45.71367" lon="6.40682">
        <ele>420.20001220703</ele>
        <time>2025-08-08T15:31:24.000Z</time>
      </trkpt>
      <trkpt lat="45.7134" lon="6.40668">
        <ele>420</ele>
        <time>2025-08-08T15:31:28.000Z</time>
      </trkpt>
      <trkpt lat="45.71325" lon="6.40662">
        <ele>419.79998779297</ele>
        <time>2025-08-08T15:31:30.000Z</time>
      </trkpt>
      <trkpt lat="45.71276" lon="6.40638">
        <ele>419.20001220703</ele>
        <time>2025-08-08T15:31:37.000Z</time>
      </trkpt>
      <trkpt lat="45.71269" lon="6.40635">
        <ele>419.20001220703</ele>
        <time>2025-08-08T15:31:38.000Z</time>
      </trkpt>
      <trkpt lat="45.71212" lon="6.40609">
        <ele>418.39999389648</ele>
        <time>2025-08-08T15:31:46.000Z</time>
      </trkpt>
      <trkpt lat="45.71205" lon="6.40605">
        <ele>418.20001220703</ele>
        <time>2025-08-08T15:31:47.000Z</time>
      </trkpt>
      <trkpt lat="45.71163" lon="6.40588">
        <ele>417.79998779297</ele>
        <time>2025-08-08T15:31:53.000Z</time>
      </trkpt>
      <trkpt lat="45.71106" lon="6.40571">
        <ele>417.79998779297</ele>
        <time>2025-08-08T15:32:01.000Z</time>
      </trkpt>
      <trkpt lat="45.71062" lon="6.40561">
        <ele>417.39999389648</ele>
        <time>2025-08-08T15:32:07.000Z</time>
      </trkpt>
      <trkpt lat="45.71047" lon="6.40559">
        <ele>417.20001220703</ele>
        <time>2025-08-08T15:32:09.000Z</time>
      </trkpt>
      <trkpt lat="45.70988" lon="6.40553">
        <ele>417</ele>
        <time>2025-08-08T15:32:17.000Z</time>
      </trkpt>
      <trkpt lat="45.70934" lon="6.40554">
        <ele>416.79998779297</ele>
        <time>2025-08-08T15:32:24.000Z</time>
      </trkpt>
      <trkpt lat="45.70911" lon="6.40555">
        <ele>416.60000610352</ele>
        <time>2025-08-08T15:32:27.000Z</time>
      </trkpt>
      <trkpt lat="45.70866" lon="6.40551">
        <ele>416</ele>
        <time>2025-08-08T15:32:33.000Z</time>
      </trkpt>
      <trkpt lat="45.7082" lon="6.4054">
        <ele>415.39999389648</ele>
        <time>2025-08-08T15:32:39.000Z</time>
      </trkpt>
      <trkpt lat="45.70813" lon="6.40537">
        <ele>415.39999389648</ele>
        <time>2025-08-08T15:32:40.000Z</time>
      </trkpt>
      <trkpt lat="45.70756" lon="6.40518">
        <ele>415</ele>
        <time>2025-08-08T15:32:48.000Z</time>
      </trkpt>
      <trkpt lat="45.70749" lon="6.40516">
        <ele>415.20001220703</ele>
        <time>2025-08-08T15:32:49.000Z</time>
      </trkpt>
      <trkpt lat="45.70689" lon="6.4051">
        <ele>414.60000610352</ele>
        <time>2025-08-08T15:32:57.000Z</time>
      </trkpt>
      <trkpt lat="45.7066" lon="6.40512">
        <ele>414.60000610352</ele>
        <time>2025-08-08T15:33:01.000Z</time>
      </trkpt>
      <trkpt lat="45.70653" lon="6.40514">
        <ele>414.60000610352</ele>
        <time>2025-08-08T15:33:02.000Z</time>
      </trkpt>
      <trkpt lat="45.70631" lon="6.4052">
        <ele>414.20001220703</ele>
        <time>2025-08-08T15:33:05.000Z</time>
      </trkpt>
      <trkpt lat="45.7058" lon="6.40536">
        <ele>413.60000610352</ele>
        <time>2025-08-08T15:33:12.000Z</time>
      </trkpt>
      <trkpt lat="45.70573" lon="6.40538">
        <ele>413.39999389648</ele>
        <time>2025-08-08T15:33:13.000Z</time>
      </trkpt>
      <trkpt lat="45.70518" lon="6.40555">
        <ele>413</ele>
        <time>2025-08-08T15:33:21.000Z</time>
      </trkpt>
      <trkpt lat="45.70505" lon="6.40559">
        <ele>413</ele>
        <time>2025-08-08T15:33:23.000Z</time>
      </trkpt>
      <trkpt lat="45.70463" lon="6.40567">
        <ele>413.39999389648</ele>
        <time>2025-08-08T15:33:30.000Z</time>
      </trkpt>
      <trkpt lat="45.70416" lon="6.40569">
        <ele>414.20001220703</ele>
        <time>2025-08-08T15:33:38.000Z</time>
      </trkpt>
      <trkpt lat="45.70411" lon="6.40568">
        <ele>414.39999389648</ele>
        <time>2025-08-08T15:33:39.000Z</time>
      </trkpt>
      <trkpt lat="45.70377" lon="6.40569">
        <ele>414.79998779297</ele>
        <time>2025-08-08T15:33:45.000Z</time>
      </trkpt>
      <trkpt lat="45.70371" lon="6.40569">
        <ele>414.79998779297</ele>
        <time>2025-08-08T15:33:46.000Z</time>
      </trkpt>
      <trkpt lat="45.70366" lon="6.40571">
        <ele>414.79998779297</ele>
        <time>2025-08-08T15:33:47.000Z</time>
      </trkpt>
      <trkpt lat="45.70361" lon="6.40575">
        <ele>415</ele>
        <time>2025-08-08T15:33:48.000Z</time>
      </trkpt>
      <trkpt lat="45.70355" lon="6.40587">
        <ele>415.20001220703</ele>
        <time>2025-08-08T15:33:50.000Z</time>
      </trkpt>
      <trkpt lat="45.70353" lon="6.40621">
        <ele>415.79998779297</ele>
        <time>2025-08-08T15:33:54.000Z</time>
      </trkpt>
      <trkpt lat="45.70353" lon="6.4063">
        <ele>416</ele>
        <time>2025-08-08T15:33:55.000Z</time>
      </trkpt>
      <trkpt lat="45.70353" lon="6.40647">
        <ele>416</ele>
        <time>2025-08-08T15:33:57.000Z</time>
      </trkpt>
      <trkpt lat="45.70353" lon="6.40674">
        <ele>416</ele>
        <time>2025-08-08T15:34:00.000Z</time>
      </trkpt>
      <trkpt lat="45.7035" lon="6.40719">
        <ele>415.39999389648</ele>
        <time>2025-08-08T15:34:04.000Z</time>
      </trkpt>
      <trkpt lat="45.70347" lon="6.40729">
        <ele>415.20001220703</ele>
        <time>2025-08-08T15:34:05.000Z</time>
      </trkpt>
      <trkpt lat="45.70344" lon="6.40736">
        <ele>415</ele>
        <time>2025-08-08T15:34:06.000Z</time>
      </trkpt>
      <trkpt lat="45.70337" lon="6.40744">
        <ele>414.79998779297</ele>
        <time>2025-08-08T15:34:07.000Z</time>
      </trkpt>
      <trkpt lat="45.7033" lon="6.40748">
        <ele>414.60000610352</ele>
        <time>2025-08-08T15:34:08.000Z</time>
      </trkpt>
      <trkpt lat="45.70317" lon="6.4075">
        <ele>414.20001220703</ele>
        <time>2025-08-08T15:34:10.000Z</time>
      </trkpt>
      <trkpt lat="45.70309" lon="6.40749">
        <ele>414</ele>
        <time>2025-08-08T15:34:11.000Z</time>
      </trkpt>
      <trkpt lat="45.70291" lon="6.40747">
        <ele>413.60000610352</ele>
        <time>2025-08-08T15:34:13.000Z</time>
      </trkpt>
      <trkpt lat="45.7026" lon="6.40743">
        <ele>412.79998779297</ele>
        <time>2025-08-08T15:34:17.000Z</time>
      </trkpt>
      <trkpt lat="45.70224" lon="6.40744">
        <ele>411.79998779297</ele>
        <time>2025-08-08T15:34:21.000Z</time>
      </trkpt>
      <trkpt lat="45.70199" lon="6.40745">
        <ele>411</ele>
        <time>2025-08-08T15:34:24.000Z</time>
      </trkpt>
      <trkpt lat="45.7019" lon="6.40745">
        <ele>410.60000610352</ele>
        <time>2025-08-08T15:34:25.000Z</time>
      </trkpt>
      <trkpt lat="45.70182" lon="6.40744">
        <ele>410.39999389648</ele>
        <time>2025-08-08T15:34:26.000Z</time>
      </trkpt>
      <trkpt lat="45.70148" lon="6.40738">
        <ele>409.60000610352</ele>
        <time>2025-08-08T15:34:30.000Z</time>
      </trkpt>
      <trkpt lat="45.7014" lon="6.40736">
        <ele>409.60000610352</ele>
        <time>2025-08-08T15:34:31.000Z</time>
      </trkpt>
      <trkpt lat="45.7009" lon="6.40719">
        <ele>408.79998779297</ele>
        <time>2025-08-08T15:34:37.000Z</time>
      </trkpt>
      <trkpt lat="45.70073" lon="6.40711">
        <ele>408.60000610352</ele>
        <time>2025-08-08T15:34:39.000Z</time>
      </trkpt>
      <trkpt lat="45.70041" lon="6.4069">
        <ele>408.39999389648</ele>
        <time>2025-08-08T15:34:43.000Z</time>
      </trkpt>
      <trkpt lat="45.69996" lon="6.40654">
        <ele>407.39999389648</ele>
        <time>2025-08-08T15:34:49.000Z</time>
      </trkpt>
      <trkpt lat="45.69974" lon="6.40636">
        <ele>406.79998779297</ele>
        <time>2025-08-08T15:34:52.000Z</time>
      </trkpt>
      <trkpt lat="45.69921" lon="6.40604">
        <ele>406.60000610352</ele>
        <time>2025-08-08T15:34:59.000Z</time>
      </trkpt>
      <trkpt lat="45.69913" lon="6.406">
        <ele>406.39999389648</ele>
        <time>2025-08-08T15:35:00.000Z</time>
      </trkpt>
      <trkpt lat="45.69905" lon="6.40596">
        <ele>406.60000610352</ele>
        <time>2025-08-08T15:35:01.000Z</time>
      </trkpt>
      <trkpt lat="45.69853" lon="6.40572">
        <ele>406.20001220703</ele>
        <time>2025-08-08T15:35:08.000Z</time>
      </trkpt>
      <trkpt lat="45.6983" lon="6.40562">
        <ele>405.79998779297</ele>
        <time>2025-08-08T15:35:11.000Z</time>
      </trkpt>
      <trkpt lat="45.69792" lon="6.40544">
        <ele>405.60000610352</ele>
        <time>2025-08-08T15:35:16.000Z</time>
      </trkpt>
      <trkpt lat="45.69769" lon="6.40534">
        <ele>405.20001220703</ele>
        <time>2025-08-08T15:35:19.000Z</time>
      </trkpt>
      <trkpt lat="45.69718" lon="6.40511">
        <ele>404.60000610352</ele>
        <time>2025-08-08T15:35:26.000Z</time>
      </trkpt>
      <trkpt lat="45.69708" lon="6.40508">
        <ele>404.39999389648</ele>
        <time>2025-08-08T15:35:27.000Z</time>
      </trkpt>
      <trkpt lat="45.69678" lon="6.40495">
        <ele>403.79998779297</ele>
        <time>2025-08-08T15:35:31.000Z</time>
      </trkpt>
      <trkpt lat="45.69649" lon="6.40482">
        <ele>403.39999389648</ele>
        <time>2025-08-08T15:35:35.000Z</time>
      </trkpt>
      <trkpt lat="45.69613" lon="6.40467">
        <ele>403.39999389648</ele>
        <time>2025-08-08T15:35:40.000Z</time>
      </trkpt>
      <trkpt lat="45.69555" lon="6.40443">
        <ele>403.20001220703</ele>
        <time>2025-08-08T15:35:48.000Z</time>
      </trkpt>
      <trkpt lat="45.69548" lon="6.4044">
        <ele>403.39999389648</ele>
        <time>2025-08-08T15:35:49.000Z</time>
      </trkpt>
      <trkpt lat="45.69504" lon="6.40421">
        <ele>404</ele>
        <time>2025-08-08T15:35:56.000Z</time>
      </trkpt>
      <trkpt lat="45.69492" lon="6.40412">
        <ele>404.20001220703</ele>
        <time>2025-08-08T15:35:58.000Z</time>
      </trkpt>
      <trkpt lat="45.69475" lon="6.40396">
        <ele>404.39999389648</ele>
        <time>2025-08-08T15:36:01.000Z</time>
      </trkpt>
      <trkpt lat="45.6947" lon="6.4039">
        <ele>404.60000610352</ele>
        <time>2025-08-08T15:36:02.000Z</time>
      </trkpt>
      <trkpt lat="45.69452" lon="6.40361">
        <ele>404.60000610352</ele>
        <time>2025-08-08T15:36:06.000Z</time>
      </trkpt>
      <trkpt lat="45.69423" lon="6.40331">
        <ele>404.60000610352</ele>
        <time>2025-08-08T15:36:11.000Z</time>
      </trkpt>
      <trkpt lat="45.69397" lon="6.40311">
        <ele>404.39999389648</ele>
        <time>2025-08-08T15:36:15.000Z</time>
      </trkpt>
      <trkpt lat="45.69383" lon="6.40307">
        <ele>404.39999389648</ele>
        <time>2025-08-08T15:36:17.000Z</time>
      </trkpt>
      <trkpt lat="45.69346" lon="6.40309">
        <ele>404.20001220703</ele>
        <time>2025-08-08T15:36:22.000Z</time>
      </trkpt>
      <trkpt lat="45.69332" lon="6.4031">
        <ele>404.20001220703</ele>
        <time>2025-08-08T15:36:24.000Z</time>
      </trkpt>
      <trkpt lat="45.69319" lon="6.40308">
        <ele>404.20001220703</ele>
        <time>2025-08-08T15:36:26.000Z</time>
      </trkpt>
      <trkpt lat="45.69313" lon="6.40306">
        <ele>404.20001220703</ele>
        <time>2025-08-08T15:36:27.000Z</time>
      </trkpt>
      <trkpt lat="45.69307" lon="6.40302">
        <ele>404.20001220703</ele>
        <time>2025-08-08T15:36:28.000Z</time>
      </trkpt>
      <trkpt lat="45.693" lon="6.4029">
        <ele>404</ele>
        <time>2025-08-08T15:36:30.000Z</time>
      </trkpt>
      <trkpt lat="45.69297" lon="6.40276">
        <ele>403.79998779297</ele>
        <time>2025-08-08T15:36:32.000Z</time>
      </trkpt>
      <trkpt lat="45.69294" lon="6.4027">
        <ele>403.79998779297</ele>
        <time>2025-08-08T15:36:33.000Z</time>
      </trkpt>
      <trkpt lat="45.69291" lon="6.40265">
        <ele>403.79998779297</ele>
        <time>2025-08-08T15:36:34.000Z</time>
      </trkpt>
      <trkpt lat="45.69287" lon="6.40262">
        <ele>403.39999389648</ele>
        <time>2025-08-08T15:36:35.000Z</time>
      </trkpt>
      <trkpt lat="45.69282" lon="6.4026">
        <ele>403.39999389648</ele>
        <time>2025-08-08T15:36:36.000Z</time>
      </trkpt>
      <trkpt lat="45.69278" lon="6.40258">
        <ele>403.20001220703</ele>
        <time>2025-08-08T15:36:37.000Z</time>
      </trkpt>
      <trkpt lat="45.69248" lon="6.40244">
        <ele>403</ele>
        <time>2025-08-08T15:36:42.000Z</time>
      </trkpt>
      <trkpt lat="45.69204" lon="6.40226">
        <ele>402.79998779297</ele>
        <time>2025-08-08T15:36:48.000Z</time>
      </trkpt>
      <trkpt lat="45.69146" lon="6.40202">
        <ele>402.60000610352</ele>
        <time>2025-08-08T15:36:56.000Z</time>
      </trkpt>
      <trkpt lat="45.69138" lon="6.40199">
        <ele>402.60000610352</ele>
        <time>2025-08-08T15:36:57.000Z</time>
      </trkpt>
      <trkpt lat="45.69124" lon="6.40192">
        <ele>402.60000610352</ele>
        <time>2025-08-08T15:36:59.000Z</time>
      </trkpt>
      <trkpt lat="45.69068" lon="6.40168">
        <ele>402.39999389648</ele>
        <time>2025-08-08T15:37:07.000Z</time>
      </trkpt>
      <trkpt lat="45.69061" lon="6.40165">
        <ele>402.20001220703</ele>
        <time>2025-08-08T15:37:08.000Z</time>
      </trkpt>
      <trkpt lat="45.69005" lon="6.40141">
        <ele>402.20001220703</ele>
        <time>2025-08-08T15:37:16.000Z</time>
      </trkpt>
      <trkpt lat="45.68991" lon="6.40137">
        <ele>402.20001220703</ele>
        <time>2025-08-08T15:37:18.000Z</time>
      </trkpt>
      <trkpt lat="45.68937" lon="6.40127">
        <ele>402.20001220703</ele>
        <time>2025-08-08T15:37:26.000Z</time>
      </trkpt>
      <trkpt lat="45.68898" lon="6.4011">
        <ele>402.20001220703</ele>
        <time>2025-08-08T15:37:32.000Z</time>
      </trkpt>
      <trkpt lat="45.68846" lon="6.40086">
        <ele>402.20001220703</ele>
        <time>2025-08-08T15:37:40.000Z</time>
      </trkpt>
      <trkpt lat="45.68821" lon="6.40075">
        <ele>402.20001220703</ele>
        <time>2025-08-08T15:37:44.000Z</time>
      </trkpt>
      <trkpt lat="45.68803" lon="6.40065">
        <ele>402.20001220703</ele>
        <time>2025-08-08T15:37:47.000Z</time>
      </trkpt>
      <trkpt lat="45.68791" lon="6.40053">
        <ele>402</ele>
        <time>2025-08-08T15:37:49.000Z</time>
      </trkpt>
      <trkpt lat="45.68772" lon="6.40032">
        <ele>401.79998779297</ele>
        <time>2025-08-08T15:37:52.000Z</time>
      </trkpt>
      <trkpt lat="45.68758" lon="6.40018">
        <ele>401.60000610352</ele>
        <time>2025-08-08T15:37:54.000Z</time>
      </trkpt>
      <trkpt lat="45.68735" lon="6.39998">
        <ele>400.60000610352</ele>
        <time>2025-08-08T15:37:57.000Z</time>
      </trkpt>
      <trkpt lat="45.68719" lon="6.39984">
        <ele>399.79998779297</ele>
        <time>2025-08-08T15:37:59.000Z</time>
      </trkpt>
      <trkpt lat="45.68711" lon="6.39978">
        <ele>399.39999389648</ele>
        <time>2025-08-08T15:38:00.000Z</time>
      </trkpt>
      <trkpt lat="45.68694" lon="6.39966">
        <ele>398.79998779297</ele>
        <time>2025-08-08T15:38:02.000Z</time>
      </trkpt>
      <trkpt lat="45.68677" lon="6.39954">
        <ele>398.39999389648</ele>
        <time>2025-08-08T15:38:04.000Z</time>
      </trkpt>
      <trkpt lat="45.68668" lon="6.39948">
        <ele>397.79998779297</ele>
        <time>2025-08-08T15:38:05.000Z</time>
      </trkpt>
      <trkpt lat="45.68634" lon="6.39926">
        <ele>396.60000610352</ele>
        <time>2025-08-08T15:38:09.000Z</time>
      </trkpt>
      <trkpt lat="45.68626" lon="6.39921">
        <ele>396.39999389648</ele>
        <time>2025-08-08T15:38:10.000Z</time>
      </trkpt>
      <trkpt lat="45.68618" lon="6.39916">
        <ele>396.39999389648</ele>
        <time>2025-08-08T15:38:11.000Z</time>
      </trkpt>
      <trkpt lat="45.68573" lon="6.39887">
        <ele>396.20001220703</ele>
        <time>2025-08-08T15:38:17.000Z</time>
      </trkpt>
      <trkpt lat="45.68529" lon="6.39857">
        <ele>395.79998779297</ele>
        <time>2025-08-08T15:38:23.000Z</time>
      </trkpt>
      <trkpt lat="45.68515" lon="6.39848">
        <ele>395.79998779297</ele>
        <time>2025-08-08T15:38:25.000Z</time>
      </trkpt>
      <trkpt lat="45.68465" lon="6.39816">
        <ele>395.60000610352</ele>
        <time>2025-08-08T15:38:32.000Z</time>
      </trkpt>
      <trkpt lat="45.68416" lon="6.39794">
        <ele>395.20001220703</ele>
        <time>2025-08-08T15:38:39.000Z</time>
      </trkpt>
      <trkpt lat="45.68403" lon="6.39785">
        <ele>395.20001220703</ele>
        <time>2025-08-08T15:38:41.000Z</time>
      </trkpt>
      <trkpt lat="45.6839" lon="6.39774">
        <ele>395</ele>
        <time>2025-08-08T15:38:43.000Z</time>
      </trkpt>
      <trkpt lat="45.68384" lon="6.39769">
        <ele>395</ele>
        <time>2025-08-08T15:38:44.000Z</time>
      </trkpt>
      <trkpt lat="45.68352" lon="6.39751">
        <ele>394.79998779297</ele>
        <time>2025-08-08T15:38:49.000Z</time>
      </trkpt>
      <trkpt lat="45.683" lon="6.39722">
        <ele>394.79998779297</ele>
        <time>2025-08-08T15:38:57.000Z</time>
      </trkpt>
      <trkpt lat="45.6825" lon="6.39685">
        <ele>394.39999389648</ele>
        <time>2025-08-08T15:39:05.000Z</time>
      </trkpt>
      <trkpt lat="45.68245" lon="6.39682">
        <ele>394.39999389648</ele>
        <time>2025-08-08T15:39:06.000Z</time>
      </trkpt>
      <trkpt lat="45.6822" lon="6.3967">
        <ele>394.20001220703</ele>
        <time>2025-08-08T15:39:10.000Z</time>
      </trkpt>
      <trkpt lat="45.68214" lon="6.39665">
        <ele>394.20001220703</ele>
        <time>2025-08-08T15:39:11.000Z</time>
      </trkpt>
      <trkpt lat="45.68182" lon="6.39643">
        <ele>394.20001220703</ele>
        <time>2025-08-08T15:39:16.000Z</time>
      </trkpt>
      <trkpt lat="45.6813" lon="6.39621">
        <ele>394.60000610352</ele>
        <time>2025-08-08T15:39:24.000Z</time>
      </trkpt>
      <trkpt lat="45.68086" lon="6.39617">
        <ele>395</ele>
        <time>2025-08-08T15:39:31.000Z</time>
      </trkpt>
      <trkpt lat="45.6805" lon="6.39607">
        <ele>395.20001220703</ele>
        <time>2025-08-08T15:39:37.000Z</time>
      </trkpt>
      <trkpt lat="45.67995" lon="6.39578">
        <ele>395.20001220703</ele>
        <time>2025-08-08T15:39:46.000Z</time>
      </trkpt>
      <trkpt lat="45.67956" lon="6.39568">
        <ele>395.20001220703</ele>
        <time>2025-08-08T15:39:52.000Z</time>
      </trkpt>
      <trkpt lat="45.67911" lon="6.39558">
        <ele>395.39999389648</ele>
        <time>2025-08-08T15:39:59.000Z</time>
      </trkpt>
      <trkpt lat="45.67898" lon="6.39553">
        <ele>395.39999389648</ele>
        <time>2025-08-08T15:40:01.000Z</time>
      </trkpt>
      <trkpt lat="45.6788" lon="6.39541">
        <ele>395.39999389648</ele>
        <time>2025-08-08T15:40:04.000Z</time>
      </trkpt>
      <trkpt lat="45.67855" lon="6.39529">
        <ele>395.20001220703</ele>
        <time>2025-08-08T15:40:08.000Z</time>
      </trkpt>
      <trkpt lat="45.67848" lon="6.39528">
        <ele>395.20001220703</ele>
        <time>2025-08-08T15:40:09.000Z</time>
      </trkpt>
      <trkpt lat="45.67814" lon="6.39525">
        <ele>394.79998779297</ele>
        <time>2025-08-08T15:40:15.000Z</time>
      </trkpt>
      <trkpt lat="45.67799" lon="6.3953">
        <ele>394.79998779297</ele>
        <time>2025-08-08T15:40:19.000Z</time>
      </trkpt>
      <trkpt lat="45.67794" lon="6.3953">
        <ele>394.79998779297</ele>
        <time>2025-08-08T15:40:20.000Z</time>
      </trkpt>
      <trkpt lat="45.67781" lon="6.39527">
        <ele>395</ele>
        <time>2025-08-08T15:40:23.000Z</time>
      </trkpt>
      <trkpt lat="45.67776" lon="6.39527">
        <ele>395</ele>
        <time>2025-08-08T15:40:24.000Z</time>
      </trkpt>
      <trkpt lat="45.6774" lon="6.39519">
        <ele>394.60000610352</ele>
        <time>2025-08-08T15:40:32.000Z</time>
      </trkpt>
      <trkpt lat="45.67724" lon="6.39514">
        <ele>394.60000610352</ele>
        <time>2025-08-08T15:40:35.000Z</time>
      </trkpt>
      <trkpt lat="45.67711" lon="6.39511">
        <ele>394.60000610352</ele>
        <time>2025-08-08T15:40:38.000Z</time>
      </trkpt>
      <trkpt lat="45.677" lon="6.39508">
        <ele>394.39999389648</ele>
        <time>2025-08-08T15:40:40.000Z</time>
      </trkpt>
      <trkpt lat="45.67666" lon="6.39496">
        <ele>394.20001220703</ele>
        <time>2025-08-08T15:40:48.000Z</time>
      </trkpt>
      <trkpt lat="45.67662" lon="6.39495">
        <ele>394.20001220703</ele>
        <time>2025-08-08T15:40:49.000Z</time>
      </trkpt>
      <trkpt lat="45.6764" lon="6.39489">
        <ele>394.60000610352</ele>
        <time>2025-08-08T15:40:55.000Z</time>
      </trkpt>
      <trkpt lat="45.6763" lon="6.39486">
        <ele>395.39999389648</ele>
        <time>2025-08-08T15:41:01.000Z</time>
      </trkpt>
      <trkpt lat="45.6763" lon="6.39486">
        <ele>395.39999389648</ele>
        <time>2025-08-08T15:41:02.000Z</time>
      </trkpt>
      <trkpt lat="45.67624" lon="6.39488">
        <ele>395.79998779297</ele>
        <time>2025-08-08T15:41:14.000Z</time>
      </trkpt>
      <trkpt lat="45.6762" lon="6.39492">
        <ele>395.60000610352</ele>
        <time>2025-08-08T15:41:16.000Z</time>
      </trkpt>
      <trkpt lat="45.67607" lon="6.39516">
        <ele>395.39999389648</ele>
        <time>2025-08-08T15:41:21.000Z</time>
      </trkpt>
      <trkpt lat="45.67603" lon="6.39521">
        <ele>395.20001220703</ele>
        <time>2025-08-08T15:41:22.000Z</time>
      </trkpt>
      <trkpt lat="45.67597" lon="6.39528">
        <ele>394.79998779297</ele>
        <time>2025-08-08T15:41:24.000Z</time>
      </trkpt>
      <trkpt lat="45.67593" lon="6.39531">
        <ele>394.79998779297</ele>
        <time>2025-08-08T15:41:25.000Z</time>
      </trkpt>
      <trkpt lat="45.6759" lon="6.39535">
        <ele>394.79998779297</ele>
        <time>2025-08-08T15:41:26.000Z</time>
      </trkpt>
      <trkpt lat="45.67585" lon="6.39544">
        <ele>394.60000610352</ele>
        <time>2025-08-08T15:41:28.000Z</time>
      </trkpt>
      <trkpt lat="45.67584" lon="6.3955">
        <ele>394.39999389648</ele>
        <time>2025-08-08T15:41:29.000Z</time>
      </trkpt>
      <trkpt lat="45.67584" lon="6.39553">
        <ele>394.39999389648</ele>
        <time>2025-08-08T15:41:30.000Z</time>
      </trkpt>
      <trkpt lat="45.67585" lon="6.39556">
        <ele>394.20001220703</ele>
        <time>2025-08-08T15:41:32.000Z</time>
      </trkpt>
      <trkpt lat="45.67586" lon="6.39556">
        <ele>394.20001220703</ele>
        <time>2025-08-08T15:41:33.000Z</time>
      </trkpt>
      <trkpt lat="45.67587" lon="6.39554">
        <ele>394.20001220703</ele>
        <time>2025-08-08T15:41:36.000Z</time>
      </trkpt>
      <trkpt lat="45.67589" lon="6.39553">
        <ele>394.20001220703</ele>
        <time>2025-08-08T15:41:39.000Z</time>
      </trkpt>
      <trkpt lat="45.6759" lon="6.39553">
        <ele>394.20001220703</ele>
        <time>2025-08-08T15:41:40.000Z</time>
      </trkpt>
      <trkpt lat="45.67591" lon="6.39552">
        <ele>394.20001220703</ele>
        <time>2025-08-08T15:41:46.000Z</time>
      </trkpt>
      <trkpt lat="45.67592" lon="6.39539">
        <ele>394.60000610352</ele>
        <time>2025-08-08T16:16:19.000Z</time>
      </trkpt>
      <trkpt lat="45.67588" lon="6.39536">
        <ele>394.39999389648</ele>
        <time>2025-08-08T16:16:21.000Z</time>
      </trkpt>
      <trkpt lat="45.67569" lon="6.39531">
        <ele>394.39999389648</ele>
        <time>2025-08-08T16:16:26.000Z</time>
      </trkpt>
      <trkpt lat="45.67542" lon="6.39525">
        <ele>394.60000610352</ele>
        <time>2025-08-08T16:16:32.000Z</time>
      </trkpt>
      <trkpt lat="45.67526" lon="6.39521">
        <ele>394.39999389648</ele>
        <time>2025-08-08T16:16:36.000Z</time>
      </trkpt>
      <trkpt lat="45.67512" lon="6.39518">
        <ele>394.39999389648</ele>
        <time>2025-08-08T16:16:39.000Z</time>
      </trkpt>
      <trkpt lat="45.67468" lon="6.39508">
        <ele>394.39999389648</ele>
        <time>2025-08-08T16:16:48.000Z</time>
      </trkpt>
      <trkpt lat="45.67453" lon="6.39504">
        <ele>394.39999389648</ele>
        <time>2025-08-08T16:16:51.000Z</time>
      </trkpt>
      <trkpt lat="45.67431" lon="6.39497">
        <ele>394.39999389648</ele>
        <time>2025-08-08T16:16:55.000Z</time>
      </trkpt>
      <trkpt lat="45.67391" lon="6.39486">
        <ele>394</ele>
        <time>2025-08-08T16:17:02.000Z</time>
      </trkpt>
      <trkpt lat="45.67363" lon="6.39479">
        <ele>393.60000610352</ele>
        <time>2025-08-08T16:17:07.000Z</time>
      </trkpt>
      <trkpt lat="45.67358" lon="6.39478">
        <ele>393.60000610352</ele>
        <time>2025-08-08T16:17:08.000Z</time>
      </trkpt>
      <trkpt lat="45.67317" lon="6.39468">
        <ele>393.20001220703</ele>
        <time>2025-08-08T16:17:16.000Z</time>
      </trkpt>
      <trkpt lat="45.67302" lon="6.39464">
        <ele>393.20001220703</ele>
        <time>2025-08-08T16:17:19.000Z</time>
      </trkpt>
      <trkpt lat="45.67282" lon="6.39461">
        <ele>393.20001220703</ele>
        <time>2025-08-08T16:17:23.000Z</time>
      </trkpt>
      <trkpt lat="45.67267" lon="6.39458">
        <ele>393.20001220703</ele>
        <time>2025-08-08T16:17:26.000Z</time>
      </trkpt>
      <trkpt lat="45.67255" lon="6.39454">
        <ele>392.79998779297</ele>
        <time>2025-08-08T16:17:29.000Z</time>
      </trkpt>
      <trkpt lat="45.6722" lon="6.39446">
        <ele>392.79998779297</ele>
        <time>2025-08-08T16:17:37.000Z</time>
      </trkpt>
      <trkpt lat="45.67182" lon="6.39436">
        <ele>392.79998779297</ele>
        <time>2025-08-08T16:17:44.000Z</time>
      </trkpt>
      <trkpt lat="45.67138" lon="6.39426">
        <ele>392.60000610352</ele>
        <time>2025-08-08T16:17:52.000Z</time>
      </trkpt>
      <trkpt lat="45.67095" lon="6.39423">
        <ele>392.20001220703</ele>
        <time>2025-08-08T16:17:59.000Z</time>
      </trkpt>
      <trkpt lat="45.6709" lon="6.39423">
        <ele>392</ele>
        <time>2025-08-08T16:18:00.000Z</time>
      </trkpt>
      <trkpt lat="45.67046" lon="6.39428">
        <ele>391.60000610352</ele>
        <time>2025-08-08T16:18:07.000Z</time>
      </trkpt>
      <trkpt lat="45.6704" lon="6.39428">
        <ele>391.39999389648</ele>
        <time>2025-08-08T16:18:08.000Z</time>
      </trkpt>
      <trkpt lat="45.67027" lon="6.3943">
        <ele>391.20001220703</ele>
        <time>2025-08-08T16:18:10.000Z</time>
      </trkpt>
      <trkpt lat="45.67003" lon="6.39434">
        <ele>391.20001220703</ele>
        <time>2025-08-08T16:18:14.000Z</time>
      </trkpt>
      <trkpt lat="45.66991" lon="6.39435">
        <ele>391.20001220703</ele>
        <time>2025-08-08T16:18:16.000Z</time>
      </trkpt>
      <trkpt lat="45.66954" lon="6.3944">
        <ele>390.79998779297</ele>
        <time>2025-08-08T16:18:22.000Z</time>
      </trkpt>
      <trkpt lat="45.66929" lon="6.39445">
        <ele>390.60000610352</ele>
        <time>2025-08-08T16:18:26.000Z</time>
      </trkpt>
      <trkpt lat="45.66897" lon="6.39451">
        <ele>390.20001220703</ele>
        <time>2025-08-08T16:18:31.000Z</time>
      </trkpt>
      <trkpt lat="45.66855" lon="6.39457">
        <ele>390.20001220703</ele>
        <time>2025-08-08T16:18:38.000Z</time>
      </trkpt>
      <trkpt lat="45.6685" lon="6.39456">
        <ele>390.20001220703</ele>
        <time>2025-08-08T16:18:39.000Z</time>
      </trkpt>
      <trkpt lat="45.66845" lon="6.39453">
        <ele>390.20001220703</ele>
        <time>2025-08-08T16:18:40.000Z</time>
      </trkpt>
      <trkpt lat="45.66837" lon="6.39441">
        <ele>390.20001220703</ele>
        <time>2025-08-08T16:18:42.000Z</time>
      </trkpt>
      <trkpt lat="45.66833" lon="6.39425">
        <ele>390.20001220703</ele>
        <time>2025-08-08T16:18:44.000Z</time>
      </trkpt>
      <trkpt lat="45.66834" lon="6.39419">
        <ele>390.20001220703</ele>
        <time>2025-08-08T16:18:45.000Z</time>
      </trkpt>
      <trkpt lat="45.66839" lon="6.39378">
        <ele>389.60000610352</ele>
        <time>2025-08-08T16:18:50.000Z</time>
      </trkpt>
      <trkpt lat="45.66844" lon="6.39344">
        <ele>389.39999389648</ele>
        <time>2025-08-08T16:18:54.000Z</time>
      </trkpt>
      <trkpt lat="45.66854" lon="6.39262">
        <ele>389.60000610352</ele>
        <time>2025-08-08T16:19:04.000Z</time>
      </trkpt>
      <trkpt lat="45.66859" lon="6.39215">
        <ele>390.20001220703</ele>
        <time>2025-08-08T16:19:11.000Z</time>
      </trkpt>
      <trkpt lat="45.66865" lon="6.39166">
        <ele>390.60000610352</ele>
        <time>2025-08-08T16:19:18.000Z</time>
      </trkpt>
      <trkpt lat="45.66866" lon="6.39158">
        <ele>390.60000610352</ele>
        <time>2025-08-08T16:19:19.000Z</time>
      </trkpt>
      <trkpt lat="45.66873" lon="6.39106">
        <ele>390.39999389648</ele>
        <time>2025-08-08T16:19:25.000Z</time>
      </trkpt>
      <trkpt lat="45.6688" lon="6.39089">
        <ele>390</ele>
        <time>2025-08-08T16:19:27.000Z</time>
      </trkpt>
      <trkpt lat="45.6689" lon="6.39064">
        <ele>389.79998779297</ele>
        <time>2025-08-08T16:19:30.000Z</time>
      </trkpt>
      <trkpt lat="45.66894" lon="6.39056">
        <ele>389.79998779297</ele>
        <time>2025-08-08T16:19:31.000Z</time>
      </trkpt>
      <trkpt lat="45.66912" lon="6.39021">
        <ele>389.60000610352</ele>
        <time>2025-08-08T16:19:36.000Z</time>
      </trkpt>
      <trkpt lat="45.66934" lon="6.38984">
        <ele>389.20001220703</ele>
        <time>2025-08-08T16:19:42.000Z</time>
      </trkpt>
      <trkpt lat="45.66967" lon="6.3893">
        <ele>389.20001220703</ele>
        <time>2025-08-08T16:19:51.000Z</time>
      </trkpt>
      <trkpt lat="45.66979" lon="6.38914">
        <ele>389.39999389648</ele>
        <time>2025-08-08T16:19:54.000Z</time>
      </trkpt>
      <trkpt lat="45.66986" lon="6.38901">
        <ele>389.39999389648</ele>
        <time>2025-08-08T16:19:56.000Z</time>
      </trkpt>
      <trkpt lat="45.66992" lon="6.38887">
        <ele>389.60000610352</ele>
        <time>2025-08-08T16:19:58.000Z</time>
      </trkpt>
      <trkpt lat="45.67008" lon="6.38862">
        <ele>389.79998779297</ele>
        <time>2025-08-08T16:20:02.000Z</time>
      </trkpt>
      <trkpt lat="45.67042" lon="6.38803">
        <ele>390</ele>
        <time>2025-08-08T16:20:11.000Z</time>
      </trkpt>
      <trkpt lat="45.67077" lon="6.38744">
        <ele>389.79998779297</ele>
        <time>2025-08-08T16:20:20.000Z</time>
      </trkpt>
      <trkpt lat="45.67107" lon="6.38691">
        <ele>389.79998779297</ele>
        <time>2025-08-08T16:20:28.000Z</time>
      </trkpt>
      <trkpt lat="45.67122" lon="6.38666">
        <ele>389.60000610352</ele>
        <time>2025-08-08T16:20:32.000Z</time>
      </trkpt>
      <trkpt lat="45.67129" lon="6.38656">
        <ele>389.60000610352</ele>
        <time>2025-08-08T16:20:34.000Z</time>
      </trkpt>
      <trkpt lat="45.67142" lon="6.38634">
        <ele>389.60000610352</ele>
        <time>2025-08-08T16:20:39.000Z</time>
      </trkpt>
      <trkpt lat="45.67162" lon="6.38603">
        <ele>389.39999389648</ele>
        <time>2025-08-08T16:20:45.000Z</time>
      </trkpt>
      <trkpt lat="45.67174" lon="6.38582">
        <ele>389.39999389648</ele>
        <time>2025-08-08T16:20:49.000Z</time>
      </trkpt>
      <trkpt lat="45.67181" lon="6.38569">
        <ele>389.39999389648</ele>
        <time>2025-08-08T16:20:51.000Z</time>
      </trkpt>
      <trkpt lat="45.67207" lon="6.38523">
        <ele>389</ele>
        <time>2025-08-08T16:20:58.000Z</time>
      </trkpt>
      <trkpt lat="45.67214" lon="6.38509">
        <ele>389</ele>
        <time>2025-08-08T16:21:00.000Z</time>
      </trkpt>
      <trkpt lat="45.67235" lon="6.38476">
        <ele>389</ele>
        <time>2025-08-08T16:21:05.000Z</time>
      </trkpt>
      <trkpt lat="45.67247" lon="6.38456">
        <ele>389</ele>
        <time>2025-08-08T16:21:08.000Z</time>
      </trkpt>
      <trkpt lat="45.67251" lon="6.38449">
        <ele>389</ele>
        <time>2025-08-08T16:21:09.000Z</time>
      </trkpt>
      <trkpt lat="45.67255" lon="6.38442">
        <ele>389</ele>
        <time>2025-08-08T16:21:10.000Z</time>
      </trkpt>
      <trkpt lat="45.67277" lon="6.38404">
        <ele>388.79998779297</ele>
        <time>2025-08-08T16:21:16.000Z</time>
      </trkpt>
      <trkpt lat="45.67281" lon="6.38398">
        <ele>388.79998779297</ele>
        <time>2025-08-08T16:21:17.000Z</time>
      </trkpt>
      <trkpt lat="45.67294" lon="6.38386">
        <ele>388.79998779297</ele>
        <time>2025-08-08T16:21:20.000Z</time>
      </trkpt>
      <trkpt lat="45.67296" lon="6.38374">
        <ele>388.60000610352</ele>
        <time>2025-08-08T16:21:22.000Z</time>
      </trkpt>
      <trkpt lat="45.67294" lon="6.38367">
        <ele>388.39999389648</ele>
        <time>2025-08-08T16:21:23.000Z</time>
      </trkpt>
      <trkpt lat="45.6729" lon="6.38362">
        <ele>388.39999389648</ele>
        <time>2025-08-08T16:21:24.000Z</time>
      </trkpt>
      <trkpt lat="45.67281" lon="6.38355">
        <ele>388.20001220703</ele>
        <time>2025-08-08T16:21:26.000Z</time>
      </trkpt>
      <trkpt lat="45.67276" lon="6.38351">
        <ele>388.20001220703</ele>
        <time>2025-08-08T16:21:27.000Z</time>
      </trkpt>
      <trkpt lat="45.67268" lon="6.38339">
        <ele>388.20001220703</ele>
        <time>2025-08-08T16:21:29.000Z</time>
      </trkpt>
      <trkpt lat="45.67265" lon="6.38333">
        <ele>388.20001220703</ele>
        <time>2025-08-08T16:21:30.000Z</time>
      </trkpt>
      <trkpt lat="45.67259" lon="6.3832">
        <ele>388.20001220703</ele>
        <time>2025-08-08T16:21:32.000Z</time>
      </trkpt>
      <trkpt lat="45.67244" lon="6.3829">
        <ele>388</ele>
        <time>2025-08-08T16:21:37.000Z</time>
      </trkpt>
      <trkpt lat="45.6722" lon="6.38234">
        <ele>387.79998779297</ele>
        <time>2025-08-08T16:21:45.000Z</time>
      </trkpt>
      <trkpt lat="45.67197" lon="6.38185">
        <ele>387.79998779297</ele>
        <time>2025-08-08T16:21:52.000Z</time>
      </trkpt>
      <trkpt lat="45.67174" lon="6.3813">
        <ele>387.79998779297</ele>
        <time>2025-08-08T16:21:59.000Z</time>
      </trkpt>
      <trkpt lat="45.6716" lon="6.38099">
        <ele>387.20001220703</ele>
        <time>2025-08-08T16:22:03.000Z</time>
      </trkpt>
      <trkpt lat="45.67138" lon="6.38053">
        <ele>386.79998779297</ele>
        <time>2025-08-08T16:22:09.000Z</time>
      </trkpt>
      <trkpt lat="45.67115" lon="6.37998">
        <ele>386.60000610352</ele>
        <time>2025-08-08T16:22:16.000Z</time>
      </trkpt>
      <trkpt lat="45.67089" lon="6.37943">
        <ele>386.20001220703</ele>
        <time>2025-08-08T16:22:23.000Z</time>
      </trkpt>
      <trkpt lat="45.67082" lon="6.37927">
        <ele>386</ele>
        <time>2025-08-08T16:22:25.000Z</time>
      </trkpt>
      <trkpt lat="45.67052" lon="6.37863">
        <ele>385.79998779297</ele>
        <time>2025-08-08T16:22:33.000Z</time>
      </trkpt>
      <trkpt lat="45.67034" lon="6.37823">
        <ele>386</ele>
        <time>2025-08-08T16:22:38.000Z</time>
      </trkpt>
      <trkpt lat="45.67026" lon="6.37799">
        <ele>386</ele>
        <time>2025-08-08T16:22:41.000Z</time>
      </trkpt>
      <trkpt lat="45.67024" lon="6.37783">
        <ele>385.79998779297</ele>
        <time>2025-08-08T16:22:43.000Z</time>
      </trkpt>
      <trkpt lat="45.67024" lon="6.37768">
        <ele>385.79998779297</ele>
        <time>2025-08-08T16:22:45.000Z</time>
      </trkpt>
      <trkpt lat="45.67019" lon="6.37756">
        <ele>385.60000610352</ele>
        <time>2025-08-08T16:22:47.000Z</time>
      </trkpt>
      <trkpt lat="45.6701" lon="6.3775">
        <ele>385.60000610352</ele>
        <time>2025-08-08T16:22:49.000Z</time>
      </trkpt>
      <trkpt lat="45.67005" lon="6.37747">
        <ele>385.60000610352</ele>
        <time>2025-08-08T16:22:50.000Z</time>
      </trkpt>
      <trkpt lat="45.67" lon="6.37744">
        <ele>385.60000610352</ele>
        <time>2025-08-08T16:22:51.000Z</time>
      </trkpt>
      <trkpt lat="45.66993" lon="6.37732">
        <ele>385.39999389648</ele>
        <time>2025-08-08T16:22:53.000Z</time>
      </trkpt>
      <trkpt lat="45.66983" lon="6.3771">
        <ele>385.39999389648</ele>
        <time>2025-08-08T16:22:56.000Z</time>
      </trkpt>
      <trkpt lat="45.6697" lon="6.37684">
        <ele>385.20001220703</ele>
        <time>2025-08-08T16:23:00.000Z</time>
      </trkpt>
      <trkpt lat="45.66944" lon="6.37627">
        <ele>385.20001220703</ele>
        <time>2025-08-08T16:23:08.000Z</time>
      </trkpt>
      <trkpt lat="45.6692" lon="6.37574">
        <ele>384.60000610352</ele>
        <time>2025-08-08T16:23:15.000Z</time>
      </trkpt>
      <trkpt lat="45.66905" lon="6.37543">
        <ele>384.39999389648</ele>
        <time>2025-08-08T16:23:19.000Z</time>
      </trkpt>
      <trkpt lat="45.66875" lon="6.37475">
        <ele>384.60000610352</ele>
        <time>2025-08-08T16:23:28.000Z</time>
      </trkpt>
      <trkpt lat="45.6685" lon="6.37416">
        <ele>385.20001220703</ele>
        <time>2025-08-08T16:23:37.000Z</time>
      </trkpt>
      <trkpt lat="45.66826" lon="6.37365">
        <ele>385</ele>
        <time>2025-08-08T16:23:44.000Z</time>
      </trkpt>
      <trkpt lat="45.66794" lon="6.37296">
        <ele>384.60000610352</ele>
        <time>2025-08-08T16:23:53.000Z</time>
      </trkpt>
      <trkpt lat="45.66783" lon="6.37273">
        <ele>384.39999389648</ele>
        <time>2025-08-08T16:23:56.000Z</time>
      </trkpt>
      <trkpt lat="45.6677" lon="6.37241">
        <ele>384.39999389648</ele>
        <time>2025-08-08T16:24:00.000Z</time>
      </trkpt>
      <trkpt lat="45.66763" lon="6.37226">
        <ele>384.20001220703</ele>
        <time>2025-08-08T16:24:02.000Z</time>
      </trkpt>
      <trkpt lat="45.66735" lon="6.37165">
        <ele>384</ele>
        <time>2025-08-08T16:24:10.000Z</time>
      </trkpt>
      <trkpt lat="45.66719" lon="6.37129">
        <ele>384.20001220703</ele>
        <time>2025-08-08T16:24:15.000Z</time>
      </trkpt>
      <trkpt lat="45.66718" lon="6.37121">
        <ele>384.20001220703</ele>
        <time>2025-08-08T16:24:16.000Z</time>
      </trkpt>
      <trkpt lat="45.66717" lon="6.37113">
        <ele>384.39999389648</ele>
        <time>2025-08-08T16:24:17.000Z</time>
      </trkpt>
      <trkpt lat="45.66715" lon="6.37099">
        <ele>384.60000610352</ele>
        <time>2025-08-08T16:24:19.000Z</time>
      </trkpt>
      <trkpt lat="45.66707" lon="6.37084">
        <ele>384.60000610352</ele>
        <time>2025-08-08T16:24:21.000Z</time>
      </trkpt>
      <trkpt lat="45.66702" lon="6.37079">
        <ele>384.60000610352</ele>
        <time>2025-08-08T16:24:22.000Z</time>
      </trkpt>
      <trkpt lat="45.66693" lon="6.37071">
        <ele>384.79998779297</ele>
        <time>2025-08-08T16:24:24.000Z</time>
      </trkpt>
      <trkpt lat="45.66685" lon="6.37057">
        <ele>384.79998779297</ele>
        <time>2025-08-08T16:24:26.000Z</time>
      </trkpt>
      <trkpt lat="45.66662" lon="6.37007">
        <ele>384.39999389648</ele>
        <time>2025-08-08T16:24:33.000Z</time>
      </trkpt>
      <trkpt lat="45.66631" lon="6.36939">
        <ele>384.60000610352</ele>
        <time>2025-08-08T16:24:42.000Z</time>
      </trkpt>
      <trkpt lat="45.66599" lon="6.36869">
        <ele>384.79998779297</ele>
        <time>2025-08-08T16:24:52.000Z</time>
      </trkpt>
      <trkpt lat="45.66586" lon="6.36835">
        <ele>384.79998779297</ele>
        <time>2025-08-08T16:24:57.000Z</time>
      </trkpt>
      <trkpt lat="45.66585" lon="6.36829">
        <ele>384.79998779297</ele>
        <time>2025-08-08T16:24:58.000Z</time>
      </trkpt>
      <trkpt lat="45.66585" lon="6.36821">
        <ele>384.79998779297</ele>
        <time>2025-08-08T16:24:59.000Z</time>
      </trkpt>
      <trkpt lat="45.66589" lon="6.36796">
        <ele>385.20001220703</ele>
        <time>2025-08-08T16:25:02.000Z</time>
      </trkpt>
      <trkpt lat="45.66587" lon="6.36783">
        <ele>385.39999389648</ele>
        <time>2025-08-08T16:25:04.000Z</time>
      </trkpt>
      <trkpt lat="45.66584" lon="6.36775">
        <ele>385.60000610352</ele>
        <time>2025-08-08T16:25:05.000Z</time>
      </trkpt>
      <trkpt lat="45.66579" lon="6.36772">
        <ele>385.60000610352</ele>
        <time>2025-08-08T16:25:06.000Z</time>
      </trkpt>
      <trkpt lat="45.66569" lon="6.36769">
        <ele>385.79998779297</ele>
        <time>2025-08-08T16:25:08.000Z</time>
      </trkpt>
      <trkpt lat="45.66558" lon="6.36763">
        <ele>385.79998779297</ele>
        <time>2025-08-08T16:25:10.000Z</time>
      </trkpt>
      <trkpt lat="45.66554" lon="6.36758">
        <ele>386</ele>
        <time>2025-08-08T16:25:11.000Z</time>
      </trkpt>
      <trkpt lat="45.6655" lon="6.36754">
        <ele>386</ele>
        <time>2025-08-08T16:25:12.000Z</time>
      </trkpt>
      <trkpt lat="45.66542" lon="6.36743">
        <ele>386.39999389648</ele>
        <time>2025-08-08T16:25:14.000Z</time>
      </trkpt>
      <trkpt lat="45.66533" lon="6.36724">
        <ele>386.39999389648</ele>
        <time>2025-08-08T16:25:17.000Z</time>
      </trkpt>
      <trkpt lat="45.66509" lon="6.36671">
        <ele>386.79998779297</ele>
        <time>2025-08-08T16:25:26.000Z</time>
      </trkpt>
      <trkpt lat="45.66507" lon="6.36667">
        <ele>387</ele>
        <time>2025-08-08T16:25:27.000Z</time>
      </trkpt>
      <trkpt lat="45.66489" lon="6.36627">
        <ele>387.79998779297</ele>
        <time>2025-08-08T16:25:34.000Z</time>
      </trkpt>
      <trkpt lat="45.66482" lon="6.36611">
        <ele>388.20001220703</ele>
        <time>2025-08-08T16:25:37.000Z</time>
      </trkpt>
      <trkpt lat="45.66469" lon="6.36584">
        <ele>388.60000610352</ele>
        <time>2025-08-08T16:25:42.000Z</time>
      </trkpt>
      <trkpt lat="45.66453" lon="6.36546">
        <ele>389.20001220703</ele>
        <time>2025-08-08T16:25:49.000Z</time>
      </trkpt>
      <trkpt lat="45.6645" lon="6.36541">
        <ele>389.20001220703</ele>
        <time>2025-08-08T16:25:50.000Z</time>
      </trkpt>
      <trkpt lat="45.66427" lon="6.36489">
        <ele>390.20001220703</ele>
        <time>2025-08-08T16:26:00.000Z</time>
      </trkpt>
      <trkpt lat="45.66425" lon="6.36484">
        <ele>390.39999389648</ele>
        <time>2025-08-08T16:26:01.000Z</time>
      </trkpt>
      <trkpt lat="45.66408" lon="6.3645">
        <ele>391</ele>
        <time>2025-08-08T16:26:09.000Z</time>
      </trkpt>
      <trkpt lat="45.66401" lon="6.36436">
        <ele>391.20001220703</ele>
        <time>2025-08-08T16:26:15.000Z</time>
      </trkpt>
      <trkpt lat="45.66401" lon="6.36435">
        <ele>391.39999389648</ele>
        <time>2025-08-08T16:26:17.000Z</time>
      </trkpt>
      <trkpt lat="45.66399" lon="6.36429">
        <ele>391.60000610352</ele>
        <time>2025-08-08T16:26:26.000Z</time>
      </trkpt>
      <trkpt lat="45.66398" lon="6.36427">
        <ele>391.60000610352</ele>
        <time>2025-08-08T16:26:27.000Z</time>
      </trkpt>
      <trkpt lat="45.66386" lon="6.36403">
        <ele>391.60000610352</ele>
        <time>2025-08-08T16:26:33.000Z</time>
      </trkpt>
      <trkpt lat="45.66368" lon="6.3636">
        <ele>391.79998779297</ele>
        <time>2025-08-08T16:26:41.000Z</time>
      </trkpt>
      <trkpt lat="45.66344" lon="6.36309">
        <ele>392.60000610352</ele>
        <time>2025-08-08T16:26:50.000Z</time>
      </trkpt>
      <trkpt lat="45.66342" lon="6.36303">
        <ele>392.60000610352</ele>
        <time>2025-08-08T16:26:51.000Z</time>
      </trkpt>
      <trkpt lat="45.66314" lon="6.36242">
        <ele>393.79998779297</ele>
        <time>2025-08-08T16:27:02.000Z</time>
      </trkpt>
      <trkpt lat="45.66291" lon="6.36192">
        <ele>394.39999389648</ele>
        <time>2025-08-08T16:27:11.000Z</time>
      </trkpt>
      <trkpt lat="45.66273" lon="6.36152">
        <ele>394.79998779297</ele>
        <time>2025-08-08T16:27:18.000Z</time>
      </trkpt>
      <trkpt lat="45.66271" lon="6.36147">
        <ele>394.79998779297</ele>
        <time>2025-08-08T16:27:19.000Z</time>
      </trkpt>
      <trkpt lat="45.66249" lon="6.36099">
        <ele>395.60000610352</ele>
        <time>2025-08-08T16:27:28.000Z</time>
      </trkpt>
      <trkpt lat="45.66242" lon="6.36084">
        <ele>396</ele>
        <time>2025-08-08T16:27:31.000Z</time>
      </trkpt>
      <trkpt lat="45.66233" lon="6.36063">
        <ele>396.60000610352</ele>
        <time>2025-08-08T16:27:36.000Z</time>
      </trkpt>
      <trkpt lat="45.66226" lon="6.36054">
        <ele>397</ele>
        <time>2025-08-08T16:27:39.000Z</time>
      </trkpt>
      <trkpt lat="45.66223" lon="6.36053">
        <ele>397</ele>
        <time>2025-08-08T16:27:40.000Z</time>
      </trkpt>
      <trkpt lat="45.6622" lon="6.36052">
        <ele>397.20001220703</ele>
        <time>2025-08-08T16:27:44.000Z</time>
      </trkpt>
      <trkpt lat="45.66211" lon="6.36035">
        <ele>397.60000610352</ele>
        <time>2025-08-08T16:31:36.000Z</time>
      </trkpt>
      <trkpt lat="45.66206" lon="6.36029">
        <ele>397.60000610352</ele>
        <time>2025-08-08T16:31:39.000Z</time>
      </trkpt>
      <trkpt lat="45.66206" lon="6.36028">
        <ele>397.39999389648</ele>
        <time>2025-08-08T16:31:42.000Z</time>
      </trkpt>
      <trkpt lat="45.66207" lon="6.3602">
        <ele>396.79998779297</ele>
        <time>2025-08-08T16:31:59.000Z</time>
      </trkpt>
      <trkpt lat="45.66206" lon="6.36013">
        <ele>396.79998779297</ele>
        <time>2025-08-08T16:32:01.000Z</time>
      </trkpt>
      <trkpt lat="45.66201" lon="6.35999">
        <ele>396.79998779297</ele>
        <time>2025-08-08T16:32:04.000Z</time>
      </trkpt>
      <trkpt lat="45.66186" lon="6.35965">
        <ele>396.79998779297</ele>
        <time>2025-08-08T16:32:11.000Z</time>
      </trkpt>
      <trkpt lat="45.66169" lon="6.35928">
        <ele>396.60000610352</ele>
        <time>2025-08-08T16:32:17.000Z</time>
      </trkpt>
      <trkpt lat="45.6614" lon="6.35861">
        <ele>396.20001220703</ele>
        <time>2025-08-08T16:32:27.000Z</time>
      </trkpt>
      <trkpt lat="45.66117" lon="6.35812">
        <ele>396</ele>
        <time>2025-08-08T16:32:34.000Z</time>
      </trkpt>
      <trkpt lat="45.66105" lon="6.35785">
        <ele>395.60000610352</ele>
        <time>2025-08-08T16:32:38.000Z</time>
      </trkpt>
      <trkpt lat="45.66085" lon="6.35742">
        <ele>395.20001220703</ele>
        <time>2025-08-08T16:32:44.000Z</time>
      </trkpt>
      <trkpt lat="45.66075" lon="6.3572">
        <ele>395</ele>
        <time>2025-08-08T16:32:47.000Z</time>
      </trkpt>
      <trkpt lat="45.66043" lon="6.35651">
        <ele>394.60000610352</ele>
        <time>2025-08-08T16:32:56.000Z</time>
      </trkpt>
      <trkpt lat="45.66039" lon="6.35643">
        <ele>394.60000610352</ele>
        <time>2025-08-08T16:32:57.000Z</time>
      </trkpt>
      <trkpt lat="45.66025" lon="6.35613">
        <ele>394</ele>
        <time>2025-08-08T16:33:01.000Z</time>
      </trkpt>
      <trkpt lat="45.66004" lon="6.35566">
        <ele>393.20001220703</ele>
        <time>2025-08-08T16:33:07.000Z</time>
      </trkpt>
      <trkpt lat="45.66" lon="6.35557">
        <ele>393</ele>
        <time>2025-08-08T16:33:08.000Z</time>
      </trkpt>
      <trkpt lat="45.65969" lon="6.35489">
        <ele>392.20001220703</ele>
        <time>2025-08-08T16:33:17.000Z</time>
      </trkpt>
      <trkpt lat="45.65966" lon="6.35483">
        <ele>392.20001220703</ele>
        <time>2025-08-08T16:33:18.000Z</time>
      </trkpt>
      <trkpt lat="45.65934" lon="6.35415">
        <ele>392.60000610352</ele>
        <time>2025-08-08T16:33:27.000Z</time>
      </trkpt>
      <trkpt lat="45.65905" lon="6.3535">
        <ele>392</ele>
        <time>2025-08-08T16:33:35.000Z</time>
      </trkpt>
      <trkpt lat="45.65902" lon="6.35344">
        <ele>391.79998779297</ele>
        <time>2025-08-08T16:33:36.000Z</time>
      </trkpt>
      <trkpt lat="45.65894" lon="6.35327">
        <ele>391.39999389648</ele>
        <time>2025-08-08T16:33:38.000Z</time>
      </trkpt>
      <trkpt lat="45.65869" lon="6.35271">
        <ele>390.79998779297</ele>
        <time>2025-08-08T16:33:45.000Z</time>
      </trkpt>
      <trkpt lat="45.65855" lon="6.3524">
        <ele>390</ele>
        <time>2025-08-08T16:33:49.000Z</time>
      </trkpt>
      <trkpt lat="45.65845" lon="6.35217">
        <ele>389.60000610352</ele>
        <time>2025-08-08T16:33:52.000Z</time>
      </trkpt>
      <trkpt lat="45.65825" lon="6.35172">
        <ele>388.79998779297</ele>
        <time>2025-08-08T16:33:58.000Z</time>
      </trkpt>
      <trkpt lat="45.65819" lon="6.35159">
        <ele>388.60000610352</ele>
        <time>2025-08-08T16:34:00.000Z</time>
      </trkpt>
      <trkpt lat="45.658" lon="6.35118">
        <ele>388.20001220703</ele>
        <time>2025-08-08T16:34:05.000Z</time>
      </trkpt>
      <trkpt lat="45.65782" lon="6.35079">
        <ele>387.60000610352</ele>
        <time>2025-08-08T16:34:10.000Z</time>
      </trkpt>
      <trkpt lat="45.65764" lon="6.35041">
        <ele>387.20001220703</ele>
        <time>2025-08-08T16:34:15.000Z</time>
      </trkpt>
      <trkpt lat="45.65757" lon="6.35025">
        <ele>387.20001220703</ele>
        <time>2025-08-08T16:34:17.000Z</time>
      </trkpt>
      <trkpt lat="45.65728" lon="6.3496">
        <ele>386.60000610352</ele>
        <time>2025-08-08T16:34:25.000Z</time>
      </trkpt>
      <trkpt lat="45.65721" lon="6.34944">
        <ele>386.20001220703</ele>
        <time>2025-08-08T16:34:27.000Z</time>
      </trkpt>
      <trkpt lat="45.65698" lon="6.34895">
        <ele>385.60000610352</ele>
        <time>2025-08-08T16:34:33.000Z</time>
      </trkpt>
      <trkpt lat="45.65676" lon="6.34844">
        <ele>384.79998779297</ele>
        <time>2025-08-08T16:34:39.000Z</time>
      </trkpt>
      <trkpt lat="45.65668" lon="6.34827">
        <ele>384.60000610352</ele>
        <time>2025-08-08T16:34:41.000Z</time>
      </trkpt>
      <trkpt lat="45.65638" lon="6.3476">
        <ele>383.79998779297</ele>
        <time>2025-08-08T16:34:49.000Z</time>
      </trkpt>
      <trkpt lat="45.6563" lon="6.34742">
        <ele>383.60000610352</ele>
        <time>2025-08-08T16:34:51.000Z</time>
      </trkpt>
      <trkpt lat="45.65626" lon="6.34733">
        <ele>383.39999389648</ele>
        <time>2025-08-08T16:34:52.000Z</time>
      </trkpt>
      <trkpt lat="45.65593" lon="6.34662">
        <ele>382.20001220703</ele>
        <time>2025-08-08T16:35:00.000Z</time>
      </trkpt>
      <trkpt lat="45.65585" lon="6.34644">
        <ele>381.79998779297</ele>
        <time>2025-08-08T16:35:02.000Z</time>
      </trkpt>
      <trkpt lat="45.65558" lon="6.34583">
        <ele>381.20001220703</ele>
        <time>2025-08-08T16:35:09.000Z</time>
      </trkpt>
      <trkpt lat="45.65554" lon="6.34574">
        <ele>381.20001220703</ele>
        <time>2025-08-08T16:35:10.000Z</time>
      </trkpt>
      <trkpt lat="45.65543" lon="6.34548">
        <ele>381</ele>
        <time>2025-08-08T16:35:13.000Z</time>
      </trkpt>
      <trkpt lat="45.65515" lon="6.34483">
        <ele>380.39999389648</ele>
        <time>2025-08-08T16:35:21.000Z</time>
      </trkpt>
      <trkpt lat="45.65511" lon="6.34475">
        <ele>380.20001220703</ele>
        <time>2025-08-08T16:35:22.000Z</time>
      </trkpt>
      <trkpt lat="45.6548" lon="6.3441">
        <ele>379.79998779297</ele>
        <time>2025-08-08T16:35:30.000Z</time>
      </trkpt>
      <trkpt lat="45.65469" lon="6.34386">
        <ele>379.60000610352</ele>
        <time>2025-08-08T16:35:33.000Z</time>
      </trkpt>
      <trkpt lat="45.65442" lon="6.34325">
        <ele>379.60000610352</ele>
        <time>2025-08-08T16:35:41.000Z</time>
      </trkpt>
      <trkpt lat="45.6541" lon="6.34256">
        <ele>379.20001220703</ele>
        <time>2025-08-08T16:35:49.000Z</time>
      </trkpt>
      <trkpt lat="45.65383" lon="6.34198">
        <ele>378.20001220703</ele>
        <time>2025-08-08T16:35:56.000Z</time>
      </trkpt>
      <trkpt lat="45.65364" lon="6.3416">
        <ele>377.79998779297</ele>
        <time>2025-08-08T16:36:01.000Z</time>
      </trkpt>
      <trkpt lat="45.65345" lon="6.34119">
        <ele>377.20001220703</ele>
        <time>2025-08-08T16:36:06.000Z</time>
      </trkpt>
      <trkpt lat="45.65315" lon="6.34052">
        <ele>376.60000610352</ele>
        <time>2025-08-08T16:36:14.000Z</time>
      </trkpt>
      <trkpt lat="45.65297" lon="6.3401">
        <ele>376.20001220703</ele>
        <time>2025-08-08T16:36:19.000Z</time>
      </trkpt>
      <trkpt lat="45.65272" lon="6.33953">
        <ele>375.60000610352</ele>
        <time>2025-08-08T16:36:26.000Z</time>
      </trkpt>
      <trkpt lat="45.6524" lon="6.33887">
        <ele>375.39999389648</ele>
        <time>2025-08-08T16:36:34.000Z</time>
      </trkpt>
      <trkpt lat="45.65229" lon="6.33863">
        <ele>375.20001220703</ele>
        <time>2025-08-08T16:36:37.000Z</time>
      </trkpt>
      <trkpt lat="45.65211" lon="6.33824">
        <ele>375.20001220703</ele>
        <time>2025-08-08T16:36:42.000Z</time>
      </trkpt>
      <trkpt lat="45.65185" lon="6.33767">
        <ele>374.20001220703</ele>
        <time>2025-08-08T16:36:49.000Z</time>
      </trkpt>
      <trkpt lat="45.65154" lon="6.33697">
        <ele>374</ele>
        <time>2025-08-08T16:36:58.000Z</time>
      </trkpt>
      <trkpt lat="45.65151" lon="6.33689">
        <ele>374</ele>
        <time>2025-08-08T16:36:59.000Z</time>
      </trkpt>
      <trkpt lat="45.65119" lon="6.3362">
        <ele>373.79998779297</ele>
        <time>2025-08-08T16:37:08.000Z</time>
      </trkpt>
      <trkpt lat="45.65112" lon="6.33605">
        <ele>374</ele>
        <time>2025-08-08T16:37:10.000Z</time>
      </trkpt>
      <trkpt lat="45.65081" lon="6.33538">
        <ele>374.39999389648</ele>
        <time>2025-08-08T16:37:19.000Z</time>
      </trkpt>
      <trkpt lat="45.65064" lon="6.335">
        <ele>374.39999389648</ele>
        <time>2025-08-08T16:37:24.000Z</time>
      </trkpt>
      <trkpt lat="45.65033" lon="6.33431">
        <ele>374.20001220703</ele>
        <time>2025-08-08T16:37:33.000Z</time>
      </trkpt>
      <trkpt lat="45.65019" lon="6.33401">
        <ele>374.20001220703</ele>
        <time>2025-08-08T16:37:37.000Z</time>
      </trkpt>
      <trkpt lat="45.64988" lon="6.33331">
        <ele>373.79998779297</ele>
        <time>2025-08-08T16:37:46.000Z</time>
      </trkpt>
      <trkpt lat="45.64973" lon="6.33299">
        <ele>373.39999389648</ele>
        <time>2025-08-08T16:37:50.000Z</time>
      </trkpt>
      <trkpt lat="45.64944" lon="6.33235">
        <ele>372.79998779297</ele>
        <time>2025-08-08T16:37:58.000Z</time>
      </trkpt>
      <trkpt lat="45.64936" lon="6.3322">
        <ele>372.39999389648</ele>
        <time>2025-08-08T16:38:00.000Z</time>
      </trkpt>
      <trkpt lat="45.64905" lon="6.33147">
        <ele>372.20001220703</ele>
        <time>2025-08-08T16:38:09.000Z</time>
      </trkpt>
      <trkpt lat="45.64901" lon="6.3314">
        <ele>372.20001220703</ele>
        <time>2025-08-08T16:38:10.000Z</time>
      </trkpt>
      <trkpt lat="45.64864" lon="6.33073">
        <ele>372.39999389648</ele>
        <time>2025-08-08T16:38:19.000Z</time>
      </trkpt>
      <trkpt lat="45.64842" lon="6.33037">
        <ele>372.60000610352</ele>
        <time>2025-08-08T16:38:24.000Z</time>
      </trkpt>
      <trkpt lat="45.64836" lon="6.33031">
        <ele>372.60000610352</ele>
        <time>2025-08-08T16:38:25.000Z</time>
      </trkpt>
      <trkpt lat="45.64801" lon="6.32997">
        <ele>372.39999389648</ele>
        <time>2025-08-08T16:38:31.000Z</time>
      </trkpt>
      <trkpt lat="45.64796" lon="6.32991">
        <ele>372.20001220703</ele>
        <time>2025-08-08T16:38:32.000Z</time>
      </trkpt>
      <trkpt lat="45.64774" lon="6.3297">
        <ele>371.39999389648</ele>
        <time>2025-08-08T16:38:36.000Z</time>
      </trkpt>
      <trkpt lat="45.64755" lon="6.32952">
        <ele>371.20001220703</ele>
        <time>2025-08-08T16:38:39.000Z</time>
      </trkpt>
      <trkpt lat="45.64705" lon="6.32906">
        <ele>371.39999389648</ele>
        <time>2025-08-08T16:38:48.000Z</time>
      </trkpt>
      <trkpt lat="45.64699" lon="6.329">
        <ele>371.39999389648</ele>
        <time>2025-08-08T16:38:49.000Z</time>
      </trkpt>
      <trkpt lat="45.64672" lon="6.32874">
        <ele>371.39999389648</ele>
        <time>2025-08-08T16:38:54.000Z</time>
      </trkpt>
      <trkpt lat="45.64667" lon="6.32869">
        <ele>371.39999389648</ele>
        <time>2025-08-08T16:38:55.000Z</time>
      </trkpt>
      <trkpt lat="45.64616" lon="6.32822">
        <ele>371.39999389648</ele>
        <time>2025-08-08T16:39:04.000Z</time>
      </trkpt>
      <trkpt lat="45.646" lon="6.32806">
        <ele>371.20001220703</ele>
        <time>2025-08-08T16:39:07.000Z</time>
      </trkpt>
      <trkpt lat="45.64554" lon="6.32763">
        <ele>371.20001220703</ele>
        <time>2025-08-08T16:39:15.000Z</time>
      </trkpt>
      <trkpt lat="45.64548" lon="6.32756">
        <ele>371.20001220703</ele>
        <time>2025-08-08T16:39:16.000Z</time>
      </trkpt>
      <trkpt lat="45.64502" lon="6.32712">
        <ele>370.79998779297</ele>
        <time>2025-08-08T16:39:24.000Z</time>
      </trkpt>
      <trkpt lat="45.64491" lon="6.32701">
        <ele>370.79998779297</ele>
        <time>2025-08-08T16:39:26.000Z</time>
      </trkpt>
      <trkpt lat="45.64446" lon="6.32656">
        <ele>370.79998779297</ele>
        <time>2025-08-08T16:39:34.000Z</time>
      </trkpt>
      <trkpt lat="45.64429" lon="6.32638">
        <ele>370.79998779297</ele>
        <time>2025-08-08T16:39:37.000Z</time>
      </trkpt>
      <trkpt lat="45.64423" lon="6.32632">
        <ele>370.79998779297</ele>
        <time>2025-08-08T16:39:38.000Z</time>
      </trkpt>
      <trkpt lat="45.64397" lon="6.326">
        <ele>370.60000610352</ele>
        <time>2025-08-08T16:39:43.000Z</time>
      </trkpt>
      <trkpt lat="45.64376" lon="6.32572">
        <ele>370.39999389648</ele>
        <time>2025-08-08T16:39:47.000Z</time>
      </trkpt>
      <trkpt lat="45.6434" lon="6.3251">
        <ele>369.79998779297</ele>
        <time>2025-08-08T16:39:55.000Z</time>
      </trkpt>
      <trkpt lat="45.64308" lon="6.32454">
        <ele>369.79998779297</ele>
        <time>2025-08-08T16:40:03.000Z</time>
      </trkpt>
      <trkpt lat="45.64268" lon="6.32399">
        <ele>370.39999389648</ele>
        <time>2025-08-08T16:40:12.000Z</time>
      </trkpt>
      <trkpt lat="45.64262" lon="6.32392">
        <ele>370.60000610352</ele>
        <time>2025-08-08T16:40:13.000Z</time>
      </trkpt>
      <trkpt lat="45.64257" lon="6.32386">
        <ele>370.60000610352</ele>
        <time>2025-08-08T16:40:14.000Z</time>
      </trkpt>
      <trkpt lat="45.64208" lon="6.32341">
        <ele>371.20001220703</ele>
        <time>2025-08-08T16:40:23.000Z</time>
      </trkpt>
      <trkpt lat="45.64202" lon="6.32337">
        <ele>371.39999389648</ele>
        <time>2025-08-08T16:40:24.000Z</time>
      </trkpt>
      <trkpt lat="45.64152" lon="6.32304">
        <ele>370.79998779297</ele>
        <time>2025-08-08T16:40:32.000Z</time>
      </trkpt>
      <trkpt lat="45.64146" lon="6.32301">
        <ele>370.60000610352</ele>
        <time>2025-08-08T16:40:33.000Z</time>
      </trkpt>
      <trkpt lat="45.64095" lon="6.32269">
        <ele>370.20001220703</ele>
        <time>2025-08-08T16:40:41.000Z</time>
      </trkpt>
      <trkpt lat="45.64076" lon="6.32256">
        <ele>370</ele>
        <time>2025-08-08T16:40:44.000Z</time>
      </trkpt>
      <trkpt lat="45.64035" lon="6.32221">
        <ele>369.79998779297</ele>
        <time>2025-08-08T16:40:51.000Z</time>
      </trkpt>
      <trkpt lat="45.64023" lon="6.32211">
        <ele>369.79998779297</ele>
        <time>2025-08-08T16:40:53.000Z</time>
      </trkpt>
      <trkpt lat="45.63994" lon="6.32183">
        <ele>369.60000610352</ele>
        <time>2025-08-08T16:40:58.000Z</time>
      </trkpt>
      <trkpt lat="45.6396" lon="6.32151">
        <ele>369.39999389648</ele>
        <time>2025-08-08T16:41:04.000Z</time>
      </trkpt>
      <trkpt lat="45.63914" lon="6.32116">
        <ele>369.20001220703</ele>
        <time>2025-08-08T16:41:12.000Z</time>
      </trkpt>
      <trkpt lat="45.63887" lon="6.321">
        <ele>369.20001220703</ele>
        <time>2025-08-08T16:41:16.000Z</time>
      </trkpt>
      <trkpt lat="45.63873" lon="6.32095">
        <ele>369</ele>
        <time>2025-08-08T16:41:18.000Z</time>
      </trkpt>
      <trkpt lat="45.6382" lon="6.3207">
        <ele>368.39999389648</ele>
        <time>2025-08-08T16:41:26.000Z</time>
      </trkpt>
      <trkpt lat="45.63813" lon="6.32065">
        <ele>368.39999389648</ele>
        <time>2025-08-08T16:41:27.000Z</time>
      </trkpt>
      <trkpt lat="45.63784" lon="6.32041">
        <ele>368.20001220703</ele>
        <time>2025-08-08T16:41:32.000Z</time>
      </trkpt>
      <trkpt lat="45.63736" lon="6.31997">
        <ele>368.20001220703</ele>
        <time>2025-08-08T16:41:40.000Z</time>
      </trkpt>
      <trkpt lat="45.63731" lon="6.3199">
        <ele>368.20001220703</ele>
        <time>2025-08-08T16:41:41.000Z</time>
      </trkpt>
      <trkpt lat="45.63702" lon="6.31948">
        <ele>367.79998779297</ele>
        <time>2025-08-08T16:41:47.000Z</time>
      </trkpt>
      <trkpt lat="45.63674" lon="6.31895">
        <ele>368</ele>
        <time>2025-08-08T16:41:54.000Z</time>
      </trkpt>
      <trkpt lat="45.63657" lon="6.31863">
        <ele>368.20001220703</ele>
        <time>2025-08-08T16:41:59.000Z</time>
      </trkpt>
      <trkpt lat="45.6364" lon="6.3183">
        <ele>369.60000610352</ele>
        <time>2025-08-08T16:42:05.000Z</time>
      </trkpt>
      <trkpt lat="45.63624" lon="6.31803">
        <ele>370.79998779297</ele>
        <time>2025-08-08T16:42:11.000Z</time>
      </trkpt>
      <trkpt lat="45.63622" lon="6.31799">
        <ele>370.79998779297</ele>
        <time>2025-08-08T16:42:12.000Z</time>
      </trkpt>
      <trkpt lat="45.63612" lon="6.31785">
        <ele>372</ele>
        <time>2025-08-08T16:42:16.000Z</time>
      </trkpt>
      <trkpt lat="45.63601" lon="6.31766">
        <ele>373</ele>
        <time>2025-08-08T16:42:21.000Z</time>
      </trkpt>
      <trkpt lat="45.63599" lon="6.31763">
        <ele>373</ele>
        <time>2025-08-08T16:42:22.000Z</time>
      </trkpt>
      <trkpt lat="45.63595" lon="6.31754">
        <ele>373.39999389648</ele>
        <time>2025-08-08T16:42:23.000Z</time>
      </trkpt>
      <trkpt lat="45.63586" lon="6.31739">
        <ele>374</ele>
        <time>2025-08-08T16:42:27.000Z</time>
      </trkpt>
      <trkpt lat="45.63584" lon="6.31735">
        <ele>374.20001220703</ele>
        <time>2025-08-08T16:42:29.000Z</time>
      </trkpt>
      <trkpt lat="45.63579" lon="6.31723">
        <ele>375</ele>
        <time>2025-08-08T16:42:32.000Z</time>
      </trkpt>
      <trkpt lat="45.63569" lon="6.31706">
        <ele>375.79998779297</ele>
        <time>2025-08-08T16:42:36.000Z</time>
      </trkpt>
      <trkpt lat="45.63569" lon="6.31706">
        <ele>376</ele>
        <time>2025-08-08T16:42:37.000Z</time>
      </trkpt>
      <trkpt lat="45.63556" lon="6.31679">
        <ele>377</ele>
        <time>2025-08-08T16:42:43.000Z</time>
      </trkpt>
      <trkpt lat="45.63556" lon="6.31679">
        <ele>377.20001220703</ele>
        <time>2025-08-08T16:42:44.000Z</time>
      </trkpt>
      <trkpt lat="45.63542" lon="6.3165">
        <ele>378</ele>
        <time>2025-08-08T16:42:50.000Z</time>
      </trkpt>
      <trkpt lat="45.63535" lon="6.31636">
        <ele>378.39999389648</ele>
        <time>2025-08-08T16:42:53.000Z</time>
      </trkpt>
      <trkpt lat="45.63524" lon="6.31615">
        <ele>379.20001220703</ele>
        <time>2025-08-08T16:42:58.000Z</time>
      </trkpt>
      <trkpt lat="45.63513" lon="6.31591">
        <ele>379.39999389648</ele>
        <time>2025-08-08T16:43:03.000Z</time>
      </trkpt>
      <trkpt lat="45.63495" lon="6.31555">
        <ele>380.20001220703</ele>
        <time>2025-08-08T16:43:12.000Z</time>
      </trkpt>
      <trkpt lat="45.63475" lon="6.31512">
        <ele>380.39999389648</ele>
        <time>2025-08-08T16:43:19.000Z</time>
      </trkpt>
      <trkpt lat="45.63471" lon="6.31502">
        <ele>380.39999389648</ele>
        <time>2025-08-08T16:43:21.000Z</time>
      </trkpt>
      <trkpt lat="45.63465" lon="6.31491">
        <ele>380.39999389648</ele>
        <time>2025-08-08T16:43:23.000Z</time>
      </trkpt>
      <trkpt lat="45.63456" lon="6.31476">
        <ele>380.60000610352</ele>
        <time>2025-08-08T16:43:26.000Z</time>
      </trkpt>
      <trkpt lat="45.63454" lon="6.31472">
        <ele>380.79998779297</ele>
        <time>2025-08-08T16:43:28.000Z</time>
      </trkpt>
      <trkpt lat="45.63444" lon="6.31452">
        <ele>381.20001220703</ele>
        <time>2025-08-08T16:43:31.000Z</time>
      </trkpt>
      <trkpt lat="45.63432" lon="6.3143">
        <ele>381.60000610352</ele>
        <time>2025-08-08T16:43:35.000Z</time>
      </trkpt>
      <trkpt lat="45.63423" lon="6.31415">
        <ele>381.79998779297</ele>
        <time>2025-08-08T16:43:38.000Z</time>
      </trkpt>
      <trkpt lat="45.63392" lon="6.31363">
        <ele>382</ele>
        <time>2025-08-08T16:43:49.000Z</time>
      </trkpt>
      <trkpt lat="45.63378" lon="6.31337">
        <ele>382.20001220703</ele>
        <time>2025-08-08T16:43:55.000Z</time>
      </trkpt>
      <trkpt lat="45.63376" lon="6.31333">
        <ele>382.20001220703</ele>
        <time>2025-08-08T16:43:56.000Z</time>
      </trkpt>
      <trkpt lat="45.63375" lon="6.31331">
        <ele>382.39999389648</ele>
        <time>2025-08-08T16:43:59.000Z</time>
      </trkpt>
      <trkpt lat="45.63372" lon="6.31325">
        <ele>382.39999389648</ele>
        <time>2025-08-08T16:44:29.000Z</time>
      </trkpt>
      <trkpt lat="45.63364" lon="6.31304">
        <ele>382.39999389648</ele>
        <time>2025-08-08T16:44:34.000Z</time>
      </trkpt>
      <trkpt lat="45.63351" lon="6.31279">
        <ele>382.60000610352</ele>
        <time>2025-08-08T16:44:39.000Z</time>
      </trkpt>
      <trkpt lat="45.63329" lon="6.31241">
        <ele>382.20001220703</ele>
        <time>2025-08-08T16:44:47.000Z</time>
      </trkpt>
      <trkpt lat="45.6331" lon="6.31214">
        <ele>381.79998779297</ele>
        <time>2025-08-08T16:44:51.000Z</time>
      </trkpt>
      <trkpt lat="45.63302" lon="6.312">
        <ele>381.60000610352</ele>
        <time>2025-08-08T16:44:53.000Z</time>
      </trkpt>
      <trkpt lat="45.633" lon="6.31192">
        <ele>381.60000610352</ele>
        <time>2025-08-08T16:44:54.000Z</time>
      </trkpt>
      <trkpt lat="45.6328" lon="6.31149">
        <ele>381.39999389648</ele>
        <time>2025-08-08T16:45:01.000Z</time>
      </trkpt>
      <trkpt lat="45.63262" lon="6.31112">
        <ele>381.20001220703</ele>
        <time>2025-08-08T16:45:05.000Z</time>
      </trkpt>
      <trkpt lat="45.63249" lon="6.3109">
        <ele>381</ele>
        <time>2025-08-08T16:45:08.000Z</time>
      </trkpt>
      <trkpt lat="45.63207" lon="6.31014">
        <ele>380</ele>
        <time>2025-08-08T16:45:18.000Z</time>
      </trkpt>
      <trkpt lat="45.63177" lon="6.30956">
        <ele>379.39999389648</ele>
        <time>2025-08-08T16:45:25.000Z</time>
      </trkpt>
      <trkpt lat="45.6316" lon="6.30925">
        <ele>379</ele>
        <time>2025-08-08T16:45:29.000Z</time>
      </trkpt>
      <trkpt lat="45.63149" lon="6.30903">
        <ele>378.79998779297</ele>
        <time>2025-08-08T16:45:32.000Z</time>
      </trkpt>
      <trkpt lat="45.63117" lon="6.3084">
        <ele>378.39999389648</ele>
        <time>2025-08-08T16:45:40.000Z</time>
      </trkpt>
      <trkpt lat="45.63094" lon="6.30796">
        <ele>377.79998779297</ele>
        <time>2025-08-08T16:45:45.000Z</time>
      </trkpt>
      <trkpt lat="45.6308" lon="6.3077">
        <ele>377.60000610352</ele>
        <time>2025-08-08T16:45:48.000Z</time>
      </trkpt>
      <trkpt lat="45.63055" lon="6.30724">
        <ele>376.79998779297</ele>
        <time>2025-08-08T16:45:53.000Z</time>
      </trkpt>
      <trkpt lat="45.63035" lon="6.30687">
        <ele>375.60000610352</ele>
        <time>2025-08-08T16:45:57.000Z</time>
      </trkpt>
      <trkpt lat="45.63025" lon="6.30668">
        <ele>375</ele>
        <time>2025-08-08T16:45:59.000Z</time>
      </trkpt>
      <trkpt lat="45.63021" lon="6.3066">
        <ele>375</ele>
        <time>2025-08-08T16:46:00.000Z</time>
      </trkpt>
      <trkpt lat="45.62998" lon="6.30618">
        <ele>374.39999389648</ele>
        <time>2025-08-08T16:46:04.000Z</time>
      </trkpt>
      <trkpt lat="45.62982" lon="6.30586">
        <ele>373.60000610352</ele>
        <time>2025-08-08T16:46:07.000Z</time>
      </trkpt>
      <trkpt lat="45.6297" lon="6.30565">
        <ele>373</ele>
        <time>2025-08-08T16:46:09.000Z</time>
      </trkpt>
      <trkpt lat="45.62959" lon="6.30544">
        <ele>372.60000610352</ele>
        <time>2025-08-08T16:46:11.000Z</time>
      </trkpt>
      <trkpt lat="45.6293" lon="6.30489">
        <ele>371.39999389648</ele>
        <time>2025-08-08T16:46:16.000Z</time>
      </trkpt>
      <trkpt lat="45.62912" lon="6.30456">
        <ele>370.39999389648</ele>
        <time>2025-08-08T16:46:19.000Z</time>
      </trkpt>
      <trkpt lat="45.62894" lon="6.30422">
        <ele>369.20001220703</ele>
        <time>2025-08-08T16:46:22.000Z</time>
      </trkpt>
      <trkpt lat="45.6287" lon="6.30377">
        <ele>367.79998779297</ele>
        <time>2025-08-08T16:46:26.000Z</time>
      </trkpt>
      <trkpt lat="45.62859" lon="6.30356">
        <ele>367.39999389648</ele>
        <time>2025-08-08T16:46:28.000Z</time>
      </trkpt>
      <trkpt lat="45.62843" lon="6.30327">
        <ele>366.79998779297</ele>
        <time>2025-08-08T16:46:31.000Z</time>
      </trkpt>
      <trkpt lat="45.62827" lon="6.30299">
        <ele>366.39999389648</ele>
        <time>2025-08-08T16:46:34.000Z</time>
      </trkpt>
      <trkpt lat="45.62803" lon="6.30254">
        <ele>366.60000610352</ele>
        <time>2025-08-08T16:46:40.000Z</time>
      </trkpt>
      <trkpt lat="45.628" lon="6.30248">
        <ele>366.79998779297</ele>
        <time>2025-08-08T16:46:41.000Z</time>
      </trkpt>
      <trkpt lat="45.62787" lon="6.30226">
        <ele>367.79998779297</ele>
        <time>2025-08-08T16:46:45.000Z</time>
      </trkpt>
      <trkpt lat="45.6278" lon="6.30211">
        <ele>368.79998779297</ele>
        <time>2025-08-08T16:46:49.000Z</time>
      </trkpt>
      <trkpt lat="45.62773" lon="6.30193">
        <ele>369.39999389648</ele>
        <time>2025-08-08T16:46:51.000Z</time>
      </trkpt>
      <trkpt lat="45.62769" lon="6.30183">
        <ele>369.79998779297</ele>
        <time>2025-08-08T16:46:53.000Z</time>
      </trkpt>
      <trkpt lat="45.62769" lon="6.30183">
        <ele>370.20001220703</ele>
        <time>2025-08-08T16:46:54.000Z</time>
      </trkpt>
      <trkpt lat="45.62763" lon="6.30161">
        <ele>370.60000610352</ele>
        <time>2025-08-08T16:46:57.000Z</time>
      </trkpt>
      <trkpt lat="45.62757" lon="6.30141">
        <ele>371.39999389648</ele>
        <time>2025-08-08T16:47:01.000Z</time>
      </trkpt>
      <trkpt lat="45.62751" lon="6.30121">
        <ele>372</ele>
        <time>2025-08-08T16:47:05.000Z</time>
      </trkpt>
      <trkpt lat="45.62748" lon="6.30111">
        <ele>372.39999389648</ele>
        <time>2025-08-08T16:47:07.000Z</time>
      </trkpt>
      <trkpt lat="45.62741" lon="6.30084">
        <ele>373</ele>
        <time>2025-08-08T16:47:12.000Z</time>
      </trkpt>
      <trkpt lat="45.62734" lon="6.30063">
        <ele>373.60000610352</ele>
        <time>2025-08-08T16:47:16.000Z</time>
      </trkpt>
      <trkpt lat="45.62725" lon="6.30036">
        <ele>374.39999389648</ele>
        <time>2025-08-08T16:47:21.000Z</time>
      </trkpt>
      <trkpt lat="45.62721" lon="6.30025">
        <ele>374.39999389648</ele>
        <time>2025-08-08T16:47:23.000Z</time>
      </trkpt>
      <trkpt lat="45.62716" lon="6.30008">
        <ele>374.60000610352</ele>
        <time>2025-08-08T16:47:26.000Z</time>
      </trkpt>
      <trkpt lat="45.62712" lon="6.29996">
        <ele>374.60000610352</ele>
        <time>2025-08-08T16:47:28.000Z</time>
      </trkpt>
      <trkpt lat="45.62697" lon="6.29944">
        <ele>374.79998779297</ele>
        <time>2025-08-08T16:47:37.000Z</time>
      </trkpt>
      <trkpt lat="45.6268" lon="6.29889">
        <ele>375</ele>
        <time>2025-08-08T16:47:47.000Z</time>
      </trkpt>
      <trkpt lat="45.62677" lon="6.29876">
        <ele>375.20001220703</ele>
        <time>2025-08-08T16:47:48.000Z</time>
      </trkpt>
      <trkpt lat="45.62671" lon="6.29843">
        <ele>375</ele>
        <time>2025-08-08T16:47:53.000Z</time>
      </trkpt>
      <trkpt lat="45.62668" lon="6.2983">
        <ele>375</ele>
        <time>2025-08-08T16:47:55.000Z</time>
      </trkpt>
      <trkpt lat="45.6266" lon="6.29816">
        <ele>375.20001220703</ele>
        <time>2025-08-08T16:47:58.000Z</time>
      </trkpt>
      <trkpt lat="45.62654" lon="6.29806">
        <ele>375.20001220703</ele>
        <time>2025-08-08T16:48:00.000Z</time>
      </trkpt>
      <trkpt lat="45.62651" lon="6.29795">
        <ele>375.39999389648</ele>
        <time>2025-08-08T16:48:02.000Z</time>
      </trkpt>
      <trkpt lat="45.62641" lon="6.29764">
        <ele>375.79998779297</ele>
        <time>2025-08-08T16:48:08.000Z</time>
      </trkpt>
      <trkpt lat="45.62639" lon="6.29759">
        <ele>375.79998779297</ele>
        <time>2025-08-08T16:48:09.000Z</time>
      </trkpt>
      <trkpt lat="45.62637" lon="6.29749">
        <ele>376.20001220703</ele>
        <time>2025-08-08T16:48:11.000Z</time>
      </trkpt>
      <trkpt lat="45.62634" lon="6.29732">
        <ele>377</ele>
        <time>2025-08-08T16:48:14.000Z</time>
      </trkpt>
      <trkpt lat="45.62626" lon="6.29713">
        <ele>377.60000610352</ele>
        <time>2025-08-08T16:48:18.000Z</time>
      </trkpt>
      <trkpt lat="45.62622" lon="6.29697">
        <ele>378</ele>
        <time>2025-08-08T16:48:21.000Z</time>
      </trkpt>
      <trkpt lat="45.62615" lon="6.29675">
        <ele>378.60000610352</ele>
        <time>2025-08-08T16:48:25.000Z</time>
      </trkpt>
      <trkpt lat="45.62604" lon="6.29639">
        <ele>379.20001220703</ele>
        <time>2025-08-08T16:48:32.000Z</time>
      </trkpt>
      <trkpt lat="45.62594" lon="6.29608">
        <ele>379.60000610352</ele>
        <time>2025-08-08T16:48:38.000Z</time>
      </trkpt>
      <trkpt lat="45.62588" lon="6.29588">
        <ele>380.20001220703</ele>
        <time>2025-08-08T16:48:42.000Z</time>
      </trkpt>
      <trkpt lat="45.62582" lon="6.29568">
        <ele>380.60000610352</ele>
        <time>2025-08-08T16:48:46.000Z</time>
      </trkpt>
      <trkpt lat="45.62576" lon="6.2955">
        <ele>381.20001220703</ele>
        <time>2025-08-08T16:48:50.000Z</time>
      </trkpt>
      <trkpt lat="45.6257" lon="6.2953">
        <ele>382.39999389648</ele>
        <time>2025-08-08T16:48:55.000Z</time>
      </trkpt>
      <trkpt lat="45.62564" lon="6.29511">
        <ele>382.60000610352</ele>
        <time>2025-08-08T16:48:58.000Z</time>
      </trkpt>
      <trkpt lat="45.62557" lon="6.29487">
        <ele>383.39999389648</ele>
        <time>2025-08-08T16:49:03.000Z</time>
      </trkpt>
      <trkpt lat="45.6255" lon="6.29463">
        <ele>384</ele>
        <time>2025-08-08T16:49:08.000Z</time>
      </trkpt>
      <trkpt lat="45.62544" lon="6.29445">
        <ele>384.39999389648</ele>
        <time>2025-08-08T16:49:12.000Z</time>
      </trkpt>
      <trkpt lat="45.62534" lon="6.29411">
        <ele>385.39999389648</ele>
        <time>2025-08-08T16:49:19.000Z</time>
      </trkpt>
      <trkpt lat="45.62533" lon="6.29407">
        <ele>385.60000610352</ele>
        <time>2025-08-08T16:49:20.000Z</time>
      </trkpt>
      <trkpt lat="45.62522" lon="6.29371">
        <ele>386.79998779297</ele>
        <time>2025-08-08T16:49:28.000Z</time>
      </trkpt>
      <trkpt lat="45.62519" lon="6.29361">
        <ele>387</ele>
        <time>2025-08-08T16:49:30.000Z</time>
      </trkpt>
      <trkpt lat="45.62508" lon="6.29329">
        <ele>388</ele>
        <time>2025-08-08T16:49:37.000Z</time>
      </trkpt>
      <trkpt lat="45.62504" lon="6.29316">
        <ele>388.39999389648</ele>
        <time>2025-08-08T16:49:40.000Z</time>
      </trkpt>
      <trkpt lat="45.625" lon="6.29303">
        <ele>389</ele>
        <time>2025-08-08T16:49:43.000Z</time>
      </trkpt>
      <trkpt lat="45.62493" lon="6.2928">
        <ele>389.60000610352</ele>
        <time>2025-08-08T16:49:48.000Z</time>
      </trkpt>
      <trkpt lat="45.6249" lon="6.29265">
        <ele>390.20001220703</ele>
        <time>2025-08-08T16:49:51.000Z</time>
      </trkpt>
      <trkpt lat="45.62484" lon="6.29249">
        <ele>390.79998779297</ele>
        <time>2025-08-08T16:49:55.000Z</time>
      </trkpt>
      <trkpt lat="45.6248" lon="6.29236">
        <ele>391.20001220703</ele>
        <time>2025-08-08T16:49:58.000Z</time>
      </trkpt>
      <trkpt lat="45.62474" lon="6.29214">
        <ele>392</ele>
        <time>2025-08-08T16:50:03.000Z</time>
      </trkpt>
      <trkpt lat="45.62471" lon="6.29206">
        <ele>392.20001220703</ele>
        <time>2025-08-08T16:50:05.000Z</time>
      </trkpt>
      <trkpt lat="45.62462" lon="6.29177">
        <ele>393.39999389648</ele>
        <time>2025-08-08T16:50:12.000Z</time>
      </trkpt>
      <trkpt lat="45.62453" lon="6.29145">
        <ele>394.60000610352</ele>
        <time>2025-08-08T16:50:19.000Z</time>
      </trkpt>
      <trkpt lat="45.62451" lon="6.29141">
        <ele>394.60000610352</ele>
        <time>2025-08-08T16:50:20.000Z</time>
      </trkpt>
      <trkpt lat="45.62442" lon="6.29115">
        <ele>395.79998779297</ele>
        <time>2025-08-08T16:50:26.000Z</time>
      </trkpt>
      <trkpt lat="45.62437" lon="6.29102">
        <ele>396.20001220703</ele>
        <time>2025-08-08T16:50:29.000Z</time>
      </trkpt>
      <trkpt lat="45.62432" lon="6.29084">
        <ele>396.79998779297</ele>
        <time>2025-08-08T16:50:33.000Z</time>
      </trkpt>
      <trkpt lat="45.62429" lon="6.29075">
        <ele>397</ele>
        <time>2025-08-08T16:50:35.000Z</time>
      </trkpt>
      <trkpt lat="45.62425" lon="6.29058">
        <ele>397.79998779297</ele>
        <time>2025-08-08T16:50:39.000Z</time>
      </trkpt>
      <trkpt lat="45.6242" lon="6.2904">
        <ele>398.60000610352</ele>
        <time>2025-08-08T16:50:43.000Z</time>
      </trkpt>
      <trkpt lat="45.62418" lon="6.29031">
        <ele>399</ele>
        <time>2025-08-08T16:50:45.000Z</time>
      </trkpt>
      <trkpt lat="45.62408" lon="6.28998">
        <ele>400.20001220703</ele>
        <time>2025-08-08T16:50:53.000Z</time>
      </trkpt>
      <trkpt lat="45.62406" lon="6.28994">
        <ele>400.39999389648</ele>
        <time>2025-08-08T16:50:54.000Z</time>
      </trkpt>
      <trkpt lat="45.62398" lon="6.28966">
        <ele>401.20001220703</ele>
        <time>2025-08-08T16:51:01.000Z</time>
      </trkpt>
      <trkpt lat="45.62397" lon="6.28961">
        <ele>401.39999389648</ele>
        <time>2025-08-08T16:51:02.000Z</time>
      </trkpt>
      <trkpt lat="45.6239" lon="6.28936">
        <ele>402.39999389648</ele>
        <time>2025-08-08T16:51:08.000Z</time>
      </trkpt>
      <trkpt lat="45.62381" lon="6.28907">
        <ele>403.39999389648</ele>
        <time>2025-08-08T16:51:15.000Z</time>
      </trkpt>
      <trkpt lat="45.62376" lon="6.2889">
        <ele>404</ele>
        <time>2025-08-08T16:51:19.000Z</time>
      </trkpt>
      <trkpt lat="45.6237" lon="6.28868">
        <ele>404.39999389648</ele>
        <time>2025-08-08T16:51:24.000Z</time>
      </trkpt>
      <trkpt lat="45.62369" lon="6.28864">
        <ele>404.60000610352</ele>
        <time>2025-08-08T16:51:25.000Z</time>
      </trkpt>
      <trkpt lat="45.62355" lon="6.28836">
        <ele>405.79998779297</ele>
        <time>2025-08-08T16:51:32.000Z</time>
      </trkpt>
      <trkpt lat="45.62332" lon="6.28811">
        <ele>406.20001220703</ele>
        <time>2025-08-08T16:51:40.000Z</time>
      </trkpt>
      <trkpt lat="45.62306" lon="6.28776">
        <ele>406.39999389648</ele>
        <time>2025-08-08T16:51:49.000Z</time>
      </trkpt>
      <trkpt lat="45.62279" lon="6.28744">
        <ele>406.60000610352</ele>
        <time>2025-08-08T16:51:57.000Z</time>
      </trkpt>
      <trkpt lat="45.62253" lon="6.28709">
        <ele>406.20001220703</ele>
        <time>2025-08-08T16:52:03.000Z</time>
      </trkpt>
      <trkpt lat="45.62215" lon="6.2866">
        <ele>404.79998779297</ele>
        <time>2025-08-08T16:52:11.000Z</time>
      </trkpt>
      <trkpt lat="45.62201" lon="6.28643">
        <ele>404.79998779297</ele>
        <time>2025-08-08T16:52:14.000Z</time>
      </trkpt>
      <trkpt lat="45.62197" lon="6.28637">
        <ele>404.79998779297</ele>
        <time>2025-08-08T16:52:15.000Z</time>
      </trkpt>
      <trkpt lat="45.62175" lon="6.28607">
        <ele>404.60000610352</ele>
        <time>2025-08-08T16:52:20.000Z</time>
      </trkpt>
      <trkpt lat="45.62132" lon="6.28553">
        <ele>405.20001220703</ele>
        <time>2025-08-08T16:52:30.000Z</time>
      </trkpt>
      <trkpt lat="45.62124" lon="6.28543">
        <ele>405.60000610352</ele>
        <time>2025-08-08T16:52:32.000Z</time>
      </trkpt>
      <trkpt lat="45.62104" lon="6.28517">
        <ele>406</ele>
        <time>2025-08-08T16:52:37.000Z</time>
      </trkpt>
      <trkpt lat="45.62094" lon="6.28503">
        <ele>406.20001220703</ele>
        <time>2025-08-08T16:52:40.000Z</time>
      </trkpt>
      <trkpt lat="45.62073" lon="6.28475">
        <ele>407.20001220703</ele>
        <time>2025-08-08T16:52:46.000Z</time>
      </trkpt>
      <trkpt lat="45.6207" lon="6.2847">
        <ele>407.20001220703</ele>
        <time>2025-08-08T16:52:47.000Z</time>
      </trkpt>
      <trkpt lat="45.62051" lon="6.28446">
        <ele>407.60000610352</ele>
        <time>2025-08-08T16:52:53.000Z</time>
      </trkpt>
      <trkpt lat="45.62038" lon="6.28429">
        <ele>408.20001220703</ele>
        <time>2025-08-08T16:52:57.000Z</time>
      </trkpt>
      <trkpt lat="45.62008" lon="6.28393">
        <ele>409.39999389648</ele>
        <time>2025-08-08T16:53:06.000Z</time>
      </trkpt>
      <trkpt lat="45.62001" lon="6.28384">
        <ele>409.39999389648</ele>
        <time>2025-08-08T16:53:08.000Z</time>
      </trkpt>
      <trkpt lat="45.61968" lon="6.28342">
        <ele>409.79998779297</ele>
        <time>2025-08-08T16:53:17.000Z</time>
      </trkpt>
      <trkpt lat="45.61933" lon="6.28304">
        <ele>409.60000610352</ele>
        <time>2025-08-08T16:53:26.000Z</time>
      </trkpt>
      <trkpt lat="45.61912" lon="6.28288">
        <ele>410.20001220703</ele>
        <time>2025-08-08T16:53:32.000Z</time>
      </trkpt>
      <trkpt lat="45.61906" lon="6.28284">
        <ele>410.39999389648</ele>
        <time>2025-08-08T16:53:34.000Z</time>
      </trkpt>
      <trkpt lat="45.61894" lon="6.28274">
        <ele>411</ele>
        <time>2025-08-08T16:53:38.000Z</time>
      </trkpt>
      <trkpt lat="45.61885" lon="6.28267">
        <ele>411.39999389648</ele>
        <time>2025-08-08T16:53:41.000Z</time>
      </trkpt>
      <trkpt lat="45.61871" lon="6.28254">
        <ele>412.39999389648</ele>
        <time>2025-08-08T16:53:46.000Z</time>
      </trkpt>
      <trkpt lat="45.61868" lon="6.28251">
        <ele>412.39999389648</ele>
        <time>2025-08-08T16:53:47.000Z</time>
      </trkpt>
      <trkpt lat="45.61848" lon="6.28237">
        <ele>413</ele>
        <time>2025-08-08T16:53:53.000Z</time>
      </trkpt>
      <trkpt lat="45.61837" lon="6.2823">
        <ele>413.39999389648</ele>
        <time>2025-08-08T16:53:56.000Z</time>
      </trkpt>
      <trkpt lat="45.61812" lon="6.28216">
        <ele>414.20001220703</ele>
        <time>2025-08-08T16:54:04.000Z</time>
      </trkpt>
      <trkpt lat="45.61809" lon="6.28213">
        <ele>414.39999389648</ele>
        <time>2025-08-08T16:54:05.000Z</time>
      </trkpt>
      <trkpt lat="45.61786" lon="6.28198">
        <ele>415.60000610352</ele>
        <time>2025-08-08T16:54:13.000Z</time>
      </trkpt>
      <trkpt lat="45.61779" lon="6.28193">
        <ele>415.79998779297</ele>
        <time>2025-08-08T16:54:15.000Z</time>
      </trkpt>
      <trkpt lat="45.61772" lon="6.28188">
        <ele>416.20001220703</ele>
        <time>2025-08-08T16:54:18.000Z</time>
      </trkpt>
      <trkpt lat="45.61759" lon="6.2818">
        <ele>416.60000610352</ele>
        <time>2025-08-08T16:54:22.000Z</time>
      </trkpt>
      <trkpt lat="45.61748" lon="6.28172">
        <ele>417</ele>
        <time>2025-08-08T16:54:26.000Z</time>
      </trkpt>
      <trkpt lat="45.61736" lon="6.28164">
        <ele>417.60000610352</ele>
        <time>2025-08-08T16:54:30.000Z</time>
      </trkpt>
      <trkpt lat="45.61722" lon="6.28155">
        <ele>418.20001220703</ele>
        <time>2025-08-08T16:54:35.000Z</time>
      </trkpt>
      <trkpt lat="45.6171" lon="6.28147">
        <ele>418.60000610352</ele>
        <time>2025-08-08T16:54:39.000Z</time>
      </trkpt>
      <trkpt lat="45.61695" lon="6.28137">
        <ele>419.39999389648</ele>
        <time>2025-08-08T16:54:44.000Z</time>
      </trkpt>
      <trkpt lat="45.61683" lon="6.28129">
        <ele>419.79998779297</ele>
        <time>2025-08-08T16:54:48.000Z</time>
      </trkpt>
      <trkpt lat="45.6167" lon="6.28119">
        <ele>420.20001220703</ele>
        <time>2025-08-08T16:54:53.000Z</time>
      </trkpt>
      <trkpt lat="45.6165" lon="6.28106">
        <ele>420.79998779297</ele>
        <time>2025-08-08T16:55:00.000Z</time>
      </trkpt>
      <trkpt lat="45.61644" lon="6.28103">
        <ele>421</ele>
        <time>2025-08-08T16:55:02.000Z</time>
      </trkpt>
      <trkpt lat="45.61628" lon="6.28092">
        <ele>421.79998779297</ele>
        <time>2025-08-08T16:55:08.000Z</time>
      </trkpt>
      <trkpt lat="45.61619" lon="6.28088">
        <ele>422.39999389648</ele>
        <time>2025-08-08T16:55:11.000Z</time>
      </trkpt>
      <trkpt lat="45.61605" lon="6.2808">
        <ele>423</ele>
        <time>2025-08-08T16:55:16.000Z</time>
      </trkpt>
      <trkpt lat="45.61597" lon="6.28074">
        <ele>423</ele>
        <time>2025-08-08T16:55:19.000Z</time>
      </trkpt>
      <trkpt lat="45.61578" lon="6.28062">
        <ele>423.60000610352</ele>
        <time>2025-08-08T16:55:26.000Z</time>
      </trkpt>
      <trkpt lat="45.61575" lon="6.2806">
        <ele>423.79998779297</ele>
        <time>2025-08-08T16:55:27.000Z</time>
      </trkpt>
      <trkpt lat="45.61573" lon="6.28059">
        <ele>423.79998779297</ele>
        <time>2025-08-08T16:55:28.000Z</time>
      </trkpt>
      <trkpt lat="45.61556" lon="6.28052">
        <ele>424.60000610352</ele>
        <time>2025-08-08T16:55:34.000Z</time>
      </trkpt>
      <trkpt lat="45.61551" lon="6.2805">
        <ele>424.79998779297</ele>
        <time>2025-08-08T16:55:36.000Z</time>
      </trkpt>
      <trkpt lat="45.61531" lon="6.2805">
        <ele>425.60000610352</ele>
        <time>2025-08-08T16:55:43.000Z</time>
      </trkpt>
      <trkpt lat="45.61528" lon="6.2805">
        <ele>425.79998779297</ele>
        <time>2025-08-08T16:55:44.000Z</time>
      </trkpt>
      <trkpt lat="45.61515" lon="6.28054">
        <ele>426.79998779297</ele>
        <time>2025-08-08T16:55:49.000Z</time>
      </trkpt>
      <trkpt lat="45.61488" lon="6.28066">
        <ele>427.60000610352</ele>
        <time>2025-08-08T16:55:59.000Z</time>
      </trkpt>
      <trkpt lat="45.61486" lon="6.28066">
        <ele>427.79998779297</ele>
        <time>2025-08-08T16:56:00.000Z</time>
      </trkpt>
      <trkpt lat="45.61465" lon="6.28074">
        <ele>428.79998779297</ele>
        <time>2025-08-08T16:56:07.000Z</time>
      </trkpt>
      <trkpt lat="45.6146" lon="6.28075">
        <ele>429</ele>
        <time>2025-08-08T16:56:09.000Z</time>
      </trkpt>
      <trkpt lat="45.61441" lon="6.28073">
        <ele>430</ele>
        <time>2025-08-08T16:56:15.000Z</time>
      </trkpt>
      <trkpt lat="45.61426" lon="6.28068">
        <ele>431</ele>
        <time>2025-08-08T16:56:20.000Z</time>
      </trkpt>
      <trkpt lat="45.61417" lon="6.28062">
        <ele>431.20001220703</ele>
        <time>2025-08-08T16:56:23.000Z</time>
      </trkpt>
      <trkpt lat="45.61394" lon="6.28049">
        <ele>432</ele>
        <time>2025-08-08T16:56:30.000Z</time>
      </trkpt>
      <trkpt lat="45.61385" lon="6.28041">
        <ele>432.39999389648</ele>
        <time>2025-08-08T16:56:33.000Z</time>
      </trkpt>
      <trkpt lat="45.61375" lon="6.2803">
        <ele>433</ele>
        <time>2025-08-08T16:56:37.000Z</time>
      </trkpt>
      <trkpt lat="45.61368" lon="6.2802">
        <ele>434</ele>
        <time>2025-08-08T16:56:40.000Z</time>
      </trkpt>
      <trkpt lat="45.61366" lon="6.28016">
        <ele>434.20001220703</ele>
        <time>2025-08-08T16:56:41.000Z</time>
      </trkpt>
      <trkpt lat="45.61355" lon="6.27998">
        <ele>435.20001220703</ele>
        <time>2025-08-08T16:56:46.000Z</time>
      </trkpt>
      <trkpt lat="45.61343" lon="6.27981">
        <ele>436.39999389648</ele>
        <time>2025-08-08T16:56:51.000Z</time>
      </trkpt>
      <trkpt lat="45.61325" lon="6.27942">
        <ele>436.79998779297</ele>
        <time>2025-08-08T16:57:00.000Z</time>
      </trkpt>
      <trkpt lat="45.61319" lon="6.27903">
        <ele>437</ele>
        <time>2025-08-08T16:57:07.000Z</time>
      </trkpt>
      <trkpt lat="45.61318" lon="6.27853">
        <ele>437</ele>
        <time>2025-08-08T16:57:16.000Z</time>
      </trkpt>
      <trkpt lat="45.61316" lon="6.27808">
        <ele>437.39999389648</ele>
        <time>2025-08-08T16:57:25.000Z</time>
      </trkpt>
      <trkpt lat="45.61314" lon="6.27753">
        <ele>438.60000610352</ele>
        <time>2025-08-08T16:57:36.000Z</time>
      </trkpt>
      <trkpt lat="45.61314" lon="6.27748">
        <ele>438.79998779297</ele>
        <time>2025-08-08T16:57:37.000Z</time>
      </trkpt>
      <trkpt lat="45.61311" lon="6.27705">
        <ele>439.60000610352</ele>
        <time>2025-08-08T16:57:46.000Z</time>
      </trkpt>
      <trkpt lat="45.61311" lon="6.27699">
        <ele>439.60000610352</ele>
        <time>2025-08-08T16:57:47.000Z</time>
      </trkpt>
      <trkpt lat="45.6131" lon="6.27656">
        <ele>440.60000610352</ele>
        <time>2025-08-08T16:57:56.000Z</time>
      </trkpt>
      <trkpt lat="45.6131" lon="6.2765">
        <ele>440.79998779297</ele>
        <time>2025-08-08T16:57:57.000Z</time>
      </trkpt>
      <trkpt lat="45.61309" lon="6.27618">
        <ele>441.79998779297</ele>
        <time>2025-08-08T16:58:04.000Z</time>
      </trkpt>
      <trkpt lat="45.61309" lon="6.27611">
        <ele>442.20001220703</ele>
        <time>2025-08-08T16:58:06.000Z</time>
      </trkpt>
      <trkpt lat="45.6131" lon="6.27608">
        <ele>442.20001220703</ele>
        <time>2025-08-08T16:58:07.000Z</time>
      </trkpt>
      <trkpt lat="45.61313" lon="6.27603">
        <ele>442.39999389648</ele>
        <time>2025-08-08T16:58:09.000Z</time>
      </trkpt>
      <trkpt lat="45.61314" lon="6.27601">
        <ele>442.39999389648</ele>
        <time>2025-08-08T16:58:10.000Z</time>
      </trkpt>
      <trkpt lat="45.61321" lon="6.27594">
        <ele>442.60000610352</ele>
        <time>2025-08-08T16:58:15.000Z</time>
      </trkpt>
      <trkpt lat="45.6132" lon="6.27592">
        <ele>442.79998779297</ele>
        <time>2025-08-08T16:58:18.000Z</time>
      </trkpt>
      <trkpt lat="45.61319" lon="6.27592">
        <ele>442.79998779297</ele>
        <time>2025-08-08T16:58:19.000Z</time>
      </trkpt>
      <trkpt lat="45.61319" lon="6.27592">
        <ele>442.79998779297</ele>
        <time>2025-08-08T16:58:21.000Z</time>
      </trkpt>
      <trkpt lat="45.6132" lon="6.27594">
        <ele>442.60000610352</ele>
        <time>2025-08-08T16:59:44.000Z</time>
      </trkpt>
      <trkpt lat="45.6132" lon="6.27594">
        <ele>442.79998779297</ele>
        <time>2025-08-08T16:59:45.000Z</time>
      </trkpt>
      <trkpt lat="45.61323" lon="6.27591">
        <ele>442.79998779297</ele>
        <time>2025-08-08T16:59:48.000Z</time>
      </trkpt>
      <trkpt lat="45.61331" lon="6.27588">
        <ele>442.60000610352</ele>
        <time>2025-08-08T16:59:54.000Z</time>
      </trkpt>
      <trkpt lat="45.61344" lon="6.27592">
        <ele>442.79998779297</ele>
        <time>2025-08-08T17:00:00.000Z</time>
      </trkpt>
      <trkpt lat="45.6136" lon="6.276">
        <ele>443</ele>
        <time>2025-08-08T17:00:06.000Z</time>
      </trkpt>
      <trkpt lat="45.61375" lon="6.2761">
        <ele>443.79998779297</ele>
        <time>2025-08-08T17:00:12.000Z</time>
      </trkpt>
      <trkpt lat="45.61378" lon="6.27611">
        <ele>444</ele>
        <time>2025-08-08T17:00:13.000Z</time>
      </trkpt>
      <trkpt lat="45.61393" lon="6.27618">
        <ele>444.79998779297</ele>
        <time>2025-08-08T17:00:19.000Z</time>
      </trkpt>
      <trkpt lat="45.61396" lon="6.2762">
        <ele>445</ele>
        <time>2025-08-08T17:00:20.000Z</time>
      </trkpt>
      <trkpt lat="45.61411" lon="6.27629">
        <ele>445.79998779297</ele>
        <time>2025-08-08T17:00:26.000Z</time>
      </trkpt>
      <trkpt lat="45.61418" lon="6.27635">
        <ele>446.20001220703</ele>
        <time>2025-08-08T17:00:29.000Z</time>
      </trkpt>
      <trkpt lat="45.61428" lon="6.27644">
        <ele>446.39999389648</ele>
        <time>2025-08-08T17:00:33.000Z</time>
      </trkpt>
      <trkpt lat="45.61441" lon="6.27656">
        <ele>447.20001220703</ele>
        <time>2025-08-08T17:00:38.000Z</time>
      </trkpt>
      <trkpt lat="45.61444" lon="6.27658">
        <ele>447.39999389648</ele>
        <time>2025-08-08T17:00:39.000Z</time>
      </trkpt>
      <trkpt lat="45.61452" lon="6.27664">
        <ele>448</ele>
        <time>2025-08-08T17:00:42.000Z</time>
      </trkpt>
      <trkpt lat="45.61466" lon="6.27673">
        <ele>448.60000610352</ele>
        <time>2025-08-08T17:00:47.000Z</time>
      </trkpt>
      <trkpt lat="45.61468" lon="6.27675">
        <ele>448.60000610352</ele>
        <time>2025-08-08T17:00:48.000Z</time>
      </trkpt>
      <trkpt lat="45.6149" lon="6.27688">
        <ele>449.60000610352</ele>
        <time>2025-08-08T17:00:56.000Z</time>
      </trkpt>
      <trkpt lat="45.61504" lon="6.27697">
        <ele>450.20001220703</ele>
        <time>2025-08-08T17:01:01.000Z</time>
      </trkpt>
      <trkpt lat="45.61517" lon="6.27706">
        <ele>450.60000610352</ele>
        <time>2025-08-08T17:01:06.000Z</time>
      </trkpt>
      <trkpt lat="45.61529" lon="6.27715">
        <ele>451.20001220703</ele>
        <time>2025-08-08T17:01:10.000Z</time>
      </trkpt>
      <trkpt lat="45.61536" lon="6.27721">
        <ele>451.79998779297</ele>
        <time>2025-08-08T17:01:13.000Z</time>
      </trkpt>
      <trkpt lat="45.61551" lon="6.27731">
        <ele>452.39999389648</ele>
        <time>2025-08-08T17:01:18.000Z</time>
      </trkpt>
      <trkpt lat="45.61556" lon="6.27736">
        <ele>452.79998779297</ele>
        <time>2025-08-08T17:01:20.000Z</time>
      </trkpt>
      <trkpt lat="45.61574" lon="6.27746">
        <ele>453.60000610352</ele>
        <time>2025-08-08T17:01:26.000Z</time>
      </trkpt>
      <trkpt lat="45.61579" lon="6.2775">
        <ele>454</ele>
        <time>2025-08-08T17:01:28.000Z</time>
      </trkpt>
      <trkpt lat="45.61598" lon="6.27763">
        <ele>455</ele>
        <time>2025-08-08T17:01:35.000Z</time>
      </trkpt>
      <trkpt lat="45.61617" lon="6.27775">
        <ele>456.20001220703</ele>
        <time>2025-08-08T17:01:42.000Z</time>
      </trkpt>
      <trkpt lat="45.6162" lon="6.27777">
        <ele>456.39999389648</ele>
        <time>2025-08-08T17:01:43.000Z</time>
      </trkpt>
      <trkpt lat="45.61636" lon="6.27787">
        <ele>457</ele>
        <time>2025-08-08T17:01:49.000Z</time>
      </trkpt>
      <trkpt lat="45.61643" lon="6.27794">
        <ele>457.60000610352</ele>
        <time>2025-08-08T17:01:52.000Z</time>
      </trkpt>
      <trkpt lat="45.61651" lon="6.27799">
        <ele>458.20001220703</ele>
        <time>2025-08-08T17:01:55.000Z</time>
      </trkpt>
      <trkpt lat="45.61657" lon="6.27805">
        <ele>458.60000610352</ele>
        <time>2025-08-08T17:01:58.000Z</time>
      </trkpt>
      <trkpt lat="45.61667" lon="6.27815">
        <ele>459.20001220703</ele>
        <time>2025-08-08T17:02:02.000Z</time>
      </trkpt>
      <trkpt lat="45.61672" lon="6.27827">
        <ele>459.79998779297</ele>
        <time>2025-08-08T17:02:05.000Z</time>
      </trkpt>
      <trkpt lat="45.61674" lon="6.27841">
        <ele>460.39999389648</ele>
        <time>2025-08-08T17:02:08.000Z</time>
      </trkpt>
      <trkpt lat="45.61674" lon="6.27849">
        <ele>460.79998779297</ele>
        <time>2025-08-08T17:02:10.000Z</time>
      </trkpt>
      <trkpt lat="45.61677" lon="6.27869">
        <ele>461.60000610352</ele>
        <time>2025-08-08T17:02:16.000Z</time>
      </trkpt>
      <trkpt lat="45.61672" lon="6.27876">
        <ele>462</ele>
        <time>2025-08-08T17:02:20.000Z</time>
      </trkpt>
      <trkpt lat="45.61673" lon="6.27878">
        <ele>462</ele>
        <time>2025-08-08T17:02:22.000Z</time>
      </trkpt>
      <trkpt lat="45.61674" lon="6.27878">
        <ele>462.20001220703</ele>
        <time>2025-08-08T17:02:23.000Z</time>
      </trkpt>
      <trkpt lat="45.61674" lon="6.27877">
        <ele>462.20001220703</ele>
        <time>2025-08-08T17:02:26.000Z</time>
      </trkpt>
      <trkpt lat="45.61689" lon="6.27868">
        <ele>461.60000610352</ele>
        <time>2025-08-08T17:09:47.000Z</time>
      </trkpt>
      <trkpt lat="45.61704" lon="6.27859">
        <ele>461.79998779297</ele>
        <time>2025-08-08T17:09:53.000Z</time>
      </trkpt>
      <trkpt lat="45.61722" lon="6.27848">
        <ele>462</ele>
        <time>2025-08-08T17:10:00.000Z</time>
      </trkpt>
      <trkpt lat="45.61739" lon="6.27828">
        <ele>462.39999389648</ele>
        <time>2025-08-08T17:10:07.000Z</time>
      </trkpt>
      <trkpt lat="45.61744" lon="6.27816">
        <ele>462.79998779297</ele>
        <time>2025-08-08T17:10:10.000Z</time>
      </trkpt>
      <trkpt lat="45.61749" lon="6.27803">
        <ele>463</ele>
        <time>2025-08-08T17:10:13.000Z</time>
      </trkpt>
      <trkpt lat="45.61756" lon="6.27784">
        <ele>463.20001220703</ele>
        <time>2025-08-08T17:10:18.000Z</time>
      </trkpt>
      <trkpt lat="45.61761" lon="6.2777">
        <ele>463.79998779297</ele>
        <time>2025-08-08T17:10:22.000Z</time>
      </trkpt>
      <trkpt lat="45.61763" lon="6.27763">
        <ele>464.20001220703</ele>
        <time>2025-08-08T17:10:24.000Z</time>
      </trkpt>
      <trkpt lat="45.61767" lon="6.27749">
        <ele>465</ele>
        <time>2025-08-08T17:10:28.000Z</time>
      </trkpt>
      <trkpt lat="45.61768" lon="6.27745">
        <ele>465.20001220703</ele>
        <time>2025-08-08T17:10:29.000Z</time>
      </trkpt>
      <trkpt lat="45.6177" lon="6.27735">
        <ele>466</ele>
        <time>2025-08-08T17:10:32.000Z</time>
      </trkpt>
      <trkpt lat="45.61773" lon="6.27721">
        <ele>467.39999389648</ele>
        <time>2025-08-08T17:10:36.000Z</time>
      </trkpt>
      <trkpt lat="45.61777" lon="6.27713">
        <ele>468.20001220703</ele>
        <time>2025-08-08T17:10:39.000Z</time>
      </trkpt>
      <trkpt lat="45.61782" lon="6.2771">
        <ele>468.60000610352</ele>
        <time>2025-08-08T17:10:41.000Z</time>
      </trkpt>
      <trkpt lat="45.61794" lon="6.27704">
        <ele>469.79998779297</ele>
        <time>2025-08-08T17:10:45.000Z</time>
      </trkpt>
      <trkpt lat="45.61804" lon="6.277">
        <ele>470.79998779297</ele>
        <time>2025-08-08T17:10:49.000Z</time>
      </trkpt>
      <trkpt lat="45.61807" lon="6.27699">
        <ele>471</ele>
        <time>2025-08-08T17:10:50.000Z</time>
      </trkpt>
      <trkpt lat="45.61817" lon="6.27696">
        <ele>472.20001220703</ele>
        <time>2025-08-08T17:10:54.000Z</time>
      </trkpt>
      <trkpt lat="45.61825" lon="6.27693">
        <ele>473</ele>
        <time>2025-08-08T17:10:57.000Z</time>
      </trkpt>
      <trkpt lat="45.61831" lon="6.27691">
        <ele>473.60000610352</ele>
        <time>2025-08-08T17:10:59.000Z</time>
      </trkpt>
      <trkpt lat="45.61843" lon="6.27684">
        <ele>474.79998779297</ele>
        <time>2025-08-08T17:11:04.000Z</time>
      </trkpt>
      <trkpt lat="45.61846" lon="6.27684">
        <ele>475.20001220703</ele>
        <time>2025-08-08T17:11:05.000Z</time>
      </trkpt>
      <trkpt lat="45.61856" lon="6.27684">
        <ele>475.79998779297</ele>
        <time>2025-08-08T17:11:10.000Z</time>
      </trkpt>
      <trkpt lat="45.61858" lon="6.27685">
        <ele>475.79998779297</ele>
        <time>2025-08-08T17:11:11.000Z</time>
      </trkpt>
      <trkpt lat="45.61865" lon="6.27688">
        <ele>475.60000610352</ele>
        <time>2025-08-08T17:11:15.000Z</time>
      </trkpt>
      <trkpt lat="45.61866" lon="6.2769">
        <ele>475.60000610352</ele>
        <time>2025-08-08T17:11:16.000Z</time>
      </trkpt>
      <trkpt lat="45.61865" lon="6.27697">
        <ele>475</ele>
        <time>2025-08-08T17:11:19.000Z</time>
      </trkpt>
      <trkpt lat="45.61864" lon="6.277">
        <ele>474.39999389648</ele>
        <time>2025-08-08T17:11:22.000Z</time>
      </trkpt>
      <trkpt lat="45.61864" lon="6.277">
        <ele>474</ele>
        <time>2025-08-08T17:11:24.000Z</time>
      </trkpt>
    </trkseg>
  </trk>
</gpx>